﻿<?xml version="1.0" encoding="UTF-8"?>
<gpx xmlns="http://www.topografix.com/GPX/1/1" creator="HOLUX ezTour Plus" version="1.1">
<metadata>
<link href="http://www.holux.com"><text>HOLUX Technology, Inc.</text></link>
<time>2013-11-27T20:32:58Z</time></metadata>
<trk>
<name><![CDATA[Holux2013/11/19_09:34]]></name>
<trkseg>
<trkpt lat="31.257141113" lon="34.798206329">
<ele>287.476563</ele>
<time>2013-11-19T07:34:04Z</time>
<speed>0.320000</speed>
<extensions>
<speed>0.3</speed>
<temp>0.00</temp>
<bpm>0</bpm>
<rpm>0.00</rpm>
</extensions>
</trkpt>
<trkpt lat="31.257162094" lon="34.798191071">
<ele>288.835938</ele>
<time>2013-11-19T07:34:09Z</time>
<speed>0.010000</speed>
<extensions>
<speed>0.0</speed>
<temp>0.00</temp>
<bpm>0</bpm>
<rpm>0.00</rpm>
</extensions>
</trkpt>
<trkpt lat="31.257211685" lon="34.798152924">
<ele>280.773438</ele>
<time>2013-11-19T07:34:14Z</time>
<speed>0.060000</speed>
<extensions>
<speed>0.1</speed>
<temp>0.00</temp>
<bpm>0</bpm>
<rpm>0.00</rpm>
</extensions>
</trkpt>
<trkpt lat="31.257226944" lon="34.798118591">
<ele>283.273438</ele>
<time>2013-11-19T07:34:19Z</time>
<speed>0.010000</speed>
<extensions>
<speed>0.0</speed>
<temp>0.00</temp>
<bpm>0</bpm>
<rpm>0.00</rpm>
</extensions>
</trkpt>
<trkpt lat="31.257225037" lon="34.798103333">
<ele>283.781250</ele>
<time>2013-11-19T07:34:24Z</time>
<speed>0.020000</speed>
<extensions>
<speed>0.0</speed>
<temp>0.00</temp>
<bpm>0</bpm>
<rpm>0.00</rpm>
</extensions>
</trkpt>
<trkpt lat="31.257230759" lon="34.798099518">
<ele>284.000000</ele>
<time>2013-11-19T07:34:29Z</time>
<speed>0.040000</speed>
<extensions>
<speed>0.0</speed>
<temp>0.00</temp>
<bpm>0</bpm>
<rpm>0.00</rpm>
</extensions>
</trkpt>
<trkpt lat="31.257242203" lon="34.798084259">
<ele>284.046875</ele>
<time>2013-11-19T07:34:34Z</time>
<speed>0.060000</speed>
<extensions>
<speed>0.1</speed>
<temp>0.00</temp>
<bpm>0</bpm>
<rpm>0.00</rpm>
</extensions>
</trkpt>
<trkpt lat="31.257251740" lon="34.798076630">
<ele>283.250000</ele>
<time>2013-11-19T07:34:39Z</time>
<speed>0.070000</speed>
<extensions>
<speed>0.1</speed>
<temp>0.00</temp>
<bpm>0</bpm>
<rpm>0.00</rpm>
</extensions>
</trkpt>
<trkpt lat="31.257249832" lon="34.798076630">
<ele>283.218750</ele>
<time>2013-11-19T07:34:44Z</time>
<extensions>
<speed>0.0</speed>
<temp>0.00</temp>
<bpm>0</bpm>
<rpm>0.00</rpm>
</extensions>
</trkpt>
<trkpt lat="31.257251740" lon="34.798076630">
<ele>283.210938</ele>
<time>2013-11-19T07:34:49Z</time>
<speed>0.060000</speed>
<extensions>
<speed>0.1</speed>
<temp>0.00</temp>
<bpm>0</bpm>
<rpm>0.00</rpm>
</extensions>
</trkpt>
<trkpt lat="31.257249832" lon="34.798076630">
<ele>283.218750</ele>
<time>2013-11-19T07:34:54Z</time>
<speed>0.010000</speed>
<extensions>
<speed>0.0</speed>
<temp>0.00</temp>
<bpm>0</bpm>
<rpm>0.00</rpm>
</extensions>
</trkpt>
<trkpt lat="31.257251740" lon="34.798076630">
<ele>283.203125</ele>
<time>2013-11-19T07:34:59Z</time>
<extensions>
<speed>0.0</speed>
<temp>0.00</temp>
<bpm>0</bpm>
<rpm>0.00</rpm>
</extensions>
</trkpt>
<trkpt lat="31.257247925" lon="34.798076630">
<ele>283.375000</ele>
<time>2013-11-19T07:35:04Z</time>
<speed>0.010000</speed>
<extensions>
<speed>0.0</speed>
<temp>0.00</temp>
<bpm>0</bpm>
<rpm>0.00</rpm>
</extensions>
</trkpt>
<trkpt lat="31.257246017" lon="34.798076630">
<ele>283.351563</ele>
<time>2013-11-19T07:35:09Z</time>
<speed>0.030000</speed>
<extensions>
<speed>0.0</speed>
<temp>0.00</temp>
<bpm>0</bpm>
<rpm>0.00</rpm>
</extensions>
</trkpt>
<trkpt lat="31.257246017" lon="34.798076630">
<ele>283.343750</ele>
<time>2013-11-19T07:35:14Z</time>
<extensions>
<speed>0.0</speed>
<temp>0.00</temp>
<bpm>0</bpm>
<rpm>0.00</rpm>
</extensions>
</trkpt>
<trkpt lat="31.257246017" lon="34.798076630">
<ele>283.328125</ele>
<time>2013-11-19T07:35:19Z</time>
<speed>0.010000</speed>
<extensions>
<speed>0.0</speed>
<temp>0.00</temp>
<bpm>0</bpm>
<rpm>0.00</rpm>
</extensions>
</trkpt>
<trkpt lat="31.257247925" lon="34.798076630">
<ele>283.304688</ele>
<time>2013-11-19T07:35:24Z</time>
<speed>0.180000</speed>
<extensions>
<speed>0.2</speed>
<temp>0.00</temp>
<bpm>0</bpm>
<rpm>0.00</rpm>
</extensions>
</trkpt>
<trkpt lat="31.257255554" lon="34.798072815">
<ele>283.265625</ele>
<time>2013-11-19T07:35:29Z</time>
<speed>0.260000</speed>
<extensions>
<speed>0.3</speed>
<temp>0.00</temp>
<bpm>0</bpm>
<rpm>0.00</rpm>
</extensions>
</trkpt>
<trkpt lat="31.257259369" lon="34.798069000">
<ele>283.281250</ele>
<time>2013-11-19T07:35:34Z</time>
<speed>0.010000</speed>
<extensions>
<speed>0.0</speed>
<temp>0.00</temp>
<bpm>0</bpm>
<rpm>0.00</rpm>
</extensions>
</trkpt>
<trkpt lat="31.257259369" lon="34.798069000">
<ele>283.343750</ele>
<time>2013-11-19T07:35:39Z</time>
<speed>0.010000</speed>
<extensions>
<speed>0.0</speed>
<temp>0.00</temp>
<bpm>0</bpm>
<rpm>0.00</rpm>
</extensions>
</trkpt>
<trkpt lat="31.257261276" lon="34.798069000">
<ele>283.390625</ele>
<time>2013-11-19T07:35:44Z</time>
<speed>0.150000</speed>
<extensions>
<speed>0.2</speed>
<temp>0.00</temp>
<bpm>0</bpm>
<rpm>0.00</rpm>
</extensions>
</trkpt>
<trkpt lat="31.257259369" lon="34.798069000">
<ele>283.390625</ele>
<time>2013-11-19T07:35:49Z</time>
<speed>1.880000</speed>
<extensions>
<speed>1.9</speed>
<temp>0.00</temp>
<bpm>0</bpm>
<rpm>0.00</rpm>
</extensions>
</trkpt>
<trkpt lat="31.257091522" lon="34.798091888">
<ele>283.273438</ele>
<time>2013-11-19T07:35:54Z</time>
<speed>4.370000</speed>
<extensions>
<speed>4.4</speed>
<temp>0.00</temp>
<bpm>0</bpm>
<rpm>0.00</rpm>
</extensions>
</trkpt>
<trkpt lat="31.256855011" lon="34.798126221">
<ele>283.882813</ele>
<time>2013-11-19T07:35:59Z</time>
<speed>5.410000</speed>
<extensions>
<speed>5.4</speed>
<temp>0.00</temp>
<bpm>0</bpm>
<rpm>0.00</rpm>
</extensions>
</trkpt>
<trkpt lat="31.256584167" lon="34.798175812">
<ele>284.125000</ele>
<time>2013-11-19T07:36:04Z</time>
<speed>6.000000</speed>
<extensions>
<speed>6.0</speed>
<temp>0.00</temp>
<bpm>0</bpm>
<rpm>0.00</rpm>
</extensions>
</trkpt>
<trkpt lat="31.256309509" lon="34.798221588">
<ele>283.195313</ele>
<time>2013-11-19T07:36:09Z</time>
<speed>6.140000</speed>
<extensions>
<speed>6.1</speed>
<temp>0.00</temp>
<bpm>0</bpm>
<rpm>0.00</rpm>
</extensions>
</trkpt>
<trkpt lat="31.256046295" lon="34.798274994">
<ele>282.429688</ele>
<time>2013-11-19T07:36:14Z</time>
<speed>5.550000</speed>
<extensions>
<speed>5.5</speed>
<temp>0.00</temp>
<bpm>0</bpm>
<rpm>0.00</rpm>
</extensions>
</trkpt>
<trkpt lat="31.255804062" lon="34.798336029">
<ele>282.671875</ele>
<time>2013-11-19T07:36:19Z</time>
<speed>4.670000</speed>
<extensions>
<speed>4.7</speed>
<temp>0.00</temp>
<bpm>0</bpm>
<rpm>0.00</rpm>
</extensions>
</trkpt>
<trkpt lat="31.255626678" lon="34.798366547">
<ele>282.132813</ele>
<time>2013-11-19T07:36:24Z</time>
<speed>4.380000</speed>
<extensions>
<speed>4.4</speed>
<temp>0.00</temp>
<bpm>0</bpm>
<rpm>0.00</rpm>
</extensions>
</trkpt>
<trkpt lat="31.255399704" lon="34.798412323">
<ele>281.164063</ele>
<time>2013-11-19T07:36:29Z</time>
<speed>5.550000</speed>
<extensions>
<speed>5.5</speed>
<temp>0.00</temp>
<bpm>0</bpm>
<rpm>0.00</rpm>
</extensions>
</trkpt>
<trkpt lat="31.255147934" lon="34.798454285">
<ele>280.781250</ele>
<time>2013-11-19T07:36:34Z</time>
<speed>5.590000</speed>
<extensions>
<speed>5.6</speed>
<temp>0.00</temp>
<bpm>0</bpm>
<rpm>0.00</rpm>
</extensions>
</trkpt>
<trkpt lat="31.254896164" lon="34.798526764">
<ele>281.796875</ele>
<time>2013-11-19T07:36:39Z</time>
<speed>5.350000</speed>
<extensions>
<speed>5.4</speed>
<temp>0.00</temp>
<bpm>0</bpm>
<rpm>0.00</rpm>
</extensions>
</trkpt>
<trkpt lat="31.254648209" lon="34.798576355">
<ele>281.976563</ele>
<time>2013-11-19T07:36:44Z</time>
<speed>5.430000</speed>
<extensions>
<speed>5.4</speed>
<temp>0.00</temp>
<bpm>0</bpm>
<rpm>0.00</rpm>
</extensions>
</trkpt>
<trkpt lat="31.254377365" lon="34.798614502">
<ele>282.820313</ele>
<time>2013-11-19T07:36:49Z</time>
<speed>5.630000</speed>
<extensions>
<speed>5.6</speed>
<temp>0.00</temp>
<bpm>0</bpm>
<rpm>0.00</rpm>
</extensions>
</trkpt>
<trkpt lat="31.254117966" lon="34.798656464">
<ele>283.421875</ele>
<time>2013-11-19T07:36:54Z</time>
<speed>5.640000</speed>
<extensions>
<speed>5.6</speed>
<temp>0.00</temp>
<bpm>0</bpm>
<rpm>0.00</rpm>
</extensions>
</trkpt>
<trkpt lat="31.253854752" lon="34.798671722">
<ele>282.765625</ele>
<time>2013-11-19T07:36:59Z</time>
<speed>5.980000</speed>
<extensions>
<speed>6.0</speed>
<temp>0.00</temp>
<bpm>0</bpm>
<rpm>0.00</rpm>
</extensions>
</trkpt>
<trkpt lat="31.253593445" lon="34.798667908">
<ele>282.945313</ele>
<time>2013-11-19T07:37:04Z</time>
<speed>5.800000</speed>
<extensions>
<speed>5.8</speed>
<temp>0.00</temp>
<bpm>0</bpm>
<rpm>0.00</rpm>
</extensions>
</trkpt>
<trkpt lat="31.253314972" lon="34.798645020">
<ele>283.828125</ele>
<time>2013-11-19T07:37:09Z</time>
<speed>5.990000</speed>
<extensions>
<speed>6.0</speed>
<temp>0.00</temp>
<bpm>0</bpm>
<rpm>0.00</rpm>
</extensions>
</trkpt>
<trkpt lat="31.253030777" lon="34.798603058">
<ele>283.070313</ele>
<time>2013-11-19T07:37:14Z</time>
<speed>6.210000</speed>
<extensions>
<speed>6.2</speed>
<temp>0.00</temp>
<bpm>0</bpm>
<rpm>0.00</rpm>
</extensions>
</trkpt>
<trkpt lat="31.252779007" lon="34.798549652">
<ele>283.289063</ele>
<time>2013-11-19T07:37:19Z</time>
<speed>5.190000</speed>
<extensions>
<speed>5.2</speed>
<temp>0.00</temp>
<bpm>0</bpm>
<rpm>0.00</rpm>
</extensions>
</trkpt>
<trkpt lat="31.252542496" lon="34.798458099">
<ele>285.210938</ele>
<time>2013-11-19T07:37:24Z</time>
<speed>5.190000</speed>
<extensions>
<speed>5.2</speed>
<temp>0.00</temp>
<bpm>0</bpm>
<rpm>0.00</rpm>
</extensions>
</trkpt>
<trkpt lat="31.252323151" lon="34.798316956">
<ele>285.718750</ele>
<time>2013-11-19T07:37:29Z</time>
<speed>5.610000</speed>
<extensions>
<speed>5.6</speed>
<temp>0.00</temp>
<bpm>0</bpm>
<rpm>0.00</rpm>
</extensions>
</trkpt>
<trkpt lat="31.252094269" lon="34.798168182">
<ele>285.507813</ele>
<time>2013-11-19T07:37:34Z</time>
<speed>6.090000</speed>
<extensions>
<speed>6.1</speed>
<temp>0.00</temp>
<bpm>0</bpm>
<rpm>0.00</rpm>
</extensions>
</trkpt>
<trkpt lat="31.251848221" lon="34.798034668">
<ele>283.585938</ele>
<time>2013-11-19T07:37:39Z</time>
<speed>5.730000</speed>
<extensions>
<speed>5.7</speed>
<temp>0.00</temp>
<bpm>0</bpm>
<rpm>0.00</rpm>
</extensions>
</trkpt>
<trkpt lat="31.251583099" lon="34.797939301">
<ele>282.882813</ele>
<time>2013-11-19T07:37:44Z</time>
<speed>6.050000</speed>
<extensions>
<speed>6.1</speed>
<temp>0.00</temp>
<bpm>0</bpm>
<rpm>0.00</rpm>
</extensions>
</trkpt>
<trkpt lat="31.251321793" lon="34.797893524">
<ele>281.500000</ele>
<time>2013-11-19T07:37:49Z</time>
<speed>5.240000</speed>
<extensions>
<speed>5.2</speed>
<temp>0.00</temp>
<bpm>0</bpm>
<rpm>0.00</rpm>
</extensions>
</trkpt>
<trkpt lat="31.251136780" lon="34.797889709">
<ele>281.179688</ele>
<time>2013-11-19T07:37:54Z</time>
<speed>2.090000</speed>
<extensions>
<speed>2.1</speed>
<temp>0.00</temp>
<bpm>0</bpm>
<rpm>0.00</rpm>
</extensions>
</trkpt>
<trkpt lat="31.251089096" lon="34.797977448">
<ele>280.820313</ele>
<time>2013-11-19T07:37:59Z</time>
<speed>2.190000</speed>
<extensions>
<speed>2.2</speed>
<temp>0.00</temp>
<bpm>0</bpm>
<rpm>0.00</rpm>
</extensions>
</trkpt>
<trkpt lat="31.251087189" lon="34.798023224">
<ele>279.140625</ele>
<time>2013-11-19T07:38:04Z</time>
<speed>0.160000</speed>
<extensions>
<speed>0.2</speed>
<temp>0.00</temp>
<bpm>0</bpm>
<rpm>0.00</rpm>
</extensions>
</trkpt>
<trkpt lat="31.251085281" lon="34.798023224">
<ele>278.953125</ele>
<time>2013-11-19T07:38:09Z</time>
<speed>0.070000</speed>
<extensions>
<speed>0.1</speed>
<temp>0.00</temp>
<bpm>0</bpm>
<rpm>0.00</rpm>
</extensions>
</trkpt>
<trkpt lat="31.251085281" lon="34.798019409">
<ele>278.812500</ele>
<time>2013-11-19T07:38:14Z</time>
<speed>0.070000</speed>
<extensions>
<speed>0.1</speed>
<temp>0.00</temp>
<bpm>0</bpm>
<rpm>0.00</rpm>
</extensions>
</trkpt>
<trkpt lat="31.251087189" lon="34.798015594">
<ele>278.734375</ele>
<time>2013-11-19T07:38:19Z</time>
<speed>0.060000</speed>
<extensions>
<speed>0.1</speed>
<temp>0.00</temp>
<bpm>0</bpm>
<rpm>0.00</rpm>
</extensions>
</trkpt>
<trkpt lat="31.251087189" lon="34.798015594">
<ele>278.687500</ele>
<time>2013-11-19T07:38:24Z</time>
<speed>0.080000</speed>
<extensions>
<speed>0.1</speed>
<temp>0.00</temp>
<bpm>0</bpm>
<rpm>0.00</rpm>
</extensions>
</trkpt>
<trkpt lat="31.251092911" lon="34.798011780">
<ele>278.664063</ele>
<time>2013-11-19T07:38:29Z</time>
<speed>0.140000</speed>
<extensions>
<speed>0.1</speed>
<temp>0.00</temp>
<bpm>0</bpm>
<rpm>0.00</rpm>
</extensions>
</trkpt>
<trkpt lat="31.251094818" lon="34.798011780">
<ele>278.640625</ele>
<time>2013-11-19T07:38:34Z</time>
<speed>0.040000</speed>
<extensions>
<speed>0.0</speed>
<temp>0.00</temp>
<bpm>0</bpm>
<rpm>0.00</rpm>
</extensions>
</trkpt>
<trkpt lat="31.251098633" lon="34.798011780">
<ele>278.609375</ele>
<time>2013-11-19T07:38:39Z</time>
<speed>0.040000</speed>
<extensions>
<speed>0.0</speed>
<temp>0.00</temp>
<bpm>0</bpm>
<rpm>0.00</rpm>
</extensions>
</trkpt>
<trkpt lat="31.251100540" lon="34.798007965">
<ele>278.593750</ele>
<time>2013-11-19T07:38:44Z</time>
<speed>0.050000</speed>
<extensions>
<speed>0.1</speed>
<temp>0.00</temp>
<bpm>0</bpm>
<rpm>0.00</rpm>
</extensions>
</trkpt>
<trkpt lat="31.251100540" lon="34.798030853">
<ele>278.585938</ele>
<time>2013-11-19T07:38:49Z</time>
<speed>1.700000</speed>
<extensions>
<speed>1.7</speed>
<temp>0.00</temp>
<bpm>0</bpm>
<rpm>0.00</rpm>
</extensions>
</trkpt>
<trkpt lat="31.251073837" lon="34.798160553">
<ele>278.687500</ele>
<time>2013-11-19T07:38:54Z</time>
<speed>1.170000</speed>
<extensions>
<speed>1.2</speed>
<temp>0.00</temp>
<bpm>0</bpm>
<rpm>0.00</rpm>
</extensions>
</trkpt>
<trkpt lat="31.251100540" lon="34.798255920">
<ele>278.773438</ele>
<time>2013-11-19T07:38:59Z</time>
<speed>1.990000</speed>
<extensions>
<speed>2.0</speed>
<temp>0.00</temp>
<bpm>0</bpm>
<rpm>0.00</rpm>
</extensions>
</trkpt>
<trkpt lat="31.251022339" lon="34.798381805">
<ele>278.218750</ele>
<time>2013-11-19T07:39:04Z</time>
<speed>3.380000</speed>
<extensions>
<speed>3.4</speed>
<temp>0.00</temp>
<bpm>0</bpm>
<rpm>0.00</rpm>
</extensions>
</trkpt>
<trkpt lat="31.250934601" lon="34.798603058">
<ele>277.281250</ele>
<time>2013-11-19T07:39:09Z</time>
<speed>4.650000</speed>
<extensions>
<speed>4.6</speed>
<temp>0.00</temp>
<bpm>0</bpm>
<rpm>0.00</rpm>
</extensions>
</trkpt>
<trkpt lat="31.250894547" lon="34.798858643">
<ele>275.414063</ele>
<time>2013-11-19T07:39:14Z</time>
<speed>4.970000</speed>
<extensions>
<speed>5.0</speed>
<temp>0.00</temp>
<bpm>0</bpm>
<rpm>0.00</rpm>
</extensions>
</trkpt>
<trkpt lat="31.250865936" lon="34.799091339">
<ele>274.593750</ele>
<time>2013-11-19T07:39:19Z</time>
<speed>4.330000</speed>
<extensions>
<speed>4.3</speed>
<temp>0.00</temp>
<bpm>0</bpm>
<rpm>0.00</rpm>
</extensions>
</trkpt>
<trkpt lat="31.250827789" lon="34.799327850">
<ele>273.882813</ele>
<time>2013-11-19T07:39:24Z</time>
<speed>4.540000</speed>
<extensions>
<speed>4.5</speed>
<temp>0.00</temp>
<bpm>0</bpm>
<rpm>0.00</rpm>
</extensions>
</trkpt>
<trkpt lat="31.250783920" lon="34.799552917">
<ele>271.914063</ele>
<time>2013-11-19T07:39:29Z</time>
<speed>4.360000</speed>
<extensions>
<speed>4.4</speed>
<temp>0.00</temp>
<bpm>0</bpm>
<rpm>0.00</rpm>
</extensions>
</trkpt>
<trkpt lat="31.250730515" lon="34.799770355">
<ele>271.476563</ele>
<time>2013-11-19T07:39:34Z</time>
<speed>3.510000</speed>
<extensions>
<speed>3.5</speed>
<temp>0.00</temp>
<bpm>0</bpm>
<rpm>0.00</rpm>
</extensions>
</trkpt>
<trkpt lat="31.250654221" lon="34.799987793">
<ele>271.000000</ele>
<time>2013-11-19T07:39:39Z</time>
<speed>3.550000</speed>
<extensions>
<speed>3.5</speed>
<temp>0.00</temp>
<bpm>0</bpm>
<rpm>0.00</rpm>
</extensions>
</trkpt>
<trkpt lat="31.250560760" lon="34.800205231">
<ele>269.343750</ele>
<time>2013-11-19T07:39:44Z</time>
<speed>3.930000</speed>
<extensions>
<speed>3.9</speed>
<temp>0.00</temp>
<bpm>0</bpm>
<rpm>0.00</rpm>
</extensions>
</trkpt>
<trkpt lat="31.250457764" lon="34.800415039">
<ele>268.109375</ele>
<time>2013-11-19T07:39:49Z</time>
<speed>3.550000</speed>
<extensions>
<speed>3.5</speed>
<temp>0.00</temp>
<bpm>0</bpm>
<rpm>0.00</rpm>
</extensions>
</trkpt>
<trkpt lat="31.250402451" lon="34.800575256">
<ele>269.132813</ele>
<time>2013-11-19T07:39:54Z</time>
<speed>1.420000</speed>
<extensions>
<speed>1.4</speed>
<temp>0.00</temp>
<bpm>0</bpm>
<rpm>0.00</rpm>
</extensions>
</trkpt>
<trkpt lat="31.250377655" lon="34.800643921">
<ele>274.007813</ele>
<time>2013-11-19T07:39:59Z</time>
<speed>0.170000</speed>
<extensions>
<speed>0.2</speed>
<temp>0.00</temp>
<bpm>0</bpm>
<rpm>0.00</rpm>
</extensions>
</trkpt>
<trkpt lat="31.250375748" lon="34.800651550">
<ele>274.531250</ele>
<time>2013-11-19T07:40:04Z</time>
<speed>0.030000</speed>
<extensions>
<speed>0.0</speed>
<temp>0.00</temp>
<bpm>0</bpm>
<rpm>0.00</rpm>
</extensions>
</trkpt>
<trkpt lat="31.250297546" lon="34.800682068">
<ele>275.640625</ele>
<time>2013-11-19T07:40:09Z</time>
<speed>2.490000</speed>
<extensions>
<speed>2.5</speed>
<temp>0.00</temp>
<bpm>0</bpm>
<rpm>0.00</rpm>
</extensions>
</trkpt>
<trkpt lat="31.250192642" lon="34.800731659">
<ele>274.453125</ele>
<time>2013-11-19T07:40:14Z</time>
<speed>2.770000</speed>
<extensions>
<speed>2.8</speed>
<temp>0.00</temp>
<bpm>0</bpm>
<rpm>0.00</rpm>
</extensions>
</trkpt>
<trkpt lat="31.250102997" lon="34.800838470">
<ele>275.171875</ele>
<time>2013-11-19T07:40:19Z</time>
<speed>2.440000</speed>
<extensions>
<speed>2.4</speed>
<temp>0.00</temp>
<bpm>0</bpm>
<rpm>0.00</rpm>
</extensions>
</trkpt>
<trkpt lat="31.250020981" lon="34.800933838">
<ele>274.976563</ele>
<time>2013-11-19T07:40:24Z</time>
<speed>3.290000</speed>
<extensions>
<speed>3.3</speed>
<temp>0.00</temp>
<bpm>0</bpm>
<rpm>0.00</rpm>
</extensions>
</trkpt>
<trkpt lat="31.249860764" lon="34.801006317">
<ele>274.937500</ele>
<time>2013-11-19T07:40:29Z</time>
<speed>4.230000</speed>
<extensions>
<speed>4.2</speed>
<temp>0.00</temp>
<bpm>0</bpm>
<rpm>0.00</rpm>
</extensions>
</trkpt>
<trkpt lat="31.249689102" lon="34.801116943">
<ele>275.742188</ele>
<time>2013-11-19T07:40:34Z</time>
<speed>3.650000</speed>
<extensions>
<speed>3.7</speed>
<temp>0.00</temp>
<bpm>0</bpm>
<rpm>0.00</rpm>
</extensions>
</trkpt>
<trkpt lat="31.249536514" lon="34.801208496">
<ele>275.437500</ele>
<time>2013-11-19T07:40:39Z</time>
<speed>3.070000</speed>
<extensions>
<speed>3.1</speed>
<temp>0.00</temp>
<bpm>0</bpm>
<rpm>0.00</rpm>
</extensions>
</trkpt>
<trkpt lat="31.249370575" lon="34.801326752">
<ele>275.859375</ele>
<time>2013-11-19T07:40:44Z</time>
<speed>4.160000</speed>
<extensions>
<speed>4.2</speed>
<temp>0.00</temp>
<bpm>0</bpm>
<rpm>0.00</rpm>
</extensions>
</trkpt>
<trkpt lat="31.249214172" lon="34.801490784">
<ele>278.343750</ele>
<time>2013-11-19T07:40:49Z</time>
<speed>4.270000</speed>
<extensions>
<speed>4.3</speed>
<temp>0.00</temp>
<bpm>0</bpm>
<rpm>0.00</rpm>
</extensions>
</trkpt>
<trkpt lat="31.249053955" lon="34.801628113">
<ele>279.421875</ele>
<time>2013-11-19T07:40:54Z</time>
<speed>3.740000</speed>
<extensions>
<speed>3.7</speed>
<temp>0.00</temp>
<bpm>0</bpm>
<rpm>0.00</rpm>
</extensions>
</trkpt>
<trkpt lat="31.248994827" lon="34.801692963">
<ele>283.046875</ele>
<time>2013-11-19T07:40:59Z</time>
<speed>0.700000</speed>
<extensions>
<speed>0.7</speed>
<temp>0.00</temp>
<bpm>0</bpm>
<rpm>0.00</rpm>
</extensions>
</trkpt>
<trkpt lat="31.248998642" lon="34.801715851">
<ele>288.039063</ele>
<time>2013-11-19T07:41:04Z</time>
<speed>0.140000</speed>
<extensions>
<speed>0.1</speed>
<temp>0.00</temp>
<bpm>0</bpm>
<rpm>0.00</rpm>
</extensions>
</trkpt>
<trkpt lat="31.248956680" lon="34.801769257">
<ele>288.132813</ele>
<time>2013-11-19T07:41:09Z</time>
<speed>2.130000</speed>
<extensions>
<speed>2.1</speed>
<temp>0.00</temp>
<bpm>0</bpm>
<rpm>0.00</rpm>
</extensions>
</trkpt>
<trkpt lat="31.248794556" lon="34.801853180">
<ele>287.179688</ele>
<time>2013-11-19T07:41:14Z</time>
<speed>3.920000</speed>
<extensions>
<speed>3.9</speed>
<temp>0.00</temp>
<bpm>0</bpm>
<rpm>0.00</rpm>
</extensions>
</trkpt>
<trkpt lat="31.248643875" lon="34.802059174">
<ele>286.765625</ele>
<time>2013-11-19T07:41:19Z</time>
<speed>4.300000</speed>
<extensions>
<speed>4.3</speed>
<temp>0.00</temp>
<bpm>0</bpm>
<rpm>0.00</rpm>
</extensions>
</trkpt>
<trkpt lat="31.248519897" lon="34.802276611">
<ele>286.601563</ele>
<time>2013-11-19T07:41:24Z</time>
<speed>4.090000</speed>
<extensions>
<speed>4.1</speed>
<temp>0.00</temp>
<bpm>0</bpm>
<rpm>0.00</rpm>
</extensions>
</trkpt>
<trkpt lat="31.248394012" lon="34.802452087">
<ele>286.515625</ele>
<time>2013-11-19T07:41:29Z</time>
<speed>2.830000</speed>
<extensions>
<speed>2.8</speed>
<temp>0.00</temp>
<bpm>0</bpm>
<rpm>0.00</rpm>
</extensions>
</trkpt>
<trkpt lat="31.248315811" lon="34.802566528">
<ele>287.507813</ele>
<time>2013-11-19T07:41:34Z</time>
<speed>1.630000</speed>
<extensions>
<speed>1.6</speed>
<temp>0.00</temp>
<bpm>0</bpm>
<rpm>0.00</rpm>
</extensions>
</trkpt>
<trkpt lat="31.248281479" lon="34.802616119">
<ele>287.820313</ele>
<time>2013-11-19T07:41:39Z</time>
<speed>1.800000</speed>
<extensions>
<speed>1.8</speed>
<temp>0.00</temp>
<bpm>0</bpm>
<rpm>0.00</rpm>
</extensions>
</trkpt>
<trkpt lat="31.248210907" lon="34.802684784">
<ele>292.375000</ele>
<time>2013-11-19T07:41:44Z</time>
<speed>1.980000</speed>
<extensions>
<speed>2.0</speed>
<temp>0.00</temp>
<bpm>0</bpm>
<rpm>0.00</rpm>
</extensions>
</trkpt>
<trkpt lat="31.248134613" lon="34.802734375">
<ele>296.125000</ele>
<time>2013-11-19T07:41:49Z</time>
<speed>1.820000</speed>
<extensions>
<speed>1.8</speed>
<temp>0.00</temp>
<bpm>0</bpm>
<rpm>0.00</rpm>
</extensions>
</trkpt>
<trkpt lat="31.248022079" lon="34.802806854">
<ele>295.867188</ele>
<time>2013-11-19T07:41:54Z</time>
<speed>3.070000</speed>
<extensions>
<speed>3.1</speed>
<temp>0.00</temp>
<bpm>0</bpm>
<rpm>0.00</rpm>
</extensions>
</trkpt>
<trkpt lat="31.247896194" lon="34.802955627">
<ele>295.257813</ele>
<time>2013-11-19T07:41:59Z</time>
<speed>2.660000</speed>
<extensions>
<speed>2.7</speed>
<temp>0.00</temp>
<bpm>0</bpm>
<rpm>0.00</rpm>
</extensions>
</trkpt>
<trkpt lat="31.247768402" lon="34.803146362">
<ele>290.929688</ele>
<time>2013-11-19T07:42:04Z</time>
<speed>3.470000</speed>
<extensions>
<speed>3.5</speed>
<temp>0.00</temp>
<bpm>0</bpm>
<rpm>0.00</rpm>
</extensions>
</trkpt>
<trkpt lat="31.247631073" lon="34.803295135">
<ele>287.179688</ele>
<time>2013-11-19T07:42:09Z</time>
<speed>2.210000</speed>
<extensions>
<speed>2.2</speed>
<temp>0.00</temp>
<bpm>0</bpm>
<rpm>0.00</rpm>
</extensions>
</trkpt>
<trkpt lat="31.247541428" lon="34.803321838">
<ele>285.406250</ele>
<time>2013-11-19T07:42:14Z</time>
<speed>1.360000</speed>
<extensions>
<speed>1.4</speed>
<temp>0.00</temp>
<bpm>0</bpm>
<rpm>0.00</rpm>
</extensions>
</trkpt>
<trkpt lat="31.247491837" lon="34.803367615">
<ele>284.476563</ele>
<time>2013-11-19T07:42:19Z</time>
<speed>0.250000</speed>
<extensions>
<speed>0.2</speed>
<temp>0.00</temp>
<bpm>0</bpm>
<rpm>0.00</rpm>
</extensions>
</trkpt>
<trkpt lat="31.247493744" lon="34.803379059">
<ele>284.484375</ele>
<time>2013-11-19T07:42:24Z</time>
<speed>0.370000</speed>
<extensions>
<speed>0.4</speed>
<temp>0.00</temp>
<bpm>0</bpm>
<rpm>0.00</rpm>
</extensions>
</trkpt>
<trkpt lat="31.247468948" lon="34.803359985">
<ele>282.781250</ele>
<time>2013-11-19T07:42:29Z</time>
<speed>0.810000</speed>
<extensions>
<speed>0.8</speed>
<temp>0.00</temp>
<bpm>0</bpm>
<rpm>0.00</rpm>
</extensions>
</trkpt>
<trkpt lat="31.247394562" lon="34.803352356">
<ele>281.343750</ele>
<time>2013-11-19T07:42:34Z</time>
<speed>3.260000</speed>
<extensions>
<speed>3.3</speed>
<temp>0.00</temp>
<bpm>0</bpm>
<rpm>0.00</rpm>
</extensions>
</trkpt>
<trkpt lat="31.247192383" lon="34.803462982">
<ele>281.851563</ele>
<time>2013-11-19T07:42:39Z</time>
<speed>5.280000</speed>
<extensions>
<speed>5.3</speed>
<temp>0.00</temp>
<bpm>0</bpm>
<rpm>0.00</rpm>
</extensions>
</trkpt>
<trkpt lat="31.246942520" lon="34.803638458">
<ele>280.570313</ele>
<time>2013-11-19T07:42:44Z</time>
<speed>5.670000</speed>
<extensions>
<speed>5.7</speed>
<temp>0.00</temp>
<bpm>0</bpm>
<rpm>0.00</rpm>
</extensions>
</trkpt>
<trkpt lat="31.246686935" lon="34.803771973">
<ele>278.171875</ele>
<time>2013-11-19T07:42:49Z</time>
<speed>5.090000</speed>
<extensions>
<speed>5.1</speed>
<temp>0.00</temp>
<bpm>0</bpm>
<rpm>0.00</rpm>
</extensions>
</trkpt>
<trkpt lat="31.246467590" lon="34.803871155">
<ele>276.953125</ele>
<time>2013-11-19T07:42:54Z</time>
<speed>5.290000</speed>
<extensions>
<speed>5.3</speed>
<temp>0.00</temp>
<bpm>0</bpm>
<rpm>0.00</rpm>
</extensions>
</trkpt>
<trkpt lat="31.246192932" lon="34.804023743">
<ele>280.976563</ele>
<time>2013-11-19T07:42:59Z</time>
<speed>4.930000</speed>
<extensions>
<speed>4.9</speed>
<temp>0.00</temp>
<bpm>0</bpm>
<rpm>0.00</rpm>
</extensions>
</trkpt>
<trkpt lat="31.245939255" lon="34.804141998">
<ele>280.742188</ele>
<time>2013-11-19T07:43:04Z</time>
<speed>5.900000</speed>
<extensions>
<speed>5.9</speed>
<temp>0.00</temp>
<bpm>0</bpm>
<rpm>0.00</rpm>
</extensions>
</trkpt>
<trkpt lat="31.245693207" lon="34.804244995">
<ele>282.968750</ele>
<time>2013-11-19T07:43:09Z</time>
<speed>5.490000</speed>
<extensions>
<speed>5.5</speed>
<temp>0.00</temp>
<bpm>0</bpm>
<rpm>0.00</rpm>
</extensions>
</trkpt>
<trkpt lat="31.245456696" lon="34.804367065">
<ele>282.015625</ele>
<time>2013-11-19T07:43:14Z</time>
<speed>4.860000</speed>
<extensions>
<speed>4.9</speed>
<temp>0.00</temp>
<bpm>0</bpm>
<rpm>0.00</rpm>
</extensions>
</trkpt>
<trkpt lat="31.245262146" lon="34.804500580">
<ele>279.710938</ele>
<time>2013-11-19T07:43:19Z</time>
<speed>3.860000</speed>
<extensions>
<speed>3.9</speed>
<temp>0.00</temp>
<bpm>0</bpm>
<rpm>0.00</rpm>
</extensions>
</trkpt>
<trkpt lat="31.245121002" lon="34.804584503">
<ele>280.078125</ele>
<time>2013-11-19T07:43:24Z</time>
<speed>0.380000</speed>
<extensions>
<speed>0.4</speed>
<temp>0.00</temp>
<bpm>0</bpm>
<rpm>0.00</rpm>
</extensions>
</trkpt>
<trkpt lat="31.245119095" lon="34.804588318">
<ele>279.937500</ele>
<time>2013-11-19T07:43:29Z</time>
<speed>0.020000</speed>
<extensions>
<speed>0.0</speed>
<temp>0.00</temp>
<bpm>0</bpm>
<rpm>0.00</rpm>
</extensions>
</trkpt>
<trkpt lat="31.245119095" lon="34.804588318">
<ele>280.039063</ele>
<time>2013-11-19T07:43:34Z</time>
<speed>0.010000</speed>
<extensions>
<speed>0.0</speed>
<temp>0.00</temp>
<bpm>0</bpm>
<rpm>0.00</rpm>
</extensions>
</trkpt>
<trkpt lat="31.245117188" lon="34.804607391">
<ele>279.484375</ele>
<time>2013-11-19T07:43:39Z</time>
<speed>1.790000</speed>
<extensions>
<speed>1.8</speed>
<temp>0.00</temp>
<bpm>0</bpm>
<rpm>0.00</rpm>
</extensions>
</trkpt>
<trkpt lat="31.245162964" lon="34.804721832">
<ele>278.031250</ele>
<time>2013-11-19T07:43:44Z</time>
<speed>1.810000</speed>
<extensions>
<speed>1.8</speed>
<temp>0.00</temp>
<bpm>0</bpm>
<rpm>0.00</rpm>
</extensions>
</trkpt>
<trkpt lat="31.245172501" lon="34.804767609">
<ele>276.015625</ele>
<time>2013-11-19T07:43:49Z</time>
<speed>0.040000</speed>
<extensions>
<speed>0.0</speed>
<temp>0.00</temp>
<bpm>0</bpm>
<rpm>0.00</rpm>
</extensions>
</trkpt>
<trkpt lat="31.245174408" lon="34.804771423">
<ele>276.023438</ele>
<time>2013-11-19T07:43:54Z</time>
<speed>0.040000</speed>
<extensions>
<speed>0.0</speed>
<temp>0.00</temp>
<bpm>0</bpm>
<rpm>0.00</rpm>
</extensions>
</trkpt>
<trkpt lat="31.245172501" lon="34.804771423">
<ele>276.109375</ele>
<time>2013-11-19T07:43:59Z</time>
<speed>0.010000</speed>
<extensions>
<speed>0.0</speed>
<temp>0.00</temp>
<bpm>0</bpm>
<rpm>0.00</rpm>
</extensions>
</trkpt>
<trkpt lat="31.245172501" lon="34.804775238">
<ele>276.101563</ele>
<time>2013-11-19T07:44:04Z</time>
<extensions>
<speed>0.0</speed>
<temp>0.00</temp>
<bpm>0</bpm>
<rpm>0.00</rpm>
</extensions>
</trkpt>
<trkpt lat="31.245172501" lon="34.804775238">
<ele>276.070313</ele>
<time>2013-11-19T07:44:09Z</time>
<speed>0.150000</speed>
<extensions>
<speed>0.2</speed>
<temp>0.00</temp>
<bpm>0</bpm>
<rpm>0.00</rpm>
</extensions>
</trkpt>
<trkpt lat="31.245195389" lon="34.804847717">
<ele>276.632813</ele>
<time>2013-11-19T07:44:14Z</time>
<speed>2.170000</speed>
<extensions>
<speed>2.2</speed>
<temp>0.00</temp>
<bpm>0</bpm>
<rpm>0.00</rpm>
</extensions>
</trkpt>
<trkpt lat="31.245222092" lon="34.804927826">
<ele>276.218750</ele>
<time>2013-11-19T07:44:19Z</time>
<speed>0.220000</speed>
<extensions>
<speed>0.2</speed>
<temp>0.00</temp>
<bpm>0</bpm>
<rpm>0.00</rpm>
</extensions>
</trkpt>
<trkpt lat="31.245212555" lon="34.804939270">
<ele>276.179688</ele>
<time>2013-11-19T07:44:24Z</time>
<speed>0.030000</speed>
<extensions>
<speed>0.0</speed>
<temp>0.00</temp>
<bpm>0</bpm>
<rpm>0.00</rpm>
</extensions>
</trkpt>
<trkpt lat="31.245212555" lon="34.804939270">
<ele>276.085938</ele>
<time>2013-11-19T07:44:29Z</time>
<speed>0.050000</speed>
<extensions>
<speed>0.1</speed>
<temp>0.00</temp>
<bpm>0</bpm>
<rpm>0.00</rpm>
</extensions>
</trkpt>
<trkpt lat="31.245216370" lon="34.804935455">
<ele>276.218750</ele>
<time>2013-11-19T07:44:34Z</time>
<speed>0.040000</speed>
<extensions>
<speed>0.0</speed>
<temp>0.00</temp>
<bpm>0</bpm>
<rpm>0.00</rpm>
</extensions>
</trkpt>
<trkpt lat="31.245216370" lon="34.804935455">
<ele>276.390625</ele>
<time>2013-11-19T07:44:39Z</time>
<speed>0.240000</speed>
<extensions>
<speed>0.2</speed>
<temp>0.00</temp>
<bpm>0</bpm>
<rpm>0.00</rpm>
</extensions>
</trkpt>
<trkpt lat="31.245162964" lon="34.805000305">
<ele>276.570313</ele>
<time>2013-11-19T07:44:44Z</time>
<speed>2.030000</speed>
<extensions>
<speed>2.0</speed>
<temp>0.00</temp>
<bpm>0</bpm>
<rpm>0.00</rpm>
</extensions>
</trkpt>
<trkpt lat="31.245077133" lon="34.805080414">
<ele>277.304688</ele>
<time>2013-11-19T07:44:49Z</time>
<speed>2.960000</speed>
<extensions>
<speed>3.0</speed>
<temp>0.00</temp>
<bpm>0</bpm>
<rpm>0.00</rpm>
</extensions>
</trkpt>
<trkpt lat="31.245014191" lon="34.805217743">
<ele>277.210938</ele>
<time>2013-11-19T07:44:54Z</time>
<speed>3.070000</speed>
<extensions>
<speed>3.1</speed>
<temp>0.00</temp>
<bpm>0</bpm>
<rpm>0.00</rpm>
</extensions>
</trkpt>
<trkpt lat="31.244911194" lon="34.805328369">
<ele>276.976563</ele>
<time>2013-11-19T07:44:59Z</time>
<speed>3.690000</speed>
<extensions>
<speed>3.7</speed>
<temp>0.00</temp>
<bpm>0</bpm>
<rpm>0.00</rpm>
</extensions>
</trkpt>
<trkpt lat="31.244777679" lon="34.805465698">
<ele>279.679688</ele>
<time>2013-11-19T07:45:04Z</time>
<speed>4.110000</speed>
<extensions>
<speed>4.1</speed>
<temp>0.00</temp>
<bpm>0</bpm>
<rpm>0.00</rpm>
</extensions>
</trkpt>
<trkpt lat="31.244684219" lon="34.805637360">
<ele>281.789063</ele>
<time>2013-11-19T07:45:09Z</time>
<speed>3.760000</speed>
<extensions>
<speed>3.8</speed>
<temp>0.00</temp>
<bpm>0</bpm>
<rpm>0.00</rpm>
</extensions>
</trkpt>
<trkpt lat="31.244621277" lon="34.805843353">
<ele>277.468750</ele>
<time>2013-11-19T07:45:14Z</time>
<speed>3.620000</speed>
<extensions>
<speed>3.6</speed>
<temp>0.00</temp>
<bpm>0</bpm>
<rpm>0.00</rpm>
</extensions>
</trkpt>
<trkpt lat="31.244585037" lon="34.806053162">
<ele>274.835938</ele>
<time>2013-11-19T07:45:19Z</time>
<speed>3.650000</speed>
<extensions>
<speed>3.7</speed>
<temp>0.00</temp>
<bpm>0</bpm>
<rpm>0.00</rpm>
</extensions>
</trkpt>
<trkpt lat="31.244573593" lon="34.806278229">
<ele>271.929688</ele>
<time>2013-11-19T07:45:24Z</time>
<speed>3.930000</speed>
<extensions>
<speed>3.9</speed>
<temp>0.00</temp>
<bpm>0</bpm>
<rpm>0.00</rpm>
</extensions>
</trkpt>
<trkpt lat="31.244577408" lon="34.806514740">
<ele>270.796875</ele>
<time>2013-11-19T07:45:29Z</time>
<speed>4.140000</speed>
<extensions>
<speed>4.1</speed>
<temp>0.00</temp>
<bpm>0</bpm>
<rpm>0.00</rpm>
</extensions>
</trkpt>
<trkpt lat="31.244560242" lon="34.806751251">
<ele>272.148438</ele>
<time>2013-11-19T07:45:34Z</time>
<speed>3.500000</speed>
<extensions>
<speed>3.5</speed>
<temp>0.00</temp>
<bpm>0</bpm>
<rpm>0.00</rpm>
</extensions>
</trkpt>
<trkpt lat="31.244577408" lon="34.806907654">
<ele>270.414063</ele>
<time>2013-11-19T07:45:39Z</time>
<speed>1.570000</speed>
<extensions>
<speed>1.6</speed>
<temp>0.00</temp>
<bpm>0</bpm>
<rpm>0.00</rpm>
</extensions>
</trkpt>
<trkpt lat="31.244564056" lon="34.806949615">
<ele>269.507813</ele>
<time>2013-11-19T07:45:44Z</time>
<speed>0.440000</speed>
<extensions>
<speed>0.4</speed>
<temp>0.00</temp>
<bpm>0</bpm>
<rpm>0.00</rpm>
</extensions>
</trkpt>
<trkpt lat="31.244514465" lon="34.807060242">
<ele>269.679688</ele>
<time>2013-11-19T07:45:49Z</time>
<speed>3.110000</speed>
<extensions>
<speed>3.1</speed>
<temp>0.00</temp>
<bpm>0</bpm>
<rpm>0.00</rpm>
</extensions>
</trkpt>
<trkpt lat="31.244531631" lon="34.807239532">
<ele>270.578125</ele>
<time>2013-11-19T07:45:54Z</time>
<speed>2.820000</speed>
<extensions>
<speed>2.8</speed>
<temp>0.00</temp>
<bpm>0</bpm>
<rpm>0.00</rpm>
</extensions>
</trkpt>
<trkpt lat="31.244497299" lon="34.807361603">
<ele>272.375000</ele>
<time>2013-11-19T07:45:59Z</time>
<speed>2.810000</speed>
<extensions>
<speed>2.8</speed>
<temp>0.00</temp>
<bpm>0</bpm>
<rpm>0.00</rpm>
</extensions>
</trkpt>
<trkpt lat="31.244478226" lon="34.807529449">
<ele>272.742188</ele>
<time>2013-11-19T07:46:04Z</time>
<speed>3.040000</speed>
<extensions>
<speed>3.0</speed>
<temp>0.00</temp>
<bpm>0</bpm>
<rpm>0.00</rpm>
</extensions>
</trkpt>
<trkpt lat="31.244487762" lon="34.807689667">
<ele>272.585938</ele>
<time>2013-11-19T07:46:09Z</time>
<speed>2.480000</speed>
<extensions>
<speed>2.5</speed>
<temp>0.00</temp>
<bpm>0</bpm>
<rpm>0.00</rpm>
</extensions>
</trkpt>
<trkpt lat="31.244503021" lon="34.807746887">
<ele>270.539063</ele>
<time>2013-11-19T07:46:14Z</time>
<speed>1.080000</speed>
<extensions>
<speed>1.1</speed>
<temp>0.00</temp>
<bpm>0</bpm>
<rpm>0.00</rpm>
</extensions>
</trkpt>
<trkpt lat="31.244510651" lon="34.807823181">
<ele>269.750000</ele>
<time>2013-11-19T07:46:19Z</time>
<speed>2.420000</speed>
<extensions>
<speed>2.4</speed>
<temp>0.00</temp>
<bpm>0</bpm>
<rpm>0.00</rpm>
</extensions>
</trkpt>
<trkpt lat="31.244527817" lon="34.807960510">
<ele>267.359375</ele>
<time>2013-11-19T07:46:24Z</time>
<speed>2.610000</speed>
<extensions>
<speed>2.6</speed>
<temp>0.00</temp>
<bpm>0</bpm>
<rpm>0.00</rpm>
</extensions>
</trkpt>
<trkpt lat="31.244520187" lon="34.808128357">
<ele>267.390625</ele>
<time>2013-11-19T07:46:29Z</time>
<speed>3.130000</speed>
<extensions>
<speed>3.1</speed>
<temp>0.00</temp>
<bpm>0</bpm>
<rpm>0.00</rpm>
</extensions>
</trkpt>
<trkpt lat="31.244516373" lon="34.808330536">
<ele>267.390625</ele>
<time>2013-11-19T07:46:34Z</time>
<speed>3.760000</speed>
<extensions>
<speed>3.8</speed>
<temp>0.00</temp>
<bpm>0</bpm>
<rpm>0.00</rpm>
</extensions>
</trkpt>
<trkpt lat="31.244504929" lon="34.808467865">
<ele>269.281250</ele>
<time>2013-11-19T07:46:39Z</time>
<speed>1.820000</speed>
<extensions>
<speed>1.8</speed>
<temp>0.00</temp>
<bpm>0</bpm>
<rpm>0.00</rpm>
</extensions>
</trkpt>
<trkpt lat="31.244495392" lon="34.808547974">
<ele>271.304688</ele>
<time>2013-11-19T07:46:44Z</time>
<speed>1.320000</speed>
<extensions>
<speed>1.3</speed>
<temp>0.00</temp>
<bpm>0</bpm>
<rpm>0.00</rpm>
</extensions>
</trkpt>
<trkpt lat="31.244514465" lon="34.808624268">
<ele>272.765625</ele>
<time>2013-11-19T07:46:49Z</time>
<speed>1.280000</speed>
<extensions>
<speed>1.3</speed>
<temp>0.00</temp>
<bpm>0</bpm>
<rpm>0.00</rpm>
</extensions>
</trkpt>
<trkpt lat="31.244468689" lon="34.808689117">
<ele>274.351563</ele>
<time>2013-11-19T07:46:54Z</time>
<speed>2.100000</speed>
<extensions>
<speed>2.1</speed>
<temp>0.00</temp>
<bpm>0</bpm>
<rpm>0.00</rpm>
</extensions>
</trkpt>
<trkpt lat="31.244379044" lon="34.808708191">
<ele>275.492188</ele>
<time>2013-11-19T07:46:59Z</time>
<speed>0.850000</speed>
<extensions>
<speed>0.8</speed>
<temp>0.00</temp>
<bpm>0</bpm>
<rpm>0.00</rpm>
</extensions>
</trkpt>
<trkpt lat="31.244365692" lon="34.808734894">
<ele>275.554688</ele>
<time>2013-11-19T07:47:04Z</time>
<speed>0.390000</speed>
<extensions>
<speed>0.4</speed>
<temp>0.00</temp>
<bpm>0</bpm>
<rpm>0.00</rpm>
</extensions>
</trkpt>
<trkpt lat="31.244359970" lon="34.808738708">
<ele>275.281250</ele>
<time>2013-11-19T07:47:09Z</time>
<speed>0.010000</speed>
<extensions>
<speed>0.0</speed>
<temp>0.00</temp>
<bpm>0</bpm>
<rpm>0.00</rpm>
</extensions>
</trkpt>
<trkpt lat="31.244361877" lon="34.808738708">
<ele>275.132813</ele>
<time>2013-11-19T07:47:14Z</time>
<speed>0.330000</speed>
<extensions>
<speed>0.3</speed>
<temp>0.00</temp>
<bpm>0</bpm>
<rpm>0.00</rpm>
</extensions>
</trkpt>
<trkpt lat="31.244363785" lon="34.808799744">
<ele>275.125000</ele>
<time>2013-11-19T07:47:19Z</time>
<speed>1.960000</speed>
<extensions>
<speed>2.0</speed>
<temp>0.00</temp>
<bpm>0</bpm>
<rpm>0.00</rpm>
</extensions>
</trkpt>
<trkpt lat="31.244411469" lon="34.808906555">
<ele>277.453125</ele>
<time>2013-11-19T07:47:24Z</time>
<speed>3.550000</speed>
<extensions>
<speed>3.5</speed>
<temp>0.00</temp>
<bpm>0</bpm>
<rpm>0.00</rpm>
</extensions>
</trkpt>
<trkpt lat="31.244361877" lon="34.809082031">
<ele>277.617188</ele>
<time>2013-11-19T07:47:29Z</time>
<speed>3.570000</speed>
<extensions>
<speed>3.6</speed>
<temp>0.00</temp>
<bpm>0</bpm>
<rpm>0.00</rpm>
</extensions>
</trkpt>
<trkpt lat="31.244356155" lon="34.809288025">
<ele>275.335938</ele>
<time>2013-11-19T07:47:34Z</time>
<speed>3.480000</speed>
<extensions>
<speed>3.5</speed>
<temp>0.00</temp>
<bpm>0</bpm>
<rpm>0.00</rpm>
</extensions>
</trkpt>
<trkpt lat="31.244361877" lon="34.809490204">
<ele>273.867188</ele>
<time>2013-11-19T07:47:39Z</time>
<speed>3.580000</speed>
<extensions>
<speed>3.6</speed>
<temp>0.00</temp>
<bpm>0</bpm>
<rpm>0.00</rpm>
</extensions>
</trkpt>
<trkpt lat="31.244394302" lon="34.809696198">
<ele>272.375000</ele>
<time>2013-11-19T07:47:44Z</time>
<speed>3.340000</speed>
<extensions>
<speed>3.3</speed>
<temp>0.00</temp>
<bpm>0</bpm>
<rpm>0.00</rpm>
</extensions>
</trkpt>
<trkpt lat="31.244436264" lon="34.809909821">
<ele>274.992188</ele>
<time>2013-11-19T07:47:49Z</time>
<speed>2.660000</speed>
<extensions>
<speed>2.7</speed>
<temp>0.00</temp>
<bpm>0</bpm>
<rpm>0.00</rpm>
</extensions>
</trkpt>
<trkpt lat="31.244468689" lon="34.810066223">
<ele>275.476563</ele>
<time>2013-11-19T07:47:54Z</time>
<speed>2.460000</speed>
<extensions>
<speed>2.5</speed>
<temp>0.00</temp>
<bpm>0</bpm>
<rpm>0.00</rpm>
</extensions>
</trkpt>
<trkpt lat="31.244537354" lon="34.810184479">
<ele>272.289063</ele>
<time>2013-11-19T07:47:59Z</time>
<speed>1.950000</speed>
<extensions>
<speed>1.9</speed>
<temp>0.00</temp>
<bpm>0</bpm>
<rpm>0.00</rpm>
</extensions>
</trkpt>
<trkpt lat="31.244657516" lon="34.810279846">
<ele>266.945313</ele>
<time>2013-11-19T07:48:04Z</time>
<speed>2.550000</speed>
<extensions>
<speed>2.6</speed>
<temp>0.00</temp>
<bpm>0</bpm>
<rpm>0.00</rpm>
</extensions>
</trkpt>
<trkpt lat="31.244724274" lon="34.810405731">
<ele>266.257813</ele>
<time>2013-11-19T07:48:09Z</time>
<speed>2.840000</speed>
<extensions>
<speed>2.8</speed>
<temp>0.00</temp>
<bpm>0</bpm>
<rpm>0.00</rpm>
</extensions>
</trkpt>
<trkpt lat="31.244806290" lon="34.810520172">
<ele>267.664063</ele>
<time>2013-11-19T07:48:14Z</time>
<speed>2.590000</speed>
<extensions>
<speed>2.6</speed>
<temp>0.00</temp>
<bpm>0</bpm>
<rpm>0.00</rpm>
</extensions>
</trkpt>
<trkpt lat="31.244890213" lon="34.810634613">
<ele>267.914063</ele>
<time>2013-11-19T07:48:19Z</time>
<speed>0.700000</speed>
<extensions>
<speed>0.7</speed>
<temp>0.00</temp>
<bpm>0</bpm>
<rpm>0.00</rpm>
</extensions>
</trkpt>
<trkpt lat="31.244935989" lon="34.810668945">
<ele>265.984375</ele>
<time>2013-11-19T07:48:24Z</time>
<speed>0.390000</speed>
<extensions>
<speed>0.4</speed>
<temp>0.00</temp>
<bpm>0</bpm>
<rpm>0.00</rpm>
</extensions>
</trkpt>
<trkpt lat="31.244974136" lon="34.810707092">
<ele>264.218750</ele>
<time>2013-11-19T07:48:29Z</time>
<speed>1.690000</speed>
<extensions>
<speed>1.7</speed>
<temp>0.00</temp>
<bpm>0</bpm>
<rpm>0.00</rpm>
</extensions>
</trkpt>
<trkpt lat="31.245054245" lon="34.810825348">
<ele>262.437500</ele>
<time>2013-11-19T07:48:34Z</time>
<speed>2.700000</speed>
<extensions>
<speed>2.7</speed>
<temp>0.00</temp>
<bpm>0</bpm>
<rpm>0.00</rpm>
</extensions>
</trkpt>
<trkpt lat="31.245159149" lon="34.810966492">
<ele>262.820313</ele>
<time>2013-11-19T07:48:39Z</time>
<speed>3.220000</speed>
<extensions>
<speed>3.2</speed>
<temp>0.00</temp>
<bpm>0</bpm>
<rpm>0.00</rpm>
</extensions>
</trkpt>
<trkpt lat="31.245262146" lon="34.811134338">
<ele>264.328125</ele>
<time>2013-11-19T07:48:44Z</time>
<speed>2.760000</speed>
<extensions>
<speed>2.8</speed>
<temp>0.00</temp>
<bpm>0</bpm>
<rpm>0.00</rpm>
</extensions>
</trkpt>
<trkpt lat="31.245330811" lon="34.811206818">
<ele>263.789063</ele>
<time>2013-11-19T07:48:49Z</time>
<speed>0.820000</speed>
<extensions>
<speed>0.8</speed>
<temp>0.00</temp>
<bpm>0</bpm>
<rpm>0.00</rpm>
</extensions>
</trkpt>
<trkpt lat="31.245332718" lon="34.811233521">
<ele>262.757813</ele>
<time>2013-11-19T07:48:54Z</time>
<speed>0.020000</speed>
<extensions>
<speed>0.0</speed>
<temp>0.00</temp>
<bpm>0</bpm>
<rpm>0.00</rpm>
</extensions>
</trkpt>
<trkpt lat="31.245332718" lon="34.811237335">
<ele>262.640625</ele>
<time>2013-11-19T07:48:59Z</time>
<speed>0.340000</speed>
<extensions>
<speed>0.3</speed>
<temp>0.00</temp>
<bpm>0</bpm>
<rpm>0.00</rpm>
</extensions>
</trkpt>
<trkpt lat="31.245332718" lon="34.811237335">
<ele>262.007813</ele>
<time>2013-11-19T07:49:04Z</time>
<speed>0.190000</speed>
<extensions>
<speed>0.2</speed>
<temp>0.00</temp>
<bpm>0</bpm>
<rpm>0.00</rpm>
</extensions>
</trkpt>
<trkpt lat="31.245332718" lon="34.811233521">
<ele>261.664063</ele>
<time>2013-11-19T07:49:09Z</time>
<speed>0.010000</speed>
<extensions>
<speed>0.0</speed>
<temp>0.00</temp>
<bpm>0</bpm>
<rpm>0.00</rpm>
</extensions>
</trkpt>
<trkpt lat="31.245332718" lon="34.811256409">
<ele>261.789063</ele>
<time>2013-11-19T07:49:14Z</time>
<speed>1.410000</speed>
<extensions>
<speed>1.4</speed>
<temp>0.00</temp>
<bpm>0</bpm>
<rpm>0.00</rpm>
</extensions>
</trkpt>
<trkpt lat="31.245363235" lon="34.811321259">
<ele>261.625000</ele>
<time>2013-11-19T07:49:19Z</time>
<speed>1.980000</speed>
<extensions>
<speed>2.0</speed>
<temp>0.00</temp>
<bpm>0</bpm>
<rpm>0.00</rpm>
</extensions>
</trkpt>
<trkpt lat="31.245286942" lon="34.811527252">
<ele>267.882813</ele>
<time>2013-11-19T07:49:24Z</time>
<speed>1.180000</speed>
<extensions>
<speed>1.2</speed>
<temp>0.00</temp>
<bpm>0</bpm>
<rpm>0.00</rpm>
</extensions>
</trkpt>
<trkpt lat="31.245277405" lon="34.811588287">
<ele>269.023438</ele>
<time>2013-11-19T07:49:29Z</time>
<speed>0.050000</speed>
<extensions>
<speed>0.1</speed>
<temp>0.00</temp>
<bpm>0</bpm>
<rpm>0.00</rpm>
</extensions>
</trkpt>
<trkpt lat="31.245283127" lon="34.811630249">
<ele>270.109375</ele>
<time>2013-11-19T07:49:34Z</time>
<speed>1.020000</speed>
<extensions>
<speed>1.0</speed>
<temp>0.00</temp>
<bpm>0</bpm>
<rpm>0.00</rpm>
</extensions>
</trkpt>
<trkpt lat="31.245325089" lon="34.811698914">
<ele>271.601563</ele>
<time>2013-11-19T07:49:39Z</time>
<speed>0.390000</speed>
<extensions>
<speed>0.4</speed>
<temp>0.00</temp>
<bpm>0</bpm>
<rpm>0.00</rpm>
</extensions>
</trkpt>
<trkpt lat="31.245323181" lon="34.811710358">
<ele>272.984375</ele>
<time>2013-11-19T07:49:44Z</time>
<speed>0.090000</speed>
<extensions>
<speed>0.1</speed>
<temp>0.00</temp>
<bpm>0</bpm>
<rpm>0.00</rpm>
</extensions>
</trkpt>
<trkpt lat="31.245323181" lon="34.811721802">
<ele>273.789063</ele>
<time>2013-11-19T07:49:49Z</time>
<speed>0.460000</speed>
<extensions>
<speed>0.5</speed>
<temp>0.00</temp>
<bpm>0</bpm>
<rpm>0.00</rpm>
</extensions>
</trkpt>
<trkpt lat="31.245298386" lon="34.811710358">
<ele>275.171875</ele>
<time>2013-11-19T07:49:54Z</time>
<speed>1.700000</speed>
<extensions>
<speed>1.7</speed>
<temp>0.00</temp>
<bpm>0</bpm>
<rpm>0.00</rpm>
</extensions>
</trkpt>
<trkpt lat="31.245262146" lon="34.811641693">
<ele>276.492188</ele>
<time>2013-11-19T07:49:59Z</time>
<speed>0.720000</speed>
<extensions>
<speed>0.7</speed>
<temp>0.00</temp>
<bpm>0</bpm>
<rpm>0.00</rpm>
</extensions>
</trkpt>
<trkpt lat="31.245262146" lon="34.811634064">
<ele>276.687500</ele>
<time>2013-11-19T07:50:04Z</time>
<speed>0.020000</speed>
<extensions>
<speed>0.0</speed>
<temp>0.00</temp>
<bpm>0</bpm>
<rpm>0.00</rpm>
</extensions>
</trkpt>
<trkpt lat="31.245269775" lon="34.811630249">
<ele>276.226563</ele>
<time>2013-11-19T07:50:09Z</time>
<speed>0.030000</speed>
<extensions>
<speed>0.0</speed>
<temp>0.00</temp>
<bpm>0</bpm>
<rpm>0.00</rpm>
</extensions>
</trkpt>
<trkpt lat="31.245273590" lon="34.811626434">
<ele>276.250000</ele>
<time>2013-11-19T07:50:14Z</time>
<speed>0.530000</speed>
<extensions>
<speed>0.5</speed>
<temp>0.00</temp>
<bpm>0</bpm>
<rpm>0.00</rpm>
</extensions>
</trkpt>
<trkpt lat="31.245197296" lon="34.811519623">
<ele>276.773438</ele>
<time>2013-11-19T07:50:19Z</time>
<speed>1.890000</speed>
<extensions>
<speed>1.9</speed>
<temp>0.00</temp>
<bpm>0</bpm>
<rpm>0.00</rpm>
</extensions>
</trkpt>
<trkpt lat="31.245140076" lon="34.811485291">
<ele>277.710938</ele>
<time>2013-11-19T07:50:24Z</time>
<speed>1.730000</speed>
<extensions>
<speed>1.7</speed>
<temp>0.00</temp>
<bpm>0</bpm>
<rpm>0.00</rpm>
</extensions>
</trkpt>
<trkpt lat="31.245012283" lon="34.811553955">
<ele>279.421875</ele>
<time>2013-11-19T07:50:29Z</time>
<speed>3.150000</speed>
<extensions>
<speed>3.2</speed>
<temp>0.00</temp>
<bpm>0</bpm>
<rpm>0.00</rpm>
</extensions>
</trkpt>
<trkpt lat="31.244871140" lon="34.811679840">
<ele>280.492188</ele>
<time>2013-11-19T07:50:34Z</time>
<speed>3.020000</speed>
<extensions>
<speed>3.0</speed>
<temp>0.00</temp>
<bpm>0</bpm>
<rpm>0.00</rpm>
</extensions>
</trkpt>
<trkpt lat="31.244884491" lon="34.811790466">
<ele>280.570313</ele>
<time>2013-11-19T07:50:39Z</time>
<speed>1.790000</speed>
<extensions>
<speed>1.8</speed>
<temp>0.00</temp>
<bpm>0</bpm>
<rpm>0.00</rpm>
</extensions>
</trkpt>
<trkpt lat="31.244947433" lon="34.811927795">
<ele>281.671875</ele>
<time>2013-11-19T07:50:44Z</time>
<speed>1.350000</speed>
<extensions>
<speed>1.4</speed>
<temp>0.00</temp>
<bpm>0</bpm>
<rpm>0.00</rpm>
</extensions>
</trkpt>
<trkpt lat="31.244939804" lon="34.811992645">
<ele>283.078125</ele>
<time>2013-11-19T07:50:49Z</time>
<speed>2.100000</speed>
<extensions>
<speed>2.1</speed>
<temp>0.00</temp>
<bpm>0</bpm>
<rpm>0.00</rpm>
</extensions>
</trkpt>
<trkpt lat="31.244791031" lon="34.812026978">
<ele>284.820313</ele>
<time>2013-11-19T07:50:54Z</time>
<speed>3.460000</speed>
<extensions>
<speed>3.5</speed>
<temp>0.00</temp>
<bpm>0</bpm>
<rpm>0.00</rpm>
</extensions>
</trkpt>
<trkpt lat="31.244649887" lon="34.812072754">
<ele>288.382813</ele>
<time>2013-11-19T07:50:59Z</time>
<speed>2.740000</speed>
<extensions>
<speed>2.7</speed>
<temp>0.00</temp>
<bpm>0</bpm>
<rpm>0.00</rpm>
</extensions>
</trkpt>
<trkpt lat="31.244533539" lon="34.812076569">
<ele>292.906250</ele>
<time>2013-11-19T07:51:04Z</time>
<speed>1.890000</speed>
<extensions>
<speed>1.9</speed>
<temp>0.00</temp>
<bpm>0</bpm>
<rpm>0.00</rpm>
</extensions>
</trkpt>
<trkpt lat="31.244489670" lon="34.812217712">
<ele>285.351563</ele>
<time>2013-11-19T07:51:09Z</time>
<speed>2.230000</speed>
<extensions>
<speed>2.2</speed>
<temp>0.00</temp>
<bpm>0</bpm>
<rpm>0.00</rpm>
</extensions>
</trkpt>
<trkpt lat="31.244436264" lon="34.812355042">
<ele>281.781250</ele>
<time>2013-11-19T07:51:14Z</time>
<speed>2.910000</speed>
<extensions>
<speed>2.9</speed>
<temp>0.00</temp>
<bpm>0</bpm>
<rpm>0.00</rpm>
</extensions>
</trkpt>
<trkpt lat="31.244333267" lon="34.812473297">
<ele>281.835938</ele>
<time>2013-11-19T07:51:19Z</time>
<speed>2.350000</speed>
<extensions>
<speed>2.4</speed>
<temp>0.00</temp>
<bpm>0</bpm>
<rpm>0.00</rpm>
</extensions>
</trkpt>
<trkpt lat="31.244186401" lon="34.812549591">
<ele>282.257813</ele>
<time>2013-11-19T07:51:24Z</time>
<speed>3.420000</speed>
<extensions>
<speed>3.4</speed>
<temp>0.00</temp>
<bpm>0</bpm>
<rpm>0.00</rpm>
</extensions>
</trkpt>
<trkpt lat="31.243995667" lon="34.812534332">
<ele>277.632813</ele>
<time>2013-11-19T07:51:29Z</time>
<speed>3.620000</speed>
<extensions>
<speed>3.6</speed>
<temp>0.00</temp>
<bpm>0</bpm>
<rpm>0.00</rpm>
</extensions>
</trkpt>
<trkpt lat="31.243831635" lon="34.812419891">
<ele>278.664063</ele>
<time>2013-11-19T07:51:34Z</time>
<speed>4.600000</speed>
<extensions>
<speed>4.6</speed>
<temp>0.00</temp>
<bpm>0</bpm>
<rpm>0.00</rpm>
</extensions>
</trkpt>
<trkpt lat="31.243810654" lon="34.812274933">
<ele>277.585938</ele>
<time>2013-11-19T07:51:39Z</time>
<speed>3.090000</speed>
<extensions>
<speed>3.1</speed>
<temp>0.00</temp>
<bpm>0</bpm>
<rpm>0.00</rpm>
</extensions>
</trkpt>
<trkpt lat="31.243801117" lon="34.812103271">
<ele>276.843750</ele>
<time>2013-11-19T07:51:44Z</time>
<speed>3.390000</speed>
<extensions>
<speed>3.4</speed>
<temp>0.00</temp>
<bpm>0</bpm>
<rpm>0.00</rpm>
</extensions>
</trkpt>
<trkpt lat="31.243658066" lon="34.812000275">
<ele>277.984375</ele>
<time>2013-11-19T07:51:49Z</time>
<speed>3.060000</speed>
<extensions>
<speed>3.1</speed>
<temp>0.00</temp>
<bpm>0</bpm>
<rpm>0.00</rpm>
</extensions>
</trkpt>
<trkpt lat="31.243556976" lon="34.812026978">
<ele>276.820313</ele>
<time>2013-11-19T07:51:54Z</time>
<speed>1.590000</speed>
<extensions>
<speed>1.6</speed>
<temp>0.00</temp>
<bpm>0</bpm>
<rpm>0.00</rpm>
</extensions>
</trkpt>
<trkpt lat="31.243532181" lon="34.812019348">
<ele>277.093750</ele>
<time>2013-11-19T07:51:59Z</time>
<speed>0.210000</speed>
<extensions>
<speed>0.2</speed>
<temp>0.00</temp>
<bpm>0</bpm>
<rpm>0.00</rpm>
</extensions>
</trkpt>
<trkpt lat="31.243534088" lon="34.812015533">
<ele>276.757813</ele>
<time>2013-11-19T07:52:04Z</time>
<speed>0.170000</speed>
<extensions>
<speed>0.2</speed>
<temp>0.00</temp>
<bpm>0</bpm>
<rpm>0.00</rpm>
</extensions>
</trkpt>
<trkpt lat="31.243535995" lon="34.812004089">
<ele>276.609375</ele>
<time>2013-11-19T07:52:09Z</time>
<speed>0.230000</speed>
<extensions>
<speed>0.2</speed>
<temp>0.00</temp>
<bpm>0</bpm>
<rpm>0.00</rpm>
</extensions>
</trkpt>
<trkpt lat="31.243535995" lon="34.812007904">
<ele>276.546875</ele>
<time>2013-11-19T07:52:14Z</time>
<speed>0.250000</speed>
<extensions>
<speed>0.2</speed>
<temp>0.00</temp>
<bpm>0</bpm>
<rpm>0.00</rpm>
</extensions>
</trkpt>
<trkpt lat="31.243549347" lon="34.812004089">
<ele>276.562500</ele>
<time>2013-11-19T07:52:19Z</time>
<speed>0.260000</speed>
<extensions>
<speed>0.3</speed>
<temp>0.00</temp>
<bpm>0</bpm>
<rpm>0.00</rpm>
</extensions>
</trkpt>
<trkpt lat="31.243560791" lon="34.812007904">
<ele>276.601563</ele>
<time>2013-11-19T07:52:24Z</time>
<speed>0.230000</speed>
<extensions>
<speed>0.2</speed>
<temp>0.00</temp>
<bpm>0</bpm>
<rpm>0.00</rpm>
</extensions>
</trkpt>
<trkpt lat="31.243568420" lon="34.812011719">
<ele>276.632813</ele>
<time>2013-11-19T07:52:29Z</time>
<speed>0.150000</speed>
<extensions>
<speed>0.2</speed>
<temp>0.00</temp>
<bpm>0</bpm>
<rpm>0.00</rpm>
</extensions>
</trkpt>
<trkpt lat="31.243574142" lon="34.812015533">
<ele>276.617188</ele>
<time>2013-11-19T07:52:34Z</time>
<speed>0.150000</speed>
<extensions>
<speed>0.2</speed>
<temp>0.00</temp>
<bpm>0</bpm>
<rpm>0.00</rpm>
</extensions>
</trkpt>
<trkpt lat="31.243579865" lon="34.812015533">
<ele>276.585938</ele>
<time>2013-11-19T07:52:39Z</time>
<speed>0.030000</speed>
<extensions>
<speed>0.0</speed>
<temp>0.00</temp>
<bpm>0</bpm>
<rpm>0.00</rpm>
</extensions>
</trkpt>
<trkpt lat="31.243577957" lon="34.812007904">
<ele>276.523438</ele>
<time>2013-11-19T07:52:44Z</time>
<speed>0.020000</speed>
<extensions>
<speed>0.0</speed>
<temp>0.00</temp>
<bpm>0</bpm>
<rpm>0.00</rpm>
</extensions>
</trkpt>
<trkpt lat="31.243577957" lon="34.812011719">
<ele>276.460938</ele>
<time>2013-11-19T07:52:49Z</time>
<speed>0.190000</speed>
<extensions>
<speed>0.2</speed>
<temp>0.00</temp>
<bpm>0</bpm>
<rpm>0.00</rpm>
</extensions>
</trkpt>
<trkpt lat="31.243576050" lon="34.812004089">
<ele>276.406250</ele>
<time>2013-11-19T07:52:54Z</time>
<speed>0.120000</speed>
<extensions>
<speed>0.1</speed>
<temp>0.00</temp>
<bpm>0</bpm>
<rpm>0.00</rpm>
</extensions>
</trkpt>
<trkpt lat="31.243579865" lon="34.812011719">
<ele>276.398438</ele>
<time>2013-11-19T07:52:59Z</time>
<speed>0.220000</speed>
<extensions>
<speed>0.2</speed>
<temp>0.00</temp>
<bpm>0</bpm>
<rpm>0.00</rpm>
</extensions>
</trkpt>
<trkpt lat="31.243583679" lon="34.812019348">
<ele>276.382813</ele>
<time>2013-11-19T07:53:04Z</time>
<speed>0.260000</speed>
<extensions>
<speed>0.3</speed>
<temp>0.00</temp>
<bpm>0</bpm>
<rpm>0.00</rpm>
</extensions>
</trkpt>
<trkpt lat="31.243572235" lon="34.812034607">
<ele>276.375000</ele>
<time>2013-11-19T07:53:09Z</time>
<speed>0.420000</speed>
<extensions>
<speed>0.4</speed>
<temp>0.00</temp>
<bpm>0</bpm>
<rpm>0.00</rpm>
</extensions>
</trkpt>
<trkpt lat="31.243553162" lon="34.812049866">
<ele>276.359375</ele>
<time>2013-11-19T07:53:14Z</time>
<speed>0.470000</speed>
<extensions>
<speed>0.5</speed>
<temp>0.00</temp>
<bpm>0</bpm>
<rpm>0.00</rpm>
</extensions>
</trkpt>
<trkpt lat="31.243528366" lon="34.812072754">
<ele>276.320313</ele>
<time>2013-11-19T07:53:19Z</time>
<speed>0.820000</speed>
<extensions>
<speed>0.8</speed>
<temp>0.00</temp>
<bpm>0</bpm>
<rpm>0.00</rpm>
</extensions>
</trkpt>
<trkpt lat="31.243503571" lon="34.812103271">
<ele>276.296875</ele>
<time>2013-11-19T07:53:24Z</time>
<speed>0.630000</speed>
<extensions>
<speed>0.6</speed>
<temp>0.00</temp>
<bpm>0</bpm>
<rpm>0.00</rpm>
</extensions>
</trkpt>
<trkpt lat="31.243490219" lon="34.812133789">
<ele>276.250000</ele>
<time>2013-11-19T07:53:29Z</time>
<speed>0.520000</speed>
<extensions>
<speed>0.5</speed>
<temp>0.00</temp>
<bpm>0</bpm>
<rpm>0.00</rpm>
</extensions>
</trkpt>
<trkpt lat="31.243482590" lon="34.812160492">
<ele>276.203125</ele>
<time>2013-11-19T07:53:34Z</time>
<speed>0.590000</speed>
<extensions>
<speed>0.6</speed>
<temp>0.00</temp>
<bpm>0</bpm>
<rpm>0.00</rpm>
</extensions>
</trkpt>
<trkpt lat="31.243473053" lon="34.812183380">
<ele>276.156250</ele>
<time>2013-11-19T07:53:39Z</time>
<speed>0.350000</speed>
<extensions>
<speed>0.3</speed>
<temp>0.00</temp>
<bpm>0</bpm>
<rpm>0.00</rpm>
</extensions>
</trkpt>
<trkpt lat="31.243467331" lon="34.812202454">
<ele>276.109375</ele>
<time>2013-11-19T07:53:44Z</time>
<speed>0.290000</speed>
<extensions>
<speed>0.3</speed>
<temp>0.00</temp>
<bpm>0</bpm>
<rpm>0.00</rpm>
</extensions>
</trkpt>
<trkpt lat="31.243463516" lon="34.812221527">
<ele>276.078125</ele>
<time>2013-11-19T07:53:49Z</time>
<speed>0.500000</speed>
<extensions>
<speed>0.5</speed>
<temp>0.00</temp>
<bpm>0</bpm>
<rpm>0.00</rpm>
</extensions>
</trkpt>
<trkpt lat="31.243461609" lon="34.812252045">
<ele>276.046875</ele>
<time>2013-11-19T07:53:54Z</time>
<speed>0.510000</speed>
<extensions>
<speed>0.5</speed>
<temp>0.00</temp>
<bpm>0</bpm>
<rpm>0.00</rpm>
</extensions>
</trkpt>
<trkpt lat="31.243459702" lon="34.812282562">
<ele>276.007813</ele>
<time>2013-11-19T07:53:59Z</time>
<speed>0.600000</speed>
<extensions>
<speed>0.6</speed>
<temp>0.00</temp>
<bpm>0</bpm>
<rpm>0.00</rpm>
</extensions>
</trkpt>
<trkpt lat="31.243444443" lon="34.812305450">
<ele>275.968750</ele>
<time>2013-11-19T07:54:04Z</time>
<speed>0.380000</speed>
<extensions>
<speed>0.4</speed>
<temp>0.00</temp>
<bpm>0</bpm>
<rpm>0.00</rpm>
</extensions>
</trkpt>
<trkpt lat="31.243423462" lon="34.812313080">
<ele>275.929688</ele>
<time>2013-11-19T07:54:09Z</time>
<speed>0.460000</speed>
<extensions>
<speed>0.5</speed>
<temp>0.00</temp>
<bpm>0</bpm>
<rpm>0.00</rpm>
</extensions>
</trkpt>
<trkpt lat="31.243408203" lon="34.812316895">
<ele>275.882813</ele>
<time>2013-11-19T07:54:14Z</time>
<speed>0.080000</speed>
<extensions>
<speed>0.1</speed>
<temp>0.00</temp>
<bpm>0</bpm>
<rpm>0.00</rpm>
</extensions>
</trkpt>
<trkpt lat="31.243404388" lon="34.812316895">
<ele>275.851563</ele>
<time>2013-11-19T07:54:19Z</time>
<speed>0.050000</speed>
<extensions>
<speed>0.1</speed>
<temp>0.00</temp>
<bpm>0</bpm>
<rpm>0.00</rpm>
</extensions>
</trkpt>
<trkpt lat="31.243406296" lon="34.812324524">
<ele>275.828125</ele>
<time>2013-11-19T07:54:24Z</time>
<speed>0.370000</speed>
<extensions>
<speed>0.4</speed>
<temp>0.00</temp>
<bpm>0</bpm>
<rpm>0.00</rpm>
</extensions>
</trkpt>
<trkpt lat="31.243421555" lon="34.812332153">
<ele>275.812500</ele>
<time>2013-11-19T07:54:29Z</time>
<speed>0.550000</speed>
<extensions>
<speed>0.6</speed>
<temp>0.00</temp>
<bpm>0</bpm>
<rpm>0.00</rpm>
</extensions>
</trkpt>
<trkpt lat="31.243438721" lon="34.812332153">
<ele>275.789063</ele>
<time>2013-11-19T07:54:34Z</time>
<speed>0.400000</speed>
<extensions>
<speed>0.4</speed>
<temp>0.00</temp>
<bpm>0</bpm>
<rpm>0.00</rpm>
</extensions>
</trkpt>
<trkpt lat="31.243453979" lon="34.812328339">
<ele>275.757813</ele>
<time>2013-11-19T07:54:39Z</time>
<speed>0.250000</speed>
<extensions>
<speed>0.2</speed>
<temp>0.00</temp>
<bpm>0</bpm>
<rpm>0.00</rpm>
</extensions>
</trkpt>
<trkpt lat="31.243473053" lon="34.812328339">
<ele>275.773438</ele>
<time>2013-11-19T07:54:44Z</time>
<speed>0.740000</speed>
<extensions>
<speed>0.7</speed>
<temp>0.00</temp>
<bpm>0</bpm>
<rpm>0.00</rpm>
</extensions>
</trkpt>
<trkpt lat="31.243503571" lon="34.812309265">
<ele>275.804688</ele>
<time>2013-11-19T07:54:49Z</time>
<speed>0.600000</speed>
<extensions>
<speed>0.6</speed>
<temp>0.00</temp>
<bpm>0</bpm>
<rpm>0.00</rpm>
</extensions>
</trkpt>
<trkpt lat="31.243537903" lon="34.812305450">
<ele>275.820313</ele>
<time>2013-11-19T07:54:54Z</time>
<speed>0.900000</speed>
<extensions>
<speed>0.9</speed>
<temp>0.00</temp>
<bpm>0</bpm>
<rpm>0.00</rpm>
</extensions>
</trkpt>
<trkpt lat="31.243570328" lon="34.812332153">
<ele>276.367188</ele>
<time>2013-11-19T07:54:59Z</time>
<speed>0.950000</speed>
<extensions>
<speed>1.0</speed>
<temp>0.00</temp>
<bpm>0</bpm>
<rpm>0.00</rpm>
</extensions>
</trkpt>
<trkpt lat="31.243581772" lon="34.812347412">
<ele>280.117188</ele>
<time>2013-11-19T07:55:04Z</time>
<speed>0.250000</speed>
<extensions>
<speed>0.2</speed>
<temp>0.00</temp>
<bpm>0</bpm>
<rpm>0.00</rpm>
</extensions>
</trkpt>
<trkpt lat="31.243541718" lon="34.812355042">
<ele>281.695313</ele>
<time>2013-11-19T07:55:09Z</time>
<speed>0.150000</speed>
<extensions>
<speed>0.2</speed>
<temp>0.00</temp>
<bpm>0</bpm>
<rpm>0.00</rpm>
</extensions>
</trkpt>
<trkpt lat="31.243537903" lon="34.812355042">
<ele>281.796875</ele>
<time>2013-11-19T07:55:14Z</time>
<speed>0.010000</speed>
<extensions>
<speed>0.0</speed>
<temp>0.00</temp>
<bpm>0</bpm>
<rpm>0.00</rpm>
</extensions>
</trkpt>
<trkpt lat="31.243537903" lon="34.812358856">
<ele>281.859375</ele>
<time>2013-11-19T07:55:19Z</time>
<speed>0.050000</speed>
<extensions>
<speed>0.1</speed>
<temp>0.00</temp>
<bpm>0</bpm>
<rpm>0.00</rpm>
</extensions>
</trkpt>
<trkpt lat="31.243537903" lon="34.812358856">
<ele>281.914063</ele>
<time>2013-11-19T07:55:24Z</time>
<speed>0.030000</speed>
<extensions>
<speed>0.0</speed>
<temp>0.00</temp>
<bpm>0</bpm>
<rpm>0.00</rpm>
</extensions>
</trkpt>
<trkpt lat="31.243537903" lon="34.812358856">
<ele>281.945313</ele>
<time>2013-11-19T07:55:29Z</time>
<extensions>
<speed>0.0</speed>
<temp>0.00</temp>
<bpm>0</bpm>
<rpm>0.00</rpm>
</extensions>
</trkpt>
<trkpt lat="31.243535995" lon="34.812362671">
<ele>281.984375</ele>
<time>2013-11-19T07:55:34Z</time>
<speed>0.010000</speed>
<extensions>
<speed>0.0</speed>
<temp>0.00</temp>
<bpm>0</bpm>
<rpm>0.00</rpm>
</extensions>
</trkpt>
<trkpt lat="31.243535995" lon="34.812362671">
<ele>282.000000</ele>
<time>2013-11-19T07:55:39Z</time>
<extensions>
<speed>0.0</speed>
<temp>0.00</temp>
<bpm>0</bpm>
<rpm>0.00</rpm>
</extensions>
</trkpt>
<trkpt lat="31.243535995" lon="34.812362671">
<ele>282.023438</ele>
<time>2013-11-19T07:55:44Z</time>
<speed>0.010000</speed>
<extensions>
<speed>0.0</speed>
<temp>0.00</temp>
<bpm>0</bpm>
<rpm>0.00</rpm>
</extensions>
</trkpt>
<trkpt lat="31.243535995" lon="34.812362671">
<ele>282.062500</ele>
<time>2013-11-19T07:55:49Z</time>
<speed>0.010000</speed>
<extensions>
<speed>0.0</speed>
<temp>0.00</temp>
<bpm>0</bpm>
<rpm>0.00</rpm>
</extensions>
</trkpt>
<trkpt lat="31.243535995" lon="34.812362671">
<ele>282.101563</ele>
<time>2013-11-19T07:55:54Z</time>
<speed>0.020000</speed>
<extensions>
<speed>0.0</speed>
<temp>0.00</temp>
<bpm>0</bpm>
<rpm>0.00</rpm>
</extensions>
</trkpt>
<trkpt lat="31.243535995" lon="34.812362671">
<ele>282.179688</ele>
<time>2013-11-19T07:55:59Z</time>
<speed>0.010000</speed>
<extensions>
<speed>0.0</speed>
<temp>0.00</temp>
<bpm>0</bpm>
<rpm>0.00</rpm>
</extensions>
</trkpt>
<trkpt lat="31.243534088" lon="34.812362671">
<ele>282.234375</ele>
<time>2013-11-19T07:56:04Z</time>
<extensions>
<speed>0.0</speed>
<temp>0.00</temp>
<bpm>0</bpm>
<rpm>0.00</rpm>
</extensions>
</trkpt>
<trkpt lat="31.243534088" lon="34.812362671">
<ele>282.273438</ele>
<time>2013-11-19T07:56:09Z</time>
<extensions>
<speed>0.0</speed>
<temp>0.00</temp>
<bpm>0</bpm>
<rpm>0.00</rpm>
</extensions>
</trkpt>
<trkpt lat="31.243534088" lon="34.812362671">
<ele>282.320313</ele>
<time>2013-11-19T07:56:14Z</time>
<speed>0.010000</speed>
<extensions>
<speed>0.0</speed>
<temp>0.00</temp>
<bpm>0</bpm>
<rpm>0.00</rpm>
</extensions>
</trkpt>
<trkpt lat="31.243534088" lon="34.812362671">
<ele>282.367188</ele>
<time>2013-11-19T07:56:19Z</time>
<speed>0.020000</speed>
<extensions>
<speed>0.0</speed>
<temp>0.00</temp>
<bpm>0</bpm>
<rpm>0.00</rpm>
</extensions>
</trkpt>
<trkpt lat="31.243534088" lon="34.812362671">
<ele>282.429688</ele>
<time>2013-11-19T07:56:24Z</time>
<extensions>
<speed>0.0</speed>
<temp>0.00</temp>
<bpm>0</bpm>
<rpm>0.00</rpm>
</extensions>
</trkpt>
<trkpt lat="31.243534088" lon="34.812362671">
<ele>282.468750</ele>
<time>2013-11-19T07:56:29Z</time>
<speed>0.030000</speed>
<extensions>
<speed>0.0</speed>
<temp>0.00</temp>
<bpm>0</bpm>
<rpm>0.00</rpm>
</extensions>
</trkpt>
<trkpt lat="31.243534088" lon="34.812362671">
<ele>282.515625</ele>
<time>2013-11-19T07:56:34Z</time>
<speed>0.020000</speed>
<extensions>
<speed>0.0</speed>
<temp>0.00</temp>
<bpm>0</bpm>
<rpm>0.00</rpm>
</extensions>
</trkpt>
<trkpt lat="31.243532181" lon="34.812366486">
<ele>282.546875</ele>
<time>2013-11-19T07:56:39Z</time>
<speed>0.070000</speed>
<extensions>
<speed>0.1</speed>
<temp>0.00</temp>
<bpm>0</bpm>
<rpm>0.00</rpm>
</extensions>
</trkpt>
<trkpt lat="31.243532181" lon="34.812362671">
<ele>282.609375</ele>
<time>2013-11-19T07:56:44Z</time>
<speed>0.020000</speed>
<extensions>
<speed>0.0</speed>
<temp>0.00</temp>
<bpm>0</bpm>
<rpm>0.00</rpm>
</extensions>
</trkpt>
<trkpt lat="31.243532181" lon="34.812366486">
<ele>282.648438</ele>
<time>2013-11-19T07:56:49Z</time>
<speed>0.020000</speed>
<extensions>
<speed>0.0</speed>
<temp>0.00</temp>
<bpm>0</bpm>
<rpm>0.00</rpm>
</extensions>
</trkpt>
<trkpt lat="31.243532181" lon="34.812366486">
<ele>282.687500</ele>
<time>2013-11-19T07:56:54Z</time>
<extensions>
<speed>0.0</speed>
<temp>0.00</temp>
<bpm>0</bpm>
<rpm>0.00</rpm>
</extensions>
</trkpt>
<trkpt lat="31.243532181" lon="34.812366486">
<ele>282.679688</ele>
<time>2013-11-19T07:56:59Z</time>
<speed>0.020000</speed>
<extensions>
<speed>0.0</speed>
<temp>0.00</temp>
<bpm>0</bpm>
<rpm>0.00</rpm>
</extensions>
</trkpt>
<trkpt lat="31.243532181" lon="34.812366486">
<ele>282.695313</ele>
<time>2013-11-19T07:57:04Z</time>
<speed>0.030000</speed>
<extensions>
<speed>0.0</speed>
<temp>0.00</temp>
<bpm>0</bpm>
<rpm>0.00</rpm>
</extensions>
</trkpt>
<trkpt lat="31.243532181" lon="34.812366486">
<ele>282.718750</ele>
<time>2013-11-19T07:57:09Z</time>
<extensions>
<speed>0.0</speed>
<temp>0.00</temp>
<bpm>0</bpm>
<rpm>0.00</rpm>
</extensions>
</trkpt>
<trkpt lat="31.243530273" lon="34.812366486">
<ele>282.742188</ele>
<time>2013-11-19T07:57:14Z</time>
<speed>0.020000</speed>
<extensions>
<speed>0.0</speed>
<temp>0.00</temp>
<bpm>0</bpm>
<rpm>0.00</rpm>
</extensions>
</trkpt>
<trkpt lat="31.243530273" lon="34.812366486">
<ele>282.796875</ele>
<time>2013-11-19T07:57:19Z</time>
<speed>0.080000</speed>
<extensions>
<speed>0.1</speed>
<temp>0.00</temp>
<bpm>0</bpm>
<rpm>0.00</rpm>
</extensions>
</trkpt>
<trkpt lat="31.243537903" lon="34.812370300">
<ele>282.859375</ele>
<time>2013-11-19T07:57:24Z</time>
<speed>0.180000</speed>
<extensions>
<speed>0.2</speed>
<temp>0.00</temp>
<bpm>0</bpm>
<rpm>0.00</rpm>
</extensions>
</trkpt>
<trkpt lat="31.243543625" lon="34.812366486">
<ele>282.882813</ele>
<time>2013-11-19T07:57:29Z</time>
<speed>0.120000</speed>
<extensions>
<speed>0.1</speed>
<temp>0.00</temp>
<bpm>0</bpm>
<rpm>0.00</rpm>
</extensions>
</trkpt>
<trkpt lat="31.243543625" lon="34.812358856">
<ele>282.882813</ele>
<time>2013-11-19T07:57:34Z</time>
<speed>0.190000</speed>
<extensions>
<speed>0.2</speed>
<temp>0.00</temp>
<bpm>0</bpm>
<rpm>0.00</rpm>
</extensions>
</trkpt>
<trkpt lat="31.243535995" lon="34.812358856">
<ele>282.703125</ele>
<time>2013-11-19T07:57:39Z</time>
<speed>0.090000</speed>
<extensions>
<speed>0.1</speed>
<temp>0.00</temp>
<bpm>0</bpm>
<rpm>0.00</rpm>
</extensions>
</trkpt>
<trkpt lat="31.243534088" lon="34.812358856">
<ele>282.453125</ele>
<time>2013-11-19T07:57:44Z</time>
<extensions>
<speed>0.0</speed>
<temp>0.00</temp>
<bpm>0</bpm>
<rpm>0.00</rpm>
</extensions>
</trkpt>
<trkpt lat="31.243534088" lon="34.812358856">
<ele>282.226563</ele>
<time>2013-11-19T07:57:49Z</time>
<speed>0.010000</speed>
<extensions>
<speed>0.0</speed>
<temp>0.00</temp>
<bpm>0</bpm>
<rpm>0.00</rpm>
</extensions>
</trkpt>
<trkpt lat="31.243532181" lon="34.812355042">
<ele>281.984375</ele>
<time>2013-11-19T07:57:54Z</time>
<speed>0.030000</speed>
<extensions>
<speed>0.0</speed>
<temp>0.00</temp>
<bpm>0</bpm>
<rpm>0.00</rpm>
</extensions>
</trkpt>
<trkpt lat="31.243530273" lon="34.812355042">
<ele>281.726563</ele>
<time>2013-11-19T07:57:59Z</time>
<speed>0.060000</speed>
<extensions>
<speed>0.1</speed>
<temp>0.00</temp>
<bpm>0</bpm>
<rpm>0.00</rpm>
</extensions>
</trkpt>
<trkpt lat="31.243526459" lon="34.812355042">
<ele>281.453125</ele>
<time>2013-11-19T07:58:04Z</time>
<speed>0.100000</speed>
<extensions>
<speed>0.1</speed>
<temp>0.00</temp>
<bpm>0</bpm>
<rpm>0.00</rpm>
</extensions>
</trkpt>
<trkpt lat="31.243522644" lon="34.812347412">
<ele>281.164063</ele>
<time>2013-11-19T07:58:09Z</time>
<speed>0.180000</speed>
<extensions>
<speed>0.2</speed>
<temp>0.00</temp>
<bpm>0</bpm>
<rpm>0.00</rpm>
</extensions>
</trkpt>
<trkpt lat="31.243516922" lon="34.812339783">
<ele>280.906250</ele>
<time>2013-11-19T07:58:14Z</time>
<speed>0.220000</speed>
<extensions>
<speed>0.2</speed>
<temp>0.00</temp>
<bpm>0</bpm>
<rpm>0.00</rpm>
</extensions>
</trkpt>
<trkpt lat="31.243509293" lon="34.812328339">
<ele>280.757813</ele>
<time>2013-11-19T07:58:19Z</time>
<speed>0.270000</speed>
<extensions>
<speed>0.3</speed>
<temp>0.00</temp>
<bpm>0</bpm>
<rpm>0.00</rpm>
</extensions>
</trkpt>
<trkpt lat="31.243501663" lon="34.812316895">
<ele>280.664063</ele>
<time>2013-11-19T07:58:24Z</time>
<speed>0.220000</speed>
<extensions>
<speed>0.2</speed>
<temp>0.00</temp>
<bpm>0</bpm>
<rpm>0.00</rpm>
</extensions>
</trkpt>
<trkpt lat="31.243494034" lon="34.812305450">
<ele>280.546875</ele>
<time>2013-11-19T07:58:29Z</time>
<speed>0.280000</speed>
<extensions>
<speed>0.3</speed>
<temp>0.00</temp>
<bpm>0</bpm>
<rpm>0.00</rpm>
</extensions>
</trkpt>
<trkpt lat="31.243486404" lon="34.812294006">
<ele>280.445313</ele>
<time>2013-11-19T07:58:34Z</time>
<speed>0.230000</speed>
<extensions>
<speed>0.2</speed>
<temp>0.00</temp>
<bpm>0</bpm>
<rpm>0.00</rpm>
</extensions>
</trkpt>
<trkpt lat="31.243480682" lon="34.812282562">
<ele>280.359375</ele>
<time>2013-11-19T07:58:39Z</time>
<speed>0.270000</speed>
<extensions>
<speed>0.3</speed>
<temp>0.00</temp>
<bpm>0</bpm>
<rpm>0.00</rpm>
</extensions>
</trkpt>
<trkpt lat="31.243473053" lon="34.812274933">
<ele>280.234375</ele>
<time>2013-11-19T07:58:44Z</time>
<speed>0.210000</speed>
<extensions>
<speed>0.2</speed>
<temp>0.00</temp>
<bpm>0</bpm>
<rpm>0.00</rpm>
</extensions>
</trkpt>
<trkpt lat="31.243469238" lon="34.812267303">
<ele>279.984375</ele>
<time>2013-11-19T07:58:49Z</time>
<speed>0.130000</speed>
<extensions>
<speed>0.1</speed>
<temp>0.00</temp>
<bpm>0</bpm>
<rpm>0.00</rpm>
</extensions>
</trkpt>
<trkpt lat="31.243467331" lon="34.812263489">
<ele>279.625000</ele>
<time>2013-11-19T07:58:54Z</time>
<speed>0.010000</speed>
<extensions>
<speed>0.0</speed>
<temp>0.00</temp>
<bpm>0</bpm>
<rpm>0.00</rpm>
</extensions>
</trkpt>
<trkpt lat="31.243465424" lon="34.812263489">
<ele>279.156250</ele>
<time>2013-11-19T07:58:59Z</time>
<speed>0.060000</speed>
<extensions>
<speed>0.1</speed>
<temp>0.00</temp>
<bpm>0</bpm>
<rpm>0.00</rpm>
</extensions>
</trkpt>
<trkpt lat="31.243463516" lon="34.812259674">
<ele>278.593750</ele>
<time>2013-11-19T07:59:04Z</time>
<speed>0.060000</speed>
<extensions>
<speed>0.1</speed>
<temp>0.00</temp>
<bpm>0</bpm>
<rpm>0.00</rpm>
</extensions>
</trkpt>
<trkpt lat="31.243467331" lon="34.812259674">
<ele>278.125000</ele>
<time>2013-11-19T07:59:09Z</time>
<speed>0.060000</speed>
<extensions>
<speed>0.1</speed>
<temp>0.00</temp>
<bpm>0</bpm>
<rpm>0.00</rpm>
</extensions>
</trkpt>
<trkpt lat="31.243469238" lon="34.812252045">
<ele>277.656250</ele>
<time>2013-11-19T07:59:14Z</time>
<speed>0.090000</speed>
<extensions>
<speed>0.1</speed>
<temp>0.00</temp>
<bpm>0</bpm>
<rpm>0.00</rpm>
</extensions>
</trkpt>
<trkpt lat="31.243473053" lon="34.812248230">
<ele>277.320313</ele>
<time>2013-11-19T07:59:19Z</time>
<speed>0.120000</speed>
<extensions>
<speed>0.1</speed>
<temp>0.00</temp>
<bpm>0</bpm>
<rpm>0.00</rpm>
</extensions>
</trkpt>
<trkpt lat="31.243474960" lon="34.812240601">
<ele>277.203125</ele>
<time>2013-11-19T07:59:24Z</time>
<speed>0.190000</speed>
<extensions>
<speed>0.2</speed>
<temp>0.00</temp>
<bpm>0</bpm>
<rpm>0.00</rpm>
</extensions>
</trkpt>
<trkpt lat="31.243478775" lon="34.812229156">
<ele>277.257813</ele>
<time>2013-11-19T07:59:29Z</time>
<speed>0.180000</speed>
<extensions>
<speed>0.2</speed>
<temp>0.00</temp>
<bpm>0</bpm>
<rpm>0.00</rpm>
</extensions>
</trkpt>
<trkpt lat="31.243484497" lon="34.812221527">
<ele>277.390625</ele>
<time>2013-11-19T07:59:34Z</time>
<speed>0.150000</speed>
<extensions>
<speed>0.2</speed>
<temp>0.00</temp>
<bpm>0</bpm>
<rpm>0.00</rpm>
</extensions>
</trkpt>
<trkpt lat="31.243488312" lon="34.812217712">
<ele>277.632813</ele>
<time>2013-11-19T07:59:39Z</time>
<speed>0.190000</speed>
<extensions>
<speed>0.2</speed>
<temp>0.00</temp>
<bpm>0</bpm>
<rpm>0.00</rpm>
</extensions>
</trkpt>
<trkpt lat="31.243486404" lon="34.812206268">
<ele>277.695313</ele>
<time>2013-11-19T07:59:44Z</time>
<speed>0.260000</speed>
<extensions>
<speed>0.3</speed>
<temp>0.00</temp>
<bpm>0</bpm>
<rpm>0.00</rpm>
</extensions>
</trkpt>
<trkpt lat="31.243495941" lon="34.812187195">
<ele>277.578125</ele>
<time>2013-11-19T07:59:49Z</time>
<speed>0.230000</speed>
<extensions>
<speed>0.2</speed>
<temp>0.00</temp>
<bpm>0</bpm>
<rpm>0.00</rpm>
</extensions>
</trkpt>
<trkpt lat="31.243490219" lon="34.812175751">
<ele>277.304688</ele>
<time>2013-11-19T07:59:54Z</time>
<speed>0.020000</speed>
<extensions>
<speed>0.0</speed>
<temp>0.00</temp>
<bpm>0</bpm>
<rpm>0.00</rpm>
</extensions>
</trkpt>
<trkpt lat="31.243490219" lon="34.812175751">
<ele>277.242188</ele>
<time>2013-11-19T07:59:59Z</time>
<speed>0.040000</speed>
<extensions>
<speed>0.0</speed>
<temp>0.00</temp>
<bpm>0</bpm>
<rpm>0.00</rpm>
</extensions>
</trkpt>
<trkpt lat="31.243490219" lon="34.812175751">
<ele>277.226563</ele>
<time>2013-11-19T08:00:04Z</time>
<speed>0.010000</speed>
<extensions>
<speed>0.0</speed>
<temp>0.00</temp>
<bpm>0</bpm>
<rpm>0.00</rpm>
</extensions>
</trkpt>
<trkpt lat="31.243490219" lon="34.812175751">
<ele>277.179688</ele>
<time>2013-11-19T08:00:09Z</time>
<extensions>
<speed>0.0</speed>
<temp>0.00</temp>
<bpm>0</bpm>
<rpm>0.00</rpm>
</extensions>
</trkpt>
<trkpt lat="31.243492126" lon="34.812175751">
<ele>277.132813</ele>
<time>2013-11-19T08:00:14Z</time>
<extensions>
<speed>0.0</speed>
<temp>0.00</temp>
<bpm>0</bpm>
<rpm>0.00</rpm>
</extensions>
</trkpt>
<trkpt lat="31.243490219" lon="34.812171936">
<ele>277.132813</ele>
<time>2013-11-19T08:00:19Z</time>
<speed>0.010000</speed>
<extensions>
<speed>0.0</speed>
<temp>0.00</temp>
<bpm>0</bpm>
<rpm>0.00</rpm>
</extensions>
</trkpt>
<trkpt lat="31.243490219" lon="34.812171936">
<ele>277.148438</ele>
<time>2013-11-19T08:00:24Z</time>
<extensions>
<speed>0.0</speed>
<temp>0.00</temp>
<bpm>0</bpm>
<rpm>0.00</rpm>
</extensions>
</trkpt>
<trkpt lat="31.243490219" lon="34.812171936">
<ele>277.140625</ele>
<time>2013-11-19T08:00:29Z</time>
<extensions>
<speed>0.0</speed>
<temp>0.00</temp>
<bpm>0</bpm>
<rpm>0.00</rpm>
</extensions>
</trkpt>
<trkpt lat="31.243490219" lon="34.812171936">
<ele>277.148438</ele>
<time>2013-11-19T08:00:34Z</time>
<speed>0.010000</speed>
<extensions>
<speed>0.0</speed>
<temp>0.00</temp>
<bpm>0</bpm>
<rpm>0.00</rpm>
</extensions>
</trkpt>
<trkpt lat="31.243490219" lon="34.812171936">
<ele>277.164063</ele>
<time>2013-11-19T08:00:39Z</time>
<speed>0.010000</speed>
<extensions>
<speed>0.0</speed>
<temp>0.00</temp>
<bpm>0</bpm>
<rpm>0.00</rpm>
</extensions>
</trkpt>
<trkpt lat="31.243490219" lon="34.812171936">
<ele>277.210938</ele>
<time>2013-11-19T08:00:44Z</time>
<speed>0.020000</speed>
<extensions>
<speed>0.0</speed>
<temp>0.00</temp>
<bpm>0</bpm>
<rpm>0.00</rpm>
</extensions>
</trkpt>
<trkpt lat="31.243490219" lon="34.812168121">
<ele>277.312500</ele>
<time>2013-11-19T08:00:49Z</time>
<speed>0.020000</speed>
<extensions>
<speed>0.0</speed>
<temp>0.00</temp>
<bpm>0</bpm>
<rpm>0.00</rpm>
</extensions>
</trkpt>
<trkpt lat="31.243490219" lon="34.812168121">
<ele>277.484375</ele>
<time>2013-11-19T08:00:54Z</time>
<speed>0.070000</speed>
<extensions>
<speed>0.1</speed>
<temp>0.00</temp>
<bpm>0</bpm>
<rpm>0.00</rpm>
</extensions>
</trkpt>
<trkpt lat="31.243488312" lon="34.812164307">
<ele>277.773438</ele>
<time>2013-11-19T08:00:59Z</time>
<speed>0.090000</speed>
<extensions>
<speed>0.1</speed>
<temp>0.00</temp>
<bpm>0</bpm>
<rpm>0.00</rpm>
</extensions>
</trkpt>
<trkpt lat="31.243484497" lon="34.812156677">
<ele>278.218750</ele>
<time>2013-11-19T08:01:04Z</time>
<speed>0.150000</speed>
<extensions>
<speed>0.2</speed>
<temp>0.00</temp>
<bpm>0</bpm>
<rpm>0.00</rpm>
</extensions>
</trkpt>
<trkpt lat="31.243480682" lon="34.812149048">
<ele>278.820313</ele>
<time>2013-11-19T08:01:09Z</time>
<speed>0.150000</speed>
<extensions>
<speed>0.2</speed>
<temp>0.00</temp>
<bpm>0</bpm>
<rpm>0.00</rpm>
</extensions>
</trkpt>
<trkpt lat="31.243474960" lon="34.812141418">
<ele>279.476563</ele>
<time>2013-11-19T08:01:14Z</time>
<speed>0.170000</speed>
<extensions>
<speed>0.2</speed>
<temp>0.00</temp>
<bpm>0</bpm>
<rpm>0.00</rpm>
</extensions>
</trkpt>
<trkpt lat="31.243471146" lon="34.812129974">
<ele>280.296875</ele>
<time>2013-11-19T08:01:19Z</time>
<speed>0.210000</speed>
<extensions>
<speed>0.2</speed>
<temp>0.00</temp>
<bpm>0</bpm>
<rpm>0.00</rpm>
</extensions>
</trkpt>
<trkpt lat="31.243467331" lon="34.812118530">
<ele>281.226563</ele>
<time>2013-11-19T08:01:24Z</time>
<speed>0.200000</speed>
<extensions>
<speed>0.2</speed>
<temp>0.00</temp>
<bpm>0</bpm>
<rpm>0.00</rpm>
</extensions>
</trkpt>
<trkpt lat="31.243461609" lon="34.812110901">
<ele>282.273438</ele>
<time>2013-11-19T08:01:29Z</time>
<speed>0.200000</speed>
<extensions>
<speed>0.2</speed>
<temp>0.00</temp>
<bpm>0</bpm>
<rpm>0.00</rpm>
</extensions>
</trkpt>
<trkpt lat="31.243457794" lon="34.812099457">
<ele>283.390625</ele>
<time>2013-11-19T08:01:34Z</time>
<speed>0.230000</speed>
<extensions>
<speed>0.2</speed>
<temp>0.00</temp>
<bpm>0</bpm>
<rpm>0.00</rpm>
</extensions>
</trkpt>
<trkpt lat="31.243452072" lon="34.812088013">
<ele>284.515625</ele>
<time>2013-11-19T08:01:39Z</time>
<speed>0.280000</speed>
<extensions>
<speed>0.3</speed>
<temp>0.00</temp>
<bpm>0</bpm>
<rpm>0.00</rpm>
</extensions>
</trkpt>
<trkpt lat="31.243440628" lon="34.812034607">
<ele>287.617188</ele>
<time>2013-11-19T08:01:44Z</time>
<speed>0.340000</speed>
<extensions>
<speed>0.3</speed>
<temp>0.00</temp>
<bpm>0</bpm>
<rpm>0.00</rpm>
</extensions>
</trkpt>
<trkpt lat="31.243432999" lon="34.811988831">
<ele>289.937500</ele>
<time>2013-11-19T08:01:49Z</time>
<speed>0.040000</speed>
<extensions>
<speed>0.0</speed>
<temp>0.00</temp>
<bpm>0</bpm>
<rpm>0.00</rpm>
</extensions>
</trkpt>
<trkpt lat="31.243431091" lon="34.811985016">
<ele>290.906250</ele>
<time>2013-11-19T08:01:54Z</time>
<speed>0.030000</speed>
<extensions>
<speed>0.0</speed>
<temp>0.00</temp>
<bpm>0</bpm>
<rpm>0.00</rpm>
</extensions>
</trkpt>
<trkpt lat="31.243429184" lon="34.811981201">
<ele>291.656250</ele>
<time>2013-11-19T08:01:59Z</time>
<speed>0.030000</speed>
<extensions>
<speed>0.0</speed>
<temp>0.00</temp>
<bpm>0</bpm>
<rpm>0.00</rpm>
</extensions>
</trkpt>
<trkpt lat="31.243427277" lon="34.811981201">
<ele>292.250000</ele>
<time>2013-11-19T08:02:04Z</time>
<speed>0.110000</speed>
<extensions>
<speed>0.1</speed>
<temp>0.00</temp>
<bpm>0</bpm>
<rpm>0.00</rpm>
</extensions>
</trkpt>
<trkpt lat="31.243425369" lon="34.811977386">
<ele>292.773438</ele>
<time>2013-11-19T08:02:09Z</time>
<speed>0.040000</speed>
<extensions>
<speed>0.0</speed>
<temp>0.00</temp>
<bpm>0</bpm>
<rpm>0.00</rpm>
</extensions>
</trkpt>
<trkpt lat="31.243423462" lon="34.811973572">
<ele>293.210938</ele>
<time>2013-11-19T08:02:14Z</time>
<speed>0.100000</speed>
<extensions>
<speed>0.1</speed>
<temp>0.00</temp>
<bpm>0</bpm>
<rpm>0.00</rpm>
</extensions>
</trkpt>
<trkpt lat="31.243421555" lon="34.811965942">
<ele>293.617188</ele>
<time>2013-11-19T08:02:19Z</time>
<speed>0.050000</speed>
<extensions>
<speed>0.1</speed>
<temp>0.00</temp>
<bpm>0</bpm>
<rpm>0.00</rpm>
</extensions>
</trkpt>
<trkpt lat="31.243421555" lon="34.811965942">
<ele>293.828125</ele>
<time>2013-11-19T08:02:24Z</time>
<speed>0.010000</speed>
<extensions>
<speed>0.0</speed>
<temp>0.00</temp>
<bpm>0</bpm>
<rpm>0.00</rpm>
</extensions>
</trkpt>
<trkpt lat="31.243421555" lon="34.811965942">
<ele>293.882813</ele>
<time>2013-11-19T08:02:29Z</time>
<extensions>
<speed>0.0</speed>
<temp>0.00</temp>
<bpm>0</bpm>
<rpm>0.00</rpm>
</extensions>
</trkpt>
<trkpt lat="31.243421555" lon="34.811965942">
<ele>293.859375</ele>
<time>2013-11-19T08:02:34Z</time>
<extensions>
<speed>0.0</speed>
<temp>0.00</temp>
<bpm>0</bpm>
<rpm>0.00</rpm>
</extensions>
</trkpt>
<trkpt lat="31.243421555" lon="34.811965942">
<ele>293.835938</ele>
<time>2013-11-19T08:02:39Z</time>
<extensions>
<speed>0.0</speed>
<temp>0.00</temp>
<bpm>0</bpm>
<rpm>0.00</rpm>
</extensions>
</trkpt>
<trkpt lat="31.243423462" lon="34.811965942">
<ele>293.789063</ele>
<time>2013-11-19T08:02:44Z</time>
<speed>0.010000</speed>
<extensions>
<speed>0.0</speed>
<temp>0.00</temp>
<bpm>0</bpm>
<rpm>0.00</rpm>
</extensions>
</trkpt>
<trkpt lat="31.243423462" lon="34.811965942">
<ele>293.718750</ele>
<time>2013-11-19T08:02:49Z</time>
<speed>0.020000</speed>
<extensions>
<speed>0.0</speed>
<temp>0.00</temp>
<bpm>0</bpm>
<rpm>0.00</rpm>
</extensions>
</trkpt>
<trkpt lat="31.243425369" lon="34.811965942">
<ele>293.648438</ele>
<time>2013-11-19T08:02:54Z</time>
<speed>0.040000</speed>
<extensions>
<speed>0.0</speed>
<temp>0.00</temp>
<bpm>0</bpm>
<rpm>0.00</rpm>
</extensions>
</trkpt>
<trkpt lat="31.243427277" lon="34.811969757">
<ele>293.539063</ele>
<time>2013-11-19T08:02:59Z</time>
<speed>0.050000</speed>
<extensions>
<speed>0.1</speed>
<temp>0.00</temp>
<bpm>0</bpm>
<rpm>0.00</rpm>
</extensions>
</trkpt>
<trkpt lat="31.243431091" lon="34.811973572">
<ele>293.351563</ele>
<time>2013-11-19T08:03:04Z</time>
<speed>0.120000</speed>
<extensions>
<speed>0.1</speed>
<temp>0.00</temp>
<bpm>0</bpm>
<rpm>0.00</rpm>
</extensions>
</trkpt>
<trkpt lat="31.243434906" lon="34.811977386">
<ele>293.117188</ele>
<time>2013-11-19T08:03:09Z</time>
<speed>0.100000</speed>
<extensions>
<speed>0.1</speed>
<temp>0.00</temp>
<bpm>0</bpm>
<rpm>0.00</rpm>
</extensions>
</trkpt>
<trkpt lat="31.243436813" lon="34.811981201">
<ele>292.867188</ele>
<time>2013-11-19T08:03:14Z</time>
<speed>0.090000</speed>
<extensions>
<speed>0.1</speed>
<temp>0.00</temp>
<bpm>0</bpm>
<rpm>0.00</rpm>
</extensions>
</trkpt>
<trkpt lat="31.243438721" lon="34.811985016">
<ele>292.632813</ele>
<time>2013-11-19T08:03:19Z</time>
<speed>0.060000</speed>
<extensions>
<speed>0.1</speed>
<temp>0.00</temp>
<bpm>0</bpm>
<rpm>0.00</rpm>
</extensions>
</trkpt>
<trkpt lat="31.243440628" lon="34.811985016">
<ele>292.328125</ele>
<time>2013-11-19T08:03:24Z</time>
<speed>0.110000</speed>
<extensions>
<speed>0.1</speed>
<temp>0.00</temp>
<bpm>0</bpm>
<rpm>0.00</rpm>
</extensions>
</trkpt>
<trkpt lat="31.243429184" lon="34.812015533">
<ele>292.062500</ele>
<time>2013-11-19T08:03:29Z</time>
<speed>0.750000</speed>
<extensions>
<speed>0.8</speed>
<temp>0.00</temp>
<bpm>0</bpm>
<rpm>0.00</rpm>
</extensions>
</trkpt>
<trkpt lat="31.243438721" lon="34.812042236">
<ele>291.429688</ele>
<time>2013-11-19T08:03:34Z</time>
<speed>0.470000</speed>
<extensions>
<speed>0.5</speed>
<temp>0.00</temp>
<bpm>0</bpm>
<rpm>0.00</rpm>
</extensions>
</trkpt>
<trkpt lat="31.243434906" lon="34.812042236">
<ele>291.367188</ele>
<time>2013-11-19T08:03:39Z</time>
<speed>0.390000</speed>
<extensions>
<speed>0.4</speed>
<temp>0.00</temp>
<bpm>0</bpm>
<rpm>0.00</rpm>
</extensions>
</trkpt>
<trkpt lat="31.243429184" lon="34.812034607">
<ele>291.812500</ele>
<time>2013-11-19T08:03:44Z</time>
<speed>0.270000</speed>
<extensions>
<speed>0.3</speed>
<temp>0.00</temp>
<bpm>0</bpm>
<rpm>0.00</rpm>
</extensions>
</trkpt>
<trkpt lat="31.243406296" lon="34.812038422">
<ele>292.757813</ele>
<time>2013-11-19T08:03:49Z</time>
<speed>0.290000</speed>
<extensions>
<speed>0.3</speed>
<temp>0.00</temp>
<bpm>0</bpm>
<rpm>0.00</rpm>
</extensions>
</trkpt>
<trkpt lat="31.243391037" lon="34.812042236">
<ele>293.015625</ele>
<time>2013-11-19T08:03:54Z</time>
<speed>0.200000</speed>
<extensions>
<speed>0.2</speed>
<temp>0.00</temp>
<bpm>0</bpm>
<rpm>0.00</rpm>
</extensions>
</trkpt>
<trkpt lat="31.243385315" lon="34.812042236">
<ele>293.164063</ele>
<time>2013-11-19T08:03:59Z</time>
<speed>0.010000</speed>
<extensions>
<speed>0.0</speed>
<temp>0.00</temp>
<bpm>0</bpm>
<rpm>0.00</rpm>
</extensions>
</trkpt>
<trkpt lat="31.243383408" lon="34.812042236">
<ele>293.359375</ele>
<time>2013-11-19T08:04:04Z</time>
<speed>0.020000</speed>
<extensions>
<speed>0.0</speed>
<temp>0.00</temp>
<bpm>0</bpm>
<rpm>0.00</rpm>
</extensions>
</trkpt>
<trkpt lat="31.243381500" lon="34.812042236">
<ele>293.570313</ele>
<time>2013-11-19T08:04:09Z</time>
<speed>0.010000</speed>
<extensions>
<speed>0.0</speed>
<temp>0.00</temp>
<bpm>0</bpm>
<rpm>0.00</rpm>
</extensions>
</trkpt>
<trkpt lat="31.243381500" lon="34.812042236">
<ele>293.687500</ele>
<time>2013-11-19T08:04:14Z</time>
<extensions>
<speed>0.0</speed>
<temp>0.00</temp>
<bpm>0</bpm>
<rpm>0.00</rpm>
</extensions>
</trkpt>
<trkpt lat="31.243381500" lon="34.812042236">
<ele>293.750000</ele>
<time>2013-11-19T08:04:19Z</time>
<speed>0.050000</speed>
<extensions>
<speed>0.1</speed>
<temp>0.00</temp>
<bpm>0</bpm>
<rpm>0.00</rpm>
</extensions>
</trkpt>
<trkpt lat="31.243415833" lon="34.812080383">
<ele>294.921875</ele>
<time>2013-11-19T08:04:24Z</time>
<speed>2.430000</speed>
<extensions>
<speed>2.4</speed>
<temp>0.00</temp>
<bpm>0</bpm>
<rpm>0.00</rpm>
</extensions>
</trkpt>
<trkpt lat="31.243539810" lon="34.812103271">
<ele>296.031250</ele>
<time>2013-11-19T08:04:29Z</time>
<speed>2.790000</speed>
<extensions>
<speed>2.8</speed>
<temp>0.00</temp>
<bpm>0</bpm>
<rpm>0.00</rpm>
</extensions>
</trkpt>
<trkpt lat="31.243696213" lon="34.812053680">
<ele>297.789063</ele>
<time>2013-11-19T08:04:34Z</time>
<speed>3.540000</speed>
<extensions>
<speed>3.5</speed>
<temp>0.00</temp>
<bpm>0</bpm>
<rpm>0.00</rpm>
</extensions>
</trkpt>
<trkpt lat="31.243864059" lon="34.811996460">
<ele>298.429688</ele>
<time>2013-11-19T08:04:39Z</time>
<speed>3.440000</speed>
<extensions>
<speed>3.4</speed>
<temp>0.00</temp>
<bpm>0</bpm>
<rpm>0.00</rpm>
</extensions>
</trkpt>
<trkpt lat="31.244037628" lon="34.811950684">
<ele>297.031250</ele>
<time>2013-11-19T08:04:44Z</time>
<speed>3.950000</speed>
<extensions>
<speed>4.0</speed>
<temp>0.00</temp>
<bpm>0</bpm>
<rpm>0.00</rpm>
</extensions>
</trkpt>
<trkpt lat="31.244247437" lon="34.811878204">
<ele>297.187500</ele>
<time>2013-11-19T08:04:49Z</time>
<speed>4.910000</speed>
<extensions>
<speed>4.9</speed>
<temp>0.00</temp>
<bpm>0</bpm>
<rpm>0.00</rpm>
</extensions>
</trkpt>
<trkpt lat="31.244497299" lon="34.811893463">
<ele>300.101563</ele>
<time>2013-11-19T08:04:54Z</time>
<speed>4.770000</speed>
<extensions>
<speed>4.8</speed>
<temp>0.00</temp>
<bpm>0</bpm>
<rpm>0.00</rpm>
</extensions>
</trkpt>
<trkpt lat="31.244691849" lon="34.811859131">
<ele>301.921875</ele>
<time>2013-11-19T08:04:59Z</time>
<speed>3.120000</speed>
<extensions>
<speed>3.1</speed>
<temp>0.00</temp>
<bpm>0</bpm>
<rpm>0.00</rpm>
</extensions>
</trkpt>
<trkpt lat="31.244823456" lon="34.811836243">
<ele>301.304688</ele>
<time>2013-11-19T08:05:04Z</time>
<speed>2.030000</speed>
<extensions>
<speed>2.0</speed>
<temp>0.00</temp>
<bpm>0</bpm>
<rpm>0.00</rpm>
</extensions>
</trkpt>
<trkpt lat="31.244901657" lon="34.811828613">
<ele>300.273438</ele>
<time>2013-11-19T08:05:09Z</time>
<speed>1.270000</speed>
<extensions>
<speed>1.3</speed>
<temp>0.00</temp>
<bpm>0</bpm>
<rpm>0.00</rpm>
</extensions>
</trkpt>
<trkpt lat="31.244935989" lon="34.811767578">
<ele>296.593750</ele>
<time>2013-11-19T08:05:14Z</time>
<speed>0.190000</speed>
<extensions>
<speed>0.2</speed>
<temp>0.00</temp>
<bpm>0</bpm>
<rpm>0.00</rpm>
</extensions>
</trkpt>
<trkpt lat="31.244937897" lon="34.811767578">
<ele>296.210938</ele>
<time>2013-11-19T08:05:19Z</time>
<speed>0.030000</speed>
<extensions>
<speed>0.0</speed>
<temp>0.00</temp>
<bpm>0</bpm>
<rpm>0.00</rpm>
</extensions>
</trkpt>
<trkpt lat="31.244934082" lon="34.811763763">
<ele>295.921875</ele>
<time>2013-11-19T08:05:24Z</time>
<speed>0.350000</speed>
<extensions>
<speed>0.3</speed>
<temp>0.00</temp>
<bpm>0</bpm>
<rpm>0.00</rpm>
</extensions>
</trkpt>
<trkpt lat="31.244924545" lon="34.811759949">
<ele>295.851563</ele>
<time>2013-11-19T08:05:29Z</time>
<extensions>
<speed>0.0</speed>
<temp>0.00</temp>
<bpm>0</bpm>
<rpm>0.00</rpm>
</extensions>
</trkpt>
<trkpt lat="31.244924545" lon="34.811756134">
<ele>295.882813</ele>
<time>2013-11-19T08:05:34Z</time>
<speed>0.150000</speed>
<extensions>
<speed>0.2</speed>
<temp>0.00</temp>
<bpm>0</bpm>
<rpm>0.00</rpm>
</extensions>
</trkpt>
<trkpt lat="31.244928360" lon="34.811717987">
<ele>295.664063</ele>
<time>2013-11-19T08:05:39Z</time>
<speed>1.720000</speed>
<extensions>
<speed>1.7</speed>
<temp>0.00</temp>
<bpm>0</bpm>
<rpm>0.00</rpm>
</extensions>
</trkpt>
<trkpt lat="31.244886398" lon="34.811668396">
<ele>295.015625</ele>
<time>2013-11-19T08:05:44Z</time>
<speed>1.680000</speed>
<extensions>
<speed>1.7</speed>
<temp>0.00</temp>
<bpm>0</bpm>
<rpm>0.00</rpm>
</extensions>
</trkpt>
<trkpt lat="31.244825363" lon="34.811664581">
<ele>291.804688</ele>
<time>2013-11-19T08:05:49Z</time>
<speed>0.800000</speed>
<extensions>
<speed>0.8</speed>
<temp>0.00</temp>
<bpm>0</bpm>
<rpm>0.00</rpm>
</extensions>
</trkpt>
<trkpt lat="31.244825363" lon="34.811622620">
<ele>288.445313</ele>
<time>2013-11-19T08:05:54Z</time>
<speed>2.020000</speed>
<extensions>
<speed>2.0</speed>
<temp>0.00</temp>
<bpm>0</bpm>
<rpm>0.00</rpm>
</extensions>
</trkpt>
<trkpt lat="31.244817734" lon="34.811527252">
<ele>286.750000</ele>
<time>2013-11-19T08:05:59Z</time>
<speed>2.040000</speed>
<extensions>
<speed>2.0</speed>
<temp>0.00</temp>
<bpm>0</bpm>
<rpm>0.00</rpm>
</extensions>
</trkpt>
<trkpt lat="31.244819641" lon="34.811431885">
<ele>285.351563</ele>
<time>2013-11-19T08:06:04Z</time>
<speed>2.030000</speed>
<extensions>
<speed>2.0</speed>
<temp>0.00</temp>
<bpm>0</bpm>
<rpm>0.00</rpm>
</extensions>
</trkpt>
<trkpt lat="31.244775772" lon="34.811313629">
<ele>284.414063</ele>
<time>2013-11-19T08:06:09Z</time>
<speed>3.140000</speed>
<extensions>
<speed>3.1</speed>
<temp>0.00</temp>
<bpm>0</bpm>
<rpm>0.00</rpm>
</extensions>
</trkpt>
<trkpt lat="31.244720459" lon="34.811141968">
<ele>283.054688</ele>
<time>2013-11-19T08:06:14Z</time>
<speed>2.960000</speed>
<extensions>
<speed>3.0</speed>
<temp>0.00</temp>
<bpm>0</bpm>
<rpm>0.00</rpm>
</extensions>
</trkpt>
<trkpt lat="31.244638443" lon="34.810966492">
<ele>281.476563</ele>
<time>2013-11-19T08:06:19Z</time>
<speed>4.030000</speed>
<extensions>
<speed>4.0</speed>
<temp>0.00</temp>
<bpm>0</bpm>
<rpm>0.00</rpm>
</extensions>
</trkpt>
<trkpt lat="31.244548798" lon="34.810749054">
<ele>278.992188</ele>
<time>2013-11-19T08:06:24Z</time>
<speed>4.170000</speed>
<extensions>
<speed>4.2</speed>
<temp>0.00</temp>
<bpm>0</bpm>
<rpm>0.00</rpm>
</extensions>
</trkpt>
<trkpt lat="31.244455338" lon="34.810508728">
<ele>278.476563</ele>
<time>2013-11-19T08:06:29Z</time>
<speed>3.910000</speed>
<extensions>
<speed>3.9</speed>
<temp>0.00</temp>
<bpm>0</bpm>
<rpm>0.00</rpm>
</extensions>
</trkpt>
<trkpt lat="31.244331360" lon="34.810363770">
<ele>278.265625</ele>
<time>2013-11-19T08:06:34Z</time>
<speed>1.460000</speed>
<extensions>
<speed>1.5</speed>
<temp>0.00</temp>
<bpm>0</bpm>
<rpm>0.00</rpm>
</extensions>
</trkpt>
<trkpt lat="31.244342804" lon="34.810306549">
<ele>278.945313</ele>
<time>2013-11-19T08:06:39Z</time>
<speed>1.790000</speed>
<extensions>
<speed>1.8</speed>
<temp>0.00</temp>
<bpm>0</bpm>
<rpm>0.00</rpm>
</extensions>
</trkpt>
<trkpt lat="31.244319916" lon="34.810142517">
<ele>280.906250</ele>
<time>2013-11-19T08:06:44Z</time>
<speed>3.200000</speed>
<extensions>
<speed>3.2</speed>
<temp>0.00</temp>
<bpm>0</bpm>
<rpm>0.00</rpm>
</extensions>
</trkpt>
<trkpt lat="31.244297028" lon="34.809906006">
<ele>281.156250</ele>
<time>2013-11-19T08:06:49Z</time>
<speed>3.980000</speed>
<extensions>
<speed>4.0</speed>
<temp>0.00</temp>
<bpm>0</bpm>
<rpm>0.00</rpm>
</extensions>
</trkpt>
<trkpt lat="31.244253159" lon="34.809673309">
<ele>281.812500</ele>
<time>2013-11-19T08:06:54Z</time>
<speed>4.440000</speed>
<extensions>
<speed>4.4</speed>
<temp>0.00</temp>
<bpm>0</bpm>
<rpm>0.00</rpm>
</extensions>
</trkpt>
<trkpt lat="31.244230270" lon="34.809509277">
<ele>282.906250</ele>
<time>2013-11-19T08:06:59Z</time>
<speed>2.520000</speed>
<extensions>
<speed>2.5</speed>
<temp>0.00</temp>
<bpm>0</bpm>
<rpm>0.00</rpm>
</extensions>
</trkpt>
<trkpt lat="31.244239807" lon="34.809413910">
<ele>282.765625</ele>
<time>2013-11-19T08:07:04Z</time>
<speed>1.230000</speed>
<extensions>
<speed>1.2</speed>
<temp>0.00</temp>
<bpm>0</bpm>
<rpm>0.00</rpm>
</extensions>
</trkpt>
<trkpt lat="31.244266510" lon="34.809349060">
<ele>283.523438</ele>
<time>2013-11-19T08:07:09Z</time>
<speed>2.120000</speed>
<extensions>
<speed>2.1</speed>
<temp>0.00</temp>
<bpm>0</bpm>
<rpm>0.00</rpm>
</extensions>
</trkpt>
<trkpt lat="31.244283676" lon="34.809200287">
<ele>285.171875</ele>
<time>2013-11-19T08:07:14Z</time>
<speed>2.940000</speed>
<extensions>
<speed>2.9</speed>
<temp>0.00</temp>
<bpm>0</bpm>
<rpm>0.00</rpm>
</extensions>
</trkpt>
<trkpt lat="31.244260788" lon="34.809082031">
<ele>283.234375</ele>
<time>2013-11-19T08:07:19Z</time>
<speed>1.270000</speed>
<extensions>
<speed>1.3</speed>
<temp>0.00</temp>
<bpm>0</bpm>
<rpm>0.00</rpm>
</extensions>
</trkpt>
<trkpt lat="31.244388580" lon="34.809020996">
<ele>287.351563</ele>
<time>2013-11-19T08:07:24Z</time>
<speed>2.930000</speed>
<extensions>
<speed>2.9</speed>
<temp>0.00</temp>
<bpm>0</bpm>
<rpm>0.00</rpm>
</extensions>
</trkpt>
<trkpt lat="31.244192123" lon="34.808898926">
<ele>294.468750</ele>
<time>2013-11-19T08:07:29Z</time>
<speed>0.840000</speed>
<extensions>
<speed>0.8</speed>
<temp>0.00</temp>
<bpm>0</bpm>
<rpm>0.00</rpm>
</extensions>
</trkpt>
<trkpt lat="31.244306564" lon="34.808891296">
<ele>292.750000</ele>
<time>2013-11-19T08:07:34Z</time>
<speed>3.330000</speed>
<extensions>
<speed>3.3</speed>
<temp>0.00</temp>
<bpm>0</bpm>
<rpm>0.00</rpm>
</extensions>
</trkpt>
<trkpt lat="31.244342804" lon="34.808891296">
<ele>291.289063</ele>
<time>2013-11-19T08:07:39Z</time>
<speed>0.030000</speed>
<extensions>
<speed>0.0</speed>
<temp>0.00</temp>
<bpm>0</bpm>
<rpm>0.00</rpm>
</extensions>
</trkpt>
<trkpt lat="31.244340897" lon="34.808895111">
<ele>291.335938</ele>
<time>2013-11-19T08:07:44Z</time>
<speed>0.060000</speed>
<extensions>
<speed>0.1</speed>
<temp>0.00</temp>
<bpm>0</bpm>
<rpm>0.00</rpm>
</extensions>
</trkpt>
<trkpt lat="31.244342804" lon="34.808891296">
<ele>291.226563</ele>
<time>2013-11-19T08:07:49Z</time>
<speed>0.060000</speed>
<extensions>
<speed>0.1</speed>
<temp>0.00</temp>
<bpm>0</bpm>
<rpm>0.00</rpm>
</extensions>
</trkpt>
<trkpt lat="31.244342804" lon="34.808895111">
<ele>291.179688</ele>
<time>2013-11-19T08:07:54Z</time>
<speed>0.030000</speed>
<extensions>
<speed>0.0</speed>
<temp>0.00</temp>
<bpm>0</bpm>
<rpm>0.00</rpm>
</extensions>
</trkpt>
<trkpt lat="31.244342804" lon="34.808895111">
<ele>291.156250</ele>
<time>2013-11-19T08:07:59Z</time>
<extensions>
<speed>0.0</speed>
<temp>0.00</temp>
<bpm>0</bpm>
<rpm>0.00</rpm>
</extensions>
</trkpt>
<trkpt lat="31.244342804" lon="34.808895111">
<ele>291.148438</ele>
<time>2013-11-19T08:08:04Z</time>
<extensions>
<speed>0.0</speed>
<temp>0.00</temp>
<bpm>0</bpm>
<rpm>0.00</rpm>
</extensions>
</trkpt>
<trkpt lat="31.244344711" lon="34.808876038">
<ele>291.054688</ele>
<time>2013-11-19T08:08:09Z</time>
<speed>2.030000</speed>
<extensions>
<speed>2.0</speed>
<temp>0.00</temp>
<bpm>0</bpm>
<rpm>0.00</rpm>
</extensions>
</trkpt>
<trkpt lat="31.244365692" lon="34.808715820">
<ele>290.125000</ele>
<time>2013-11-19T08:08:14Z</time>
<speed>4.180000</speed>
<extensions>
<speed>4.2</speed>
<temp>0.00</temp>
<bpm>0</bpm>
<rpm>0.00</rpm>
</extensions>
</trkpt>
<trkpt lat="31.244369507" lon="34.808490753">
<ele>289.421875</ele>
<time>2013-11-19T08:08:19Z</time>
<speed>4.710000</speed>
<extensions>
<speed>4.7</speed>
<temp>0.00</temp>
<bpm>0</bpm>
<rpm>0.00</rpm>
</extensions>
</trkpt>
<trkpt lat="31.244419098" lon="34.808197021">
<ele>289.101563</ele>
<time>2013-11-19T08:08:24Z</time>
<speed>6.000000</speed>
<extensions>
<speed>6.0</speed>
<temp>0.00</temp>
<bpm>0</bpm>
<rpm>0.00</rpm>
</extensions>
</trkpt>
<trkpt lat="31.244504929" lon="34.807884216">
<ele>289.687500</ele>
<time>2013-11-19T08:08:29Z</time>
<speed>6.110000</speed>
<extensions>
<speed>6.1</speed>
<temp>0.00</temp>
<bpm>0</bpm>
<rpm>0.00</rpm>
</extensions>
</trkpt>
<trkpt lat="31.244548798" lon="34.807552338">
<ele>290.898438</ele>
<time>2013-11-19T08:08:34Z</time>
<speed>6.700000</speed>
<extensions>
<speed>6.7</speed>
<temp>0.00</temp>
<bpm>0</bpm>
<rpm>0.00</rpm>
</extensions>
</trkpt>
<trkpt lat="31.244607925" lon="34.807193756">
<ele>290.890625</ele>
<time>2013-11-19T08:08:39Z</time>
<speed>6.830000</speed>
<extensions>
<speed>6.8</speed>
<temp>0.00</temp>
<bpm>0</bpm>
<rpm>0.00</rpm>
</extensions>
</trkpt>
<trkpt lat="31.244575500" lon="34.806827545">
<ele>289.078125</ele>
<time>2013-11-19T08:08:44Z</time>
<speed>6.650000</speed>
<extensions>
<speed>6.7</speed>
<temp>0.00</temp>
<bpm>0</bpm>
<rpm>0.00</rpm>
</extensions>
</trkpt>
<trkpt lat="31.244571686" lon="34.806472778">
<ele>288.890625</ele>
<time>2013-11-19T08:08:49Z</time>
<speed>7.360000</speed>
<extensions>
<speed>7.4</speed>
<temp>0.00</temp>
<bpm>0</bpm>
<rpm>0.00</rpm>
</extensions>
</trkpt>
<trkpt lat="31.244638443" lon="34.806064606">
<ele>286.789063</ele>
<time>2013-11-19T08:08:54Z</time>
<speed>7.380000</speed>
<extensions>
<speed>7.4</speed>
<temp>0.00</temp>
<bpm>0</bpm>
<rpm>0.00</rpm>
</extensions>
</trkpt>
<trkpt lat="31.244739532" lon="34.805675507">
<ele>286.140625</ele>
<time>2013-11-19T08:08:59Z</time>
<speed>7.710000</speed>
<extensions>
<speed>7.7</speed>
<temp>0.00</temp>
<bpm>0</bpm>
<rpm>0.00</rpm>
</extensions>
</trkpt>
<trkpt lat="31.244844437" lon="34.805389404">
<ele>285.023438</ele>
<time>2013-11-19T08:09:04Z</time>
<speed>3.460000</speed>
<extensions>
<speed>3.5</speed>
<temp>0.00</temp>
<bpm>0</bpm>
<rpm>0.00</rpm>
</extensions>
</trkpt>
<trkpt lat="31.244880676" lon="34.805316925">
<ele>286.007813</ele>
<time>2013-11-19T08:09:09Z</time>
<speed>1.210000</speed>
<extensions>
<speed>1.2</speed>
<temp>0.00</temp>
<bpm>0</bpm>
<rpm>0.00</rpm>
</extensions>
</trkpt>
<trkpt lat="31.244956970" lon="34.805236816">
<ele>285.171875</ele>
<time>2013-11-19T08:09:14Z</time>
<speed>3.760000</speed>
<extensions>
<speed>3.8</speed>
<temp>0.00</temp>
<bpm>0</bpm>
<rpm>0.00</rpm>
</extensions>
</trkpt>
<trkpt lat="31.245128632" lon="34.805057526">
<ele>284.023438</ele>
<time>2013-11-19T08:09:19Z</time>
<speed>5.770000</speed>
<extensions>
<speed>5.8</speed>
<temp>0.00</temp>
<bpm>0</bpm>
<rpm>0.00</rpm>
</extensions>
</trkpt>
<trkpt lat="31.245353699" lon="34.804855347">
<ele>282.101563</ele>
<time>2013-11-19T08:09:24Z</time>
<speed>6.290000</speed>
<extensions>
<speed>6.3</speed>
<temp>0.00</temp>
<bpm>0</bpm>
<rpm>0.00</rpm>
</extensions>
</trkpt>
<trkpt lat="31.245586395" lon="34.804702759">
<ele>282.312500</ele>
<time>2013-11-19T08:09:29Z</time>
<speed>5.860000</speed>
<extensions>
<speed>5.9</speed>
<temp>0.00</temp>
<bpm>0</bpm>
<rpm>0.00</rpm>
</extensions>
</trkpt>
<trkpt lat="31.245809555" lon="34.804576874">
<ele>284.468750</ele>
<time>2013-11-19T08:09:34Z</time>
<speed>5.200000</speed>
<extensions>
<speed>5.2</speed>
<temp>0.00</temp>
<bpm>0</bpm>
<rpm>0.00</rpm>
</extensions>
</trkpt>
<trkpt lat="31.246000290" lon="34.804473877">
<ele>287.968750</ele>
<time>2013-11-19T08:09:39Z</time>
<speed>4.280000</speed>
<extensions>
<speed>4.3</speed>
<temp>0.00</temp>
<bpm>0</bpm>
<rpm>0.00</rpm>
</extensions>
</trkpt>
<trkpt lat="31.246118546" lon="34.804378510">
<ele>292.640625</ele>
<time>2013-11-19T08:09:44Z</time>
<speed>3.100000</speed>
<extensions>
<speed>3.1</speed>
<temp>0.00</temp>
<bpm>0</bpm>
<rpm>0.00</rpm>
</extensions>
</trkpt>
<trkpt lat="31.246282578" lon="34.804336548">
<ele>292.554688</ele>
<time>2013-11-19T08:09:49Z</time>
<speed>3.830000</speed>
<extensions>
<speed>3.8</speed>
<temp>0.00</temp>
<bpm>0</bpm>
<rpm>0.00</rpm>
</extensions>
</trkpt>
<trkpt lat="31.246463776" lon="34.804279327">
<ele>292.296875</ele>
<time>2013-11-19T08:09:54Z</time>
<speed>4.150000</speed>
<extensions>
<speed>4.1</speed>
<temp>0.00</temp>
<bpm>0</bpm>
<rpm>0.00</rpm>
</extensions>
</trkpt>
<trkpt lat="31.246641159" lon="34.804172516">
<ele>296.265625</ele>
<time>2013-11-19T08:09:59Z</time>
<speed>4.480000</speed>
<extensions>
<speed>4.5</speed>
<temp>0.00</temp>
<bpm>0</bpm>
<rpm>0.00</rpm>
</extensions>
</trkpt>
<trkpt lat="31.246841431" lon="34.804035187">
<ele>300.460938</ele>
<time>2013-11-19T08:10:04Z</time>
<speed>4.480000</speed>
<extensions>
<speed>4.5</speed>
<temp>0.00</temp>
<bpm>0</bpm>
<rpm>0.00</rpm>
</extensions>
</trkpt>
<trkpt lat="31.247064590" lon="34.803852081">
<ele>304.070313</ele>
<time>2013-11-19T08:10:09Z</time>
<speed>4.990000</speed>
<extensions>
<speed>5.0</speed>
<temp>0.00</temp>
<bpm>0</bpm>
<rpm>0.00</rpm>
</extensions>
</trkpt>
<trkpt lat="31.247299194" lon="34.803684235">
<ele>302.593750</ele>
<time>2013-11-19T08:10:14Z</time>
<speed>5.120000</speed>
<extensions>
<speed>5.1</speed>
<temp>0.00</temp>
<bpm>0</bpm>
<rpm>0.00</rpm>
</extensions>
</trkpt>
<trkpt lat="31.247524261" lon="34.803520203">
<ele>298.750000</ele>
<time>2013-11-19T08:10:19Z</time>
<speed>4.650000</speed>
<extensions>
<speed>4.6</speed>
<temp>0.00</temp>
<bpm>0</bpm>
<rpm>0.00</rpm>
</extensions>
</trkpt>
<trkpt lat="31.247674942" lon="34.803352356">
<ele>299.976563</ele>
<time>2013-11-19T08:10:24Z</time>
<speed>2.230000</speed>
<extensions>
<speed>2.2</speed>
<temp>0.00</temp>
<bpm>0</bpm>
<rpm>0.00</rpm>
</extensions>
</trkpt>
<trkpt lat="31.247714996" lon="34.803321838">
<ele>299.242188</ele>
<time>2013-11-19T08:10:29Z</time>
<speed>0.060000</speed>
<extensions>
<speed>0.1</speed>
<temp>0.00</temp>
<bpm>0</bpm>
<rpm>0.00</rpm>
</extensions>
</trkpt>
<trkpt lat="31.247713089" lon="34.803325653">
<ele>299.218750</ele>
<time>2013-11-19T08:10:34Z</time>
<extensions>
<speed>0.0</speed>
<temp>0.00</temp>
<bpm>0</bpm>
<rpm>0.00</rpm>
</extensions>
</trkpt>
<trkpt lat="31.247713089" lon="34.803325653">
<ele>299.156250</ele>
<time>2013-11-19T08:10:39Z</time>
<speed>0.030000</speed>
<extensions>
<speed>0.0</speed>
<temp>0.00</temp>
<bpm>0</bpm>
<rpm>0.00</rpm>
</extensions>
</trkpt>
<trkpt lat="31.247713089" lon="34.803325653">
<ele>299.125000</ele>
<time>2013-11-19T08:10:44Z</time>
<speed>0.030000</speed>
<extensions>
<speed>0.0</speed>
<temp>0.00</temp>
<bpm>0</bpm>
<rpm>0.00</rpm>
</extensions>
</trkpt>
<trkpt lat="31.247711182" lon="34.803325653">
<ele>299.062500</ele>
<time>2013-11-19T08:10:49Z</time>
<speed>0.040000</speed>
<extensions>
<speed>0.0</speed>
<temp>0.00</temp>
<bpm>0</bpm>
<rpm>0.00</rpm>
</extensions>
</trkpt>
<trkpt lat="31.247711182" lon="34.803325653">
<ele>299.101563</ele>
<time>2013-11-19T08:10:54Z</time>
<speed>0.010000</speed>
<extensions>
<speed>0.0</speed>
<temp>0.00</temp>
<bpm>0</bpm>
<rpm>0.00</rpm>
</extensions>
</trkpt>
<trkpt lat="31.247709274" lon="34.803325653">
<ele>299.140625</ele>
<time>2013-11-19T08:10:59Z</time>
<speed>0.060000</speed>
<extensions>
<speed>0.1</speed>
<temp>0.00</temp>
<bpm>0</bpm>
<rpm>0.00</rpm>
</extensions>
</trkpt>
<trkpt lat="31.247709274" lon="34.803325653">
<ele>299.257813</ele>
<time>2013-11-19T08:11:04Z</time>
<speed>0.030000</speed>
<extensions>
<speed>0.0</speed>
<temp>0.00</temp>
<bpm>0</bpm>
<rpm>0.00</rpm>
</extensions>
</trkpt>
<trkpt lat="31.247709274" lon="34.803329468">
<ele>299.351563</ele>
<time>2013-11-19T08:11:09Z</time>
<speed>0.020000</speed>
<extensions>
<speed>0.0</speed>
<temp>0.00</temp>
<bpm>0</bpm>
<rpm>0.00</rpm>
</extensions>
</trkpt>
<trkpt lat="31.247707367" lon="34.803329468">
<ele>299.468750</ele>
<time>2013-11-19T08:11:14Z</time>
<speed>0.050000</speed>
<extensions>
<speed>0.1</speed>
<temp>0.00</temp>
<bpm>0</bpm>
<rpm>0.00</rpm>
</extensions>
</trkpt>
<trkpt lat="31.247707367" lon="34.803329468">
<ele>299.523438</ele>
<time>2013-11-19T08:11:19Z</time>
<speed>0.010000</speed>
<extensions>
<speed>0.0</speed>
<temp>0.00</temp>
<bpm>0</bpm>
<rpm>0.00</rpm>
</extensions>
</trkpt>
<trkpt lat="31.247707367" lon="34.803329468">
<ele>299.546875</ele>
<time>2013-11-19T08:11:24Z</time>
<extensions>
<speed>0.0</speed>
<temp>0.00</temp>
<bpm>0</bpm>
<rpm>0.00</rpm>
</extensions>
</trkpt>
<trkpt lat="31.247707367" lon="34.803329468">
<ele>299.562500</ele>
<time>2013-11-19T08:11:29Z</time>
<extensions>
<speed>0.0</speed>
<temp>0.00</temp>
<bpm>0</bpm>
<rpm>0.00</rpm>
</extensions>
</trkpt>
<trkpt lat="31.247707367" lon="34.803329468">
<ele>299.578125</ele>
<time>2013-11-19T08:11:34Z</time>
<extensions>
<speed>0.0</speed>
<temp>0.00</temp>
<bpm>0</bpm>
<rpm>0.00</rpm>
</extensions>
</trkpt>
<trkpt lat="31.247705460" lon="34.803329468">
<ele>299.609375</ele>
<time>2013-11-19T08:11:39Z</time>
<speed>0.020000</speed>
<extensions>
<speed>0.0</speed>
<temp>0.00</temp>
<bpm>0</bpm>
<rpm>0.00</rpm>
</extensions>
</trkpt>
<trkpt lat="31.247705460" lon="34.803329468">
<ele>299.640625</ele>
<time>2013-11-19T08:11:44Z</time>
<speed>0.030000</speed>
<extensions>
<speed>0.0</speed>
<temp>0.00</temp>
<bpm>0</bpm>
<rpm>0.00</rpm>
</extensions>
</trkpt>
<trkpt lat="31.247703552" lon="34.803333282">
<ele>299.742188</ele>
<time>2013-11-19T08:11:49Z</time>
<speed>0.040000</speed>
<extensions>
<speed>0.0</speed>
<temp>0.00</temp>
<bpm>0</bpm>
<rpm>0.00</rpm>
</extensions>
</trkpt>
<trkpt lat="31.247701645" lon="34.803333282">
<ele>299.937500</ele>
<time>2013-11-19T08:11:54Z</time>
<speed>0.030000</speed>
<extensions>
<speed>0.0</speed>
<temp>0.00</temp>
<bpm>0</bpm>
<rpm>0.00</rpm>
</extensions>
</trkpt>
<trkpt lat="31.247699738" lon="34.803333282">
<ele>300.171875</ele>
<time>2013-11-19T08:11:59Z</time>
<speed>0.050000</speed>
<extensions>
<speed>0.1</speed>
<temp>0.00</temp>
<bpm>0</bpm>
<rpm>0.00</rpm>
</extensions>
</trkpt>
<trkpt lat="31.247697830" lon="34.803337097">
<ele>300.390625</ele>
<time>2013-11-19T08:12:04Z</time>
<speed>0.050000</speed>
<extensions>
<speed>0.1</speed>
<temp>0.00</temp>
<bpm>0</bpm>
<rpm>0.00</rpm>
</extensions>
</trkpt>
<trkpt lat="31.247695923" lon="34.803337097">
<ele>300.593750</ele>
<time>2013-11-19T08:12:09Z</time>
<speed>0.060000</speed>
<extensions>
<speed>0.1</speed>
<temp>0.00</temp>
<bpm>0</bpm>
<rpm>0.00</rpm>
</extensions>
</trkpt>
<trkpt lat="31.247694016" lon="34.803340912">
<ele>300.789063</ele>
<time>2013-11-19T08:12:14Z</time>
<speed>0.040000</speed>
<extensions>
<speed>0.0</speed>
<temp>0.00</temp>
<bpm>0</bpm>
<rpm>0.00</rpm>
</extensions>
</trkpt>
<trkpt lat="31.247692108" lon="34.803340912">
<ele>300.953125</ele>
<time>2013-11-19T08:12:19Z</time>
<speed>0.050000</speed>
<extensions>
<speed>0.1</speed>
<temp>0.00</temp>
<bpm>0</bpm>
<rpm>0.00</rpm>
</extensions>
</trkpt>
<trkpt lat="31.247690201" lon="34.803344727">
<ele>301.109375</ele>
<time>2013-11-19T08:12:24Z</time>
<speed>0.050000</speed>
<extensions>
<speed>0.1</speed>
<temp>0.00</temp>
<bpm>0</bpm>
<rpm>0.00</rpm>
</extensions>
</trkpt>
<trkpt lat="31.247688293" lon="34.803344727">
<ele>301.304688</ele>
<time>2013-11-19T08:12:29Z</time>
<speed>0.050000</speed>
<extensions>
<speed>0.1</speed>
<temp>0.00</temp>
<bpm>0</bpm>
<rpm>0.00</rpm>
</extensions>
</trkpt>
<trkpt lat="31.247686386" lon="34.803344727">
<ele>301.531250</ele>
<time>2013-11-19T08:12:34Z</time>
<speed>0.050000</speed>
<extensions>
<speed>0.1</speed>
<temp>0.00</temp>
<bpm>0</bpm>
<rpm>0.00</rpm>
</extensions>
</trkpt>
<trkpt lat="31.247695923" lon="34.803337097">
<ele>302.085938</ele>
<time>2013-11-19T08:12:39Z</time>
<speed>1.270000</speed>
<extensions>
<speed>1.3</speed>
<temp>0.00</temp>
<bpm>0</bpm>
<rpm>0.00</rpm>
</extensions>
</trkpt>
<trkpt lat="31.247743607" lon="34.803272247">
<ele>303.859375</ele>
<time>2013-11-19T08:12:44Z</time>
<speed>1.220000</speed>
<extensions>
<speed>1.2</speed>
<temp>0.00</temp>
<bpm>0</bpm>
<rpm>0.00</rpm>
</extensions>
</trkpt>
<trkpt lat="31.247753143" lon="34.803245544">
<ele>304.203125</ele>
<time>2013-11-19T08:12:49Z</time>
<speed>0.140000</speed>
<extensions>
<speed>0.1</speed>
<temp>0.00</temp>
<bpm>0</bpm>
<rpm>0.00</rpm>
</extensions>
</trkpt>
<trkpt lat="31.247747421" lon="34.803249359">
<ele>305.039063</ele>
<time>2013-11-19T08:12:54Z</time>
<speed>0.100000</speed>
<extensions>
<speed>0.1</speed>
<temp>0.00</temp>
<bpm>0</bpm>
<rpm>0.00</rpm>
</extensions>
</trkpt>
<trkpt lat="31.247749329" lon="34.803237915">
<ele>304.929688</ele>
<time>2013-11-19T08:12:59Z</time>
<speed>1.170000</speed>
<extensions>
<speed>1.2</speed>
<temp>0.00</temp>
<bpm>0</bpm>
<rpm>0.00</rpm>
</extensions>
</trkpt>
<trkpt lat="31.247732162" lon="34.803070068">
<ele>301.976563</ele>
<time>2013-11-19T08:13:04Z</time>
<speed>1.280000</speed>
<extensions>
<speed>1.3</speed>
<temp>0.00</temp>
<bpm>0</bpm>
<rpm>0.00</rpm>
</extensions>
</trkpt>
<trkpt lat="31.247779846" lon="34.803066254">
<ele>300.093750</ele>
<time>2013-11-19T08:13:09Z</time>
<speed>2.260000</speed>
<extensions>
<speed>2.3</speed>
<temp>0.00</temp>
<bpm>0</bpm>
<rpm>0.00</rpm>
</extensions>
</trkpt>
<trkpt lat="31.247756958" lon="34.803195953">
<ele>299.273438</ele>
<time>2013-11-19T08:13:14Z</time>
<speed>2.350000</speed>
<extensions>
<speed>2.4</speed>
<temp>0.00</temp>
<bpm>0</bpm>
<rpm>0.00</rpm>
</extensions>
</trkpt>
<trkpt lat="31.247814178" lon="34.803363800">
<ele>297.460938</ele>
<time>2013-11-19T08:13:19Z</time>
<speed>2.530000</speed>
<extensions>
<speed>2.5</speed>
<temp>0.00</temp>
<bpm>0</bpm>
<rpm>0.00</rpm>
</extensions>
</trkpt>
<trkpt lat="31.247753143" lon="34.803462982">
<ele>296.835938</ele>
<time>2013-11-19T08:13:24Z</time>
<speed>1.830000</speed>
<extensions>
<speed>1.8</speed>
<temp>0.00</temp>
<bpm>0</bpm>
<rpm>0.00</rpm>
</extensions>
</trkpt>
<trkpt lat="31.247688293" lon="34.803489685">
<ele>298.734375</ele>
<time>2013-11-19T08:13:29Z</time>
<speed>0.240000</speed>
<extensions>
<speed>0.2</speed>
<temp>0.00</temp>
<bpm>0</bpm>
<rpm>0.00</rpm>
</extensions>
</trkpt>
<trkpt lat="31.247688293" lon="34.803489685">
<ele>299.312500</ele>
<time>2013-11-19T08:13:34Z</time>
<extensions>
<speed>0.0</speed>
<temp>0.00</temp>
<bpm>0</bpm>
<rpm>0.00</rpm>
</extensions>
</trkpt>
<trkpt lat="31.247690201" lon="34.803489685">
<ele>300.414063</ele>
<time>2013-11-19T08:13:39Z</time>
<speed>0.020000</speed>
<extensions>
<speed>0.0</speed>
<temp>0.00</temp>
<bpm>0</bpm>
<rpm>0.00</rpm>
</extensions>
</trkpt>
<trkpt lat="31.247690201" lon="34.803489685">
<ele>301.460938</ele>
<time>2013-11-19T08:13:44Z</time>
<speed>0.040000</speed>
<extensions>
<speed>0.0</speed>
<temp>0.00</temp>
<bpm>0</bpm>
<rpm>0.00</rpm>
</extensions>
</trkpt>
<trkpt lat="31.247692108" lon="34.803482056">
<ele>302.546875</ele>
<time>2013-11-19T08:13:49Z</time>
<speed>0.200000</speed>
<extensions>
<speed>0.2</speed>
<temp>0.00</temp>
<bpm>0</bpm>
<rpm>0.00</rpm>
</extensions>
</trkpt>
<trkpt lat="31.247686386" lon="34.803478241">
<ele>303.625000</ele>
<time>2013-11-19T08:13:54Z</time>
<speed>1.200000</speed>
<extensions>
<speed>1.2</speed>
<temp>0.00</temp>
<bpm>0</bpm>
<rpm>0.00</rpm>
</extensions>
</trkpt>
<trkpt lat="31.247518539" lon="34.803562164">
<ele>303.859375</ele>
<time>2013-11-19T08:13:59Z</time>
<speed>5.240000</speed>
<extensions>
<speed>5.2</speed>
<temp>0.00</temp>
<bpm>0</bpm>
<rpm>0.00</rpm>
</extensions>
</trkpt>
<trkpt lat="31.247272491" lon="34.803688049">
<ele>304.796875</ele>
<time>2013-11-19T08:14:04Z</time>
<speed>5.180000</speed>
<extensions>
<speed>5.2</speed>
<temp>0.00</temp>
<bpm>0</bpm>
<rpm>0.00</rpm>
</extensions>
</trkpt>
<trkpt lat="31.247068405" lon="34.803817749">
<ele>307.265625</ele>
<time>2013-11-19T08:14:09Z</time>
<speed>4.890000</speed>
<extensions>
<speed>4.9</speed>
<temp>0.00</temp>
<bpm>0</bpm>
<rpm>0.00</rpm>
</extensions>
</trkpt>
<trkpt lat="31.246847153" lon="34.803939819">
<ele>308.414063</ele>
<time>2013-11-19T08:14:14Z</time>
<speed>5.900000</speed>
<extensions>
<speed>5.9</speed>
<temp>0.00</temp>
<bpm>0</bpm>
<rpm>0.00</rpm>
</extensions>
</trkpt>
<trkpt lat="31.246583939" lon="34.804050446">
<ele>309.382813</ele>
<time>2013-11-19T08:14:19Z</time>
<speed>6.200000</speed>
<extensions>
<speed>6.2</speed>
<temp>0.00</temp>
<bpm>0</bpm>
<rpm>0.00</rpm>
</extensions>
</trkpt>
<trkpt lat="31.246286392" lon="34.804008484">
<ele>311.937500</ele>
<time>2013-11-19T08:14:24Z</time>
<speed>4.560000</speed>
<extensions>
<speed>4.6</speed>
<temp>0.00</temp>
<bpm>0</bpm>
<rpm>0.00</rpm>
</extensions>
</trkpt>
<trkpt lat="31.246118546" lon="34.804080963">
<ele>315.359375</ele>
<time>2013-11-19T08:14:29Z</time>
<speed>4.510000</speed>
<extensions>
<speed>4.5</speed>
<temp>0.00</temp>
<bpm>0</bpm>
<rpm>0.00</rpm>
</extensions>
</trkpt>
<trkpt lat="31.245908737" lon="34.804153442">
<ele>320.328125</ele>
<time>2013-11-19T08:14:34Z</time>
<speed>4.390000</speed>
<extensions>
<speed>4.4</speed>
<temp>0.00</temp>
<bpm>0</bpm>
<rpm>0.00</rpm>
</extensions>
</trkpt>
<trkpt lat="31.245740891" lon="34.804248810">
<ele>324.570313</ele>
<time>2013-11-19T08:14:39Z</time>
<speed>2.890000</speed>
<extensions>
<speed>2.9</speed>
<temp>0.00</temp>
<bpm>0</bpm>
<rpm>0.00</rpm>
</extensions>
</trkpt>
<trkpt lat="31.245609283" lon="34.804344177">
<ele>332.671875</ele>
<time>2013-11-19T08:14:44Z</time>
<speed>3.630000</speed>
<extensions>
<speed>3.6</speed>
<temp>0.00</temp>
<bpm>0</bpm>
<rpm>0.00</rpm>
</extensions>
</trkpt>
<trkpt lat="31.245323181" lon="34.804355621">
<ele>339.507813</ele>
<time>2013-11-19T08:14:49Z</time>
<speed>3.520000</speed>
<extensions>
<speed>3.5</speed>
<temp>0.00</temp>
<bpm>0</bpm>
<rpm>0.00</rpm>
</extensions>
</trkpt>
<trkpt lat="31.245132446" lon="34.804378510">
<ele>346.000000</ele>
<time>2013-11-19T08:14:54Z</time>
<speed>4.080000</speed>
<extensions>
<speed>4.1</speed>
<temp>0.00</temp>
<bpm>0</bpm>
<rpm>0.00</rpm>
</extensions>
</trkpt>
<trkpt lat="31.244979858" lon="34.804176331">
<ele>346.789063</ele>
<time>2013-11-19T08:14:59Z</time>
<speed>5.570000</speed>
<extensions>
<speed>5.6</speed>
<temp>0.00</temp>
<bpm>0</bpm>
<rpm>0.00</rpm>
</extensions>
</trkpt>
<trkpt lat="31.244789124" lon="34.803951263">
<ele>349.789063</ele>
<time>2013-11-19T08:15:04Z</time>
<speed>5.620000</speed>
<extensions>
<speed>5.6</speed>
<temp>0.00</temp>
<bpm>0</bpm>
<rpm>0.00</rpm>
</extensions>
</trkpt>
<trkpt lat="31.244571686" lon="34.803699493">
<ele>349.687500</ele>
<time>2013-11-19T08:15:09Z</time>
<speed>6.380000</speed>
<extensions>
<speed>6.4</speed>
<temp>0.00</temp>
<bpm>0</bpm>
<rpm>0.00</rpm>
</extensions>
</trkpt>
<trkpt lat="31.244358063" lon="34.803642273">
<ele>337.828125</ele>
<time>2013-11-19T08:15:14Z</time>
<speed>6.280000</speed>
<extensions>
<speed>6.3</speed>
<temp>0.00</temp>
<bpm>0</bpm>
<rpm>0.00</rpm>
</extensions>
</trkpt>
<trkpt lat="31.244157791" lon="34.803382874">
<ele>332.906250</ele>
<time>2013-11-19T08:15:19Z</time>
<speed>6.050000</speed>
<extensions>
<speed>6.1</speed>
<temp>0.00</temp>
<bpm>0</bpm>
<rpm>0.00</rpm>
</extensions>
</trkpt>
<trkpt lat="31.244016647" lon="34.803089142">
<ele>325.023438</ele>
<time>2013-11-19T08:15:24Z</time>
<speed>6.070000</speed>
<extensions>
<speed>6.1</speed>
<temp>0.00</temp>
<bpm>0</bpm>
<rpm>0.00</rpm>
</extensions>
</trkpt>
<trkpt lat="31.243757248" lon="34.803020477">
<ele>314.007813</ele>
<time>2013-11-19T08:15:29Z</time>
<speed>5.540000</speed>
<extensions>
<speed>5.5</speed>
<temp>0.00</temp>
<bpm>0</bpm>
<rpm>0.00</rpm>
</extensions>
</trkpt>
<trkpt lat="31.243499756" lon="34.802921295">
<ele>308.093750</ele>
<time>2013-11-19T08:15:34Z</time>
<speed>5.650000</speed>
<extensions>
<speed>5.7</speed>
<temp>0.00</temp>
<bpm>0</bpm>
<rpm>0.00</rpm>
</extensions>
</trkpt>
<trkpt lat="31.243345261" lon="34.802768707">
<ele>302.273438</ele>
<time>2013-11-19T08:15:39Z</time>
<speed>2.720000</speed>
<extensions>
<speed>2.7</speed>
<temp>0.00</temp>
<bpm>0</bpm>
<rpm>0.00</rpm>
</extensions>
</trkpt>
<trkpt lat="31.243196487" lon="34.802642822">
<ele>302.390625</ele>
<time>2013-11-19T08:15:44Z</time>
<speed>2.800000</speed>
<extensions>
<speed>2.8</speed>
<temp>0.00</temp>
<bpm>0</bpm>
<rpm>0.00</rpm>
</extensions>
</trkpt>
<trkpt lat="31.243053436" lon="34.802539825">
<ele>304.875000</ele>
<time>2013-11-19T08:15:49Z</time>
<speed>3.110000</speed>
<extensions>
<speed>3.1</speed>
<temp>0.00</temp>
<bpm>0</bpm>
<rpm>0.00</rpm>
</extensions>
</trkpt>
<trkpt lat="31.242912292" lon="34.802444458">
<ele>304.625000</ele>
<time>2013-11-19T08:15:54Z</time>
<speed>2.610000</speed>
<extensions>
<speed>2.6</speed>
<temp>0.00</temp>
<bpm>0</bpm>
<rpm>0.00</rpm>
</extensions>
</trkpt>
<trkpt lat="31.242853165" lon="34.802398682">
<ele>305.914063</ele>
<time>2013-11-19T08:15:59Z</time>
<speed>0.420000</speed>
<extensions>
<speed>0.4</speed>
<temp>0.00</temp>
<bpm>0</bpm>
<rpm>0.00</rpm>
</extensions>
</trkpt>
<trkpt lat="31.242874146" lon="34.802398682">
<ele>305.867188</ele>
<time>2013-11-19T08:16:04Z</time>
<speed>0.950000</speed>
<extensions>
<speed>1.0</speed>
<temp>0.00</temp>
<bpm>0</bpm>
<rpm>0.00</rpm>
</extensions>
</trkpt>
<trkpt lat="31.242853165" lon="34.802364349">
<ele>307.984375</ele>
<time>2013-11-19T08:16:09Z</time>
<speed>1.710000</speed>
<extensions>
<speed>1.7</speed>
<temp>0.00</temp>
<bpm>0</bpm>
<rpm>0.00</rpm>
</extensions>
</trkpt>
<trkpt lat="31.242685318" lon="34.802242279">
<ele>306.507813</ele>
<time>2013-11-19T08:16:14Z</time>
<speed>4.420000</speed>
<extensions>
<speed>4.4</speed>
<temp>0.00</temp>
<bpm>0</bpm>
<rpm>0.00</rpm>
</extensions>
</trkpt>
<trkpt lat="31.242477417" lon="34.802101135">
<ele>306.742188</ele>
<time>2013-11-19T08:16:19Z</time>
<speed>5.290000</speed>
<extensions>
<speed>5.3</speed>
<temp>0.00</temp>
<bpm>0</bpm>
<rpm>0.00</rpm>
</extensions>
</trkpt>
<trkpt lat="31.242200851" lon="34.801906586">
<ele>304.601563</ele>
<time>2013-11-19T08:16:24Z</time>
<speed>6.960000</speed>
<extensions>
<speed>7.0</speed>
<temp>0.00</temp>
<bpm>0</bpm>
<rpm>0.00</rpm>
</extensions>
</trkpt>
<trkpt lat="31.241956711" lon="34.801734924">
<ele>300.468750</ele>
<time>2013-11-19T08:16:29Z</time>
<speed>6.550000</speed>
<extensions>
<speed>6.5</speed>
<temp>0.00</temp>
<bpm>0</bpm>
<rpm>0.00</rpm>
</extensions>
</trkpt>
<trkpt lat="31.241706848" lon="34.801540375">
<ele>298.453125</ele>
<time>2013-11-19T08:16:34Z</time>
<speed>7.120000</speed>
<extensions>
<speed>7.1</speed>
<temp>0.00</temp>
<bpm>0</bpm>
<rpm>0.00</rpm>
</extensions>
</trkpt>
<trkpt lat="31.241432190" lon="34.801292419">
<ele>297.875000</ele>
<time>2013-11-19T08:16:39Z</time>
<speed>5.380000</speed>
<extensions>
<speed>5.4</speed>
<temp>0.00</temp>
<bpm>0</bpm>
<rpm>0.00</rpm>
</extensions>
</trkpt>
<trkpt lat="31.241353989" lon="34.801197052">
<ele>294.929688</ele>
<time>2013-11-19T08:16:44Z</time>
<speed>0.740000</speed>
<extensions>
<speed>0.7</speed>
<temp>0.00</temp>
<bpm>0</bpm>
<rpm>0.00</rpm>
</extensions>
</trkpt>
<trkpt lat="31.241331100" lon="34.801177979">
<ele>293.898438</ele>
<time>2013-11-19T08:16:49Z</time>
<speed>0.120000</speed>
<extensions>
<speed>0.1</speed>
<temp>0.00</temp>
<bpm>0</bpm>
<rpm>0.00</rpm>
</extensions>
</trkpt>
<trkpt lat="31.241325378" lon="34.801177979">
<ele>293.781250</ele>
<time>2013-11-19T08:16:54Z</time>
<speed>0.120000</speed>
<extensions>
<speed>0.1</speed>
<temp>0.00</temp>
<bpm>0</bpm>
<rpm>0.00</rpm>
</extensions>
</trkpt>
<trkpt lat="31.241321564" lon="34.801174164">
<ele>293.796875</ele>
<time>2013-11-19T08:16:59Z</time>
<speed>0.030000</speed>
<extensions>
<speed>0.0</speed>
<temp>0.00</temp>
<bpm>0</bpm>
<rpm>0.00</rpm>
</extensions>
</trkpt>
<trkpt lat="31.241294861" lon="34.801136017">
<ele>293.437500</ele>
<time>2013-11-19T08:17:04Z</time>
<speed>2.320000</speed>
<extensions>
<speed>2.3</speed>
<temp>0.00</temp>
<bpm>0</bpm>
<rpm>0.00</rpm>
</extensions>
</trkpt>
<trkpt lat="31.241178513" lon="34.800991058">
<ele>292.023438</ele>
<time>2013-11-19T08:17:09Z</time>
<speed>4.120000</speed>
<extensions>
<speed>4.1</speed>
<temp>0.00</temp>
<bpm>0</bpm>
<rpm>0.00</rpm>
</extensions>
</trkpt>
<trkpt lat="31.241010666" lon="34.800762177">
<ele>291.023438</ele>
<time>2013-11-19T08:17:14Z</time>
<speed>5.980000</speed>
<extensions>
<speed>6.0</speed>
<temp>0.00</temp>
<bpm>0</bpm>
<rpm>0.00</rpm>
</extensions>
</trkpt>
<trkpt lat="31.240806580" lon="34.800502777">
<ele>291.937500</ele>
<time>2013-11-19T08:17:19Z</time>
<speed>6.040000</speed>
<extensions>
<speed>6.0</speed>
<temp>0.00</temp>
<bpm>0</bpm>
<rpm>0.00</rpm>
</extensions>
</trkpt>
<trkpt lat="31.240655899" lon="34.800273895">
<ele>288.835938</ele>
<time>2013-11-19T08:17:24Z</time>
<speed>5.930000</speed>
<extensions>
<speed>5.9</speed>
<temp>0.00</temp>
<bpm>0</bpm>
<rpm>0.00</rpm>
</extensions>
</trkpt>
<trkpt lat="31.240447998" lon="34.799995422">
<ele>287.671875</ele>
<time>2013-11-19T08:17:29Z</time>
<speed>6.380000</speed>
<extensions>
<speed>6.4</speed>
<temp>0.00</temp>
<bpm>0</bpm>
<rpm>0.00</rpm>
</extensions>
</trkpt>
<trkpt lat="31.240310669" lon="34.799598694">
<ele>286.867188</ele>
<time>2013-11-19T08:17:34Z</time>
<speed>6.780000</speed>
<extensions>
<speed>6.8</speed>
<temp>0.00</temp>
<bpm>0</bpm>
<rpm>0.00</rpm>
</extensions>
</trkpt>
<trkpt lat="31.240165710" lon="34.799213409">
<ele>284.914063</ele>
<time>2013-11-19T08:17:39Z</time>
<speed>6.790000</speed>
<extensions>
<speed>6.8</speed>
<temp>0.00</temp>
<bpm>0</bpm>
<rpm>0.00</rpm>
</extensions>
</trkpt>
<trkpt lat="31.240032196" lon="34.798748016">
<ele>281.757813</ele>
<time>2013-11-19T08:17:44Z</time>
<speed>6.780000</speed>
<extensions>
<speed>6.8</speed>
<temp>0.00</temp>
<bpm>0</bpm>
<rpm>0.00</rpm>
</extensions>
</trkpt>
<trkpt lat="31.239889145" lon="34.798439026">
<ele>281.828125</ele>
<time>2013-11-19T08:17:49Z</time>
<speed>6.260000</speed>
<extensions>
<speed>6.3</speed>
<temp>0.00</temp>
<bpm>0</bpm>
<rpm>0.00</rpm>
</extensions>
</trkpt>
<trkpt lat="31.239803314" lon="34.798145294">
<ele>279.000000</ele>
<time>2013-11-19T08:17:54Z</time>
<speed>5.820000</speed>
<extensions>
<speed>5.8</speed>
<temp>0.00</temp>
<bpm>0</bpm>
<rpm>0.00</rpm>
</extensions>
</trkpt>
<trkpt lat="31.239744186" lon="34.797828674">
<ele>277.335938</ele>
<time>2013-11-19T08:17:59Z</time>
<speed>6.990000</speed>
<extensions>
<speed>7.0</speed>
<temp>0.00</temp>
<bpm>0</bpm>
<rpm>0.00</rpm>
</extensions>
</trkpt>
<trkpt lat="31.239637375" lon="34.797477722">
<ele>275.023438</ele>
<time>2013-11-19T08:18:04Z</time>
<speed>7.070000</speed>
<extensions>
<speed>7.1</speed>
<temp>0.00</temp>
<bpm>0</bpm>
<rpm>0.00</rpm>
</extensions>
</trkpt>
<trkpt lat="31.239509583" lon="34.797096252">
<ele>272.750000</ele>
<time>2013-11-19T08:18:09Z</time>
<speed>7.730000</speed>
<extensions>
<speed>7.7</speed>
<temp>0.00</temp>
<bpm>0</bpm>
<rpm>0.00</rpm>
</extensions>
</trkpt>
<trkpt lat="31.239353180" lon="34.796764374">
<ele>273.281250</ele>
<time>2013-11-19T08:18:14Z</time>
<speed>4.570000</speed>
<extensions>
<speed>4.6</speed>
<temp>0.00</temp>
<bpm>0</bpm>
<rpm>0.00</rpm>
</extensions>
</trkpt>
<trkpt lat="31.239154816" lon="34.796539307">
<ele>268.078125</ele>
<time>2013-11-19T08:18:19Z</time>
<speed>3.500000</speed>
<extensions>
<speed>3.5</speed>
<temp>0.00</temp>
<bpm>0</bpm>
<rpm>0.00</rpm>
</extensions>
</trkpt>
<trkpt lat="31.239007950" lon="34.796276093">
<ele>271.578125</ele>
<time>2013-11-19T08:18:24Z</time>
<speed>5.930000</speed>
<extensions>
<speed>5.9</speed>
<temp>0.00</temp>
<bpm>0</bpm>
<rpm>0.00</rpm>
</extensions>
</trkpt>
<trkpt lat="31.238853455" lon="34.795932770">
<ele>270.015625</ele>
<time>2013-11-19T08:18:29Z</time>
<speed>6.940000</speed>
<extensions>
<speed>6.9</speed>
<temp>0.00</temp>
<bpm>0</bpm>
<rpm>0.00</rpm>
</extensions>
</trkpt>
<trkpt lat="31.238698959" lon="34.795555115">
<ele>269.109375</ele>
<time>2013-11-19T08:18:34Z</time>
<speed>5.990000</speed>
<extensions>
<speed>6.0</speed>
<temp>0.00</temp>
<bpm>0</bpm>
<rpm>0.00</rpm>
</extensions>
</trkpt>
<trkpt lat="31.238681793" lon="34.795433044">
<ele>268.226563</ele>
<time>2013-11-19T08:18:39Z</time>
<speed>0.130000</speed>
<extensions>
<speed>0.1</speed>
<temp>0.00</temp>
<bpm>0</bpm>
<rpm>0.00</rpm>
</extensions>
</trkpt>
<trkpt lat="31.238683701" lon="34.795436859">
<ele>268.632813</ele>
<time>2013-11-19T08:18:44Z</time>
<speed>1.030000</speed>
<extensions>
<speed>1.0</speed>
<temp>0.00</temp>
<bpm>0</bpm>
<rpm>0.00</rpm>
</extensions>
</trkpt>
<trkpt lat="31.238664627" lon="34.795284271">
<ele>268.960938</ele>
<time>2013-11-19T08:18:49Z</time>
<speed>3.880000</speed>
<extensions>
<speed>3.9</speed>
<temp>0.00</temp>
<bpm>0</bpm>
<rpm>0.00</rpm>
</extensions>
</trkpt>
<trkpt lat="31.238582611" lon="34.795032501">
<ele>270.265625</ele>
<time>2013-11-19T08:18:54Z</time>
<speed>4.940000</speed>
<extensions>
<speed>4.9</speed>
<temp>0.00</temp>
<bpm>0</bpm>
<rpm>0.00</rpm>
</extensions>
</trkpt>
<trkpt lat="31.238471985" lon="34.794795990">
<ele>271.250000</ele>
<time>2013-11-19T08:18:59Z</time>
<speed>3.650000</speed>
<extensions>
<speed>3.7</speed>
<temp>0.00</temp>
<bpm>0</bpm>
<rpm>0.00</rpm>
</extensions>
</trkpt>
<trkpt lat="31.238407135" lon="34.794601440">
<ele>273.546875</ele>
<time>2013-11-19T08:19:04Z</time>
<speed>3.470000</speed>
<extensions>
<speed>3.5</speed>
<temp>0.00</temp>
<bpm>0</bpm>
<rpm>0.00</rpm>
</extensions>
</trkpt>
<trkpt lat="31.238271713" lon="34.794376373">
<ele>274.585938</ele>
<time>2013-11-19T08:19:09Z</time>
<speed>2.360000</speed>
<extensions>
<speed>2.4</speed>
<temp>0.00</temp>
<bpm>0</bpm>
<rpm>0.00</rpm>
</extensions>
</trkpt>
<trkpt lat="31.238256454" lon="34.794342041">
<ele>274.359375</ele>
<time>2013-11-19T08:19:14Z</time>
<speed>0.080000</speed>
<extensions>
<speed>0.1</speed>
<temp>0.00</temp>
<bpm>0</bpm>
<rpm>0.00</rpm>
</extensions>
</trkpt>
<trkpt lat="31.238258362" lon="34.794342041">
<ele>274.492188</ele>
<time>2013-11-19T08:19:19Z</time>
<speed>0.100000</speed>
<extensions>
<speed>0.1</speed>
<temp>0.00</temp>
<bpm>0</bpm>
<rpm>0.00</rpm>
</extensions>
</trkpt>
<trkpt lat="31.238260269" lon="34.794334412">
<ele>274.429688</ele>
<time>2013-11-19T08:19:24Z</time>
<speed>0.160000</speed>
<extensions>
<speed>0.2</speed>
<temp>0.00</temp>
<bpm>0</bpm>
<rpm>0.00</rpm>
</extensions>
</trkpt>
<trkpt lat="31.238264084" lon="34.794330597">
<ele>274.445313</ele>
<time>2013-11-19T08:19:29Z</time>
<speed>0.130000</speed>
<extensions>
<speed>0.1</speed>
<temp>0.00</temp>
<bpm>0</bpm>
<rpm>0.00</rpm>
</extensions>
</trkpt>
<trkpt lat="31.238265991" lon="34.794326782">
<ele>274.484375</ele>
<time>2013-11-19T08:19:34Z</time>
<speed>0.060000</speed>
<extensions>
<speed>0.1</speed>
<temp>0.00</temp>
<bpm>0</bpm>
<rpm>0.00</rpm>
</extensions>
</trkpt>
<trkpt lat="31.238262177" lon="34.794330597">
<ele>274.570313</ele>
<time>2013-11-19T08:19:39Z</time>
<speed>0.110000</speed>
<extensions>
<speed>0.1</speed>
<temp>0.00</temp>
<bpm>0</bpm>
<rpm>0.00</rpm>
</extensions>
</trkpt>
<trkpt lat="31.238256454" lon="34.794334412">
<ele>274.640625</ele>
<time>2013-11-19T08:19:44Z</time>
<speed>0.080000</speed>
<extensions>
<speed>0.1</speed>
<temp>0.00</temp>
<bpm>0</bpm>
<rpm>0.00</rpm>
</extensions>
</trkpt>
<trkpt lat="31.238252640" lon="34.794338226">
<ele>274.656250</ele>
<time>2013-11-19T08:19:49Z</time>
<speed>0.100000</speed>
<extensions>
<speed>0.1</speed>
<temp>0.00</temp>
<bpm>0</bpm>
<rpm>0.00</rpm>
</extensions>
</trkpt>
<trkpt lat="31.238246918" lon="34.794342041">
<ele>274.671875</ele>
<time>2013-11-19T08:19:54Z</time>
<speed>0.080000</speed>
<extensions>
<speed>0.1</speed>
<temp>0.00</temp>
<bpm>0</bpm>
<rpm>0.00</rpm>
</extensions>
</trkpt>
<trkpt lat="31.238248825" lon="34.794338226">
<ele>274.750000</ele>
<time>2013-11-19T08:19:59Z</time>
<speed>0.080000</speed>
<extensions>
<speed>0.1</speed>
<temp>0.00</temp>
<bpm>0</bpm>
<rpm>0.00</rpm>
</extensions>
</trkpt>
<trkpt lat="31.238250732" lon="34.794334412">
<ele>274.835938</ele>
<time>2013-11-19T08:20:04Z</time>
<speed>0.150000</speed>
<extensions>
<speed>0.2</speed>
<temp>0.00</temp>
<bpm>0</bpm>
<rpm>0.00</rpm>
</extensions>
</trkpt>
<trkpt lat="31.238254547" lon="34.794334412">
<ele>274.984375</ele>
<time>2013-11-19T08:20:09Z</time>
<speed>0.020000</speed>
<extensions>
<speed>0.0</speed>
<temp>0.00</temp>
<bpm>0</bpm>
<rpm>0.00</rpm>
</extensions>
</trkpt>
<trkpt lat="31.238256454" lon="34.794330597">
<ele>275.203125</ele>
<time>2013-11-19T08:20:14Z</time>
<speed>0.040000</speed>
<extensions>
<speed>0.0</speed>
<temp>0.00</temp>
<bpm>0</bpm>
<rpm>0.00</rpm>
</extensions>
</trkpt>
<trkpt lat="31.238258362" lon="34.794330597">
<ele>275.382813</ele>
<time>2013-11-19T08:20:19Z</time>
<speed>0.140000</speed>
<extensions>
<speed>0.1</speed>
<temp>0.00</temp>
<bpm>0</bpm>
<rpm>0.00</rpm>
</extensions>
</trkpt>
<trkpt lat="31.238262177" lon="34.794326782">
<ele>275.515625</ele>
<time>2013-11-19T08:20:24Z</time>
<speed>0.050000</speed>
<extensions>
<speed>0.1</speed>
<temp>0.00</temp>
<bpm>0</bpm>
<rpm>0.00</rpm>
</extensions>
</trkpt>
<trkpt lat="31.238260269" lon="34.794330597">
<ele>275.562500</ele>
<time>2013-11-19T08:20:29Z</time>
<speed>0.010000</speed>
<extensions>
<speed>0.0</speed>
<temp>0.00</temp>
<bpm>0</bpm>
<rpm>0.00</rpm>
</extensions>
</trkpt>
<trkpt lat="31.238262177" lon="34.794330597">
<ele>275.554688</ele>
<time>2013-11-19T08:20:34Z</time>
<speed>0.700000</speed>
<extensions>
<speed>0.7</speed>
<temp>0.00</temp>
<bpm>0</bpm>
<rpm>0.00</rpm>
</extensions>
</trkpt>
<trkpt lat="31.238275528" lon="34.794422150">
<ele>275.406250</ele>
<time>2013-11-19T08:20:39Z</time>
<speed>3.030000</speed>
<extensions>
<speed>3.0</speed>
<temp>0.00</temp>
<bpm>0</bpm>
<rpm>0.00</rpm>
</extensions>
</trkpt>
<trkpt lat="31.238330841" lon="34.794597626">
<ele>275.718750</ele>
<time>2013-11-19T08:20:44Z</time>
<speed>4.410000</speed>
<extensions>
<speed>4.4</speed>
<temp>0.00</temp>
<bpm>0</bpm>
<rpm>0.00</rpm>
</extensions>
</trkpt>
<trkpt lat="31.238412857" lon="34.794830322">
<ele>275.015625</ele>
<time>2013-11-19T08:20:49Z</time>
<speed>4.790000</speed>
<extensions>
<speed>4.8</speed>
<temp>0.00</temp>
<bpm>0</bpm>
<rpm>0.00</rpm>
</extensions>
</trkpt>
<trkpt lat="31.238513947" lon="34.795043945">
<ele>274.929688</ele>
<time>2013-11-19T08:20:54Z</time>
<speed>4.100000</speed>
<extensions>
<speed>4.1</speed>
<temp>0.00</temp>
<bpm>0</bpm>
<rpm>0.00</rpm>
</extensions>
</trkpt>
<trkpt lat="31.238595963" lon="34.795135498">
<ele>275.210938</ele>
<time>2013-11-19T08:20:59Z</time>
<speed>0.430000</speed>
<extensions>
<speed>0.4</speed>
<temp>0.00</temp>
<bpm>0</bpm>
<rpm>0.00</rpm>
</extensions>
</trkpt>
<trkpt lat="31.238574982" lon="34.795188904">
<ele>274.804688</ele>
<time>2013-11-19T08:21:04Z</time>
<speed>2.060000</speed>
<extensions>
<speed>2.1</speed>
<temp>0.00</temp>
<bpm>0</bpm>
<rpm>0.00</rpm>
</extensions>
</trkpt>
<trkpt lat="31.238555908" lon="34.795215607">
<ele>275.179688</ele>
<time>2013-11-19T08:21:09Z</time>
<speed>0.880000</speed>
<extensions>
<speed>0.9</speed>
<temp>0.00</temp>
<bpm>0</bpm>
<rpm>0.00</rpm>
</extensions>
</trkpt>
<trkpt lat="31.238609314" lon="34.795337677">
<ele>275.718750</ele>
<time>2013-11-19T08:21:14Z</time>
<speed>3.740000</speed>
<extensions>
<speed>3.7</speed>
<temp>0.00</temp>
<bpm>0</bpm>
<rpm>0.00</rpm>
</extensions>
</trkpt>
<trkpt lat="31.238716125" lon="34.795478821">
<ele>275.695313</ele>
<time>2013-11-19T08:21:19Z</time>
<speed>3.430000</speed>
<extensions>
<speed>3.4</speed>
<temp>0.00</temp>
<bpm>0</bpm>
<rpm>0.00</rpm>
</extensions>
</trkpt>
<trkpt lat="31.238750458" lon="34.795646667">
<ele>275.421875</ele>
<time>2013-11-19T08:21:24Z</time>
<speed>3.560000</speed>
<extensions>
<speed>3.6</speed>
<temp>0.00</temp>
<bpm>0</bpm>
<rpm>0.00</rpm>
</extensions>
</trkpt>
<trkpt lat="31.238794327" lon="34.795780182">
<ele>273.554688</ele>
<time>2013-11-19T08:21:29Z</time>
<speed>3.010000</speed>
<extensions>
<speed>3.0</speed>
<temp>0.00</temp>
<bpm>0</bpm>
<rpm>0.00</rpm>
</extensions>
</trkpt>
<trkpt lat="31.238849640" lon="34.795951843">
<ele>272.750000</ele>
<time>2013-11-19T08:21:34Z</time>
<speed>3.700000</speed>
<extensions>
<speed>3.7</speed>
<temp>0.00</temp>
<bpm>0</bpm>
<rpm>0.00</rpm>
</extensions>
</trkpt>
<trkpt lat="31.238880157" lon="34.796127319">
<ele>272.093750</ele>
<time>2013-11-19T08:21:39Z</time>
<speed>3.880000</speed>
<extensions>
<speed>3.9</speed>
<temp>0.00</temp>
<bpm>0</bpm>
<rpm>0.00</rpm>
</extensions>
</trkpt>
<trkpt lat="31.238929749" lon="34.796314240">
<ele>272.296875</ele>
<time>2013-11-19T08:21:44Z</time>
<speed>2.860000</speed>
<extensions>
<speed>2.9</speed>
<temp>0.00</temp>
<bpm>0</bpm>
<rpm>0.00</rpm>
</extensions>
</trkpt>
<trkpt lat="31.239007950" lon="34.796474457">
<ele>272.898438</ele>
<time>2013-11-19T08:21:49Z</time>
<speed>2.680000</speed>
<extensions>
<speed>2.7</speed>
<temp>0.00</temp>
<bpm>0</bpm>
<rpm>0.00</rpm>
</extensions>
</trkpt>
<trkpt lat="31.239082336" lon="34.796672821">
<ele>273.367188</ele>
<time>2013-11-19T08:21:54Z</time>
<speed>3.590000</speed>
<extensions>
<speed>3.6</speed>
<temp>0.00</temp>
<bpm>0</bpm>
<rpm>0.00</rpm>
</extensions>
</trkpt>
<trkpt lat="31.239124298" lon="34.796798706">
<ele>276.046875</ele>
<time>2013-11-19T08:21:59Z</time>
<speed>3.220000</speed>
<extensions>
<speed>3.2</speed>
<temp>0.00</temp>
<bpm>0</bpm>
<rpm>0.00</rpm>
</extensions>
</trkpt>
<trkpt lat="31.239166260" lon="34.796985626">
<ele>277.414063</ele>
<time>2013-11-19T08:22:04Z</time>
<speed>3.400000</speed>
<extensions>
<speed>3.4</speed>
<temp>0.00</temp>
<bpm>0</bpm>
<rpm>0.00</rpm>
</extensions>
</trkpt>
<trkpt lat="31.239198685" lon="34.797142029">
<ele>277.101563</ele>
<time>2013-11-19T08:22:09Z</time>
<speed>2.650000</speed>
<extensions>
<speed>2.6</speed>
<temp>0.00</temp>
<bpm>0</bpm>
<rpm>0.00</rpm>
</extensions>
</trkpt>
<trkpt lat="31.239221573" lon="34.797264099">
<ele>277.460938</ele>
<time>2013-11-19T08:22:14Z</time>
<speed>2.050000</speed>
<extensions>
<speed>2.1</speed>
<temp>0.00</temp>
<bpm>0</bpm>
<rpm>0.00</rpm>
</extensions>
</trkpt>
<trkpt lat="31.239257813" lon="34.797386169">
<ele>277.476563</ele>
<time>2013-11-19T08:22:19Z</time>
<speed>2.260000</speed>
<extensions>
<speed>2.3</speed>
<temp>0.00</temp>
<bpm>0</bpm>
<rpm>0.00</rpm>
</extensions>
</trkpt>
<trkpt lat="31.239299774" lon="34.797447205">
<ele>278.539063</ele>
<time>2013-11-19T08:22:24Z</time>
<speed>1.400000</speed>
<extensions>
<speed>1.4</speed>
<temp>0.00</temp>
<bpm>0</bpm>
<rpm>0.00</rpm>
</extensions>
</trkpt>
<trkpt lat="31.239282608" lon="34.797512054">
<ele>279.796875</ele>
<time>2013-11-19T08:22:29Z</time>
<speed>0.100000</speed>
<extensions>
<speed>0.1</speed>
<temp>0.00</temp>
<bpm>0</bpm>
<rpm>0.00</rpm>
</extensions>
</trkpt>
<trkpt lat="31.239294052" lon="34.797512054">
<ele>279.328125</ele>
<time>2013-11-19T08:22:34Z</time>
<speed>0.030000</speed>
<extensions>
<speed>0.0</speed>
<temp>0.00</temp>
<bpm>0</bpm>
<rpm>0.00</rpm>
</extensions>
</trkpt>
<trkpt lat="31.239294052" lon="34.797512054">
<ele>279.296875</ele>
<time>2013-11-19T08:22:39Z</time>
<speed>0.010000</speed>
<extensions>
<speed>0.0</speed>
<temp>0.00</temp>
<bpm>0</bpm>
<rpm>0.00</rpm>
</extensions>
</trkpt>
<trkpt lat="31.239295959" lon="34.797512054">
<ele>279.109375</ele>
<time>2013-11-19T08:22:44Z</time>
<speed>0.010000</speed>
<extensions>
<speed>0.0</speed>
<temp>0.00</temp>
<bpm>0</bpm>
<rpm>0.00</rpm>
</extensions>
</trkpt>
<trkpt lat="31.239295959" lon="34.797515869">
<ele>278.898438</ele>
<time>2013-11-19T08:22:49Z</time>
<speed>0.030000</speed>
<extensions>
<speed>0.0</speed>
<temp>0.00</temp>
<bpm>0</bpm>
<rpm>0.00</rpm>
</extensions>
</trkpt>
<trkpt lat="31.239295959" lon="34.797515869">
<ele>278.632813</ele>
<time>2013-11-19T08:22:54Z</time>
<speed>0.010000</speed>
<extensions>
<speed>0.0</speed>
<temp>0.00</temp>
<bpm>0</bpm>
<rpm>0.00</rpm>
</extensions>
</trkpt>
<trkpt lat="31.239297867" lon="34.797515869">
<ele>278.468750</ele>
<time>2013-11-19T08:22:59Z</time>
<speed>0.030000</speed>
<extensions>
<speed>0.0</speed>
<temp>0.00</temp>
<bpm>0</bpm>
<rpm>0.00</rpm>
</extensions>
</trkpt>
<trkpt lat="31.239297867" lon="34.797515869">
<ele>278.273438</ele>
<time>2013-11-19T08:23:04Z</time>
<speed>0.010000</speed>
<extensions>
<speed>0.0</speed>
<temp>0.00</temp>
<bpm>0</bpm>
<rpm>0.00</rpm>
</extensions>
</trkpt>
<trkpt lat="31.239297867" lon="34.797515869">
<ele>278.218750</ele>
<time>2013-11-19T08:23:09Z</time>
<extensions>
<speed>0.0</speed>
<temp>0.00</temp>
<bpm>0</bpm>
<rpm>0.00</rpm>
</extensions>
</trkpt>
<trkpt lat="31.239297867" lon="34.797519684">
<ele>278.179688</ele>
<time>2013-11-19T08:23:14Z</time>
<extensions>
<speed>0.0</speed>
<temp>0.00</temp>
<bpm>0</bpm>
<rpm>0.00</rpm>
</extensions>
</trkpt>
<trkpt lat="31.239297867" lon="34.797519684">
<ele>278.148438</ele>
<time>2013-11-19T08:23:19Z</time>
<extensions>
<speed>0.0</speed>
<temp>0.00</temp>
<bpm>0</bpm>
<rpm>0.00</rpm>
</extensions>
</trkpt>
<trkpt lat="31.239297867" lon="34.797519684">
<ele>278.125000</ele>
<time>2013-11-19T08:23:24Z</time>
<speed>0.010000</speed>
<extensions>
<speed>0.0</speed>
<temp>0.00</temp>
<bpm>0</bpm>
<rpm>0.00</rpm>
</extensions>
</trkpt>
<trkpt lat="31.239297867" lon="34.797519684">
<ele>278.101563</ele>
<time>2013-11-19T08:23:29Z</time>
<speed>0.020000</speed>
<extensions>
<speed>0.0</speed>
<temp>0.00</temp>
<bpm>0</bpm>
<rpm>0.00</rpm>
</extensions>
</trkpt>
<trkpt lat="31.239297867" lon="34.797519684">
<ele>278.070313</ele>
<time>2013-11-19T08:23:34Z</time>
<extensions>
<speed>0.0</speed>
<temp>0.00</temp>
<bpm>0</bpm>
<rpm>0.00</rpm>
</extensions>
</trkpt>
<trkpt lat="31.239297867" lon="34.797519684">
<ele>278.046875</ele>
<time>2013-11-19T08:23:39Z</time>
<speed>0.010000</speed>
<extensions>
<speed>0.0</speed>
<temp>0.00</temp>
<bpm>0</bpm>
<rpm>0.00</rpm>
</extensions>
</trkpt>
<trkpt lat="31.239305496" lon="34.797523499">
<ele>277.343750</ele>
<time>2013-11-19T08:23:44Z</time>
<speed>0.010000</speed>
<extensions>
<speed>0.0</speed>
<temp>0.00</temp>
<bpm>0</bpm>
<rpm>0.00</rpm>
</extensions>
</trkpt>
<trkpt lat="31.239307404" lon="34.797527313">
<ele>276.796875</ele>
<time>2013-11-19T08:23:49Z</time>
<speed>0.020000</speed>
<extensions>
<speed>0.0</speed>
<temp>0.00</temp>
<bpm>0</bpm>
<rpm>0.00</rpm>
</extensions>
</trkpt>
<trkpt lat="31.239315033" lon="34.797538757">
<ele>276.289063</ele>
<time>2013-11-19T08:23:54Z</time>
<speed>0.010000</speed>
<extensions>
<speed>0.0</speed>
<temp>0.00</temp>
<bpm>0</bpm>
<rpm>0.00</rpm>
</extensions>
</trkpt>
<trkpt lat="31.239322662" lon="34.797546387">
<ele>275.781250</ele>
<time>2013-11-19T08:23:59Z</time>
<speed>0.020000</speed>
<extensions>
<speed>0.0</speed>
<temp>0.00</temp>
<bpm>0</bpm>
<rpm>0.00</rpm>
</extensions>
</trkpt>
<trkpt lat="31.239334106" lon="34.797557831">
<ele>275.265625</ele>
<time>2013-11-19T08:24:04Z</time>
<speed>0.010000</speed>
<extensions>
<speed>0.0</speed>
<temp>0.00</temp>
<bpm>0</bpm>
<rpm>0.00</rpm>
</extensions>
</trkpt>
<trkpt lat="31.239343643" lon="34.797565460">
<ele>274.859375</ele>
<time>2013-11-19T08:24:09Z</time>
<extensions>
<speed>0.0</speed>
<temp>0.00</temp>
<bpm>0</bpm>
<rpm>0.00</rpm>
</extensions>
</trkpt>
<trkpt lat="31.239355087" lon="34.797580719">
<ele>274.726563</ele>
<time>2013-11-19T08:24:14Z</time>
<speed>0.020000</speed>
<extensions>
<speed>0.0</speed>
<temp>0.00</temp>
<bpm>0</bpm>
<rpm>0.00</rpm>
</extensions>
</trkpt>
<trkpt lat="31.239362717" lon="34.797592163">
<ele>275.054688</ele>
<time>2013-11-19T08:24:19Z</time>
<speed>0.020000</speed>
<extensions>
<speed>0.0</speed>
<temp>0.00</temp>
<bpm>0</bpm>
<rpm>0.00</rpm>
</extensions>
</trkpt>
<trkpt lat="31.239349365" lon="34.797599792">
<ele>275.531250</ele>
<time>2013-11-19T08:24:24Z</time>
<extensions>
<speed>0.0</speed>
<temp>0.00</temp>
<bpm>0</bpm>
<rpm>0.00</rpm>
</extensions>
</trkpt>
<trkpt lat="31.239349365" lon="34.797603607">
<ele>275.546875</ele>
<time>2013-11-19T08:24:29Z</time>
<speed>0.010000</speed>
<extensions>
<speed>0.0</speed>
<temp>0.00</temp>
<bpm>0</bpm>
<rpm>0.00</rpm>
</extensions>
</trkpt>
<trkpt lat="31.239349365" lon="34.797603607">
<ele>275.546875</ele>
<time>2013-11-19T08:24:34Z</time>
<extensions>
<speed>0.0</speed>
<temp>0.00</temp>
<bpm>0</bpm>
<rpm>0.00</rpm>
</extensions>
</trkpt>
<trkpt lat="31.239349365" lon="34.797603607">
<ele>275.570313</ele>
<time>2013-11-19T08:24:39Z</time>
<extensions>
<speed>0.0</speed>
<temp>0.00</temp>
<bpm>0</bpm>
<rpm>0.00</rpm>
</extensions>
</trkpt>
<trkpt lat="31.239349365" lon="34.797603607">
<ele>275.570313</ele>
<time>2013-11-19T08:24:44Z</time>
<extensions>
<speed>0.0</speed>
<temp>0.00</temp>
<bpm>0</bpm>
<rpm>0.00</rpm>
</extensions>
</trkpt>
<trkpt lat="31.239326477" lon="34.797611237">
<ele>275.000000</ele>
<time>2013-11-19T08:24:49Z</time>
<speed>1.740000</speed>
<extensions>
<speed>1.7</speed>
<temp>0.00</temp>
<bpm>0</bpm>
<rpm>0.00</rpm>
</extensions>
</trkpt>
<trkpt lat="31.239240646" lon="34.797641754">
<ele>277.031250</ele>
<time>2013-11-19T08:24:54Z</time>
<speed>1.420000</speed>
<extensions>
<speed>1.4</speed>
<temp>0.00</temp>
<bpm>0</bpm>
<rpm>0.00</rpm>
</extensions>
</trkpt>
<trkpt lat="31.239118576" lon="34.797691345">
<ele>277.429688</ele>
<time>2013-11-19T08:24:59Z</time>
<speed>2.270000</speed>
<extensions>
<speed>2.3</speed>
<temp>0.00</temp>
<bpm>0</bpm>
<rpm>0.00</rpm>
</extensions>
</trkpt>
<trkpt lat="31.239042282" lon="34.797676086">
<ele>275.296875</ele>
<time>2013-11-19T08:25:04Z</time>
<speed>2.220000</speed>
<extensions>
<speed>2.2</speed>
<temp>0.00</temp>
<bpm>0</bpm>
<rpm>0.00</rpm>
</extensions>
</trkpt>
<trkpt lat="31.238872528" lon="34.797786713">
<ele>274.000000</ele>
<time>2013-11-19T08:25:09Z</time>
<speed>4.270000</speed>
<extensions>
<speed>4.3</speed>
<temp>0.00</temp>
<bpm>0</bpm>
<rpm>0.00</rpm>
</extensions>
</trkpt>
<trkpt lat="31.238668442" lon="34.797908783">
<ele>275.101563</ele>
<time>2013-11-19T08:25:14Z</time>
<speed>4.900000</speed>
<extensions>
<speed>4.9</speed>
<temp>0.00</temp>
<bpm>0</bpm>
<rpm>0.00</rpm>
</extensions>
</trkpt>
<trkpt lat="31.238443375" lon="34.797981262">
<ele>271.664063</ele>
<time>2013-11-19T08:25:19Z</time>
<speed>4.800000</speed>
<extensions>
<speed>4.8</speed>
<temp>0.00</temp>
<bpm>0</bpm>
<rpm>0.00</rpm>
</extensions>
</trkpt>
<trkpt lat="31.238248825" lon="34.798061371">
<ele>269.687500</ele>
<time>2013-11-19T08:25:24Z</time>
<speed>3.760000</speed>
<extensions>
<speed>3.8</speed>
<temp>0.00</temp>
<bpm>0</bpm>
<rpm>0.00</rpm>
</extensions>
</trkpt>
<trkpt lat="31.238149643" lon="34.798095703">
<ele>268.828125</ele>
<time>2013-11-19T08:25:29Z</time>
<speed>3.400000</speed>
<extensions>
<speed>3.4</speed>
<temp>0.00</temp>
<bpm>0</bpm>
<rpm>0.00</rpm>
</extensions>
</trkpt>
<trkpt lat="31.237958908" lon="34.798133850">
<ele>268.796875</ele>
<time>2013-11-19T08:25:34Z</time>
<speed>4.410000</speed>
<extensions>
<speed>4.4</speed>
<temp>0.00</temp>
<bpm>0</bpm>
<rpm>0.00</rpm>
</extensions>
</trkpt>
<trkpt lat="31.237754822" lon="34.798194885">
<ele>267.781250</ele>
<time>2013-11-19T08:25:39Z</time>
<speed>4.550000</speed>
<extensions>
<speed>4.5</speed>
<temp>0.00</temp>
<bpm>0</bpm>
<rpm>0.00</rpm>
</extensions>
</trkpt>
<trkpt lat="31.237552643" lon="34.798271179">
<ele>266.289063</ele>
<time>2013-11-19T08:25:44Z</time>
<speed>4.800000</speed>
<extensions>
<speed>4.8</speed>
<temp>0.00</temp>
<bpm>0</bpm>
<rpm>0.00</rpm>
</extensions>
</trkpt>
<trkpt lat="31.237348557" lon="34.798328400">
<ele>265.929688</ele>
<time>2013-11-19T08:25:49Z</time>
<speed>4.260000</speed>
<extensions>
<speed>4.3</speed>
<temp>0.00</temp>
<bpm>0</bpm>
<rpm>0.00</rpm>
</extensions>
</trkpt>
<trkpt lat="31.237180710" lon="34.798431396">
<ele>268.570313</ele>
<time>2013-11-19T08:25:54Z</time>
<speed>4.400000</speed>
<extensions>
<speed>4.4</speed>
<temp>0.00</temp>
<bpm>0</bpm>
<rpm>0.00</rpm>
</extensions>
</trkpt>
<trkpt lat="31.237020493" lon="34.798564911">
<ele>269.046875</ele>
<time>2013-11-19T08:25:59Z</time>
<speed>4.250000</speed>
<extensions>
<speed>4.3</speed>
<temp>0.00</temp>
<bpm>0</bpm>
<rpm>0.00</rpm>
</extensions>
</trkpt>
<trkpt lat="31.236854553" lon="34.798683167">
<ele>269.796875</ele>
<time>2013-11-19T08:26:04Z</time>
<speed>4.350000</speed>
<extensions>
<speed>4.3</speed>
<temp>0.00</temp>
<bpm>0</bpm>
<rpm>0.00</rpm>
</extensions>
</trkpt>
<trkpt lat="31.236715317" lon="34.798816681">
<ele>270.726563</ele>
<time>2013-11-19T08:26:09Z</time>
<speed>4.000000</speed>
<extensions>
<speed>4.0</speed>
<temp>0.00</temp>
<bpm>0</bpm>
<rpm>0.00</rpm>
</extensions>
</trkpt>
<trkpt lat="31.236595154" lon="34.798866272">
<ele>270.554688</ele>
<time>2013-11-19T08:26:14Z</time>
<speed>1.290000</speed>
<extensions>
<speed>1.3</speed>
<temp>0.00</temp>
<bpm>0</bpm>
<rpm>0.00</rpm>
</extensions>
</trkpt>
<trkpt lat="31.236564636" lon="34.798843384">
<ele>270.054688</ele>
<time>2013-11-19T08:26:19Z</time>
<speed>0.270000</speed>
<extensions>
<speed>0.3</speed>
<temp>0.00</temp>
<bpm>0</bpm>
<rpm>0.00</rpm>
</extensions>
</trkpt>
<trkpt lat="31.236560822" lon="34.798839569">
<ele>270.289063</ele>
<time>2013-11-19T08:26:24Z</time>
<speed>0.060000</speed>
<extensions>
<speed>0.1</speed>
<temp>0.00</temp>
<bpm>0</bpm>
<rpm>0.00</rpm>
</extensions>
</trkpt>
<trkpt lat="31.236560822" lon="34.798835754">
<ele>270.273438</ele>
<time>2013-11-19T08:26:29Z</time>
<speed>0.010000</speed>
<extensions>
<speed>0.0</speed>
<temp>0.00</temp>
<bpm>0</bpm>
<rpm>0.00</rpm>
</extensions>
</trkpt>
<trkpt lat="31.236558914" lon="34.798835754">
<ele>270.210938</ele>
<time>2013-11-19T08:26:34Z</time>
<speed>0.030000</speed>
<extensions>
<speed>0.0</speed>
<temp>0.00</temp>
<bpm>0</bpm>
<rpm>0.00</rpm>
</extensions>
</trkpt>
<trkpt lat="31.236560822" lon="34.798839569">
<ele>270.125000</ele>
<time>2013-11-19T08:26:39Z</time>
<speed>0.010000</speed>
<extensions>
<speed>0.0</speed>
<temp>0.00</temp>
<bpm>0</bpm>
<rpm>0.00</rpm>
</extensions>
</trkpt>
<trkpt lat="31.236560822" lon="34.798839569">
<ele>270.070313</ele>
<time>2013-11-19T08:26:44Z</time>
<speed>0.020000</speed>
<extensions>
<speed>0.0</speed>
<temp>0.00</temp>
<bpm>0</bpm>
<rpm>0.00</rpm>
</extensions>
</trkpt>
<trkpt lat="31.236522675" lon="34.798866272">
<ele>269.796875</ele>
<time>2013-11-19T08:26:49Z</time>
<speed>2.450000</speed>
<extensions>
<speed>2.4</speed>
<temp>0.00</temp>
<bpm>0</bpm>
<rpm>0.00</rpm>
</extensions>
</trkpt>
<trkpt lat="31.236436844" lon="34.798969269">
<ele>270.132813</ele>
<time>2013-11-19T08:26:54Z</time>
<speed>2.440000</speed>
<extensions>
<speed>2.4</speed>
<temp>0.00</temp>
<bpm>0</bpm>
<rpm>0.00</rpm>
</extensions>
</trkpt>
<trkpt lat="31.236400604" lon="34.799091339">
<ele>273.562500</ele>
<time>2013-11-19T08:26:59Z</time>
<speed>1.930000</speed>
<extensions>
<speed>1.9</speed>
<temp>0.00</temp>
<bpm>0</bpm>
<rpm>0.00</rpm>
</extensions>
</trkpt>
<trkpt lat="31.236272812" lon="34.799240112">
<ele>272.117188</ele>
<time>2013-11-19T08:27:04Z</time>
<speed>4.290000</speed>
<extensions>
<speed>4.3</speed>
<temp>0.00</temp>
<bpm>0</bpm>
<rpm>0.00</rpm>
</extensions>
</trkpt>
<trkpt lat="31.236139297" lon="34.799434662">
<ele>271.953125</ele>
<time>2013-11-19T08:27:09Z</time>
<speed>5.010000</speed>
<extensions>
<speed>5.0</speed>
<temp>0.00</temp>
<bpm>0</bpm>
<rpm>0.00</rpm>
</extensions>
</trkpt>
<trkpt lat="31.235956192" lon="34.799606323">
<ele>269.539063</ele>
<time>2013-11-19T08:27:14Z</time>
<speed>5.170000</speed>
<extensions>
<speed>5.2</speed>
<temp>0.00</temp>
<bpm>0</bpm>
<rpm>0.00</rpm>
</extensions>
</trkpt>
<trkpt lat="31.235797882" lon="34.799819946">
<ele>268.523438</ele>
<time>2013-11-19T08:27:19Z</time>
<speed>5.250000</speed>
<extensions>
<speed>5.2</speed>
<temp>0.00</temp>
<bpm>0</bpm>
<rpm>0.00</rpm>
</extensions>
</trkpt>
<trkpt lat="31.235645294" lon="34.800018311">
<ele>268.562500</ele>
<time>2013-11-19T08:27:24Z</time>
<speed>4.220000</speed>
<extensions>
<speed>4.2</speed>
<temp>0.00</temp>
<bpm>0</bpm>
<rpm>0.00</rpm>
</extensions>
</trkpt>
<trkpt lat="31.235527039" lon="34.800144196">
<ele>268.640625</ele>
<time>2013-11-19T08:27:29Z</time>
<speed>3.120000</speed>
<extensions>
<speed>3.1</speed>
<temp>0.00</temp>
<bpm>0</bpm>
<rpm>0.00</rpm>
</extensions>
</trkpt>
<trkpt lat="31.235403061" lon="34.800231934">
<ele>267.257813</ele>
<time>2013-11-19T08:27:34Z</time>
<speed>3.170000</speed>
<extensions>
<speed>3.2</speed>
<temp>0.00</temp>
<bpm>0</bpm>
<rpm>0.00</rpm>
</extensions>
</trkpt>
<trkpt lat="31.235263824" lon="34.800277710">
<ele>264.093750</ele>
<time>2013-11-19T08:27:39Z</time>
<speed>2.760000</speed>
<extensions>
<speed>2.8</speed>
<temp>0.00</temp>
<bpm>0</bpm>
<rpm>0.00</rpm>
</extensions>
</trkpt>
<trkpt lat="31.235153198" lon="34.800312042">
<ele>263.421875</ele>
<time>2013-11-19T08:27:44Z</time>
<speed>2.680000</speed>
<extensions>
<speed>2.7</speed>
<temp>0.00</temp>
<bpm>0</bpm>
<rpm>0.00</rpm>
</extensions>
</trkpt>
<trkpt lat="31.235073090" lon="34.800388336">
<ele>262.195313</ele>
<time>2013-11-19T08:27:49Z</time>
<speed>2.060000</speed>
<extensions>
<speed>2.1</speed>
<temp>0.00</temp>
<bpm>0</bpm>
<rpm>0.00</rpm>
</extensions>
</trkpt>
<trkpt lat="31.234962463" lon="34.800457001">
<ele>263.648438</ele>
<time>2013-11-19T08:27:54Z</time>
<speed>3.270000</speed>
<extensions>
<speed>3.3</speed>
<temp>0.00</temp>
<bpm>0</bpm>
<rpm>0.00</rpm>
</extensions>
</trkpt>
<trkpt lat="31.234802246" lon="34.800582886">
<ele>266.976563</ele>
<time>2013-11-19T08:27:59Z</time>
<speed>4.940000</speed>
<extensions>
<speed>4.9</speed>
<temp>0.00</temp>
<bpm>0</bpm>
<rpm>0.00</rpm>
</extensions>
</trkpt>
<trkpt lat="31.234596252" lon="34.800701141">
<ele>268.476563</ele>
<time>2013-11-19T08:28:04Z</time>
<speed>5.070000</speed>
<extensions>
<speed>5.1</speed>
<temp>0.00</temp>
<bpm>0</bpm>
<rpm>0.00</rpm>
</extensions>
</trkpt>
<trkpt lat="31.234376907" lon="34.800846100">
<ele>269.476563</ele>
<time>2013-11-19T08:28:09Z</time>
<speed>5.590000</speed>
<extensions>
<speed>5.6</speed>
<temp>0.00</temp>
<bpm>0</bpm>
<rpm>0.00</rpm>
</extensions>
</trkpt>
<trkpt lat="31.234149933" lon="34.800987244">
<ele>268.734375</ele>
<time>2013-11-19T08:28:14Z</time>
<speed>5.340000</speed>
<extensions>
<speed>5.3</speed>
<temp>0.00</temp>
<bpm>0</bpm>
<rpm>0.00</rpm>
</extensions>
</trkpt>
<trkpt lat="31.233926773" lon="34.801105499">
<ele>269.789063</ele>
<time>2013-11-19T08:28:19Z</time>
<speed>4.900000</speed>
<extensions>
<speed>4.9</speed>
<temp>0.00</temp>
<bpm>0</bpm>
<rpm>0.00</rpm>
</extensions>
</trkpt>
<trkpt lat="31.233753204" lon="34.801204681">
<ele>271.421875</ele>
<time>2013-11-19T08:28:24Z</time>
<speed>1.610000</speed>
<extensions>
<speed>1.6</speed>
<temp>0.00</temp>
<bpm>0</bpm>
<rpm>0.00</rpm>
</extensions>
</trkpt>
<trkpt lat="31.233772278" lon="34.801212311">
<ele>270.859375</ele>
<time>2013-11-19T08:28:29Z</time>
<extensions>
<speed>0.0</speed>
<temp>0.00</temp>
<bpm>0</bpm>
<rpm>0.00</rpm>
</extensions>
</trkpt>
<trkpt lat="31.233772278" lon="34.801212311">
<ele>270.812500</ele>
<time>2013-11-19T08:28:34Z</time>
<extensions>
<speed>0.0</speed>
<temp>0.00</temp>
<bpm>0</bpm>
<rpm>0.00</rpm>
</extensions>
</trkpt>
<trkpt lat="31.233772278" lon="34.801212311">
<ele>270.851563</ele>
<time>2013-11-19T08:28:39Z</time>
<extensions>
<speed>0.0</speed>
<temp>0.00</temp>
<bpm>0</bpm>
<rpm>0.00</rpm>
</extensions>
</trkpt>
<trkpt lat="31.233774185" lon="34.801212311">
<ele>270.859375</ele>
<time>2013-11-19T08:28:44Z</time>
<extensions>
<speed>0.0</speed>
<temp>0.00</temp>
<bpm>0</bpm>
<rpm>0.00</rpm>
</extensions>
</trkpt>
<trkpt lat="31.233774185" lon="34.801212311">
<ele>270.859375</ele>
<time>2013-11-19T08:28:49Z</time>
<speed>0.150000</speed>
<extensions>
<speed>0.2</speed>
<temp>0.00</temp>
<bpm>0</bpm>
<rpm>0.00</rpm>
</extensions>
</trkpt>
<trkpt lat="31.233701706" lon="34.801254272">
<ele>270.046875</ele>
<time>2013-11-19T08:28:54Z</time>
<speed>3.110000</speed>
<extensions>
<speed>3.1</speed>
<temp>0.00</temp>
<bpm>0</bpm>
<rpm>0.00</rpm>
</extensions>
</trkpt>
<trkpt lat="31.233526230" lon="34.801330566">
<ele>269.273438</ele>
<time>2013-11-19T08:28:59Z</time>
<speed>4.530000</speed>
<extensions>
<speed>4.5</speed>
<temp>0.00</temp>
<bpm>0</bpm>
<rpm>0.00</rpm>
</extensions>
</trkpt>
<trkpt lat="31.233324051" lon="34.801445007">
<ele>270.203125</ele>
<time>2013-11-19T08:29:04Z</time>
<speed>5.240000</speed>
<extensions>
<speed>5.2</speed>
<temp>0.00</temp>
<bpm>0</bpm>
<rpm>0.00</rpm>
</extensions>
</trkpt>
<trkpt lat="31.233098984" lon="34.801544189">
<ele>269.210938</ele>
<time>2013-11-19T08:29:09Z</time>
<speed>5.290000</speed>
<extensions>
<speed>5.3</speed>
<temp>0.00</temp>
<bpm>0</bpm>
<rpm>0.00</rpm>
</extensions>
</trkpt>
<trkpt lat="31.232879639" lon="34.801651001">
<ele>268.351563</ele>
<time>2013-11-19T08:29:14Z</time>
<speed>5.420000</speed>
<extensions>
<speed>5.4</speed>
<temp>0.00</temp>
<bpm>0</bpm>
<rpm>0.00</rpm>
</extensions>
</trkpt>
<trkpt lat="31.232662201" lon="34.801757813">
<ele>267.242188</ele>
<time>2013-11-19T08:29:19Z</time>
<speed>5.240000</speed>
<extensions>
<speed>5.2</speed>
<temp>0.00</temp>
<bpm>0</bpm>
<rpm>0.00</rpm>
</extensions>
</trkpt>
<trkpt lat="31.232460022" lon="34.801868439">
<ele>267.531250</ele>
<time>2013-11-19T08:29:24Z</time>
<speed>4.740000</speed>
<extensions>
<speed>4.7</speed>
<temp>0.00</temp>
<bpm>0</bpm>
<rpm>0.00</rpm>
</extensions>
</trkpt>
<trkpt lat="31.232236862" lon="34.801956177">
<ele>267.226563</ele>
<time>2013-11-19T08:29:29Z</time>
<speed>4.940000</speed>
<extensions>
<speed>4.9</speed>
<temp>0.00</temp>
<bpm>0</bpm>
<rpm>0.00</rpm>
</extensions>
</trkpt>
<trkpt lat="31.232013702" lon="34.802051544">
<ele>265.578125</ele>
<time>2013-11-19T08:29:34Z</time>
<speed>5.210000</speed>
<extensions>
<speed>5.2</speed>
<temp>0.00</temp>
<bpm>0</bpm>
<rpm>0.00</rpm>
</extensions>
</trkpt>
<trkpt lat="31.231800079" lon="34.802143097">
<ele>264.664063</ele>
<time>2013-11-19T08:29:39Z</time>
<speed>5.220000</speed>
<extensions>
<speed>5.2</speed>
<temp>0.00</temp>
<bpm>0</bpm>
<rpm>0.00</rpm>
</extensions>
</trkpt>
<trkpt lat="31.231592178" lon="34.802211761">
<ele>263.093750</ele>
<time>2013-11-19T08:29:44Z</time>
<speed>4.530000</speed>
<extensions>
<speed>4.5</speed>
<temp>0.00</temp>
<bpm>0</bpm>
<rpm>0.00</rpm>
</extensions>
</trkpt>
<trkpt lat="31.231386185" lon="34.802249908">
<ele>261.023438</ele>
<time>2013-11-19T08:29:49Z</time>
<speed>5.200000</speed>
<extensions>
<speed>5.2</speed>
<temp>0.00</temp>
<bpm>0</bpm>
<rpm>0.00</rpm>
</extensions>
</trkpt>
<trkpt lat="31.231172562" lon="34.802318573">
<ele>258.171875</ele>
<time>2013-11-19T08:29:54Z</time>
<speed>4.950000</speed>
<extensions>
<speed>4.9</speed>
<temp>0.00</temp>
<bpm>0</bpm>
<rpm>0.00</rpm>
</extensions>
</trkpt>
<trkpt lat="31.230926514" lon="34.802345276">
<ele>256.187500</ele>
<time>2013-11-19T08:29:59Z</time>
<speed>5.260000</speed>
<extensions>
<speed>5.3</speed>
<temp>0.00</temp>
<bpm>0</bpm>
<rpm>0.00</rpm>
</extensions>
</trkpt>
<trkpt lat="31.230768204" lon="34.802383423">
<ele>257.453125</ele>
<time>2013-11-19T08:30:04Z</time>
<speed>4.420000</speed>
<extensions>
<speed>4.4</speed>
<temp>0.00</temp>
<bpm>0</bpm>
<rpm>0.00</rpm>
</extensions>
</trkpt>
<trkpt lat="31.230684280" lon="34.802398682">
<ele>257.093750</ele>
<time>2013-11-19T08:30:09Z</time>
<speed>0.530000</speed>
<extensions>
<speed>0.5</speed>
<temp>0.00</temp>
<bpm>0</bpm>
<rpm>0.00</rpm>
</extensions>
</trkpt>
<trkpt lat="31.230701447" lon="34.802394867">
<ele>258.234375</ele>
<time>2013-11-19T08:30:14Z</time>
<extensions>
<speed>0.0</speed>
<temp>0.00</temp>
<bpm>0</bpm>
<rpm>0.00</rpm>
</extensions>
</trkpt>
<trkpt lat="31.230701447" lon="34.802394867">
<ele>258.218750</ele>
<time>2013-11-19T08:30:19Z</time>
<speed>0.010000</speed>
<extensions>
<speed>0.0</speed>
<temp>0.00</temp>
<bpm>0</bpm>
<rpm>0.00</rpm>
</extensions>
</trkpt>
<trkpt lat="31.230703354" lon="34.802398682">
<ele>258.195313</ele>
<time>2013-11-19T08:30:24Z</time>
<speed>0.010000</speed>
<extensions>
<speed>0.0</speed>
<temp>0.00</temp>
<bpm>0</bpm>
<rpm>0.00</rpm>
</extensions>
</trkpt>
<trkpt lat="31.230705261" lon="34.802398682">
<ele>258.171875</ele>
<time>2013-11-19T08:30:29Z</time>
<speed>0.060000</speed>
<extensions>
<speed>0.1</speed>
<temp>0.00</temp>
<bpm>0</bpm>
<rpm>0.00</rpm>
</extensions>
</trkpt>
<trkpt lat="31.230705261" lon="34.802398682">
<ele>258.148438</ele>
<time>2013-11-19T08:30:34Z</time>
<speed>0.010000</speed>
<extensions>
<speed>0.0</speed>
<temp>0.00</temp>
<bpm>0</bpm>
<rpm>0.00</rpm>
</extensions>
</trkpt>
<trkpt lat="31.230707169" lon="34.802398682">
<ele>258.109375</ele>
<time>2013-11-19T08:30:39Z</time>
<speed>0.040000</speed>
<extensions>
<speed>0.0</speed>
<temp>0.00</temp>
<bpm>0</bpm>
<rpm>0.00</rpm>
</extensions>
</trkpt>
<trkpt lat="31.230701447" lon="34.802394867">
<ele>258.523438</ele>
<time>2013-11-19T08:30:44Z</time>
<speed>0.890000</speed>
<extensions>
<speed>0.9</speed>
<temp>0.00</temp>
<bpm>0</bpm>
<rpm>0.00</rpm>
</extensions>
</trkpt>
<trkpt lat="31.230686188" lon="34.802391052">
<ele>258.000000</ele>
<time>2013-11-19T08:30:49Z</time>
<speed>0.030000</speed>
<extensions>
<speed>0.0</speed>
<temp>0.00</temp>
<bpm>0</bpm>
<rpm>0.00</rpm>
</extensions>
</trkpt>
<trkpt lat="31.230686188" lon="34.802391052">
<ele>257.531250</ele>
<time>2013-11-19T08:30:54Z</time>
<extensions>
<speed>0.0</speed>
<temp>0.00</temp>
<bpm>0</bpm>
<rpm>0.00</rpm>
</extensions>
</trkpt>
<trkpt lat="31.230686188" lon="34.802391052">
<ele>257.523438</ele>
<time>2013-11-19T08:30:59Z</time>
<extensions>
<speed>0.0</speed>
<temp>0.00</temp>
<bpm>0</bpm>
<rpm>0.00</rpm>
</extensions>
</trkpt>
<trkpt lat="31.230686188" lon="34.802391052">
<ele>257.484375</ele>
<time>2013-11-19T08:31:04Z</time>
<extensions>
<speed>0.0</speed>
<temp>0.00</temp>
<bpm>0</bpm>
<rpm>0.00</rpm>
</extensions>
</trkpt>
<trkpt lat="31.230686188" lon="34.802391052">
<ele>257.453125</ele>
<time>2013-11-19T08:31:09Z</time>
<extensions>
<speed>0.0</speed>
<temp>0.00</temp>
<bpm>0</bpm>
<rpm>0.00</rpm>
</extensions>
</trkpt>
<trkpt lat="31.230686188" lon="34.802391052">
<ele>257.421875</ele>
<time>2013-11-19T08:31:14Z</time>
<speed>0.010000</speed>
<extensions>
<speed>0.0</speed>
<temp>0.00</temp>
<bpm>0</bpm>
<rpm>0.00</rpm>
</extensions>
</trkpt>
<trkpt lat="31.230684280" lon="34.802391052">
<ele>257.398438</ele>
<time>2013-11-19T08:31:19Z</time>
<speed>0.020000</speed>
<extensions>
<speed>0.0</speed>
<temp>0.00</temp>
<bpm>0</bpm>
<rpm>0.00</rpm>
</extensions>
</trkpt>
<trkpt lat="31.230684280" lon="34.802391052">
<ele>257.367188</ele>
<time>2013-11-19T08:31:24Z</time>
<speed>0.010000</speed>
<extensions>
<speed>0.0</speed>
<temp>0.00</temp>
<bpm>0</bpm>
<rpm>0.00</rpm>
</extensions>
</trkpt>
<trkpt lat="31.230684280" lon="34.802391052">
<ele>257.312500</ele>
<time>2013-11-19T08:31:29Z</time>
<extensions>
<speed>0.0</speed>
<temp>0.00</temp>
<bpm>0</bpm>
<rpm>0.00</rpm>
</extensions>
</trkpt>
<trkpt lat="31.230684280" lon="34.802391052">
<ele>257.296875</ele>
<time>2013-11-19T08:31:34Z</time>
<extensions>
<speed>0.0</speed>
<temp>0.00</temp>
<bpm>0</bpm>
<rpm>0.00</rpm>
</extensions>
</trkpt>
<trkpt lat="31.230684280" lon="34.802391052">
<ele>257.281250</ele>
<time>2013-11-19T08:31:39Z</time>
<extensions>
<speed>0.0</speed>
<temp>0.00</temp>
<bpm>0</bpm>
<rpm>0.00</rpm>
</extensions>
</trkpt>
<trkpt lat="31.230684280" lon="34.802391052">
<ele>257.273438</ele>
<time>2013-11-19T08:31:44Z</time>
<extensions>
<speed>0.0</speed>
<temp>0.00</temp>
<bpm>0</bpm>
<rpm>0.00</rpm>
</extensions>
</trkpt>
<trkpt lat="31.230684280" lon="34.802391052">
<ele>257.250000</ele>
<time>2013-11-19T08:31:49Z</time>
<extensions>
<speed>0.0</speed>
<temp>0.00</temp>
<bpm>0</bpm>
<rpm>0.00</rpm>
</extensions>
</trkpt>
<trkpt lat="31.230684280" lon="34.802391052">
<ele>257.242188</ele>
<time>2013-11-19T08:31:54Z</time>
<extensions>
<speed>0.0</speed>
<temp>0.00</temp>
<bpm>0</bpm>
<rpm>0.00</rpm>
</extensions>
</trkpt>
<trkpt lat="31.230684280" lon="34.802391052">
<ele>257.210938</ele>
<time>2013-11-19T08:31:59Z</time>
<extensions>
<speed>0.0</speed>
<temp>0.00</temp>
<bpm>0</bpm>
<rpm>0.00</rpm>
</extensions>
</trkpt>
<trkpt lat="31.230684280" lon="34.802391052">
<ele>257.179688</ele>
<time>2013-11-19T08:32:04Z</time>
<extensions>
<speed>0.0</speed>
<temp>0.00</temp>
<bpm>0</bpm>
<rpm>0.00</rpm>
</extensions>
</trkpt>
<trkpt lat="31.230684280" lon="34.802394867">
<ele>257.164063</ele>
<time>2013-11-19T08:32:09Z</time>
<extensions>
<speed>0.0</speed>
<temp>0.00</temp>
<bpm>0</bpm>
<rpm>0.00</rpm>
</extensions>
</trkpt>
<trkpt lat="31.230684280" lon="34.802394867">
<ele>257.148438</ele>
<time>2013-11-19T08:32:14Z</time>
<extensions>
<speed>0.0</speed>
<temp>0.00</temp>
<bpm>0</bpm>
<rpm>0.00</rpm>
</extensions>
</trkpt>
<trkpt lat="31.230684280" lon="34.802394867">
<ele>257.132813</ele>
<time>2013-11-19T08:32:19Z</time>
<speed>0.010000</speed>
<extensions>
<speed>0.0</speed>
<temp>0.00</temp>
<bpm>0</bpm>
<rpm>0.00</rpm>
</extensions>
</trkpt>
<trkpt lat="31.230684280" lon="34.802394867">
<ele>257.109375</ele>
<time>2013-11-19T08:32:24Z</time>
<speed>0.010000</speed>
<extensions>
<speed>0.0</speed>
<temp>0.00</temp>
<bpm>0</bpm>
<rpm>0.00</rpm>
</extensions>
</trkpt>
<trkpt lat="31.230682373" lon="34.802394867">
<ele>257.093750</ele>
<time>2013-11-19T08:32:29Z</time>
<extensions>
<speed>0.0</speed>
<temp>0.00</temp>
<bpm>0</bpm>
<rpm>0.00</rpm>
</extensions>
</trkpt>
<trkpt lat="31.230682373" lon="34.802391052">
<ele>257.070313</ele>
<time>2013-11-19T08:32:34Z</time>
<speed>0.010000</speed>
<extensions>
<speed>0.0</speed>
<temp>0.00</temp>
<bpm>0</bpm>
<rpm>0.00</rpm>
</extensions>
</trkpt>
<trkpt lat="31.230682373" lon="34.802394867">
<ele>257.046875</ele>
<time>2013-11-19T08:32:39Z</time>
<extensions>
<speed>0.0</speed>
<temp>0.00</temp>
<bpm>0</bpm>
<rpm>0.00</rpm>
</extensions>
</trkpt>
<trkpt lat="31.230682373" lon="34.802394867">
<ele>257.031250</ele>
<time>2013-11-19T08:32:44Z</time>
<extensions>
<speed>0.0</speed>
<temp>0.00</temp>
<bpm>0</bpm>
<rpm>0.00</rpm>
</extensions>
</trkpt>
<trkpt lat="31.230682373" lon="34.802394867">
<ele>257.015625</ele>
<time>2013-11-19T08:32:49Z</time>
<extensions>
<speed>0.0</speed>
<temp>0.00</temp>
<bpm>0</bpm>
<rpm>0.00</rpm>
</extensions>
</trkpt>
<trkpt lat="31.230682373" lon="34.802394867">
<ele>256.992188</ele>
<time>2013-11-19T08:32:54Z</time>
<extensions>
<speed>0.0</speed>
<temp>0.00</temp>
<bpm>0</bpm>
<rpm>0.00</rpm>
</extensions>
</trkpt>
<trkpt lat="31.230682373" lon="34.802394867">
<ele>256.976563</ele>
<time>2013-11-19T08:32:59Z</time>
<extensions>
<speed>0.0</speed>
<temp>0.00</temp>
<bpm>0</bpm>
<rpm>0.00</rpm>
</extensions>
</trkpt>
<trkpt lat="31.230682373" lon="34.802394867">
<ele>256.960938</ele>
<time>2013-11-19T08:33:04Z</time>
<speed>0.010000</speed>
<extensions>
<speed>0.0</speed>
<temp>0.00</temp>
<bpm>0</bpm>
<rpm>0.00</rpm>
</extensions>
</trkpt>
<trkpt lat="31.230619431" lon="34.802303314">
<ele>257.046875</ele>
<time>2013-11-19T08:33:09Z</time>
<speed>3.590000</speed>
<extensions>
<speed>3.6</speed>
<temp>0.00</temp>
<bpm>0</bpm>
<rpm>0.00</rpm>
</extensions>
</trkpt>
<trkpt lat="31.230554581" lon="34.802066803">
<ele>259.187500</ele>
<time>2013-11-19T08:33:14Z</time>
<speed>6.030000</speed>
<extensions>
<speed>6.0</speed>
<temp>0.00</temp>
<bpm>0</bpm>
<rpm>0.00</rpm>
</extensions>
</trkpt>
<trkpt lat="31.230512619" lon="34.801723480">
<ele>260.218750</ele>
<time>2013-11-19T08:33:19Z</time>
<speed>6.860000</speed>
<extensions>
<speed>6.9</speed>
<temp>0.00</temp>
<bpm>0</bpm>
<rpm>0.00</rpm>
</extensions>
</trkpt>
<trkpt lat="31.230478287" lon="34.801345825">
<ele>259.554688</ele>
<time>2013-11-19T08:33:24Z</time>
<speed>6.880000</speed>
<extensions>
<speed>6.9</speed>
<temp>0.00</temp>
<bpm>0</bpm>
<rpm>0.00</rpm>
</extensions>
</trkpt>
<trkpt lat="31.230422974" lon="34.800994873">
<ele>259.640625</ele>
<time>2013-11-19T08:33:29Z</time>
<speed>6.480000</speed>
<extensions>
<speed>6.5</speed>
<temp>0.00</temp>
<bpm>0</bpm>
<rpm>0.00</rpm>
</extensions>
</trkpt>
<trkpt lat="31.230358124" lon="34.800666809">
<ele>258.632813</ele>
<time>2013-11-19T08:33:34Z</time>
<speed>6.200000</speed>
<extensions>
<speed>6.2</speed>
<temp>0.00</temp>
<bpm>0</bpm>
<rpm>0.00</rpm>
</extensions>
</trkpt>
<trkpt lat="31.230291367" lon="34.800342560">
<ele>259.093750</ele>
<time>2013-11-19T08:33:39Z</time>
<speed>6.330000</speed>
<extensions>
<speed>6.3</speed>
<temp>0.00</temp>
<bpm>0</bpm>
<rpm>0.00</rpm>
</extensions>
</trkpt>
<trkpt lat="31.230226517" lon="34.800010681">
<ele>259.601563</ele>
<time>2013-11-19T08:33:44Z</time>
<speed>6.400000</speed>
<extensions>
<speed>6.4</speed>
<temp>0.00</temp>
<bpm>0</bpm>
<rpm>0.00</rpm>
</extensions>
</trkpt>
<trkpt lat="31.230279922" lon="34.799697876">
<ele>260.296875</ele>
<time>2013-11-19T08:33:49Z</time>
<speed>5.760000</speed>
<extensions>
<speed>5.8</speed>
<temp>0.00</temp>
<bpm>0</bpm>
<rpm>0.00</rpm>
</extensions>
</trkpt>
<trkpt lat="31.230289459" lon="34.799373627">
<ele>260.656250</ele>
<time>2013-11-19T08:33:54Z</time>
<speed>6.600000</speed>
<extensions>
<speed>6.6</speed>
<temp>0.00</temp>
<bpm>0</bpm>
<rpm>0.00</rpm>
</extensions>
</trkpt>
<trkpt lat="31.230226517" lon="34.799007416">
<ele>259.976563</ele>
<time>2013-11-19T08:33:59Z</time>
<speed>7.090000</speed>
<extensions>
<speed>7.1</speed>
<temp>0.00</temp>
<bpm>0</bpm>
<rpm>0.00</rpm>
</extensions>
</trkpt>
<trkpt lat="31.230199814" lon="34.798648834">
<ele>259.468750</ele>
<time>2013-11-19T08:34:04Z</time>
<speed>6.620000</speed>
<extensions>
<speed>6.6</speed>
<temp>0.00</temp>
<bpm>0</bpm>
<rpm>0.00</rpm>
</extensions>
</trkpt>
<trkpt lat="31.230182648" lon="34.798309326">
<ele>259.031250</ele>
<time>2013-11-19T08:34:09Z</time>
<speed>6.460000</speed>
<extensions>
<speed>6.5</speed>
<temp>0.00</temp>
<bpm>0</bpm>
<rpm>0.00</rpm>
</extensions>
</trkpt>
<trkpt lat="31.230169296" lon="34.797988892">
<ele>258.468750</ele>
<time>2013-11-19T08:34:14Z</time>
<speed>5.140000</speed>
<extensions>
<speed>5.1</speed>
<temp>0.00</temp>
<bpm>0</bpm>
<rpm>0.00</rpm>
</extensions>
</trkpt>
<trkpt lat="31.230108261" lon="34.797771454">
<ele>259.859375</ele>
<time>2013-11-19T08:34:19Z</time>
<speed>3.440000</speed>
<extensions>
<speed>3.4</speed>
<temp>0.00</temp>
<bpm>0</bpm>
<rpm>0.00</rpm>
</extensions>
</trkpt>
<trkpt lat="31.230180740" lon="34.797641754">
<ele>261.093750</ele>
<time>2013-11-19T08:34:24Z</time>
<speed>1.900000</speed>
<extensions>
<speed>1.9</speed>
<temp>0.00</temp>
<bpm>0</bpm>
<rpm>0.00</rpm>
</extensions>
</trkpt>
<trkpt lat="31.230218887" lon="34.797626495">
<ele>262.992188</ele>
<time>2013-11-19T08:34:29Z</time>
<speed>0.060000</speed>
<extensions>
<speed>0.1</speed>
<temp>0.00</temp>
<bpm>0</bpm>
<rpm>0.00</rpm>
</extensions>
</trkpt>
<trkpt lat="31.230216980" lon="34.797630310">
<ele>262.726563</ele>
<time>2013-11-19T08:34:34Z</time>
<extensions>
<speed>0.0</speed>
<temp>0.00</temp>
<bpm>0</bpm>
<rpm>0.00</rpm>
</extensions>
</trkpt>
<trkpt lat="31.230215073" lon="34.797630310">
<ele>262.679688</ele>
<time>2013-11-19T08:34:39Z</time>
<speed>0.020000</speed>
<extensions>
<speed>0.0</speed>
<temp>0.00</temp>
<bpm>0</bpm>
<rpm>0.00</rpm>
</extensions>
</trkpt>
<trkpt lat="31.230215073" lon="34.797630310">
<ele>262.687500</ele>
<time>2013-11-19T08:34:44Z</time>
<speed>0.020000</speed>
<extensions>
<speed>0.0</speed>
<temp>0.00</temp>
<bpm>0</bpm>
<rpm>0.00</rpm>
</extensions>
</trkpt>
<trkpt lat="31.230213165" lon="34.797630310">
<ele>262.703125</ele>
<time>2013-11-19T08:34:49Z</time>
<speed>0.010000</speed>
<extensions>
<speed>0.0</speed>
<temp>0.00</temp>
<bpm>0</bpm>
<rpm>0.00</rpm>
</extensions>
</trkpt>
<trkpt lat="31.230213165" lon="34.797626495">
<ele>262.343750</ele>
<time>2013-11-19T08:34:54Z</time>
<speed>0.010000</speed>
<extensions>
<speed>0.0</speed>
<temp>0.00</temp>
<bpm>0</bpm>
<rpm>0.00</rpm>
</extensions>
</trkpt>
<trkpt lat="31.230213165" lon="34.797626495">
<ele>262.210938</ele>
<time>2013-11-19T08:34:59Z</time>
<speed>0.010000</speed>
<extensions>
<speed>0.0</speed>
<temp>0.00</temp>
<bpm>0</bpm>
<rpm>0.00</rpm>
</extensions>
</trkpt>
<trkpt lat="31.230211258" lon="34.797626495">
<ele>262.187500</ele>
<time>2013-11-19T08:35:04Z</time>
<speed>0.030000</speed>
<extensions>
<speed>0.0</speed>
<temp>0.00</temp>
<bpm>0</bpm>
<rpm>0.00</rpm>
</extensions>
</trkpt>
<trkpt lat="31.230211258" lon="34.797630310">
<ele>262.195313</ele>
<time>2013-11-19T08:35:09Z</time>
<extensions>
<speed>0.0</speed>
<temp>0.00</temp>
<bpm>0</bpm>
<rpm>0.00</rpm>
</extensions>
</trkpt>
<trkpt lat="31.230211258" lon="34.797630310">
<ele>262.187500</ele>
<time>2013-11-19T08:35:14Z</time>
<speed>0.030000</speed>
<extensions>
<speed>0.0</speed>
<temp>0.00</temp>
<bpm>0</bpm>
<rpm>0.00</rpm>
</extensions>
</trkpt>
<trkpt lat="31.230211258" lon="34.797630310">
<ele>262.179688</ele>
<time>2013-11-19T08:35:19Z</time>
<speed>0.630000</speed>
<extensions>
<speed>0.6</speed>
<temp>0.00</temp>
<bpm>0</bpm>
<rpm>0.00</rpm>
</extensions>
</trkpt>
<trkpt lat="31.230293274" lon="34.797561646">
<ele>263.414063</ele>
<time>2013-11-19T08:35:24Z</time>
<speed>3.470000</speed>
<extensions>
<speed>3.5</speed>
<temp>0.00</temp>
<bpm>0</bpm>
<rpm>0.00</rpm>
</extensions>
</trkpt>
<trkpt lat="31.230451584" lon="34.797451019">
<ele>263.296875</ele>
<time>2013-11-19T08:35:29Z</time>
<speed>4.330000</speed>
<extensions>
<speed>4.3</speed>
<temp>0.00</temp>
<bpm>0</bpm>
<rpm>0.00</rpm>
</extensions>
</trkpt>
<trkpt lat="31.230649948" lon="34.797325134">
<ele>263.601563</ele>
<time>2013-11-19T08:35:34Z</time>
<speed>4.860000</speed>
<extensions>
<speed>4.9</speed>
<temp>0.00</temp>
<bpm>0</bpm>
<rpm>0.00</rpm>
</extensions>
</trkpt>
<trkpt lat="31.230796814" lon="34.797229767">
<ele>262.593750</ele>
<time>2013-11-19T08:35:39Z</time>
<speed>2.110000</speed>
<extensions>
<speed>2.1</speed>
<temp>0.00</temp>
<bpm>0</bpm>
<rpm>0.00</rpm>
</extensions>
</trkpt>
<trkpt lat="31.230819702" lon="34.797225952">
<ele>262.718750</ele>
<time>2013-11-19T08:35:44Z</time>
<speed>0.110000</speed>
<extensions>
<speed>0.1</speed>
<temp>0.00</temp>
<bpm>0</bpm>
<rpm>0.00</rpm>
</extensions>
</trkpt>
<trkpt lat="31.230817795" lon="34.797180176">
<ele>262.000000</ele>
<time>2013-11-19T08:35:49Z</time>
<speed>2.570000</speed>
<extensions>
<speed>2.6</speed>
<temp>0.00</temp>
<bpm>0</bpm>
<rpm>0.00</rpm>
</extensions>
</trkpt>
<trkpt lat="31.230813980" lon="34.797031403">
<ele>262.882813</ele>
<time>2013-11-19T08:35:54Z</time>
<speed>2.120000</speed>
<extensions>
<speed>2.1</speed>
<temp>0.00</temp>
<bpm>0</bpm>
<rpm>0.00</rpm>
</extensions>
</trkpt>
<trkpt lat="31.230823517" lon="34.796894073">
<ele>262.937500</ele>
<time>2013-11-19T08:35:59Z</time>
<speed>4.030000</speed>
<extensions>
<speed>4.0</speed>
<temp>0.00</temp>
<bpm>0</bpm>
<rpm>0.00</rpm>
</extensions>
</trkpt>
<trkpt lat="31.230739594" lon="34.796703339">
<ele>263.148438</ele>
<time>2013-11-19T08:36:04Z</time>
<speed>5.000000</speed>
<extensions>
<speed>5.0</speed>
<temp>0.00</temp>
<bpm>0</bpm>
<rpm>0.00</rpm>
</extensions>
</trkpt>
<trkpt lat="31.230636597" lon="34.796470642">
<ele>265.343750</ele>
<time>2013-11-19T08:36:09Z</time>
<speed>6.030000</speed>
<extensions>
<speed>6.0</speed>
<temp>0.00</temp>
<bpm>0</bpm>
<rpm>0.00</rpm>
</extensions>
</trkpt>
<trkpt lat="31.230527878" lon="34.796222687">
<ele>267.679688</ele>
<time>2013-11-19T08:36:14Z</time>
<speed>5.030000</speed>
<extensions>
<speed>5.0</speed>
<temp>0.00</temp>
<bpm>0</bpm>
<rpm>0.00</rpm>
</extensions>
</trkpt>
<trkpt lat="31.230394363" lon="34.796001434">
<ele>271.718750</ele>
<time>2013-11-19T08:36:19Z</time>
<speed>4.920000</speed>
<extensions>
<speed>4.9</speed>
<temp>0.00</temp>
<bpm>0</bpm>
<rpm>0.00</rpm>
</extensions>
</trkpt>
<trkpt lat="31.230278015" lon="34.795772552">
<ele>275.062500</ele>
<time>2013-11-19T08:36:24Z</time>
<speed>4.510000</speed>
<extensions>
<speed>4.5</speed>
<temp>0.00</temp>
<bpm>0</bpm>
<rpm>0.00</rpm>
</extensions>
</trkpt>
<trkpt lat="31.230169296" lon="34.795547485">
<ele>275.046875</ele>
<time>2013-11-19T08:36:29Z</time>
<speed>4.840000</speed>
<extensions>
<speed>4.8</speed>
<temp>0.00</temp>
<bpm>0</bpm>
<rpm>0.00</rpm>
</extensions>
</trkpt>
<trkpt lat="31.230093002" lon="34.795360565">
<ele>275.460938</ele>
<time>2013-11-19T08:36:34Z</time>
<speed>1.810000</speed>
<extensions>
<speed>1.8</speed>
<temp>0.00</temp>
<bpm>0</bpm>
<rpm>0.00</rpm>
</extensions>
</trkpt>
<trkpt lat="31.230062485" lon="34.795284271">
<ele>272.226563</ele>
<time>2013-11-19T08:36:39Z</time>
<speed>1.660000</speed>
<extensions>
<speed>1.7</speed>
<temp>0.00</temp>
<bpm>0</bpm>
<rpm>0.00</rpm>
</extensions>
</trkpt>
<trkpt lat="31.230119705" lon="34.795177460">
<ele>271.570313</ele>
<time>2013-11-19T08:36:44Z</time>
<speed>3.220000</speed>
<extensions>
<speed>3.2</speed>
<temp>0.00</temp>
<bpm>0</bpm>
<rpm>0.00</rpm>
</extensions>
</trkpt>
<trkpt lat="31.230285645" lon="34.795120239">
<ele>272.468750</ele>
<time>2013-11-19T08:36:49Z</time>
<speed>4.340000</speed>
<extensions>
<speed>4.3</speed>
<temp>0.00</temp>
<bpm>0</bpm>
<rpm>0.00</rpm>
</extensions>
</trkpt>
<trkpt lat="31.230466843" lon="34.795078278">
<ele>274.585938</ele>
<time>2013-11-19T08:36:54Z</time>
<speed>4.440000</speed>
<extensions>
<speed>4.4</speed>
<temp>0.00</temp>
<bpm>0</bpm>
<rpm>0.00</rpm>
</extensions>
</trkpt>
<trkpt lat="31.230680466" lon="34.795040131">
<ele>274.718750</ele>
<time>2013-11-19T08:36:59Z</time>
<speed>4.700000</speed>
<extensions>
<speed>4.7</speed>
<temp>0.00</temp>
<bpm>0</bpm>
<rpm>0.00</rpm>
</extensions>
</trkpt>
<trkpt lat="31.230890274" lon="34.795017242">
<ele>277.359375</ele>
<time>2013-11-19T08:37:04Z</time>
<speed>5.190000</speed>
<extensions>
<speed>5.2</speed>
<temp>0.00</temp>
<bpm>0</bpm>
<rpm>0.00</rpm>
</extensions>
</trkpt>
<trkpt lat="31.231101990" lon="34.794960022">
<ele>280.773438</ele>
<time>2013-11-19T08:37:09Z</time>
<speed>4.050000</speed>
<extensions>
<speed>4.0</speed>
<temp>0.00</temp>
<bpm>0</bpm>
<rpm>0.00</rpm>
</extensions>
</trkpt>
<trkpt lat="31.231348038" lon="34.794864655">
<ele>284.835938</ele>
<time>2013-11-19T08:37:14Z</time>
<speed>5.120000</speed>
<extensions>
<speed>5.1</speed>
<temp>0.00</temp>
<bpm>0</bpm>
<rpm>0.00</rpm>
</extensions>
</trkpt>
<trkpt lat="31.231565475" lon="34.794773102">
<ele>285.843750</ele>
<time>2013-11-19T08:37:19Z</time>
<speed>3.500000</speed>
<extensions>
<speed>3.5</speed>
<temp>0.00</temp>
<bpm>0</bpm>
<rpm>0.00</rpm>
</extensions>
</trkpt>
<trkpt lat="31.231744766" lon="34.794727325">
<ele>284.875000</ele>
<time>2013-11-19T08:37:24Z</time>
<speed>2.800000</speed>
<extensions>
<speed>2.8</speed>
<temp>0.00</temp>
<bpm>0</bpm>
<rpm>0.00</rpm>
</extensions>
</trkpt>
<trkpt lat="31.231788635" lon="34.794513702">
<ele>285.132813</ele>
<time>2013-11-19T08:37:29Z</time>
<speed>3.560000</speed>
<extensions>
<speed>3.6</speed>
<temp>0.00</temp>
<bpm>0</bpm>
<rpm>0.00</rpm>
</extensions>
</trkpt>
<trkpt lat="31.231758118" lon="34.794277191">
<ele>286.007813</ele>
<time>2013-11-19T08:37:34Z</time>
<speed>4.190000</speed>
<extensions>
<speed>4.2</speed>
<temp>0.00</temp>
<bpm>0</bpm>
<rpm>0.00</rpm>
</extensions>
</trkpt>
<trkpt lat="31.231723785" lon="34.794055939">
<ele>285.093750</ele>
<time>2013-11-19T08:37:39Z</time>
<speed>4.310000</speed>
<extensions>
<speed>4.3</speed>
<temp>0.00</temp>
<bpm>0</bpm>
<rpm>0.00</rpm>
</extensions>
</trkpt>
<trkpt lat="31.231740952" lon="34.793853760">
<ele>284.320313</ele>
<time>2013-11-19T08:37:44Z</time>
<speed>3.690000</speed>
<extensions>
<speed>3.7</speed>
<temp>0.00</temp>
<bpm>0</bpm>
<rpm>0.00</rpm>
</extensions>
</trkpt>
<trkpt lat="31.231899261" lon="34.793777466">
<ele>283.867188</ele>
<time>2013-11-19T08:37:49Z</time>
<speed>3.910000</speed>
<extensions>
<speed>3.9</speed>
<temp>0.00</temp>
<bpm>0</bpm>
<rpm>0.00</rpm>
</extensions>
</trkpt>
<trkpt lat="31.232091904" lon="34.793704987">
<ele>283.187500</ele>
<time>2013-11-19T08:37:54Z</time>
<speed>4.940000</speed>
<extensions>
<speed>4.9</speed>
<temp>0.00</temp>
<bpm>0</bpm>
<rpm>0.00</rpm>
</extensions>
</trkpt>
<trkpt lat="31.232175827" lon="34.793441772">
<ele>283.437500</ele>
<time>2013-11-19T08:37:59Z</time>
<speed>5.470000</speed>
<extensions>
<speed>5.5</speed>
<temp>0.00</temp>
<bpm>0</bpm>
<rpm>0.00</rpm>
</extensions>
</trkpt>
<trkpt lat="31.232158661" lon="34.793132782">
<ele>283.554688</ele>
<time>2013-11-19T08:38:04Z</time>
<speed>5.340000</speed>
<extensions>
<speed>5.3</speed>
<temp>0.00</temp>
<bpm>0</bpm>
<rpm>0.00</rpm>
</extensions>
</trkpt>
<trkpt lat="31.232177734" lon="34.792808533">
<ele>283.179688</ele>
<time>2013-11-19T08:38:09Z</time>
<speed>5.860000</speed>
<extensions>
<speed>5.9</speed>
<temp>0.00</temp>
<bpm>0</bpm>
<rpm>0.00</rpm>
</extensions>
</trkpt>
<trkpt lat="31.232173920" lon="34.792491913">
<ele>281.625000</ele>
<time>2013-11-19T08:38:14Z</time>
<speed>5.570000</speed>
<extensions>
<speed>5.6</speed>
<temp>0.00</temp>
<bpm>0</bpm>
<rpm>0.00</rpm>
</extensions>
</trkpt>
<trkpt lat="31.232170105" lon="34.792186737">
<ele>280.835938</ele>
<time>2013-11-19T08:38:19Z</time>
<speed>5.470000</speed>
<extensions>
<speed>5.5</speed>
<temp>0.00</temp>
<bpm>0</bpm>
<rpm>0.00</rpm>
</extensions>
</trkpt>
<trkpt lat="31.232162476" lon="34.791900635">
<ele>281.820313</ele>
<time>2013-11-19T08:38:24Z</time>
<speed>5.540000</speed>
<extensions>
<speed>5.5</speed>
<temp>0.00</temp>
<bpm>0</bpm>
<rpm>0.00</rpm>
</extensions>
</trkpt>
<trkpt lat="31.232156754" lon="34.791606903">
<ele>280.648438</ele>
<time>2013-11-19T08:38:29Z</time>
<speed>5.520000</speed>
<extensions>
<speed>5.5</speed>
<temp>0.00</temp>
<bpm>0</bpm>
<rpm>0.00</rpm>
</extensions>
</trkpt>
<trkpt lat="31.232149124" lon="34.791324615">
<ele>280.156250</ele>
<time>2013-11-19T08:38:34Z</time>
<speed>4.330000</speed>
<extensions>
<speed>4.3</speed>
<temp>0.00</temp>
<bpm>0</bpm>
<rpm>0.00</rpm>
</extensions>
</trkpt>
<trkpt lat="31.232240677" lon="34.791221619">
<ele>280.312500</ele>
<time>2013-11-19T08:38:39Z</time>
<speed>3.520000</speed>
<extensions>
<speed>3.5</speed>
<temp>0.00</temp>
<bpm>0</bpm>
<rpm>0.00</rpm>
</extensions>
</trkpt>
<trkpt lat="31.232419968" lon="34.791240692">
<ele>280.843750</ele>
<time>2013-11-19T08:38:44Z</time>
<speed>4.630000</speed>
<extensions>
<speed>4.6</speed>
<temp>0.00</temp>
<bpm>0</bpm>
<rpm>0.00</rpm>
</extensions>
</trkpt>
<trkpt lat="31.232633591" lon="34.791267395">
<ele>281.625000</ele>
<time>2013-11-19T08:38:49Z</time>
<speed>4.850000</speed>
<extensions>
<speed>4.8</speed>
<temp>0.00</temp>
<bpm>0</bpm>
<rpm>0.00</rpm>
</extensions>
</trkpt>
<trkpt lat="31.232851028" lon="34.791255951">
<ele>280.484375</ele>
<time>2013-11-19T08:38:54Z</time>
<speed>3.870000</speed>
<extensions>
<speed>3.9</speed>
<temp>0.00</temp>
<bpm>0</bpm>
<rpm>0.00</rpm>
</extensions>
</trkpt>
<trkpt lat="31.233007431" lon="34.791248322">
<ele>279.421875</ele>
<time>2013-11-19T08:38:59Z</time>
<speed>3.150000</speed>
<extensions>
<speed>3.2</speed>
<temp>0.00</temp>
<bpm>0</bpm>
<rpm>0.00</rpm>
</extensions>
</trkpt>
<trkpt lat="31.233104706" lon="34.791267395">
<ele>279.781250</ele>
<time>2013-11-19T08:39:04Z</time>
<speed>0.110000</speed>
<extensions>
<speed>0.1</speed>
<temp>0.00</temp>
<bpm>0</bpm>
<rpm>0.00</rpm>
</extensions>
</trkpt>
<trkpt lat="31.233100891" lon="34.791271210">
<ele>279.828125</ele>
<time>2013-11-19T08:39:09Z</time>
<speed>0.010000</speed>
<extensions>
<speed>0.0</speed>
<temp>0.00</temp>
<bpm>0</bpm>
<rpm>0.00</rpm>
</extensions>
</trkpt>
<trkpt lat="31.233100891" lon="34.791271210">
<ele>279.851563</ele>
<time>2013-11-19T08:39:14Z</time>
<speed>0.130000</speed>
<extensions>
<speed>0.1</speed>
<temp>0.00</temp>
<bpm>0</bpm>
<rpm>0.00</rpm>
</extensions>
</trkpt>
<trkpt lat="31.233106613" lon="34.791267395">
<ele>279.695313</ele>
<time>2013-11-19T08:39:19Z</time>
<extensions>
<speed>0.0</speed>
<temp>0.00</temp>
<bpm>0</bpm>
<rpm>0.00</rpm>
</extensions>
</trkpt>
<trkpt lat="31.233108521" lon="34.791263580">
<ele>279.570313</ele>
<time>2013-11-19T08:39:24Z</time>
<extensions>
<speed>0.0</speed>
<temp>0.00</temp>
<bpm>0</bpm>
<rpm>0.00</rpm>
</extensions>
</trkpt>
<trkpt lat="31.233112335" lon="34.791259766">
<ele>279.390625</ele>
<time>2013-11-19T08:39:29Z</time>
<speed>0.550000</speed>
<extensions>
<speed>0.6</speed>
<temp>0.00</temp>
<bpm>0</bpm>
<rpm>0.00</rpm>
</extensions>
</trkpt>
<trkpt lat="31.233123779" lon="34.791275024">
<ele>279.750000</ele>
<time>2013-11-19T08:39:34Z</time>
<speed>0.100000</speed>
<extensions>
<speed>0.1</speed>
<temp>0.00</temp>
<bpm>0</bpm>
<rpm>0.00</rpm>
</extensions>
</trkpt>
<trkpt lat="31.233121872" lon="34.791271210">
<ele>279.648438</ele>
<time>2013-11-19T08:39:39Z</time>
<speed>0.040000</speed>
<extensions>
<speed>0.0</speed>
<temp>0.00</temp>
<bpm>0</bpm>
<rpm>0.00</rpm>
</extensions>
</trkpt>
<trkpt lat="31.233123779" lon="34.791271210">
<ele>279.390625</ele>
<time>2013-11-19T08:39:44Z</time>
<speed>0.090000</speed>
<extensions>
<speed>0.1</speed>
<temp>0.00</temp>
<bpm>0</bpm>
<rpm>0.00</rpm>
</extensions>
</trkpt>
<trkpt lat="31.233131409" lon="34.791271210">
<ele>279.054688</ele>
<time>2013-11-19T08:39:49Z</time>
<speed>0.980000</speed>
<extensions>
<speed>1.0</speed>
<temp>0.00</temp>
<bpm>0</bpm>
<rpm>0.00</rpm>
</extensions>
</trkpt>
<trkpt lat="31.233110428" lon="34.791252136">
<ele>281.656250</ele>
<time>2013-11-19T08:39:54Z</time>
<speed>1.390000</speed>
<extensions>
<speed>1.4</speed>
<temp>0.00</temp>
<bpm>0</bpm>
<rpm>0.00</rpm>
</extensions>
</trkpt>
<trkpt lat="31.233057022" lon="34.791252136">
<ele>283.093750</ele>
<time>2013-11-19T08:39:59Z</time>
<speed>0.680000</speed>
<extensions>
<speed>0.7</speed>
<temp>0.00</temp>
<bpm>0</bpm>
<rpm>0.00</rpm>
</extensions>
</trkpt>
<trkpt lat="31.232976913" lon="34.791267395">
<ele>286.140625</ele>
<time>2013-11-19T08:40:04Z</time>
<speed>1.040000</speed>
<extensions>
<speed>1.0</speed>
<temp>0.00</temp>
<bpm>0</bpm>
<rpm>0.00</rpm>
</extensions>
</trkpt>
<trkpt lat="31.232919693" lon="34.791282654">
<ele>287.265625</ele>
<time>2013-11-19T08:40:09Z</time>
<speed>1.660000</speed>
<extensions>
<speed>1.7</speed>
<temp>0.00</temp>
<bpm>0</bpm>
<rpm>0.00</rpm>
</extensions>
</trkpt>
<trkpt lat="31.232837677" lon="34.791286469">
<ele>288.804688</ele>
<time>2013-11-19T08:40:14Z</time>
<speed>1.660000</speed>
<extensions>
<speed>1.7</speed>
<temp>0.00</temp>
<bpm>0</bpm>
<rpm>0.00</rpm>
</extensions>
</trkpt>
<trkpt lat="31.232755661" lon="34.791267395">
<ele>288.515625</ele>
<time>2013-11-19T08:40:19Z</time>
<speed>1.660000</speed>
<extensions>
<speed>1.7</speed>
<temp>0.00</temp>
<bpm>0</bpm>
<rpm>0.00</rpm>
</extensions>
</trkpt>
<trkpt lat="31.232677460" lon="34.791271210">
<ele>288.273438</ele>
<time>2013-11-19T08:40:24Z</time>
<speed>1.690000</speed>
<extensions>
<speed>1.7</speed>
<temp>0.00</temp>
<bpm>0</bpm>
<rpm>0.00</rpm>
</extensions>
</trkpt>
<trkpt lat="31.232587814" lon="34.791259766">
<ele>287.835938</ele>
<time>2013-11-19T08:40:29Z</time>
<speed>1.750000</speed>
<extensions>
<speed>1.8</speed>
<temp>0.00</temp>
<bpm>0</bpm>
<rpm>0.00</rpm>
</extensions>
</trkpt>
<trkpt lat="31.232505798" lon="34.791229248">
<ele>287.140625</ele>
<time>2013-11-19T08:40:34Z</time>
<speed>1.310000</speed>
<extensions>
<speed>1.3</speed>
<temp>0.00</temp>
<bpm>0</bpm>
<rpm>0.00</rpm>
</extensions>
</trkpt>
<trkpt lat="31.232284546" lon="34.791149139">
<ele>288.687500</ele>
<time>2013-11-19T08:40:39Z</time>
<speed>3.770000</speed>
<extensions>
<speed>3.8</speed>
<temp>0.00</temp>
<bpm>0</bpm>
<rpm>0.00</rpm>
</extensions>
</trkpt>
<trkpt lat="31.232181549" lon="34.791152954">
<ele>291.156250</ele>
<time>2013-11-19T08:40:44Z</time>
<speed>2.960000</speed>
<extensions>
<speed>3.0</speed>
<temp>0.00</temp>
<bpm>0</bpm>
<rpm>0.00</rpm>
</extensions>
</trkpt>
<trkpt lat="31.232084274" lon="34.791145325">
<ele>292.500000</ele>
<time>2013-11-19T08:40:49Z</time>
<speed>2.610000</speed>
<extensions>
<speed>2.6</speed>
<temp>0.00</temp>
<bpm>0</bpm>
<rpm>0.00</rpm>
</extensions>
</trkpt>
<trkpt lat="31.231979370" lon="34.791149139">
<ele>292.789063</ele>
<time>2013-11-19T08:40:54Z</time>
<speed>2.760000</speed>
<extensions>
<speed>2.8</speed>
<temp>0.00</temp>
<bpm>0</bpm>
<rpm>0.00</rpm>
</extensions>
</trkpt>
<trkpt lat="31.231863022" lon="34.791152954">
<ele>291.609375</ele>
<time>2013-11-19T08:40:59Z</time>
<speed>1.820000</speed>
<extensions>
<speed>1.8</speed>
<temp>0.00</temp>
<bpm>0</bpm>
<rpm>0.00</rpm>
</extensions>
</trkpt>
<trkpt lat="31.231792450" lon="34.791160583">
<ele>289.328125</ele>
<time>2013-11-19T08:41:04Z</time>
<speed>1.800000</speed>
<extensions>
<speed>1.8</speed>
<temp>0.00</temp>
<bpm>0</bpm>
<rpm>0.00</rpm>
</extensions>
</trkpt>
<trkpt lat="31.231706619" lon="34.791172028">
<ele>288.382813</ele>
<time>2013-11-19T08:41:09Z</time>
<speed>1.730000</speed>
<extensions>
<speed>1.7</speed>
<temp>0.00</temp>
<bpm>0</bpm>
<rpm>0.00</rpm>
</extensions>
</trkpt>
<trkpt lat="31.231628418" lon="34.791198730">
<ele>285.593750</ele>
<time>2013-11-19T08:41:14Z</time>
<speed>1.800000</speed>
<extensions>
<speed>1.8</speed>
<temp>0.00</temp>
<bpm>0</bpm>
<rpm>0.00</rpm>
</extensions>
</trkpt>
<trkpt lat="31.231519699" lon="34.791202545">
<ele>283.765625</ele>
<time>2013-11-19T08:41:19Z</time>
<speed>2.150000</speed>
<extensions>
<speed>2.1</speed>
<temp>0.00</temp>
<bpm>0</bpm>
<rpm>0.00</rpm>
</extensions>
</trkpt>
<trkpt lat="31.231431961" lon="34.791233063">
<ele>285.125000</ele>
<time>2013-11-19T08:41:24Z</time>
<speed>2.010000</speed>
<extensions>
<speed>2.0</speed>
<temp>0.00</temp>
<bpm>0</bpm>
<rpm>0.00</rpm>
</extensions>
</trkpt>
<trkpt lat="31.231332779" lon="34.791252136">
<ele>283.617188</ele>
<time>2013-11-19T08:41:29Z</time>
<speed>2.190000</speed>
<extensions>
<speed>2.2</speed>
<temp>0.00</temp>
<bpm>0</bpm>
<rpm>0.00</rpm>
</extensions>
</trkpt>
<trkpt lat="31.231222153" lon="34.791278839">
<ele>282.109375</ele>
<time>2013-11-19T08:41:34Z</time>
<speed>1.900000</speed>
<extensions>
<speed>1.9</speed>
<temp>0.00</temp>
<bpm>0</bpm>
<rpm>0.00</rpm>
</extensions>
</trkpt>
<trkpt lat="31.231088638" lon="34.791263580">
<ele>278.117188</ele>
<time>2013-11-19T08:41:39Z</time>
<speed>2.430000</speed>
<extensions>
<speed>2.4</speed>
<temp>0.00</temp>
<bpm>0</bpm>
<rpm>0.00</rpm>
</extensions>
</trkpt>
<trkpt lat="31.231004715" lon="34.791278839">
<ele>275.265625</ele>
<time>2013-11-19T08:41:44Z</time>
<speed>2.130000</speed>
<extensions>
<speed>2.1</speed>
<temp>0.00</temp>
<bpm>0</bpm>
<rpm>0.00</rpm>
</extensions>
</trkpt>
<trkpt lat="31.230897903" lon="34.791294098">
<ele>271.218750</ele>
<time>2013-11-19T08:41:49Z</time>
<speed>2.700000</speed>
<extensions>
<speed>2.7</speed>
<temp>0.00</temp>
<bpm>0</bpm>
<rpm>0.00</rpm>
</extensions>
</trkpt>
<trkpt lat="31.230792999" lon="34.791316986">
<ele>270.210938</ele>
<time>2013-11-19T08:41:54Z</time>
<speed>1.600000</speed>
<extensions>
<speed>1.6</speed>
<temp>0.00</temp>
<bpm>0</bpm>
<rpm>0.00</rpm>
</extensions>
</trkpt>
<trkpt lat="31.230686188" lon="34.791385651">
<ele>268.804688</ele>
<time>2013-11-19T08:41:59Z</time>
<speed>2.580000</speed>
<extensions>
<speed>2.6</speed>
<temp>0.00</temp>
<bpm>0</bpm>
<rpm>0.00</rpm>
</extensions>
</trkpt>
<trkpt lat="31.230567932" lon="34.791439056">
<ele>266.437500</ele>
<time>2013-11-19T08:42:04Z</time>
<speed>2.340000</speed>
<extensions>
<speed>2.3</speed>
<temp>0.00</temp>
<bpm>0</bpm>
<rpm>0.00</rpm>
</extensions>
</trkpt>
<trkpt lat="31.230451584" lon="34.791442871">
<ele>265.125000</ele>
<time>2013-11-19T08:42:09Z</time>
<speed>2.180000</speed>
<extensions>
<speed>2.2</speed>
<temp>0.00</temp>
<bpm>0</bpm>
<rpm>0.00</rpm>
</extensions>
</trkpt>
<trkpt lat="31.230306625" lon="34.791427612">
<ele>268.453125</ele>
<time>2013-11-19T08:42:14Z</time>
<speed>2.230000</speed>
<extensions>
<speed>2.2</speed>
<temp>0.00</temp>
<bpm>0</bpm>
<rpm>0.00</rpm>
</extensions>
</trkpt>
<trkpt lat="31.230224609" lon="34.791484833">
<ele>266.421875</ele>
<time>2013-11-19T08:42:19Z</time>
<speed>1.830000</speed>
<extensions>
<speed>1.8</speed>
<temp>0.00</temp>
<bpm>0</bpm>
<rpm>0.00</rpm>
</extensions>
</trkpt>
<trkpt lat="31.230112076" lon="34.791542053">
<ele>263.562500</ele>
<time>2013-11-19T08:42:24Z</time>
<speed>2.940000</speed>
<extensions>
<speed>2.9</speed>
<temp>0.00</temp>
<bpm>0</bpm>
<rpm>0.00</rpm>
</extensions>
</trkpt>
<trkpt lat="31.229991913" lon="34.791599274">
<ele>262.914063</ele>
<time>2013-11-19T08:42:29Z</time>
<speed>2.430000</speed>
<extensions>
<speed>2.4</speed>
<temp>0.00</temp>
<bpm>0</bpm>
<rpm>0.00</rpm>
</extensions>
</trkpt>
<trkpt lat="31.229848862" lon="34.791671753">
<ele>262.507813</ele>
<time>2013-11-19T08:42:34Z</time>
<speed>2.980000</speed>
<extensions>
<speed>3.0</speed>
<temp>0.00</temp>
<bpm>0</bpm>
<rpm>0.00</rpm>
</extensions>
</trkpt>
<trkpt lat="31.229705811" lon="34.791770935">
<ele>260.726563</ele>
<time>2013-11-19T08:42:39Z</time>
<speed>3.870000</speed>
<extensions>
<speed>3.9</speed>
<temp>0.00</temp>
<bpm>0</bpm>
<rpm>0.00</rpm>
</extensions>
</trkpt>
<trkpt lat="31.229524612" lon="34.791847229">
<ele>259.460938</ele>
<time>2013-11-19T08:42:44Z</time>
<speed>4.050000</speed>
<extensions>
<speed>4.0</speed>
<temp>0.00</temp>
<bpm>0</bpm>
<rpm>0.00</rpm>
</extensions>
</trkpt>
<trkpt lat="31.229337692" lon="34.791866302">
<ele>256.335938</ele>
<time>2013-11-19T08:42:49Z</time>
<speed>4.150000</speed>
<extensions>
<speed>4.1</speed>
<temp>0.00</temp>
<bpm>0</bpm>
<rpm>0.00</rpm>
</extensions>
</trkpt>
<trkpt lat="31.229173660" lon="34.791938782">
<ele>256.429688</ele>
<time>2013-11-19T08:42:54Z</time>
<speed>3.730000</speed>
<extensions>
<speed>3.7</speed>
<temp>0.00</temp>
<bpm>0</bpm>
<rpm>0.00</rpm>
</extensions>
</trkpt>
<trkpt lat="31.229038239" lon="34.792034149">
<ele>258.648438</ele>
<time>2013-11-19T08:42:59Z</time>
<speed>2.980000</speed>
<extensions>
<speed>3.0</speed>
<temp>0.00</temp>
<bpm>0</bpm>
<rpm>0.00</rpm>
</extensions>
</trkpt>
<trkpt lat="31.228908539" lon="34.792068481">
<ele>261.757813</ele>
<time>2013-11-19T08:43:04Z</time>
<speed>1.690000</speed>
<extensions>
<speed>1.7</speed>
<temp>0.00</temp>
<bpm>0</bpm>
<rpm>0.00</rpm>
</extensions>
</trkpt>
<trkpt lat="31.228763580" lon="34.792068481">
<ele>257.085938</ele>
<time>2013-11-19T08:43:09Z</time>
<speed>2.350000</speed>
<extensions>
<speed>2.4</speed>
<temp>0.00</temp>
<bpm>0</bpm>
<rpm>0.00</rpm>
</extensions>
</trkpt>
<trkpt lat="31.228651047" lon="34.792106628">
<ele>255.421875</ele>
<time>2013-11-19T08:43:14Z</time>
<speed>1.990000</speed>
<extensions>
<speed>2.0</speed>
<temp>0.00</temp>
<bpm>0</bpm>
<rpm>0.00</rpm>
</extensions>
</trkpt>
<trkpt lat="31.228557587" lon="34.792125702">
<ele>254.406250</ele>
<time>2013-11-19T08:43:19Z</time>
<speed>2.310000</speed>
<extensions>
<speed>2.3</speed>
<temp>0.00</temp>
<bpm>0</bpm>
<rpm>0.00</rpm>
</extensions>
</trkpt>
<trkpt lat="31.228450775" lon="34.792148590">
<ele>252.585938</ele>
<time>2013-11-19T08:43:24Z</time>
<speed>2.350000</speed>
<extensions>
<speed>2.4</speed>
<temp>0.00</temp>
<bpm>0</bpm>
<rpm>0.00</rpm>
</extensions>
</trkpt>
<trkpt lat="31.228353500" lon="34.792156219">
<ele>255.011719</ele>
<time>2013-11-19T08:43:29Z</time>
<speed>2.230000</speed>
<extensions>
<speed>2.2</speed>
<temp>0.00</temp>
<bpm>0</bpm>
<rpm>0.00</rpm>
</extensions>
</trkpt>
<trkpt lat="31.228271484" lon="34.792224884">
<ele>257.054688</ele>
<time>2013-11-19T08:43:34Z</time>
<speed>2.560000</speed>
<extensions>
<speed>2.6</speed>
<temp>0.00</temp>
<bpm>0</bpm>
<rpm>0.00</rpm>
</extensions>
</trkpt>
<trkpt lat="31.228206635" lon="34.792369843">
<ele>258.101563</ele>
<time>2013-11-19T08:43:39Z</time>
<speed>3.160000</speed>
<extensions>
<speed>3.2</speed>
<temp>0.00</temp>
<bpm>0</bpm>
<rpm>0.00</rpm>
</extensions>
</trkpt>
<trkpt lat="31.228214264" lon="34.792591095">
<ele>263.140625</ele>
<time>2013-11-19T08:43:44Z</time>
<speed>3.560000</speed>
<extensions>
<speed>3.6</speed>
<temp>0.00</temp>
<bpm>0</bpm>
<rpm>0.00</rpm>
</extensions>
</trkpt>
<trkpt lat="31.228290558" lon="34.792800903">
<ele>267.601563</ele>
<time>2013-11-19T08:43:49Z</time>
<speed>3.310000</speed>
<extensions>
<speed>3.3</speed>
<temp>0.00</temp>
<bpm>0</bpm>
<rpm>0.00</rpm>
</extensions>
</trkpt>
<trkpt lat="31.228315353" lon="34.792922974">
<ele>272.257813</ele>
<time>2013-11-19T08:43:54Z</time>
<speed>1.860000</speed>
<extensions>
<speed>1.9</speed>
<temp>0.00</temp>
<bpm>0</bpm>
<rpm>0.00</rpm>
</extensions>
</trkpt>
<trkpt lat="31.228307724" lon="34.793003082">
<ele>275.625000</ele>
<time>2013-11-19T08:43:59Z</time>
<speed>1.690000</speed>
<extensions>
<speed>1.7</speed>
<temp>0.00</temp>
<bpm>0</bpm>
<rpm>0.00</rpm>
</extensions>
</trkpt>
<trkpt lat="31.228246689" lon="34.793029785">
<ele>276.617188</ele>
<time>2013-11-19T08:44:04Z</time>
<speed>2.300000</speed>
<extensions>
<speed>2.3</speed>
<temp>0.00</temp>
<bpm>0</bpm>
<rpm>0.00</rpm>
</extensions>
</trkpt>
<trkpt lat="31.228239059" lon="34.792919159">
<ele>275.578125</ele>
<time>2013-11-19T08:44:09Z</time>
<speed>2.060000</speed>
<extensions>
<speed>2.1</speed>
<temp>0.00</temp>
<bpm>0</bpm>
<rpm>0.00</rpm>
</extensions>
</trkpt>
<trkpt lat="31.228235245" lon="34.792778015">
<ele>274.156250</ele>
<time>2013-11-19T08:44:14Z</time>
<speed>2.410000</speed>
<extensions>
<speed>2.4</speed>
<temp>0.00</temp>
<bpm>0</bpm>
<rpm>0.00</rpm>
</extensions>
</trkpt>
<trkpt lat="31.228240967" lon="34.792602539">
<ele>272.937500</ele>
<time>2013-11-19T08:44:19Z</time>
<speed>3.370000</speed>
<extensions>
<speed>3.4</speed>
<temp>0.00</temp>
<bpm>0</bpm>
<rpm>0.00</rpm>
</extensions>
</trkpt>
<trkpt lat="31.228202820" lon="34.792503357">
<ele>272.000000</ele>
<time>2013-11-19T08:44:24Z</time>
<speed>1.650000</speed>
<extensions>
<speed>1.7</speed>
<temp>0.00</temp>
<bpm>0</bpm>
<rpm>0.00</rpm>
</extensions>
</trkpt>
<trkpt lat="31.228216171" lon="34.792430878">
<ele>271.804688</ele>
<time>2013-11-19T08:44:29Z</time>
<speed>2.320000</speed>
<extensions>
<speed>2.3</speed>
<temp>0.00</temp>
<bpm>0</bpm>
<rpm>0.00</rpm>
</extensions>
</trkpt>
<trkpt lat="31.228269577" lon="34.792289734">
<ele>271.906250</ele>
<time>2013-11-19T08:44:34Z</time>
<speed>3.110000</speed>
<extensions>
<speed>3.1</speed>
<temp>0.00</temp>
<bpm>0</bpm>
<rpm>0.00</rpm>
</extensions>
</trkpt>
<trkpt lat="31.228214264" lon="34.792110443">
<ele>269.960938</ele>
<time>2013-11-19T08:44:39Z</time>
<speed>4.890000</speed>
<extensions>
<speed>4.9</speed>
<temp>0.00</temp>
<bpm>0</bpm>
<rpm>0.00</rpm>
</extensions>
</trkpt>
<trkpt lat="31.228086472" lon="34.791885376">
<ele>265.632813</ele>
<time>2013-11-19T08:44:44Z</time>
<speed>4.430000</speed>
<extensions>
<speed>4.4</speed>
<temp>0.00</temp>
<bpm>0</bpm>
<rpm>0.00</rpm>
</extensions>
</trkpt>
<trkpt lat="31.227968216" lon="34.791618347">
<ele>263.148438</ele>
<time>2013-11-19T08:44:49Z</time>
<speed>6.160000</speed>
<extensions>
<speed>6.2</speed>
<temp>0.00</temp>
<bpm>0</bpm>
<rpm>0.00</rpm>
</extensions>
</trkpt>
<trkpt lat="31.227914810" lon="34.791301727">
<ele>259.359375</ele>
<time>2013-11-19T08:44:54Z</time>
<speed>5.900000</speed>
<extensions>
<speed>5.9</speed>
<temp>0.00</temp>
<bpm>0</bpm>
<rpm>0.00</rpm>
</extensions>
</trkpt>
<trkpt lat="31.227920532" lon="34.791007996">
<ele>256.632813</ele>
<time>2013-11-19T08:44:59Z</time>
<speed>4.950000</speed>
<extensions>
<speed>4.9</speed>
<temp>0.00</temp>
<bpm>0</bpm>
<rpm>0.00</rpm>
</extensions>
</trkpt>
<trkpt lat="31.227832794" lon="34.790802002">
<ele>254.382813</ele>
<time>2013-11-19T08:45:04Z</time>
<speed>3.560000</speed>
<extensions>
<speed>3.6</speed>
<temp>0.00</temp>
<bpm>0</bpm>
<rpm>0.00</rpm>
</extensions>
</trkpt>
<trkpt lat="31.227745056" lon="34.790733337">
<ele>251.339844</ele>
<time>2013-11-19T08:45:09Z</time>
<speed>1.470000</speed>
<extensions>
<speed>1.5</speed>
<temp>0.00</temp>
<bpm>0</bpm>
<rpm>0.00</rpm>
</extensions>
</trkpt>
<trkpt lat="31.227674484" lon="34.790786743">
<ele>249.003906</ele>
<time>2013-11-19T08:45:14Z</time>
<speed>2.770000</speed>
<extensions>
<speed>2.8</speed>
<temp>0.00</temp>
<bpm>0</bpm>
<rpm>0.00</rpm>
</extensions>
</trkpt>
<trkpt lat="31.227659225" lon="34.790943146">
<ele>247.683594</ele>
<time>2013-11-19T08:45:19Z</time>
<speed>3.680000</speed>
<extensions>
<speed>3.7</speed>
<temp>0.00</temp>
<bpm>0</bpm>
<rpm>0.00</rpm>
</extensions>
</trkpt>
<trkpt lat="31.227638245" lon="34.791122437">
<ele>246.894531</ele>
<time>2013-11-19T08:45:24Z</time>
<speed>3.560000</speed>
<extensions>
<speed>3.6</speed>
<temp>0.00</temp>
<bpm>0</bpm>
<rpm>0.00</rpm>
</extensions>
</trkpt>
<trkpt lat="31.227584839" lon="34.791339874">
<ele>245.761719</ele>
<time>2013-11-19T08:45:29Z</time>
<speed>3.880000</speed>
<extensions>
<speed>3.9</speed>
<temp>0.00</temp>
<bpm>0</bpm>
<rpm>0.00</rpm>
</extensions>
</trkpt>
<trkpt lat="31.227571487" lon="34.791549683">
<ele>244.613281</ele>
<time>2013-11-19T08:45:34Z</time>
<speed>4.060000</speed>
<extensions>
<speed>4.1</speed>
<temp>0.00</temp>
<bpm>0</bpm>
<rpm>0.00</rpm>
</extensions>
</trkpt>
<trkpt lat="31.227531433" lon="34.791782379">
<ele>243.472656</ele>
<time>2013-11-19T08:45:39Z</time>
<speed>4.520000</speed>
<extensions>
<speed>4.5</speed>
<temp>0.00</temp>
<bpm>0</bpm>
<rpm>0.00</rpm>
</extensions>
</trkpt>
<trkpt lat="31.227540970" lon="34.792026520">
<ele>242.058594</ele>
<time>2013-11-19T08:45:44Z</time>
<speed>4.420000</speed>
<extensions>
<speed>4.4</speed>
<temp>0.00</temp>
<bpm>0</bpm>
<rpm>0.00</rpm>
</extensions>
</trkpt>
<trkpt lat="31.227523804" lon="34.792270660">
<ele>240.875000</ele>
<time>2013-11-19T08:45:49Z</time>
<speed>4.410000</speed>
<extensions>
<speed>4.4</speed>
<temp>0.00</temp>
<bpm>0</bpm>
<rpm>0.00</rpm>
</extensions>
</trkpt>
<trkpt lat="31.227493286" lon="34.792507172">
<ele>239.070313</ele>
<time>2013-11-19T08:45:54Z</time>
<speed>3.950000</speed>
<extensions>
<speed>4.0</speed>
<temp>0.00</temp>
<bpm>0</bpm>
<rpm>0.00</rpm>
</extensions>
</trkpt>
<trkpt lat="31.227497101" lon="34.792751312">
<ele>237.921875</ele>
<time>2013-11-19T08:45:59Z</time>
<speed>4.540000</speed>
<extensions>
<speed>4.5</speed>
<temp>0.00</temp>
<bpm>0</bpm>
<rpm>0.00</rpm>
</extensions>
</trkpt>
<trkpt lat="31.227478027" lon="34.792999268">
<ele>236.472656</ele>
<time>2013-11-19T08:46:04Z</time>
<speed>4.780000</speed>
<extensions>
<speed>4.8</speed>
<temp>0.00</temp>
<bpm>0</bpm>
<rpm>0.00</rpm>
</extensions>
</trkpt>
<trkpt lat="31.227481842" lon="34.793262482">
<ele>235.664063</ele>
<time>2013-11-19T08:46:09Z</time>
<speed>4.190000</speed>
<extensions>
<speed>4.2</speed>
<temp>0.00</temp>
<bpm>0</bpm>
<rpm>0.00</rpm>
</extensions>
</trkpt>
<trkpt lat="31.227493286" lon="34.793487549">
<ele>234.933594</ele>
<time>2013-11-19T08:46:14Z</time>
<speed>3.970000</speed>
<extensions>
<speed>4.0</speed>
<temp>0.00</temp>
<bpm>0</bpm>
<rpm>0.00</rpm>
</extensions>
</trkpt>
<trkpt lat="31.227462769" lon="34.793716431">
<ele>234.683594</ele>
<time>2013-11-19T08:46:19Z</time>
<speed>4.510000</speed>
<extensions>
<speed>4.5</speed>
<temp>0.00</temp>
<bpm>0</bpm>
<rpm>0.00</rpm>
</extensions>
</trkpt>
<trkpt lat="31.227462769" lon="34.793960571">
<ele>234.359375</ele>
<time>2013-11-19T08:46:24Z</time>
<speed>4.620000</speed>
<extensions>
<speed>4.6</speed>
<temp>0.00</temp>
<bpm>0</bpm>
<rpm>0.00</rpm>
</extensions>
</trkpt>
<trkpt lat="31.227447510" lon="34.794219971">
<ele>234.320313</ele>
<time>2013-11-19T08:46:29Z</time>
<speed>4.490000</speed>
<extensions>
<speed>4.5</speed>
<temp>0.00</temp>
<bpm>0</bpm>
<rpm>0.00</rpm>
</extensions>
</trkpt>
<trkpt lat="31.227424622" lon="34.794448853">
<ele>234.523438</ele>
<time>2013-11-19T08:46:34Z</time>
<speed>4.950000</speed>
<extensions>
<speed>4.9</speed>
<temp>0.00</temp>
<bpm>0</bpm>
<rpm>0.00</rpm>
</extensions>
</trkpt>
<trkpt lat="31.227390289" lon="34.794677734">
<ele>234.746094</ele>
<time>2013-11-19T08:46:39Z</time>
<speed>3.730000</speed>
<extensions>
<speed>3.7</speed>
<temp>0.00</temp>
<bpm>0</bpm>
<rpm>0.00</rpm>
</extensions>
</trkpt>
<trkpt lat="31.227378845" lon="34.794837952">
<ele>234.269531</ele>
<time>2013-11-19T08:46:44Z</time>
<speed>2.990000</speed>
<extensions>
<speed>3.0</speed>
<temp>0.00</temp>
<bpm>0</bpm>
<rpm>0.00</rpm>
</extensions>
</trkpt>
<trkpt lat="31.227397919" lon="34.795021057">
<ele>234.410156</ele>
<time>2013-11-19T08:46:49Z</time>
<speed>3.390000</speed>
<extensions>
<speed>3.4</speed>
<temp>0.00</temp>
<bpm>0</bpm>
<rpm>0.00</rpm>
</extensions>
</trkpt>
<trkpt lat="31.227405548" lon="34.795246124">
<ele>234.750000</ele>
<time>2013-11-19T08:46:54Z</time>
<speed>4.060000</speed>
<extensions>
<speed>4.1</speed>
<temp>0.00</temp>
<bpm>0</bpm>
<rpm>0.00</rpm>
</extensions>
</trkpt>
<trkpt lat="31.227373123" lon="34.795486450">
<ele>234.578125</ele>
<time>2013-11-19T08:46:59Z</time>
<speed>4.690000</speed>
<extensions>
<speed>4.7</speed>
<temp>0.00</temp>
<bpm>0</bpm>
<rpm>0.00</rpm>
</extensions>
</trkpt>
<trkpt lat="31.227346420" lon="34.795749664">
<ele>233.898438</ele>
<time>2013-11-19T08:47:04Z</time>
<speed>4.580000</speed>
<extensions>
<speed>4.6</speed>
<temp>0.00</temp>
<bpm>0</bpm>
<rpm>0.00</rpm>
</extensions>
</trkpt>
<trkpt lat="31.227313995" lon="34.795989990">
<ele>234.496094</ele>
<time>2013-11-19T08:47:09Z</time>
<speed>4.540000</speed>
<extensions>
<speed>4.5</speed>
<temp>0.00</temp>
<bpm>0</bpm>
<rpm>0.00</rpm>
</extensions>
</trkpt>
<trkpt lat="31.227302551" lon="34.796241760">
<ele>234.066406</ele>
<time>2013-11-19T08:47:14Z</time>
<speed>4.900000</speed>
<extensions>
<speed>4.9</speed>
<temp>0.00</temp>
<bpm>0</bpm>
<rpm>0.00</rpm>
</extensions>
</trkpt>
<trkpt lat="31.227327347" lon="34.796501160">
<ele>235.113281</ele>
<time>2013-11-19T08:47:19Z</time>
<speed>4.660000</speed>
<extensions>
<speed>4.7</speed>
<temp>0.00</temp>
<bpm>0</bpm>
<rpm>0.00</rpm>
</extensions>
</trkpt>
<trkpt lat="31.227340698" lon="34.796741486">
<ele>235.511719</ele>
<time>2013-11-19T08:47:24Z</time>
<speed>3.950000</speed>
<extensions>
<speed>4.0</speed>
<temp>0.00</temp>
<bpm>0</bpm>
<rpm>0.00</rpm>
</extensions>
</trkpt>
<trkpt lat="31.227329254" lon="34.796890259">
<ele>232.882813</ele>
<time>2013-11-19T08:47:29Z</time>
<speed>2.310000</speed>
<extensions>
<speed>2.3</speed>
<temp>0.00</temp>
<bpm>0</bpm>
<rpm>0.00</rpm>
</extensions>
</trkpt>
<trkpt lat="31.227338791" lon="34.796985626">
<ele>232.843750</ele>
<time>2013-11-19T08:47:34Z</time>
<speed>1.540000</speed>
<extensions>
<speed>1.5</speed>
<temp>0.00</temp>
<bpm>0</bpm>
<rpm>0.00</rpm>
</extensions>
</trkpt>
<trkpt lat="31.227340698" lon="34.797100067">
<ele>231.593750</ele>
<time>2013-11-19T08:47:39Z</time>
<speed>2.150000</speed>
<extensions>
<speed>2.1</speed>
<temp>0.00</temp>
<bpm>0</bpm>
<rpm>0.00</rpm>
</extensions>
</trkpt>
<trkpt lat="31.227350235" lon="34.797203064">
<ele>232.148438</ele>
<time>2013-11-19T08:47:44Z</time>
<speed>1.710000</speed>
<extensions>
<speed>1.7</speed>
<temp>0.00</temp>
<bpm>0</bpm>
<rpm>0.00</rpm>
</extensions>
</trkpt>
<trkpt lat="31.227344513" lon="34.797279358">
<ele>231.742188</ele>
<time>2013-11-19T08:47:49Z</time>
<speed>1.560000</speed>
<extensions>
<speed>1.6</speed>
<temp>0.00</temp>
<bpm>0</bpm>
<rpm>0.00</rpm>
</extensions>
</trkpt>
<trkpt lat="31.227375031" lon="34.797389984">
<ele>232.179688</ele>
<time>2013-11-19T08:47:54Z</time>
<speed>2.650000</speed>
<extensions>
<speed>2.6</speed>
<temp>0.00</temp>
<bpm>0</bpm>
<rpm>0.00</rpm>
</extensions>
</trkpt>
<trkpt lat="31.227458954" lon="34.797477722">
<ele>232.710938</ele>
<time>2013-11-19T08:47:59Z</time>
<speed>2.730000</speed>
<extensions>
<speed>2.7</speed>
<temp>0.00</temp>
<bpm>0</bpm>
<rpm>0.00</rpm>
</extensions>
</trkpt>
<trkpt lat="31.227565765" lon="34.797508240">
<ele>233.824219</ele>
<time>2013-11-19T08:48:04Z</time>
<speed>2.000000</speed>
<extensions>
<speed>2.0</speed>
<temp>0.00</temp>
<bpm>0</bpm>
<rpm>0.00</rpm>
</extensions>
</trkpt>
<trkpt lat="31.227630615" lon="34.797519684">
<ele>234.695313</ele>
<time>2013-11-19T08:48:09Z</time>
<speed>1.110000</speed>
<extensions>
<speed>1.1</speed>
<temp>0.00</temp>
<bpm>0</bpm>
<rpm>0.00</rpm>
</extensions>
</trkpt>
<trkpt lat="31.227546692" lon="34.797561646">
<ele>234.046875</ele>
<time>2013-11-19T08:48:14Z</time>
<speed>2.410000</speed>
<extensions>
<speed>2.4</speed>
<temp>0.00</temp>
<bpm>0</bpm>
<rpm>0.00</rpm>
</extensions>
</trkpt>
<trkpt lat="31.227348328" lon="34.797584534">
<ele>230.515625</ele>
<time>2013-11-19T08:48:19Z</time>
<speed>4.800000</speed>
<extensions>
<speed>4.8</speed>
<temp>0.00</temp>
<bpm>0</bpm>
<rpm>0.00</rpm>
</extensions>
</trkpt>
<trkpt lat="31.227096558" lon="34.797592163">
<ele>228.847656</ele>
<time>2013-11-19T08:48:24Z</time>
<speed>5.630000</speed>
<extensions>
<speed>5.6</speed>
<temp>0.00</temp>
<bpm>0</bpm>
<rpm>0.00</rpm>
</extensions>
</trkpt>
<trkpt lat="31.226854324" lon="34.797595978">
<ele>229.750000</ele>
<time>2013-11-19T08:48:29Z</time>
<speed>4.770000</speed>
<extensions>
<speed>4.8</speed>
<temp>0.00</temp>
<bpm>0</bpm>
<rpm>0.00</rpm>
</extensions>
</trkpt>
<trkpt lat="31.226640701" lon="34.797611237">
<ele>229.941406</ele>
<time>2013-11-19T08:48:34Z</time>
<speed>4.790000</speed>
<extensions>
<speed>4.8</speed>
<temp>0.00</temp>
<bpm>0</bpm>
<rpm>0.00</rpm>
</extensions>
</trkpt>
<trkpt lat="31.226434708" lon="34.797645569">
<ele>230.746094</ele>
<time>2013-11-19T08:48:39Z</time>
<speed>4.590000</speed>
<extensions>
<speed>4.6</speed>
<temp>0.00</temp>
<bpm>0</bpm>
<rpm>0.00</rpm>
</extensions>
</trkpt>
<trkpt lat="31.226228714" lon="34.797683716">
<ele>231.066406</ele>
<time>2013-11-19T08:48:44Z</time>
<speed>5.060000</speed>
<extensions>
<speed>5.1</speed>
<temp>0.00</temp>
<bpm>0</bpm>
<rpm>0.00</rpm>
</extensions>
</trkpt>
<trkpt lat="31.225997925" lon="34.797725677">
<ele>230.921875</ele>
<time>2013-11-19T08:48:49Z</time>
<speed>4.890000</speed>
<extensions>
<speed>4.9</speed>
<temp>0.00</temp>
<bpm>0</bpm>
<rpm>0.00</rpm>
</extensions>
</trkpt>
<trkpt lat="31.225774765" lon="34.797760010">
<ele>231.445313</ele>
<time>2013-11-19T08:48:54Z</time>
<speed>5.020000</speed>
<extensions>
<speed>5.0</speed>
<temp>0.00</temp>
<bpm>0</bpm>
<rpm>0.00</rpm>
</extensions>
</trkpt>
<trkpt lat="31.225559235" lon="34.797790527">
<ele>231.765625</ele>
<time>2013-11-19T08:48:59Z</time>
<speed>3.760000</speed>
<extensions>
<speed>3.8</speed>
<temp>0.00</temp>
<bpm>0</bpm>
<rpm>0.00</rpm>
</extensions>
</trkpt>
<trkpt lat="31.225410461" lon="34.797843933">
<ele>232.140625</ele>
<time>2013-11-19T08:49:04Z</time>
<speed>3.170000</speed>
<extensions>
<speed>3.2</speed>
<temp>0.00</temp>
<bpm>0</bpm>
<rpm>0.00</rpm>
</extensions>
</trkpt>
<trkpt lat="31.225255966" lon="34.797885895">
<ele>232.949219</ele>
<time>2013-11-19T08:49:09Z</time>
<speed>3.340000</speed>
<extensions>
<speed>3.3</speed>
<temp>0.00</temp>
<bpm>0</bpm>
<rpm>0.00</rpm>
</extensions>
</trkpt>
<trkpt lat="31.225084305" lon="34.797977448">
<ele>234.621094</ele>
<time>2013-11-19T08:49:14Z</time>
<speed>5.080000</speed>
<extensions>
<speed>5.1</speed>
<temp>0.00</temp>
<bpm>0</bpm>
<rpm>0.00</rpm>
</extensions>
</trkpt>
<trkpt lat="31.224870682" lon="34.798053741">
<ele>233.617188</ele>
<time>2013-11-19T08:49:19Z</time>
<speed>5.280000</speed>
<extensions>
<speed>5.3</speed>
<temp>0.00</temp>
<bpm>0</bpm>
<rpm>0.00</rpm>
</extensions>
</trkpt>
<trkpt lat="31.224643707" lon="34.798118591">
<ele>231.625000</ele>
<time>2013-11-19T08:49:24Z</time>
<speed>4.040000</speed>
<extensions>
<speed>4.0</speed>
<temp>0.00</temp>
<bpm>0</bpm>
<rpm>0.00</rpm>
</extensions>
</trkpt>
<trkpt lat="31.224428177" lon="34.798210144">
<ele>230.417969</ele>
<time>2013-11-19T08:49:29Z</time>
<speed>5.250000</speed>
<extensions>
<speed>5.2</speed>
<temp>0.00</temp>
<bpm>0</bpm>
<rpm>0.00</rpm>
</extensions>
</trkpt>
<trkpt lat="31.224222183" lon="34.798332214">
<ele>229.589844</ele>
<time>2013-11-19T08:49:34Z</time>
<speed>6.220000</speed>
<extensions>
<speed>6.2</speed>
<temp>0.00</temp>
<bpm>0</bpm>
<rpm>0.00</rpm>
</extensions>
</trkpt>
<trkpt lat="31.224002838" lon="34.798385620">
<ele>228.996094</ele>
<time>2013-11-19T08:49:39Z</time>
<speed>4.370000</speed>
<extensions>
<speed>4.4</speed>
<temp>0.00</temp>
<bpm>0</bpm>
<rpm>0.00</rpm>
</extensions>
</trkpt>
<trkpt lat="31.223831177" lon="34.798458099">
<ele>228.964844</ele>
<time>2013-11-19T08:49:44Z</time>
<speed>4.670000</speed>
<extensions>
<speed>4.7</speed>
<temp>0.00</temp>
<bpm>0</bpm>
<rpm>0.00</rpm>
</extensions>
</trkpt>
<trkpt lat="31.223653793" lon="34.798519135">
<ele>229.789063</ele>
<time>2013-11-19T08:49:49Z</time>
<speed>3.790000</speed>
<extensions>
<speed>3.8</speed>
<temp>0.00</temp>
<bpm>0</bpm>
<rpm>0.00</rpm>
</extensions>
</trkpt>
<trkpt lat="31.223501205" lon="34.798564911">
<ele>231.054688</ele>
<time>2013-11-19T08:49:54Z</time>
<speed>2.240000</speed>
<extensions>
<speed>2.2</speed>
<temp>0.00</temp>
<bpm>0</bpm>
<rpm>0.00</rpm>
</extensions>
</trkpt>
<trkpt lat="31.223398209" lon="34.798652649">
<ele>233.042969</ele>
<time>2013-11-19T08:49:59Z</time>
<speed>1.590000</speed>
<extensions>
<speed>1.6</speed>
<temp>0.00</temp>
<bpm>0</bpm>
<rpm>0.00</rpm>
</extensions>
</trkpt>
<trkpt lat="31.223333359" lon="34.798694611">
<ele>235.480469</ele>
<time>2013-11-19T08:50:04Z</time>
<speed>1.460000</speed>
<extensions>
<speed>1.5</speed>
<temp>0.00</temp>
<bpm>0</bpm>
<rpm>0.00</rpm>
</extensions>
</trkpt>
<trkpt lat="31.223289490" lon="34.798732758">
<ele>237.695313</ele>
<time>2013-11-19T08:50:09Z</time>
<speed>1.560000</speed>
<extensions>
<speed>1.6</speed>
<temp>0.00</temp>
<bpm>0</bpm>
<rpm>0.00</rpm>
</extensions>
</trkpt>
<trkpt lat="31.223316193" lon="34.798831940">
<ele>239.644531</ele>
<time>2013-11-19T08:50:14Z</time>
<speed>0.810000</speed>
<extensions>
<speed>0.8</speed>
<temp>0.00</temp>
<bpm>0</bpm>
<rpm>0.00</rpm>
</extensions>
</trkpt>
<trkpt lat="31.223354340" lon="34.798927307">
<ele>242.781250</ele>
<time>2013-11-19T08:50:19Z</time>
<speed>1.800000</speed>
<extensions>
<speed>1.8</speed>
<temp>0.00</temp>
<bpm>0</bpm>
<rpm>0.00</rpm>
</extensions>
</trkpt>
<trkpt lat="31.223396301" lon="34.799045563">
<ele>245.625000</ele>
<time>2013-11-19T08:50:24Z</time>
<speed>2.880000</speed>
<extensions>
<speed>2.9</speed>
<temp>0.00</temp>
<bpm>0</bpm>
<rpm>0.00</rpm>
</extensions>
</trkpt>
<trkpt lat="31.223449707" lon="34.799205780">
<ele>246.902344</ele>
<time>2013-11-19T08:50:29Z</time>
<speed>1.600000</speed>
<extensions>
<speed>1.6</speed>
<temp>0.00</temp>
<bpm>0</bpm>
<rpm>0.00</rpm>
</extensions>
</trkpt>
<trkpt lat="31.223476410" lon="34.799285889">
<ele>246.570313</ele>
<time>2013-11-19T08:50:34Z</time>
<speed>0.920000</speed>
<extensions>
<speed>0.9</speed>
<temp>0.00</temp>
<bpm>0</bpm>
<rpm>0.00</rpm>
</extensions>
</trkpt>
<trkpt lat="31.223478317" lon="34.799312592">
<ele>245.410156</ele>
<time>2013-11-19T08:50:39Z</time>
<speed>0.010000</speed>
<extensions>
<speed>0.0</speed>
<temp>0.00</temp>
<bpm>0</bpm>
<rpm>0.00</rpm>
</extensions>
</trkpt>
<trkpt lat="31.223468781" lon="34.799327850">
<ele>245.101563</ele>
<time>2013-11-19T08:50:44Z</time>
<extensions>
<speed>0.0</speed>
<temp>0.00</temp>
<bpm>0</bpm>
<rpm>0.00</rpm>
</extensions>
</trkpt>
<trkpt lat="31.223461151" lon="34.799354553">
<ele>245.265625</ele>
<time>2013-11-19T08:50:49Z</time>
<speed>1.520000</speed>
<extensions>
<speed>1.5</speed>
<temp>0.00</temp>
<bpm>0</bpm>
<rpm>0.00</rpm>
</extensions>
</trkpt>
<trkpt lat="31.223495483" lon="34.799530029">
<ele>246.046875</ele>
<time>2013-11-19T08:50:54Z</time>
<speed>3.220000</speed>
<extensions>
<speed>3.2</speed>
<temp>0.00</temp>
<bpm>0</bpm>
<rpm>0.00</rpm>
</extensions>
</trkpt>
<trkpt lat="31.223581314" lon="34.799751282">
<ele>246.710938</ele>
<time>2013-11-19T08:50:59Z</time>
<speed>3.540000</speed>
<extensions>
<speed>3.5</speed>
<temp>0.00</temp>
<bpm>0</bpm>
<rpm>0.00</rpm>
</extensions>
</trkpt>
<trkpt lat="31.223598480" lon="34.799896240">
<ele>247.132813</ele>
<time>2013-11-19T08:51:04Z</time>
<speed>2.410000</speed>
<extensions>
<speed>2.4</speed>
<temp>0.00</temp>
<bpm>0</bpm>
<rpm>0.00</rpm>
</extensions>
</trkpt>
<trkpt lat="31.223482132" lon="34.799934387">
<ele>248.941406</ele>
<time>2013-11-19T08:51:09Z</time>
<speed>3.540000</speed>
<extensions>
<speed>3.5</speed>
<temp>0.00</temp>
<bpm>0</bpm>
<rpm>0.00</rpm>
</extensions>
</trkpt>
<trkpt lat="31.223325729" lon="34.799972534">
<ele>249.941406</ele>
<time>2013-11-19T08:51:14Z</time>
<speed>4.040000</speed>
<extensions>
<speed>4.0</speed>
<temp>0.00</temp>
<bpm>0</bpm>
<rpm>0.00</rpm>
</extensions>
</trkpt>
<trkpt lat="31.223112106" lon="34.799995422">
<ele>252.226563</ele>
<time>2013-11-19T08:51:19Z</time>
<speed>4.420000</speed>
<extensions>
<speed>4.4</speed>
<temp>0.00</temp>
<bpm>0</bpm>
<rpm>0.00</rpm>
</extensions>
</trkpt>
<trkpt lat="31.222927094" lon="34.800060272">
<ele>253.609375</ele>
<time>2013-11-19T08:51:24Z</time>
<speed>3.360000</speed>
<extensions>
<speed>3.4</speed>
<temp>0.00</temp>
<bpm>0</bpm>
<rpm>0.00</rpm>
</extensions>
</trkpt>
<trkpt lat="31.222715378" lon="34.800125122">
<ele>255.339844</ele>
<time>2013-11-19T08:51:29Z</time>
<speed>3.700000</speed>
<extensions>
<speed>3.7</speed>
<temp>0.00</temp>
<bpm>0</bpm>
<rpm>0.00</rpm>
</extensions>
</trkpt>
<trkpt lat="31.222507477" lon="34.800197601">
<ele>257.375000</ele>
<time>2013-11-19T08:51:34Z</time>
<speed>3.950000</speed>
<extensions>
<speed>4.0</speed>
<temp>0.00</temp>
<bpm>0</bpm>
<rpm>0.00</rpm>
</extensions>
</trkpt>
<trkpt lat="31.222312927" lon="34.800254822">
<ele>260.023438</ele>
<time>2013-11-19T08:51:39Z</time>
<speed>3.690000</speed>
<extensions>
<speed>3.7</speed>
<temp>0.00</temp>
<bpm>0</bpm>
<rpm>0.00</rpm>
</extensions>
</trkpt>
<trkpt lat="31.222099304" lon="34.800342560">
<ele>262.421875</ele>
<time>2013-11-19T08:51:44Z</time>
<speed>4.390000</speed>
<extensions>
<speed>4.4</speed>
<temp>0.00</temp>
<bpm>0</bpm>
<rpm>0.00</rpm>
</extensions>
</trkpt>
<trkpt lat="31.221899033" lon="34.800434113">
<ele>264.781250</ele>
<time>2013-11-19T08:51:49Z</time>
<speed>4.340000</speed>
<extensions>
<speed>4.3</speed>
<temp>0.00</temp>
<bpm>0</bpm>
<rpm>0.00</rpm>
</extensions>
</trkpt>
<trkpt lat="31.221721649" lon="34.800464630">
<ele>266.882813</ele>
<time>2013-11-19T08:51:54Z</time>
<speed>4.050000</speed>
<extensions>
<speed>4.0</speed>
<temp>0.00</temp>
<bpm>0</bpm>
<rpm>0.00</rpm>
</extensions>
</trkpt>
<trkpt lat="31.221538544" lon="34.800540924">
<ele>268.203125</ele>
<time>2013-11-19T08:51:59Z</time>
<speed>4.170000</speed>
<extensions>
<speed>4.2</speed>
<temp>0.00</temp>
<bpm>0</bpm>
<rpm>0.00</rpm>
</extensions>
</trkpt>
<trkpt lat="31.221357346" lon="34.800582886">
<ele>269.570313</ele>
<time>2013-11-19T08:52:04Z</time>
<speed>4.500000</speed>
<extensions>
<speed>4.5</speed>
<temp>0.00</temp>
<bpm>0</bpm>
<rpm>0.00</rpm>
</extensions>
</trkpt>
<trkpt lat="31.221187592" lon="34.800678253">
<ele>270.265625</ele>
<time>2013-11-19T08:52:09Z</time>
<speed>4.290000</speed>
<extensions>
<speed>4.3</speed>
<temp>0.00</temp>
<bpm>0</bpm>
<rpm>0.00</rpm>
</extensions>
</trkpt>
<trkpt lat="31.221044540" lon="34.800830841">
<ele>267.992188</ele>
<time>2013-11-19T08:52:14Z</time>
<speed>3.810000</speed>
<extensions>
<speed>3.8</speed>
<temp>0.00</temp>
<bpm>0</bpm>
<rpm>0.00</rpm>
</extensions>
</trkpt>
<trkpt lat="31.221103668" lon="34.801109314">
<ele>267.132813</ele>
<time>2013-11-19T08:52:19Z</time>
<speed>4.820000</speed>
<extensions>
<speed>4.8</speed>
<temp>0.00</temp>
<bpm>0</bpm>
<rpm>0.00</rpm>
</extensions>
</trkpt>
<trkpt lat="31.221187592" lon="34.801380157">
<ele>267.289063</ele>
<time>2013-11-19T08:52:24Z</time>
<speed>4.660000</speed>
<extensions>
<speed>4.7</speed>
<temp>0.00</temp>
<bpm>0</bpm>
<rpm>0.00</rpm>
</extensions>
</trkpt>
<trkpt lat="31.221076965" lon="34.801551819">
<ele>266.992188</ele>
<time>2013-11-19T08:52:29Z</time>
<speed>5.070000</speed>
<extensions>
<speed>5.1</speed>
<temp>0.00</temp>
<bpm>0</bpm>
<rpm>0.00</rpm>
</extensions>
</trkpt>
<trkpt lat="31.220849991" lon="34.801616669">
<ele>264.234375</ele>
<time>2013-11-19T08:52:34Z</time>
<speed>5.350000</speed>
<extensions>
<speed>5.4</speed>
<temp>0.00</temp>
<bpm>0</bpm>
<rpm>0.00</rpm>
</extensions>
</trkpt>
<trkpt lat="31.220611572" lon="34.801685333">
<ele>263.578125</ele>
<time>2013-11-19T08:52:39Z</time>
<speed>4.380000</speed>
<extensions>
<speed>4.4</speed>
<temp>0.00</temp>
<bpm>0</bpm>
<rpm>0.00</rpm>
</extensions>
</trkpt>
<trkpt lat="31.220399857" lon="34.801757813">
<ele>262.343750</ele>
<time>2013-11-19T08:52:44Z</time>
<speed>4.950000</speed>
<extensions>
<speed>4.9</speed>
<temp>0.00</temp>
<bpm>0</bpm>
<rpm>0.00</rpm>
</extensions>
</trkpt>
<trkpt lat="31.220201492" lon="34.801780701">
<ele>259.312500</ele>
<time>2013-11-19T08:52:49Z</time>
<speed>2.080000</speed>
<extensions>
<speed>2.1</speed>
<temp>0.00</temp>
<bpm>0</bpm>
<rpm>0.00</rpm>
</extensions>
</trkpt>
<trkpt lat="31.220109940" lon="34.801773071">
<ele>258.609375</ele>
<time>2013-11-19T08:52:54Z</time>
<speed>3.070000</speed>
<extensions>
<speed>3.1</speed>
<temp>0.00</temp>
<bpm>0</bpm>
<rpm>0.00</rpm>
</extensions>
</trkpt>
<trkpt lat="31.220083237" lon="34.801914215">
<ele>256.296875</ele>
<time>2013-11-19T08:52:59Z</time>
<speed>3.540000</speed>
<extensions>
<speed>3.5</speed>
<temp>0.00</temp>
<bpm>0</bpm>
<rpm>0.00</rpm>
</extensions>
</trkpt>
<trkpt lat="31.220094681" lon="34.802120209">
<ele>253.941406</ele>
<time>2013-11-19T08:53:04Z</time>
<speed>4.320000</speed>
<extensions>
<speed>4.3</speed>
<temp>0.00</temp>
<bpm>0</bpm>
<rpm>0.00</rpm>
</extensions>
</trkpt>
<trkpt lat="31.220090866" lon="34.802345276">
<ele>252.539063</ele>
<time>2013-11-19T08:53:09Z</time>
<speed>3.770000</speed>
<extensions>
<speed>3.8</speed>
<temp>0.00</temp>
<bpm>0</bpm>
<rpm>0.00</rpm>
</extensions>
</trkpt>
<trkpt lat="31.220113754" lon="34.802551270">
<ele>250.687500</ele>
<time>2013-11-19T08:53:14Z</time>
<speed>4.280000</speed>
<extensions>
<speed>4.3</speed>
<temp>0.00</temp>
<bpm>0</bpm>
<rpm>0.00</rpm>
</extensions>
</trkpt>
<trkpt lat="31.220108032" lon="34.802772522">
<ele>248.238281</ele>
<time>2013-11-19T08:53:19Z</time>
<speed>3.990000</speed>
<extensions>
<speed>4.0</speed>
<temp>0.00</temp>
<bpm>0</bpm>
<rpm>0.00</rpm>
</extensions>
</trkpt>
<trkpt lat="31.220088959" lon="34.802970886">
<ele>246.589844</ele>
<time>2013-11-19T08:53:24Z</time>
<speed>3.260000</speed>
<extensions>
<speed>3.3</speed>
<temp>0.00</temp>
<bpm>0</bpm>
<rpm>0.00</rpm>
</extensions>
</trkpt>
<trkpt lat="31.220060349" lon="34.803112030">
<ele>242.246094</ele>
<time>2013-11-19T08:53:29Z</time>
<speed>2.850000</speed>
<extensions>
<speed>2.9</speed>
<temp>0.00</temp>
<bpm>0</bpm>
<rpm>0.00</rpm>
</extensions>
</trkpt>
<trkpt lat="31.220130920" lon="34.803359985">
<ele>241.621094</ele>
<time>2013-11-19T08:53:34Z</time>
<speed>4.640000</speed>
<extensions>
<speed>4.6</speed>
<temp>0.00</temp>
<bpm>0</bpm>
<rpm>0.00</rpm>
</extensions>
</trkpt>
<trkpt lat="31.220188141" lon="34.803619385">
<ele>242.582031</ele>
<time>2013-11-19T08:53:39Z</time>
<speed>4.660000</speed>
<extensions>
<speed>4.7</speed>
<temp>0.00</temp>
<bpm>0</bpm>
<rpm>0.00</rpm>
</extensions>
</trkpt>
<trkpt lat="31.220188141" lon="34.803825378">
<ele>241.648438</ele>
<time>2013-11-19T08:53:44Z</time>
<speed>4.380000</speed>
<extensions>
<speed>4.4</speed>
<temp>0.00</temp>
<bpm>0</bpm>
<rpm>0.00</rpm>
</extensions>
</trkpt>
<trkpt lat="31.220167160" lon="34.804046631">
<ele>241.089844</ele>
<time>2013-11-19T08:53:49Z</time>
<speed>3.960000</speed>
<extensions>
<speed>4.0</speed>
<temp>0.00</temp>
<bpm>0</bpm>
<rpm>0.00</rpm>
</extensions>
</trkpt>
<trkpt lat="31.220155716" lon="34.804248810">
<ele>238.644531</ele>
<time>2013-11-19T08:53:54Z</time>
<speed>2.570000</speed>
<extensions>
<speed>2.6</speed>
<temp>0.00</temp>
<bpm>0</bpm>
<rpm>0.00</rpm>
</extensions>
</trkpt>
<trkpt lat="31.220140457" lon="34.804374695">
<ele>239.277344</ele>
<time>2013-11-19T08:53:59Z</time>
<speed>1.850000</speed>
<extensions>
<speed>1.8</speed>
<temp>0.00</temp>
<bpm>0</bpm>
<rpm>0.00</rpm>
</extensions>
</trkpt>
<trkpt lat="31.220129013" lon="34.804466248">
<ele>239.554688</ele>
<time>2013-11-19T08:54:04Z</time>
<speed>1.590000</speed>
<extensions>
<speed>1.6</speed>
<temp>0.00</temp>
<bpm>0</bpm>
<rpm>0.00</rpm>
</extensions>
</trkpt>
<trkpt lat="31.220157623" lon="34.804489136">
<ele>240.140625</ele>
<time>2013-11-19T08:54:09Z</time>
<speed>0.010000</speed>
<extensions>
<speed>0.0</speed>
<temp>0.00</temp>
<bpm>0</bpm>
<rpm>0.00</rpm>
</extensions>
</trkpt>
<trkpt lat="31.220155716" lon="34.804489136">
<ele>239.898438</ele>
<time>2013-11-19T08:54:14Z</time>
<extensions>
<speed>0.0</speed>
<temp>0.00</temp>
<bpm>0</bpm>
<rpm>0.00</rpm>
</extensions>
</trkpt>
<trkpt lat="31.220157623" lon="34.804489136">
<ele>239.921875</ele>
<time>2013-11-19T08:54:19Z</time>
<extensions>
<speed>0.0</speed>
<temp>0.00</temp>
<bpm>0</bpm>
<rpm>0.00</rpm>
</extensions>
</trkpt>
<trkpt lat="31.220157623" lon="34.804489136">
<ele>239.976563</ele>
<time>2013-11-19T08:54:24Z</time>
<speed>0.010000</speed>
<extensions>
<speed>0.0</speed>
<temp>0.00</temp>
<bpm>0</bpm>
<rpm>0.00</rpm>
</extensions>
</trkpt>
<trkpt lat="31.220155716" lon="34.804489136">
<ele>239.960938</ele>
<time>2013-11-19T08:54:29Z</time>
<speed>0.010000</speed>
<extensions>
<speed>0.0</speed>
<temp>0.00</temp>
<bpm>0</bpm>
<rpm>0.00</rpm>
</extensions>
</trkpt>
<trkpt lat="31.220155716" lon="34.804489136">
<ele>239.894531</ele>
<time>2013-11-19T08:54:34Z</time>
<extensions>
<speed>0.0</speed>
<temp>0.00</temp>
<bpm>0</bpm>
<rpm>0.00</rpm>
</extensions>
</trkpt>
<trkpt lat="31.220155716" lon="34.804492950">
<ele>239.789063</ele>
<time>2013-11-19T08:54:39Z</time>
<speed>0.010000</speed>
<extensions>
<speed>0.0</speed>
<temp>0.00</temp>
<bpm>0</bpm>
<rpm>0.00</rpm>
</extensions>
</trkpt>
<trkpt lat="31.220155716" lon="34.804492950">
<ele>239.757813</ele>
<time>2013-11-19T08:54:44Z</time>
<speed>0.160000</speed>
<extensions>
<speed>0.2</speed>
<temp>0.00</temp>
<bpm>0</bpm>
<rpm>0.00</rpm>
</extensions>
</trkpt>
<trkpt lat="31.220157623" lon="34.804492950">
<ele>239.769531</ele>
<time>2013-11-19T08:54:49Z</time>
<speed>0.030000</speed>
<extensions>
<speed>0.0</speed>
<temp>0.00</temp>
<bpm>0</bpm>
<rpm>0.00</rpm>
</extensions>
</trkpt>
<trkpt lat="31.220157623" lon="34.804492950">
<ele>239.742188</ele>
<time>2013-11-19T08:54:54Z</time>
<speed>0.010000</speed>
<extensions>
<speed>0.0</speed>
<temp>0.00</temp>
<bpm>0</bpm>
<rpm>0.00</rpm>
</extensions>
</trkpt>
<trkpt lat="31.220157623" lon="34.804492950">
<ele>239.730469</ele>
<time>2013-11-19T08:54:59Z</time>
<speed>0.010000</speed>
<extensions>
<speed>0.0</speed>
<temp>0.00</temp>
<bpm>0</bpm>
<rpm>0.00</rpm>
</extensions>
</trkpt>
<trkpt lat="31.220157623" lon="34.804492950">
<ele>239.742188</ele>
<time>2013-11-19T08:55:04Z</time>
<speed>0.010000</speed>
<extensions>
<speed>0.0</speed>
<temp>0.00</temp>
<bpm>0</bpm>
<rpm>0.00</rpm>
</extensions>
</trkpt>
<trkpt lat="31.220159531" lon="34.804492950">
<ele>239.757813</ele>
<time>2013-11-19T08:55:09Z</time>
<speed>0.010000</speed>
<extensions>
<speed>0.0</speed>
<temp>0.00</temp>
<bpm>0</bpm>
<rpm>0.00</rpm>
</extensions>
</trkpt>
<trkpt lat="31.220159531" lon="34.804492950">
<ele>239.750000</ele>
<time>2013-11-19T08:55:14Z</time>
<extensions>
<speed>0.0</speed>
<temp>0.00</temp>
<bpm>0</bpm>
<rpm>0.00</rpm>
</extensions>
</trkpt>
<trkpt lat="31.220159531" lon="34.804492950">
<ele>239.738281</ele>
<time>2013-11-19T08:55:19Z</time>
<extensions>
<speed>0.0</speed>
<temp>0.00</temp>
<bpm>0</bpm>
<rpm>0.00</rpm>
</extensions>
</trkpt>
<trkpt lat="31.220159531" lon="34.804492950">
<ele>239.730469</ele>
<time>2013-11-19T08:55:24Z</time>
<extensions>
<speed>0.0</speed>
<temp>0.00</temp>
<bpm>0</bpm>
<rpm>0.00</rpm>
</extensions>
</trkpt>
<trkpt lat="31.220159531" lon="34.804492950">
<ele>239.730469</ele>
<time>2013-11-19T08:55:29Z</time>
<speed>0.010000</speed>
<extensions>
<speed>0.0</speed>
<temp>0.00</temp>
<bpm>0</bpm>
<rpm>0.00</rpm>
</extensions>
</trkpt>
<trkpt lat="31.220161438" lon="34.804492950">
<ele>239.726563</ele>
<time>2013-11-19T08:55:34Z</time>
<extensions>
<speed>0.0</speed>
<temp>0.00</temp>
<bpm>0</bpm>
<rpm>0.00</rpm>
</extensions>
</trkpt>
<trkpt lat="31.220161438" lon="34.804492950">
<ele>239.734375</ele>
<time>2013-11-19T08:55:39Z</time>
<speed>0.540000</speed>
<extensions>
<speed>0.5</speed>
<temp>0.00</temp>
<bpm>0</bpm>
<rpm>0.00</rpm>
</extensions>
</trkpt>
<trkpt lat="31.220247269" lon="34.804485321">
<ele>240.164063</ele>
<time>2013-11-19T08:55:44Z</time>
<speed>2.070000</speed>
<extensions>
<speed>2.1</speed>
<temp>0.00</temp>
<bpm>0</bpm>
<rpm>0.00</rpm>
</extensions>
</trkpt>
<trkpt lat="31.220357895" lon="34.804466248">
<ele>241.773438</ele>
<time>2013-11-19T08:55:49Z</time>
<speed>2.500000</speed>
<extensions>
<speed>2.5</speed>
<temp>0.00</temp>
<bpm>0</bpm>
<rpm>0.00</rpm>
</extensions>
</trkpt>
<trkpt lat="31.220460892" lon="34.804435730">
<ele>244.878906</ele>
<time>2013-11-19T08:55:54Z</time>
<speed>2.230000</speed>
<extensions>
<speed>2.2</speed>
<temp>0.00</temp>
<bpm>0</bpm>
<rpm>0.00</rpm>
</extensions>
</trkpt>
<trkpt lat="31.220544815" lon="34.804439545">
<ele>245.691406</ele>
<time>2013-11-19T08:55:59Z</time>
<speed>0.060000</speed>
<extensions>
<speed>0.1</speed>
<temp>0.00</temp>
<bpm>0</bpm>
<rpm>0.00</rpm>
</extensions>
</trkpt>
<trkpt lat="31.220558167" lon="34.804447174">
<ele>247.355469</ele>
<time>2013-11-19T08:56:04Z</time>
<speed>0.040000</speed>
<extensions>
<speed>0.0</speed>
<temp>0.00</temp>
<bpm>0</bpm>
<rpm>0.00</rpm>
</extensions>
</trkpt>
<trkpt lat="31.220556259" lon="34.804443359">
<ele>246.804688</ele>
<time>2013-11-19T08:56:09Z</time>
<speed>0.040000</speed>
<extensions>
<speed>0.0</speed>
<temp>0.00</temp>
<bpm>0</bpm>
<rpm>0.00</rpm>
</extensions>
</trkpt>
<trkpt lat="31.220554352" lon="34.804443359">
<ele>246.226563</ele>
<time>2013-11-19T08:56:14Z</time>
<speed>0.060000</speed>
<extensions>
<speed>0.1</speed>
<temp>0.00</temp>
<bpm>0</bpm>
<rpm>0.00</rpm>
</extensions>
</trkpt>
<trkpt lat="31.220552444" lon="34.804439545">
<ele>245.625000</ele>
<time>2013-11-19T08:56:19Z</time>
<speed>0.060000</speed>
<extensions>
<speed>0.1</speed>
<temp>0.00</temp>
<bpm>0</bpm>
<rpm>0.00</rpm>
</extensions>
</trkpt>
<trkpt lat="31.220550537" lon="34.804439545">
<ele>245.062500</ele>
<time>2013-11-19T08:56:24Z</time>
<speed>0.070000</speed>
<extensions>
<speed>0.1</speed>
<temp>0.00</temp>
<bpm>0</bpm>
<rpm>0.00</rpm>
</extensions>
</trkpt>
<trkpt lat="31.220548630" lon="34.804435730">
<ele>244.597656</ele>
<time>2013-11-19T08:56:29Z</time>
<speed>0.050000</speed>
<extensions>
<speed>0.1</speed>
<temp>0.00</temp>
<bpm>0</bpm>
<rpm>0.00</rpm>
</extensions>
</trkpt>
<trkpt lat="31.220546722" lon="34.804435730">
<ele>244.300781</ele>
<time>2013-11-19T08:56:34Z</time>
<speed>0.020000</speed>
<extensions>
<speed>0.0</speed>
<temp>0.00</temp>
<bpm>0</bpm>
<rpm>0.00</rpm>
</extensions>
</trkpt>
<trkpt lat="31.220546722" lon="34.804435730">
<ele>244.351563</ele>
<time>2013-11-19T08:56:39Z</time>
<extensions>
<speed>0.0</speed>
<temp>0.00</temp>
<bpm>0</bpm>
<rpm>0.00</rpm>
</extensions>
</trkpt>
<trkpt lat="31.220546722" lon="34.804435730">
<ele>244.441406</ele>
<time>2013-11-19T08:56:44Z</time>
<extensions>
<speed>0.0</speed>
<temp>0.00</temp>
<bpm>0</bpm>
<rpm>0.00</rpm>
</extensions>
</trkpt>
<trkpt lat="31.220546722" lon="34.804435730">
<ele>244.496094</ele>
<time>2013-11-19T08:56:49Z</time>
<extensions>
<speed>0.0</speed>
<temp>0.00</temp>
<bpm>0</bpm>
<rpm>0.00</rpm>
</extensions>
</trkpt>
<trkpt lat="31.220546722" lon="34.804435730">
<ele>244.554688</ele>
<time>2013-11-19T08:56:54Z</time>
<speed>0.010000</speed>
<extensions>
<speed>0.0</speed>
<temp>0.00</temp>
<bpm>0</bpm>
<rpm>0.00</rpm>
</extensions>
</trkpt>
<trkpt lat="31.220546722" lon="34.804435730">
<ele>244.671875</ele>
<time>2013-11-19T08:56:59Z</time>
<extensions>
<speed>0.0</speed>
<temp>0.00</temp>
<bpm>0</bpm>
<rpm>0.00</rpm>
</extensions>
</trkpt>
<trkpt lat="31.220546722" lon="34.804435730">
<ele>244.761719</ele>
<time>2013-11-19T08:57:04Z</time>
<speed>0.010000</speed>
<extensions>
<speed>0.0</speed>
<temp>0.00</temp>
<bpm>0</bpm>
<rpm>0.00</rpm>
</extensions>
</trkpt>
<trkpt lat="31.220546722" lon="34.804435730">
<ele>244.851563</ele>
<time>2013-11-19T08:57:09Z</time>
<speed>0.020000</speed>
<extensions>
<speed>0.0</speed>
<temp>0.00</temp>
<bpm>0</bpm>
<rpm>0.00</rpm>
</extensions>
</trkpt>
<trkpt lat="31.220548630" lon="34.804435730">
<ele>244.960938</ele>
<time>2013-11-19T08:57:14Z</time>
<speed>0.010000</speed>
<extensions>
<speed>0.0</speed>
<temp>0.00</temp>
<bpm>0</bpm>
<rpm>0.00</rpm>
</extensions>
</trkpt>
<trkpt lat="31.220548630" lon="34.804435730">
<ele>245.152344</ele>
<time>2013-11-19T08:57:19Z</time>
<extensions>
<speed>0.0</speed>
<temp>0.00</temp>
<bpm>0</bpm>
<rpm>0.00</rpm>
</extensions>
</trkpt>
<trkpt lat="31.220548630" lon="34.804435730">
<ele>245.257813</ele>
<time>2013-11-19T08:57:24Z</time>
<extensions>
<speed>0.0</speed>
<temp>0.00</temp>
<bpm>0</bpm>
<rpm>0.00</rpm>
</extensions>
</trkpt>
<trkpt lat="31.220548630" lon="34.804435730">
<ele>245.324219</ele>
<time>2013-11-19T08:57:29Z</time>
<extensions>
<speed>0.0</speed>
<temp>0.00</temp>
<bpm>0</bpm>
<rpm>0.00</rpm>
</extensions>
</trkpt>
<trkpt lat="31.220548630" lon="34.804435730">
<ele>245.343750</ele>
<time>2013-11-19T08:57:34Z</time>
<extensions>
<speed>0.0</speed>
<temp>0.00</temp>
<bpm>0</bpm>
<rpm>0.00</rpm>
</extensions>
</trkpt>
<trkpt lat="31.220548630" lon="34.804435730">
<ele>245.367188</ele>
<time>2013-11-19T08:57:39Z</time>
<extensions>
<speed>0.0</speed>
<temp>0.00</temp>
<bpm>0</bpm>
<rpm>0.00</rpm>
</extensions>
</trkpt>
<trkpt lat="31.220548630" lon="34.804435730">
<ele>245.410156</ele>
<time>2013-11-19T08:57:44Z</time>
<extensions>
<speed>0.0</speed>
<temp>0.00</temp>
<bpm>0</bpm>
<rpm>0.00</rpm>
</extensions>
</trkpt>
<trkpt lat="31.220548630" lon="34.804435730">
<ele>245.472656</ele>
<time>2013-11-19T08:57:49Z</time>
<extensions>
<speed>0.0</speed>
<temp>0.00</temp>
<bpm>0</bpm>
<rpm>0.00</rpm>
</extensions>
</trkpt>
<trkpt lat="31.220548630" lon="34.804435730">
<ele>245.636719</ele>
<time>2013-11-19T08:57:54Z</time>
<extensions>
<speed>0.0</speed>
<temp>0.00</temp>
<bpm>0</bpm>
<rpm>0.00</rpm>
</extensions>
</trkpt>
<trkpt lat="31.220548630" lon="34.804435730">
<ele>245.738281</ele>
<time>2013-11-19T08:57:59Z</time>
<speed>0.010000</speed>
<extensions>
<speed>0.0</speed>
<temp>0.00</temp>
<bpm>0</bpm>
<rpm>0.00</rpm>
</extensions>
</trkpt>
<trkpt lat="31.220548630" lon="34.804435730">
<ele>245.847656</ele>
<time>2013-11-19T08:58:04Z</time>
<extensions>
<speed>0.0</speed>
<temp>0.00</temp>
<bpm>0</bpm>
<rpm>0.00</rpm>
</extensions>
</trkpt>
<trkpt lat="31.220548630" lon="34.804435730">
<ele>245.902344</ele>
<time>2013-11-19T08:58:09Z</time>
<speed>0.010000</speed>
<extensions>
<speed>0.0</speed>
<temp>0.00</temp>
<bpm>0</bpm>
<rpm>0.00</rpm>
</extensions>
</trkpt>
<trkpt lat="31.220548630" lon="34.804435730">
<ele>245.953125</ele>
<time>2013-11-19T08:58:14Z</time>
<speed>0.010000</speed>
<extensions>
<speed>0.0</speed>
<temp>0.00</temp>
<bpm>0</bpm>
<rpm>0.00</rpm>
</extensions>
</trkpt>
<trkpt lat="31.220548630" lon="34.804435730">
<ele>246.003906</ele>
<time>2013-11-19T08:58:19Z</time>
<extensions>
<speed>0.0</speed>
<temp>0.00</temp>
<bpm>0</bpm>
<rpm>0.00</rpm>
</extensions>
</trkpt>
<trkpt lat="31.220548630" lon="34.804435730">
<ele>246.039063</ele>
<time>2013-11-19T08:58:24Z</time>
<speed>0.010000</speed>
<extensions>
<speed>0.0</speed>
<temp>0.00</temp>
<bpm>0</bpm>
<rpm>0.00</rpm>
</extensions>
</trkpt>
<trkpt lat="31.220548630" lon="34.804435730">
<ele>246.066406</ele>
<time>2013-11-19T08:58:29Z</time>
<extensions>
<speed>0.0</speed>
<temp>0.00</temp>
<bpm>0</bpm>
<rpm>0.00</rpm>
</extensions>
</trkpt>
<trkpt lat="31.220548630" lon="34.804435730">
<ele>246.128906</ele>
<time>2013-11-19T08:58:34Z</time>
<speed>0.010000</speed>
<extensions>
<speed>0.0</speed>
<temp>0.00</temp>
<bpm>0</bpm>
<rpm>0.00</rpm>
</extensions>
</trkpt>
<trkpt lat="31.220548630" lon="34.804435730">
<ele>246.191406</ele>
<time>2013-11-19T08:58:39Z</time>
<speed>0.030000</speed>
<extensions>
<speed>0.0</speed>
<temp>0.00</temp>
<bpm>0</bpm>
<rpm>0.00</rpm>
</extensions>
</trkpt>
<trkpt lat="31.220548630" lon="34.804435730">
<ele>246.253906</ele>
<time>2013-11-19T08:58:44Z</time>
<speed>0.170000</speed>
<extensions>
<speed>0.2</speed>
<temp>0.00</temp>
<bpm>0</bpm>
<rpm>0.00</rpm>
</extensions>
</trkpt>
<trkpt lat="31.220548630" lon="34.804435730">
<ele>246.503906</ele>
<time>2013-11-19T08:58:49Z</time>
<speed>0.210000</speed>
<extensions>
<speed>0.2</speed>
<temp>0.00</temp>
<bpm>0</bpm>
<rpm>0.00</rpm>
</extensions>
</trkpt>
<trkpt lat="31.220548630" lon="34.804443359">
<ele>247.398438</ele>
<time>2013-11-19T08:58:54Z</time>
<extensions>
<speed>0.0</speed>
<temp>0.00</temp>
<bpm>0</bpm>
<rpm>0.00</rpm>
</extensions>
</trkpt>
<trkpt lat="31.220548630" lon="34.804443359">
<ele>247.414063</ele>
<time>2013-11-19T08:58:59Z</time>
<extensions>
<speed>0.0</speed>
<temp>0.00</temp>
<bpm>0</bpm>
<rpm>0.00</rpm>
</extensions>
</trkpt>
<trkpt lat="31.220548630" lon="34.804443359">
<ele>247.417969</ele>
<time>2013-11-19T08:59:04Z</time>
<speed>0.010000</speed>
<extensions>
<speed>0.0</speed>
<temp>0.00</temp>
<bpm>0</bpm>
<rpm>0.00</rpm>
</extensions>
</trkpt>
<trkpt lat="31.220548630" lon="34.804443359">
<ele>247.425781</ele>
<time>2013-11-19T08:59:09Z</time>
<speed>0.010000</speed>
<extensions>
<speed>0.0</speed>
<temp>0.00</temp>
<bpm>0</bpm>
<rpm>0.00</rpm>
</extensions>
</trkpt>
<trkpt lat="31.220548630" lon="34.804443359">
<ele>247.472656</ele>
<time>2013-11-19T08:59:14Z</time>
<speed>0.020000</speed>
<extensions>
<speed>0.0</speed>
<temp>0.00</temp>
<bpm>0</bpm>
<rpm>0.00</rpm>
</extensions>
</trkpt>
<trkpt lat="31.220548630" lon="34.804447174">
<ele>247.515625</ele>
<time>2013-11-19T08:59:19Z</time>
<extensions>
<speed>0.0</speed>
<temp>0.00</temp>
<bpm>0</bpm>
<rpm>0.00</rpm>
</extensions>
</trkpt>
<trkpt lat="31.220550537" lon="34.804447174">
<ele>247.554688</ele>
<time>2013-11-19T08:59:24Z</time>
<extensions>
<speed>0.0</speed>
<temp>0.00</temp>
<bpm>0</bpm>
<rpm>0.00</rpm>
</extensions>
</trkpt>
<trkpt lat="31.220550537" lon="34.804447174">
<ele>247.570313</ele>
<time>2013-11-19T08:59:29Z</time>
<extensions>
<speed>0.0</speed>
<temp>0.00</temp>
<bpm>0</bpm>
<rpm>0.00</rpm>
</extensions>
</trkpt>
<trkpt lat="31.220550537" lon="34.804447174">
<ele>247.582031</ele>
<time>2013-11-19T08:59:34Z</time>
<extensions>
<speed>0.0</speed>
<temp>0.00</temp>
<bpm>0</bpm>
<rpm>0.00</rpm>
</extensions>
</trkpt>
<trkpt lat="31.220550537" lon="34.804447174">
<ele>247.601563</ele>
<time>2013-11-19T08:59:39Z</time>
<extensions>
<speed>0.0</speed>
<temp>0.00</temp>
<bpm>0</bpm>
<rpm>0.00</rpm>
</extensions>
</trkpt>
<trkpt lat="31.220550537" lon="34.804447174">
<ele>247.644531</ele>
<time>2013-11-19T08:59:44Z</time>
<speed>0.010000</speed>
<extensions>
<speed>0.0</speed>
<temp>0.00</temp>
<bpm>0</bpm>
<rpm>0.00</rpm>
</extensions>
</trkpt>
<trkpt lat="31.220550537" lon="34.804447174">
<ele>247.687500</ele>
<time>2013-11-19T08:59:49Z</time>
<speed>0.010000</speed>
<extensions>
<speed>0.0</speed>
<temp>0.00</temp>
<bpm>0</bpm>
<rpm>0.00</rpm>
</extensions>
</trkpt>
<trkpt lat="31.220550537" lon="34.804447174">
<ele>247.726563</ele>
<time>2013-11-19T08:59:54Z</time>
<extensions>
<speed>0.0</speed>
<temp>0.00</temp>
<bpm>0</bpm>
<rpm>0.00</rpm>
</extensions>
</trkpt>
<trkpt lat="31.220550537" lon="34.804447174">
<ele>247.773438</ele>
<time>2013-11-19T08:59:59Z</time>
<extensions>
<speed>0.0</speed>
<temp>0.00</temp>
<bpm>0</bpm>
<rpm>0.00</rpm>
</extensions>
</trkpt>
<trkpt lat="31.220550537" lon="34.804447174">
<ele>247.812500</ele>
<time>2013-11-19T09:00:04Z</time>
<extensions>
<speed>0.0</speed>
<temp>0.00</temp>
<bpm>0</bpm>
<rpm>0.00</rpm>
</extensions>
</trkpt>
<trkpt lat="31.220550537" lon="34.804447174">
<ele>247.839844</ele>
<time>2013-11-19T09:00:09Z</time>
<extensions>
<speed>0.0</speed>
<temp>0.00</temp>
<bpm>0</bpm>
<rpm>0.00</rpm>
</extensions>
</trkpt>
<trkpt lat="31.220552444" lon="34.804447174">
<ele>247.859375</ele>
<time>2013-11-19T09:00:14Z</time>
<extensions>
<speed>0.0</speed>
<temp>0.00</temp>
<bpm>0</bpm>
<rpm>0.00</rpm>
</extensions>
</trkpt>
<trkpt lat="31.220552444" lon="34.804450989">
<ele>247.878906</ele>
<time>2013-11-19T09:00:19Z</time>
<extensions>
<speed>0.0</speed>
<temp>0.00</temp>
<bpm>0</bpm>
<rpm>0.00</rpm>
</extensions>
</trkpt>
<trkpt lat="31.220552444" lon="34.804450989">
<ele>247.894531</ele>
<time>2013-11-19T09:00:24Z</time>
<extensions>
<speed>0.0</speed>
<temp>0.00</temp>
<bpm>0</bpm>
<rpm>0.00</rpm>
</extensions>
</trkpt>
<trkpt lat="31.220552444" lon="34.804450989">
<ele>247.921875</ele>
<time>2013-11-19T09:00:29Z</time>
<extensions>
<speed>0.0</speed>
<temp>0.00</temp>
<bpm>0</bpm>
<rpm>0.00</rpm>
</extensions>
</trkpt>
<trkpt lat="31.220552444" lon="34.804450989">
<ele>247.945313</ele>
<time>2013-11-19T09:00:34Z</time>
<extensions>
<speed>0.0</speed>
<temp>0.00</temp>
<bpm>0</bpm>
<rpm>0.00</rpm>
</extensions>
</trkpt>
<trkpt lat="31.220552444" lon="34.804450989">
<ele>247.968750</ele>
<time>2013-11-19T09:00:39Z</time>
<extensions>
<speed>0.0</speed>
<temp>0.00</temp>
<bpm>0</bpm>
<rpm>0.00</rpm>
</extensions>
</trkpt>
<trkpt lat="31.220552444" lon="34.804450989">
<ele>247.984375</ele>
<time>2013-11-19T09:00:44Z</time>
<extensions>
<speed>0.0</speed>
<temp>0.00</temp>
<bpm>0</bpm>
<rpm>0.00</rpm>
</extensions>
</trkpt>
<trkpt lat="31.220552444" lon="34.804450989">
<ele>247.996094</ele>
<time>2013-11-19T09:00:49Z</time>
<extensions>
<speed>0.0</speed>
<temp>0.00</temp>
<bpm>0</bpm>
<rpm>0.00</rpm>
</extensions>
</trkpt>
<trkpt lat="31.220552444" lon="34.804450989">
<ele>248.007813</ele>
<time>2013-11-19T09:00:54Z</time>
<extensions>
<speed>0.0</speed>
<temp>0.00</temp>
<bpm>0</bpm>
<rpm>0.00</rpm>
</extensions>
</trkpt>
<trkpt lat="31.220552444" lon="34.804450989">
<ele>248.003906</ele>
<time>2013-11-19T09:00:59Z</time>
<speed>0.010000</speed>
<extensions>
<speed>0.0</speed>
<temp>0.00</temp>
<bpm>0</bpm>
<rpm>0.00</rpm>
</extensions>
</trkpt>
<trkpt lat="31.220552444" lon="34.804450989">
<ele>248.015625</ele>
<time>2013-11-19T09:01:04Z</time>
<extensions>
<speed>0.0</speed>
<temp>0.00</temp>
<bpm>0</bpm>
<rpm>0.00</rpm>
</extensions>
</trkpt>
<trkpt lat="31.220554352" lon="34.804450989">
<ele>248.027344</ele>
<time>2013-11-19T09:01:09Z</time>
<extensions>
<speed>0.0</speed>
<temp>0.00</temp>
<bpm>0</bpm>
<rpm>0.00</rpm>
</extensions>
</trkpt>
<trkpt lat="31.220554352" lon="34.804450989">
<ele>248.042969</ele>
<time>2013-11-19T09:01:14Z</time>
<extensions>
<speed>0.0</speed>
<temp>0.00</temp>
<bpm>0</bpm>
<rpm>0.00</rpm>
</extensions>
</trkpt>
<trkpt lat="31.220554352" lon="34.804450989">
<ele>248.058594</ele>
<time>2013-11-19T09:01:19Z</time>
<speed>0.010000</speed>
<extensions>
<speed>0.0</speed>
<temp>0.00</temp>
<bpm>0</bpm>
<rpm>0.00</rpm>
</extensions>
</trkpt>
<trkpt lat="31.220556259" lon="34.804450989">
<ele>248.042969</ele>
<time>2013-11-19T09:01:24Z</time>
<speed>2.720000</speed>
<extensions>
<speed>2.7</speed>
<temp>0.00</temp>
<bpm>0</bpm>
<rpm>0.00</rpm>
</extensions>
</trkpt>
<trkpt lat="31.220746994" lon="34.804431915">
<ele>248.890625</ele>
<time>2013-11-19T09:01:29Z</time>
<speed>3.450000</speed>
<extensions>
<speed>3.5</speed>
<temp>0.00</temp>
<bpm>0</bpm>
<rpm>0.00</rpm>
</extensions>
</trkpt>
<trkpt lat="31.220951080" lon="34.804405212">
<ele>253.320313</ele>
<time>2013-11-19T09:01:34Z</time>
<speed>3.960000</speed>
<extensions>
<speed>4.0</speed>
<temp>0.00</temp>
<bpm>0</bpm>
<rpm>0.00</rpm>
</extensions>
</trkpt>
<trkpt lat="31.221134186" lon="34.804374695">
<ele>251.957031</ele>
<time>2013-11-19T09:01:39Z</time>
<speed>3.280000</speed>
<extensions>
<speed>3.3</speed>
<temp>0.00</temp>
<bpm>0</bpm>
<rpm>0.00</rpm>
</extensions>
</trkpt>
<trkpt lat="31.221273422" lon="34.804370880">
<ele>252.468750</ele>
<time>2013-11-19T09:01:44Z</time>
<speed>0.320000</speed>
<extensions>
<speed>0.3</speed>
<temp>0.00</temp>
<bpm>0</bpm>
<rpm>0.00</rpm>
</extensions>
</trkpt>
<trkpt lat="31.221290588" lon="34.804370880">
<ele>253.460938</ele>
<time>2013-11-19T09:01:49Z</time>
<speed>0.030000</speed>
<extensions>
<speed>0.0</speed>
<temp>0.00</temp>
<bpm>0</bpm>
<rpm>0.00</rpm>
</extensions>
</trkpt>
<trkpt lat="31.221290588" lon="34.804367065">
<ele>253.445313</ele>
<time>2013-11-19T09:01:54Z</time>
<speed>0.010000</speed>
<extensions>
<speed>0.0</speed>
<temp>0.00</temp>
<bpm>0</bpm>
<rpm>0.00</rpm>
</extensions>
</trkpt>
<trkpt lat="31.221290588" lon="34.804370880">
<ele>253.484375</ele>
<time>2013-11-19T09:01:59Z</time>
<extensions>
<speed>0.0</speed>
<temp>0.00</temp>
<bpm>0</bpm>
<rpm>0.00</rpm>
</extensions>
</trkpt>
<trkpt lat="31.221292496" lon="34.804370880">
<ele>253.550781</ele>
<time>2013-11-19T09:02:04Z</time>
<extensions>
<speed>0.0</speed>
<temp>0.00</temp>
<bpm>0</bpm>
<rpm>0.00</rpm>
</extensions>
</trkpt>
<trkpt lat="31.221292496" lon="34.804370880">
<ele>253.609375</ele>
<time>2013-11-19T09:02:09Z</time>
<speed>0.010000</speed>
<extensions>
<speed>0.0</speed>
<temp>0.00</temp>
<bpm>0</bpm>
<rpm>0.00</rpm>
</extensions>
</trkpt>
<trkpt lat="31.221292496" lon="34.804370880">
<ele>253.636719</ele>
<time>2013-11-19T09:02:14Z</time>
<extensions>
<speed>0.0</speed>
<temp>0.00</temp>
<bpm>0</bpm>
<rpm>0.00</rpm>
</extensions>
</trkpt>
<trkpt lat="31.221292496" lon="34.804370880">
<ele>253.640625</ele>
<time>2013-11-19T09:02:19Z</time>
<speed>0.010000</speed>
<extensions>
<speed>0.0</speed>
<temp>0.00</temp>
<bpm>0</bpm>
<rpm>0.00</rpm>
</extensions>
</trkpt>
<trkpt lat="31.221292496" lon="34.804370880">
<ele>253.671875</ele>
<time>2013-11-19T09:02:24Z</time>
<extensions>
<speed>0.0</speed>
<temp>0.00</temp>
<bpm>0</bpm>
<rpm>0.00</rpm>
</extensions>
</trkpt>
<trkpt lat="31.221292496" lon="34.804370880">
<ele>253.687500</ele>
<time>2013-11-19T09:02:29Z</time>
<extensions>
<speed>0.0</speed>
<temp>0.00</temp>
<bpm>0</bpm>
<rpm>0.00</rpm>
</extensions>
</trkpt>
<trkpt lat="31.221292496" lon="34.804370880">
<ele>253.703125</ele>
<time>2013-11-19T09:02:34Z</time>
<extensions>
<speed>0.0</speed>
<temp>0.00</temp>
<bpm>0</bpm>
<rpm>0.00</rpm>
</extensions>
</trkpt>
<trkpt lat="31.221292496" lon="34.804370880">
<ele>253.722656</ele>
<time>2013-11-19T09:02:39Z</time>
<extensions>
<speed>0.0</speed>
<temp>0.00</temp>
<bpm>0</bpm>
<rpm>0.00</rpm>
</extensions>
</trkpt>
<trkpt lat="31.221292496" lon="34.804370880">
<ele>253.734375</ele>
<time>2013-11-19T09:02:44Z</time>
<extensions>
<speed>0.0</speed>
<temp>0.00</temp>
<bpm>0</bpm>
<rpm>0.00</rpm>
</extensions>
</trkpt>
<trkpt lat="31.221292496" lon="34.804370880">
<ele>253.753906</ele>
<time>2013-11-19T09:02:49Z</time>
<extensions>
<speed>0.0</speed>
<temp>0.00</temp>
<bpm>0</bpm>
<rpm>0.00</rpm>
</extensions>
</trkpt>
<trkpt lat="31.221292496" lon="34.804370880">
<ele>253.769531</ele>
<time>2013-11-19T09:02:54Z</time>
<extensions>
<speed>0.0</speed>
<temp>0.00</temp>
<bpm>0</bpm>
<rpm>0.00</rpm>
</extensions>
</trkpt>
<trkpt lat="31.221294403" lon="34.804370880">
<ele>253.792969</ele>
<time>2013-11-19T09:02:59Z</time>
<extensions>
<speed>0.0</speed>
<temp>0.00</temp>
<bpm>0</bpm>
<rpm>0.00</rpm>
</extensions>
</trkpt>
<trkpt lat="31.221294403" lon="34.804370880">
<ele>253.816406</ele>
<time>2013-11-19T09:03:04Z</time>
<speed>0.050000</speed>
<extensions>
<speed>0.1</speed>
<temp>0.00</temp>
<bpm>0</bpm>
<rpm>0.00</rpm>
</extensions>
</trkpt>
<trkpt lat="31.221294403" lon="34.804370880">
<ele>253.835938</ele>
<time>2013-11-19T09:03:09Z</time>
<speed>0.090000</speed>
<extensions>
<speed>0.1</speed>
<temp>0.00</temp>
<bpm>0</bpm>
<rpm>0.00</rpm>
</extensions>
</trkpt>
<trkpt lat="31.221385956" lon="34.804374695">
<ele>254.886719</ele>
<time>2013-11-19T09:03:14Z</time>
<speed>2.290000</speed>
<extensions>
<speed>2.3</speed>
<temp>0.00</temp>
<bpm>0</bpm>
<rpm>0.00</rpm>
</extensions>
</trkpt>
<trkpt lat="31.221517563" lon="34.804367065">
<ele>256.257813</ele>
<time>2013-11-19T09:03:19Z</time>
<speed>2.780000</speed>
<extensions>
<speed>2.8</speed>
<temp>0.00</temp>
<bpm>0</bpm>
<rpm>0.00</rpm>
</extensions>
</trkpt>
<trkpt lat="31.221637726" lon="34.804286957">
<ele>257.406250</ele>
<time>2013-11-19T09:03:24Z</time>
<speed>3.850000</speed>
<extensions>
<speed>3.8</speed>
<temp>0.00</temp>
<bpm>0</bpm>
<rpm>0.00</rpm>
</extensions>
</trkpt>
<trkpt lat="31.221685410" lon="34.804176331">
<ele>259.414063</ele>
<time>2013-11-19T09:03:29Z</time>
<speed>0.910000</speed>
<extensions>
<speed>0.9</speed>
<temp>0.00</temp>
<bpm>0</bpm>
<rpm>0.00</rpm>
</extensions>
</trkpt>
<trkpt lat="31.221715927" lon="34.804084778">
<ele>259.179688</ele>
<time>2013-11-19T09:03:34Z</time>
<speed>1.430000</speed>
<extensions>
<speed>1.4</speed>
<temp>0.00</temp>
<bpm>0</bpm>
<rpm>0.00</rpm>
</extensions>
</trkpt>
<trkpt lat="31.221786499" lon="34.804008484">
<ele>259.007813</ele>
<time>2013-11-19T09:03:39Z</time>
<speed>1.840000</speed>
<extensions>
<speed>1.8</speed>
<temp>0.00</temp>
<bpm>0</bpm>
<rpm>0.00</rpm>
</extensions>
</trkpt>
<trkpt lat="31.221904755" lon="34.803974152">
<ele>260.031250</ele>
<time>2013-11-19T09:03:44Z</time>
<speed>2.810000</speed>
<extensions>
<speed>2.8</speed>
<temp>0.00</temp>
<bpm>0</bpm>
<rpm>0.00</rpm>
</extensions>
</trkpt>
<trkpt lat="31.222043991" lon="34.803958893">
<ele>260.570313</ele>
<time>2013-11-19T09:03:49Z</time>
<speed>3.240000</speed>
<extensions>
<speed>3.2</speed>
<temp>0.00</temp>
<bpm>0</bpm>
<rpm>0.00</rpm>
</extensions>
</trkpt>
<trkpt lat="31.222230911" lon="34.803936005">
<ele>261.343750</ele>
<time>2013-11-19T09:03:54Z</time>
<speed>3.830000</speed>
<extensions>
<speed>3.8</speed>
<temp>0.00</temp>
<bpm>0</bpm>
<rpm>0.00</rpm>
</extensions>
</trkpt>
<trkpt lat="31.222417831" lon="34.803894043">
<ele>261.750000</ele>
<time>2013-11-19T09:03:59Z</time>
<speed>3.550000</speed>
<extensions>
<speed>3.5</speed>
<temp>0.00</temp>
<bpm>0</bpm>
<rpm>0.00</rpm>
</extensions>
</trkpt>
<trkpt lat="31.222581863" lon="34.803852081">
<ele>264.046875</ele>
<time>2013-11-19T09:04:04Z</time>
<speed>2.920000</speed>
<extensions>
<speed>2.9</speed>
<temp>0.00</temp>
<bpm>0</bpm>
<rpm>0.00</rpm>
</extensions>
</trkpt>
<trkpt lat="31.222682953" lon="34.803810120">
<ele>266.726563</ele>
<time>2013-11-19T09:04:09Z</time>
<speed>2.240000</speed>
<extensions>
<speed>2.2</speed>
<temp>0.00</temp>
<bpm>0</bpm>
<rpm>0.00</rpm>
</extensions>
</trkpt>
<trkpt lat="31.222684860" lon="34.803680420">
<ele>265.132813</ele>
<time>2013-11-19T09:04:14Z</time>
<speed>2.770000</speed>
<extensions>
<speed>2.8</speed>
<temp>0.00</temp>
<bpm>0</bpm>
<rpm>0.00</rpm>
</extensions>
</trkpt>
<trkpt lat="31.222698212" lon="34.803600311">
<ele>262.351563</ele>
<time>2013-11-19T09:04:19Z</time>
<speed>1.110000</speed>
<extensions>
<speed>1.1</speed>
<temp>0.00</temp>
<bpm>0</bpm>
<rpm>0.00</rpm>
</extensions>
</trkpt>
<trkpt lat="31.222644806" lon="34.803585052">
<ele>261.648438</ele>
<time>2013-11-19T09:04:24Z</time>
<speed>1.500000</speed>
<extensions>
<speed>1.5</speed>
<temp>0.00</temp>
<bpm>0</bpm>
<rpm>0.00</rpm>
</extensions>
</trkpt>
<trkpt lat="31.222610474" lon="34.803581238">
<ele>262.070313</ele>
<time>2013-11-19T09:04:29Z</time>
<speed>1.120000</speed>
<extensions>
<speed>1.1</speed>
<temp>0.00</temp>
<bpm>0</bpm>
<rpm>0.00</rpm>
</extensions>
</trkpt>
<trkpt lat="31.222599030" lon="34.803524017">
<ele>261.914063</ele>
<time>2013-11-19T09:04:34Z</time>
<speed>0.600000</speed>
<extensions>
<speed>0.6</speed>
<temp>0.00</temp>
<bpm>0</bpm>
<rpm>0.00</rpm>
</extensions>
</trkpt>
<trkpt lat="31.222578049" lon="34.803474426">
<ele>261.421875</ele>
<time>2013-11-19T09:04:39Z</time>
<speed>0.670000</speed>
<extensions>
<speed>0.7</speed>
<temp>0.00</temp>
<bpm>0</bpm>
<rpm>0.00</rpm>
</extensions>
</trkpt>
<trkpt lat="31.222579956" lon="34.803459167">
<ele>260.726563</ele>
<time>2013-11-19T09:04:44Z</time>
<speed>0.370000</speed>
<extensions>
<speed>0.4</speed>
<temp>0.00</temp>
<bpm>0</bpm>
<rpm>0.00</rpm>
</extensions>
</trkpt>
<trkpt lat="31.222578049" lon="34.803504944">
<ele>260.328125</ele>
<time>2013-11-19T09:04:49Z</time>
<speed>1.410000</speed>
<extensions>
<speed>1.4</speed>
<temp>0.00</temp>
<bpm>0</bpm>
<rpm>0.00</rpm>
</extensions>
</trkpt>
<trkpt lat="31.222528458" lon="34.803546906">
<ele>260.460938</ele>
<time>2013-11-19T09:04:54Z</time>
<speed>2.340000</speed>
<extensions>
<speed>2.3</speed>
<temp>0.00</temp>
<bpm>0</bpm>
<rpm>0.00</rpm>
</extensions>
</trkpt>
<trkpt lat="31.222484589" lon="34.803569794">
<ele>260.382813</ele>
<time>2013-11-19T09:04:59Z</time>
<speed>0.570000</speed>
<extensions>
<speed>0.6</speed>
<temp>0.00</temp>
<bpm>0</bpm>
<rpm>0.00</rpm>
</extensions>
</trkpt>
<trkpt lat="31.222475052" lon="34.803604126">
<ele>260.851563</ele>
<time>2013-11-19T09:05:04Z</time>
<speed>0.660000</speed>
<extensions>
<speed>0.7</speed>
<temp>0.00</temp>
<bpm>0</bpm>
<rpm>0.00</rpm>
</extensions>
</trkpt>
<trkpt lat="31.222473145" lon="34.803627014">
<ele>260.929688</ele>
<time>2013-11-19T09:05:09Z</time>
<speed>0.520000</speed>
<extensions>
<speed>0.5</speed>
<temp>0.00</temp>
<bpm>0</bpm>
<rpm>0.00</rpm>
</extensions>
</trkpt>
<trkpt lat="31.222476959" lon="34.803688049">
<ele>261.507813</ele>
<time>2013-11-19T09:05:14Z</time>
<speed>1.140000</speed>
<extensions>
<speed>1.1</speed>
<temp>0.00</temp>
<bpm>0</bpm>
<rpm>0.00</rpm>
</extensions>
</trkpt>
<trkpt lat="31.222423553" lon="34.803733826">
<ele>260.828125</ele>
<time>2013-11-19T09:05:19Z</time>
<speed>1.090000</speed>
<extensions>
<speed>1.1</speed>
<temp>0.00</temp>
<bpm>0</bpm>
<rpm>0.00</rpm>
</extensions>
</trkpt>
<trkpt lat="31.222375870" lon="34.803756714">
<ele>261.054688</ele>
<time>2013-11-19T09:05:24Z</time>
<speed>0.350000</speed>
<extensions>
<speed>0.3</speed>
<temp>0.00</temp>
<bpm>0</bpm>
<rpm>0.00</rpm>
</extensions>
</trkpt>
<trkpt lat="31.222354889" lon="34.803779602">
<ele>261.179688</ele>
<time>2013-11-19T09:05:29Z</time>
<speed>0.510000</speed>
<extensions>
<speed>0.5</speed>
<temp>0.00</temp>
<bpm>0</bpm>
<rpm>0.00</rpm>
</extensions>
</trkpt>
<trkpt lat="31.222219467" lon="34.803768158">
<ele>259.445313</ele>
<time>2013-11-19T09:05:34Z</time>
<speed>1.080000</speed>
<extensions>
<speed>1.1</speed>
<temp>0.00</temp>
<bpm>0</bpm>
<rpm>0.00</rpm>
</extensions>
</trkpt>
<trkpt lat="31.222101212" lon="34.803779602">
<ele>260.375000</ele>
<time>2013-11-19T09:05:39Z</time>
<speed>2.040000</speed>
<extensions>
<speed>2.0</speed>
<temp>0.00</temp>
<bpm>0</bpm>
<rpm>0.00</rpm>
</extensions>
</trkpt>
<trkpt lat="31.222017288" lon="34.803798676">
<ele>258.085938</ele>
<time>2013-11-19T09:05:44Z</time>
<speed>1.740000</speed>
<extensions>
<speed>1.7</speed>
<temp>0.00</temp>
<bpm>0</bpm>
<rpm>0.00</rpm>
</extensions>
</trkpt>
<trkpt lat="31.221948624" lon="34.803821564">
<ele>259.078125</ele>
<time>2013-11-19T09:05:49Z</time>
<speed>1.480000</speed>
<extensions>
<speed>1.5</speed>
<temp>0.00</temp>
<bpm>0</bpm>
<rpm>0.00</rpm>
</extensions>
</trkpt>
<trkpt lat="31.221899033" lon="34.803897858">
<ele>259.281250</ele>
<time>2013-11-19T09:05:54Z</time>
<speed>1.040000</speed>
<extensions>
<speed>1.0</speed>
<temp>0.00</temp>
<bpm>0</bpm>
<rpm>0.00</rpm>
</extensions>
</trkpt>
<trkpt lat="31.221824646" lon="34.803939819">
<ele>259.765625</ele>
<time>2013-11-19T09:05:59Z</time>
<speed>0.800000</speed>
<extensions>
<speed>0.8</speed>
<temp>0.00</temp>
<bpm>0</bpm>
<rpm>0.00</rpm>
</extensions>
</trkpt>
<trkpt lat="31.221723557" lon="34.803947449">
<ele>260.546875</ele>
<time>2013-11-19T09:06:04Z</time>
<speed>0.950000</speed>
<extensions>
<speed>1.0</speed>
<temp>0.00</temp>
<bpm>0</bpm>
<rpm>0.00</rpm>
</extensions>
</trkpt>
<trkpt lat="31.221637726" lon="34.803985596">
<ele>261.601563</ele>
<time>2013-11-19T09:06:09Z</time>
<speed>1.170000</speed>
<extensions>
<speed>1.2</speed>
<temp>0.00</temp>
<bpm>0</bpm>
<rpm>0.00</rpm>
</extensions>
</trkpt>
<trkpt lat="31.221546173" lon="34.804027557">
<ele>261.328125</ele>
<time>2013-11-19T09:06:14Z</time>
<speed>1.330000</speed>
<extensions>
<speed>1.3</speed>
<temp>0.00</temp>
<bpm>0</bpm>
<rpm>0.00</rpm>
</extensions>
</trkpt>
<trkpt lat="31.221437454" lon="34.804046631">
<ele>263.171875</ele>
<time>2013-11-19T09:06:19Z</time>
<speed>1.630000</speed>
<extensions>
<speed>1.6</speed>
<temp>0.00</temp>
<bpm>0</bpm>
<rpm>0.00</rpm>
</extensions>
</trkpt>
<trkpt lat="31.221309662" lon="34.804031372">
<ele>263.007813</ele>
<time>2013-11-19T09:06:24Z</time>
<speed>1.580000</speed>
<extensions>
<speed>1.6</speed>
<temp>0.00</temp>
<bpm>0</bpm>
<rpm>0.00</rpm>
</extensions>
</trkpt>
<trkpt lat="31.221187592" lon="34.804031372">
<ele>264.312500</ele>
<time>2013-11-19T09:06:29Z</time>
<speed>1.380000</speed>
<extensions>
<speed>1.4</speed>
<temp>0.00</temp>
<bpm>0</bpm>
<rpm>0.00</rpm>
</extensions>
</trkpt>
<trkpt lat="31.221059799" lon="34.804061890">
<ele>265.140625</ele>
<time>2013-11-19T09:06:34Z</time>
<speed>2.280000</speed>
<extensions>
<speed>2.3</speed>
<temp>0.00</temp>
<bpm>0</bpm>
<rpm>0.00</rpm>
</extensions>
</trkpt>
<trkpt lat="31.220966339" lon="34.803955078">
<ele>262.164063</ele>
<time>2013-11-19T09:06:39Z</time>
<speed>3.890000</speed>
<extensions>
<speed>3.9</speed>
<temp>0.00</temp>
<bpm>0</bpm>
<rpm>0.00</rpm>
</extensions>
</trkpt>
<trkpt lat="31.220914841" lon="34.803813934">
<ele>262.648438</ele>
<time>2013-11-19T09:06:44Z</time>
<speed>2.450000</speed>
<extensions>
<speed>2.4</speed>
<temp>0.00</temp>
<bpm>0</bpm>
<rpm>0.00</rpm>
</extensions>
</trkpt>
<trkpt lat="31.220914841" lon="34.803676605">
<ele>263.804688</ele>
<time>2013-11-19T09:06:49Z</time>
<speed>2.770000</speed>
<extensions>
<speed>2.8</speed>
<temp>0.00</temp>
<bpm>0</bpm>
<rpm>0.00</rpm>
</extensions>
</trkpt>
<trkpt lat="31.220949173" lon="34.803546906">
<ele>266.156250</ele>
<time>2013-11-19T09:06:54Z</time>
<speed>2.760000</speed>
<extensions>
<speed>2.8</speed>
<temp>0.00</temp>
<bpm>0</bpm>
<rpm>0.00</rpm>
</extensions>
</trkpt>
<trkpt lat="31.220932007" lon="34.803390503">
<ele>265.812500</ele>
<time>2013-11-19T09:06:59Z</time>
<speed>3.430000</speed>
<extensions>
<speed>3.4</speed>
<temp>0.00</temp>
<bpm>0</bpm>
<rpm>0.00</rpm>
</extensions>
</trkpt>
<trkpt lat="31.220884323" lon="34.803199768">
<ele>263.484375</ele>
<time>2013-11-19T09:07:04Z</time>
<speed>3.220000</speed>
<extensions>
<speed>3.2</speed>
<temp>0.00</temp>
<bpm>0</bpm>
<rpm>0.00</rpm>
</extensions>
</trkpt>
<trkpt lat="31.220819473" lon="34.803031921">
<ele>262.750000</ele>
<time>2013-11-19T09:07:09Z</time>
<speed>2.340000</speed>
<extensions>
<speed>2.3</speed>
<temp>0.00</temp>
<bpm>0</bpm>
<rpm>0.00</rpm>
</extensions>
</trkpt>
<trkpt lat="31.220621109" lon="34.803035736">
<ele>265.015625</ele>
<time>2013-11-19T09:07:14Z</time>
<speed>3.130000</speed>
<extensions>
<speed>3.1</speed>
<temp>0.00</temp>
<bpm>0</bpm>
<rpm>0.00</rpm>
</extensions>
</trkpt>
<trkpt lat="31.220453262" lon="34.802997589">
<ele>264.468750</ele>
<time>2013-11-19T09:07:19Z</time>
<speed>4.120000</speed>
<extensions>
<speed>4.1</speed>
<temp>0.00</temp>
<bpm>0</bpm>
<rpm>0.00</rpm>
</extensions>
</trkpt>
<trkpt lat="31.220254898" lon="34.803001404">
<ele>263.578125</ele>
<time>2013-11-19T09:07:24Z</time>
<speed>4.160000</speed>
<extensions>
<speed>4.2</speed>
<temp>0.00</temp>
<bpm>0</bpm>
<rpm>0.00</rpm>
</extensions>
</trkpt>
<trkpt lat="31.220165253" lon="34.803165436">
<ele>260.976563</ele>
<time>2013-11-19T09:07:29Z</time>
<speed>3.250000</speed>
<extensions>
<speed>3.2</speed>
<temp>0.00</temp>
<bpm>0</bpm>
<rpm>0.00</rpm>
</extensions>
</trkpt>
<trkpt lat="31.220212936" lon="34.803413391">
<ele>259.390625</ele>
<time>2013-11-19T09:07:34Z</time>
<speed>5.060000</speed>
<extensions>
<speed>5.1</speed>
<temp>0.00</temp>
<bpm>0</bpm>
<rpm>0.00</rpm>
</extensions>
</trkpt>
<trkpt lat="31.220224380" lon="34.803657532">
<ele>258.023438</ele>
<time>2013-11-19T09:07:39Z</time>
<speed>4.200000</speed>
<extensions>
<speed>4.2</speed>
<temp>0.00</temp>
<bpm>0</bpm>
<rpm>0.00</rpm>
</extensions>
</trkpt>
<trkpt lat="31.220203400" lon="34.803894043">
<ele>256.585938</ele>
<time>2013-11-19T09:07:44Z</time>
<speed>4.240000</speed>
<extensions>
<speed>4.2</speed>
<temp>0.00</temp>
<bpm>0</bpm>
<rpm>0.00</rpm>
</extensions>
</trkpt>
<trkpt lat="31.220178604" lon="34.804153442">
<ele>256.492188</ele>
<time>2013-11-19T09:07:49Z</time>
<speed>3.920000</speed>
<extensions>
<speed>3.9</speed>
<temp>0.00</temp>
<bpm>0</bpm>
<rpm>0.00</rpm>
</extensions>
</trkpt>
<trkpt lat="31.220159531" lon="34.804355621">
<ele>255.488281</ele>
<time>2013-11-19T09:07:54Z</time>
<speed>3.590000</speed>
<extensions>
<speed>3.6</speed>
<temp>0.00</temp>
<bpm>0</bpm>
<rpm>0.00</rpm>
</extensions>
</trkpt>
<trkpt lat="31.220134735" lon="34.804496765">
<ele>254.296875</ele>
<time>2013-11-19T09:07:59Z</time>
<speed>2.920000</speed>
<extensions>
<speed>2.9</speed>
<temp>0.00</temp>
<bpm>0</bpm>
<rpm>0.00</rpm>
</extensions>
</trkpt>
<trkpt lat="31.220031738" lon="34.804603577">
<ele>255.964844</ele>
<time>2013-11-19T09:08:04Z</time>
<speed>3.370000</speed>
<extensions>
<speed>3.4</speed>
<temp>0.00</temp>
<bpm>0</bpm>
<rpm>0.00</rpm>
</extensions>
</trkpt>
<trkpt lat="31.219875336" lon="34.804626465">
<ele>257.601563</ele>
<time>2013-11-19T09:08:09Z</time>
<speed>3.980000</speed>
<extensions>
<speed>4.0</speed>
<temp>0.00</temp>
<bpm>0</bpm>
<rpm>0.00</rpm>
</extensions>
</trkpt>
<trkpt lat="31.219690323" lon="34.804622650">
<ele>257.687500</ele>
<time>2013-11-19T09:08:14Z</time>
<speed>3.870000</speed>
<extensions>
<speed>3.9</speed>
<temp>0.00</temp>
<bpm>0</bpm>
<rpm>0.00</rpm>
</extensions>
</trkpt>
<trkpt lat="31.219509125" lon="34.804630280">
<ele>258.039063</ele>
<time>2013-11-19T09:08:19Z</time>
<speed>4.670000</speed>
<extensions>
<speed>4.7</speed>
<temp>0.00</temp>
<bpm>0</bpm>
<rpm>0.00</rpm>
</extensions>
</trkpt>
<trkpt lat="31.219322205" lon="34.804695129">
<ele>257.929688</ele>
<time>2013-11-19T09:08:24Z</time>
<speed>4.090000</speed>
<extensions>
<speed>4.1</speed>
<temp>0.00</temp>
<bpm>0</bpm>
<rpm>0.00</rpm>
</extensions>
</trkpt>
<trkpt lat="31.219192505" lon="34.804759979">
<ele>257.414063</ele>
<time>2013-11-19T09:08:29Z</time>
<speed>3.200000</speed>
<extensions>
<speed>3.2</speed>
<temp>0.00</temp>
<bpm>0</bpm>
<rpm>0.00</rpm>
</extensions>
</trkpt>
<trkpt lat="31.219066620" lon="34.804786682">
<ele>257.406250</ele>
<time>2013-11-19T09:08:34Z</time>
<speed>2.720000</speed>
<extensions>
<speed>2.7</speed>
<temp>0.00</temp>
<bpm>0</bpm>
<rpm>0.00</rpm>
</extensions>
</trkpt>
<trkpt lat="31.218950272" lon="34.804801941">
<ele>256.859375</ele>
<time>2013-11-19T09:08:39Z</time>
<speed>2.560000</speed>
<extensions>
<speed>2.6</speed>
<temp>0.00</temp>
<bpm>0</bpm>
<rpm>0.00</rpm>
</extensions>
</trkpt>
<trkpt lat="31.218826294" lon="34.804828644">
<ele>257.945313</ele>
<time>2013-11-19T09:08:44Z</time>
<speed>3.430000</speed>
<extensions>
<speed>3.4</speed>
<temp>0.00</temp>
<bpm>0</bpm>
<rpm>0.00</rpm>
</extensions>
</trkpt>
<trkpt lat="31.218650818" lon="34.804870605">
<ele>257.625000</ele>
<time>2013-11-19T09:08:49Z</time>
<speed>4.580000</speed>
<extensions>
<speed>4.6</speed>
<temp>0.00</temp>
<bpm>0</bpm>
<rpm>0.00</rpm>
</extensions>
</trkpt>
<trkpt lat="31.218439102" lon="34.804901123">
<ele>257.929688</ele>
<time>2013-11-19T09:08:54Z</time>
<speed>5.380000</speed>
<extensions>
<speed>5.4</speed>
<temp>0.00</temp>
<bpm>0</bpm>
<rpm>0.00</rpm>
</extensions>
</trkpt>
<trkpt lat="31.218194962" lon="34.804901123">
<ele>258.429688</ele>
<time>2013-11-19T09:08:59Z</time>
<speed>5.750000</speed>
<extensions>
<speed>5.8</speed>
<temp>0.00</temp>
<bpm>0</bpm>
<rpm>0.00</rpm>
</extensions>
</trkpt>
<trkpt lat="31.217937469" lon="34.804889679">
<ele>259.773438</ele>
<time>2013-11-19T09:09:04Z</time>
<speed>6.160000</speed>
<extensions>
<speed>6.2</speed>
<temp>0.00</temp>
<bpm>0</bpm>
<rpm>0.00</rpm>
</extensions>
</trkpt>
<trkpt lat="31.217662811" lon="34.804855347">
<ele>261.070313</ele>
<time>2013-11-19T09:09:09Z</time>
<speed>6.090000</speed>
<extensions>
<speed>6.1</speed>
<temp>0.00</temp>
<bpm>0</bpm>
<rpm>0.00</rpm>
</extensions>
</trkpt>
<trkpt lat="31.217384338" lon="34.804813385">
<ele>260.500000</ele>
<time>2013-11-19T09:09:14Z</time>
<speed>6.330000</speed>
<extensions>
<speed>6.3</speed>
<temp>0.00</temp>
<bpm>0</bpm>
<rpm>0.00</rpm>
</extensions>
</trkpt>
<trkpt lat="31.217092514" lon="34.804756165">
<ele>260.265625</ele>
<time>2013-11-19T09:09:19Z</time>
<speed>5.360000</speed>
<extensions>
<speed>5.4</speed>
<temp>0.00</temp>
<bpm>0</bpm>
<rpm>0.00</rpm>
</extensions>
</trkpt>
<trkpt lat="31.216810226" lon="34.804687500">
<ele>259.320313</ele>
<time>2013-11-19T09:09:24Z</time>
<speed>6.090000</speed>
<extensions>
<speed>6.1</speed>
<temp>0.00</temp>
<bpm>0</bpm>
<rpm>0.00</rpm>
</extensions>
</trkpt>
<trkpt lat="31.216505051" lon="34.804584503">
<ele>258.812500</ele>
<time>2013-11-19T09:09:29Z</time>
<speed>6.610000</speed>
<extensions>
<speed>6.6</speed>
<temp>0.00</temp>
<bpm>0</bpm>
<rpm>0.00</rpm>
</extensions>
</trkpt>
<trkpt lat="31.216213226" lon="34.804473877">
<ele>258.195313</ele>
<time>2013-11-19T09:09:34Z</time>
<speed>6.910000</speed>
<extensions>
<speed>6.9</speed>
<temp>0.00</temp>
<bpm>0</bpm>
<rpm>0.00</rpm>
</extensions>
</trkpt>
<trkpt lat="31.215929031" lon="34.804328918">
<ele>258.515625</ele>
<time>2013-11-19T09:09:39Z</time>
<speed>6.500000</speed>
<extensions>
<speed>6.5</speed>
<temp>0.00</temp>
<bpm>0</bpm>
<rpm>0.00</rpm>
</extensions>
</trkpt>
<trkpt lat="31.215646744" lon="34.804176331">
<ele>257.585938</ele>
<time>2013-11-19T09:09:44Z</time>
<speed>7.080000</speed>
<extensions>
<speed>7.1</speed>
<temp>0.00</temp>
<bpm>0</bpm>
<rpm>0.00</rpm>
</extensions>
</trkpt>
<trkpt lat="31.215377808" lon="34.804000854">
<ele>257.289063</ele>
<time>2013-11-19T09:09:49Z</time>
<speed>6.320000</speed>
<extensions>
<speed>6.3</speed>
<temp>0.00</temp>
<bpm>0</bpm>
<rpm>0.00</rpm>
</extensions>
</trkpt>
<trkpt lat="31.215145111" lon="34.803825378">
<ele>257.804688</ele>
<time>2013-11-19T09:09:54Z</time>
<speed>6.380000</speed>
<extensions>
<speed>6.4</speed>
<temp>0.00</temp>
<bpm>0</bpm>
<rpm>0.00</rpm>
</extensions>
</trkpt>
<trkpt lat="31.214929581" lon="34.803661346">
<ele>258.015625</ele>
<time>2013-11-19T09:09:59Z</time>
<speed>6.070000</speed>
<extensions>
<speed>6.1</speed>
<temp>0.00</temp>
<bpm>0</bpm>
<rpm>0.00</rpm>
</extensions>
</trkpt>
<trkpt lat="31.214698792" lon="34.803482056">
<ele>259.335938</ele>
<time>2013-11-19T09:10:04Z</time>
<speed>5.410000</speed>
<extensions>
<speed>5.4</speed>
<temp>0.00</temp>
<bpm>0</bpm>
<rpm>0.00</rpm>
</extensions>
</trkpt>
<trkpt lat="31.214458466" lon="34.803314209">
<ele>259.765625</ele>
<time>2013-11-19T09:10:09Z</time>
<speed>6.470000</speed>
<extensions>
<speed>6.5</speed>
<temp>0.00</temp>
<bpm>0</bpm>
<rpm>0.00</rpm>
</extensions>
</trkpt>
<trkpt lat="31.214256287" lon="34.803165436">
<ele>261.296875</ele>
<time>2013-11-19T09:10:14Z</time>
<speed>5.650000</speed>
<extensions>
<speed>5.7</speed>
<temp>0.00</temp>
<bpm>0</bpm>
<rpm>0.00</rpm>
</extensions>
</trkpt>
<trkpt lat="31.214044571" lon="34.803028107">
<ele>261.937500</ele>
<time>2013-11-19T09:10:19Z</time>
<speed>5.140000</speed>
<extensions>
<speed>5.1</speed>
<temp>0.00</temp>
<bpm>0</bpm>
<rpm>0.00</rpm>
</extensions>
</trkpt>
<trkpt lat="31.213817596" lon="34.802879333">
<ele>262.734375</ele>
<time>2013-11-19T09:10:24Z</time>
<speed>6.200000</speed>
<extensions>
<speed>6.2</speed>
<temp>0.00</temp>
<bpm>0</bpm>
<rpm>0.00</rpm>
</extensions>
</trkpt>
<trkpt lat="31.213552475" lon="34.802700043">
<ele>265.046875</ele>
<time>2013-11-19T09:10:29Z</time>
<speed>6.290000</speed>
<extensions>
<speed>6.3</speed>
<temp>0.00</temp>
<bpm>0</bpm>
<rpm>0.00</rpm>
</extensions>
</trkpt>
<trkpt lat="31.213348389" lon="34.802581787">
<ele>266.640625</ele>
<time>2013-11-19T09:10:34Z</time>
<speed>5.220000</speed>
<extensions>
<speed>5.2</speed>
<temp>0.00</temp>
<bpm>0</bpm>
<rpm>0.00</rpm>
</extensions>
</trkpt>
<trkpt lat="31.213136673" lon="34.802486420">
<ele>266.742188</ele>
<time>2013-11-19T09:10:39Z</time>
<speed>5.560000</speed>
<extensions>
<speed>5.6</speed>
<temp>0.00</temp>
<bpm>0</bpm>
<rpm>0.00</rpm>
</extensions>
</trkpt>
<trkpt lat="31.212913513" lon="34.802398682">
<ele>267.703125</ele>
<time>2013-11-19T09:10:44Z</time>
<speed>5.380000</speed>
<extensions>
<speed>5.4</speed>
<temp>0.00</temp>
<bpm>0</bpm>
<rpm>0.00</rpm>
</extensions>
</trkpt>
<trkpt lat="31.212684631" lon="34.802307129">
<ele>268.156250</ele>
<time>2013-11-19T09:10:49Z</time>
<speed>4.870000</speed>
<extensions>
<speed>4.9</speed>
<temp>0.00</temp>
<bpm>0</bpm>
<rpm>0.00</rpm>
</extensions>
</trkpt>
<trkpt lat="31.212453842" lon="34.802234650">
<ele>267.835938</ele>
<time>2013-11-19T09:10:54Z</time>
<speed>5.550000</speed>
<extensions>
<speed>5.5</speed>
<temp>0.00</temp>
<bpm>0</bpm>
<rpm>0.00</rpm>
</extensions>
</trkpt>
<trkpt lat="31.212198257" lon="34.802135468">
<ele>268.835938</ele>
<time>2013-11-19T09:10:59Z</time>
<speed>5.010000</speed>
<extensions>
<speed>5.0</speed>
<temp>0.00</temp>
<bpm>0</bpm>
<rpm>0.00</rpm>
</extensions>
</trkpt>
<trkpt lat="31.211944580" lon="34.802055359">
<ele>270.039063</ele>
<time>2013-11-19T09:11:04Z</time>
<speed>5.050000</speed>
<extensions>
<speed>5.1</speed>
<temp>0.00</temp>
<bpm>0</bpm>
<rpm>0.00</rpm>
</extensions>
</trkpt>
<trkpt lat="31.211698532" lon="34.801986694">
<ele>270.828125</ele>
<time>2013-11-19T09:11:09Z</time>
<speed>5.720000</speed>
<extensions>
<speed>5.7</speed>
<temp>0.00</temp>
<bpm>0</bpm>
<rpm>0.00</rpm>
</extensions>
</trkpt>
<trkpt lat="31.211418152" lon="34.801933289">
<ele>271.953125</ele>
<time>2013-11-19T09:11:14Z</time>
<speed>6.340000</speed>
<extensions>
<speed>6.3</speed>
<temp>0.00</temp>
<bpm>0</bpm>
<rpm>0.00</rpm>
</extensions>
</trkpt>
<trkpt lat="31.211099625" lon="34.801853180">
<ele>273.500000</ele>
<time>2013-11-19T09:11:19Z</time>
<speed>6.290000</speed>
<extensions>
<speed>6.3</speed>
<temp>0.00</temp>
<bpm>0</bpm>
<rpm>0.00</rpm>
</extensions>
</trkpt>
<trkpt lat="31.210817337" lon="34.801834106">
<ele>273.468750</ele>
<time>2013-11-19T09:11:24Z</time>
<speed>6.330000</speed>
<extensions>
<speed>6.3</speed>
<temp>0.00</temp>
<bpm>0</bpm>
<rpm>0.00</rpm>
</extensions>
</trkpt>
<trkpt lat="31.210542679" lon="34.801807404">
<ele>273.992188</ele>
<time>2013-11-19T09:11:29Z</time>
<speed>5.820000</speed>
<extensions>
<speed>5.8</speed>
<temp>0.00</temp>
<bpm>0</bpm>
<rpm>0.00</rpm>
</extensions>
</trkpt>
<trkpt lat="31.210285187" lon="34.801784515">
<ele>274.125000</ele>
<time>2013-11-19T09:11:34Z</time>
<speed>5.230000</speed>
<extensions>
<speed>5.2</speed>
<temp>0.00</temp>
<bpm>0</bpm>
<rpm>0.00</rpm>
</extensions>
</trkpt>
<trkpt lat="31.210052490" lon="34.801776886">
<ele>275.375000</ele>
<time>2013-11-19T09:11:39Z</time>
<speed>5.210000</speed>
<extensions>
<speed>5.2</speed>
<temp>0.00</temp>
<bpm>0</bpm>
<rpm>0.00</rpm>
</extensions>
</trkpt>
<trkpt lat="31.209829330" lon="34.801776886">
<ele>275.843750</ele>
<time>2013-11-19T09:11:44Z</time>
<speed>5.080000</speed>
<extensions>
<speed>5.1</speed>
<temp>0.00</temp>
<bpm>0</bpm>
<rpm>0.00</rpm>
</extensions>
</trkpt>
<trkpt lat="31.209615707" lon="34.801803589">
<ele>275.023438</ele>
<time>2013-11-19T09:11:49Z</time>
<speed>4.520000</speed>
<extensions>
<speed>4.5</speed>
<temp>0.00</temp>
<bpm>0</bpm>
<rpm>0.00</rpm>
</extensions>
</trkpt>
<trkpt lat="31.209415436" lon="34.801834106">
<ele>276.218750</ele>
<time>2013-11-19T09:11:54Z</time>
<speed>5.000000</speed>
<extensions>
<speed>5.0</speed>
<temp>0.00</temp>
<bpm>0</bpm>
<rpm>0.00</rpm>
</extensions>
</trkpt>
<trkpt lat="31.209199905" lon="34.801895142">
<ele>279.914063</ele>
<time>2013-11-19T09:11:59Z</time>
<speed>5.180000</speed>
<extensions>
<speed>5.2</speed>
<temp>0.00</temp>
<bpm>0</bpm>
<rpm>0.00</rpm>
</extensions>
</trkpt>
<trkpt lat="31.208971024" lon="34.801914215">
<ele>281.343750</ele>
<time>2013-11-19T09:12:04Z</time>
<speed>5.210000</speed>
<extensions>
<speed>5.2</speed>
<temp>0.00</temp>
<bpm>0</bpm>
<rpm>0.00</rpm>
</extensions>
</trkpt>
<trkpt lat="31.208724976" lon="34.801925659">
<ele>281.632813</ele>
<time>2013-11-19T09:12:09Z</time>
<speed>5.370000</speed>
<extensions>
<speed>5.4</speed>
<temp>0.00</temp>
<bpm>0</bpm>
<rpm>0.00</rpm>
</extensions>
</trkpt>
<trkpt lat="31.208488464" lon="34.801967621">
<ele>282.875000</ele>
<time>2013-11-19T09:12:14Z</time>
<speed>5.120000</speed>
<extensions>
<speed>5.1</speed>
<temp>0.00</temp>
<bpm>0</bpm>
<rpm>0.00</rpm>
</extensions>
</trkpt>
<trkpt lat="31.208377838" lon="34.801982880">
<ele>282.617188</ele>
<time>2013-11-19T09:12:19Z</time>
<speed>0.190000</speed>
<extensions>
<speed>0.2</speed>
<temp>0.00</temp>
<bpm>0</bpm>
<rpm>0.00</rpm>
</extensions>
</trkpt>
<trkpt lat="31.208358765" lon="34.801979065">
<ele>282.687500</ele>
<time>2013-11-19T09:12:24Z</time>
<speed>0.120000</speed>
<extensions>
<speed>0.1</speed>
<temp>0.00</temp>
<bpm>0</bpm>
<rpm>0.00</rpm>
</extensions>
</trkpt>
<trkpt lat="31.208333969" lon="34.801979065">
<ele>282.601563</ele>
<time>2013-11-19T09:12:29Z</time>
<speed>0.220000</speed>
<extensions>
<speed>0.2</speed>
<temp>0.00</temp>
<bpm>0</bpm>
<rpm>0.00</rpm>
</extensions>
</trkpt>
<trkpt lat="31.208332062" lon="34.801982880">
<ele>282.515625</ele>
<time>2013-11-19T09:12:34Z</time>
<speed>0.010000</speed>
<extensions>
<speed>0.0</speed>
<temp>0.00</temp>
<bpm>0</bpm>
<rpm>0.00</rpm>
</extensions>
</trkpt>
<trkpt lat="31.208335876" lon="34.801975250">
<ele>282.515625</ele>
<time>2013-11-19T09:12:39Z</time>
<speed>0.550000</speed>
<extensions>
<speed>0.6</speed>
<temp>0.00</temp>
<bpm>0</bpm>
<rpm>0.00</rpm>
</extensions>
</trkpt>
<trkpt lat="31.208332062" lon="34.801967621">
<ele>282.593750</ele>
<time>2013-11-19T09:12:44Z</time>
<speed>0.120000</speed>
<extensions>
<speed>0.1</speed>
<temp>0.00</temp>
<bpm>0</bpm>
<rpm>0.00</rpm>
</extensions>
</trkpt>
<trkpt lat="31.208333969" lon="34.801963806">
<ele>282.656250</ele>
<time>2013-11-19T09:12:49Z</time>
<speed>0.050000</speed>
<extensions>
<speed>0.1</speed>
<temp>0.00</temp>
<bpm>0</bpm>
<rpm>0.00</rpm>
</extensions>
</trkpt>
<trkpt lat="31.208333969" lon="34.801967621">
<ele>282.695313</ele>
<time>2013-11-19T09:12:54Z</time>
<speed>0.090000</speed>
<extensions>
<speed>0.1</speed>
<temp>0.00</temp>
<bpm>0</bpm>
<rpm>0.00</rpm>
</extensions>
</trkpt>
<trkpt lat="31.208332062" lon="34.801971436">
<ele>282.710938</ele>
<time>2013-11-19T09:12:59Z</time>
<speed>0.110000</speed>
<extensions>
<speed>0.1</speed>
<temp>0.00</temp>
<bpm>0</bpm>
<rpm>0.00</rpm>
</extensions>
</trkpt>
<trkpt lat="31.208332062" lon="34.801982880">
<ele>282.726563</ele>
<time>2013-11-19T09:13:04Z</time>
<speed>0.250000</speed>
<extensions>
<speed>0.2</speed>
<temp>0.00</temp>
<bpm>0</bpm>
<rpm>0.00</rpm>
</extensions>
</trkpt>
<trkpt lat="31.208333969" lon="34.802001953">
<ele>282.765625</ele>
<time>2013-11-19T09:13:09Z</time>
<speed>0.380000</speed>
<extensions>
<speed>0.4</speed>
<temp>0.00</temp>
<bpm>0</bpm>
<rpm>0.00</rpm>
</extensions>
</trkpt>
<trkpt lat="31.208335876" lon="34.802021027">
<ele>282.812500</ele>
<time>2013-11-19T09:13:14Z</time>
<speed>0.310000</speed>
<extensions>
<speed>0.3</speed>
<temp>0.00</temp>
<bpm>0</bpm>
<rpm>0.00</rpm>
</extensions>
</trkpt>
<trkpt lat="31.208339691" lon="34.802040100">
<ele>282.859375</ele>
<time>2013-11-19T09:13:19Z</time>
<speed>0.340000</speed>
<extensions>
<speed>0.3</speed>
<temp>0.00</temp>
<bpm>0</bpm>
<rpm>0.00</rpm>
</extensions>
</trkpt>
<trkpt lat="31.208343506" lon="34.802059174">
<ele>282.921875</ele>
<time>2013-11-19T09:13:24Z</time>
<speed>0.350000</speed>
<extensions>
<speed>0.3</speed>
<temp>0.00</temp>
<bpm>0</bpm>
<rpm>0.00</rpm>
</extensions>
</trkpt>
<trkpt lat="31.208354950" lon="34.802074432">
<ele>282.984375</ele>
<time>2013-11-19T09:13:29Z</time>
<speed>0.350000</speed>
<extensions>
<speed>0.3</speed>
<temp>0.00</temp>
<bpm>0</bpm>
<rpm>0.00</rpm>
</extensions>
</trkpt>
<trkpt lat="31.208364487" lon="34.802082062">
<ele>283.039063</ele>
<time>2013-11-19T09:13:34Z</time>
<speed>0.330000</speed>
<extensions>
<speed>0.3</speed>
<temp>0.00</temp>
<bpm>0</bpm>
<rpm>0.00</rpm>
</extensions>
</trkpt>
<trkpt lat="31.208366394" lon="34.802082062">
<ele>282.585938</ele>
<time>2013-11-19T09:13:39Z</time>
<extensions>
<speed>0.0</speed>
<temp>0.00</temp>
<bpm>0</bpm>
<rpm>0.00</rpm>
</extensions>
</trkpt>
<trkpt lat="31.208366394" lon="34.802082062">
<ele>282.570313</ele>
<time>2013-11-19T09:13:44Z</time>
<speed>0.010000</speed>
<extensions>
<speed>0.0</speed>
<temp>0.00</temp>
<bpm>0</bpm>
<rpm>0.00</rpm>
</extensions>
</trkpt>
<trkpt lat="31.208366394" lon="34.802082062">
<ele>282.554688</ele>
<time>2013-11-19T09:13:49Z</time>
<extensions>
<speed>0.0</speed>
<temp>0.00</temp>
<bpm>0</bpm>
<rpm>0.00</rpm>
</extensions>
</trkpt>
<trkpt lat="31.208366394" lon="34.802082062">
<ele>282.546875</ele>
<time>2013-11-19T09:13:54Z</time>
<speed>0.010000</speed>
<extensions>
<speed>0.0</speed>
<temp>0.00</temp>
<bpm>0</bpm>
<rpm>0.00</rpm>
</extensions>
</trkpt>
<trkpt lat="31.208366394" lon="34.802082062">
<ele>282.539063</ele>
<time>2013-11-19T09:13:59Z</time>
<extensions>
<speed>0.0</speed>
<temp>0.00</temp>
<bpm>0</bpm>
<rpm>0.00</rpm>
</extensions>
</trkpt>
<trkpt lat="31.208366394" lon="34.802082062">
<ele>282.531250</ele>
<time>2013-11-19T09:14:04Z</time>
<speed>0.010000</speed>
<extensions>
<speed>0.0</speed>
<temp>0.00</temp>
<bpm>0</bpm>
<rpm>0.00</rpm>
</extensions>
</trkpt>
<trkpt lat="31.208366394" lon="34.802082062">
<ele>282.523438</ele>
<time>2013-11-19T09:14:09Z</time>
<extensions>
<speed>0.0</speed>
<temp>0.00</temp>
<bpm>0</bpm>
<rpm>0.00</rpm>
</extensions>
</trkpt>
<trkpt lat="31.208366394" lon="34.802082062">
<ele>282.531250</ele>
<time>2013-11-19T09:14:14Z</time>
<speed>0.010000</speed>
<extensions>
<speed>0.0</speed>
<temp>0.00</temp>
<bpm>0</bpm>
<rpm>0.00</rpm>
</extensions>
</trkpt>
<trkpt lat="31.208366394" lon="34.802082062">
<ele>282.539063</ele>
<time>2013-11-19T09:14:19Z</time>
<speed>0.010000</speed>
<extensions>
<speed>0.0</speed>
<temp>0.00</temp>
<bpm>0</bpm>
<rpm>0.00</rpm>
</extensions>
</trkpt>
<trkpt lat="31.208366394" lon="34.802082062">
<ele>282.539063</ele>
<time>2013-11-19T09:14:24Z</time>
<extensions>
<speed>0.0</speed>
<temp>0.00</temp>
<bpm>0</bpm>
<rpm>0.00</rpm>
</extensions>
</trkpt>
<trkpt lat="31.208366394" lon="34.802082062">
<ele>282.515625</ele>
<time>2013-11-19T09:14:29Z</time>
<speed>0.020000</speed>
<extensions>
<speed>0.0</speed>
<temp>0.00</temp>
<bpm>0</bpm>
<rpm>0.00</rpm>
</extensions>
</trkpt>
<trkpt lat="31.208366394" lon="34.802082062">
<ele>282.500000</ele>
<time>2013-11-19T09:14:34Z</time>
<speed>0.010000</speed>
<extensions>
<speed>0.0</speed>
<temp>0.00</temp>
<bpm>0</bpm>
<rpm>0.00</rpm>
</extensions>
</trkpt>
<trkpt lat="31.208366394" lon="34.802082062">
<ele>282.476563</ele>
<time>2013-11-19T09:14:39Z</time>
<extensions>
<speed>0.0</speed>
<temp>0.00</temp>
<bpm>0</bpm>
<rpm>0.00</rpm>
</extensions>
</trkpt>
<trkpt lat="31.208366394" lon="34.802082062">
<ele>282.468750</ele>
<time>2013-11-19T09:14:44Z</time>
<extensions>
<speed>0.0</speed>
<temp>0.00</temp>
<bpm>0</bpm>
<rpm>0.00</rpm>
</extensions>
</trkpt>
<trkpt lat="31.208366394" lon="34.802082062">
<ele>282.460938</ele>
<time>2013-11-19T09:14:49Z</time>
<extensions>
<speed>0.0</speed>
<temp>0.00</temp>
<bpm>0</bpm>
<rpm>0.00</rpm>
</extensions>
</trkpt>
<trkpt lat="31.208366394" lon="34.802082062">
<ele>282.460938</ele>
<time>2013-11-19T09:14:54Z</time>
<extensions>
<speed>0.0</speed>
<temp>0.00</temp>
<bpm>0</bpm>
<rpm>0.00</rpm>
</extensions>
</trkpt>
<trkpt lat="31.208366394" lon="34.802082062">
<ele>282.460938</ele>
<time>2013-11-19T09:14:59Z</time>
<extensions>
<speed>0.0</speed>
<temp>0.00</temp>
<bpm>0</bpm>
<rpm>0.00</rpm>
</extensions>
</trkpt>
<trkpt lat="31.208366394" lon="34.802082062">
<ele>282.453125</ele>
<time>2013-11-19T09:15:04Z</time>
<extensions>
<speed>0.0</speed>
<temp>0.00</temp>
<bpm>0</bpm>
<rpm>0.00</rpm>
</extensions>
</trkpt>
<trkpt lat="31.208366394" lon="34.802082062">
<ele>282.460938</ele>
<time>2013-11-19T09:15:09Z</time>
<extensions>
<speed>0.0</speed>
<temp>0.00</temp>
<bpm>0</bpm>
<rpm>0.00</rpm>
</extensions>
</trkpt>
<trkpt lat="31.208366394" lon="34.802082062">
<ele>282.476563</ele>
<time>2013-11-19T09:15:14Z</time>
<speed>0.020000</speed>
<extensions>
<speed>0.0</speed>
<temp>0.00</temp>
<bpm>0</bpm>
<rpm>0.00</rpm>
</extensions>
</trkpt>
<trkpt lat="31.208366394" lon="34.802082062">
<ele>282.476563</ele>
<time>2013-11-19T09:15:19Z</time>
<speed>0.010000</speed>
<extensions>
<speed>0.0</speed>
<temp>0.00</temp>
<bpm>0</bpm>
<rpm>0.00</rpm>
</extensions>
</trkpt>
<trkpt lat="31.208366394" lon="34.802082062">
<ele>282.484375</ele>
<time>2013-11-19T09:15:24Z</time>
<speed>0.090000</speed>
<extensions>
<speed>0.1</speed>
<temp>0.00</temp>
<bpm>0</bpm>
<rpm>0.00</rpm>
</extensions>
</trkpt>
<trkpt lat="31.208366394" lon="34.802082062">
<ele>282.492188</ele>
<time>2013-11-19T09:15:29Z</time>
<speed>0.010000</speed>
<extensions>
<speed>0.0</speed>
<temp>0.00</temp>
<bpm>0</bpm>
<rpm>0.00</rpm>
</extensions>
</trkpt>
<trkpt lat="31.208366394" lon="34.802082062">
<ele>282.492188</ele>
<time>2013-11-19T09:15:34Z</time>
<speed>0.010000</speed>
<extensions>
<speed>0.0</speed>
<temp>0.00</temp>
<bpm>0</bpm>
<rpm>0.00</rpm>
</extensions>
</trkpt>
<trkpt lat="31.208366394" lon="34.802082062">
<ele>282.484375</ele>
<time>2013-11-19T09:15:39Z</time>
<speed>0.010000</speed>
<extensions>
<speed>0.0</speed>
<temp>0.00</temp>
<bpm>0</bpm>
<rpm>0.00</rpm>
</extensions>
</trkpt>
<trkpt lat="31.208366394" lon="34.802082062">
<ele>282.476563</ele>
<time>2013-11-19T09:15:44Z</time>
<speed>0.010000</speed>
<extensions>
<speed>0.0</speed>
<temp>0.00</temp>
<bpm>0</bpm>
<rpm>0.00</rpm>
</extensions>
</trkpt>
<trkpt lat="31.208366394" lon="34.802082062">
<ele>282.468750</ele>
<time>2013-11-19T09:15:49Z</time>
<extensions>
<speed>0.0</speed>
<temp>0.00</temp>
<bpm>0</bpm>
<rpm>0.00</rpm>
</extensions>
</trkpt>
<trkpt lat="31.208366394" lon="34.802082062">
<ele>282.453125</ele>
<time>2013-11-19T09:15:54Z</time>
<extensions>
<speed>0.0</speed>
<temp>0.00</temp>
<bpm>0</bpm>
<rpm>0.00</rpm>
</extensions>
</trkpt>
<trkpt lat="31.208366394" lon="34.802082062">
<ele>282.437500</ele>
<time>2013-11-19T09:15:59Z</time>
<speed>0.010000</speed>
<extensions>
<speed>0.0</speed>
<temp>0.00</temp>
<bpm>0</bpm>
<rpm>0.00</rpm>
</extensions>
</trkpt>
<trkpt lat="31.208366394" lon="34.802082062">
<ele>282.429688</ele>
<time>2013-11-19T09:16:04Z</time>
<extensions>
<speed>0.0</speed>
<temp>0.00</temp>
<bpm>0</bpm>
<rpm>0.00</rpm>
</extensions>
</trkpt>
<trkpt lat="31.208366394" lon="34.802082062">
<ele>282.421875</ele>
<time>2013-11-19T09:16:09Z</time>
<extensions>
<speed>0.0</speed>
<temp>0.00</temp>
<bpm>0</bpm>
<rpm>0.00</rpm>
</extensions>
</trkpt>
<trkpt lat="31.208366394" lon="34.802082062">
<ele>282.406250</ele>
<time>2013-11-19T09:16:14Z</time>
<speed>0.010000</speed>
<extensions>
<speed>0.0</speed>
<temp>0.00</temp>
<bpm>0</bpm>
<rpm>0.00</rpm>
</extensions>
</trkpt>
<trkpt lat="31.208366394" lon="34.802082062">
<ele>282.390625</ele>
<time>2013-11-19T09:16:19Z</time>
<speed>0.010000</speed>
<extensions>
<speed>0.0</speed>
<temp>0.00</temp>
<bpm>0</bpm>
<rpm>0.00</rpm>
</extensions>
</trkpt>
<trkpt lat="31.208366394" lon="34.802082062">
<ele>282.367188</ele>
<time>2013-11-19T09:16:24Z</time>
<speed>0.010000</speed>
<extensions>
<speed>0.0</speed>
<temp>0.00</temp>
<bpm>0</bpm>
<rpm>0.00</rpm>
</extensions>
</trkpt>
<trkpt lat="31.208366394" lon="34.802082062">
<ele>282.359375</ele>
<time>2013-11-19T09:16:29Z</time>
<extensions>
<speed>0.0</speed>
<temp>0.00</temp>
<bpm>0</bpm>
<rpm>0.00</rpm>
</extensions>
</trkpt>
<trkpt lat="31.208366394" lon="34.802082062">
<ele>282.382813</ele>
<time>2013-11-19T09:16:34Z</time>
<speed>0.020000</speed>
<extensions>
<speed>0.0</speed>
<temp>0.00</temp>
<bpm>0</bpm>
<rpm>0.00</rpm>
</extensions>
</trkpt>
<trkpt lat="31.208366394" lon="34.802082062">
<ele>282.382813</ele>
<time>2013-11-19T09:16:39Z</time>
<speed>0.010000</speed>
<extensions>
<speed>0.0</speed>
<temp>0.00</temp>
<bpm>0</bpm>
<rpm>0.00</rpm>
</extensions>
</trkpt>
<trkpt lat="31.208366394" lon="34.802082062">
<ele>282.414063</ele>
<time>2013-11-19T09:16:44Z</time>
<speed>0.010000</speed>
<extensions>
<speed>0.0</speed>
<temp>0.00</temp>
<bpm>0</bpm>
<rpm>0.00</rpm>
</extensions>
</trkpt>
<trkpt lat="31.208366394" lon="34.802082062">
<ele>282.437500</ele>
<time>2013-11-19T09:16:49Z</time>
<speed>0.010000</speed>
<extensions>
<speed>0.0</speed>
<temp>0.00</temp>
<bpm>0</bpm>
<rpm>0.00</rpm>
</extensions>
</trkpt>
<trkpt lat="31.208366394" lon="34.802082062">
<ele>282.460938</ele>
<time>2013-11-19T09:16:54Z</time>
<extensions>
<speed>0.0</speed>
<temp>0.00</temp>
<bpm>0</bpm>
<rpm>0.00</rpm>
</extensions>
</trkpt>
<trkpt lat="31.208366394" lon="34.802082062">
<ele>282.468750</ele>
<time>2013-11-19T09:16:59Z</time>
<extensions>
<speed>0.0</speed>
<temp>0.00</temp>
<bpm>0</bpm>
<rpm>0.00</rpm>
</extensions>
</trkpt>
<trkpt lat="31.208366394" lon="34.802082062">
<ele>282.484375</ele>
<time>2013-11-19T09:17:04Z</time>
<extensions>
<speed>0.0</speed>
<temp>0.00</temp>
<bpm>0</bpm>
<rpm>0.00</rpm>
</extensions>
</trkpt>
<trkpt lat="31.208366394" lon="34.802082062">
<ele>282.476563</ele>
<time>2013-11-19T09:17:09Z</time>
<speed>0.020000</speed>
<extensions>
<speed>0.0</speed>
<temp>0.00</temp>
<bpm>0</bpm>
<rpm>0.00</rpm>
</extensions>
</trkpt>
<trkpt lat="31.208366394" lon="34.802082062">
<ele>282.507813</ele>
<time>2013-11-19T09:17:14Z</time>
<speed>0.020000</speed>
<extensions>
<speed>0.0</speed>
<temp>0.00</temp>
<bpm>0</bpm>
<rpm>0.00</rpm>
</extensions>
</trkpt>
<trkpt lat="31.208366394" lon="34.802082062">
<ele>282.507813</ele>
<time>2013-11-19T09:17:19Z</time>
<speed>0.010000</speed>
<extensions>
<speed>0.0</speed>
<temp>0.00</temp>
<bpm>0</bpm>
<rpm>0.00</rpm>
</extensions>
</trkpt>
<trkpt lat="31.208366394" lon="34.802082062">
<ele>282.515625</ele>
<time>2013-11-19T09:17:24Z</time>
<extensions>
<speed>0.0</speed>
<temp>0.00</temp>
<bpm>0</bpm>
<rpm>0.00</rpm>
</extensions>
</trkpt>
<trkpt lat="31.208366394" lon="34.802082062">
<ele>282.507813</ele>
<time>2013-11-19T09:17:29Z</time>
<speed>0.010000</speed>
<extensions>
<speed>0.0</speed>
<temp>0.00</temp>
<bpm>0</bpm>
<rpm>0.00</rpm>
</extensions>
</trkpt>
<trkpt lat="31.208366394" lon="34.802082062">
<ele>282.515625</ele>
<time>2013-11-19T09:17:34Z</time>
<extensions>
<speed>0.0</speed>
<temp>0.00</temp>
<bpm>0</bpm>
<rpm>0.00</rpm>
</extensions>
</trkpt>
<trkpt lat="31.208366394" lon="34.802082062">
<ele>282.523438</ele>
<time>2013-11-19T09:17:39Z</time>
<speed>0.060000</speed>
<extensions>
<speed>0.1</speed>
<temp>0.00</temp>
<bpm>0</bpm>
<rpm>0.00</rpm>
</extensions>
</trkpt>
<trkpt lat="31.208366394" lon="34.802082062">
<ele>282.546875</ele>
<time>2013-11-19T09:17:44Z</time>
<speed>0.020000</speed>
<extensions>
<speed>0.0</speed>
<temp>0.00</temp>
<bpm>0</bpm>
<rpm>0.00</rpm>
</extensions>
</trkpt>
<trkpt lat="31.208366394" lon="34.802082062">
<ele>282.562500</ele>
<time>2013-11-19T09:17:49Z</time>
<extensions>
<speed>0.0</speed>
<temp>0.00</temp>
<bpm>0</bpm>
<rpm>0.00</rpm>
</extensions>
</trkpt>
<trkpt lat="31.208366394" lon="34.802082062">
<ele>282.570313</ele>
<time>2013-11-19T09:17:54Z</time>
<extensions>
<speed>0.0</speed>
<temp>0.00</temp>
<bpm>0</bpm>
<rpm>0.00</rpm>
</extensions>
</trkpt>
<trkpt lat="31.208366394" lon="34.802082062">
<ele>282.578125</ele>
<time>2013-11-19T09:17:59Z</time>
<extensions>
<speed>0.0</speed>
<temp>0.00</temp>
<bpm>0</bpm>
<rpm>0.00</rpm>
</extensions>
</trkpt>
<trkpt lat="31.208364487" lon="34.802082062">
<ele>282.585938</ele>
<time>2013-11-19T09:18:04Z</time>
<extensions>
<speed>0.0</speed>
<temp>0.00</temp>
<bpm>0</bpm>
<rpm>0.00</rpm>
</extensions>
</trkpt>
<trkpt lat="31.208364487" lon="34.802082062">
<ele>282.593750</ele>
<time>2013-11-19T09:18:09Z</time>
<speed>0.010000</speed>
<extensions>
<speed>0.0</speed>
<temp>0.00</temp>
<bpm>0</bpm>
<rpm>0.00</rpm>
</extensions>
</trkpt>
<trkpt lat="31.208364487" lon="34.802082062">
<ele>282.593750</ele>
<time>2013-11-19T09:18:14Z</time>
<speed>0.020000</speed>
<extensions>
<speed>0.0</speed>
<temp>0.00</temp>
<bpm>0</bpm>
<rpm>0.00</rpm>
</extensions>
</trkpt>
<trkpt lat="31.208364487" lon="34.802082062">
<ele>282.593750</ele>
<time>2013-11-19T09:18:19Z</time>
<speed>0.020000</speed>
<extensions>
<speed>0.0</speed>
<temp>0.00</temp>
<bpm>0</bpm>
<rpm>0.00</rpm>
</extensions>
</trkpt>
<trkpt lat="31.208364487" lon="34.802078247">
<ele>282.593750</ele>
<time>2013-11-19T09:18:24Z</time>
<speed>0.010000</speed>
<extensions>
<speed>0.0</speed>
<temp>0.00</temp>
<bpm>0</bpm>
<rpm>0.00</rpm>
</extensions>
</trkpt>
<trkpt lat="31.208364487" lon="34.802078247">
<ele>282.593750</ele>
<time>2013-11-19T09:18:29Z</time>
<extensions>
<speed>0.0</speed>
<temp>0.00</temp>
<bpm>0</bpm>
<rpm>0.00</rpm>
</extensions>
</trkpt>
<trkpt lat="31.208364487" lon="34.802078247">
<ele>282.609375</ele>
<time>2013-11-19T09:18:34Z</time>
<speed>0.010000</speed>
<extensions>
<speed>0.0</speed>
<temp>0.00</temp>
<bpm>0</bpm>
<rpm>0.00</rpm>
</extensions>
</trkpt>
<trkpt lat="31.208364487" lon="34.802078247">
<ele>282.617188</ele>
<time>2013-11-19T09:18:39Z</time>
<speed>0.010000</speed>
<extensions>
<speed>0.0</speed>
<temp>0.00</temp>
<bpm>0</bpm>
<rpm>0.00</rpm>
</extensions>
</trkpt>
<trkpt lat="31.208364487" lon="34.802078247">
<ele>282.625000</ele>
<time>2013-11-19T09:18:44Z</time>
<extensions>
<speed>0.0</speed>
<temp>0.00</temp>
<bpm>0</bpm>
<rpm>0.00</rpm>
</extensions>
</trkpt>
<trkpt lat="31.208364487" lon="34.802078247">
<ele>282.632813</ele>
<time>2013-11-19T09:18:49Z</time>
<speed>0.050000</speed>
<extensions>
<speed>0.1</speed>
<temp>0.00</temp>
<bpm>0</bpm>
<rpm>0.00</rpm>
</extensions>
</trkpt>
<trkpt lat="31.208364487" lon="34.802078247">
<ele>282.640625</ele>
<time>2013-11-19T09:18:54Z</time>
<speed>0.010000</speed>
<extensions>
<speed>0.0</speed>
<temp>0.00</temp>
<bpm>0</bpm>
<rpm>0.00</rpm>
</extensions>
</trkpt>
<trkpt lat="31.208364487" lon="34.802078247">
<ele>282.640625</ele>
<time>2013-11-19T09:18:59Z</time>
<extensions>
<speed>0.0</speed>
<temp>0.00</temp>
<bpm>0</bpm>
<rpm>0.00</rpm>
</extensions>
</trkpt>
<trkpt lat="31.208364487" lon="34.802078247">
<ele>282.632813</ele>
<time>2013-11-19T09:19:04Z</time>
<extensions>
<speed>0.0</speed>
<temp>0.00</temp>
<bpm>0</bpm>
<rpm>0.00</rpm>
</extensions>
</trkpt>
<trkpt lat="31.208364487" lon="34.802078247">
<ele>282.632813</ele>
<time>2013-11-19T09:19:09Z</time>
<speed>0.010000</speed>
<extensions>
<speed>0.0</speed>
<temp>0.00</temp>
<bpm>0</bpm>
<rpm>0.00</rpm>
</extensions>
</trkpt>
<trkpt lat="31.208364487" lon="34.802078247">
<ele>282.648438</ele>
<time>2013-11-19T09:19:14Z</time>
<extensions>
<speed>0.0</speed>
<temp>0.00</temp>
<bpm>0</bpm>
<rpm>0.00</rpm>
</extensions>
</trkpt>
<trkpt lat="31.208364487" lon="34.802078247">
<ele>282.656250</ele>
<time>2013-11-19T09:19:19Z</time>
<speed>0.030000</speed>
<extensions>
<speed>0.0</speed>
<temp>0.00</temp>
<bpm>0</bpm>
<rpm>0.00</rpm>
</extensions>
</trkpt>
<trkpt lat="31.208364487" lon="34.802078247">
<ele>282.664063</ele>
<time>2013-11-19T09:19:24Z</time>
<extensions>
<speed>0.0</speed>
<temp>0.00</temp>
<bpm>0</bpm>
<rpm>0.00</rpm>
</extensions>
</trkpt>
<trkpt lat="31.208364487" lon="34.802078247">
<ele>282.664063</ele>
<time>2013-11-19T09:19:29Z</time>
<extensions>
<speed>0.0</speed>
<temp>0.00</temp>
<bpm>0</bpm>
<rpm>0.00</rpm>
</extensions>
</trkpt>
<trkpt lat="31.208364487" lon="34.802078247">
<ele>282.671875</ele>
<time>2013-11-19T09:19:34Z</time>
<speed>0.010000</speed>
<extensions>
<speed>0.0</speed>
<temp>0.00</temp>
<bpm>0</bpm>
<rpm>0.00</rpm>
</extensions>
</trkpt>
<trkpt lat="31.208364487" lon="34.802078247">
<ele>282.695313</ele>
<time>2013-11-19T09:19:39Z</time>
<extensions>
<speed>0.0</speed>
<temp>0.00</temp>
<bpm>0</bpm>
<rpm>0.00</rpm>
</extensions>
</trkpt>
<trkpt lat="31.208366394" lon="34.802078247">
<ele>282.710938</ele>
<time>2013-11-19T09:19:44Z</time>
<speed>0.010000</speed>
<extensions>
<speed>0.0</speed>
<temp>0.00</temp>
<bpm>0</bpm>
<rpm>0.00</rpm>
</extensions>
</trkpt>
<trkpt lat="31.208364487" lon="34.802078247">
<ele>282.726563</ele>
<time>2013-11-19T09:19:49Z</time>
<extensions>
<speed>0.0</speed>
<temp>0.00</temp>
<bpm>0</bpm>
<rpm>0.00</rpm>
</extensions>
</trkpt>
<trkpt lat="31.208364487" lon="34.802078247">
<ele>282.742188</ele>
<time>2013-11-19T09:19:54Z</time>
<speed>0.010000</speed>
<extensions>
<speed>0.0</speed>
<temp>0.00</temp>
<bpm>0</bpm>
<rpm>0.00</rpm>
</extensions>
</trkpt>
<trkpt lat="31.208364487" lon="34.802078247">
<ele>282.750000</ele>
<time>2013-11-19T09:19:59Z</time>
<speed>0.010000</speed>
<extensions>
<speed>0.0</speed>
<temp>0.00</temp>
<bpm>0</bpm>
<rpm>0.00</rpm>
</extensions>
</trkpt>
<trkpt lat="31.208364487" lon="34.802078247">
<ele>282.750000</ele>
<time>2013-11-19T09:20:04Z</time>
<extensions>
<speed>0.0</speed>
<temp>0.00</temp>
<bpm>0</bpm>
<rpm>0.00</rpm>
</extensions>
</trkpt>
<trkpt lat="31.208364487" lon="34.802078247">
<ele>282.757813</ele>
<time>2013-11-19T09:20:09Z</time>
<extensions>
<speed>0.0</speed>
<temp>0.00</temp>
<bpm>0</bpm>
<rpm>0.00</rpm>
</extensions>
</trkpt>
<trkpt lat="31.208364487" lon="34.802078247">
<ele>282.765625</ele>
<time>2013-11-19T09:20:14Z</time>
<extensions>
<speed>0.0</speed>
<temp>0.00</temp>
<bpm>0</bpm>
<rpm>0.00</rpm>
</extensions>
</trkpt>
<trkpt lat="31.208364487" lon="34.802078247">
<ele>282.773438</ele>
<time>2013-11-19T09:20:19Z</time>
<extensions>
<speed>0.0</speed>
<temp>0.00</temp>
<bpm>0</bpm>
<rpm>0.00</rpm>
</extensions>
</trkpt>
<trkpt lat="31.208364487" lon="34.802078247">
<ele>282.781250</ele>
<time>2013-11-19T09:20:24Z</time>
<speed>0.010000</speed>
<extensions>
<speed>0.0</speed>
<temp>0.00</temp>
<bpm>0</bpm>
<rpm>0.00</rpm>
</extensions>
</trkpt>
<trkpt lat="31.208364487" lon="34.802078247">
<ele>282.789063</ele>
<time>2013-11-19T09:20:29Z</time>
<speed>0.010000</speed>
<extensions>
<speed>0.0</speed>
<temp>0.00</temp>
<bpm>0</bpm>
<rpm>0.00</rpm>
</extensions>
</trkpt>
<trkpt lat="31.208366394" lon="34.802078247">
<ele>282.796875</ele>
<time>2013-11-19T09:20:34Z</time>
<extensions>
<speed>0.0</speed>
<temp>0.00</temp>
<bpm>0</bpm>
<rpm>0.00</rpm>
</extensions>
</trkpt>
<trkpt lat="31.208366394" lon="34.802078247">
<ele>282.796875</ele>
<time>2013-11-19T09:20:39Z</time>
<extensions>
<speed>0.0</speed>
<temp>0.00</temp>
<bpm>0</bpm>
<rpm>0.00</rpm>
</extensions>
</trkpt>
<trkpt lat="31.208366394" lon="34.802078247">
<ele>282.804688</ele>
<time>2013-11-19T09:20:44Z</time>
<speed>0.010000</speed>
<extensions>
<speed>0.0</speed>
<temp>0.00</temp>
<bpm>0</bpm>
<rpm>0.00</rpm>
</extensions>
</trkpt>
<trkpt lat="31.208366394" lon="34.802078247">
<ele>282.796875</ele>
<time>2013-11-19T09:20:49Z</time>
<extensions>
<speed>0.0</speed>
<temp>0.00</temp>
<bpm>0</bpm>
<rpm>0.00</rpm>
</extensions>
</trkpt>
<trkpt lat="31.208366394" lon="34.802078247">
<ele>282.804688</ele>
<time>2013-11-19T09:20:54Z</time>
<speed>0.020000</speed>
<extensions>
<speed>0.0</speed>
<temp>0.00</temp>
<bpm>0</bpm>
<rpm>0.00</rpm>
</extensions>
</trkpt>
<trkpt lat="31.208366394" lon="34.802082062">
<ele>282.812500</ele>
<time>2013-11-19T09:20:59Z</time>
<extensions>
<speed>0.0</speed>
<temp>0.00</temp>
<bpm>0</bpm>
<rpm>0.00</rpm>
</extensions>
</trkpt>
<trkpt lat="31.208366394" lon="34.802082062">
<ele>282.820313</ele>
<time>2013-11-19T09:21:04Z</time>
<speed>0.010000</speed>
<extensions>
<speed>0.0</speed>
<temp>0.00</temp>
<bpm>0</bpm>
<rpm>0.00</rpm>
</extensions>
</trkpt>
<trkpt lat="31.208366394" lon="34.802082062">
<ele>282.835938</ele>
<time>2013-11-19T09:21:09Z</time>
<speed>0.010000</speed>
<extensions>
<speed>0.0</speed>
<temp>0.00</temp>
<bpm>0</bpm>
<rpm>0.00</rpm>
</extensions>
</trkpt>
<trkpt lat="31.208366394" lon="34.802082062">
<ele>282.843750</ele>
<time>2013-11-19T09:21:14Z</time>
<extensions>
<speed>0.0</speed>
<temp>0.00</temp>
<bpm>0</bpm>
<rpm>0.00</rpm>
</extensions>
</trkpt>
<trkpt lat="31.208366394" lon="34.802082062">
<ele>282.851563</ele>
<time>2013-11-19T09:21:19Z</time>
<speed>0.010000</speed>
<extensions>
<speed>0.0</speed>
<temp>0.00</temp>
<bpm>0</bpm>
<rpm>0.00</rpm>
</extensions>
</trkpt>
<trkpt lat="31.208366394" lon="34.802082062">
<ele>282.851563</ele>
<time>2013-11-19T09:21:24Z</time>
<extensions>
<speed>0.0</speed>
<temp>0.00</temp>
<bpm>0</bpm>
<rpm>0.00</rpm>
</extensions>
</trkpt>
<trkpt lat="31.208366394" lon="34.802082062">
<ele>282.859375</ele>
<time>2013-11-19T09:21:29Z</time>
<speed>0.040000</speed>
<extensions>
<speed>0.0</speed>
<temp>0.00</temp>
<bpm>0</bpm>
<rpm>0.00</rpm>
</extensions>
</trkpt>
<trkpt lat="31.208366394" lon="34.802082062">
<ele>282.867188</ele>
<time>2013-11-19T09:21:34Z</time>
<extensions>
<speed>0.0</speed>
<temp>0.00</temp>
<bpm>0</bpm>
<rpm>0.00</rpm>
</extensions>
</trkpt>
<trkpt lat="31.208366394" lon="34.802082062">
<ele>282.867188</ele>
<time>2013-11-19T09:21:39Z</time>
<extensions>
<speed>0.0</speed>
<temp>0.00</temp>
<bpm>0</bpm>
<rpm>0.00</rpm>
</extensions>
</trkpt>
<trkpt lat="31.208366394" lon="34.802082062">
<ele>282.867188</ele>
<time>2013-11-19T09:21:44Z</time>
<speed>0.010000</speed>
<extensions>
<speed>0.0</speed>
<temp>0.00</temp>
<bpm>0</bpm>
<rpm>0.00</rpm>
</extensions>
</trkpt>
<trkpt lat="31.208366394" lon="34.802082062">
<ele>282.867188</ele>
<time>2013-11-19T09:21:49Z</time>
<extensions>
<speed>0.0</speed>
<temp>0.00</temp>
<bpm>0</bpm>
<rpm>0.00</rpm>
</extensions>
</trkpt>
<trkpt lat="31.208366394" lon="34.802082062">
<ele>282.875000</ele>
<time>2013-11-19T09:21:54Z</time>
<extensions>
<speed>0.0</speed>
<temp>0.00</temp>
<bpm>0</bpm>
<rpm>0.00</rpm>
</extensions>
</trkpt>
<trkpt lat="31.208366394" lon="34.802082062">
<ele>282.859375</ele>
<time>2013-11-19T09:21:59Z</time>
<speed>0.040000</speed>
<extensions>
<speed>0.0</speed>
<temp>0.00</temp>
<bpm>0</bpm>
<rpm>0.00</rpm>
</extensions>
</trkpt>
<trkpt lat="31.208366394" lon="34.802082062">
<ele>282.859375</ele>
<time>2013-11-19T09:22:04Z</time>
<extensions>
<speed>0.0</speed>
<temp>0.00</temp>
<bpm>0</bpm>
<rpm>0.00</rpm>
</extensions>
</trkpt>
<trkpt lat="31.208366394" lon="34.802082062">
<ele>282.882813</ele>
<time>2013-11-19T09:22:09Z</time>
<speed>0.060000</speed>
<extensions>
<speed>0.1</speed>
<temp>0.00</temp>
<bpm>0</bpm>
<rpm>0.00</rpm>
</extensions>
</trkpt>
<trkpt lat="31.208366394" lon="34.802082062">
<ele>282.890625</ele>
<time>2013-11-19T09:22:14Z</time>
<speed>0.020000</speed>
<extensions>
<speed>0.0</speed>
<temp>0.00</temp>
<bpm>0</bpm>
<rpm>0.00</rpm>
</extensions>
</trkpt>
<trkpt lat="31.208375931" lon="34.802082062">
<ele>283.085938</ele>
<time>2013-11-19T09:22:19Z</time>
<speed>0.080000</speed>
<extensions>
<speed>0.1</speed>
<temp>0.00</temp>
<bpm>0</bpm>
<rpm>0.00</rpm>
</extensions>
</trkpt>
<trkpt lat="31.208377838" lon="34.802085876">
<ele>283.101563</ele>
<time>2013-11-19T09:22:24Z</time>
<speed>0.150000</speed>
<extensions>
<speed>0.2</speed>
<temp>0.00</temp>
<bpm>0</bpm>
<rpm>0.00</rpm>
</extensions>
</trkpt>
<trkpt lat="31.208379745" lon="34.802089691">
<ele>283.093750</ele>
<time>2013-11-19T09:22:29Z</time>
<speed>0.010000</speed>
<extensions>
<speed>0.0</speed>
<temp>0.00</temp>
<bpm>0</bpm>
<rpm>0.00</rpm>
</extensions>
</trkpt>
<trkpt lat="31.208379745" lon="34.802089691">
<ele>283.093750</ele>
<time>2013-11-19T09:22:34Z</time>
<speed>0.030000</speed>
<extensions>
<speed>0.0</speed>
<temp>0.00</temp>
<bpm>0</bpm>
<rpm>0.00</rpm>
</extensions>
</trkpt>
<trkpt lat="31.208377838" lon="34.802089691">
<ele>283.078125</ele>
<time>2013-11-19T09:22:39Z</time>
<speed>0.010000</speed>
<extensions>
<speed>0.0</speed>
<temp>0.00</temp>
<bpm>0</bpm>
<rpm>0.00</rpm>
</extensions>
</trkpt>
<trkpt lat="31.208377838" lon="34.802089691">
<ele>283.078125</ele>
<time>2013-11-19T09:22:44Z</time>
<speed>0.010000</speed>
<extensions>
<speed>0.0</speed>
<temp>0.00</temp>
<bpm>0</bpm>
<rpm>0.00</rpm>
</extensions>
</trkpt>
<trkpt lat="31.208377838" lon="34.802089691">
<ele>283.062500</ele>
<time>2013-11-19T09:22:49Z</time>
<speed>0.010000</speed>
<extensions>
<speed>0.0</speed>
<temp>0.00</temp>
<bpm>0</bpm>
<rpm>0.00</rpm>
</extensions>
</trkpt>
<trkpt lat="31.208377838" lon="34.802089691">
<ele>283.054688</ele>
<time>2013-11-19T09:22:54Z</time>
<speed>0.010000</speed>
<extensions>
<speed>0.0</speed>
<temp>0.00</temp>
<bpm>0</bpm>
<rpm>0.00</rpm>
</extensions>
</trkpt>
<trkpt lat="31.208377838" lon="34.802089691">
<ele>283.039063</ele>
<time>2013-11-19T09:22:59Z</time>
<speed>0.010000</speed>
<extensions>
<speed>0.0</speed>
<temp>0.00</temp>
<bpm>0</bpm>
<rpm>0.00</rpm>
</extensions>
</trkpt>
<trkpt lat="31.208377838" lon="34.802089691">
<ele>283.023438</ele>
<time>2013-11-19T09:23:04Z</time>
<extensions>
<speed>0.0</speed>
<temp>0.00</temp>
<bpm>0</bpm>
<rpm>0.00</rpm>
</extensions>
</trkpt>
<trkpt lat="31.208377838" lon="34.802089691">
<ele>283.007813</ele>
<time>2013-11-19T09:23:09Z</time>
<speed>0.010000</speed>
<extensions>
<speed>0.0</speed>
<temp>0.00</temp>
<bpm>0</bpm>
<rpm>0.00</rpm>
</extensions>
</trkpt>
<trkpt lat="31.208377838" lon="34.802089691">
<ele>283.023438</ele>
<time>2013-11-19T09:23:14Z</time>
<extensions>
<speed>0.0</speed>
<temp>0.00</temp>
<bpm>0</bpm>
<rpm>0.00</rpm>
</extensions>
</trkpt>
<trkpt lat="31.208377838" lon="34.802089691">
<ele>283.031250</ele>
<time>2013-11-19T09:23:19Z</time>
<extensions>
<speed>0.0</speed>
<temp>0.00</temp>
<bpm>0</bpm>
<rpm>0.00</rpm>
</extensions>
</trkpt>
<trkpt lat="31.208377838" lon="34.802089691">
<ele>283.015625</ele>
<time>2013-11-19T09:23:24Z</time>
<extensions>
<speed>0.0</speed>
<temp>0.00</temp>
<bpm>0</bpm>
<rpm>0.00</rpm>
</extensions>
</trkpt>
<trkpt lat="31.208377838" lon="34.802089691">
<ele>283.015625</ele>
<time>2013-11-19T09:23:29Z</time>
<speed>0.090000</speed>
<extensions>
<speed>0.1</speed>
<temp>0.00</temp>
<bpm>0</bpm>
<rpm>0.00</rpm>
</extensions>
</trkpt>
<trkpt lat="31.208377838" lon="34.802089691">
<ele>283.000000</ele>
<time>2013-11-19T09:23:34Z</time>
<extensions>
<speed>0.0</speed>
<temp>0.00</temp>
<bpm>0</bpm>
<rpm>0.00</rpm>
</extensions>
</trkpt>
<trkpt lat="31.208377838" lon="34.802089691">
<ele>282.984375</ele>
<time>2013-11-19T09:23:39Z</time>
<speed>0.010000</speed>
<extensions>
<speed>0.0</speed>
<temp>0.00</temp>
<bpm>0</bpm>
<rpm>0.00</rpm>
</extensions>
</trkpt>
<trkpt lat="31.208377838" lon="34.802089691">
<ele>282.968750</ele>
<time>2013-11-19T09:23:44Z</time>
<speed>0.080000</speed>
<extensions>
<speed>0.1</speed>
<temp>0.00</temp>
<bpm>0</bpm>
<rpm>0.00</rpm>
</extensions>
</trkpt>
<trkpt lat="31.208379745" lon="34.802089691">
<ele>282.945313</ele>
<time>2013-11-19T09:23:49Z</time>
<extensions>
<speed>0.0</speed>
<temp>0.00</temp>
<bpm>0</bpm>
<rpm>0.00</rpm>
</extensions>
</trkpt>
<trkpt lat="31.208379745" lon="34.802089691">
<ele>282.921875</ele>
<time>2013-11-19T09:23:54Z</time>
<extensions>
<speed>0.0</speed>
<temp>0.00</temp>
<bpm>0</bpm>
<rpm>0.00</rpm>
</extensions>
</trkpt>
<trkpt lat="31.208379745" lon="34.802089691">
<ele>282.890625</ele>
<time>2013-11-19T09:23:59Z</time>
<extensions>
<speed>0.0</speed>
<temp>0.00</temp>
<bpm>0</bpm>
<rpm>0.00</rpm>
</extensions>
</trkpt>
<trkpt lat="31.208379745" lon="34.802089691">
<ele>282.835938</ele>
<time>2013-11-19T09:24:04Z</time>
<extensions>
<speed>0.0</speed>
<temp>0.00</temp>
<bpm>0</bpm>
<rpm>0.00</rpm>
</extensions>
</trkpt>
<trkpt lat="31.208379745" lon="34.802089691">
<ele>282.789063</ele>
<time>2013-11-19T09:24:09Z</time>
<extensions>
<speed>0.0</speed>
<temp>0.00</temp>
<bpm>0</bpm>
<rpm>0.00</rpm>
</extensions>
</trkpt>
<trkpt lat="31.208379745" lon="34.802089691">
<ele>282.742188</ele>
<time>2013-11-19T09:24:14Z</time>
<extensions>
<speed>0.0</speed>
<temp>0.00</temp>
<bpm>0</bpm>
<rpm>0.00</rpm>
</extensions>
</trkpt>
<trkpt lat="31.208379745" lon="34.802089691">
<ele>282.703125</ele>
<time>2013-11-19T09:24:19Z</time>
<extensions>
<speed>0.0</speed>
<temp>0.00</temp>
<bpm>0</bpm>
<rpm>0.00</rpm>
</extensions>
</trkpt>
<trkpt lat="31.208379745" lon="34.802089691">
<ele>282.679688</ele>
<time>2013-11-19T09:24:24Z</time>
<speed>0.010000</speed>
<extensions>
<speed>0.0</speed>
<temp>0.00</temp>
<bpm>0</bpm>
<rpm>0.00</rpm>
</extensions>
</trkpt>
<trkpt lat="31.208379745" lon="34.802089691">
<ele>282.656250</ele>
<time>2013-11-19T09:24:29Z</time>
<speed>0.010000</speed>
<extensions>
<speed>0.0</speed>
<temp>0.00</temp>
<bpm>0</bpm>
<rpm>0.00</rpm>
</extensions>
</trkpt>
<trkpt lat="31.208379745" lon="34.802089691">
<ele>282.632813</ele>
<time>2013-11-19T09:24:34Z</time>
<extensions>
<speed>0.0</speed>
<temp>0.00</temp>
<bpm>0</bpm>
<rpm>0.00</rpm>
</extensions>
</trkpt>
<trkpt lat="31.208379745" lon="34.802089691">
<ele>282.617188</ele>
<time>2013-11-19T09:24:39Z</time>
<extensions>
<speed>0.0</speed>
<temp>0.00</temp>
<bpm>0</bpm>
<rpm>0.00</rpm>
</extensions>
</trkpt>
<trkpt lat="31.208379745" lon="34.802085876">
<ele>282.562500</ele>
<time>2013-11-19T09:24:44Z</time>
<extensions>
<speed>0.0</speed>
<temp>0.00</temp>
<bpm>0</bpm>
<rpm>0.00</rpm>
</extensions>
</trkpt>
<trkpt lat="31.208381653" lon="34.802085876">
<ele>282.546875</ele>
<time>2013-11-19T09:24:49Z</time>
<speed>0.010000</speed>
<extensions>
<speed>0.0</speed>
<temp>0.00</temp>
<bpm>0</bpm>
<rpm>0.00</rpm>
</extensions>
</trkpt>
<trkpt lat="31.208381653" lon="34.802085876">
<ele>282.539063</ele>
<time>2013-11-19T09:24:54Z</time>
<speed>0.080000</speed>
<extensions>
<speed>0.1</speed>
<temp>0.00</temp>
<bpm>0</bpm>
<rpm>0.00</rpm>
</extensions>
</trkpt>
<trkpt lat="31.208332062" lon="34.802021027">
<ele>280.828125</ele>
<time>2013-11-19T09:24:59Z</time>
<speed>2.250000</speed>
<extensions>
<speed>2.3</speed>
<temp>0.00</temp>
<bpm>0</bpm>
<rpm>0.00</rpm>
</extensions>
</trkpt>
<trkpt lat="31.208185196" lon="34.801998138">
<ele>279.968750</ele>
<time>2013-11-19T09:25:04Z</time>
<speed>4.180000</speed>
<extensions>
<speed>4.2</speed>
<temp>0.00</temp>
<bpm>0</bpm>
<rpm>0.00</rpm>
</extensions>
</trkpt>
<trkpt lat="31.207956314" lon="34.802021027">
<ele>280.039063</ele>
<time>2013-11-19T09:25:09Z</time>
<speed>5.240000</speed>
<extensions>
<speed>5.2</speed>
<temp>0.00</temp>
<bpm>0</bpm>
<rpm>0.00</rpm>
</extensions>
</trkpt>
<trkpt lat="31.207773209" lon="34.802036285">
<ele>282.250000</ele>
<time>2013-11-19T09:25:14Z</time>
<speed>0.050000</speed>
<extensions>
<speed>0.1</speed>
<temp>0.00</temp>
<bpm>0</bpm>
<rpm>0.00</rpm>
</extensions>
</trkpt>
<trkpt lat="31.207763672" lon="34.802036285">
<ele>283.875000</ele>
<time>2013-11-19T09:25:19Z</time>
<speed>0.010000</speed>
<extensions>
<speed>0.0</speed>
<temp>0.00</temp>
<bpm>0</bpm>
<rpm>0.00</rpm>
</extensions>
</trkpt>
<trkpt lat="31.207763672" lon="34.802036285">
<ele>283.875000</ele>
<time>2013-11-19T09:25:24Z</time>
<speed>0.110000</speed>
<extensions>
<speed>0.1</speed>
<temp>0.00</temp>
<bpm>0</bpm>
<rpm>0.00</rpm>
</extensions>
</trkpt>
<trkpt lat="31.207708359" lon="34.802043915">
<ele>283.937500</ele>
<time>2013-11-19T09:25:29Z</time>
<speed>3.010000</speed>
<extensions>
<speed>3.0</speed>
<temp>0.00</temp>
<bpm>0</bpm>
<rpm>0.00</rpm>
</extensions>
</trkpt>
<trkpt lat="31.207534790" lon="34.802066803">
<ele>283.945313</ele>
<time>2013-11-19T09:25:34Z</time>
<speed>4.480000</speed>
<extensions>
<speed>4.5</speed>
<temp>0.00</temp>
<bpm>0</bpm>
<rpm>0.00</rpm>
</extensions>
</trkpt>
<trkpt lat="31.207313538" lon="34.802097321">
<ele>283.687500</ele>
<time>2013-11-19T09:25:39Z</time>
<speed>4.860000</speed>
<extensions>
<speed>4.9</speed>
<temp>0.00</temp>
<bpm>0</bpm>
<rpm>0.00</rpm>
</extensions>
</trkpt>
<trkpt lat="31.207073212" lon="34.802131653">
<ele>283.507813</ele>
<time>2013-11-19T09:25:44Z</time>
<speed>5.490000</speed>
<extensions>
<speed>5.5</speed>
<temp>0.00</temp>
<bpm>0</bpm>
<rpm>0.00</rpm>
</extensions>
</trkpt>
<trkpt lat="31.206823349" lon="34.802165985">
<ele>283.140625</ele>
<time>2013-11-19T09:25:49Z</time>
<speed>5.230000</speed>
<extensions>
<speed>5.2</speed>
<temp>0.00</temp>
<bpm>0</bpm>
<rpm>0.00</rpm>
</extensions>
</trkpt>
<trkpt lat="31.206571579" lon="34.802192688">
<ele>282.421875</ele>
<time>2013-11-19T09:25:54Z</time>
<speed>5.790000</speed>
<extensions>
<speed>5.8</speed>
<temp>0.00</temp>
<bpm>0</bpm>
<rpm>0.00</rpm>
</extensions>
</trkpt>
<trkpt lat="31.206304550" lon="34.802230835">
<ele>282.101563</ele>
<time>2013-11-19T09:25:59Z</time>
<speed>5.860000</speed>
<extensions>
<speed>5.9</speed>
<temp>0.00</temp>
<bpm>0</bpm>
<rpm>0.00</rpm>
</extensions>
</trkpt>
<trkpt lat="31.206081390" lon="34.802242279">
<ele>282.101563</ele>
<time>2013-11-19T09:26:04Z</time>
<speed>3.980000</speed>
<extensions>
<speed>4.0</speed>
<temp>0.00</temp>
<bpm>0</bpm>
<rpm>0.00</rpm>
</extensions>
</trkpt>
<trkpt lat="31.205986023" lon="34.802211761">
<ele>280.765625</ele>
<time>2013-11-19T09:26:09Z</time>
<speed>1.070000</speed>
<extensions>
<speed>1.1</speed>
<temp>0.00</temp>
<bpm>0</bpm>
<rpm>0.00</rpm>
</extensions>
</trkpt>
<trkpt lat="31.205970764" lon="34.802143097">
<ele>279.617188</ele>
<time>2013-11-19T09:26:14Z</time>
<speed>1.620000</speed>
<extensions>
<speed>1.6</speed>
<temp>0.00</temp>
<bpm>0</bpm>
<rpm>0.00</rpm>
</extensions>
</trkpt>
<trkpt lat="31.206031799" lon="34.802116394">
<ele>280.000000</ele>
<time>2013-11-19T09:26:19Z</time>
<speed>2.330000</speed>
<extensions>
<speed>2.3</speed>
<temp>0.00</temp>
<bpm>0</bpm>
<rpm>0.00</rpm>
</extensions>
</trkpt>
<trkpt lat="31.206071854" lon="34.802024841">
<ele>279.273438</ele>
<time>2013-11-19T09:26:24Z</time>
<speed>1.660000</speed>
<extensions>
<speed>1.7</speed>
<temp>0.00</temp>
<bpm>0</bpm>
<rpm>0.00</rpm>
</extensions>
</trkpt>
<trkpt lat="31.206010818" lon="34.801979065">
<ele>279.015625</ele>
<time>2013-11-19T09:26:29Z</time>
<speed>1.690000</speed>
<extensions>
<speed>1.7</speed>
<temp>0.00</temp>
<bpm>0</bpm>
<rpm>0.00</rpm>
</extensions>
</trkpt>
<trkpt lat="31.205940247" lon="34.801986694">
<ele>279.796875</ele>
<time>2013-11-19T09:26:34Z</time>
<speed>2.010000</speed>
<extensions>
<speed>2.0</speed>
<temp>0.00</temp>
<bpm>0</bpm>
<rpm>0.00</rpm>
</extensions>
</trkpt>
<trkpt lat="31.205839157" lon="34.801986694">
<ele>281.835938</ele>
<time>2013-11-19T09:26:39Z</time>
<speed>2.160000</speed>
<extensions>
<speed>2.2</speed>
<temp>0.00</temp>
<bpm>0</bpm>
<rpm>0.00</rpm>
</extensions>
</trkpt>
<trkpt lat="31.205739975" lon="34.801982880">
<ele>283.562500</ele>
<time>2013-11-19T09:26:44Z</time>
<speed>2.090000</speed>
<extensions>
<speed>2.1</speed>
<temp>0.00</temp>
<bpm>0</bpm>
<rpm>0.00</rpm>
</extensions>
</trkpt>
<trkpt lat="31.205640793" lon="34.801990509">
<ele>283.960938</ele>
<time>2013-11-19T09:26:49Z</time>
<speed>2.110000</speed>
<extensions>
<speed>2.1</speed>
<temp>0.00</temp>
<bpm>0</bpm>
<rpm>0.00</rpm>
</extensions>
</trkpt>
<trkpt lat="31.205513000" lon="34.801990509">
<ele>284.117188</ele>
<time>2013-11-19T09:26:54Z</time>
<speed>3.220000</speed>
<extensions>
<speed>3.2</speed>
<temp>0.00</temp>
<bpm>0</bpm>
<rpm>0.00</rpm>
</extensions>
</trkpt>
<trkpt lat="31.205373764" lon="34.801986694">
<ele>284.906250</ele>
<time>2013-11-19T09:26:59Z</time>
<speed>3.440000</speed>
<extensions>
<speed>3.4</speed>
<temp>0.00</temp>
<bpm>0</bpm>
<rpm>0.00</rpm>
</extensions>
</trkpt>
<trkpt lat="31.205205917" lon="34.801990509">
<ele>284.179688</ele>
<time>2013-11-19T09:27:04Z</time>
<speed>4.130000</speed>
<extensions>
<speed>4.1</speed>
<temp>0.00</temp>
<bpm>0</bpm>
<rpm>0.00</rpm>
</extensions>
</trkpt>
<trkpt lat="31.205024719" lon="34.802013397">
<ele>284.156250</ele>
<time>2013-11-19T09:27:09Z</time>
<speed>4.130000</speed>
<extensions>
<speed>4.1</speed>
<temp>0.00</temp>
<bpm>0</bpm>
<rpm>0.00</rpm>
</extensions>
</trkpt>
<trkpt lat="31.204837799" lon="34.802051544">
<ele>285.171875</ele>
<time>2013-11-19T09:27:14Z</time>
<speed>4.080000</speed>
<extensions>
<speed>4.1</speed>
<temp>0.00</temp>
<bpm>0</bpm>
<rpm>0.00</rpm>
</extensions>
</trkpt>
<trkpt lat="31.204668045" lon="34.802093506">
<ele>285.398438</ele>
<time>2013-11-19T09:27:19Z</time>
<speed>3.810000</speed>
<extensions>
<speed>3.8</speed>
<temp>0.00</temp>
<bpm>0</bpm>
<rpm>0.00</rpm>
</extensions>
</trkpt>
<trkpt lat="31.204452515" lon="34.802131653">
<ele>283.578125</ele>
<time>2013-11-19T09:27:24Z</time>
<speed>6.980000</speed>
<extensions>
<speed>7.0</speed>
<temp>0.00</temp>
<bpm>0</bpm>
<rpm>0.00</rpm>
</extensions>
</trkpt>
<trkpt lat="31.204103470" lon="34.802131653">
<ele>282.406250</ele>
<time>2013-11-19T09:27:29Z</time>
<speed>6.700000</speed>
<extensions>
<speed>6.7</speed>
<temp>0.00</temp>
<bpm>0</bpm>
<rpm>0.00</rpm>
</extensions>
</trkpt>
<trkpt lat="31.203790665" lon="34.802143097">
<ele>280.718750</ele>
<time>2013-11-19T09:27:34Z</time>
<speed>7.730000</speed>
<extensions>
<speed>7.7</speed>
<temp>0.00</temp>
<bpm>0</bpm>
<rpm>0.00</rpm>
</extensions>
</trkpt>
<trkpt lat="31.203512192" lon="34.802162170">
<ele>281.375000</ele>
<time>2013-11-19T09:27:39Z</time>
<speed>4.830000</speed>
<extensions>
<speed>4.8</speed>
<temp>0.00</temp>
<bpm>0</bpm>
<rpm>0.00</rpm>
</extensions>
</trkpt>
<trkpt lat="31.203306198" lon="34.802120209">
<ele>282.734375</ele>
<time>2013-11-19T09:27:44Z</time>
<speed>4.270000</speed>
<extensions>
<speed>4.3</speed>
<temp>0.00</temp>
<bpm>0</bpm>
<rpm>0.00</rpm>
</extensions>
</trkpt>
<trkpt lat="31.203117371" lon="34.802104950">
<ele>284.242188</ele>
<time>2013-11-19T09:27:49Z</time>
<speed>4.040000</speed>
<extensions>
<speed>4.0</speed>
<temp>0.00</temp>
<bpm>0</bpm>
<rpm>0.00</rpm>
</extensions>
</trkpt>
<trkpt lat="31.202936172" lon="34.802108765">
<ele>285.296875</ele>
<time>2013-11-19T09:27:54Z</time>
<speed>3.750000</speed>
<extensions>
<speed>3.8</speed>
<temp>0.00</temp>
<bpm>0</bpm>
<rpm>0.00</rpm>
</extensions>
</trkpt>
<trkpt lat="31.202772141" lon="34.802112579">
<ele>286.585938</ele>
<time>2013-11-19T09:27:59Z</time>
<speed>3.320000</speed>
<extensions>
<speed>3.3</speed>
<temp>0.00</temp>
<bpm>0</bpm>
<rpm>0.00</rpm>
</extensions>
</trkpt>
<trkpt lat="31.202602386" lon="34.802135468">
<ele>287.843750</ele>
<time>2013-11-19T09:28:04Z</time>
<speed>4.420000</speed>
<extensions>
<speed>4.4</speed>
<temp>0.00</temp>
<bpm>0</bpm>
<rpm>0.00</rpm>
</extensions>
</trkpt>
<trkpt lat="31.202428818" lon="34.802169800">
<ele>289.015625</ele>
<time>2013-11-19T09:28:09Z</time>
<speed>4.180000</speed>
<extensions>
<speed>4.2</speed>
<temp>0.00</temp>
<bpm>0</bpm>
<rpm>0.00</rpm>
</extensions>
</trkpt>
<trkpt lat="31.202260971" lon="34.802207947">
<ele>289.804688</ele>
<time>2013-11-19T09:28:14Z</time>
<speed>3.800000</speed>
<extensions>
<speed>3.8</speed>
<temp>0.00</temp>
<bpm>0</bpm>
<rpm>0.00</rpm>
</extensions>
</trkpt>
<trkpt lat="31.202072144" lon="34.802246094">
<ele>289.382813</ele>
<time>2013-11-19T09:28:19Z</time>
<speed>4.780000</speed>
<extensions>
<speed>4.8</speed>
<temp>0.00</temp>
<bpm>0</bpm>
<rpm>0.00</rpm>
</extensions>
</trkpt>
<trkpt lat="31.201843262" lon="34.802288055">
<ele>288.476563</ele>
<time>2013-11-19T09:28:24Z</time>
<speed>5.330000</speed>
<extensions>
<speed>5.3</speed>
<temp>0.00</temp>
<bpm>0</bpm>
<rpm>0.00</rpm>
</extensions>
</trkpt>
<trkpt lat="31.201654434" lon="34.802333832">
<ele>289.507813</ele>
<time>2013-11-19T09:28:29Z</time>
<speed>3.860000</speed>
<extensions>
<speed>3.9</speed>
<temp>0.00</temp>
<bpm>0</bpm>
<rpm>0.00</rpm>
</extensions>
</trkpt>
<trkpt lat="31.201473236" lon="34.802371979">
<ele>291.242188</ele>
<time>2013-11-19T09:28:34Z</time>
<speed>4.360000</speed>
<extensions>
<speed>4.4</speed>
<temp>0.00</temp>
<bpm>0</bpm>
<rpm>0.00</rpm>
</extensions>
</trkpt>
<trkpt lat="31.201280594" lon="34.802406311">
<ele>293.023438</ele>
<time>2013-11-19T09:28:39Z</time>
<speed>4.500000</speed>
<extensions>
<speed>4.5</speed>
<temp>0.00</temp>
<bpm>0</bpm>
<rpm>0.00</rpm>
</extensions>
</trkpt>
<trkpt lat="31.201084137" lon="34.802440643">
<ele>294.718750</ele>
<time>2013-11-19T09:28:44Z</time>
<speed>4.180000</speed>
<extensions>
<speed>4.2</speed>
<temp>0.00</temp>
<bpm>0</bpm>
<rpm>0.00</rpm>
</extensions>
</trkpt>
<trkpt lat="31.200893402" lon="34.802490234">
<ele>295.984375</ele>
<time>2013-11-19T09:28:49Z</time>
<speed>4.150000</speed>
<extensions>
<speed>4.1</speed>
<temp>0.00</temp>
<bpm>0</bpm>
<rpm>0.00</rpm>
</extensions>
</trkpt>
<trkpt lat="31.200733185" lon="34.802536011">
<ele>297.093750</ele>
<time>2013-11-19T09:28:54Z</time>
<speed>3.750000</speed>
<extensions>
<speed>3.8</speed>
<temp>0.00</temp>
<bpm>0</bpm>
<rpm>0.00</rpm>
</extensions>
</trkpt>
<trkpt lat="31.200559616" lon="34.802562714">
<ele>298.007813</ele>
<time>2013-11-19T09:28:59Z</time>
<speed>3.950000</speed>
<extensions>
<speed>4.0</speed>
<temp>0.00</temp>
<bpm>0</bpm>
<rpm>0.00</rpm>
</extensions>
</trkpt>
<trkpt lat="31.200387955" lon="34.802589417">
<ele>298.140625</ele>
<time>2013-11-19T09:29:04Z</time>
<speed>3.940000</speed>
<extensions>
<speed>3.9</speed>
<temp>0.00</temp>
<bpm>0</bpm>
<rpm>0.00</rpm>
</extensions>
</trkpt>
<trkpt lat="31.200237274" lon="34.802635193">
<ele>298.000000</ele>
<time>2013-11-19T09:29:09Z</time>
<speed>2.920000</speed>
<extensions>
<speed>2.9</speed>
<temp>0.00</temp>
<bpm>0</bpm>
<rpm>0.00</rpm>
</extensions>
</trkpt>
<trkpt lat="31.200086594" lon="34.802654266">
<ele>298.046875</ele>
<time>2013-11-19T09:29:14Z</time>
<speed>3.830000</speed>
<extensions>
<speed>3.8</speed>
<temp>0.00</temp>
<bpm>0</bpm>
<rpm>0.00</rpm>
</extensions>
</trkpt>
<trkpt lat="31.199905396" lon="34.802677155">
<ele>298.203125</ele>
<time>2013-11-19T09:29:19Z</time>
<speed>4.350000</speed>
<extensions>
<speed>4.3</speed>
<temp>0.00</temp>
<bpm>0</bpm>
<rpm>0.00</rpm>
</extensions>
</trkpt>
<trkpt lat="31.199750900" lon="34.802700043">
<ele>298.296875</ele>
<time>2013-11-19T09:29:24Z</time>
<speed>3.040000</speed>
<extensions>
<speed>3.0</speed>
<temp>0.00</temp>
<bpm>0</bpm>
<rpm>0.00</rpm>
</extensions>
</trkpt>
<trkpt lat="31.199594498" lon="34.802703857">
<ele>298.226563</ele>
<time>2013-11-19T09:29:29Z</time>
<speed>3.620000</speed>
<extensions>
<speed>3.6</speed>
<temp>0.00</temp>
<bpm>0</bpm>
<rpm>0.00</rpm>
</extensions>
</trkpt>
<trkpt lat="31.199415207" lon="34.802726746">
<ele>298.125000</ele>
<time>2013-11-19T09:29:34Z</time>
<speed>3.680000</speed>
<extensions>
<speed>3.7</speed>
<temp>0.00</temp>
<bpm>0</bpm>
<rpm>0.00</rpm>
</extensions>
</trkpt>
<trkpt lat="31.199226379" lon="34.802745819">
<ele>297.765625</ele>
<time>2013-11-19T09:29:39Z</time>
<speed>4.150000</speed>
<extensions>
<speed>4.1</speed>
<temp>0.00</temp>
<bpm>0</bpm>
<rpm>0.00</rpm>
</extensions>
</trkpt>
<trkpt lat="31.199037552" lon="34.802764893">
<ele>297.632813</ele>
<time>2013-11-19T09:29:44Z</time>
<speed>4.300000</speed>
<extensions>
<speed>4.3</speed>
<temp>0.00</temp>
<bpm>0</bpm>
<rpm>0.00</rpm>
</extensions>
</trkpt>
<trkpt lat="31.198843002" lon="34.802787781">
<ele>297.257813</ele>
<time>2013-11-19T09:29:49Z</time>
<speed>4.460000</speed>
<extensions>
<speed>4.5</speed>
<temp>0.00</temp>
<bpm>0</bpm>
<rpm>0.00</rpm>
</extensions>
</trkpt>
<trkpt lat="31.198629379" lon="34.802803040">
<ele>297.585938</ele>
<time>2013-11-19T09:29:54Z</time>
<speed>4.430000</speed>
<extensions>
<speed>4.4</speed>
<temp>0.00</temp>
<bpm>0</bpm>
<rpm>0.00</rpm>
</extensions>
</trkpt>
<trkpt lat="31.198444366" lon="34.802825928">
<ele>298.093750</ele>
<time>2013-11-19T09:29:59Z</time>
<speed>4.400000</speed>
<extensions>
<speed>4.4</speed>
<temp>0.00</temp>
<bpm>0</bpm>
<rpm>0.00</rpm>
</extensions>
</trkpt>
<trkpt lat="31.198200226" lon="34.802864075">
<ele>296.742188</ele>
<time>2013-11-19T09:30:04Z</time>
<speed>6.570000</speed>
<extensions>
<speed>6.6</speed>
<temp>0.00</temp>
<bpm>0</bpm>
<rpm>0.00</rpm>
</extensions>
</trkpt>
<trkpt lat="31.197881699" lon="34.802902222">
<ele>295.250000</ele>
<time>2013-11-19T09:30:09Z</time>
<speed>7.410000</speed>
<extensions>
<speed>7.4</speed>
<temp>0.00</temp>
<bpm>0</bpm>
<rpm>0.00</rpm>
</extensions>
</trkpt>
<trkpt lat="31.197696686" lon="34.803028107">
<ele>297.335938</ele>
<time>2013-11-19T09:30:14Z</time>
<speed>3.760000</speed>
<extensions>
<speed>3.8</speed>
<temp>0.00</temp>
<bpm>0</bpm>
<rpm>0.00</rpm>
</extensions>
</trkpt>
<trkpt lat="31.197538376" lon="34.803100586">
<ele>298.953125</ele>
<time>2013-11-19T09:30:19Z</time>
<speed>4.460000</speed>
<extensions>
<speed>4.5</speed>
<temp>0.00</temp>
<bpm>0</bpm>
<rpm>0.00</rpm>
</extensions>
</trkpt>
<trkpt lat="31.197359085" lon="34.803176880">
<ele>299.921875</ele>
<time>2013-11-19T09:30:24Z</time>
<speed>3.470000</speed>
<extensions>
<speed>3.5</speed>
<temp>0.00</temp>
<bpm>0</bpm>
<rpm>0.00</rpm>
</extensions>
</trkpt>
<trkpt lat="31.197198868" lon="34.803207397">
<ele>300.398438</ele>
<time>2013-11-19T09:30:29Z</time>
<speed>3.970000</speed>
<extensions>
<speed>4.0</speed>
<temp>0.00</temp>
<bpm>0</bpm>
<rpm>0.00</rpm>
</extensions>
</trkpt>
<trkpt lat="31.197032928" lon="34.803264618">
<ele>300.109375</ele>
<time>2013-11-19T09:30:34Z</time>
<speed>3.880000</speed>
<extensions>
<speed>3.9</speed>
<temp>0.00</temp>
<bpm>0</bpm>
<rpm>0.00</rpm>
</extensions>
</trkpt>
<trkpt lat="31.196830750" lon="34.803256989">
<ele>298.093750</ele>
<time>2013-11-19T09:30:39Z</time>
<speed>4.050000</speed>
<extensions>
<speed>4.0</speed>
<temp>0.00</temp>
<bpm>0</bpm>
<rpm>0.00</rpm>
</extensions>
</trkpt>
<trkpt lat="31.196634293" lon="34.803279877">
<ele>296.578125</ele>
<time>2013-11-19T09:30:44Z</time>
<speed>5.080000</speed>
<extensions>
<speed>5.1</speed>
<temp>0.00</temp>
<bpm>0</bpm>
<rpm>0.00</rpm>
</extensions>
</trkpt>
<trkpt lat="31.196439743" lon="34.803314209">
<ele>296.265625</ele>
<time>2013-11-19T09:30:49Z</time>
<speed>3.950000</speed>
<extensions>
<speed>4.0</speed>
<temp>0.00</temp>
<bpm>0</bpm>
<rpm>0.00</rpm>
</extensions>
</trkpt>
<trkpt lat="31.196271896" lon="34.803386688">
<ele>295.343750</ele>
<time>2013-11-19T09:30:54Z</time>
<speed>3.990000</speed>
<extensions>
<speed>4.0</speed>
<temp>0.00</temp>
<bpm>0</bpm>
<rpm>0.00</rpm>
</extensions>
</trkpt>
<trkpt lat="31.196123123" lon="34.803489685">
<ele>297.203125</ele>
<time>2013-11-19T09:30:59Z</time>
<speed>3.200000</speed>
<extensions>
<speed>3.2</speed>
<temp>0.00</temp>
<bpm>0</bpm>
<rpm>0.00</rpm>
</extensions>
</trkpt>
<trkpt lat="31.195968628" lon="34.803565979">
<ele>297.390625</ele>
<time>2013-11-19T09:31:04Z</time>
<speed>4.580000</speed>
<extensions>
<speed>4.6</speed>
<temp>0.00</temp>
<bpm>0</bpm>
<rpm>0.00</rpm>
</extensions>
</trkpt>
<trkpt lat="31.195772171" lon="34.803642273">
<ele>296.476563</ele>
<time>2013-11-19T09:31:09Z</time>
<speed>3.530000</speed>
<extensions>
<speed>3.5</speed>
<temp>0.00</temp>
<bpm>0</bpm>
<rpm>0.00</rpm>
</extensions>
</trkpt>
<trkpt lat="31.195663452" lon="34.803691864">
<ele>297.156250</ele>
<time>2013-11-19T09:31:14Z</time>
<speed>2.680000</speed>
<extensions>
<speed>2.7</speed>
<temp>0.00</temp>
<bpm>0</bpm>
<rpm>0.00</rpm>
</extensions>
</trkpt>
<trkpt lat="31.195539474" lon="34.803722382">
<ele>297.359375</ele>
<time>2013-11-19T09:31:19Z</time>
<speed>3.050000</speed>
<extensions>
<speed>3.0</speed>
<temp>0.00</temp>
<bpm>0</bpm>
<rpm>0.00</rpm>
</extensions>
</trkpt>
<trkpt lat="31.195419312" lon="34.803745270">
<ele>297.164063</ele>
<time>2013-11-19T09:31:24Z</time>
<speed>2.410000</speed>
<extensions>
<speed>2.4</speed>
<temp>0.00</temp>
<bpm>0</bpm>
<rpm>0.00</rpm>
</extensions>
</trkpt>
<trkpt lat="31.195331573" lon="34.803771973">
<ele>297.539063</ele>
<time>2013-11-19T09:31:29Z</time>
<speed>2.120000</speed>
<extensions>
<speed>2.1</speed>
<temp>0.00</temp>
<bpm>0</bpm>
<rpm>0.00</rpm>
</extensions>
</trkpt>
<trkpt lat="31.195194244" lon="34.803806305">
<ele>297.289063</ele>
<time>2013-11-19T09:31:34Z</time>
<speed>3.700000</speed>
<extensions>
<speed>3.7</speed>
<temp>0.00</temp>
<bpm>0</bpm>
<rpm>0.00</rpm>
</extensions>
</trkpt>
<trkpt lat="31.195011139" lon="34.803859711">
<ele>297.101563</ele>
<time>2013-11-19T09:31:39Z</time>
<speed>3.900000</speed>
<extensions>
<speed>3.9</speed>
<temp>0.00</temp>
<bpm>0</bpm>
<rpm>0.00</rpm>
</extensions>
</trkpt>
<trkpt lat="31.194845200" lon="34.803901672">
<ele>297.304688</ele>
<time>2013-11-19T09:31:44Z</time>
<speed>3.710000</speed>
<extensions>
<speed>3.7</speed>
<temp>0.00</temp>
<bpm>0</bpm>
<rpm>0.00</rpm>
</extensions>
</trkpt>
<trkpt lat="31.194686890" lon="34.803939819">
<ele>297.796875</ele>
<time>2013-11-19T09:31:49Z</time>
<speed>3.500000</speed>
<extensions>
<speed>3.5</speed>
<temp>0.00</temp>
<bpm>0</bpm>
<rpm>0.00</rpm>
</extensions>
</trkpt>
<trkpt lat="31.194519043" lon="34.803997040">
<ele>300.945313</ele>
<time>2013-11-19T09:31:54Z</time>
<speed>3.620000</speed>
<extensions>
<speed>3.6</speed>
<temp>0.00</temp>
<bpm>0</bpm>
<rpm>0.00</rpm>
</extensions>
</trkpt>
<trkpt lat="31.194377899" lon="34.804042816">
<ele>302.695313</ele>
<time>2013-11-19T09:31:59Z</time>
<speed>3.340000</speed>
<extensions>
<speed>3.3</speed>
<temp>0.00</temp>
<bpm>0</bpm>
<rpm>0.00</rpm>
</extensions>
</trkpt>
<trkpt lat="31.194213867" lon="34.804103851">
<ele>304.781250</ele>
<time>2013-11-19T09:32:04Z</time>
<speed>4.140000</speed>
<extensions>
<speed>4.1</speed>
<temp>0.00</temp>
<bpm>0</bpm>
<rpm>0.00</rpm>
</extensions>
</trkpt>
<trkpt lat="31.194051743" lon="34.804164886">
<ele>306.218750</ele>
<time>2013-11-19T09:32:09Z</time>
<speed>3.550000</speed>
<extensions>
<speed>3.5</speed>
<temp>0.00</temp>
<bpm>0</bpm>
<rpm>0.00</rpm>
</extensions>
</trkpt>
<trkpt lat="31.193914413" lon="34.804206848">
<ele>307.429688</ele>
<time>2013-11-19T09:32:14Z</time>
<speed>2.830000</speed>
<extensions>
<speed>2.8</speed>
<temp>0.00</temp>
<bpm>0</bpm>
<rpm>0.00</rpm>
</extensions>
</trkpt>
<trkpt lat="31.193775177" lon="34.804252625">
<ele>308.304688</ele>
<time>2013-11-19T09:32:19Z</time>
<speed>3.630000</speed>
<extensions>
<speed>3.6</speed>
<temp>0.00</temp>
<bpm>0</bpm>
<rpm>0.00</rpm>
</extensions>
</trkpt>
<trkpt lat="31.193624496" lon="34.804298401">
<ele>308.906250</ele>
<time>2013-11-19T09:32:24Z</time>
<speed>3.420000</speed>
<extensions>
<speed>3.4</speed>
<temp>0.00</temp>
<bpm>0</bpm>
<rpm>0.00</rpm>
</extensions>
</trkpt>
<trkpt lat="31.193483353" lon="34.804351807">
<ele>309.007813</ele>
<time>2013-11-19T09:32:29Z</time>
<speed>3.170000</speed>
<extensions>
<speed>3.2</speed>
<temp>0.00</temp>
<bpm>0</bpm>
<rpm>0.00</rpm>
</extensions>
</trkpt>
<trkpt lat="31.193338394" lon="34.804397583">
<ele>309.453125</ele>
<time>2013-11-19T09:32:34Z</time>
<speed>3.550000</speed>
<extensions>
<speed>3.5</speed>
<temp>0.00</temp>
<bpm>0</bpm>
<rpm>0.00</rpm>
</extensions>
</trkpt>
<trkpt lat="31.193172455" lon="34.804447174">
<ele>309.507813</ele>
<time>2013-11-19T09:32:39Z</time>
<speed>3.930000</speed>
<extensions>
<speed>3.9</speed>
<temp>0.00</temp>
<bpm>0</bpm>
<rpm>0.00</rpm>
</extensions>
</trkpt>
<trkpt lat="31.193021774" lon="34.804500580">
<ele>310.585938</ele>
<time>2013-11-19T09:32:44Z</time>
<speed>3.400000</speed>
<extensions>
<speed>3.4</speed>
<temp>0.00</temp>
<bpm>0</bpm>
<rpm>0.00</rpm>
</extensions>
</trkpt>
<trkpt lat="31.192871094" lon="34.804557800">
<ele>311.257813</ele>
<time>2013-11-19T09:32:49Z</time>
<speed>3.740000</speed>
<extensions>
<speed>3.7</speed>
<temp>0.00</temp>
<bpm>0</bpm>
<rpm>0.00</rpm>
</extensions>
</trkpt>
<trkpt lat="31.192743301" lon="34.804634094">
<ele>312.382813</ele>
<time>2013-11-19T09:32:54Z</time>
<speed>3.220000</speed>
<extensions>
<speed>3.2</speed>
<temp>0.00</temp>
<bpm>0</bpm>
<rpm>0.00</rpm>
</extensions>
</trkpt>
<trkpt lat="31.192581177" lon="34.804733276">
<ele>312.687500</ele>
<time>2013-11-19T09:32:59Z</time>
<speed>4.730000</speed>
<extensions>
<speed>4.7</speed>
<temp>0.00</temp>
<bpm>0</bpm>
<rpm>0.00</rpm>
</extensions>
</trkpt>
<trkpt lat="31.192394257" lon="34.804851532">
<ele>312.601563</ele>
<time>2013-11-19T09:33:04Z</time>
<speed>4.750000</speed>
<extensions>
<speed>4.8</speed>
<temp>0.00</temp>
<bpm>0</bpm>
<rpm>0.00</rpm>
</extensions>
</trkpt>
<trkpt lat="31.192178726" lon="34.804954529">
<ele>312.195313</ele>
<time>2013-11-19T09:33:09Z</time>
<speed>5.340000</speed>
<extensions>
<speed>5.3</speed>
<temp>0.00</temp>
<bpm>0</bpm>
<rpm>0.00</rpm>
</extensions>
</trkpt>
<trkpt lat="31.191917419" lon="34.804946899">
<ele>311.445313</ele>
<time>2013-11-19T09:33:14Z</time>
<speed>5.880000</speed>
<extensions>
<speed>5.9</speed>
<temp>0.00</temp>
<bpm>0</bpm>
<rpm>0.00</rpm>
</extensions>
</trkpt>
<trkpt lat="31.191627502" lon="34.804935455">
<ele>311.312500</ele>
<time>2013-11-19T09:33:19Z</time>
<speed>6.030000</speed>
<extensions>
<speed>6.0</speed>
<temp>0.00</temp>
<bpm>0</bpm>
<rpm>0.00</rpm>
</extensions>
</trkpt>
<trkpt lat="31.191354752" lon="34.804973602">
<ele>310.796875</ele>
<time>2013-11-19T09:33:24Z</time>
<speed>5.950000</speed>
<extensions>
<speed>6.0</speed>
<temp>0.00</temp>
<bpm>0</bpm>
<rpm>0.00</rpm>
</extensions>
</trkpt>
<trkpt lat="31.191091537" lon="34.805007935">
<ele>311.015625</ele>
<time>2013-11-19T09:33:29Z</time>
<speed>5.790000</speed>
<extensions>
<speed>5.8</speed>
<temp>0.00</temp>
<bpm>0</bpm>
<rpm>0.00</rpm>
</extensions>
</trkpt>
<trkpt lat="31.190849304" lon="34.805065155">
<ele>311.812500</ele>
<time>2013-11-19T09:33:34Z</time>
<speed>5.110000</speed>
<extensions>
<speed>5.1</speed>
<temp>0.00</temp>
<bpm>0</bpm>
<rpm>0.00</rpm>
</extensions>
</trkpt>
<trkpt lat="31.190700531" lon="34.805160522">
<ele>312.250000</ele>
<time>2013-11-19T09:33:39Z</time>
<speed>3.720000</speed>
<extensions>
<speed>3.7</speed>
<temp>0.00</temp>
<bpm>0</bpm>
<rpm>0.00</rpm>
</extensions>
</trkpt>
<trkpt lat="31.190563202" lon="34.805229187">
<ele>312.656250</ele>
<time>2013-11-19T09:33:44Z</time>
<speed>2.180000</speed>
<extensions>
<speed>2.2</speed>
<temp>0.00</temp>
<bpm>0</bpm>
<rpm>0.00</rpm>
</extensions>
</trkpt>
<trkpt lat="31.190486908" lon="34.805263519">
<ele>311.906250</ele>
<time>2013-11-19T09:33:49Z</time>
<speed>2.590000</speed>
<extensions>
<speed>2.6</speed>
<temp>0.00</temp>
<bpm>0</bpm>
<rpm>0.00</rpm>
</extensions>
</trkpt>
<trkpt lat="31.190355301" lon="34.805339813">
<ele>310.679688</ele>
<time>2013-11-19T09:33:54Z</time>
<speed>4.050000</speed>
<extensions>
<speed>4.0</speed>
<temp>0.00</temp>
<bpm>0</bpm>
<rpm>0.00</rpm>
</extensions>
</trkpt>
<trkpt lat="31.190147400" lon="34.805427551">
<ele>310.648438</ele>
<time>2013-11-19T09:33:59Z</time>
<speed>5.320000</speed>
<extensions>
<speed>5.3</speed>
<temp>0.00</temp>
<bpm>0</bpm>
<rpm>0.00</rpm>
</extensions>
</trkpt>
<trkpt lat="31.189931870" lon="34.805503845">
<ele>311.945313</ele>
<time>2013-11-19T09:34:04Z</time>
<speed>5.200000</speed>
<extensions>
<speed>5.2</speed>
<temp>0.00</temp>
<bpm>0</bpm>
<rpm>0.00</rpm>
</extensions>
</trkpt>
<trkpt lat="31.189689636" lon="34.805576324">
<ele>311.617188</ele>
<time>2013-11-19T09:34:09Z</time>
<speed>5.260000</speed>
<extensions>
<speed>5.3</speed>
<temp>0.00</temp>
<bpm>0</bpm>
<rpm>0.00</rpm>
</extensions>
</trkpt>
<trkpt lat="31.189456940" lon="34.805641174">
<ele>312.289063</ele>
<time>2013-11-19T09:34:14Z</time>
<speed>5.420000</speed>
<extensions>
<speed>5.4</speed>
<temp>0.00</temp>
<bpm>0</bpm>
<rpm>0.00</rpm>
</extensions>
</trkpt>
<trkpt lat="31.189224243" lon="34.805702209">
<ele>311.578125</ele>
<time>2013-11-19T09:34:19Z</time>
<speed>5.370000</speed>
<extensions>
<speed>5.4</speed>
<temp>0.00</temp>
<bpm>0</bpm>
<rpm>0.00</rpm>
</extensions>
</trkpt>
<trkpt lat="31.189020157" lon="34.805759430">
<ele>311.882813</ele>
<time>2013-11-19T09:34:24Z</time>
<speed>3.800000</speed>
<extensions>
<speed>3.8</speed>
<temp>0.00</temp>
<bpm>0</bpm>
<rpm>0.00</rpm>
</extensions>
</trkpt>
<trkpt lat="31.188823700" lon="34.805828094">
<ele>311.984375</ele>
<time>2013-11-19T09:34:29Z</time>
<speed>4.940000</speed>
<extensions>
<speed>4.9</speed>
<temp>0.00</temp>
<bpm>0</bpm>
<rpm>0.00</rpm>
</extensions>
</trkpt>
<trkpt lat="31.188602448" lon="34.805896759">
<ele>311.242188</ele>
<time>2013-11-19T09:34:34Z</time>
<speed>4.990000</speed>
<extensions>
<speed>5.0</speed>
<temp>0.00</temp>
<bpm>0</bpm>
<rpm>0.00</rpm>
</extensions>
</trkpt>
<trkpt lat="31.188407898" lon="34.805953979">
<ele>313.500000</ele>
<time>2013-11-19T09:34:39Z</time>
<speed>4.950000</speed>
<extensions>
<speed>4.9</speed>
<temp>0.00</temp>
<bpm>0</bpm>
<rpm>0.00</rpm>
</extensions>
</trkpt>
<trkpt lat="31.188188553" lon="34.806022644">
<ele>313.289063</ele>
<time>2013-11-19T09:34:44Z</time>
<speed>4.530000</speed>
<extensions>
<speed>4.5</speed>
<temp>0.00</temp>
<bpm>0</bpm>
<rpm>0.00</rpm>
</extensions>
</trkpt>
<trkpt lat="31.187982559" lon="34.806072235">
<ele>313.109375</ele>
<time>2013-11-19T09:34:49Z</time>
<speed>4.940000</speed>
<extensions>
<speed>4.9</speed>
<temp>0.00</temp>
<bpm>0</bpm>
<rpm>0.00</rpm>
</extensions>
</trkpt>
<trkpt lat="31.187797546" lon="34.806175232">
<ele>313.046875</ele>
<time>2013-11-19T09:34:54Z</time>
<speed>4.440000</speed>
<extensions>
<speed>4.4</speed>
<temp>0.00</temp>
<bpm>0</bpm>
<rpm>0.00</rpm>
</extensions>
</trkpt>
<trkpt lat="31.187608719" lon="34.806278229">
<ele>312.968750</ele>
<time>2013-11-19T09:34:59Z</time>
<speed>4.760000</speed>
<extensions>
<speed>4.8</speed>
<temp>0.00</temp>
<bpm>0</bpm>
<rpm>0.00</rpm>
</extensions>
</trkpt>
<trkpt lat="31.187404633" lon="34.806373596">
<ele>313.539063</ele>
<time>2013-11-19T09:35:04Z</time>
<speed>4.870000</speed>
<extensions>
<speed>4.9</speed>
<temp>0.00</temp>
<bpm>0</bpm>
<rpm>0.00</rpm>
</extensions>
</trkpt>
<trkpt lat="31.187179565" lon="34.806449890">
<ele>314.000000</ele>
<time>2013-11-19T09:35:09Z</time>
<speed>4.720000</speed>
<extensions>
<speed>4.7</speed>
<temp>0.00</temp>
<bpm>0</bpm>
<rpm>0.00</rpm>
</extensions>
</trkpt>
<trkpt lat="31.187019348" lon="34.806480408">
<ele>314.601563</ele>
<time>2013-11-19T09:35:14Z</time>
<speed>2.970000</speed>
<extensions>
<speed>3.0</speed>
<temp>0.00</temp>
<bpm>0</bpm>
<rpm>0.00</rpm>
</extensions>
</trkpt>
<trkpt lat="31.186876297" lon="34.806522369">
<ele>314.929688</ele>
<time>2013-11-19T09:35:19Z</time>
<speed>3.470000</speed>
<extensions>
<speed>3.5</speed>
<temp>0.00</temp>
<bpm>0</bpm>
<rpm>0.00</rpm>
</extensions>
</trkpt>
<trkpt lat="31.186695099" lon="34.806564331">
<ele>315.062500</ele>
<time>2013-11-19T09:35:24Z</time>
<speed>4.340000</speed>
<extensions>
<speed>4.3</speed>
<temp>0.00</temp>
<bpm>0</bpm>
<rpm>0.00</rpm>
</extensions>
</trkpt>
<trkpt lat="31.186546326" lon="34.806575775">
<ele>316.648438</ele>
<time>2013-11-19T09:35:29Z</time>
<speed>2.840000</speed>
<extensions>
<speed>2.8</speed>
<temp>0.00</temp>
<bpm>0</bpm>
<rpm>0.00</rpm>
</extensions>
</trkpt>
<trkpt lat="31.186403275" lon="34.806579590">
<ele>317.937500</ele>
<time>2013-11-19T09:35:34Z</time>
<speed>3.480000</speed>
<extensions>
<speed>3.5</speed>
<temp>0.00</temp>
<bpm>0</bpm>
<rpm>0.00</rpm>
</extensions>
</trkpt>
<trkpt lat="31.186227798" lon="34.806598663">
<ele>317.171875</ele>
<time>2013-11-19T09:35:39Z</time>
<speed>3.540000</speed>
<extensions>
<speed>3.5</speed>
<temp>0.00</temp>
<bpm>0</bpm>
<rpm>0.00</rpm>
</extensions>
</trkpt>
<trkpt lat="31.186063766" lon="34.806602478">
<ele>317.296875</ele>
<time>2013-11-19T09:35:44Z</time>
<speed>3.450000</speed>
<extensions>
<speed>3.5</speed>
<temp>0.00</temp>
<bpm>0</bpm>
<rpm>0.00</rpm>
</extensions>
</trkpt>
<trkpt lat="31.185894012" lon="34.806610107">
<ele>317.164063</ele>
<time>2013-11-19T09:35:49Z</time>
<speed>3.660000</speed>
<extensions>
<speed>3.7</speed>
<temp>0.00</temp>
<bpm>0</bpm>
<rpm>0.00</rpm>
</extensions>
</trkpt>
<trkpt lat="31.185728073" lon="34.806625366">
<ele>318.375000</ele>
<time>2013-11-19T09:35:54Z</time>
<speed>3.950000</speed>
<extensions>
<speed>4.0</speed>
<temp>0.00</temp>
<bpm>0</bpm>
<rpm>0.00</rpm>
</extensions>
</trkpt>
<trkpt lat="31.185558319" lon="34.806613922">
<ele>318.484375</ele>
<time>2013-11-19T09:35:59Z</time>
<speed>3.600000</speed>
<extensions>
<speed>3.6</speed>
<temp>0.00</temp>
<bpm>0</bpm>
<rpm>0.00</rpm>
</extensions>
</trkpt>
<trkpt lat="31.185407639" lon="34.806545258">
<ele>319.390625</ele>
<time>2013-11-19T09:36:04Z</time>
<speed>3.350000</speed>
<extensions>
<speed>3.4</speed>
<temp>0.00</temp>
<bpm>0</bpm>
<rpm>0.00</rpm>
</extensions>
</trkpt>
<trkpt lat="31.185291290" lon="34.806411743">
<ele>321.843750</ele>
<time>2013-11-19T09:36:09Z</time>
<speed>3.570000</speed>
<extensions>
<speed>3.6</speed>
<temp>0.00</temp>
<bpm>0</bpm>
<rpm>0.00</rpm>
</extensions>
</trkpt>
<trkpt lat="31.185171127" lon="34.806266785">
<ele>323.984375</ele>
<time>2013-11-19T09:36:14Z</time>
<speed>4.090000</speed>
<extensions>
<speed>4.1</speed>
<temp>0.00</temp>
<bpm>0</bpm>
<rpm>0.00</rpm>
</extensions>
</trkpt>
<trkpt lat="31.185047150" lon="34.806125641">
<ele>325.070313</ele>
<time>2013-11-19T09:36:19Z</time>
<speed>3.890000</speed>
<extensions>
<speed>3.9</speed>
<temp>0.00</temp>
<bpm>0</bpm>
<rpm>0.00</rpm>
</extensions>
</trkpt>
<trkpt lat="31.184930801" lon="34.805992126">
<ele>325.921875</ele>
<time>2013-11-19T09:36:24Z</time>
<speed>3.660000</speed>
<extensions>
<speed>3.7</speed>
<temp>0.00</temp>
<bpm>0</bpm>
<rpm>0.00</rpm>
</extensions>
</trkpt>
<trkpt lat="31.184803009" lon="34.805854797">
<ele>326.085938</ele>
<time>2013-11-19T09:36:29Z</time>
<speed>3.630000</speed>
<extensions>
<speed>3.6</speed>
<temp>0.00</temp>
<bpm>0</bpm>
<rpm>0.00</rpm>
</extensions>
</trkpt>
<trkpt lat="31.184661865" lon="34.805728912">
<ele>327.585938</ele>
<time>2013-11-19T09:36:34Z</time>
<speed>3.970000</speed>
<extensions>
<speed>4.0</speed>
<temp>0.00</temp>
<bpm>0</bpm>
<rpm>0.00</rpm>
</extensions>
</trkpt>
<trkpt lat="31.184503555" lon="34.805614471">
<ele>327.859375</ele>
<time>2013-11-19T09:36:39Z</time>
<speed>4.180000</speed>
<extensions>
<speed>4.2</speed>
<temp>0.00</temp>
<bpm>0</bpm>
<rpm>0.00</rpm>
</extensions>
</trkpt>
<trkpt lat="31.184314728" lon="34.805557251">
<ele>327.343750</ele>
<time>2013-11-19T09:36:44Z</time>
<speed>4.590000</speed>
<extensions>
<speed>4.6</speed>
<temp>0.00</temp>
<bpm>0</bpm>
<rpm>0.00</rpm>
</extensions>
</trkpt>
<trkpt lat="31.184127808" lon="34.805568695">
<ele>327.882813</ele>
<time>2013-11-19T09:36:49Z</time>
<speed>5.120000</speed>
<extensions>
<speed>5.1</speed>
<temp>0.00</temp>
<bpm>0</bpm>
<rpm>0.00</rpm>
</extensions>
</trkpt>
<trkpt lat="31.183935165" lon="34.805721283">
<ele>328.671875</ele>
<time>2013-11-19T09:36:54Z</time>
<speed>5.740000</speed>
<extensions>
<speed>5.7</speed>
<temp>0.00</temp>
<bpm>0</bpm>
<rpm>0.00</rpm>
</extensions>
</trkpt>
<trkpt lat="31.183717728" lon="34.805923462">
<ele>327.757813</ele>
<time>2013-11-19T09:36:59Z</time>
<speed>6.190000</speed>
<extensions>
<speed>6.2</speed>
<temp>0.00</temp>
<bpm>0</bpm>
<rpm>0.00</rpm>
</extensions>
</trkpt>
<trkpt lat="31.183490753" lon="34.806137085">
<ele>327.132813</ele>
<time>2013-11-19T09:37:04Z</time>
<speed>6.630000</speed>
<extensions>
<speed>6.6</speed>
<temp>0.00</temp>
<bpm>0</bpm>
<rpm>0.00</rpm>
</extensions>
</trkpt>
<trkpt lat="31.183254242" lon="34.806350708">
<ele>325.796875</ele>
<time>2013-11-19T09:37:09Z</time>
<speed>6.810000</speed>
<extensions>
<speed>6.8</speed>
<temp>0.00</temp>
<bpm>0</bpm>
<rpm>0.00</rpm>
</extensions>
</trkpt>
<trkpt lat="31.183015823" lon="34.806545258">
<ele>325.140625</ele>
<time>2013-11-19T09:37:14Z</time>
<speed>5.980000</speed>
<extensions>
<speed>6.0</speed>
<temp>0.00</temp>
<bpm>0</bpm>
<rpm>0.00</rpm>
</extensions>
</trkpt>
<trkpt lat="31.182798386" lon="34.806686401">
<ele>324.531250</ele>
<time>2013-11-19T09:37:19Z</time>
<speed>5.300000</speed>
<extensions>
<speed>5.3</speed>
<temp>0.00</temp>
<bpm>0</bpm>
<rpm>0.00</rpm>
</extensions>
</trkpt>
<trkpt lat="31.182546616" lon="34.806735992">
<ele>324.132813</ele>
<time>2013-11-19T09:37:24Z</time>
<speed>6.020000</speed>
<extensions>
<speed>6.0</speed>
<temp>0.00</temp>
<bpm>0</bpm>
<rpm>0.00</rpm>
</extensions>
</trkpt>
<trkpt lat="31.182266235" lon="34.806755066">
<ele>322.546875</ele>
<time>2013-11-19T09:37:29Z</time>
<speed>5.700000</speed>
<extensions>
<speed>5.7</speed>
<temp>0.00</temp>
<bpm>0</bpm>
<rpm>0.00</rpm>
</extensions>
</trkpt>
<trkpt lat="31.182014465" lon="34.806755066">
<ele>322.976563</ele>
<time>2013-11-19T09:37:34Z</time>
<speed>5.500000</speed>
<extensions>
<speed>5.5</speed>
<temp>0.00</temp>
<bpm>0</bpm>
<rpm>0.00</rpm>
</extensions>
</trkpt>
<trkpt lat="31.181751251" lon="34.806762695">
<ele>322.585938</ele>
<time>2013-11-19T09:37:39Z</time>
<speed>5.920000</speed>
<extensions>
<speed>5.9</speed>
<temp>0.00</temp>
<bpm>0</bpm>
<rpm>0.00</rpm>
</extensions>
</trkpt>
<trkpt lat="31.181478500" lon="34.806766510">
<ele>322.828125</ele>
<time>2013-11-19T09:37:44Z</time>
<speed>6.010000</speed>
<extensions>
<speed>6.0</speed>
<temp>0.00</temp>
<bpm>0</bpm>
<rpm>0.00</rpm>
</extensions>
</trkpt>
<trkpt lat="31.181205750" lon="34.806770325">
<ele>322.507813</ele>
<time>2013-11-19T09:37:49Z</time>
<speed>5.710000</speed>
<extensions>
<speed>5.7</speed>
<temp>0.00</temp>
<bpm>0</bpm>
<rpm>0.00</rpm>
</extensions>
</trkpt>
<trkpt lat="31.180955887" lon="34.806777954">
<ele>322.742188</ele>
<time>2013-11-19T09:37:54Z</time>
<speed>5.470000</speed>
<extensions>
<speed>5.5</speed>
<temp>0.00</temp>
<bpm>0</bpm>
<rpm>0.00</rpm>
</extensions>
</trkpt>
<trkpt lat="31.180702209" lon="34.806781769">
<ele>322.789063</ele>
<time>2013-11-19T09:37:59Z</time>
<speed>5.710000</speed>
<extensions>
<speed>5.7</speed>
<temp>0.00</temp>
<bpm>0</bpm>
<rpm>0.00</rpm>
</extensions>
</trkpt>
<trkpt lat="31.180433273" lon="34.806789398">
<ele>322.898438</ele>
<time>2013-11-19T09:38:04Z</time>
<speed>6.180000</speed>
<extensions>
<speed>6.2</speed>
<temp>0.00</temp>
<bpm>0</bpm>
<rpm>0.00</rpm>
</extensions>
</trkpt>
<trkpt lat="31.180152893" lon="34.806804657">
<ele>323.468750</ele>
<time>2013-11-19T09:38:09Z</time>
<speed>6.260000</speed>
<extensions>
<speed>6.3</speed>
<temp>0.00</temp>
<bpm>0</bpm>
<rpm>0.00</rpm>
</extensions>
</trkpt>
<trkpt lat="31.179874420" lon="34.806819916">
<ele>323.632813</ele>
<time>2013-11-19T09:38:14Z</time>
<speed>6.360000</speed>
<extensions>
<speed>6.4</speed>
<temp>0.00</temp>
<bpm>0</bpm>
<rpm>0.00</rpm>
</extensions>
</trkpt>
<trkpt lat="31.179582596" lon="34.806823730">
<ele>323.742188</ele>
<time>2013-11-19T09:38:19Z</time>
<speed>6.320000</speed>
<extensions>
<speed>6.3</speed>
<temp>0.00</temp>
<bpm>0</bpm>
<rpm>0.00</rpm>
</extensions>
</trkpt>
<trkpt lat="31.179298401" lon="34.806835175">
<ele>323.765625</ele>
<time>2013-11-19T09:38:24Z</time>
<speed>6.360000</speed>
<extensions>
<speed>6.4</speed>
<temp>0.00</temp>
<bpm>0</bpm>
<rpm>0.00</rpm>
</extensions>
</trkpt>
<trkpt lat="31.179004669" lon="34.806877136">
<ele>323.593750</ele>
<time>2013-11-19T09:38:29Z</time>
<speed>6.580000</speed>
<extensions>
<speed>6.6</speed>
<temp>0.00</temp>
<bpm>0</bpm>
<rpm>0.00</rpm>
</extensions>
</trkpt>
<trkpt lat="31.178726196" lon="34.806957245">
<ele>323.671875</ele>
<time>2013-11-19T09:38:34Z</time>
<speed>6.300000</speed>
<extensions>
<speed>6.3</speed>
<temp>0.00</temp>
<bpm>0</bpm>
<rpm>0.00</rpm>
</extensions>
</trkpt>
<trkpt lat="31.178443909" lon="34.806987762">
<ele>323.890625</ele>
<time>2013-11-19T09:38:39Z</time>
<speed>6.410000</speed>
<extensions>
<speed>6.4</speed>
<temp>0.00</temp>
<bpm>0</bpm>
<rpm>0.00</rpm>
</extensions>
</trkpt>
<trkpt lat="31.178188324" lon="34.806968689">
<ele>324.765625</ele>
<time>2013-11-19T09:38:44Z</time>
<speed>5.380000</speed>
<extensions>
<speed>5.4</speed>
<temp>0.00</temp>
<bpm>0</bpm>
<rpm>0.00</rpm>
</extensions>
</trkpt>
<trkpt lat="31.177925110" lon="34.806938171">
<ele>325.070313</ele>
<time>2013-11-19T09:38:49Z</time>
<speed>6.040000</speed>
<extensions>
<speed>6.0</speed>
<temp>0.00</temp>
<bpm>0</bpm>
<rpm>0.00</rpm>
</extensions>
</trkpt>
<trkpt lat="31.177659988" lon="34.806915283">
<ele>324.937500</ele>
<time>2013-11-19T09:38:54Z</time>
<speed>5.420000</speed>
<extensions>
<speed>5.4</speed>
<temp>0.00</temp>
<bpm>0</bpm>
<rpm>0.00</rpm>
</extensions>
</trkpt>
<trkpt lat="31.177438736" lon="34.806907654">
<ele>325.171875</ele>
<time>2013-11-19T09:38:59Z</time>
<speed>4.240000</speed>
<extensions>
<speed>4.2</speed>
<temp>0.00</temp>
<bpm>0</bpm>
<rpm>0.00</rpm>
</extensions>
</trkpt>
<trkpt lat="31.177330017" lon="34.806892395">
<ele>324.515625</ele>
<time>2013-11-19T09:39:04Z</time>
<speed>0.020000</speed>
<extensions>
<speed>0.0</speed>
<temp>0.00</temp>
<bpm>0</bpm>
<rpm>0.00</rpm>
</extensions>
</trkpt>
<trkpt lat="31.177326202" lon="34.806892395">
<ele>324.210938</ele>
<time>2013-11-19T09:39:09Z</time>
<speed>0.010000</speed>
<extensions>
<speed>0.0</speed>
<temp>0.00</temp>
<bpm>0</bpm>
<rpm>0.00</rpm>
</extensions>
</trkpt>
<trkpt lat="31.177307129" lon="34.806888580">
<ele>324.132813</ele>
<time>2013-11-19T09:39:14Z</time>
<speed>1.420000</speed>
<extensions>
<speed>1.4</speed>
<temp>0.00</temp>
<bpm>0</bpm>
<rpm>0.00</rpm>
</extensions>
</trkpt>
<trkpt lat="31.177202225" lon="34.806869507">
<ele>324.117188</ele>
<time>2013-11-19T09:39:19Z</time>
<speed>3.140000</speed>
<extensions>
<speed>3.1</speed>
<temp>0.00</temp>
<bpm>0</bpm>
<rpm>0.00</rpm>
</extensions>
</trkpt>
<trkpt lat="31.177040100" lon="34.806850433">
<ele>324.265625</ele>
<time>2013-11-19T09:39:24Z</time>
<speed>4.110000</speed>
<extensions>
<speed>4.1</speed>
<temp>0.00</temp>
<bpm>0</bpm>
<rpm>0.00</rpm>
</extensions>
</trkpt>
<trkpt lat="31.176828384" lon="34.806808472">
<ele>324.179688</ele>
<time>2013-11-19T09:39:29Z</time>
<speed>5.060000</speed>
<extensions>
<speed>5.1</speed>
<temp>0.00</temp>
<bpm>0</bpm>
<rpm>0.00</rpm>
</extensions>
</trkpt>
<trkpt lat="31.176589966" lon="34.806755066">
<ele>324.578125</ele>
<time>2013-11-19T09:39:34Z</time>
<speed>5.740000</speed>
<extensions>
<speed>5.7</speed>
<temp>0.00</temp>
<bpm>0</bpm>
<rpm>0.00</rpm>
</extensions>
</trkpt>
<trkpt lat="31.176326752" lon="34.806694031">
<ele>325.437500</ele>
<time>2013-11-19T09:39:39Z</time>
<speed>5.980000</speed>
<extensions>
<speed>6.0</speed>
<temp>0.00</temp>
<bpm>0</bpm>
<rpm>0.00</rpm>
</extensions>
</trkpt>
<trkpt lat="31.176065445" lon="34.806621552">
<ele>326.289063</ele>
<time>2013-11-19T09:39:44Z</time>
<speed>6.020000</speed>
<extensions>
<speed>6.0</speed>
<temp>0.00</temp>
<bpm>0</bpm>
<rpm>0.00</rpm>
</extensions>
</trkpt>
<trkpt lat="31.175796509" lon="34.806552887">
<ele>326.914063</ele>
<time>2013-11-19T09:39:49Z</time>
<speed>6.150000</speed>
<extensions>
<speed>6.1</speed>
<temp>0.00</temp>
<bpm>0</bpm>
<rpm>0.00</rpm>
</extensions>
</trkpt>
<trkpt lat="31.175514221" lon="34.806468964">
<ele>327.351563</ele>
<time>2013-11-19T09:39:54Z</time>
<speed>6.370000</speed>
<extensions>
<speed>6.4</speed>
<temp>0.00</temp>
<bpm>0</bpm>
<rpm>0.00</rpm>
</extensions>
</trkpt>
<trkpt lat="31.175228119" lon="34.806385040">
<ele>327.617188</ele>
<time>2013-11-19T09:39:59Z</time>
<speed>6.610000</speed>
<extensions>
<speed>6.6</speed>
<temp>0.00</temp>
<bpm>0</bpm>
<rpm>0.00</rpm>
</extensions>
</trkpt>
<trkpt lat="31.174938202" lon="34.806297302">
<ele>328.109375</ele>
<time>2013-11-19T09:40:04Z</time>
<speed>6.560000</speed>
<extensions>
<speed>6.6</speed>
<temp>0.00</temp>
<bpm>0</bpm>
<rpm>0.00</rpm>
</extensions>
</trkpt>
<trkpt lat="31.174638748" lon="34.806221008">
<ele>328.460938</ele>
<time>2013-11-19T09:40:09Z</time>
<speed>6.870000</speed>
<extensions>
<speed>6.9</speed>
<temp>0.00</temp>
<bpm>0</bpm>
<rpm>0.00</rpm>
</extensions>
</trkpt>
<trkpt lat="31.174337387" lon="34.806148529">
<ele>328.492188</ele>
<time>2013-11-19T09:40:14Z</time>
<speed>6.900000</speed>
<extensions>
<speed>6.9</speed>
<temp>0.00</temp>
<bpm>0</bpm>
<rpm>0.00</rpm>
</extensions>
</trkpt>
<trkpt lat="31.174028397" lon="34.806076050">
<ele>328.507813</ele>
<time>2013-11-19T09:40:19Z</time>
<speed>6.920000</speed>
<extensions>
<speed>6.9</speed>
<temp>0.00</temp>
<bpm>0</bpm>
<rpm>0.00</rpm>
</extensions>
</trkpt>
<trkpt lat="31.173727036" lon="34.805999756">
<ele>329.117188</ele>
<time>2013-11-19T09:40:24Z</time>
<speed>6.940000</speed>
<extensions>
<speed>6.9</speed>
<temp>0.00</temp>
<bpm>0</bpm>
<rpm>0.00</rpm>
</extensions>
</trkpt>
<trkpt lat="31.173437119" lon="34.805923462">
<ele>329.359375</ele>
<time>2013-11-19T09:40:29Z</time>
<speed>6.130000</speed>
<extensions>
<speed>6.1</speed>
<temp>0.00</temp>
<bpm>0</bpm>
<rpm>0.00</rpm>
</extensions>
</trkpt>
<trkpt lat="31.173164368" lon="34.805870056">
<ele>328.929688</ele>
<time>2013-11-19T09:40:34Z</time>
<speed>6.340000</speed>
<extensions>
<speed>6.3</speed>
<temp>0.00</temp>
<bpm>0</bpm>
<rpm>0.00</rpm>
</extensions>
</trkpt>
<trkpt lat="31.172878265" lon="34.805828094">
<ele>328.640625</ele>
<time>2013-11-19T09:40:39Z</time>
<speed>6.420000</speed>
<extensions>
<speed>6.4</speed>
<temp>0.00</temp>
<bpm>0</bpm>
<rpm>0.00</rpm>
</extensions>
</trkpt>
<trkpt lat="31.172586441" lon="34.805770874">
<ele>328.398438</ele>
<time>2013-11-19T09:40:44Z</time>
<speed>6.620000</speed>
<extensions>
<speed>6.6</speed>
<temp>0.00</temp>
<bpm>0</bpm>
<rpm>0.00</rpm>
</extensions>
</trkpt>
<trkpt lat="31.172292709" lon="34.805702209">
<ele>328.484375</ele>
<time>2013-11-19T09:40:49Z</time>
<speed>6.240000</speed>
<extensions>
<speed>6.2</speed>
<temp>0.00</temp>
<bpm>0</bpm>
<rpm>0.00</rpm>
</extensions>
</trkpt>
<trkpt lat="31.172019958" lon="34.805641174">
<ele>328.078125</ele>
<time>2013-11-19T09:40:54Z</time>
<speed>5.910000</speed>
<extensions>
<speed>5.9</speed>
<temp>0.00</temp>
<bpm>0</bpm>
<rpm>0.00</rpm>
</extensions>
</trkpt>
<trkpt lat="31.171745300" lon="34.805583954">
<ele>328.031250</ele>
<time>2013-11-19T09:40:59Z</time>
<speed>6.310000</speed>
<extensions>
<speed>6.3</speed>
<temp>0.00</temp>
<bpm>0</bpm>
<rpm>0.00</rpm>
</extensions>
</trkpt>
<trkpt lat="31.171463013" lon="34.805522919">
<ele>328.156250</ele>
<time>2013-11-19T09:41:04Z</time>
<speed>6.250000</speed>
<extensions>
<speed>6.3</speed>
<temp>0.00</temp>
<bpm>0</bpm>
<rpm>0.00</rpm>
</extensions>
</trkpt>
<trkpt lat="31.171178818" lon="34.805454254">
<ele>328.359375</ele>
<time>2013-11-19T09:41:09Z</time>
<speed>6.490000</speed>
<extensions>
<speed>6.5</speed>
<temp>0.00</temp>
<bpm>0</bpm>
<rpm>0.00</rpm>
</extensions>
</trkpt>
<trkpt lat="31.170911789" lon="34.805366516">
<ele>328.546875</ele>
<time>2013-11-19T09:41:14Z</time>
<speed>5.740000</speed>
<extensions>
<speed>5.7</speed>
<temp>0.00</temp>
<bpm>0</bpm>
<rpm>0.00</rpm>
</extensions>
</trkpt>
<trkpt lat="31.170640945" lon="34.805290222">
<ele>328.695313</ele>
<time>2013-11-19T09:41:19Z</time>
<speed>6.370000</speed>
<extensions>
<speed>6.4</speed>
<temp>0.00</temp>
<bpm>0</bpm>
<rpm>0.00</rpm>
</extensions>
</trkpt>
<trkpt lat="31.170364380" lon="34.805213928">
<ele>328.710938</ele>
<time>2013-11-19T09:41:24Z</time>
<speed>6.070000</speed>
<extensions>
<speed>6.1</speed>
<temp>0.00</temp>
<bpm>0</bpm>
<rpm>0.00</rpm>
</extensions>
</trkpt>
<trkpt lat="31.170085907" lon="34.805141449">
<ele>328.953125</ele>
<time>2013-11-19T09:41:29Z</time>
<speed>6.330000</speed>
<extensions>
<speed>6.3</speed>
<temp>0.00</temp>
<bpm>0</bpm>
<rpm>0.00</rpm>
</extensions>
</trkpt>
<trkpt lat="31.169820786" lon="34.805061340">
<ele>329.242188</ele>
<time>2013-11-19T09:41:34Z</time>
<speed>5.460000</speed>
<extensions>
<speed>5.5</speed>
<temp>0.00</temp>
<bpm>0</bpm>
<rpm>0.00</rpm>
</extensions>
</trkpt>
<trkpt lat="31.169578552" lon="34.804992676">
<ele>329.335938</ele>
<time>2013-11-19T09:41:39Z</time>
<speed>5.840000</speed>
<extensions>
<speed>5.8</speed>
<temp>0.00</temp>
<bpm>0</bpm>
<rpm>0.00</rpm>
</extensions>
</trkpt>
<trkpt lat="31.169321060" lon="34.804939270">
<ele>330.023438</ele>
<time>2013-11-19T09:41:44Z</time>
<speed>5.910000</speed>
<extensions>
<speed>5.9</speed>
<temp>0.00</temp>
<bpm>0</bpm>
<rpm>0.00</rpm>
</extensions>
</trkpt>
<trkpt lat="31.169063568" lon="34.804862976">
<ele>330.703125</ele>
<time>2013-11-19T09:41:49Z</time>
<speed>6.040000</speed>
<extensions>
<speed>6.0</speed>
<temp>0.00</temp>
<bpm>0</bpm>
<rpm>0.00</rpm>
</extensions>
</trkpt>
<trkpt lat="31.168819427" lon="34.804794312">
<ele>331.195313</ele>
<time>2013-11-19T09:41:54Z</time>
<speed>5.130000</speed>
<extensions>
<speed>5.1</speed>
<temp>0.00</temp>
<bpm>0</bpm>
<rpm>0.00</rpm>
</extensions>
</trkpt>
<trkpt lat="31.168567657" lon="34.804721832">
<ele>331.484375</ele>
<time>2013-11-19T09:41:59Z</time>
<speed>6.070000</speed>
<extensions>
<speed>6.1</speed>
<temp>0.00</temp>
<bpm>0</bpm>
<rpm>0.00</rpm>
</extensions>
</trkpt>
<trkpt lat="31.168298721" lon="34.804641724">
<ele>331.640625</ele>
<time>2013-11-19T09:42:04Z</time>
<speed>5.620000</speed>
<extensions>
<speed>5.6</speed>
<temp>0.00</temp>
<bpm>0</bpm>
<rpm>0.00</rpm>
</extensions>
</trkpt>
<trkpt lat="31.168052673" lon="34.804573059">
<ele>331.890625</ele>
<time>2013-11-19T09:42:09Z</time>
<speed>5.780000</speed>
<extensions>
<speed>5.8</speed>
<temp>0.00</temp>
<bpm>0</bpm>
<rpm>0.00</rpm>
</extensions>
</trkpt>
<trkpt lat="31.167791367" lon="34.804500580">
<ele>331.976563</ele>
<time>2013-11-19T09:42:14Z</time>
<speed>5.530000</speed>
<extensions>
<speed>5.5</speed>
<temp>0.00</temp>
<bpm>0</bpm>
<rpm>0.00</rpm>
</extensions>
</trkpt>
<trkpt lat="31.167558670" lon="34.804431915">
<ele>332.085938</ele>
<time>2013-11-19T09:42:19Z</time>
<speed>5.570000</speed>
<extensions>
<speed>5.6</speed>
<temp>0.00</temp>
<bpm>0</bpm>
<rpm>0.00</rpm>
</extensions>
</trkpt>
<trkpt lat="31.167318344" lon="34.804340363">
<ele>332.171875</ele>
<time>2013-11-19T09:42:24Z</time>
<speed>5.160000</speed>
<extensions>
<speed>5.2</speed>
<temp>0.00</temp>
<bpm>0</bpm>
<rpm>0.00</rpm>
</extensions>
</trkpt>
<trkpt lat="31.167081833" lon="34.804248810">
<ele>332.359375</ele>
<time>2013-11-19T09:42:29Z</time>
<speed>5.630000</speed>
<extensions>
<speed>5.6</speed>
<temp>0.00</temp>
<bpm>0</bpm>
<rpm>0.00</rpm>
</extensions>
</trkpt>
<trkpt lat="31.166841507" lon="34.804153442">
<ele>332.484375</ele>
<time>2013-11-19T09:42:34Z</time>
<speed>4.920000</speed>
<extensions>
<speed>4.9</speed>
<temp>0.00</temp>
<bpm>0</bpm>
<rpm>0.00</rpm>
</extensions>
</trkpt>
<trkpt lat="31.166637421" lon="34.804065704">
<ele>332.320313</ele>
<time>2013-11-19T09:42:39Z</time>
<speed>4.910000</speed>
<extensions>
<speed>4.9</speed>
<temp>0.00</temp>
<bpm>0</bpm>
<rpm>0.00</rpm>
</extensions>
</trkpt>
<trkpt lat="31.166416168" lon="34.803997040">
<ele>332.812500</ele>
<time>2013-11-19T09:42:44Z</time>
<speed>5.440000</speed>
<extensions>
<speed>5.4</speed>
<temp>0.00</temp>
<bpm>0</bpm>
<rpm>0.00</rpm>
</extensions>
</trkpt>
<trkpt lat="31.166183472" lon="34.803936005">
<ele>333.257813</ele>
<time>2013-11-19T09:42:49Z</time>
<speed>5.360000</speed>
<extensions>
<speed>5.4</speed>
<temp>0.00</temp>
<bpm>0</bpm>
<rpm>0.00</rpm>
</extensions>
</trkpt>
<trkpt lat="31.165937424" lon="34.803874969">
<ele>333.226563</ele>
<time>2013-11-19T09:42:54Z</time>
<speed>5.640000</speed>
<extensions>
<speed>5.6</speed>
<temp>0.00</temp>
<bpm>0</bpm>
<rpm>0.00</rpm>
</extensions>
</trkpt>
<trkpt lat="31.165685654" lon="34.803810120">
<ele>333.695313</ele>
<time>2013-11-19T09:42:59Z</time>
<speed>5.930000</speed>
<extensions>
<speed>5.9</speed>
<temp>0.00</temp>
<bpm>0</bpm>
<rpm>0.00</rpm>
</extensions>
</trkpt>
<trkpt lat="31.165426254" lon="34.803737640">
<ele>334.078125</ele>
<time>2013-11-19T09:43:04Z</time>
<speed>5.360000</speed>
<extensions>
<speed>5.4</speed>
<temp>0.00</temp>
<bpm>0</bpm>
<rpm>0.00</rpm>
</extensions>
</trkpt>
<trkpt lat="31.165184021" lon="34.803672791">
<ele>334.421875</ele>
<time>2013-11-19T09:43:09Z</time>
<speed>5.950000</speed>
<extensions>
<speed>6.0</speed>
<temp>0.00</temp>
<bpm>0</bpm>
<rpm>0.00</rpm>
</extensions>
</trkpt>
<trkpt lat="31.164915085" lon="34.803607941">
<ele>334.445313</ele>
<time>2013-11-19T09:43:14Z</time>
<speed>6.170000</speed>
<extensions>
<speed>6.2</speed>
<temp>0.00</temp>
<bpm>0</bpm>
<rpm>0.00</rpm>
</extensions>
</trkpt>
<trkpt lat="31.164634705" lon="34.803562164">
<ele>334.367188</ele>
<time>2013-11-19T09:43:19Z</time>
<speed>6.340000</speed>
<extensions>
<speed>6.3</speed>
<temp>0.00</temp>
<bpm>0</bpm>
<rpm>0.00</rpm>
</extensions>
</trkpt>
<trkpt lat="31.164356232" lon="34.803600311">
<ele>333.781250</ele>
<time>2013-11-19T09:43:24Z</time>
<speed>6.210000</speed>
<extensions>
<speed>6.2</speed>
<temp>0.00</temp>
<bpm>0</bpm>
<rpm>0.00</rpm>
</extensions>
</trkpt>
<trkpt lat="31.164094925" lon="34.803627014">
<ele>333.664063</ele>
<time>2013-11-19T09:43:29Z</time>
<speed>6.190000</speed>
<extensions>
<speed>6.2</speed>
<temp>0.00</temp>
<bpm>0</bpm>
<rpm>0.00</rpm>
</extensions>
</trkpt>
<trkpt lat="31.163799286" lon="34.803611755">
<ele>333.515625</ele>
<time>2013-11-19T09:43:34Z</time>
<speed>6.710000</speed>
<extensions>
<speed>6.7</speed>
<temp>0.00</temp>
<bpm>0</bpm>
<rpm>0.00</rpm>
</extensions>
</trkpt>
<trkpt lat="31.163497925" lon="34.803596497">
<ele>333.210938</ele>
<time>2013-11-19T09:43:39Z</time>
<speed>6.750000</speed>
<extensions>
<speed>6.7</speed>
<temp>0.00</temp>
<bpm>0</bpm>
<rpm>0.00</rpm>
</extensions>
</trkpt>
<trkpt lat="31.163198471" lon="34.803634644">
<ele>332.781250</ele>
<time>2013-11-19T09:43:44Z</time>
<speed>6.560000</speed>
<extensions>
<speed>6.6</speed>
<temp>0.00</temp>
<bpm>0</bpm>
<rpm>0.00</rpm>
</extensions>
</trkpt>
<trkpt lat="31.162916183" lon="34.803684235">
<ele>331.648438</ele>
<time>2013-11-19T09:43:49Z</time>
<speed>6.390000</speed>
<extensions>
<speed>6.4</speed>
<temp>0.00</temp>
<bpm>0</bpm>
<rpm>0.00</rpm>
</extensions>
</trkpt>
<trkpt lat="31.162639618" lon="34.803733826">
<ele>330.664063</ele>
<time>2013-11-19T09:43:54Z</time>
<speed>6.100000</speed>
<extensions>
<speed>6.1</speed>
<temp>0.00</temp>
<bpm>0</bpm>
<rpm>0.00</rpm>
</extensions>
</trkpt>
<trkpt lat="31.162363052" lon="34.803791046">
<ele>329.898438</ele>
<time>2013-11-19T09:43:59Z</time>
<speed>6.710000</speed>
<extensions>
<speed>6.7</speed>
<temp>0.00</temp>
<bpm>0</bpm>
<rpm>0.00</rpm>
</extensions>
</trkpt>
<trkpt lat="31.162059784" lon="34.803852081">
<ele>328.921875</ele>
<time>2013-11-19T09:44:04Z</time>
<speed>7.070000</speed>
<extensions>
<speed>7.1</speed>
<temp>0.00</temp>
<bpm>0</bpm>
<rpm>0.00</rpm>
</extensions>
</trkpt>
<trkpt lat="31.161745071" lon="34.803909302">
<ele>327.804688</ele>
<time>2013-11-19T09:44:09Z</time>
<speed>7.230000</speed>
<extensions>
<speed>7.2</speed>
<temp>0.00</temp>
<bpm>0</bpm>
<rpm>0.00</rpm>
</extensions>
</trkpt>
<trkpt lat="31.161422729" lon="34.803939819">
<ele>326.515625</ele>
<time>2013-11-19T09:44:14Z</time>
<speed>7.280000</speed>
<extensions>
<speed>7.3</speed>
<temp>0.00</temp>
<bpm>0</bpm>
<rpm>0.00</rpm>
</extensions>
</trkpt>
<trkpt lat="31.161094666" lon="34.803981781">
<ele>325.945313</ele>
<time>2013-11-19T09:44:19Z</time>
<speed>7.570000</speed>
<extensions>
<speed>7.6</speed>
<temp>0.00</temp>
<bpm>0</bpm>
<rpm>0.00</rpm>
</extensions>
</trkpt>
<trkpt lat="31.160757065" lon="34.804035187">
<ele>325.273438</ele>
<time>2013-11-19T09:44:24Z</time>
<speed>7.760000</speed>
<extensions>
<speed>7.8</speed>
<temp>0.00</temp>
<bpm>0</bpm>
<rpm>0.00</rpm>
</extensions>
</trkpt>
<trkpt lat="31.160408020" lon="34.804103851">
<ele>323.796875</ele>
<time>2013-11-19T09:44:29Z</time>
<speed>8.020000</speed>
<extensions>
<speed>8.0</speed>
<temp>0.00</temp>
<bpm>0</bpm>
<rpm>0.00</rpm>
</extensions>
</trkpt>
<trkpt lat="31.160047531" lon="34.804157257">
<ele>322.195313</ele>
<time>2013-11-19T09:44:34Z</time>
<speed>8.180000</speed>
<extensions>
<speed>8.2</speed>
<temp>0.00</temp>
<bpm>0</bpm>
<rpm>0.00</rpm>
</extensions>
</trkpt>
<trkpt lat="31.159671783" lon="34.804233551">
<ele>320.765625</ele>
<time>2013-11-19T09:44:39Z</time>
<speed>8.320000</speed>
<extensions>
<speed>8.3</speed>
<temp>0.00</temp>
<bpm>0</bpm>
<rpm>0.00</rpm>
</extensions>
</trkpt>
<trkpt lat="31.159292221" lon="34.804183960">
<ele>319.382813</ele>
<time>2013-11-19T09:44:44Z</time>
<speed>8.480000</speed>
<extensions>
<speed>8.5</speed>
<temp>0.00</temp>
<bpm>0</bpm>
<rpm>0.00</rpm>
</extensions>
</trkpt>
<trkpt lat="31.158914566" lon="34.804031372">
<ele>318.000000</ele>
<time>2013-11-19T09:44:49Z</time>
<speed>8.230000</speed>
<extensions>
<speed>8.2</speed>
<temp>0.00</temp>
<bpm>0</bpm>
<rpm>0.00</rpm>
</extensions>
</trkpt>
<trkpt lat="31.158575058" lon="34.803985596">
<ele>318.656250</ele>
<time>2013-11-19T09:44:54Z</time>
<speed>6.960000</speed>
<extensions>
<speed>7.0</speed>
<temp>0.00</temp>
<bpm>0</bpm>
<rpm>0.00</rpm>
</extensions>
</trkpt>
<trkpt lat="31.158306122" lon="34.804012299">
<ele>319.804688</ele>
<time>2013-11-19T09:44:59Z</time>
<speed>5.200000</speed>
<extensions>
<speed>5.2</speed>
<temp>0.00</temp>
<bpm>0</bpm>
<rpm>0.00</rpm>
</extensions>
</trkpt>
<trkpt lat="31.158103943" lon="34.804080963">
<ele>321.101563</ele>
<time>2013-11-19T09:45:04Z</time>
<speed>4.700000</speed>
<extensions>
<speed>4.7</speed>
<temp>0.00</temp>
<bpm>0</bpm>
<rpm>0.00</rpm>
</extensions>
</trkpt>
<trkpt lat="31.157943726" lon="34.804191589">
<ele>322.343750</ele>
<time>2013-11-19T09:45:09Z</time>
<speed>3.880000</speed>
<extensions>
<speed>3.9</speed>
<temp>0.00</temp>
<bpm>0</bpm>
<rpm>0.00</rpm>
</extensions>
</trkpt>
<trkpt lat="31.157852173" lon="34.804286957">
<ele>323.429688</ele>
<time>2013-11-19T09:45:14Z</time>
<speed>2.620000</speed>
<extensions>
<speed>2.6</speed>
<temp>0.00</temp>
<bpm>0</bpm>
<rpm>0.00</rpm>
</extensions>
</trkpt>
<trkpt lat="31.157777786" lon="34.804416656">
<ele>324.929688</ele>
<time>2013-11-19T09:45:19Z</time>
<speed>3.760000</speed>
<extensions>
<speed>3.8</speed>
<temp>0.00</temp>
<bpm>0</bpm>
<rpm>0.00</rpm>
</extensions>
</trkpt>
<trkpt lat="31.157674789" lon="34.804553986">
<ele>325.789063</ele>
<time>2013-11-19T09:45:24Z</time>
<speed>3.320000</speed>
<extensions>
<speed>3.3</speed>
<temp>0.00</temp>
<bpm>0</bpm>
<rpm>0.00</rpm>
</extensions>
</trkpt>
<trkpt lat="31.157531738" lon="34.804618835">
<ele>325.781250</ele>
<time>2013-11-19T09:45:29Z</time>
<speed>3.740000</speed>
<extensions>
<speed>3.7</speed>
<temp>0.00</temp>
<bpm>0</bpm>
<rpm>0.00</rpm>
</extensions>
</trkpt>
<trkpt lat="31.157342911" lon="34.804660797">
<ele>325.554688</ele>
<time>2013-11-19T09:45:34Z</time>
<speed>4.580000</speed>
<extensions>
<speed>4.6</speed>
<temp>0.00</temp>
<bpm>0</bpm>
<rpm>0.00</rpm>
</extensions>
</trkpt>
<trkpt lat="31.157119751" lon="34.804702759">
<ele>324.781250</ele>
<time>2013-11-19T09:45:39Z</time>
<speed>5.000000</speed>
<extensions>
<speed>5.0</speed>
<temp>0.00</temp>
<bpm>0</bpm>
<rpm>0.00</rpm>
</extensions>
</trkpt>
<trkpt lat="31.156896591" lon="34.804733276">
<ele>324.218750</ele>
<time>2013-11-19T09:45:44Z</time>
<speed>4.410000</speed>
<extensions>
<speed>4.4</speed>
<temp>0.00</temp>
<bpm>0</bpm>
<rpm>0.00</rpm>
</extensions>
</trkpt>
<trkpt lat="31.156705856" lon="34.804759979">
<ele>324.195313</ele>
<time>2013-11-19T09:45:49Z</time>
<speed>3.860000</speed>
<extensions>
<speed>3.9</speed>
<temp>0.00</temp>
<bpm>0</bpm>
<rpm>0.00</rpm>
</extensions>
</trkpt>
<trkpt lat="31.156524658" lon="34.804782867">
<ele>324.414063</ele>
<time>2013-11-19T09:45:54Z</time>
<speed>4.130000</speed>
<extensions>
<speed>4.1</speed>
<temp>0.00</temp>
<bpm>0</bpm>
<rpm>0.00</rpm>
</extensions>
</trkpt>
<trkpt lat="31.156333923" lon="34.804821014">
<ele>324.531250</ele>
<time>2013-11-19T09:45:59Z</time>
<speed>4.290000</speed>
<extensions>
<speed>4.3</speed>
<temp>0.00</temp>
<bpm>0</bpm>
<rpm>0.00</rpm>
</extensions>
</trkpt>
<trkpt lat="31.156135559" lon="34.804855347">
<ele>324.804688</ele>
<time>2013-11-19T09:46:04Z</time>
<speed>4.420000</speed>
<extensions>
<speed>4.4</speed>
<temp>0.00</temp>
<bpm>0</bpm>
<rpm>0.00</rpm>
</extensions>
</trkpt>
<trkpt lat="31.155942917" lon="34.804889679">
<ele>325.570313</ele>
<time>2013-11-19T09:46:09Z</time>
<speed>3.700000</speed>
<extensions>
<speed>3.7</speed>
<temp>0.00</temp>
<bpm>0</bpm>
<rpm>0.00</rpm>
</extensions>
</trkpt>
<trkpt lat="31.155780792" lon="34.804924011">
<ele>326.335938</ele>
<time>2013-11-19T09:46:14Z</time>
<speed>3.830000</speed>
<extensions>
<speed>3.8</speed>
<temp>0.00</temp>
<bpm>0</bpm>
<rpm>0.00</rpm>
</extensions>
</trkpt>
<trkpt lat="31.155614853" lon="34.804958344">
<ele>327.523438</ele>
<time>2013-11-19T09:46:19Z</time>
<speed>4.230000</speed>
<extensions>
<speed>4.2</speed>
<temp>0.00</temp>
<bpm>0</bpm>
<rpm>0.00</rpm>
</extensions>
</trkpt>
<trkpt lat="31.155466080" lon="34.804992676">
<ele>328.296875</ele>
<time>2013-11-19T09:46:24Z</time>
<speed>3.070000</speed>
<extensions>
<speed>3.1</speed>
<temp>0.00</temp>
<bpm>0</bpm>
<rpm>0.00</rpm>
</extensions>
</trkpt>
<trkpt lat="31.155302048" lon="34.805027008">
<ele>328.726563</ele>
<time>2013-11-19T09:46:29Z</time>
<speed>3.980000</speed>
<extensions>
<speed>4.0</speed>
<temp>0.00</temp>
<bpm>0</bpm>
<rpm>0.00</rpm>
</extensions>
</trkpt>
<trkpt lat="31.155128479" lon="34.805068970">
<ele>328.835938</ele>
<time>2013-11-19T09:46:34Z</time>
<speed>3.650000</speed>
<extensions>
<speed>3.7</speed>
<temp>0.00</temp>
<bpm>0</bpm>
<rpm>0.00</rpm>
</extensions>
</trkpt>
<trkpt lat="31.155008316" lon="34.805088043">
<ele>329.718750</ele>
<time>2013-11-19T09:46:39Z</time>
<speed>2.500000</speed>
<extensions>
<speed>2.5</speed>
<temp>0.00</temp>
<bpm>0</bpm>
<rpm>0.00</rpm>
</extensions>
</trkpt>
<trkpt lat="31.154884338" lon="34.805107117">
<ele>331.015625</ele>
<time>2013-11-19T09:46:44Z</time>
<speed>2.940000</speed>
<extensions>
<speed>2.9</speed>
<temp>0.00</temp>
<bpm>0</bpm>
<rpm>0.00</rpm>
</extensions>
</trkpt>
<trkpt lat="31.154747009" lon="34.805133820">
<ele>331.507813</ele>
<time>2013-11-19T09:46:49Z</time>
<speed>3.200000</speed>
<extensions>
<speed>3.2</speed>
<temp>0.00</temp>
<bpm>0</bpm>
<rpm>0.00</rpm>
</extensions>
</trkpt>
<trkpt lat="31.154588699" lon="34.805168152">
<ele>331.265625</ele>
<time>2013-11-19T09:46:54Z</time>
<speed>3.860000</speed>
<extensions>
<speed>3.9</speed>
<temp>0.00</temp>
<bpm>0</bpm>
<rpm>0.00</rpm>
</extensions>
</trkpt>
<trkpt lat="31.154409409" lon="34.805191040">
<ele>331.085938</ele>
<time>2013-11-19T09:46:59Z</time>
<speed>4.270000</speed>
<extensions>
<speed>4.3</speed>
<temp>0.00</temp>
<bpm>0</bpm>
<rpm>0.00</rpm>
</extensions>
</trkpt>
<trkpt lat="31.154182434" lon="34.805213928">
<ele>330.546875</ele>
<time>2013-11-19T09:47:04Z</time>
<speed>6.000000</speed>
<extensions>
<speed>6.0</speed>
<temp>0.00</temp>
<bpm>0</bpm>
<rpm>0.00</rpm>
</extensions>
</trkpt>
<trkpt lat="31.153882980" lon="34.805240631">
<ele>328.484375</ele>
<time>2013-11-19T09:47:09Z</time>
<speed>7.230000</speed>
<extensions>
<speed>7.2</speed>
<temp>0.00</temp>
<bpm>0</bpm>
<rpm>0.00</rpm>
</extensions>
</trkpt>
<trkpt lat="31.153522491" lon="34.805267334">
<ele>325.890625</ele>
<time>2013-11-19T09:47:14Z</time>
<speed>8.510000</speed>
<extensions>
<speed>8.5</speed>
<temp>0.00</temp>
<bpm>0</bpm>
<rpm>0.00</rpm>
</extensions>
</trkpt>
<trkpt lat="31.153114319" lon="34.805255890">
<ele>325.273438</ele>
<time>2013-11-19T09:47:19Z</time>
<speed>9.260000</speed>
<extensions>
<speed>9.3</speed>
<temp>0.00</temp>
<bpm>0</bpm>
<rpm>0.00</rpm>
</extensions>
</trkpt>
<trkpt lat="31.152671814" lon="34.805236816">
<ele>323.070313</ele>
<time>2013-11-19T09:47:24Z</time>
<speed>9.850000</speed>
<extensions>
<speed>9.8</speed>
<temp>0.00</temp>
<bpm>0</bpm>
<rpm>0.00</rpm>
</extensions>
</trkpt>
<trkpt lat="31.152254105" lon="34.805221558">
<ele>323.007813</ele>
<time>2013-11-19T09:47:29Z</time>
<speed>7.080000</speed>
<extensions>
<speed>7.1</speed>
<temp>0.00</temp>
<bpm>0</bpm>
<rpm>0.00</rpm>
</extensions>
</trkpt>
<trkpt lat="31.152147293" lon="34.805213928">
<ele>322.531250</ele>
<time>2013-11-19T09:47:34Z</time>
<speed>0.070000</speed>
<extensions>
<speed>0.1</speed>
<temp>0.00</temp>
<bpm>0</bpm>
<rpm>0.00</rpm>
</extensions>
</trkpt>
<trkpt lat="31.152149200" lon="34.805217743">
<ele>322.414063</ele>
<time>2013-11-19T09:47:39Z</time>
<speed>0.020000</speed>
<extensions>
<speed>0.0</speed>
<temp>0.00</temp>
<bpm>0</bpm>
<rpm>0.00</rpm>
</extensions>
</trkpt>
<trkpt lat="31.152149200" lon="34.805217743">
<ele>322.414063</ele>
<time>2013-11-19T09:47:44Z</time>
<extensions>
<speed>0.0</speed>
<temp>0.00</temp>
<bpm>0</bpm>
<rpm>0.00</rpm>
</extensions>
</trkpt>
<trkpt lat="31.152149200" lon="34.805217743">
<ele>322.382813</ele>
<time>2013-11-19T09:47:49Z</time>
<extensions>
<speed>0.0</speed>
<temp>0.00</temp>
<bpm>0</bpm>
<rpm>0.00</rpm>
</extensions>
</trkpt>
<trkpt lat="31.152149200" lon="34.805217743">
<ele>322.390625</ele>
<time>2013-11-19T09:47:54Z</time>
<speed>0.150000</speed>
<extensions>
<speed>0.2</speed>
<temp>0.00</temp>
<bpm>0</bpm>
<rpm>0.00</rpm>
</extensions>
</trkpt>
<trkpt lat="31.152149200" lon="34.805217743">
<ele>322.343750</ele>
<time>2013-11-19T09:47:59Z</time>
<speed>0.010000</speed>
<extensions>
<speed>0.0</speed>
<temp>0.00</temp>
<bpm>0</bpm>
<rpm>0.00</rpm>
</extensions>
</trkpt>
<trkpt lat="31.152128220" lon="34.805221558">
<ele>322.148438</ele>
<time>2013-11-19T09:48:04Z</time>
<speed>1.640000</speed>
<extensions>
<speed>1.6</speed>
<temp>0.00</temp>
<bpm>0</bpm>
<rpm>0.00</rpm>
</extensions>
</trkpt>
<trkpt lat="31.152006149" lon="34.805221558">
<ele>321.984375</ele>
<time>2013-11-19T09:48:09Z</time>
<speed>3.070000</speed>
<extensions>
<speed>3.1</speed>
<temp>0.00</temp>
<bpm>0</bpm>
<rpm>0.00</rpm>
</extensions>
</trkpt>
<trkpt lat="31.151849747" lon="34.805210114">
<ele>321.984375</ele>
<time>2013-11-19T09:48:14Z</time>
<speed>3.610000</speed>
<extensions>
<speed>3.6</speed>
<temp>0.00</temp>
<bpm>0</bpm>
<rpm>0.00</rpm>
</extensions>
</trkpt>
<trkpt lat="31.151685715" lon="34.805194855">
<ele>322.421875</ele>
<time>2013-11-19T09:48:19Z</time>
<speed>3.160000</speed>
<extensions>
<speed>3.2</speed>
<temp>0.00</temp>
<bpm>0</bpm>
<rpm>0.00</rpm>
</extensions>
</trkpt>
<trkpt lat="31.151529312" lon="34.805171967">
<ele>322.648438</ele>
<time>2013-11-19T09:48:24Z</time>
<speed>3.590000</speed>
<extensions>
<speed>3.6</speed>
<temp>0.00</temp>
<bpm>0</bpm>
<rpm>0.00</rpm>
</extensions>
</trkpt>
<trkpt lat="31.151359558" lon="34.805149078">
<ele>323.132813</ele>
<time>2013-11-19T09:48:29Z</time>
<speed>3.310000</speed>
<extensions>
<speed>3.3</speed>
<temp>0.00</temp>
<bpm>0</bpm>
<rpm>0.00</rpm>
</extensions>
</trkpt>
<trkpt lat="31.151193619" lon="34.805118561">
<ele>323.648438</ele>
<time>2013-11-19T09:48:34Z</time>
<speed>4.180000</speed>
<extensions>
<speed>4.2</speed>
<temp>0.00</temp>
<bpm>0</bpm>
<rpm>0.00</rpm>
</extensions>
</trkpt>
<trkpt lat="31.151010513" lon="34.805114746">
<ele>323.640625</ele>
<time>2013-11-19T09:48:39Z</time>
<speed>3.450000</speed>
<extensions>
<speed>3.5</speed>
<temp>0.00</temp>
<bpm>0</bpm>
<rpm>0.00</rpm>
</extensions>
</trkpt>
<trkpt lat="31.150945663" lon="34.805122375">
<ele>323.679688</ele>
<time>2013-11-19T09:48:44Z</time>
<speed>0.670000</speed>
<extensions>
<speed>0.7</speed>
<temp>0.00</temp>
<bpm>0</bpm>
<rpm>0.00</rpm>
</extensions>
</trkpt>
<trkpt lat="31.150957108" lon="34.805084229">
<ele>323.734375</ele>
<time>2013-11-19T09:48:49Z</time>
<speed>1.530000</speed>
<extensions>
<speed>1.5</speed>
<temp>0.00</temp>
<bpm>0</bpm>
<rpm>0.00</rpm>
</extensions>
</trkpt>
<trkpt lat="31.151042938" lon="34.805057526">
<ele>325.507813</ele>
<time>2013-11-19T09:48:54Z</time>
<speed>1.510000</speed>
<extensions>
<speed>1.5</speed>
<temp>0.00</temp>
<bpm>0</bpm>
<rpm>0.00</rpm>
</extensions>
</trkpt>
<trkpt lat="31.151102066" lon="34.805004120">
<ele>326.765625</ele>
<time>2013-11-19T09:48:59Z</time>
<speed>1.650000</speed>
<extensions>
<speed>1.7</speed>
<temp>0.00</temp>
<bpm>0</bpm>
<rpm>0.00</rpm>
</extensions>
</trkpt>
<trkpt lat="31.151136398" lon="34.804935455">
<ele>328.234375</ele>
<time>2013-11-19T09:49:04Z</time>
<speed>1.690000</speed>
<extensions>
<speed>1.7</speed>
<temp>0.00</temp>
<bpm>0</bpm>
<rpm>0.00</rpm>
</extensions>
</trkpt>
<trkpt lat="31.151111603" lon="34.804855347">
<ele>329.765625</ele>
<time>2013-11-19T09:49:09Z</time>
<speed>1.960000</speed>
<extensions>
<speed>2.0</speed>
<temp>0.00</temp>
<bpm>0</bpm>
<rpm>0.00</rpm>
</extensions>
</trkpt>
<trkpt lat="31.151079178" lon="34.804767609">
<ele>331.109375</ele>
<time>2013-11-19T09:49:14Z</time>
<speed>1.780000</speed>
<extensions>
<speed>1.8</speed>
<temp>0.00</temp>
<bpm>0</bpm>
<rpm>0.00</rpm>
</extensions>
</trkpt>
<trkpt lat="31.151046753" lon="34.804679871">
<ele>332.234375</ele>
<time>2013-11-19T09:49:19Z</time>
<speed>2.110000</speed>
<extensions>
<speed>2.1</speed>
<temp>0.00</temp>
<bpm>0</bpm>
<rpm>0.00</rpm>
</extensions>
</trkpt>
<trkpt lat="31.151020050" lon="34.804557800">
<ele>333.664063</ele>
<time>2013-11-19T09:49:24Z</time>
<speed>2.620000</speed>
<extensions>
<speed>2.6</speed>
<temp>0.00</temp>
<bpm>0</bpm>
<rpm>0.00</rpm>
</extensions>
</trkpt>
<trkpt lat="31.151008606" lon="34.804428101">
<ele>334.515625</ele>
<time>2013-11-19T09:49:29Z</time>
<speed>2.280000</speed>
<extensions>
<speed>2.3</speed>
<temp>0.00</temp>
<bpm>0</bpm>
<rpm>0.00</rpm>
</extensions>
</trkpt>
<trkpt lat="31.150999069" lon="34.804340363">
<ele>335.117188</ele>
<time>2013-11-19T09:49:34Z</time>
<speed>0.220000</speed>
<extensions>
<speed>0.2</speed>
<temp>0.00</temp>
<bpm>0</bpm>
<rpm>0.00</rpm>
</extensions>
</trkpt>
<trkpt lat="31.151002884" lon="34.804317474">
<ele>334.773438</ele>
<time>2013-11-19T09:49:39Z</time>
<speed>1.210000</speed>
<extensions>
<speed>1.2</speed>
<temp>0.00</temp>
<bpm>0</bpm>
<rpm>0.00</rpm>
</extensions>
</trkpt>
<trkpt lat="31.150985718" lon="34.804298401">
<ele>336.117188</ele>
<time>2013-11-19T09:49:44Z</time>
<speed>0.250000</speed>
<extensions>
<speed>0.2</speed>
<temp>0.00</temp>
<bpm>0</bpm>
<rpm>0.00</rpm>
</extensions>
</trkpt>
<trkpt lat="31.150981903" lon="34.804294586">
<ele>336.218750</ele>
<time>2013-11-19T09:49:49Z</time>
<speed>0.040000</speed>
<extensions>
<speed>0.0</speed>
<temp>0.00</temp>
<bpm>0</bpm>
<rpm>0.00</rpm>
</extensions>
</trkpt>
<trkpt lat="31.150983810" lon="34.804294586">
<ele>336.312500</ele>
<time>2013-11-19T09:49:54Z</time>
<speed>0.130000</speed>
<extensions>
<speed>0.1</speed>
<temp>0.00</temp>
<bpm>0</bpm>
<rpm>0.00</rpm>
</extensions>
</trkpt>
<trkpt lat="31.150989532" lon="34.804294586">
<ele>336.343750</ele>
<time>2013-11-19T09:49:59Z</time>
<extensions>
<speed>0.0</speed>
<temp>0.00</temp>
<bpm>0</bpm>
<rpm>0.00</rpm>
</extensions>
</trkpt>
<trkpt lat="31.150989532" lon="34.804294586">
<ele>336.406250</ele>
<time>2013-11-19T09:50:04Z</time>
<speed>0.050000</speed>
<extensions>
<speed>0.1</speed>
<temp>0.00</temp>
<bpm>0</bpm>
<rpm>0.00</rpm>
</extensions>
</trkpt>
<trkpt lat="31.150995255" lon="34.804294586">
<ele>336.500000</ele>
<time>2013-11-19T09:50:09Z</time>
<speed>0.130000</speed>
<extensions>
<speed>0.1</speed>
<temp>0.00</temp>
<bpm>0</bpm>
<rpm>0.00</rpm>
</extensions>
</trkpt>
<trkpt lat="31.150995255" lon="34.804294586">
<ele>336.617188</ele>
<time>2013-11-19T09:50:14Z</time>
<speed>0.020000</speed>
<extensions>
<speed>0.0</speed>
<temp>0.00</temp>
<bpm>0</bpm>
<rpm>0.00</rpm>
</extensions>
</trkpt>
<trkpt lat="31.150995255" lon="34.804294586">
<ele>336.617188</ele>
<time>2013-11-19T09:50:19Z</time>
<speed>0.010000</speed>
<extensions>
<speed>0.0</speed>
<temp>0.00</temp>
<bpm>0</bpm>
<rpm>0.00</rpm>
</extensions>
</trkpt>
<trkpt lat="31.150997162" lon="34.804294586">
<ele>336.617188</ele>
<time>2013-11-19T09:50:24Z</time>
<speed>0.010000</speed>
<extensions>
<speed>0.0</speed>
<temp>0.00</temp>
<bpm>0</bpm>
<rpm>0.00</rpm>
</extensions>
</trkpt>
<trkpt lat="31.150997162" lon="34.804294586">
<ele>336.617188</ele>
<time>2013-11-19T09:50:29Z</time>
<extensions>
<speed>0.0</speed>
<temp>0.00</temp>
<bpm>0</bpm>
<rpm>0.00</rpm>
</extensions>
</trkpt>
<trkpt lat="31.150997162" lon="34.804294586">
<ele>336.617188</ele>
<time>2013-11-19T09:50:34Z</time>
<extensions>
<speed>0.0</speed>
<temp>0.00</temp>
<bpm>0</bpm>
<rpm>0.00</rpm>
</extensions>
</trkpt>
<trkpt lat="31.150997162" lon="34.804294586">
<ele>336.617188</ele>
<time>2013-11-19T09:50:39Z</time>
<extensions>
<speed>0.0</speed>
<temp>0.00</temp>
<bpm>0</bpm>
<rpm>0.00</rpm>
</extensions>
</trkpt>
<trkpt lat="31.150997162" lon="34.804294586">
<ele>336.617188</ele>
<time>2013-11-19T09:50:44Z</time>
<extensions>
<speed>0.0</speed>
<temp>0.00</temp>
<bpm>0</bpm>
<rpm>0.00</rpm>
</extensions>
</trkpt>
<trkpt lat="31.150997162" lon="34.804294586">
<ele>336.617188</ele>
<time>2013-11-19T09:50:49Z</time>
<speed>0.010000</speed>
<extensions>
<speed>0.0</speed>
<temp>0.00</temp>
<bpm>0</bpm>
<rpm>0.00</rpm>
</extensions>
</trkpt>
<trkpt lat="31.150997162" lon="34.804294586">
<ele>336.617188</ele>
<time>2013-11-19T09:50:54Z</time>
<extensions>
<speed>0.0</speed>
<temp>0.00</temp>
<bpm>0</bpm>
<rpm>0.00</rpm>
</extensions>
</trkpt>
<trkpt lat="31.150997162" lon="34.804294586">
<ele>336.609375</ele>
<time>2013-11-19T09:50:59Z</time>
<extensions>
<speed>0.0</speed>
<temp>0.00</temp>
<bpm>0</bpm>
<rpm>0.00</rpm>
</extensions>
</trkpt>
<trkpt lat="31.150997162" lon="34.804294586">
<ele>336.617188</ele>
<time>2013-11-19T09:51:04Z</time>
<extensions>
<speed>0.0</speed>
<temp>0.00</temp>
<bpm>0</bpm>
<rpm>0.00</rpm>
</extensions>
</trkpt>
<trkpt lat="31.150997162" lon="34.804294586">
<ele>336.617188</ele>
<time>2013-11-19T09:51:09Z</time>
<speed>0.010000</speed>
<extensions>
<speed>0.0</speed>
<temp>0.00</temp>
<bpm>0</bpm>
<rpm>0.00</rpm>
</extensions>
</trkpt>
<trkpt lat="31.150999069" lon="34.804294586">
<ele>336.617188</ele>
<time>2013-11-19T09:51:14Z</time>
<extensions>
<speed>0.0</speed>
<temp>0.00</temp>
<bpm>0</bpm>
<rpm>0.00</rpm>
</extensions>
</trkpt>
<trkpt lat="31.150999069" lon="34.804294586">
<ele>336.617188</ele>
<time>2013-11-19T09:51:19Z</time>
<extensions>
<speed>0.0</speed>
<temp>0.00</temp>
<bpm>0</bpm>
<rpm>0.00</rpm>
</extensions>
</trkpt>
<trkpt lat="31.150999069" lon="34.804294586">
<ele>336.625000</ele>
<time>2013-11-19T09:51:24Z</time>
<extensions>
<speed>0.0</speed>
<temp>0.00</temp>
<bpm>0</bpm>
<rpm>0.00</rpm>
</extensions>
</trkpt>
<trkpt lat="31.150999069" lon="34.804294586">
<ele>336.625000</ele>
<time>2013-11-19T09:51:29Z</time>
<speed>0.010000</speed>
<extensions>
<speed>0.0</speed>
<temp>0.00</temp>
<bpm>0</bpm>
<rpm>0.00</rpm>
</extensions>
</trkpt>
<trkpt lat="31.150999069" lon="34.804294586">
<ele>336.632813</ele>
<time>2013-11-19T09:51:34Z</time>
<extensions>
<speed>0.0</speed>
<temp>0.00</temp>
<bpm>0</bpm>
<rpm>0.00</rpm>
</extensions>
</trkpt>
<trkpt lat="31.150999069" lon="34.804294586">
<ele>336.640625</ele>
<time>2013-11-19T09:51:39Z</time>
<extensions>
<speed>0.0</speed>
<temp>0.00</temp>
<bpm>0</bpm>
<rpm>0.00</rpm>
</extensions>
</trkpt>
<trkpt lat="31.150999069" lon="34.804294586">
<ele>336.640625</ele>
<time>2013-11-19T09:51:44Z</time>
<extensions>
<speed>0.0</speed>
<temp>0.00</temp>
<bpm>0</bpm>
<rpm>0.00</rpm>
</extensions>
</trkpt>
<trkpt lat="31.150999069" lon="34.804294586">
<ele>336.640625</ele>
<time>2013-11-19T09:51:49Z</time>
<speed>0.020000</speed>
<extensions>
<speed>0.0</speed>
<temp>0.00</temp>
<bpm>0</bpm>
<rpm>0.00</rpm>
</extensions>
</trkpt>
<trkpt lat="31.150999069" lon="34.804294586">
<ele>336.648438</ele>
<time>2013-11-19T09:51:54Z</time>
<extensions>
<speed>0.0</speed>
<temp>0.00</temp>
<bpm>0</bpm>
<rpm>0.00</rpm>
</extensions>
</trkpt>
<trkpt lat="31.151000977" lon="34.804294586">
<ele>336.656250</ele>
<time>2013-11-19T09:51:59Z</time>
<extensions>
<speed>0.0</speed>
<temp>0.00</temp>
<bpm>0</bpm>
<rpm>0.00</rpm>
</extensions>
</trkpt>
<trkpt lat="31.151000977" lon="34.804294586">
<ele>336.656250</ele>
<time>2013-11-19T09:52:04Z</time>
<speed>0.010000</speed>
<extensions>
<speed>0.0</speed>
<temp>0.00</temp>
<bpm>0</bpm>
<rpm>0.00</rpm>
</extensions>
</trkpt>
<trkpt lat="31.151000977" lon="34.804294586">
<ele>336.664063</ele>
<time>2013-11-19T09:52:09Z</time>
<extensions>
<speed>0.0</speed>
<temp>0.00</temp>
<bpm>0</bpm>
<rpm>0.00</rpm>
</extensions>
</trkpt>
<trkpt lat="31.151000977" lon="34.804294586">
<ele>336.671875</ele>
<time>2013-11-19T09:52:14Z</time>
<speed>0.010000</speed>
<extensions>
<speed>0.0</speed>
<temp>0.00</temp>
<bpm>0</bpm>
<rpm>0.00</rpm>
</extensions>
</trkpt>
<trkpt lat="31.151000977" lon="34.804294586">
<ele>336.679688</ele>
<time>2013-11-19T09:52:19Z</time>
<speed>0.010000</speed>
<extensions>
<speed>0.0</speed>
<temp>0.00</temp>
<bpm>0</bpm>
<rpm>0.00</rpm>
</extensions>
</trkpt>
<trkpt lat="31.151000977" lon="34.804294586">
<ele>336.687500</ele>
<time>2013-11-19T09:52:24Z</time>
<speed>0.010000</speed>
<extensions>
<speed>0.0</speed>
<temp>0.00</temp>
<bpm>0</bpm>
<rpm>0.00</rpm>
</extensions>
</trkpt>
<trkpt lat="31.151002884" lon="34.804294586">
<ele>336.695313</ele>
<time>2013-11-19T09:52:29Z</time>
<extensions>
<speed>0.0</speed>
<temp>0.00</temp>
<bpm>0</bpm>
<rpm>0.00</rpm>
</extensions>
</trkpt>
<trkpt lat="31.151002884" lon="34.804294586">
<ele>336.703125</ele>
<time>2013-11-19T09:52:34Z</time>
<speed>0.010000</speed>
<extensions>
<speed>0.0</speed>
<temp>0.00</temp>
<bpm>0</bpm>
<rpm>0.00</rpm>
</extensions>
</trkpt>
<trkpt lat="31.151002884" lon="34.804294586">
<ele>336.703125</ele>
<time>2013-11-19T09:52:39Z</time>
<extensions>
<speed>0.0</speed>
<temp>0.00</temp>
<bpm>0</bpm>
<rpm>0.00</rpm>
</extensions>
</trkpt>
<trkpt lat="31.151002884" lon="34.804294586">
<ele>336.703125</ele>
<time>2013-11-19T09:52:44Z</time>
<extensions>
<speed>0.0</speed>
<temp>0.00</temp>
<bpm>0</bpm>
<rpm>0.00</rpm>
</extensions>
</trkpt>
<trkpt lat="31.151002884" lon="34.804294586">
<ele>336.703125</ele>
<time>2013-11-19T09:52:49Z</time>
<extensions>
<speed>0.0</speed>
<temp>0.00</temp>
<bpm>0</bpm>
<rpm>0.00</rpm>
</extensions>
</trkpt>
<trkpt lat="31.151002884" lon="34.804294586">
<ele>336.703125</ele>
<time>2013-11-19T09:52:54Z</time>
<extensions>
<speed>0.0</speed>
<temp>0.00</temp>
<bpm>0</bpm>
<rpm>0.00</rpm>
</extensions>
</trkpt>
<trkpt lat="31.151002884" lon="34.804294586">
<ele>336.703125</ele>
<time>2013-11-19T09:52:59Z</time>
<extensions>
<speed>0.0</speed>
<temp>0.00</temp>
<bpm>0</bpm>
<rpm>0.00</rpm>
</extensions>
</trkpt>
<trkpt lat="31.151004791" lon="34.804294586">
<ele>336.703125</ele>
<time>2013-11-19T09:53:04Z</time>
<speed>0.010000</speed>
<extensions>
<speed>0.0</speed>
<temp>0.00</temp>
<bpm>0</bpm>
<rpm>0.00</rpm>
</extensions>
</trkpt>
<trkpt lat="31.151004791" lon="34.804294586">
<ele>336.703125</ele>
<time>2013-11-19T09:53:09Z</time>
<extensions>
<speed>0.0</speed>
<temp>0.00</temp>
<bpm>0</bpm>
<rpm>0.00</rpm>
</extensions>
</trkpt>
<trkpt lat="31.151004791" lon="34.804294586">
<ele>336.710938</ele>
<time>2013-11-19T09:53:14Z</time>
<speed>0.010000</speed>
<extensions>
<speed>0.0</speed>
<temp>0.00</temp>
<bpm>0</bpm>
<rpm>0.00</rpm>
</extensions>
</trkpt>
<trkpt lat="31.151004791" lon="34.804294586">
<ele>336.703125</ele>
<time>2013-11-19T09:53:19Z</time>
<extensions>
<speed>0.0</speed>
<temp>0.00</temp>
<bpm>0</bpm>
<rpm>0.00</rpm>
</extensions>
</trkpt>
<trkpt lat="31.151004791" lon="34.804294586">
<ele>336.703125</ele>
<time>2013-11-19T09:53:24Z</time>
<extensions>
<speed>0.0</speed>
<temp>0.00</temp>
<bpm>0</bpm>
<rpm>0.00</rpm>
</extensions>
</trkpt>
<trkpt lat="31.151004791" lon="34.804294586">
<ele>336.703125</ele>
<time>2013-11-19T09:53:29Z</time>
<extensions>
<speed>0.0</speed>
<temp>0.00</temp>
<bpm>0</bpm>
<rpm>0.00</rpm>
</extensions>
</trkpt>
<trkpt lat="31.151004791" lon="34.804294586">
<ele>336.703125</ele>
<time>2013-11-19T09:53:34Z</time>
<speed>0.010000</speed>
<extensions>
<speed>0.0</speed>
<temp>0.00</temp>
<bpm>0</bpm>
<rpm>0.00</rpm>
</extensions>
</trkpt>
<trkpt lat="31.151004791" lon="34.804294586">
<ele>336.703125</ele>
<time>2013-11-19T09:53:39Z</time>
<speed>0.010000</speed>
<extensions>
<speed>0.0</speed>
<temp>0.00</temp>
<bpm>0</bpm>
<rpm>0.00</rpm>
</extensions>
</trkpt>
<trkpt lat="31.151004791" lon="34.804294586">
<ele>336.718750</ele>
<time>2013-11-19T09:53:44Z</time>
<extensions>
<speed>0.0</speed>
<temp>0.00</temp>
<bpm>0</bpm>
<rpm>0.00</rpm>
</extensions>
</trkpt>
<trkpt lat="31.151004791" lon="34.804294586">
<ele>336.726563</ele>
<time>2013-11-19T09:53:49Z</time>
<speed>0.020000</speed>
<extensions>
<speed>0.0</speed>
<temp>0.00</temp>
<bpm>0</bpm>
<rpm>0.00</rpm>
</extensions>
</trkpt>
<trkpt lat="31.151004791" lon="34.804294586">
<ele>336.718750</ele>
<time>2013-11-19T09:53:54Z</time>
<speed>0.010000</speed>
<extensions>
<speed>0.0</speed>
<temp>0.00</temp>
<bpm>0</bpm>
<rpm>0.00</rpm>
</extensions>
</trkpt>
<trkpt lat="31.151006699" lon="34.804294586">
<ele>336.718750</ele>
<time>2013-11-19T09:53:59Z</time>
<speed>0.010000</speed>
<extensions>
<speed>0.0</speed>
<temp>0.00</temp>
<bpm>0</bpm>
<rpm>0.00</rpm>
</extensions>
</trkpt>
<trkpt lat="31.151006699" lon="34.804294586">
<ele>336.710938</ele>
<time>2013-11-19T09:54:04Z</time>
<speed>0.010000</speed>
<extensions>
<speed>0.0</speed>
<temp>0.00</temp>
<bpm>0</bpm>
<rpm>0.00</rpm>
</extensions>
</trkpt>
<trkpt lat="31.151006699" lon="34.804294586">
<ele>336.703125</ele>
<time>2013-11-19T09:54:09Z</time>
<speed>0.030000</speed>
<extensions>
<speed>0.0</speed>
<temp>0.00</temp>
<bpm>0</bpm>
<rpm>0.00</rpm>
</extensions>
</trkpt>
<trkpt lat="31.151006699" lon="34.804294586">
<ele>336.703125</ele>
<time>2013-11-19T09:54:14Z</time>
<extensions>
<speed>0.0</speed>
<temp>0.00</temp>
<bpm>0</bpm>
<rpm>0.00</rpm>
</extensions>
</trkpt>
<trkpt lat="31.151006699" lon="34.804294586">
<ele>336.710938</ele>
<time>2013-11-19T09:54:19Z</time>
<extensions>
<speed>0.0</speed>
<temp>0.00</temp>
<bpm>0</bpm>
<rpm>0.00</rpm>
</extensions>
</trkpt>
<trkpt lat="31.151006699" lon="34.804294586">
<ele>336.710938</ele>
<time>2013-11-19T09:54:24Z</time>
<speed>0.010000</speed>
<extensions>
<speed>0.0</speed>
<temp>0.00</temp>
<bpm>0</bpm>
<rpm>0.00</rpm>
</extensions>
</trkpt>
<trkpt lat="31.151006699" lon="34.804294586">
<ele>336.718750</ele>
<time>2013-11-19T09:54:29Z</time>
<extensions>
<speed>0.0</speed>
<temp>0.00</temp>
<bpm>0</bpm>
<rpm>0.00</rpm>
</extensions>
</trkpt>
<trkpt lat="31.151006699" lon="34.804294586">
<ele>336.726563</ele>
<time>2013-11-19T09:54:34Z</time>
<extensions>
<speed>0.0</speed>
<temp>0.00</temp>
<bpm>0</bpm>
<rpm>0.00</rpm>
</extensions>
</trkpt>
<trkpt lat="31.151006699" lon="34.804294586">
<ele>336.718750</ele>
<time>2013-11-19T09:54:39Z</time>
<extensions>
<speed>0.0</speed>
<temp>0.00</temp>
<bpm>0</bpm>
<rpm>0.00</rpm>
</extensions>
</trkpt>
<trkpt lat="31.151006699" lon="34.804294586">
<ele>336.703125</ele>
<time>2013-11-19T09:54:44Z</time>
<speed>0.020000</speed>
<extensions>
<speed>0.0</speed>
<temp>0.00</temp>
<bpm>0</bpm>
<rpm>0.00</rpm>
</extensions>
</trkpt>
<trkpt lat="31.151006699" lon="34.804294586">
<ele>336.679688</ele>
<time>2013-11-19T09:54:49Z</time>
<extensions>
<speed>0.0</speed>
<temp>0.00</temp>
<bpm>0</bpm>
<rpm>0.00</rpm>
</extensions>
</trkpt>
<trkpt lat="31.151006699" lon="34.804294586">
<ele>336.664063</ele>
<time>2013-11-19T09:54:54Z</time>
<extensions>
<speed>0.0</speed>
<temp>0.00</temp>
<bpm>0</bpm>
<rpm>0.00</rpm>
</extensions>
</trkpt>
<trkpt lat="31.151006699" lon="34.804294586">
<ele>336.632813</ele>
<time>2013-11-19T09:54:59Z</time>
<speed>0.030000</speed>
<extensions>
<speed>0.0</speed>
<temp>0.00</temp>
<bpm>0</bpm>
<rpm>0.00</rpm>
</extensions>
</trkpt>
<trkpt lat="31.151004791" lon="34.804294586">
<ele>336.578125</ele>
<time>2013-11-19T09:55:04Z</time>
<speed>0.030000</speed>
<extensions>
<speed>0.0</speed>
<temp>0.00</temp>
<bpm>0</bpm>
<rpm>0.00</rpm>
</extensions>
</trkpt>
<trkpt lat="31.151004791" lon="34.804294586">
<ele>336.523438</ele>
<time>2013-11-19T09:55:09Z</time>
<speed>0.010000</speed>
<extensions>
<speed>0.0</speed>
<temp>0.00</temp>
<bpm>0</bpm>
<rpm>0.00</rpm>
</extensions>
</trkpt>
<trkpt lat="31.151002884" lon="34.804294586">
<ele>336.484375</ele>
<time>2013-11-19T09:55:14Z</time>
<speed>0.020000</speed>
<extensions>
<speed>0.0</speed>
<temp>0.00</temp>
<bpm>0</bpm>
<rpm>0.00</rpm>
</extensions>
</trkpt>
<trkpt lat="31.151002884" lon="34.804294586">
<ele>336.437500</ele>
<time>2013-11-19T09:55:19Z</time>
<speed>0.020000</speed>
<extensions>
<speed>0.0</speed>
<temp>0.00</temp>
<bpm>0</bpm>
<rpm>0.00</rpm>
</extensions>
</trkpt>
<trkpt lat="31.151000977" lon="34.804290771">
<ele>336.351563</ele>
<time>2013-11-19T09:55:24Z</time>
<speed>0.020000</speed>
<extensions>
<speed>0.0</speed>
<temp>0.00</temp>
<bpm>0</bpm>
<rpm>0.00</rpm>
</extensions>
</trkpt>
<trkpt lat="31.150997162" lon="34.804290771">
<ele>336.304688</ele>
<time>2013-11-19T09:55:29Z</time>
<speed>0.010000</speed>
<extensions>
<speed>0.0</speed>
<temp>0.00</temp>
<bpm>0</bpm>
<rpm>0.00</rpm>
</extensions>
</trkpt>
<trkpt lat="31.150997162" lon="34.804290771">
<ele>336.257813</ele>
<time>2013-11-19T09:55:34Z</time>
<speed>0.010000</speed>
<extensions>
<speed>0.0</speed>
<temp>0.00</temp>
<bpm>0</bpm>
<rpm>0.00</rpm>
</extensions>
</trkpt>
<trkpt lat="31.150995255" lon="34.804290771">
<ele>336.210938</ele>
<time>2013-11-19T09:55:39Z</time>
<speed>0.010000</speed>
<extensions>
<speed>0.0</speed>
<temp>0.00</temp>
<bpm>0</bpm>
<rpm>0.00</rpm>
</extensions>
</trkpt>
<trkpt lat="31.150995255" lon="34.804290771">
<ele>336.179688</ele>
<time>2013-11-19T09:55:44Z</time>
<extensions>
<speed>0.0</speed>
<temp>0.00</temp>
<bpm>0</bpm>
<rpm>0.00</rpm>
</extensions>
</trkpt>
<trkpt lat="31.150993347" lon="34.804290771">
<ele>336.140625</ele>
<time>2013-11-19T09:55:49Z</time>
<extensions>
<speed>0.0</speed>
<temp>0.00</temp>
<bpm>0</bpm>
<rpm>0.00</rpm>
</extensions>
</trkpt>
<trkpt lat="31.150993347" lon="34.804290771">
<ele>336.093750</ele>
<time>2013-11-19T09:55:54Z</time>
<speed>0.010000</speed>
<extensions>
<speed>0.0</speed>
<temp>0.00</temp>
<bpm>0</bpm>
<rpm>0.00</rpm>
</extensions>
</trkpt>
<trkpt lat="31.150991440" lon="34.804290771">
<ele>336.046875</ele>
<time>2013-11-19T09:55:59Z</time>
<speed>0.010000</speed>
<extensions>
<speed>0.0</speed>
<temp>0.00</temp>
<bpm>0</bpm>
<rpm>0.00</rpm>
</extensions>
</trkpt>
<trkpt lat="31.150991440" lon="34.804290771">
<ele>336.023438</ele>
<time>2013-11-19T09:56:04Z</time>
<speed>0.010000</speed>
<extensions>
<speed>0.0</speed>
<temp>0.00</temp>
<bpm>0</bpm>
<rpm>0.00</rpm>
</extensions>
</trkpt>
<trkpt lat="31.150991440" lon="34.804290771">
<ele>336.000000</ele>
<time>2013-11-19T09:56:09Z</time>
<speed>0.010000</speed>
<extensions>
<speed>0.0</speed>
<temp>0.00</temp>
<bpm>0</bpm>
<rpm>0.00</rpm>
</extensions>
</trkpt>
<trkpt lat="31.150991440" lon="34.804290771">
<ele>335.984375</ele>
<time>2013-11-19T09:56:14Z</time>
<speed>0.010000</speed>
<extensions>
<speed>0.0</speed>
<temp>0.00</temp>
<bpm>0</bpm>
<rpm>0.00</rpm>
</extensions>
</trkpt>
<trkpt lat="31.150991440" lon="34.804290771">
<ele>335.976563</ele>
<time>2013-11-19T09:56:19Z</time>
<extensions>
<speed>0.0</speed>
<temp>0.00</temp>
<bpm>0</bpm>
<rpm>0.00</rpm>
</extensions>
</trkpt>
<trkpt lat="31.150991440" lon="34.804290771">
<ele>335.960938</ele>
<time>2013-11-19T09:56:24Z</time>
<speed>0.010000</speed>
<extensions>
<speed>0.0</speed>
<temp>0.00</temp>
<bpm>0</bpm>
<rpm>0.00</rpm>
</extensions>
</trkpt>
<trkpt lat="31.150991440" lon="34.804290771">
<ele>335.921875</ele>
<time>2013-11-19T09:56:29Z</time>
<extensions>
<speed>0.0</speed>
<temp>0.00</temp>
<bpm>0</bpm>
<rpm>0.00</rpm>
</extensions>
</trkpt>
<trkpt lat="31.150991440" lon="34.804290771">
<ele>335.906250</ele>
<time>2013-11-19T09:56:34Z</time>
<extensions>
<speed>0.0</speed>
<temp>0.00</temp>
<bpm>0</bpm>
<rpm>0.00</rpm>
</extensions>
</trkpt>
<trkpt lat="31.150989532" lon="34.804290771">
<ele>335.882813</ele>
<time>2013-11-19T09:56:39Z</time>
<extensions>
<speed>0.0</speed>
<temp>0.00</temp>
<bpm>0</bpm>
<rpm>0.00</rpm>
</extensions>
</trkpt>
<trkpt lat="31.150991440" lon="34.804290771">
<ele>335.890625</ele>
<time>2013-11-19T09:56:44Z</time>
<extensions>
<speed>0.0</speed>
<temp>0.00</temp>
<bpm>0</bpm>
<rpm>0.00</rpm>
</extensions>
</trkpt>
<trkpt lat="31.150991440" lon="34.804290771">
<ele>335.867188</ele>
<time>2013-11-19T09:56:49Z</time>
<extensions>
<speed>0.0</speed>
<temp>0.00</temp>
<bpm>0</bpm>
<rpm>0.00</rpm>
</extensions>
</trkpt>
<trkpt lat="31.150991440" lon="34.804290771">
<ele>335.882813</ele>
<time>2013-11-19T09:56:54Z</time>
<extensions>
<speed>0.0</speed>
<temp>0.00</temp>
<bpm>0</bpm>
<rpm>0.00</rpm>
</extensions>
</trkpt>
<trkpt lat="31.150991440" lon="34.804290771">
<ele>335.898438</ele>
<time>2013-11-19T09:56:59Z</time>
<extensions>
<speed>0.0</speed>
<temp>0.00</temp>
<bpm>0</bpm>
<rpm>0.00</rpm>
</extensions>
</trkpt>
<trkpt lat="31.150991440" lon="34.804290771">
<ele>335.906250</ele>
<time>2013-11-19T09:57:04Z</time>
<speed>0.010000</speed>
<extensions>
<speed>0.0</speed>
<temp>0.00</temp>
<bpm>0</bpm>
<rpm>0.00</rpm>
</extensions>
</trkpt>
<trkpt lat="31.150991440" lon="34.804290771">
<ele>335.921875</ele>
<time>2013-11-19T09:57:09Z</time>
<speed>0.010000</speed>
<extensions>
<speed>0.0</speed>
<temp>0.00</temp>
<bpm>0</bpm>
<rpm>0.00</rpm>
</extensions>
</trkpt>
<trkpt lat="31.150991440" lon="34.804290771">
<ele>335.929688</ele>
<time>2013-11-19T09:57:14Z</time>
<extensions>
<speed>0.0</speed>
<temp>0.00</temp>
<bpm>0</bpm>
<rpm>0.00</rpm>
</extensions>
</trkpt>
<trkpt lat="31.150991440" lon="34.804290771">
<ele>335.929688</ele>
<time>2013-11-19T09:57:19Z</time>
<extensions>
<speed>0.0</speed>
<temp>0.00</temp>
<bpm>0</bpm>
<rpm>0.00</rpm>
</extensions>
</trkpt>
<trkpt lat="31.150991440" lon="34.804290771">
<ele>335.945313</ele>
<time>2013-11-19T09:57:24Z</time>
<extensions>
<speed>0.0</speed>
<temp>0.00</temp>
<bpm>0</bpm>
<rpm>0.00</rpm>
</extensions>
</trkpt>
<trkpt lat="31.150991440" lon="34.804290771">
<ele>335.968750</ele>
<time>2013-11-19T09:57:29Z</time>
<extensions>
<speed>0.0</speed>
<temp>0.00</temp>
<bpm>0</bpm>
<rpm>0.00</rpm>
</extensions>
</trkpt>
<trkpt lat="31.150991440" lon="34.804290771">
<ele>335.984375</ele>
<time>2013-11-19T09:57:34Z</time>
<extensions>
<speed>0.0</speed>
<temp>0.00</temp>
<bpm>0</bpm>
<rpm>0.00</rpm>
</extensions>
</trkpt>
<trkpt lat="31.150989532" lon="34.804290771">
<ele>335.984375</ele>
<time>2013-11-19T09:57:39Z</time>
<speed>0.010000</speed>
<extensions>
<speed>0.0</speed>
<temp>0.00</temp>
<bpm>0</bpm>
<rpm>0.00</rpm>
</extensions>
</trkpt>
<trkpt lat="31.150989532" lon="34.804290771">
<ele>335.992188</ele>
<time>2013-11-19T09:57:44Z</time>
<extensions>
<speed>0.0</speed>
<temp>0.00</temp>
<bpm>0</bpm>
<rpm>0.00</rpm>
</extensions>
</trkpt>
<trkpt lat="31.150989532" lon="34.804290771">
<ele>336.007813</ele>
<time>2013-11-19T09:57:49Z</time>
<speed>0.010000</speed>
<extensions>
<speed>0.0</speed>
<temp>0.00</temp>
<bpm>0</bpm>
<rpm>0.00</rpm>
</extensions>
</trkpt>
<trkpt lat="31.150989532" lon="34.804290771">
<ele>336.023438</ele>
<time>2013-11-19T09:57:54Z</time>
<extensions>
<speed>0.0</speed>
<temp>0.00</temp>
<bpm>0</bpm>
<rpm>0.00</rpm>
</extensions>
</trkpt>
<trkpt lat="31.150989532" lon="34.804290771">
<ele>336.039063</ele>
<time>2013-11-19T09:57:59Z</time>
<extensions>
<speed>0.0</speed>
<temp>0.00</temp>
<bpm>0</bpm>
<rpm>0.00</rpm>
</extensions>
</trkpt>
<trkpt lat="31.150989532" lon="34.804290771">
<ele>336.046875</ele>
<time>2013-11-19T09:58:04Z</time>
<extensions>
<speed>0.0</speed>
<temp>0.00</temp>
<bpm>0</bpm>
<rpm>0.00</rpm>
</extensions>
</trkpt>
<trkpt lat="31.150989532" lon="34.804290771">
<ele>336.054688</ele>
<time>2013-11-19T09:58:09Z</time>
<extensions>
<speed>0.0</speed>
<temp>0.00</temp>
<bpm>0</bpm>
<rpm>0.00</rpm>
</extensions>
</trkpt>
<trkpt lat="31.150989532" lon="34.804290771">
<ele>336.062500</ele>
<time>2013-11-19T09:58:14Z</time>
<speed>0.010000</speed>
<extensions>
<speed>0.0</speed>
<temp>0.00</temp>
<bpm>0</bpm>
<rpm>0.00</rpm>
</extensions>
</trkpt>
<trkpt lat="31.150989532" lon="34.804290771">
<ele>336.078125</ele>
<time>2013-11-19T09:58:19Z</time>
<speed>0.010000</speed>
<extensions>
<speed>0.0</speed>
<temp>0.00</temp>
<bpm>0</bpm>
<rpm>0.00</rpm>
</extensions>
</trkpt>
<trkpt lat="31.150989532" lon="34.804302216">
<ele>336.070313</ele>
<time>2013-11-19T09:58:24Z</time>
<speed>1.310000</speed>
<extensions>
<speed>1.3</speed>
<temp>0.00</temp>
<bpm>0</bpm>
<rpm>0.00</rpm>
</extensions>
</trkpt>
<trkpt lat="31.151008606" lon="34.804424286">
<ele>336.187500</ele>
<time>2013-11-19T09:58:29Z</time>
<speed>2.810000</speed>
<extensions>
<speed>2.8</speed>
<temp>0.00</temp>
<bpm>0</bpm>
<rpm>0.00</rpm>
</extensions>
</trkpt>
<trkpt lat="31.151020050" lon="34.804580688">
<ele>335.554688</ele>
<time>2013-11-19T09:58:34Z</time>
<speed>3.030000</speed>
<extensions>
<speed>3.0</speed>
<temp>0.00</temp>
<bpm>0</bpm>
<rpm>0.00</rpm>
</extensions>
</trkpt>
<trkpt lat="31.151079178" lon="34.804752350">
<ele>334.640625</ele>
<time>2013-11-19T09:58:39Z</time>
<speed>3.740000</speed>
<extensions>
<speed>3.7</speed>
<temp>0.00</temp>
<bpm>0</bpm>
<rpm>0.00</rpm>
</extensions>
</trkpt>
<trkpt lat="31.151130676" lon="34.804924011">
<ele>333.867188</ele>
<time>2013-11-19T09:58:44Z</time>
<speed>2.550000</speed>
<extensions>
<speed>2.6</speed>
<temp>0.00</temp>
<bpm>0</bpm>
<rpm>0.00</rpm>
</extensions>
</trkpt>
<trkpt lat="31.151088715" lon="34.805034637">
<ele>333.406250</ele>
<time>2013-11-19T09:58:49Z</time>
<speed>2.410000</speed>
<extensions>
<speed>2.4</speed>
<temp>0.00</temp>
<bpm>0</bpm>
<rpm>0.00</rpm>
</extensions>
</trkpt>
<trkpt lat="31.150945663" lon="34.805068970">
<ele>330.625000</ele>
<time>2013-11-19T09:58:54Z</time>
<speed>3.930000</speed>
<extensions>
<speed>3.9</speed>
<temp>0.00</temp>
<bpm>0</bpm>
<rpm>0.00</rpm>
</extensions>
</trkpt>
<trkpt lat="31.150722504" lon="34.805042267">
<ele>329.875000</ele>
<time>2013-11-19T09:58:59Z</time>
<speed>5.440000</speed>
<extensions>
<speed>5.4</speed>
<temp>0.00</temp>
<bpm>0</bpm>
<rpm>0.00</rpm>
</extensions>
</trkpt>
<trkpt lat="31.150447845" lon="34.805004120">
<ele>328.125000</ele>
<time>2013-11-19T09:59:04Z</time>
<speed>6.460000</speed>
<extensions>
<speed>6.5</speed>
<temp>0.00</temp>
<bpm>0</bpm>
<rpm>0.00</rpm>
</extensions>
</trkpt>
<trkpt lat="31.150133133" lon="34.804962158">
<ele>325.968750</ele>
<time>2013-11-19T09:59:09Z</time>
<speed>7.330000</speed>
<extensions>
<speed>7.3</speed>
<temp>0.00</temp>
<bpm>0</bpm>
<rpm>0.00</rpm>
</extensions>
</trkpt>
<trkpt lat="31.149808884" lon="34.804920197">
<ele>324.914063</ele>
<time>2013-11-19T09:59:14Z</time>
<speed>6.840000</speed>
<extensions>
<speed>6.8</speed>
<temp>0.00</temp>
<bpm>0</bpm>
<rpm>0.00</rpm>
</extensions>
</trkpt>
<trkpt lat="31.149517059" lon="34.804882050">
<ele>324.671875</ele>
<time>2013-11-19T09:59:19Z</time>
<speed>5.940000</speed>
<extensions>
<speed>5.9</speed>
<temp>0.00</temp>
<bpm>0</bpm>
<rpm>0.00</rpm>
</extensions>
</trkpt>
<trkpt lat="31.149244308" lon="34.804855347">
<ele>324.398438</ele>
<time>2013-11-19T09:59:24Z</time>
<speed>5.860000</speed>
<extensions>
<speed>5.9</speed>
<temp>0.00</temp>
<bpm>0</bpm>
<rpm>0.00</rpm>
</extensions>
</trkpt>
<trkpt lat="31.148983002" lon="34.804828644">
<ele>324.773438</ele>
<time>2013-11-19T09:59:29Z</time>
<speed>5.700000</speed>
<extensions>
<speed>5.7</speed>
<temp>0.00</temp>
<bpm>0</bpm>
<rpm>0.00</rpm>
</extensions>
</trkpt>
<trkpt lat="31.148725510" lon="34.804790497">
<ele>324.554688</ele>
<time>2013-11-19T09:59:34Z</time>
<speed>5.650000</speed>
<extensions>
<speed>5.7</speed>
<temp>0.00</temp>
<bpm>0</bpm>
<rpm>0.00</rpm>
</extensions>
</trkpt>
<trkpt lat="31.148450851" lon="34.804759979">
<ele>323.500000</ele>
<time>2013-11-19T09:59:39Z</time>
<speed>6.470000</speed>
<extensions>
<speed>6.5</speed>
<temp>0.00</temp>
<bpm>0</bpm>
<rpm>0.00</rpm>
</extensions>
</trkpt>
<trkpt lat="31.148122787" lon="34.804740906">
<ele>321.375000</ele>
<time>2013-11-19T09:59:44Z</time>
<speed>7.850000</speed>
<extensions>
<speed>7.9</speed>
<temp>0.00</temp>
<bpm>0</bpm>
<rpm>0.00</rpm>
</extensions>
</trkpt>
<trkpt lat="31.147752762" lon="34.804733276">
<ele>319.531250</ele>
<time>2013-11-19T09:59:49Z</time>
<speed>8.190000</speed>
<extensions>
<speed>8.2</speed>
<temp>0.00</temp>
<bpm>0</bpm>
<rpm>0.00</rpm>
</extensions>
</trkpt>
<trkpt lat="31.147430420" lon="34.804714203">
<ele>319.609375</ele>
<time>2013-11-19T09:59:54Z</time>
<speed>6.230000</speed>
<extensions>
<speed>6.2</speed>
<temp>0.00</temp>
<bpm>0</bpm>
<rpm>0.00</rpm>
</extensions>
</trkpt>
<trkpt lat="31.147163391" lon="34.804698944">
<ele>318.976563</ele>
<time>2013-11-19T09:59:59Z</time>
<speed>6.070000</speed>
<extensions>
<speed>6.1</speed>
<temp>0.00</temp>
<bpm>0</bpm>
<rpm>0.00</rpm>
</extensions>
</trkpt>
<trkpt lat="31.146860123" lon="34.804698944">
<ele>316.289063</ele>
<time>2013-11-19T10:00:04Z</time>
<speed>7.330000</speed>
<extensions>
<speed>7.3</speed>
<temp>0.00</temp>
<bpm>0</bpm>
<rpm>0.00</rpm>
</extensions>
</trkpt>
<trkpt lat="31.146503448" lon="34.804683685">
<ele>314.031250</ele>
<time>2013-11-19T10:00:09Z</time>
<speed>8.090000</speed>
<extensions>
<speed>8.1</speed>
<temp>0.00</temp>
<bpm>0</bpm>
<rpm>0.00</rpm>
</extensions>
</trkpt>
<trkpt lat="31.146163940" lon="34.804466248">
<ele>309.984375</ele>
<time>2013-11-19T10:00:14Z</time>
<speed>9.450000</speed>
<extensions>
<speed>9.5</speed>
<temp>0.00</temp>
<bpm>0</bpm>
<rpm>0.00</rpm>
</extensions>
</trkpt>
<trkpt lat="31.145841599" lon="34.804115295">
<ele>306.929688</ele>
<time>2013-11-19T10:00:19Z</time>
<speed>8.380000</speed>
<extensions>
<speed>8.4</speed>
<temp>0.00</temp>
<bpm>0</bpm>
<rpm>0.00</rpm>
</extensions>
</trkpt>
<trkpt lat="31.145622253" lon="34.803985596">
<ele>307.445313</ele>
<time>2013-11-19T10:00:24Z</time>
<speed>3.760000</speed>
<extensions>
<speed>3.8</speed>
<temp>0.00</temp>
<bpm>0</bpm>
<rpm>0.00</rpm>
</extensions>
</trkpt>
<trkpt lat="31.145647049" lon="34.803779602">
<ele>306.843750</ele>
<time>2013-11-19T10:00:29Z</time>
<speed>3.640000</speed>
<extensions>
<speed>3.6</speed>
<temp>0.00</temp>
<bpm>0</bpm>
<rpm>0.00</rpm>
</extensions>
</trkpt>
<trkpt lat="31.145656586" lon="34.803600311">
<ele>306.820313</ele>
<time>2013-11-19T10:00:34Z</time>
<speed>2.640000</speed>
<extensions>
<speed>2.6</speed>
<temp>0.00</temp>
<bpm>0</bpm>
<rpm>0.00</rpm>
</extensions>
</trkpt>
<trkpt lat="31.145662308" lon="34.803497314">
<ele>306.617188</ele>
<time>2013-11-19T10:00:39Z</time>
<speed>1.690000</speed>
<extensions>
<speed>1.7</speed>
<temp>0.00</temp>
<bpm>0</bpm>
<rpm>0.00</rpm>
</extensions>
</trkpt>
<trkpt lat="31.145669937" lon="34.803413391">
<ele>306.406250</ele>
<time>2013-11-19T10:00:44Z</time>
<speed>1.670000</speed>
<extensions>
<speed>1.7</speed>
<temp>0.00</temp>
<bpm>0</bpm>
<rpm>0.00</rpm>
</extensions>
</trkpt>
<trkpt lat="31.145647049" lon="34.803337097">
<ele>306.734375</ele>
<time>2013-11-19T10:00:49Z</time>
<speed>1.730000</speed>
<extensions>
<speed>1.7</speed>
<temp>0.00</temp>
<bpm>0</bpm>
<rpm>0.00</rpm>
</extensions>
</trkpt>
<trkpt lat="31.145626068" lon="34.803394318">
<ele>306.617188</ele>
<time>2013-11-19T10:00:54Z</time>
<speed>1.910000</speed>
<extensions>
<speed>1.9</speed>
<temp>0.00</temp>
<bpm>0</bpm>
<rpm>0.00</rpm>
</extensions>
</trkpt>
<trkpt lat="31.145627975" lon="34.803565979">
<ele>307.578125</ele>
<time>2013-11-19T10:00:59Z</time>
<speed>4.030000</speed>
<extensions>
<speed>4.0</speed>
<temp>0.00</temp>
<bpm>0</bpm>
<rpm>0.00</rpm>
</extensions>
</trkpt>
<trkpt lat="31.145624161" lon="34.803794861">
<ele>307.695313</ele>
<time>2013-11-19T10:01:04Z</time>
<speed>4.310000</speed>
<extensions>
<speed>4.3</speed>
<temp>0.00</temp>
<bpm>0</bpm>
<rpm>0.00</rpm>
</extensions>
</trkpt>
<trkpt lat="31.145608902" lon="34.803997040">
<ele>308.015625</ele>
<time>2013-11-19T10:01:09Z</time>
<speed>3.470000</speed>
<extensions>
<speed>3.5</speed>
<temp>0.00</temp>
<bpm>0</bpm>
<rpm>0.00</rpm>
</extensions>
</trkpt>
<trkpt lat="31.145444870" lon="34.804065704">
<ele>308.093750</ele>
<time>2013-11-19T10:01:14Z</time>
<speed>3.870000</speed>
<extensions>
<speed>3.9</speed>
<temp>0.00</temp>
<bpm>0</bpm>
<rpm>0.00</rpm>
</extensions>
</trkpt>
<trkpt lat="31.145330429" lon="34.804210663">
<ele>308.343750</ele>
<time>2013-11-19T10:01:19Z</time>
<speed>4.180000</speed>
<extensions>
<speed>4.2</speed>
<temp>0.00</temp>
<bpm>0</bpm>
<rpm>0.00</rpm>
</extensions>
</trkpt>
<trkpt lat="31.145265579" lon="34.804374695">
<ele>309.273438</ele>
<time>2013-11-19T10:01:24Z</time>
<speed>3.140000</speed>
<extensions>
<speed>3.1</speed>
<temp>0.00</temp>
<bpm>0</bpm>
<rpm>0.00</rpm>
</extensions>
</trkpt>
<trkpt lat="31.145208359" lon="34.804512024">
<ele>311.632813</ele>
<time>2013-11-19T10:01:29Z</time>
<speed>3.350000</speed>
<extensions>
<speed>3.4</speed>
<temp>0.00</temp>
<bpm>0</bpm>
<rpm>0.00</rpm>
</extensions>
</trkpt>
<trkpt lat="31.145132065" lon="34.804660797">
<ele>311.695313</ele>
<time>2013-11-19T10:01:34Z</time>
<speed>3.250000</speed>
<extensions>
<speed>3.2</speed>
<temp>0.00</temp>
<bpm>0</bpm>
<rpm>0.00</rpm>
</extensions>
</trkpt>
<trkpt lat="31.144981384" lon="34.804737091">
<ele>311.078125</ele>
<time>2013-11-19T10:01:39Z</time>
<speed>3.450000</speed>
<extensions>
<speed>3.5</speed>
<temp>0.00</temp>
<bpm>0</bpm>
<rpm>0.00</rpm>
</extensions>
</trkpt>
<trkpt lat="31.144821167" lon="34.804752350">
<ele>310.726563</ele>
<time>2013-11-19T10:01:44Z</time>
<speed>3.540000</speed>
<extensions>
<speed>3.5</speed>
<temp>0.00</temp>
<bpm>0</bpm>
<rpm>0.00</rpm>
</extensions>
</trkpt>
<trkpt lat="31.144645691" lon="34.804740906">
<ele>310.820313</ele>
<time>2013-11-19T10:01:49Z</time>
<speed>3.600000</speed>
<extensions>
<speed>3.6</speed>
<temp>0.00</temp>
<bpm>0</bpm>
<rpm>0.00</rpm>
</extensions>
</trkpt>
<trkpt lat="31.144493103" lon="34.804733276">
<ele>310.453125</ele>
<time>2013-11-19T10:01:54Z</time>
<speed>2.760000</speed>
<extensions>
<speed>2.8</speed>
<temp>0.00</temp>
<bpm>0</bpm>
<rpm>0.00</rpm>
</extensions>
</trkpt>
<trkpt lat="31.144386292" lon="34.804744720">
<ele>310.304688</ele>
<time>2013-11-19T10:01:59Z</time>
<speed>2.450000</speed>
<extensions>
<speed>2.4</speed>
<temp>0.00</temp>
<bpm>0</bpm>
<rpm>0.00</rpm>
</extensions>
</trkpt>
<trkpt lat="31.144277573" lon="34.804737091">
<ele>309.695313</ele>
<time>2013-11-19T10:02:04Z</time>
<speed>2.790000</speed>
<extensions>
<speed>2.8</speed>
<temp>0.00</temp>
<bpm>0</bpm>
<rpm>0.00</rpm>
</extensions>
</trkpt>
<trkpt lat="31.144145966" lon="34.804729462">
<ele>309.617188</ele>
<time>2013-11-19T10:02:09Z</time>
<speed>2.780000</speed>
<extensions>
<speed>2.8</speed>
<temp>0.00</temp>
<bpm>0</bpm>
<rpm>0.00</rpm>
</extensions>
</trkpt>
<trkpt lat="31.144012451" lon="34.804729462">
<ele>309.960938</ele>
<time>2013-11-19T10:02:14Z</time>
<speed>2.760000</speed>
<extensions>
<speed>2.8</speed>
<temp>0.00</temp>
<bpm>0</bpm>
<rpm>0.00</rpm>
</extensions>
</trkpt>
<trkpt lat="31.143896103" lon="34.804733276">
<ele>310.203125</ele>
<time>2013-11-19T10:02:19Z</time>
<speed>2.870000</speed>
<extensions>
<speed>2.9</speed>
<temp>0.00</temp>
<bpm>0</bpm>
<rpm>0.00</rpm>
</extensions>
</trkpt>
<trkpt lat="31.143762589" lon="34.804729462">
<ele>310.539063</ele>
<time>2013-11-19T10:02:24Z</time>
<speed>2.830000</speed>
<extensions>
<speed>2.8</speed>
<temp>0.00</temp>
<bpm>0</bpm>
<rpm>0.00</rpm>
</extensions>
</trkpt>
<trkpt lat="31.143636703" lon="34.804725647">
<ele>310.882813</ele>
<time>2013-11-19T10:02:29Z</time>
<speed>2.790000</speed>
<extensions>
<speed>2.8</speed>
<temp>0.00</temp>
<bpm>0</bpm>
<rpm>0.00</rpm>
</extensions>
</trkpt>
<trkpt lat="31.143499374" lon="34.804706573">
<ele>311.320313</ele>
<time>2013-11-19T10:02:34Z</time>
<speed>2.850000</speed>
<extensions>
<speed>2.9</speed>
<temp>0.00</temp>
<bpm>0</bpm>
<rpm>0.00</rpm>
</extensions>
</trkpt>
<trkpt lat="31.143363953" lon="34.804683685">
<ele>312.054688</ele>
<time>2013-11-19T10:02:39Z</time>
<speed>2.820000</speed>
<extensions>
<speed>2.8</speed>
<temp>0.00</temp>
<bpm>0</bpm>
<rpm>0.00</rpm>
</extensions>
</trkpt>
<trkpt lat="31.143232346" lon="34.804660797">
<ele>312.656250</ele>
<time>2013-11-19T10:02:44Z</time>
<speed>2.780000</speed>
<extensions>
<speed>2.8</speed>
<temp>0.00</temp>
<bpm>0</bpm>
<rpm>0.00</rpm>
</extensions>
</trkpt>
<trkpt lat="31.143102646" lon="34.804641724">
<ele>312.960938</ele>
<time>2013-11-19T10:02:49Z</time>
<speed>2.840000</speed>
<extensions>
<speed>2.8</speed>
<temp>0.00</temp>
<bpm>0</bpm>
<rpm>0.00</rpm>
</extensions>
</trkpt>
<trkpt lat="31.142971039" lon="34.804618835">
<ele>313.507813</ele>
<time>2013-11-19T10:02:54Z</time>
<speed>2.960000</speed>
<extensions>
<speed>3.0</speed>
<temp>0.00</temp>
<bpm>0</bpm>
<rpm>0.00</rpm>
</extensions>
</trkpt>
<trkpt lat="31.142843246" lon="34.804588318">
<ele>314.335938</ele>
<time>2013-11-19T10:02:59Z</time>
<speed>2.850000</speed>
<extensions>
<speed>2.9</speed>
<temp>0.00</temp>
<bpm>0</bpm>
<rpm>0.00</rpm>
</extensions>
</trkpt>
<trkpt lat="31.142711639" lon="34.804565430">
<ele>314.945313</ele>
<time>2013-11-19T10:03:04Z</time>
<speed>2.870000</speed>
<extensions>
<speed>2.9</speed>
<temp>0.00</temp>
<bpm>0</bpm>
<rpm>0.00</rpm>
</extensions>
</trkpt>
<trkpt lat="31.142581940" lon="34.804542542">
<ele>315.382813</ele>
<time>2013-11-19T10:03:09Z</time>
<speed>3.030000</speed>
<extensions>
<speed>3.0</speed>
<temp>0.00</temp>
<bpm>0</bpm>
<rpm>0.00</rpm>
</extensions>
</trkpt>
<trkpt lat="31.142467499" lon="34.804523468">
<ele>315.828125</ele>
<time>2013-11-19T10:03:14Z</time>
<speed>1.690000</speed>
<extensions>
<speed>1.7</speed>
<temp>0.00</temp>
<bpm>0</bpm>
<rpm>0.00</rpm>
</extensions>
</trkpt>
<trkpt lat="31.142457962" lon="34.804523468">
<ele>316.632813</ele>
<time>2013-11-19T10:03:19Z</time>
<speed>0.960000</speed>
<extensions>
<speed>1.0</speed>
<temp>0.00</temp>
<bpm>0</bpm>
<rpm>0.00</rpm>
</extensions>
</trkpt>
<trkpt lat="31.142551422" lon="34.804546356">
<ele>317.984375</ele>
<time>2013-11-19T10:03:24Z</time>
<speed>1.430000</speed>
<extensions>
<speed>1.4</speed>
<temp>0.00</temp>
<bpm>0</bpm>
<rpm>0.00</rpm>
</extensions>
</trkpt>
<trkpt lat="31.142580032" lon="34.804561615">
<ele>319.078125</ele>
<time>2013-11-19T10:03:29Z</time>
<speed>0.540000</speed>
<extensions>
<speed>0.5</speed>
<temp>0.00</temp>
<bpm>0</bpm>
<rpm>0.00</rpm>
</extensions>
</trkpt>
<trkpt lat="31.142587662" lon="34.804565430">
<ele>319.453125</ele>
<time>2013-11-19T10:03:34Z</time>
<extensions>
<speed>0.0</speed>
<temp>0.00</temp>
<bpm>0</bpm>
<rpm>0.00</rpm>
</extensions>
</trkpt>
<trkpt lat="31.142587662" lon="34.804565430">
<ele>319.539063</ele>
<time>2013-11-19T10:03:39Z</time>
<speed>0.010000</speed>
<extensions>
<speed>0.0</speed>
<temp>0.00</temp>
<bpm>0</bpm>
<rpm>0.00</rpm>
</extensions>
</trkpt>
<trkpt lat="31.142587662" lon="34.804565430">
<ele>319.570313</ele>
<time>2013-11-19T10:03:44Z</time>
<extensions>
<speed>0.0</speed>
<temp>0.00</temp>
<bpm>0</bpm>
<rpm>0.00</rpm>
</extensions>
</trkpt>
<trkpt lat="31.142587662" lon="34.804565430">
<ele>319.570313</ele>
<time>2013-11-19T10:03:49Z</time>
<extensions>
<speed>0.0</speed>
<temp>0.00</temp>
<bpm>0</bpm>
<rpm>0.00</rpm>
</extensions>
</trkpt>
<trkpt lat="31.142587662" lon="34.804565430">
<ele>319.554688</ele>
<time>2013-11-19T10:03:54Z</time>
<extensions>
<speed>0.0</speed>
<temp>0.00</temp>
<bpm>0</bpm>
<rpm>0.00</rpm>
</extensions>
</trkpt>
<trkpt lat="31.142587662" lon="34.804565430">
<ele>319.546875</ele>
<time>2013-11-19T10:03:59Z</time>
<speed>0.010000</speed>
<extensions>
<speed>0.0</speed>
<temp>0.00</temp>
<bpm>0</bpm>
<rpm>0.00</rpm>
</extensions>
</trkpt>
<trkpt lat="31.142587662" lon="34.804565430">
<ele>319.554688</ele>
<time>2013-11-19T10:04:04Z</time>
<extensions>
<speed>0.0</speed>
<temp>0.00</temp>
<bpm>0</bpm>
<rpm>0.00</rpm>
</extensions>
</trkpt>
<trkpt lat="31.142587662" lon="34.804565430">
<ele>319.570313</ele>
<time>2013-11-19T10:04:09Z</time>
<speed>0.030000</speed>
<extensions>
<speed>0.0</speed>
<temp>0.00</temp>
<bpm>0</bpm>
<rpm>0.00</rpm>
</extensions>
</trkpt>
<trkpt lat="31.142587662" lon="34.804550171">
<ele>319.531250</ele>
<time>2013-11-19T10:04:14Z</time>
<speed>0.820000</speed>
<extensions>
<speed>0.8</speed>
<temp>0.00</temp>
<bpm>0</bpm>
<rpm>0.00</rpm>
</extensions>
</trkpt>
<trkpt lat="31.142538071" lon="34.804550171">
<ele>319.132813</ele>
<time>2013-11-19T10:04:19Z</time>
<speed>1.850000</speed>
<extensions>
<speed>1.8</speed>
<temp>0.00</temp>
<bpm>0</bpm>
<rpm>0.00</rpm>
</extensions>
</trkpt>
<trkpt lat="31.142412186" lon="34.804508209">
<ele>319.781250</ele>
<time>2013-11-19T10:04:24Z</time>
<speed>2.820000</speed>
<extensions>
<speed>2.8</speed>
<temp>0.00</temp>
<bpm>0</bpm>
<rpm>0.00</rpm>
</extensions>
</trkpt>
<trkpt lat="31.142280579" lon="34.804477692">
<ele>320.960938</ele>
<time>2013-11-19T10:04:29Z</time>
<speed>2.900000</speed>
<extensions>
<speed>2.9</speed>
<temp>0.00</temp>
<bpm>0</bpm>
<rpm>0.00</rpm>
</extensions>
</trkpt>
<trkpt lat="31.142154694" lon="34.804454803">
<ele>321.484375</ele>
<time>2013-11-19T10:04:34Z</time>
<speed>2.900000</speed>
<extensions>
<speed>2.9</speed>
<temp>0.00</temp>
<bpm>0</bpm>
<rpm>0.00</rpm>
</extensions>
</trkpt>
<trkpt lat="31.142019272" lon="34.804435730">
<ele>322.117188</ele>
<time>2013-11-19T10:04:39Z</time>
<speed>3.400000</speed>
<extensions>
<speed>3.4</speed>
<temp>0.00</temp>
<bpm>0</bpm>
<rpm>0.00</rpm>
</extensions>
</trkpt>
<trkpt lat="31.141876221" lon="34.804409027">
<ele>321.734375</ele>
<time>2013-11-19T10:04:44Z</time>
<speed>3.030000</speed>
<extensions>
<speed>3.0</speed>
<temp>0.00</temp>
<bpm>0</bpm>
<rpm>0.00</rpm>
</extensions>
</trkpt>
<trkpt lat="31.141719818" lon="34.804389954">
<ele>321.437500</ele>
<time>2013-11-19T10:04:49Z</time>
<speed>3.250000</speed>
<extensions>
<speed>3.2</speed>
<temp>0.00</temp>
<bpm>0</bpm>
<rpm>0.00</rpm>
</extensions>
</trkpt>
<trkpt lat="31.141580582" lon="34.804363251">
<ele>321.351563</ele>
<time>2013-11-19T10:04:54Z</time>
<speed>3.220000</speed>
<extensions>
<speed>3.2</speed>
<temp>0.00</temp>
<bpm>0</bpm>
<rpm>0.00</rpm>
</extensions>
</trkpt>
<trkpt lat="31.141412735" lon="34.804332733">
<ele>321.500000</ele>
<time>2013-11-19T10:04:59Z</time>
<speed>3.810000</speed>
<extensions>
<speed>3.8</speed>
<temp>0.00</temp>
<bpm>0</bpm>
<rpm>0.00</rpm>
</extensions>
</trkpt>
<trkpt lat="31.141235352" lon="34.804306030">
<ele>321.007813</ele>
<time>2013-11-19T10:05:04Z</time>
<speed>3.720000</speed>
<extensions>
<speed>3.7</speed>
<temp>0.00</temp>
<bpm>0</bpm>
<rpm>0.00</rpm>
</extensions>
</trkpt>
<trkpt lat="31.141088486" lon="34.804271698">
<ele>321.695313</ele>
<time>2013-11-19T10:05:09Z</time>
<speed>3.210000</speed>
<extensions>
<speed>3.2</speed>
<temp>0.00</temp>
<bpm>0</bpm>
<rpm>0.00</rpm>
</extensions>
</trkpt>
<trkpt lat="31.140918732" lon="34.804252625">
<ele>321.132813</ele>
<time>2013-11-19T10:05:14Z</time>
<speed>4.200000</speed>
<extensions>
<speed>4.2</speed>
<temp>0.00</temp>
<bpm>0</bpm>
<rpm>0.00</rpm>
</extensions>
</trkpt>
<trkpt lat="31.140754700" lon="34.804229736">
<ele>321.171875</ele>
<time>2013-11-19T10:05:19Z</time>
<speed>3.590000</speed>
<extensions>
<speed>3.6</speed>
<temp>0.00</temp>
<bpm>0</bpm>
<rpm>0.00</rpm>
</extensions>
</trkpt>
<trkpt lat="31.140575409" lon="34.804222107">
<ele>320.570313</ele>
<time>2013-11-19T10:05:24Z</time>
<speed>3.840000</speed>
<extensions>
<speed>3.8</speed>
<temp>0.00</temp>
<bpm>0</bpm>
<rpm>0.00</rpm>
</extensions>
</trkpt>
<trkpt lat="31.140413284" lon="34.804214478">
<ele>320.335938</ele>
<time>2013-11-19T10:05:29Z</time>
<speed>3.900000</speed>
<extensions>
<speed>3.9</speed>
<temp>0.00</temp>
<bpm>0</bpm>
<rpm>0.00</rpm>
</extensions>
</trkpt>
<trkpt lat="31.140218735" lon="34.804218292">
<ele>319.523438</ele>
<time>2013-11-19T10:05:34Z</time>
<speed>4.910000</speed>
<extensions>
<speed>4.9</speed>
<temp>0.00</temp>
<bpm>0</bpm>
<rpm>0.00</rpm>
</extensions>
</trkpt>
<trkpt lat="31.140008926" lon="34.804214478">
<ele>319.453125</ele>
<time>2013-11-19T10:05:39Z</time>
<speed>4.870000</speed>
<extensions>
<speed>4.9</speed>
<temp>0.00</temp>
<bpm>0</bpm>
<rpm>0.00</rpm>
</extensions>
</trkpt>
<trkpt lat="31.139772415" lon="34.804210663">
<ele>319.796875</ele>
<time>2013-11-19T10:05:44Z</time>
<speed>4.880000</speed>
<extensions>
<speed>4.9</speed>
<temp>0.00</temp>
<bpm>0</bpm>
<rpm>0.00</rpm>
</extensions>
</trkpt>
<trkpt lat="31.139560699" lon="34.804203033">
<ele>319.945313</ele>
<time>2013-11-19T10:05:49Z</time>
<speed>4.880000</speed>
<extensions>
<speed>4.9</speed>
<temp>0.00</temp>
<bpm>0</bpm>
<rpm>0.00</rpm>
</extensions>
</trkpt>
<trkpt lat="31.139331818" lon="34.804191589">
<ele>319.992188</ele>
<time>2013-11-19T10:05:54Z</time>
<speed>5.210000</speed>
<extensions>
<speed>5.2</speed>
<temp>0.00</temp>
<bpm>0</bpm>
<rpm>0.00</rpm>
</extensions>
</trkpt>
<trkpt lat="31.139080048" lon="34.804180145">
<ele>319.523438</ele>
<time>2013-11-19T10:05:59Z</time>
<speed>5.450000</speed>
<extensions>
<speed>5.5</speed>
<temp>0.00</temp>
<bpm>0</bpm>
<rpm>0.00</rpm>
</extensions>
</trkpt>
<trkpt lat="31.138826370" lon="34.804214478">
<ele>318.312500</ele>
<time>2013-11-19T10:06:04Z</time>
<speed>5.580000</speed>
<extensions>
<speed>5.6</speed>
<temp>0.00</temp>
<bpm>0</bpm>
<rpm>0.00</rpm>
</extensions>
</trkpt>
<trkpt lat="31.138595581" lon="34.804290771">
<ele>318.242188</ele>
<time>2013-11-19T10:06:09Z</time>
<speed>5.480000</speed>
<extensions>
<speed>5.5</speed>
<temp>0.00</temp>
<bpm>0</bpm>
<rpm>0.00</rpm>
</extensions>
</trkpt>
<trkpt lat="31.138355255" lon="34.804344177">
<ele>318.148438</ele>
<time>2013-11-19T10:06:14Z</time>
<speed>5.630000</speed>
<extensions>
<speed>5.6</speed>
<temp>0.00</temp>
<bpm>0</bpm>
<rpm>0.00</rpm>
</extensions>
</trkpt>
<trkpt lat="31.138084412" lon="34.804325104">
<ele>317.914063</ele>
<time>2013-11-19T10:06:19Z</time>
<speed>6.210000</speed>
<extensions>
<speed>6.2</speed>
<temp>0.00</temp>
<bpm>0</bpm>
<rpm>0.00</rpm>
</extensions>
</trkpt>
<trkpt lat="31.137792587" lon="34.804317474">
<ele>316.937500</ele>
<time>2013-11-19T10:06:24Z</time>
<speed>6.320000</speed>
<extensions>
<speed>6.3</speed>
<temp>0.00</temp>
<bpm>0</bpm>
<rpm>0.00</rpm>
</extensions>
</trkpt>
<trkpt lat="31.137495041" lon="34.804336548">
<ele>315.492188</ele>
<time>2013-11-19T10:06:29Z</time>
<speed>6.870000</speed>
<extensions>
<speed>6.9</speed>
<temp>0.00</temp>
<bpm>0</bpm>
<rpm>0.00</rpm>
</extensions>
</trkpt>
<trkpt lat="31.137182236" lon="34.804389954">
<ele>314.531250</ele>
<time>2013-11-19T10:06:34Z</time>
<speed>7.110000</speed>
<extensions>
<speed>7.1</speed>
<temp>0.00</temp>
<bpm>0</bpm>
<rpm>0.00</rpm>
</extensions>
</trkpt>
<trkpt lat="31.136915207" lon="34.804542542">
<ele>315.046875</ele>
<time>2013-11-19T10:06:39Z</time>
<speed>6.200000</speed>
<extensions>
<speed>6.2</speed>
<temp>0.00</temp>
<bpm>0</bpm>
<rpm>0.00</rpm>
</extensions>
</trkpt>
<trkpt lat="31.136680603" lon="34.804660797">
<ele>316.492188</ele>
<time>2013-11-19T10:06:44Z</time>
<speed>5.190000</speed>
<extensions>
<speed>5.2</speed>
<temp>0.00</temp>
<bpm>0</bpm>
<rpm>0.00</rpm>
</extensions>
</trkpt>
<trkpt lat="31.136470795" lon="34.804702759">
<ele>315.671875</ele>
<time>2013-11-19T10:06:49Z</time>
<speed>2.810000</speed>
<extensions>
<speed>2.8</speed>
<temp>0.00</temp>
<bpm>0</bpm>
<rpm>0.00</rpm>
</extensions>
</trkpt>
<trkpt lat="31.136400223" lon="34.804702759">
<ele>314.976563</ele>
<time>2013-11-19T10:06:54Z</time>
<speed>1.910000</speed>
<extensions>
<speed>1.9</speed>
<temp>0.00</temp>
<bpm>0</bpm>
<rpm>0.00</rpm>
</extensions>
</trkpt>
<trkpt lat="31.136327744" lon="34.804718018">
<ele>314.437500</ele>
<time>2013-11-19T10:06:59Z</time>
<speed>1.800000</speed>
<extensions>
<speed>1.8</speed>
<temp>0.00</temp>
<bpm>0</bpm>
<rpm>0.00</rpm>
</extensions>
</trkpt>
<trkpt lat="31.136238098" lon="34.804737091">
<ele>314.515625</ele>
<time>2013-11-19T10:07:04Z</time>
<speed>2.290000</speed>
<extensions>
<speed>2.3</speed>
<temp>0.00</temp>
<bpm>0</bpm>
<rpm>0.00</rpm>
</extensions>
</trkpt>
<trkpt lat="31.136137009" lon="34.804748535">
<ele>313.570313</ele>
<time>2013-11-19T10:07:09Z</time>
<speed>2.520000</speed>
<extensions>
<speed>2.5</speed>
<temp>0.00</temp>
<bpm>0</bpm>
<rpm>0.00</rpm>
</extensions>
</trkpt>
<trkpt lat="31.136028290" lon="34.804695129">
<ele>314.210938</ele>
<time>2013-11-19T10:07:14Z</time>
<speed>3.050000</speed>
<extensions>
<speed>3.0</speed>
<temp>0.00</temp>
<bpm>0</bpm>
<rpm>0.00</rpm>
</extensions>
</trkpt>
<trkpt lat="31.135997772" lon="34.804527283">
<ele>315.757813</ele>
<time>2013-11-19T10:07:19Z</time>
<speed>3.540000</speed>
<extensions>
<speed>3.5</speed>
<temp>0.00</temp>
<bpm>0</bpm>
<rpm>0.00</rpm>
</extensions>
</trkpt>
<trkpt lat="31.136018753" lon="34.804313660">
<ele>316.515625</ele>
<time>2013-11-19T10:07:24Z</time>
<speed>4.100000</speed>
<extensions>
<speed>4.1</speed>
<temp>0.00</temp>
<bpm>0</bpm>
<rpm>0.00</rpm>
</extensions>
</trkpt>
<trkpt lat="31.136030197" lon="34.804084778">
<ele>316.914063</ele>
<time>2013-11-19T10:07:29Z</time>
<speed>4.290000</speed>
<extensions>
<speed>4.3</speed>
<temp>0.00</temp>
<bpm>0</bpm>
<rpm>0.00</rpm>
</extensions>
</trkpt>
<trkpt lat="31.136013031" lon="34.803882599">
<ele>318.468750</ele>
<time>2013-11-19T10:07:34Z</time>
<speed>3.470000</speed>
<extensions>
<speed>3.5</speed>
<temp>0.00</temp>
<bpm>0</bpm>
<rpm>0.00</rpm>
</extensions>
</trkpt>
<trkpt lat="31.135919571" lon="34.803810120">
<ele>318.992188</ele>
<time>2013-11-19T10:07:39Z</time>
<speed>2.190000</speed>
<extensions>
<speed>2.2</speed>
<temp>0.00</temp>
<bpm>0</bpm>
<rpm>0.00</rpm>
</extensions>
</trkpt>
<trkpt lat="31.135824203" lon="34.803813934">
<ele>318.500000</ele>
<time>2013-11-19T10:07:44Z</time>
<speed>2.280000</speed>
<extensions>
<speed>2.3</speed>
<temp>0.00</temp>
<bpm>0</bpm>
<rpm>0.00</rpm>
</extensions>
</trkpt>
<trkpt lat="31.135730743" lon="34.803821564">
<ele>316.953125</ele>
<time>2013-11-19T10:07:49Z</time>
<speed>1.360000</speed>
<extensions>
<speed>1.4</speed>
<temp>0.00</temp>
<bpm>0</bpm>
<rpm>0.00</rpm>
</extensions>
</trkpt>
<trkpt lat="31.135715485" lon="34.803806305">
<ele>317.375000</ele>
<time>2013-11-19T10:07:54Z</time>
<speed>0.020000</speed>
<extensions>
<speed>0.0</speed>
<temp>0.00</temp>
<bpm>0</bpm>
<rpm>0.00</rpm>
</extensions>
</trkpt>
<trkpt lat="31.135709763" lon="34.803794861">
<ele>317.476563</ele>
<time>2013-11-19T10:07:59Z</time>
<speed>2.200000</speed>
<extensions>
<speed>2.2</speed>
<temp>0.00</temp>
<bpm>0</bpm>
<rpm>0.00</rpm>
</extensions>
</trkpt>
<trkpt lat="31.135683060" lon="34.803653717">
<ele>318.851563</ele>
<time>2013-11-19T10:08:04Z</time>
<speed>3.730000</speed>
<extensions>
<speed>3.7</speed>
<temp>0.00</temp>
<bpm>0</bpm>
<rpm>0.00</rpm>
</extensions>
</trkpt>
<trkpt lat="31.135717392" lon="34.803440094">
<ele>318.875000</ele>
<time>2013-11-19T10:08:09Z</time>
<speed>4.330000</speed>
<extensions>
<speed>4.3</speed>
<temp>0.00</temp>
<bpm>0</bpm>
<rpm>0.00</rpm>
</extensions>
</trkpt>
<trkpt lat="31.135717392" lon="34.803230286">
<ele>318.703125</ele>
<time>2013-11-19T10:08:14Z</time>
<speed>3.480000</speed>
<extensions>
<speed>3.5</speed>
<temp>0.00</temp>
<bpm>0</bpm>
<rpm>0.00</rpm>
</extensions>
</trkpt>
<trkpt lat="31.135568619" lon="34.803192139">
<ele>317.851563</ele>
<time>2013-11-19T10:08:19Z</time>
<speed>3.820000</speed>
<extensions>
<speed>3.8</speed>
<temp>0.00</temp>
<bpm>0</bpm>
<rpm>0.00</rpm>
</extensions>
</trkpt>
<trkpt lat="31.135452271" lon="34.803260803">
<ele>316.695313</ele>
<time>2013-11-19T10:08:24Z</time>
<speed>2.710000</speed>
<extensions>
<speed>2.7</speed>
<temp>0.00</temp>
<bpm>0</bpm>
<rpm>0.00</rpm>
</extensions>
</trkpt>
<trkpt lat="31.135391235" lon="34.803375244">
<ele>315.742188</ele>
<time>2013-11-19T10:08:29Z</time>
<speed>3.060000</speed>
<extensions>
<speed>3.1</speed>
<temp>0.00</temp>
<bpm>0</bpm>
<rpm>0.00</rpm>
</extensions>
</trkpt>
<trkpt lat="31.135274887" lon="34.803516388">
<ele>314.164063</ele>
<time>2013-11-19T10:08:34Z</time>
<speed>4.020000</speed>
<extensions>
<speed>4.0</speed>
<temp>0.00</temp>
<bpm>0</bpm>
<rpm>0.00</rpm>
</extensions>
</trkpt>
<trkpt lat="31.135143280" lon="34.803634644">
<ele>312.632813</ele>
<time>2013-11-19T10:08:39Z</time>
<speed>3.450000</speed>
<extensions>
<speed>3.5</speed>
<temp>0.00</temp>
<bpm>0</bpm>
<rpm>0.00</rpm>
</extensions>
</trkpt>
<trkpt lat="31.135028839" lon="34.803722382">
<ele>311.117188</ele>
<time>2013-11-19T10:08:44Z</time>
<speed>0.920000</speed>
<extensions>
<speed>0.9</speed>
<temp>0.00</temp>
<bpm>0</bpm>
<rpm>0.00</rpm>
</extensions>
</trkpt>
<trkpt lat="31.135011673" lon="34.803714752">
<ele>311.164063</ele>
<time>2013-11-19T10:08:49Z</time>
<speed>0.040000</speed>
<extensions>
<speed>0.0</speed>
<temp>0.00</temp>
<bpm>0</bpm>
<rpm>0.00</rpm>
</extensions>
</trkpt>
<trkpt lat="31.135011673" lon="34.803714752">
<ele>311.031250</ele>
<time>2013-11-19T10:08:54Z</time>
<speed>0.010000</speed>
<extensions>
<speed>0.0</speed>
<temp>0.00</temp>
<bpm>0</bpm>
<rpm>0.00</rpm>
</extensions>
</trkpt>
<trkpt lat="31.135013580" lon="34.803714752">
<ele>311.039063</ele>
<time>2013-11-19T10:08:59Z</time>
<speed>0.010000</speed>
<extensions>
<speed>0.0</speed>
<temp>0.00</temp>
<bpm>0</bpm>
<rpm>0.00</rpm>
</extensions>
</trkpt>
<trkpt lat="31.135013580" lon="34.803714752">
<ele>311.046875</ele>
<time>2013-11-19T10:09:04Z</time>
<speed>0.010000</speed>
<extensions>
<speed>0.0</speed>
<temp>0.00</temp>
<bpm>0</bpm>
<rpm>0.00</rpm>
</extensions>
</trkpt>
<trkpt lat="31.135013580" lon="34.803714752">
<ele>311.023438</ele>
<time>2013-11-19T10:09:09Z</time>
<speed>0.020000</speed>
<extensions>
<speed>0.0</speed>
<temp>0.00</temp>
<bpm>0</bpm>
<rpm>0.00</rpm>
</extensions>
</trkpt>
<trkpt lat="31.134963989" lon="34.803752899">
<ele>311.234375</ele>
<time>2013-11-19T10:09:14Z</time>
<speed>2.290000</speed>
<extensions>
<speed>2.3</speed>
<temp>0.00</temp>
<bpm>0</bpm>
<rpm>0.00</rpm>
</extensions>
</trkpt>
<trkpt lat="31.134859085" lon="34.803836823">
<ele>310.882813</ele>
<time>2013-11-19T10:09:19Z</time>
<speed>3.390000</speed>
<extensions>
<speed>3.4</speed>
<temp>0.00</temp>
<bpm>0</bpm>
<rpm>0.00</rpm>
</extensions>
</trkpt>
<trkpt lat="31.134735107" lon="34.803977966">
<ele>310.500000</ele>
<time>2013-11-19T10:09:24Z</time>
<speed>3.900000</speed>
<extensions>
<speed>3.9</speed>
<temp>0.00</temp>
<bpm>0</bpm>
<rpm>0.00</rpm>
</extensions>
</trkpt>
<trkpt lat="31.134614944" lon="34.804153442">
<ele>310.382813</ele>
<time>2013-11-19T10:09:29Z</time>
<speed>4.350000</speed>
<extensions>
<speed>4.3</speed>
<temp>0.00</temp>
<bpm>0</bpm>
<rpm>0.00</rpm>
</extensions>
</trkpt>
<trkpt lat="31.134494781" lon="34.804370880">
<ele>309.609375</ele>
<time>2013-11-19T10:09:34Z</time>
<speed>5.720000</speed>
<extensions>
<speed>5.7</speed>
<temp>0.00</temp>
<bpm>0</bpm>
<rpm>0.00</rpm>
</extensions>
</trkpt>
<trkpt lat="31.134361267" lon="34.804687500">
<ele>308.093750</ele>
<time>2013-11-19T10:09:39Z</time>
<speed>7.200000</speed>
<extensions>
<speed>7.2</speed>
<temp>0.00</temp>
<bpm>0</bpm>
<rpm>0.00</rpm>
</extensions>
</trkpt>
<trkpt lat="31.134199142" lon="34.805038452">
<ele>306.359375</ele>
<time>2013-11-19T10:09:44Z</time>
<speed>7.310000</speed>
<extensions>
<speed>7.3</speed>
<temp>0.00</temp>
<bpm>0</bpm>
<rpm>0.00</rpm>
</extensions>
</trkpt>
<trkpt lat="31.133872986" lon="34.805053711">
<ele>305.632813</ele>
<time>2013-11-19T10:09:49Z</time>
<speed>7.980000</speed>
<extensions>
<speed>8.0</speed>
<temp>0.00</temp>
<bpm>0</bpm>
<rpm>0.00</rpm>
</extensions>
</trkpt>
<trkpt lat="31.133487701" lon="34.805057526">
<ele>303.992188</ele>
<time>2013-11-19T10:09:54Z</time>
<speed>8.190000</speed>
<extensions>
<speed>8.2</speed>
<temp>0.00</temp>
<bpm>0</bpm>
<rpm>0.00</rpm>
</extensions>
</trkpt>
<trkpt lat="31.133129120" lon="34.805122375">
<ele>302.695313</ele>
<time>2013-11-19T10:09:59Z</time>
<speed>7.560000</speed>
<extensions>
<speed>7.6</speed>
<temp>0.00</temp>
<bpm>0</bpm>
<rpm>0.00</rpm>
</extensions>
</trkpt>
<trkpt lat="31.132799149" lon="34.805164337">
<ele>302.117188</ele>
<time>2013-11-19T10:10:04Z</time>
<speed>6.740000</speed>
<extensions>
<speed>6.7</speed>
<temp>0.00</temp>
<bpm>0</bpm>
<rpm>0.00</rpm>
</extensions>
</trkpt>
<trkpt lat="31.132524490" lon="34.805099487">
<ele>302.468750</ele>
<time>2013-11-19T10:10:09Z</time>
<speed>5.740000</speed>
<extensions>
<speed>5.7</speed>
<temp>0.00</temp>
<bpm>0</bpm>
<rpm>0.00</rpm>
</extensions>
</trkpt>
<trkpt lat="31.132270813" lon="34.805065155">
<ele>302.718750</ele>
<time>2013-11-19T10:10:14Z</time>
<speed>5.650000</speed>
<extensions>
<speed>5.7</speed>
<temp>0.00</temp>
<bpm>0</bpm>
<rpm>0.00</rpm>
</extensions>
</trkpt>
<trkpt lat="31.132024765" lon="34.805141449">
<ele>302.625000</ele>
<time>2013-11-19T10:10:19Z</time>
<speed>5.670000</speed>
<extensions>
<speed>5.7</speed>
<temp>0.00</temp>
<bpm>0</bpm>
<rpm>0.00</rpm>
</extensions>
</trkpt>
<trkpt lat="31.131822586" lon="34.805244446">
<ele>302.625000</ele>
<time>2013-11-19T10:10:24Z</time>
<speed>4.550000</speed>
<extensions>
<speed>4.5</speed>
<temp>0.00</temp>
<bpm>0</bpm>
<rpm>0.00</rpm>
</extensions>
</trkpt>
<trkpt lat="31.131664276" lon="34.805328369">
<ele>302.765625</ele>
<time>2013-11-19T10:10:29Z</time>
<speed>3.780000</speed>
<extensions>
<speed>3.8</speed>
<temp>0.00</temp>
<bpm>0</bpm>
<rpm>0.00</rpm>
</extensions>
</trkpt>
<trkpt lat="31.131502151" lon="34.805416107">
<ele>302.554688</ele>
<time>2013-11-19T10:10:34Z</time>
<speed>4.150000</speed>
<extensions>
<speed>4.1</speed>
<temp>0.00</temp>
<bpm>0</bpm>
<rpm>0.00</rpm>
</extensions>
</trkpt>
<trkpt lat="31.131324768" lon="34.805480957">
<ele>302.687500</ele>
<time>2013-11-19T10:10:39Z</time>
<speed>4.400000</speed>
<extensions>
<speed>4.4</speed>
<temp>0.00</temp>
<bpm>0</bpm>
<rpm>0.00</rpm>
</extensions>
</trkpt>
<trkpt lat="31.131124496" lon="34.805545807">
<ele>302.984375</ele>
<time>2013-11-19T10:10:44Z</time>
<speed>4.700000</speed>
<extensions>
<speed>4.7</speed>
<temp>0.00</temp>
<bpm>0</bpm>
<rpm>0.00</rpm>
</extensions>
</trkpt>
<trkpt lat="31.130939484" lon="34.805606842">
<ele>302.984375</ele>
<time>2013-11-19T10:10:49Z</time>
<speed>3.560000</speed>
<extensions>
<speed>3.6</speed>
<temp>0.00</temp>
<bpm>0</bpm>
<rpm>0.00</rpm>
</extensions>
</trkpt>
<trkpt lat="31.130769730" lon="34.805667877">
<ele>303.039063</ele>
<time>2013-11-19T10:10:54Z</time>
<speed>4.370000</speed>
<extensions>
<speed>4.4</speed>
<temp>0.00</temp>
<bpm>0</bpm>
<rpm>0.00</rpm>
</extensions>
</trkpt>
<trkpt lat="31.130573273" lon="34.805713654">
<ele>303.195313</ele>
<time>2013-11-19T10:10:59Z</time>
<speed>4.420000</speed>
<extensions>
<speed>4.4</speed>
<temp>0.00</temp>
<bpm>0</bpm>
<rpm>0.00</rpm>
</extensions>
</trkpt>
<trkpt lat="31.130390167" lon="34.805770874">
<ele>303.617188</ele>
<time>2013-11-19T10:11:04Z</time>
<speed>4.180000</speed>
<extensions>
<speed>4.2</speed>
<temp>0.00</temp>
<bpm>0</bpm>
<rpm>0.00</rpm>
</extensions>
</trkpt>
<trkpt lat="31.130212784" lon="34.805789948">
<ele>304.773438</ele>
<time>2013-11-19T10:11:09Z</time>
<speed>3.130000</speed>
<extensions>
<speed>3.1</speed>
<temp>0.00</temp>
<bpm>0</bpm>
<rpm>0.00</rpm>
</extensions>
</trkpt>
<trkpt lat="31.130100250" lon="34.805812836">
<ele>305.437500</ele>
<time>2013-11-19T10:11:14Z</time>
<speed>2.470000</speed>
<extensions>
<speed>2.5</speed>
<temp>0.00</temp>
<bpm>0</bpm>
<rpm>0.00</rpm>
</extensions>
</trkpt>
<trkpt lat="31.129981995" lon="34.805831909">
<ele>306.125000</ele>
<time>2013-11-19T10:11:19Z</time>
<speed>2.820000</speed>
<extensions>
<speed>2.8</speed>
<temp>0.00</temp>
<bpm>0</bpm>
<rpm>0.00</rpm>
</extensions>
</trkpt>
<trkpt lat="31.129842758" lon="34.805847168">
<ele>306.507813</ele>
<time>2013-11-19T10:11:24Z</time>
<speed>2.910000</speed>
<extensions>
<speed>2.9</speed>
<temp>0.00</temp>
<bpm>0</bpm>
<rpm>0.00</rpm>
</extensions>
</trkpt>
<trkpt lat="31.129711151" lon="34.805870056">
<ele>306.546875</ele>
<time>2013-11-19T10:11:29Z</time>
<speed>2.990000</speed>
<extensions>
<speed>3.0</speed>
<temp>0.00</temp>
<bpm>0</bpm>
<rpm>0.00</rpm>
</extensions>
</trkpt>
<trkpt lat="31.129610062" lon="34.805896759">
<ele>307.187500</ele>
<time>2013-11-19T10:11:34Z</time>
<speed>2.530000</speed>
<extensions>
<speed>2.5</speed>
<temp>0.00</temp>
<bpm>0</bpm>
<rpm>0.00</rpm>
</extensions>
</trkpt>
<trkpt lat="31.129484177" lon="34.805938721">
<ele>307.882813</ele>
<time>2013-11-19T10:11:39Z</time>
<speed>3.430000</speed>
<extensions>
<speed>3.4</speed>
<temp>0.00</temp>
<bpm>0</bpm>
<rpm>0.00</rpm>
</extensions>
</trkpt>
<trkpt lat="31.129348755" lon="34.805988312">
<ele>308.085938</ele>
<time>2013-11-19T10:11:44Z</time>
<speed>2.550000</speed>
<extensions>
<speed>2.6</speed>
<temp>0.00</temp>
<bpm>0</bpm>
<rpm>0.00</rpm>
</extensions>
</trkpt>
<trkpt lat="31.129249573" lon="34.806045532">
<ele>308.375000</ele>
<time>2013-11-19T10:11:49Z</time>
<speed>3.210000</speed>
<extensions>
<speed>3.2</speed>
<temp>0.00</temp>
<bpm>0</bpm>
<rpm>0.00</rpm>
</extensions>
</trkpt>
<trkpt lat="31.129095078" lon="34.806129456">
<ele>308.664063</ele>
<time>2013-11-19T10:11:54Z</time>
<speed>4.360000</speed>
<extensions>
<speed>4.4</speed>
<temp>0.00</temp>
<bpm>0</bpm>
<rpm>0.00</rpm>
</extensions>
</trkpt>
<trkpt lat="31.128896713" lon="34.806198120">
<ele>308.218750</ele>
<time>2013-11-19T10:11:59Z</time>
<speed>4.720000</speed>
<extensions>
<speed>4.7</speed>
<temp>0.00</temp>
<bpm>0</bpm>
<rpm>0.00</rpm>
</extensions>
</trkpt>
<trkpt lat="31.128683090" lon="34.806224823">
<ele>308.937500</ele>
<time>2013-11-19T10:12:04Z</time>
<speed>4.200000</speed>
<extensions>
<speed>4.2</speed>
<temp>0.00</temp>
<bpm>0</bpm>
<rpm>0.00</rpm>
</extensions>
</trkpt>
<trkpt lat="31.128488541" lon="34.806190491">
<ele>310.656250</ele>
<time>2013-11-19T10:12:09Z</time>
<speed>4.300000</speed>
<extensions>
<speed>4.3</speed>
<temp>0.00</temp>
<bpm>0</bpm>
<rpm>0.00</rpm>
</extensions>
</trkpt>
<trkpt lat="31.128326416" lon="34.806144714">
<ele>312.132813</ele>
<time>2013-11-19T10:12:14Z</time>
<speed>3.330000</speed>
<extensions>
<speed>3.3</speed>
<temp>0.00</temp>
<bpm>0</bpm>
<rpm>0.00</rpm>
</extensions>
</trkpt>
<trkpt lat="31.128171921" lon="34.806087494">
<ele>313.765625</ele>
<time>2013-11-19T10:12:19Z</time>
<speed>3.900000</speed>
<extensions>
<speed>3.9</speed>
<temp>0.00</temp>
<bpm>0</bpm>
<rpm>0.00</rpm>
</extensions>
</trkpt>
<trkpt lat="31.127994537" lon="34.806053162">
<ele>313.929688</ele>
<time>2013-11-19T10:12:24Z</time>
<speed>4.340000</speed>
<extensions>
<speed>4.3</speed>
<temp>0.00</temp>
<bpm>0</bpm>
<rpm>0.00</rpm>
</extensions>
</trkpt>
<trkpt lat="31.127796173" lon="34.806060791">
<ele>313.804688</ele>
<time>2013-11-19T10:12:29Z</time>
<speed>4.310000</speed>
<extensions>
<speed>4.3</speed>
<temp>0.00</temp>
<bpm>0</bpm>
<rpm>0.00</rpm>
</extensions>
</trkpt>
<trkpt lat="31.127593994" lon="34.806110382">
<ele>314.062500</ele>
<time>2013-11-19T10:12:34Z</time>
<speed>4.810000</speed>
<extensions>
<speed>4.8</speed>
<temp>0.00</temp>
<bpm>0</bpm>
<rpm>0.00</rpm>
</extensions>
</trkpt>
<trkpt lat="31.127408981" lon="34.806186676">
<ele>314.109375</ele>
<time>2013-11-19T10:12:39Z</time>
<speed>4.660000</speed>
<extensions>
<speed>4.7</speed>
<temp>0.00</temp>
<bpm>0</bpm>
<rpm>0.00</rpm>
</extensions>
</trkpt>
<trkpt lat="31.127214432" lon="34.806289673">
<ele>314.640625</ele>
<time>2013-11-19T10:12:44Z</time>
<speed>4.900000</speed>
<extensions>
<speed>4.9</speed>
<temp>0.00</temp>
<bpm>0</bpm>
<rpm>0.00</rpm>
</extensions>
</trkpt>
<trkpt lat="31.127012253" lon="34.806434631">
<ele>315.031250</ele>
<time>2013-11-19T10:12:49Z</time>
<speed>5.730000</speed>
<extensions>
<speed>5.7</speed>
<temp>0.00</temp>
<bpm>0</bpm>
<rpm>0.00</rpm>
</extensions>
</trkpt>
<trkpt lat="31.126808167" lon="34.806625366">
<ele>314.437500</ele>
<time>2013-11-19T10:12:54Z</time>
<speed>5.560000</speed>
<extensions>
<speed>5.6</speed>
<temp>0.00</temp>
<bpm>0</bpm>
<rpm>0.00</rpm>
</extensions>
</trkpt>
<trkpt lat="31.126619339" lon="34.806800842">
<ele>314.781250</ele>
<time>2013-11-19T10:12:59Z</time>
<speed>4.990000</speed>
<extensions>
<speed>5.0</speed>
<temp>0.00</temp>
<bpm>0</bpm>
<rpm>0.00</rpm>
</extensions>
</trkpt>
<trkpt lat="31.126420975" lon="34.806964874">
<ele>313.617188</ele>
<time>2013-11-19T10:13:04Z</time>
<speed>5.380000</speed>
<extensions>
<speed>5.4</speed>
<temp>0.00</temp>
<bpm>0</bpm>
<rpm>0.00</rpm>
</extensions>
</trkpt>
<trkpt lat="31.126216888" lon="34.807140350">
<ele>313.429688</ele>
<time>2013-11-19T10:13:09Z</time>
<speed>5.680000</speed>
<extensions>
<speed>5.7</speed>
<temp>0.00</temp>
<bpm>0</bpm>
<rpm>0.00</rpm>
</extensions>
</trkpt>
<trkpt lat="31.125995636" lon="34.807312012">
<ele>313.648438</ele>
<time>2013-11-19T10:13:14Z</time>
<speed>5.910000</speed>
<extensions>
<speed>5.9</speed>
<temp>0.00</temp>
<bpm>0</bpm>
<rpm>0.00</rpm>
</extensions>
</trkpt>
<trkpt lat="31.125774384" lon="34.807453156">
<ele>313.140625</ele>
<time>2013-11-19T10:13:19Z</time>
<speed>5.260000</speed>
<extensions>
<speed>5.3</speed>
<temp>0.00</temp>
<bpm>0</bpm>
<rpm>0.00</rpm>
</extensions>
</trkpt>
<trkpt lat="31.125577927" lon="34.807586670">
<ele>312.390625</ele>
<time>2013-11-19T10:13:24Z</time>
<speed>4.790000</speed>
<extensions>
<speed>4.8</speed>
<temp>0.00</temp>
<bpm>0</bpm>
<rpm>0.00</rpm>
</extensions>
</trkpt>
<trkpt lat="31.125368118" lon="34.807701111">
<ele>312.687500</ele>
<time>2013-11-19T10:13:29Z</time>
<speed>5.420000</speed>
<extensions>
<speed>5.4</speed>
<temp>0.00</temp>
<bpm>0</bpm>
<rpm>0.00</rpm>
</extensions>
</trkpt>
<trkpt lat="31.125150681" lon="34.807823181">
<ele>313.054688</ele>
<time>2013-11-19T10:13:34Z</time>
<speed>5.580000</speed>
<extensions>
<speed>5.6</speed>
<temp>0.00</temp>
<bpm>0</bpm>
<rpm>0.00</rpm>
</extensions>
</trkpt>
<trkpt lat="31.124881744" lon="34.807899475">
<ele>312.117188</ele>
<time>2013-11-19T10:13:39Z</time>
<speed>5.770000</speed>
<extensions>
<speed>5.8</speed>
<temp>0.00</temp>
<bpm>0</bpm>
<rpm>0.00</rpm>
</extensions>
</trkpt>
<trkpt lat="31.124618530" lon="34.807956696">
<ele>311.046875</ele>
<time>2013-11-19T10:13:44Z</time>
<speed>6.020000</speed>
<extensions>
<speed>6.0</speed>
<temp>0.00</temp>
<bpm>0</bpm>
<rpm>0.00</rpm>
</extensions>
</trkpt>
<trkpt lat="31.124361038" lon="34.808059692">
<ele>311.007813</ele>
<time>2013-11-19T10:13:49Z</time>
<speed>6.130000</speed>
<extensions>
<speed>6.1</speed>
<temp>0.00</temp>
<bpm>0</bpm>
<rpm>0.00</rpm>
</extensions>
</trkpt>
<trkpt lat="31.124116898" lon="34.808208466">
<ele>310.710938</ele>
<time>2013-11-19T10:13:54Z</time>
<speed>6.260000</speed>
<extensions>
<speed>6.3</speed>
<temp>0.00</temp>
<bpm>0</bpm>
<rpm>0.00</rpm>
</extensions>
</trkpt>
<trkpt lat="31.123907089" lon="34.808406830">
<ele>309.492188</ele>
<time>2013-11-19T10:13:59Z</time>
<speed>5.980000</speed>
<extensions>
<speed>6.0</speed>
<temp>0.00</temp>
<bpm>0</bpm>
<rpm>0.00</rpm>
</extensions>
</trkpt>
<trkpt lat="31.123703003" lon="34.808601379">
<ele>309.039063</ele>
<time>2013-11-19T10:14:04Z</time>
<speed>5.790000</speed>
<extensions>
<speed>5.8</speed>
<temp>0.00</temp>
<bpm>0</bpm>
<rpm>0.00</rpm>
</extensions>
</trkpt>
<trkpt lat="31.123483658" lon="34.808792114">
<ele>307.765625</ele>
<time>2013-11-19T10:14:09Z</time>
<speed>5.980000</speed>
<extensions>
<speed>6.0</speed>
<temp>0.00</temp>
<bpm>0</bpm>
<rpm>0.00</rpm>
</extensions>
</trkpt>
<trkpt lat="31.123273849" lon="34.808979034">
<ele>306.945313</ele>
<time>2013-11-19T10:14:14Z</time>
<speed>6.140000</speed>
<extensions>
<speed>6.1</speed>
<temp>0.00</temp>
<bpm>0</bpm>
<rpm>0.00</rpm>
</extensions>
</trkpt>
<trkpt lat="31.123041153" lon="34.809177399">
<ele>305.781250</ele>
<time>2013-11-19T10:14:19Z</time>
<speed>6.210000</speed>
<extensions>
<speed>6.2</speed>
<temp>0.00</temp>
<bpm>0</bpm>
<rpm>0.00</rpm>
</extensions>
</trkpt>
<trkpt lat="31.122854233" lon="34.809341431">
<ele>306.164063</ele>
<time>2013-11-19T10:14:24Z</time>
<speed>4.230000</speed>
<extensions>
<speed>4.2</speed>
<temp>0.00</temp>
<bpm>0</bpm>
<rpm>0.00</rpm>
</extensions>
</trkpt>
<trkpt lat="31.122726440" lon="34.809436798">
<ele>305.835938</ele>
<time>2013-11-19T10:14:29Z</time>
<speed>3.420000</speed>
<extensions>
<speed>3.4</speed>
<temp>0.00</temp>
<bpm>0</bpm>
<rpm>0.00</rpm>
</extensions>
</trkpt>
<trkpt lat="31.122579575" lon="34.809505463">
<ele>306.320313</ele>
<time>2013-11-19T10:14:34Z</time>
<speed>3.470000</speed>
<extensions>
<speed>3.5</speed>
<temp>0.00</temp>
<bpm>0</bpm>
<rpm>0.00</rpm>
</extensions>
</trkpt>
<trkpt lat="31.122436523" lon="34.809589386">
<ele>306.195313</ele>
<time>2013-11-19T10:14:39Z</time>
<speed>3.930000</speed>
<extensions>
<speed>3.9</speed>
<temp>0.00</temp>
<bpm>0</bpm>
<rpm>0.00</rpm>
</extensions>
</trkpt>
<trkpt lat="31.122318268" lon="34.809661865">
<ele>305.742188</ele>
<time>2013-11-19T10:14:44Z</time>
<speed>2.130000</speed>
<extensions>
<speed>2.1</speed>
<temp>0.00</temp>
<bpm>0</bpm>
<rpm>0.00</rpm>
</extensions>
</trkpt>
<trkpt lat="31.122207642" lon="34.809730530">
<ele>305.054688</ele>
<time>2013-11-19T10:14:49Z</time>
<speed>3.450000</speed>
<extensions>
<speed>3.5</speed>
<temp>0.00</temp>
<bpm>0</bpm>
<rpm>0.00</rpm>
</extensions>
</trkpt>
<trkpt lat="31.122053146" lon="34.809818268">
<ele>307.750000</ele>
<time>2013-11-19T10:14:54Z</time>
<speed>4.280000</speed>
<extensions>
<speed>4.3</speed>
<temp>0.00</temp>
<bpm>0</bpm>
<rpm>0.00</rpm>
</extensions>
</trkpt>
<trkpt lat="31.121910095" lon="34.809909821">
<ele>308.843750</ele>
<time>2013-11-19T10:14:59Z</time>
<speed>2.830000</speed>
<extensions>
<speed>2.8</speed>
<temp>0.00</temp>
<bpm>0</bpm>
<rpm>0.00</rpm>
</extensions>
</trkpt>
<trkpt lat="31.121780396" lon="34.809989929">
<ele>309.437500</ele>
<time>2013-11-19T10:15:04Z</time>
<speed>3.470000</speed>
<extensions>
<speed>3.5</speed>
<temp>0.00</temp>
<bpm>0</bpm>
<rpm>0.00</rpm>
</extensions>
</trkpt>
<trkpt lat="31.121637344" lon="34.810089111">
<ele>310.570313</ele>
<time>2013-11-19T10:15:09Z</time>
<speed>4.210000</speed>
<extensions>
<speed>4.2</speed>
<temp>0.00</temp>
<bpm>0</bpm>
<rpm>0.00</rpm>
</extensions>
</trkpt>
<trkpt lat="31.121488571" lon="34.810184479">
<ele>310.546875</ele>
<time>2013-11-19T10:15:14Z</time>
<speed>3.690000</speed>
<extensions>
<speed>3.7</speed>
<temp>0.00</temp>
<bpm>0</bpm>
<rpm>0.00</rpm>
</extensions>
</trkpt>
<trkpt lat="31.121318817" lon="34.810279846">
<ele>310.351563</ele>
<time>2013-11-19T10:15:19Z</time>
<speed>3.920000</speed>
<extensions>
<speed>3.9</speed>
<temp>0.00</temp>
<bpm>0</bpm>
<rpm>0.00</rpm>
</extensions>
</trkpt>
<trkpt lat="31.121147156" lon="34.810386658">
<ele>312.781250</ele>
<time>2013-11-19T10:15:24Z</time>
<speed>3.880000</speed>
<extensions>
<speed>3.9</speed>
<temp>0.00</temp>
<bpm>0</bpm>
<rpm>0.00</rpm>
</extensions>
</trkpt>
<trkpt lat="31.121000290" lon="34.810478210">
<ele>312.867188</ele>
<time>2013-11-19T10:15:29Z</time>
<speed>4.470000</speed>
<extensions>
<speed>4.5</speed>
<temp>0.00</temp>
<bpm>0</bpm>
<rpm>0.00</rpm>
</extensions>
</trkpt>
<trkpt lat="31.120834351" lon="34.810577393">
<ele>313.828125</ele>
<time>2013-11-19T10:15:34Z</time>
<speed>3.230000</speed>
<extensions>
<speed>3.2</speed>
<temp>0.00</temp>
<bpm>0</bpm>
<rpm>0.00</rpm>
</extensions>
</trkpt>
<trkpt lat="31.120691299" lon="34.810665131">
<ele>314.015625</ele>
<time>2013-11-19T10:15:39Z</time>
<speed>3.860000</speed>
<extensions>
<speed>3.9</speed>
<temp>0.00</temp>
<bpm>0</bpm>
<rpm>0.00</rpm>
</extensions>
</trkpt>
<trkpt lat="31.120532990" lon="34.810737610">
<ele>314.015625</ele>
<time>2013-11-19T10:15:44Z</time>
<speed>3.800000</speed>
<extensions>
<speed>3.8</speed>
<temp>0.00</temp>
<bpm>0</bpm>
<rpm>0.00</rpm>
</extensions>
</trkpt>
<trkpt lat="31.120382309" lon="34.810825348">
<ele>313.015625</ele>
<time>2013-11-19T10:15:49Z</time>
<speed>3.920000</speed>
<extensions>
<speed>3.9</speed>
<temp>0.00</temp>
<bpm>0</bpm>
<rpm>0.00</rpm>
</extensions>
</trkpt>
<trkpt lat="31.120233536" lon="34.810901642">
<ele>312.953125</ele>
<time>2013-11-19T10:15:54Z</time>
<speed>3.470000</speed>
<extensions>
<speed>3.5</speed>
<temp>0.00</temp>
<bpm>0</bpm>
<rpm>0.00</rpm>
</extensions>
</trkpt>
<trkpt lat="31.120056152" lon="34.810981750">
<ele>312.218750</ele>
<time>2013-11-19T10:15:59Z</time>
<speed>4.560000</speed>
<extensions>
<speed>4.6</speed>
<temp>0.00</temp>
<bpm>0</bpm>
<rpm>0.00</rpm>
</extensions>
</trkpt>
<trkpt lat="31.119853973" lon="34.811061859">
<ele>312.195313</ele>
<time>2013-11-19T10:16:04Z</time>
<speed>4.560000</speed>
<extensions>
<speed>4.6</speed>
<temp>0.00</temp>
<bpm>0</bpm>
<rpm>0.00</rpm>
</extensions>
</trkpt>
<trkpt lat="31.119670868" lon="34.811149597">
<ele>312.054688</ele>
<time>2013-11-19T10:16:09Z</time>
<speed>4.520000</speed>
<extensions>
<speed>4.5</speed>
<temp>0.00</temp>
<bpm>0</bpm>
<rpm>0.00</rpm>
</extensions>
</trkpt>
<trkpt lat="31.119466782" lon="34.811260223">
<ele>311.546875</ele>
<time>2013-11-19T10:16:14Z</time>
<speed>4.850000</speed>
<extensions>
<speed>4.8</speed>
<temp>0.00</temp>
<bpm>0</bpm>
<rpm>0.00</rpm>
</extensions>
</trkpt>
<trkpt lat="31.119295120" lon="34.811370850">
<ele>312.046875</ele>
<time>2013-11-19T10:16:19Z</time>
<speed>3.760000</speed>
<extensions>
<speed>3.8</speed>
<temp>0.00</temp>
<bpm>0</bpm>
<rpm>0.00</rpm>
</extensions>
</trkpt>
<trkpt lat="31.119136810" lon="34.811496735">
<ele>311.476563</ele>
<time>2013-11-19T10:16:24Z</time>
<speed>4.180000</speed>
<extensions>
<speed>4.2</speed>
<temp>0.00</temp>
<bpm>0</bpm>
<rpm>0.00</rpm>
</extensions>
</trkpt>
<trkpt lat="31.118976593" lon="34.811595917">
<ele>311.445313</ele>
<time>2013-11-19T10:16:29Z</time>
<speed>4.210000</speed>
<extensions>
<speed>4.2</speed>
<temp>0.00</temp>
<bpm>0</bpm>
<rpm>0.00</rpm>
</extensions>
</trkpt>
<trkpt lat="31.118812561" lon="34.811721802">
<ele>311.375000</ele>
<time>2013-11-19T10:16:34Z</time>
<speed>4.490000</speed>
<extensions>
<speed>4.5</speed>
<temp>0.00</temp>
<bpm>0</bpm>
<rpm>0.00</rpm>
</extensions>
</trkpt>
<trkpt lat="31.118694305" lon="34.811790466">
<ele>311.156250</ele>
<time>2013-11-19T10:16:39Z</time>
<speed>2.190000</speed>
<extensions>
<speed>2.2</speed>
<temp>0.00</temp>
<bpm>0</bpm>
<rpm>0.00</rpm>
</extensions>
</trkpt>
<trkpt lat="31.118616104" lon="34.811840057">
<ele>311.437500</ele>
<time>2013-11-19T10:16:44Z</time>
<speed>1.910000</speed>
<extensions>
<speed>1.9</speed>
<temp>0.00</temp>
<bpm>0</bpm>
<rpm>0.00</rpm>
</extensions>
</trkpt>
<trkpt lat="31.118530273" lon="34.811885834">
<ele>311.296875</ele>
<time>2013-11-19T10:16:49Z</time>
<speed>2.520000</speed>
<extensions>
<speed>2.5</speed>
<temp>0.00</temp>
<bpm>0</bpm>
<rpm>0.00</rpm>
</extensions>
</trkpt>
<trkpt lat="31.118450165" lon="34.811939240">
<ele>310.679688</ele>
<time>2013-11-19T10:16:54Z</time>
<speed>1.590000</speed>
<extensions>
<speed>1.6</speed>
<temp>0.00</temp>
<bpm>0</bpm>
<rpm>0.00</rpm>
</extensions>
</trkpt>
<trkpt lat="31.118383408" lon="34.811958313">
<ele>310.406250</ele>
<time>2013-11-19T10:16:59Z</time>
<speed>2.130000</speed>
<extensions>
<speed>2.1</speed>
<temp>0.00</temp>
<bpm>0</bpm>
<rpm>0.00</rpm>
</extensions>
</trkpt>
<trkpt lat="31.118286133" lon="34.812057495">
<ele>310.531250</ele>
<time>2013-11-19T10:17:04Z</time>
<speed>3.660000</speed>
<extensions>
<speed>3.7</speed>
<temp>0.00</temp>
<bpm>0</bpm>
<rpm>0.00</rpm>
</extensions>
</trkpt>
<trkpt lat="31.118169785" lon="34.812156677">
<ele>310.273438</ele>
<time>2013-11-19T10:17:09Z</time>
<speed>3.770000</speed>
<extensions>
<speed>3.8</speed>
<temp>0.00</temp>
<bpm>0</bpm>
<rpm>0.00</rpm>
</extensions>
</trkpt>
<trkpt lat="31.118028641" lon="34.812267303">
<ele>309.796875</ele>
<time>2013-11-19T10:17:14Z</time>
<speed>3.890000</speed>
<extensions>
<speed>3.9</speed>
<temp>0.00</temp>
<bpm>0</bpm>
<rpm>0.00</rpm>
</extensions>
</trkpt>
<trkpt lat="31.117912292" lon="34.812362671">
<ele>310.023438</ele>
<time>2013-11-19T10:17:19Z</time>
<speed>2.620000</speed>
<extensions>
<speed>2.6</speed>
<temp>0.00</temp>
<bpm>0</bpm>
<rpm>0.00</rpm>
</extensions>
</trkpt>
<trkpt lat="31.117820740" lon="34.812438965">
<ele>309.492188</ele>
<time>2013-11-19T10:17:24Z</time>
<speed>2.360000</speed>
<extensions>
<speed>2.4</speed>
<temp>0.00</temp>
<bpm>0</bpm>
<rpm>0.00</rpm>
</extensions>
</trkpt>
<trkpt lat="31.117738724" lon="34.812519073">
<ele>309.773438</ele>
<time>2013-11-19T10:17:29Z</time>
<speed>2.320000</speed>
<extensions>
<speed>2.3</speed>
<temp>0.00</temp>
<bpm>0</bpm>
<rpm>0.00</rpm>
</extensions>
</trkpt>
<trkpt lat="31.117662430" lon="34.812591553">
<ele>311.250000</ele>
<time>2013-11-19T10:17:34Z</time>
<speed>2.410000</speed>
<extensions>
<speed>2.4</speed>
<temp>0.00</temp>
<bpm>0</bpm>
<rpm>0.00</rpm>
</extensions>
</trkpt>
<trkpt lat="31.117570877" lon="34.812698364">
<ele>313.015625</ele>
<time>2013-11-19T10:17:39Z</time>
<speed>2.690000</speed>
<extensions>
<speed>2.7</speed>
<temp>0.00</temp>
<bpm>0</bpm>
<rpm>0.00</rpm>
</extensions>
</trkpt>
<trkpt lat="31.117490768" lon="34.812789917">
<ele>314.421875</ele>
<time>2013-11-19T10:17:44Z</time>
<speed>2.280000</speed>
<extensions>
<speed>2.3</speed>
<temp>0.00</temp>
<bpm>0</bpm>
<rpm>0.00</rpm>
</extensions>
</trkpt>
<trkpt lat="31.117408752" lon="34.812904358">
<ele>315.437500</ele>
<time>2013-11-19T10:17:49Z</time>
<speed>2.680000</speed>
<extensions>
<speed>2.7</speed>
<temp>0.00</temp>
<bpm>0</bpm>
<rpm>0.00</rpm>
</extensions>
</trkpt>
<trkpt lat="31.117341995" lon="34.813011169">
<ele>316.765625</ele>
<time>2013-11-19T10:17:54Z</time>
<speed>1.580000</speed>
<extensions>
<speed>1.6</speed>
<temp>0.00</temp>
<bpm>0</bpm>
<rpm>0.00</rpm>
</extensions>
</trkpt>
<trkpt lat="31.117261887" lon="34.813106537">
<ele>317.625000</ele>
<time>2013-11-19T10:17:59Z</time>
<speed>3.000000</speed>
<extensions>
<speed>3.0</speed>
<temp>0.00</temp>
<bpm>0</bpm>
<rpm>0.00</rpm>
</extensions>
</trkpt>
<trkpt lat="31.117183685" lon="34.813179016">
<ele>319.804688</ele>
<time>2013-11-19T10:18:04Z</time>
<speed>2.920000</speed>
<extensions>
<speed>2.9</speed>
<temp>0.00</temp>
<bpm>0</bpm>
<rpm>0.00</rpm>
</extensions>
</trkpt>
<trkpt lat="31.117086411" lon="34.813297272">
<ele>321.218750</ele>
<time>2013-11-19T10:18:09Z</time>
<speed>2.410000</speed>
<extensions>
<speed>2.4</speed>
<temp>0.00</temp>
<bpm>0</bpm>
<rpm>0.00</rpm>
</extensions>
</trkpt>
<trkpt lat="31.116996765" lon="34.813404083">
<ele>322.445313</ele>
<time>2013-11-19T10:18:14Z</time>
<speed>2.930000</speed>
<extensions>
<speed>2.9</speed>
<temp>0.00</temp>
<bpm>0</bpm>
<rpm>0.00</rpm>
</extensions>
</trkpt>
<trkpt lat="31.116897583" lon="34.813507080">
<ele>324.226563</ele>
<time>2013-11-19T10:18:19Z</time>
<speed>2.330000</speed>
<extensions>
<speed>2.3</speed>
<temp>0.00</temp>
<bpm>0</bpm>
<rpm>0.00</rpm>
</extensions>
</trkpt>
<trkpt lat="31.116813660" lon="34.813587189">
<ele>324.890625</ele>
<time>2013-11-19T10:18:24Z</time>
<speed>2.730000</speed>
<extensions>
<speed>2.7</speed>
<temp>0.00</temp>
<bpm>0</bpm>
<rpm>0.00</rpm>
</extensions>
</trkpt>
<trkpt lat="31.116718292" lon="34.813686371">
<ele>325.937500</ele>
<time>2013-11-19T10:18:29Z</time>
<speed>3.050000</speed>
<extensions>
<speed>3.0</speed>
<temp>0.00</temp>
<bpm>0</bpm>
<rpm>0.00</rpm>
</extensions>
</trkpt>
<trkpt lat="31.116624832" lon="34.813781738">
<ele>326.046875</ele>
<time>2013-11-19T10:18:34Z</time>
<speed>3.060000</speed>
<extensions>
<speed>3.1</speed>
<temp>0.00</temp>
<bpm>0</bpm>
<rpm>0.00</rpm>
</extensions>
</trkpt>
<trkpt lat="31.116527557" lon="34.813854218">
<ele>325.367188</ele>
<time>2013-11-19T10:18:39Z</time>
<speed>3.500000</speed>
<extensions>
<speed>3.5</speed>
<temp>0.00</temp>
<bpm>0</bpm>
<rpm>0.00</rpm>
</extensions>
</trkpt>
<trkpt lat="31.116420746" lon="34.813930511">
<ele>326.250000</ele>
<time>2013-11-19T10:18:44Z</time>
<speed>2.050000</speed>
<extensions>
<speed>2.1</speed>
<temp>0.00</temp>
<bpm>0</bpm>
<rpm>0.00</rpm>
</extensions>
</trkpt>
<trkpt lat="31.116334915" lon="34.813968658">
<ele>326.640625</ele>
<time>2013-11-19T10:18:49Z</time>
<speed>2.330000</speed>
<extensions>
<speed>2.3</speed>
<temp>0.00</temp>
<bpm>0</bpm>
<rpm>0.00</rpm>
</extensions>
</trkpt>
<trkpt lat="31.116220474" lon="34.814041138">
<ele>326.375000</ele>
<time>2013-11-19T10:18:54Z</time>
<speed>3.490000</speed>
<extensions>
<speed>3.5</speed>
<temp>0.00</temp>
<bpm>0</bpm>
<rpm>0.00</rpm>
</extensions>
</trkpt>
<trkpt lat="31.116104126" lon="34.814125061">
<ele>327.125000</ele>
<time>2013-11-19T10:18:59Z</time>
<speed>2.880000</speed>
<extensions>
<speed>2.9</speed>
<temp>0.00</temp>
<bpm>0</bpm>
<rpm>0.00</rpm>
</extensions>
</trkpt>
<trkpt lat="31.116029739" lon="34.814182281">
<ele>328.226563</ele>
<time>2013-11-19T10:19:04Z</time>
<speed>1.880000</speed>
<extensions>
<speed>1.9</speed>
<temp>0.00</temp>
<bpm>0</bpm>
<rpm>0.00</rpm>
</extensions>
</trkpt>
<trkpt lat="31.115936279" lon="34.814212799">
<ele>329.265625</ele>
<time>2013-11-19T10:19:09Z</time>
<speed>1.680000</speed>
<extensions>
<speed>1.7</speed>
<temp>0.00</temp>
<bpm>0</bpm>
<rpm>0.00</rpm>
</extensions>
</trkpt>
<trkpt lat="31.115861893" lon="34.814277649">
<ele>328.664063</ele>
<time>2013-11-19T10:19:14Z</time>
<speed>1.970000</speed>
<extensions>
<speed>2.0</speed>
<temp>0.00</temp>
<bpm>0</bpm>
<rpm>0.00</rpm>
</extensions>
</trkpt>
<trkpt lat="31.115755081" lon="34.814315796">
<ele>328.898438</ele>
<time>2013-11-19T10:19:19Z</time>
<speed>2.270000</speed>
<extensions>
<speed>2.3</speed>
<temp>0.00</temp>
<bpm>0</bpm>
<rpm>0.00</rpm>
</extensions>
</trkpt>
<trkpt lat="31.115644455" lon="34.814346313">
<ele>328.734375</ele>
<time>2013-11-19T10:19:24Z</time>
<speed>2.400000</speed>
<extensions>
<speed>2.4</speed>
<temp>0.00</temp>
<bpm>0</bpm>
<rpm>0.00</rpm>
</extensions>
</trkpt>
<trkpt lat="31.115545273" lon="34.814357758">
<ele>329.250000</ele>
<time>2013-11-19T10:19:29Z</time>
<speed>2.260000</speed>
<extensions>
<speed>2.3</speed>
<temp>0.00</temp>
<bpm>0</bpm>
<rpm>0.00</rpm>
</extensions>
</trkpt>
<trkpt lat="31.115463257" lon="34.814380646">
<ele>328.632813</ele>
<time>2013-11-19T10:19:34Z</time>
<speed>0.840000</speed>
<extensions>
<speed>0.8</speed>
<temp>0.00</temp>
<bpm>0</bpm>
<rpm>0.00</rpm>
</extensions>
</trkpt>
<trkpt lat="31.115385056" lon="34.814403534">
<ele>327.945313</ele>
<time>2013-11-19T10:19:39Z</time>
<speed>2.160000</speed>
<extensions>
<speed>2.2</speed>
<temp>0.00</temp>
<bpm>0</bpm>
<rpm>0.00</rpm>
</extensions>
</trkpt>
<trkpt lat="31.115333557" lon="34.814418793">
<ele>326.992188</ele>
<time>2013-11-19T10:19:44Z</time>
<speed>0.160000</speed>
<extensions>
<speed>0.2</speed>
<temp>0.00</temp>
<bpm>0</bpm>
<rpm>0.00</rpm>
</extensions>
</trkpt>
<trkpt lat="31.115325928" lon="34.814422607">
<ele>326.429688</ele>
<time>2013-11-19T10:19:49Z</time>
<speed>0.650000</speed>
<extensions>
<speed>0.6</speed>
<temp>0.00</temp>
<bpm>0</bpm>
<rpm>0.00</rpm>
</extensions>
</trkpt>
<trkpt lat="31.115301132" lon="34.814445496">
<ele>326.132813</ele>
<time>2013-11-19T10:19:54Z</time>
<speed>0.740000</speed>
<extensions>
<speed>0.7</speed>
<temp>0.00</temp>
<bpm>0</bpm>
<rpm>0.00</rpm>
</extensions>
</trkpt>
<trkpt lat="31.115255356" lon="34.814476013">
<ele>325.859375</ele>
<time>2013-11-19T10:19:59Z</time>
<speed>1.020000</speed>
<extensions>
<speed>1.0</speed>
<temp>0.00</temp>
<bpm>0</bpm>
<rpm>0.00</rpm>
</extensions>
</trkpt>
<trkpt lat="31.115211487" lon="34.814506531">
<ele>325.796875</ele>
<time>2013-11-19T10:20:04Z</time>
<speed>1.120000</speed>
<extensions>
<speed>1.1</speed>
<temp>0.00</temp>
<bpm>0</bpm>
<rpm>0.00</rpm>
</extensions>
</trkpt>
<trkpt lat="31.115161896" lon="34.814525604">
<ele>325.539063</ele>
<time>2013-11-19T10:20:09Z</time>
<speed>0.980000</speed>
<extensions>
<speed>1.0</speed>
<temp>0.00</temp>
<bpm>0</bpm>
<rpm>0.00</rpm>
</extensions>
</trkpt>
<trkpt lat="31.115108490" lon="34.814525604">
<ele>325.476563</ele>
<time>2013-11-19T10:20:14Z</time>
<speed>1.060000</speed>
<extensions>
<speed>1.1</speed>
<temp>0.00</temp>
<bpm>0</bpm>
<rpm>0.00</rpm>
</extensions>
</trkpt>
<trkpt lat="31.115072250" lon="34.814533234">
<ele>325.257813</ele>
<time>2013-11-19T10:20:19Z</time>
<speed>0.770000</speed>
<extensions>
<speed>0.8</speed>
<temp>0.00</temp>
<bpm>0</bpm>
<rpm>0.00</rpm>
</extensions>
</trkpt>
<trkpt lat="31.115037918" lon="34.814567566">
<ele>325.367188</ele>
<time>2013-11-19T10:20:24Z</time>
<speed>0.940000</speed>
<extensions>
<speed>0.9</speed>
<temp>0.00</temp>
<bpm>0</bpm>
<rpm>0.00</rpm>
</extensions>
</trkpt>
<trkpt lat="31.114997864" lon="34.814586639">
<ele>325.703125</ele>
<time>2013-11-19T10:20:29Z</time>
<speed>0.770000</speed>
<extensions>
<speed>0.8</speed>
<temp>0.00</temp>
<bpm>0</bpm>
<rpm>0.00</rpm>
</extensions>
</trkpt>
<trkpt lat="31.114959717" lon="34.814609528">
<ele>326.203125</ele>
<time>2013-11-19T10:20:34Z</time>
<speed>1.160000</speed>
<extensions>
<speed>1.2</speed>
<temp>0.00</temp>
<bpm>0</bpm>
<rpm>0.00</rpm>
</extensions>
</trkpt>
<trkpt lat="31.114919662" lon="34.814643860">
<ele>326.929688</ele>
<time>2013-11-19T10:20:39Z</time>
<speed>1.400000</speed>
<extensions>
<speed>1.4</speed>
<temp>0.00</temp>
<bpm>0</bpm>
<rpm>0.00</rpm>
</extensions>
</trkpt>
<trkpt lat="31.114877701" lon="34.814666748">
<ele>327.429688</ele>
<time>2013-11-19T10:20:44Z</time>
<speed>0.960000</speed>
<extensions>
<speed>1.0</speed>
<temp>0.00</temp>
<bpm>0</bpm>
<rpm>0.00</rpm>
</extensions>
</trkpt>
<trkpt lat="31.114831924" lon="34.814693451">
<ele>327.382813</ele>
<time>2013-11-19T10:20:49Z</time>
<speed>1.030000</speed>
<extensions>
<speed>1.0</speed>
<temp>0.00</temp>
<bpm>0</bpm>
<rpm>0.00</rpm>
</extensions>
</trkpt>
<trkpt lat="31.114784241" lon="34.814723969">
<ele>327.593750</ele>
<time>2013-11-19T10:20:54Z</time>
<speed>1.240000</speed>
<extensions>
<speed>1.2</speed>
<temp>0.00</temp>
<bpm>0</bpm>
<rpm>0.00</rpm>
</extensions>
</trkpt>
<trkpt lat="31.114740372" lon="34.814731598">
<ele>327.882813</ele>
<time>2013-11-19T10:20:59Z</time>
<speed>0.840000</speed>
<extensions>
<speed>0.8</speed>
<temp>0.00</temp>
<bpm>0</bpm>
<rpm>0.00</rpm>
</extensions>
</trkpt>
<trkpt lat="31.114709854" lon="34.814769745">
<ele>328.234375</ele>
<time>2013-11-19T10:21:04Z</time>
<speed>1.380000</speed>
<extensions>
<speed>1.4</speed>
<temp>0.00</temp>
<bpm>0</bpm>
<rpm>0.00</rpm>
</extensions>
</trkpt>
<trkpt lat="31.114648819" lon="34.814800262">
<ele>329.109375</ele>
<time>2013-11-19T10:21:09Z</time>
<speed>1.330000</speed>
<extensions>
<speed>1.3</speed>
<temp>0.00</temp>
<bpm>0</bpm>
<rpm>0.00</rpm>
</extensions>
</trkpt>
<trkpt lat="31.114591599" lon="34.814830780">
<ele>329.578125</ele>
<time>2013-11-19T10:21:14Z</time>
<speed>1.400000</speed>
<extensions>
<speed>1.4</speed>
<temp>0.00</temp>
<bpm>0</bpm>
<rpm>0.00</rpm>
</extensions>
</trkpt>
<trkpt lat="31.114530563" lon="34.814857483">
<ele>329.460938</ele>
<time>2013-11-19T10:21:19Z</time>
<speed>1.360000</speed>
<extensions>
<speed>1.4</speed>
<temp>0.00</temp>
<bpm>0</bpm>
<rpm>0.00</rpm>
</extensions>
</trkpt>
<trkpt lat="31.114482880" lon="34.814884186">
<ele>329.640625</ele>
<time>2013-11-19T10:21:24Z</time>
<speed>1.300000</speed>
<extensions>
<speed>1.3</speed>
<temp>0.00</temp>
<bpm>0</bpm>
<rpm>0.00</rpm>
</extensions>
</trkpt>
<trkpt lat="31.114427567" lon="34.814903259">
<ele>329.523438</ele>
<time>2013-11-19T10:21:29Z</time>
<speed>1.160000</speed>
<extensions>
<speed>1.2</speed>
<temp>0.00</temp>
<bpm>0</bpm>
<rpm>0.00</rpm>
</extensions>
</trkpt>
<trkpt lat="31.114377975" lon="34.814941406">
<ele>329.617188</ele>
<time>2013-11-19T10:21:34Z</time>
<speed>0.980000</speed>
<extensions>
<speed>1.0</speed>
<temp>0.00</temp>
<bpm>0</bpm>
<rpm>0.00</rpm>
</extensions>
</trkpt>
<trkpt lat="31.114339828" lon="34.814964294">
<ele>329.578125</ele>
<time>2013-11-19T10:21:39Z</time>
<speed>1.110000</speed>
<extensions>
<speed>1.1</speed>
<temp>0.00</temp>
<bpm>0</bpm>
<rpm>0.00</rpm>
</extensions>
</trkpt>
<trkpt lat="31.114295959" lon="34.815006256">
<ele>329.609375</ele>
<time>2013-11-19T10:21:44Z</time>
<speed>1.190000</speed>
<extensions>
<speed>1.2</speed>
<temp>0.00</temp>
<bpm>0</bpm>
<rpm>0.00</rpm>
</extensions>
</trkpt>
<trkpt lat="31.114253998" lon="34.815059662">
<ele>329.312500</ele>
<time>2013-11-19T10:21:49Z</time>
<speed>1.660000</speed>
<extensions>
<speed>1.7</speed>
<temp>0.00</temp>
<bpm>0</bpm>
<rpm>0.00</rpm>
</extensions>
</trkpt>
<trkpt lat="31.114231110" lon="34.815120697">
<ele>328.734375</ele>
<time>2013-11-19T10:21:54Z</time>
<speed>1.300000</speed>
<extensions>
<speed>1.3</speed>
<temp>0.00</temp>
<bpm>0</bpm>
<rpm>0.00</rpm>
</extensions>
</trkpt>
<trkpt lat="31.114185333" lon="34.815177917">
<ele>328.554688</ele>
<time>2013-11-19T10:21:59Z</time>
<speed>1.330000</speed>
<extensions>
<speed>1.3</speed>
<temp>0.00</temp>
<bpm>0</bpm>
<rpm>0.00</rpm>
</extensions>
</trkpt>
<trkpt lat="31.114137650" lon="34.815242767">
<ele>329.234375</ele>
<time>2013-11-19T10:22:04Z</time>
<speed>1.330000</speed>
<extensions>
<speed>1.3</speed>
<temp>0.00</temp>
<bpm>0</bpm>
<rpm>0.00</rpm>
</extensions>
</trkpt>
<trkpt lat="31.114112854" lon="34.815288544">
<ele>329.109375</ele>
<time>2013-11-19T10:22:09Z</time>
<speed>1.260000</speed>
<extensions>
<speed>1.3</speed>
<temp>0.00</temp>
<bpm>0</bpm>
<rpm>0.00</rpm>
</extensions>
</trkpt>
<trkpt lat="31.114084244" lon="34.815341949">
<ele>328.437500</ele>
<time>2013-11-19T10:22:14Z</time>
<speed>1.370000</speed>
<extensions>
<speed>1.4</speed>
<temp>0.00</temp>
<bpm>0</bpm>
<rpm>0.00</rpm>
</extensions>
</trkpt>
<trkpt lat="31.114061356" lon="34.815387726">
<ele>328.117188</ele>
<time>2013-11-19T10:22:19Z</time>
<speed>1.330000</speed>
<extensions>
<speed>1.3</speed>
<temp>0.00</temp>
<bpm>0</bpm>
<rpm>0.00</rpm>
</extensions>
</trkpt>
<trkpt lat="31.114034653" lon="34.815441132">
<ele>327.625000</ele>
<time>2013-11-19T10:22:24Z</time>
<speed>1.600000</speed>
<extensions>
<speed>1.6</speed>
<temp>0.00</temp>
<bpm>0</bpm>
<rpm>0.00</rpm>
</extensions>
</trkpt>
<trkpt lat="31.113988876" lon="34.815505981">
<ele>327.640625</ele>
<time>2013-11-19T10:22:29Z</time>
<speed>1.600000</speed>
<extensions>
<speed>1.6</speed>
<temp>0.00</temp>
<bpm>0</bpm>
<rpm>0.00</rpm>
</extensions>
</trkpt>
<trkpt lat="31.113958359" lon="34.815567017">
<ele>327.304688</ele>
<time>2013-11-19T10:22:34Z</time>
<speed>1.450000</speed>
<extensions>
<speed>1.4</speed>
<temp>0.00</temp>
<bpm>0</bpm>
<rpm>0.00</rpm>
</extensions>
</trkpt>
<trkpt lat="31.113922119" lon="34.815620422">
<ele>328.390625</ele>
<time>2013-11-19T10:22:39Z</time>
<speed>1.630000</speed>
<extensions>
<speed>1.6</speed>
<temp>0.00</temp>
<bpm>0</bpm>
<rpm>0.00</rpm>
</extensions>
</trkpt>
<trkpt lat="31.113893509" lon="34.815670013">
<ele>328.515625</ele>
<time>2013-11-19T10:22:44Z</time>
<speed>1.090000</speed>
<extensions>
<speed>1.1</speed>
<temp>0.00</temp>
<bpm>0</bpm>
<rpm>0.00</rpm>
</extensions>
</trkpt>
<trkpt lat="31.113859177" lon="34.815708160">
<ele>328.789063</ele>
<time>2013-11-19T10:22:49Z</time>
<speed>1.010000</speed>
<extensions>
<speed>1.0</speed>
<temp>0.00</temp>
<bpm>0</bpm>
<rpm>0.00</rpm>
</extensions>
</trkpt>
<trkpt lat="31.113817215" lon="34.815757751">
<ele>328.421875</ele>
<time>2013-11-19T10:22:54Z</time>
<speed>0.940000</speed>
<extensions>
<speed>0.9</speed>
<temp>0.00</temp>
<bpm>0</bpm>
<rpm>0.00</rpm>
</extensions>
</trkpt>
<trkpt lat="31.113803864" lon="34.815799713">
<ele>328.335938</ele>
<time>2013-11-19T10:22:59Z</time>
<speed>1.180000</speed>
<extensions>
<speed>1.2</speed>
<temp>0.00</temp>
<bpm>0</bpm>
<rpm>0.00</rpm>
</extensions>
</trkpt>
<trkpt lat="31.113805771" lon="34.815864563">
<ele>327.703125</ele>
<time>2013-11-19T10:23:04Z</time>
<speed>1.250000</speed>
<extensions>
<speed>1.3</speed>
<temp>0.00</temp>
<bpm>0</bpm>
<rpm>0.00</rpm>
</extensions>
</trkpt>
<trkpt lat="31.113824844" lon="34.815917969">
<ele>327.343750</ele>
<time>2013-11-19T10:23:09Z</time>
<speed>1.100000</speed>
<extensions>
<speed>1.1</speed>
<temp>0.00</temp>
<bpm>0</bpm>
<rpm>0.00</rpm>
</extensions>
</trkpt>
<trkpt lat="31.113830566" lon="34.815967560">
<ele>327.734375</ele>
<time>2013-11-19T10:23:14Z</time>
<speed>0.880000</speed>
<extensions>
<speed>0.9</speed>
<temp>0.00</temp>
<bpm>0</bpm>
<rpm>0.00</rpm>
</extensions>
</trkpt>
<trkpt lat="31.113832474" lon="34.816009521">
<ele>328.695313</ele>
<time>2013-11-19T10:23:19Z</time>
<speed>0.730000</speed>
<extensions>
<speed>0.7</speed>
<temp>0.00</temp>
<bpm>0</bpm>
<rpm>0.00</rpm>
</extensions>
</trkpt>
<trkpt lat="31.113826752" lon="34.816051483">
<ele>329.132813</ele>
<time>2013-11-19T10:23:24Z</time>
<speed>0.670000</speed>
<extensions>
<speed>0.7</speed>
<temp>0.00</temp>
<bpm>0</bpm>
<rpm>0.00</rpm>
</extensions>
</trkpt>
<trkpt lat="31.113824844" lon="34.816089630">
<ele>329.703125</ele>
<time>2013-11-19T10:23:29Z</time>
<speed>0.790000</speed>
<extensions>
<speed>0.8</speed>
<temp>0.00</temp>
<bpm>0</bpm>
<rpm>0.00</rpm>
</extensions>
</trkpt>
<trkpt lat="31.113815308" lon="34.816127777">
<ele>330.835938</ele>
<time>2013-11-19T10:23:34Z</time>
<speed>0.750000</speed>
<extensions>
<speed>0.8</speed>
<temp>0.00</temp>
<bpm>0</bpm>
<rpm>0.00</rpm>
</extensions>
</trkpt>
<trkpt lat="31.113803864" lon="34.816154480">
<ele>331.906250</ele>
<time>2013-11-19T10:23:39Z</time>
<speed>0.640000</speed>
<extensions>
<speed>0.6</speed>
<temp>0.00</temp>
<bpm>0</bpm>
<rpm>0.00</rpm>
</extensions>
</trkpt>
<trkpt lat="31.113796234" lon="34.816162109">
<ele>331.914063</ele>
<time>2013-11-19T10:23:44Z</time>
<speed>0.170000</speed>
<extensions>
<speed>0.2</speed>
<temp>0.00</temp>
<bpm>0</bpm>
<rpm>0.00</rpm>
</extensions>
</trkpt>
<trkpt lat="31.113788605" lon="34.816169739">
<ele>331.820313</ele>
<time>2013-11-19T10:23:49Z</time>
<speed>0.160000</speed>
<extensions>
<speed>0.2</speed>
<temp>0.00</temp>
<bpm>0</bpm>
<rpm>0.00</rpm>
</extensions>
</trkpt>
<trkpt lat="31.113784790" lon="34.816169739">
<ele>331.789063</ele>
<time>2013-11-19T10:23:54Z</time>
<speed>0.110000</speed>
<extensions>
<speed>0.1</speed>
<temp>0.00</temp>
<bpm>0</bpm>
<rpm>0.00</rpm>
</extensions>
</trkpt>
<trkpt lat="31.113780975" lon="34.816173553">
<ele>331.773438</ele>
<time>2013-11-19T10:23:59Z</time>
<speed>0.070000</speed>
<extensions>
<speed>0.1</speed>
<temp>0.00</temp>
<bpm>0</bpm>
<rpm>0.00</rpm>
</extensions>
</trkpt>
<trkpt lat="31.113779068" lon="34.816173553">
<ele>331.781250</ele>
<time>2013-11-19T10:24:04Z</time>
<speed>0.080000</speed>
<extensions>
<speed>0.1</speed>
<temp>0.00</temp>
<bpm>0</bpm>
<rpm>0.00</rpm>
</extensions>
</trkpt>
<trkpt lat="31.113775253" lon="34.816173553">
<ele>331.781250</ele>
<time>2013-11-19T10:24:09Z</time>
<speed>0.100000</speed>
<extensions>
<speed>0.1</speed>
<temp>0.00</temp>
<bpm>0</bpm>
<rpm>0.00</rpm>
</extensions>
</trkpt>
<trkpt lat="31.113769531" lon="34.816177368">
<ele>331.765625</ele>
<time>2013-11-19T10:24:14Z</time>
<speed>0.100000</speed>
<extensions>
<speed>0.1</speed>
<temp>0.00</temp>
<bpm>0</bpm>
<rpm>0.00</rpm>
</extensions>
</trkpt>
<trkpt lat="31.113765717" lon="34.816181183">
<ele>331.726563</ele>
<time>2013-11-19T10:24:19Z</time>
<speed>0.090000</speed>
<extensions>
<speed>0.1</speed>
<temp>0.00</temp>
<bpm>0</bpm>
<rpm>0.00</rpm>
</extensions>
</trkpt>
<trkpt lat="31.113761902" lon="34.816181183">
<ele>331.703125</ele>
<time>2013-11-19T10:24:24Z</time>
<speed>0.020000</speed>
<extensions>
<speed>0.0</speed>
<temp>0.00</temp>
<bpm>0</bpm>
<rpm>0.00</rpm>
</extensions>
</trkpt>
<trkpt lat="31.113759995" lon="34.816181183">
<ele>331.687500</ele>
<time>2013-11-19T10:24:29Z</time>
<speed>0.130000</speed>
<extensions>
<speed>0.1</speed>
<temp>0.00</temp>
<bpm>0</bpm>
<rpm>0.00</rpm>
</extensions>
</trkpt>
<trkpt lat="31.113756180" lon="34.816181183">
<ele>331.695313</ele>
<time>2013-11-19T10:24:34Z</time>
<speed>0.100000</speed>
<extensions>
<speed>0.1</speed>
<temp>0.00</temp>
<bpm>0</bpm>
<rpm>0.00</rpm>
</extensions>
</trkpt>
<trkpt lat="31.113754272" lon="34.816181183">
<ele>331.710938</ele>
<time>2013-11-19T10:24:39Z</time>
<speed>0.040000</speed>
<extensions>
<speed>0.0</speed>
<temp>0.00</temp>
<bpm>0</bpm>
<rpm>0.00</rpm>
</extensions>
</trkpt>
<trkpt lat="31.113754272" lon="34.816177368">
<ele>331.726563</ele>
<time>2013-11-19T10:24:44Z</time>
<speed>0.090000</speed>
<extensions>
<speed>0.1</speed>
<temp>0.00</temp>
<bpm>0</bpm>
<rpm>0.00</rpm>
</extensions>
</trkpt>
<trkpt lat="31.113756180" lon="34.816173553">
<ele>331.742188</ele>
<time>2013-11-19T10:24:49Z</time>
<speed>0.090000</speed>
<extensions>
<speed>0.1</speed>
<temp>0.00</temp>
<bpm>0</bpm>
<rpm>0.00</rpm>
</extensions>
</trkpt>
<trkpt lat="31.113761902" lon="34.816169739">
<ele>331.750000</ele>
<time>2013-11-19T10:24:54Z</time>
<speed>0.120000</speed>
<extensions>
<speed>0.1</speed>
<temp>0.00</temp>
<bpm>0</bpm>
<rpm>0.00</rpm>
</extensions>
</trkpt>
<trkpt lat="31.113763809" lon="34.816169739">
<ele>331.726563</ele>
<time>2013-11-19T10:24:59Z</time>
<speed>0.080000</speed>
<extensions>
<speed>0.1</speed>
<temp>0.00</temp>
<bpm>0</bpm>
<rpm>0.00</rpm>
</extensions>
</trkpt>
<trkpt lat="31.113765717" lon="34.816169739">
<ele>331.703125</ele>
<time>2013-11-19T10:25:04Z</time>
<speed>0.060000</speed>
<extensions>
<speed>0.1</speed>
<temp>0.00</temp>
<bpm>0</bpm>
<rpm>0.00</rpm>
</extensions>
</trkpt>
<trkpt lat="31.113763809" lon="34.816169739">
<ele>331.664063</ele>
<time>2013-11-19T10:25:09Z</time>
<speed>0.110000</speed>
<extensions>
<speed>0.1</speed>
<temp>0.00</temp>
<bpm>0</bpm>
<rpm>0.00</rpm>
</extensions>
</trkpt>
<trkpt lat="31.113758087" lon="34.816177368">
<ele>331.625000</ele>
<time>2013-11-19T10:25:14Z</time>
<speed>0.270000</speed>
<extensions>
<speed>0.3</speed>
<temp>0.00</temp>
<bpm>0</bpm>
<rpm>0.00</rpm>
</extensions>
</trkpt>
<trkpt lat="31.113771439" lon="34.816169739">
<ele>330.976563</ele>
<time>2013-11-19T10:25:19Z</time>
<speed>0.170000</speed>
<extensions>
<speed>0.2</speed>
<temp>0.00</temp>
<bpm>0</bpm>
<rpm>0.00</rpm>
</extensions>
</trkpt>
<trkpt lat="31.113756180" lon="34.816215515">
<ele>329.992188</ele>
<time>2013-11-19T10:25:24Z</time>
<speed>1.290000</speed>
<extensions>
<speed>1.3</speed>
<temp>0.00</temp>
<bpm>0</bpm>
<rpm>0.00</rpm>
</extensions>
</trkpt>
<trkpt lat="31.113681793" lon="34.816299438">
<ele>329.820313</ele>
<time>2013-11-19T10:25:29Z</time>
<speed>2.860000</speed>
<extensions>
<speed>2.9</speed>
<temp>0.00</temp>
<bpm>0</bpm>
<rpm>0.00</rpm>
</extensions>
</trkpt>
<trkpt lat="31.113574982" lon="34.816417694">
<ele>329.164063</ele>
<time>2013-11-19T10:25:34Z</time>
<speed>4.020000</speed>
<extensions>
<speed>4.0</speed>
<temp>0.00</temp>
<bpm>0</bpm>
<rpm>0.00</rpm>
</extensions>
</trkpt>
<trkpt lat="31.113433838" lon="34.816547394">
<ele>328.687500</ele>
<time>2013-11-19T10:25:39Z</time>
<speed>4.000000</speed>
<extensions>
<speed>4.0</speed>
<temp>0.00</temp>
<bpm>0</bpm>
<rpm>0.00</rpm>
</extensions>
</trkpt>
<trkpt lat="31.113290787" lon="34.816692352">
<ele>327.898438</ele>
<time>2013-11-19T10:25:44Z</time>
<speed>4.410000</speed>
<extensions>
<speed>4.4</speed>
<temp>0.00</temp>
<bpm>0</bpm>
<rpm>0.00</rpm>
</extensions>
</trkpt>
<trkpt lat="31.113119125" lon="34.816860199">
<ele>327.023438</ele>
<time>2013-11-19T10:25:49Z</time>
<speed>5.040000</speed>
<extensions>
<speed>5.0</speed>
<temp>0.00</temp>
<bpm>0</bpm>
<rpm>0.00</rpm>
</extensions>
</trkpt>
<trkpt lat="31.112957001" lon="34.817012787">
<ele>326.140625</ele>
<time>2013-11-19T10:25:54Z</time>
<speed>4.580000</speed>
<extensions>
<speed>4.6</speed>
<temp>0.00</temp>
<bpm>0</bpm>
<rpm>0.00</rpm>
</extensions>
</trkpt>
<trkpt lat="31.112800598" lon="34.817169189">
<ele>325.406250</ele>
<time>2013-11-19T10:25:59Z</time>
<speed>4.480000</speed>
<extensions>
<speed>4.5</speed>
<temp>0.00</temp>
<bpm>0</bpm>
<rpm>0.00</rpm>
</extensions>
</trkpt>
<trkpt lat="31.112611771" lon="34.817337036">
<ele>325.531250</ele>
<time>2013-11-19T10:26:04Z</time>
<speed>5.930000</speed>
<extensions>
<speed>5.9</speed>
<temp>0.00</temp>
<bpm>0</bpm>
<rpm>0.00</rpm>
</extensions>
</trkpt>
<trkpt lat="31.112417221" lon="34.817520142">
<ele>325.007813</ele>
<time>2013-11-19T10:26:09Z</time>
<speed>5.430000</speed>
<extensions>
<speed>5.4</speed>
<temp>0.00</temp>
<bpm>0</bpm>
<rpm>0.00</rpm>
</extensions>
</trkpt>
<trkpt lat="31.112215042" lon="34.817703247">
<ele>324.625000</ele>
<time>2013-11-19T10:26:14Z</time>
<speed>5.350000</speed>
<extensions>
<speed>5.4</speed>
<temp>0.00</temp>
<bpm>0</bpm>
<rpm>0.00</rpm>
</extensions>
</trkpt>
<trkpt lat="31.112030029" lon="34.817890167">
<ele>323.906250</ele>
<time>2013-11-19T10:26:19Z</time>
<speed>5.360000</speed>
<extensions>
<speed>5.4</speed>
<temp>0.00</temp>
<bpm>0</bpm>
<rpm>0.00</rpm>
</extensions>
</trkpt>
<trkpt lat="31.111846924" lon="34.818054199">
<ele>323.921875</ele>
<time>2013-11-19T10:26:24Z</time>
<speed>5.060000</speed>
<extensions>
<speed>5.1</speed>
<temp>0.00</temp>
<bpm>0</bpm>
<rpm>0.00</rpm>
</extensions>
</trkpt>
<trkpt lat="31.111627579" lon="34.818267822">
<ele>322.914063</ele>
<time>2013-11-19T10:26:29Z</time>
<speed>5.770000</speed>
<extensions>
<speed>5.8</speed>
<temp>0.00</temp>
<bpm>0</bpm>
<rpm>0.00</rpm>
</extensions>
</trkpt>
<trkpt lat="31.111427307" lon="34.818466187">
<ele>322.273438</ele>
<time>2013-11-19T10:26:34Z</time>
<speed>4.920000</speed>
<extensions>
<speed>4.9</speed>
<temp>0.00</temp>
<bpm>0</bpm>
<rpm>0.00</rpm>
</extensions>
</trkpt>
<trkpt lat="31.111244202" lon="34.818626404">
<ele>322.585938</ele>
<time>2013-11-19T10:26:39Z</time>
<speed>4.540000</speed>
<extensions>
<speed>4.5</speed>
<temp>0.00</temp>
<bpm>0</bpm>
<rpm>0.00</rpm>
</extensions>
</trkpt>
<trkpt lat="31.111083984" lon="34.818767548">
<ele>323.046875</ele>
<time>2013-11-19T10:26:44Z</time>
<speed>4.930000</speed>
<extensions>
<speed>4.9</speed>
<temp>0.00</temp>
<bpm>0</bpm>
<rpm>0.00</rpm>
</extensions>
</trkpt>
<trkpt lat="31.110925674" lon="34.818931580">
<ele>323.148438</ele>
<time>2013-11-19T10:26:49Z</time>
<speed>4.810000</speed>
<extensions>
<speed>4.8</speed>
<temp>0.00</temp>
<bpm>0</bpm>
<rpm>0.00</rpm>
</extensions>
</trkpt>
<trkpt lat="31.110750198" lon="34.819110870">
<ele>323.460938</ele>
<time>2013-11-19T10:26:54Z</time>
<speed>5.150000</speed>
<extensions>
<speed>5.2</speed>
<temp>0.00</temp>
<bpm>0</bpm>
<rpm>0.00</rpm>
</extensions>
</trkpt>
<trkpt lat="31.110567093" lon="34.819278717">
<ele>324.359375</ele>
<time>2013-11-19T10:26:59Z</time>
<speed>4.340000</speed>
<extensions>
<speed>4.3</speed>
<temp>0.00</temp>
<bpm>0</bpm>
<rpm>0.00</rpm>
</extensions>
</trkpt>
<trkpt lat="31.110420227" lon="34.819423676">
<ele>326.421875</ele>
<time>2013-11-19T10:27:04Z</time>
<speed>4.610000</speed>
<extensions>
<speed>4.6</speed>
<temp>0.00</temp>
<bpm>0</bpm>
<rpm>0.00</rpm>
</extensions>
</trkpt>
<trkpt lat="31.110261917" lon="34.819576263">
<ele>325.945313</ele>
<time>2013-11-19T10:27:09Z</time>
<speed>4.790000</speed>
<extensions>
<speed>4.8</speed>
<temp>0.00</temp>
<bpm>0</bpm>
<rpm>0.00</rpm>
</extensions>
</trkpt>
<trkpt lat="31.110118866" lon="34.819705963">
<ele>328.109375</ele>
<time>2013-11-19T10:27:14Z</time>
<speed>3.980000</speed>
<extensions>
<speed>4.0</speed>
<temp>0.00</temp>
<bpm>0</bpm>
<rpm>0.00</rpm>
</extensions>
</trkpt>
<trkpt lat="31.109975815" lon="34.819843292">
<ele>329.140625</ele>
<time>2013-11-19T10:27:19Z</time>
<speed>4.100000</speed>
<extensions>
<speed>4.1</speed>
<temp>0.00</temp>
<bpm>0</bpm>
<rpm>0.00</rpm>
</extensions>
</trkpt>
<trkpt lat="31.109872818" lon="34.819942474">
<ele>330.265625</ele>
<time>2013-11-19T10:27:24Z</time>
<speed>2.560000</speed>
<extensions>
<speed>2.6</speed>
<temp>0.00</temp>
<bpm>0</bpm>
<rpm>0.00</rpm>
</extensions>
</trkpt>
<trkpt lat="31.109764099" lon="34.820053101">
<ele>331.921875</ele>
<time>2013-11-19T10:27:29Z</time>
<speed>3.460000</speed>
<extensions>
<speed>3.5</speed>
<temp>0.00</temp>
<bpm>0</bpm>
<rpm>0.00</rpm>
</extensions>
</trkpt>
<trkpt lat="31.109634399" lon="34.820182800">
<ele>332.625000</ele>
<time>2013-11-19T10:27:34Z</time>
<speed>3.680000</speed>
<extensions>
<speed>3.7</speed>
<temp>0.00</temp>
<bpm>0</bpm>
<rpm>0.00</rpm>
</extensions>
</trkpt>
<trkpt lat="31.109510422" lon="34.820289612">
<ele>333.601563</ele>
<time>2013-11-19T10:27:39Z</time>
<speed>2.990000</speed>
<extensions>
<speed>3.0</speed>
<temp>0.00</temp>
<bpm>0</bpm>
<rpm>0.00</rpm>
</extensions>
</trkpt>
<trkpt lat="31.109399796" lon="34.820396423">
<ele>335.281250</ele>
<time>2013-11-19T10:27:44Z</time>
<speed>3.490000</speed>
<extensions>
<speed>3.5</speed>
<temp>0.00</temp>
<bpm>0</bpm>
<rpm>0.00</rpm>
</extensions>
</trkpt>
<trkpt lat="31.109264374" lon="34.820518494">
<ele>336.992188</ele>
<time>2013-11-19T10:27:49Z</time>
<speed>3.420000</speed>
<extensions>
<speed>3.4</speed>
<temp>0.00</temp>
<bpm>0</bpm>
<rpm>0.00</rpm>
</extensions>
</trkpt>
<trkpt lat="31.109174728" lon="34.820594788">
<ele>338.429688</ele>
<time>2013-11-19T10:27:54Z</time>
<speed>2.340000</speed>
<extensions>
<speed>2.3</speed>
<temp>0.00</temp>
<bpm>0</bpm>
<rpm>0.00</rpm>
</extensions>
</trkpt>
<trkpt lat="31.109064102" lon="34.820682526">
<ele>341.148438</ele>
<time>2013-11-19T10:27:59Z</time>
<speed>3.320000</speed>
<extensions>
<speed>3.3</speed>
<temp>0.00</temp>
<bpm>0</bpm>
<rpm>0.00</rpm>
</extensions>
</trkpt>
<trkpt lat="31.108936310" lon="34.820789337">
<ele>341.515625</ele>
<time>2013-11-19T10:28:04Z</time>
<speed>3.620000</speed>
<extensions>
<speed>3.6</speed>
<temp>0.00</temp>
<bpm>0</bpm>
<rpm>0.00</rpm>
</extensions>
</trkpt>
<trkpt lat="31.108806610" lon="34.820922852">
<ele>342.671875</ele>
<time>2013-11-19T10:28:09Z</time>
<speed>4.120000</speed>
<extensions>
<speed>4.1</speed>
<temp>0.00</temp>
<bpm>0</bpm>
<rpm>0.00</rpm>
</extensions>
</trkpt>
<trkpt lat="31.108675003" lon="34.821056366">
<ele>343.171875</ele>
<time>2013-11-19T10:28:14Z</time>
<speed>3.660000</speed>
<extensions>
<speed>3.7</speed>
<temp>0.00</temp>
<bpm>0</bpm>
<rpm>0.00</rpm>
</extensions>
</trkpt>
<trkpt lat="31.108533859" lon="34.821197510">
<ele>344.281250</ele>
<time>2013-11-19T10:28:19Z</time>
<speed>3.740000</speed>
<extensions>
<speed>3.7</speed>
<temp>0.00</temp>
<bpm>0</bpm>
<rpm>0.00</rpm>
</extensions>
</trkpt>
<trkpt lat="31.108394623" lon="34.821323395">
<ele>345.296875</ele>
<time>2013-11-19T10:28:24Z</time>
<speed>4.140000</speed>
<extensions>
<speed>4.1</speed>
<temp>0.00</temp>
<bpm>0</bpm>
<rpm>0.00</rpm>
</extensions>
</trkpt>
<trkpt lat="31.108264923" lon="34.821449280">
<ele>345.960938</ele>
<time>2013-11-19T10:28:29Z</time>
<speed>3.870000</speed>
<extensions>
<speed>3.9</speed>
<temp>0.00</temp>
<bpm>0</bpm>
<rpm>0.00</rpm>
</extensions>
</trkpt>
<trkpt lat="31.108133316" lon="34.821571350">
<ele>346.750000</ele>
<time>2013-11-19T10:28:34Z</time>
<speed>3.680000</speed>
<extensions>
<speed>3.7</speed>
<temp>0.00</temp>
<bpm>0</bpm>
<rpm>0.00</rpm>
</extensions>
</trkpt>
<trkpt lat="31.107990265" lon="34.821701050">
<ele>348.554688</ele>
<time>2013-11-19T10:28:39Z</time>
<speed>3.680000</speed>
<extensions>
<speed>3.7</speed>
<temp>0.00</temp>
<bpm>0</bpm>
<rpm>0.00</rpm>
</extensions>
</trkpt>
<trkpt lat="31.107843399" lon="34.821826935">
<ele>349.890625</ele>
<time>2013-11-19T10:28:44Z</time>
<speed>4.230000</speed>
<extensions>
<speed>4.2</speed>
<temp>0.00</temp>
<bpm>0</bpm>
<rpm>0.00</rpm>
</extensions>
</trkpt>
<trkpt lat="31.107715607" lon="34.821945190">
<ele>350.414063</ele>
<time>2013-11-19T10:28:49Z</time>
<speed>3.500000</speed>
<extensions>
<speed>3.5</speed>
<temp>0.00</temp>
<bpm>0</bpm>
<rpm>0.00</rpm>
</extensions>
</trkpt>
<trkpt lat="31.107572556" lon="34.822078705">
<ele>351.382813</ele>
<time>2013-11-19T10:28:54Z</time>
<speed>4.320000</speed>
<extensions>
<speed>4.3</speed>
<temp>0.00</temp>
<bpm>0</bpm>
<rpm>0.00</rpm>
</extensions>
</trkpt>
<trkpt lat="31.107442856" lon="34.822200775">
<ele>352.179688</ele>
<time>2013-11-19T10:28:59Z</time>
<speed>3.190000</speed>
<extensions>
<speed>3.2</speed>
<temp>0.00</temp>
<bpm>0</bpm>
<rpm>0.00</rpm>
</extensions>
</trkpt>
<trkpt lat="31.107305527" lon="34.822319031">
<ele>353.679688</ele>
<time>2013-11-19T10:29:04Z</time>
<speed>4.480000</speed>
<extensions>
<speed>4.5</speed>
<temp>0.00</temp>
<bpm>0</bpm>
<rpm>0.00</rpm>
</extensions>
</trkpt>
<trkpt lat="31.107168198" lon="34.822448730">
<ele>354.617188</ele>
<time>2013-11-19T10:29:09Z</time>
<speed>3.400000</speed>
<extensions>
<speed>3.4</speed>
<temp>0.00</temp>
<bpm>0</bpm>
<rpm>0.00</rpm>
</extensions>
</trkpt>
<trkpt lat="31.107011795" lon="34.822597504">
<ele>356.531250</ele>
<time>2013-11-19T10:29:14Z</time>
<speed>4.430000</speed>
<extensions>
<speed>4.4</speed>
<temp>0.00</temp>
<bpm>0</bpm>
<rpm>0.00</rpm>
</extensions>
</trkpt>
<trkpt lat="31.106880188" lon="34.822723389">
<ele>356.679688</ele>
<time>2013-11-19T10:29:19Z</time>
<speed>4.180000</speed>
<extensions>
<speed>4.2</speed>
<temp>0.00</temp>
<bpm>0</bpm>
<rpm>0.00</rpm>
</extensions>
</trkpt>
<trkpt lat="31.106739044" lon="34.822845459">
<ele>356.390625</ele>
<time>2013-11-19T10:29:24Z</time>
<speed>4.230000</speed>
<extensions>
<speed>4.2</speed>
<temp>0.00</temp>
<bpm>0</bpm>
<rpm>0.00</rpm>
</extensions>
</trkpt>
<trkpt lat="31.106590271" lon="34.822986603">
<ele>356.992188</ele>
<time>2013-11-19T10:29:29Z</time>
<speed>3.800000</speed>
<extensions>
<speed>3.8</speed>
<temp>0.00</temp>
<bpm>0</bpm>
<rpm>0.00</rpm>
</extensions>
</trkpt>
<trkpt lat="31.106435776" lon="34.823131561">
<ele>357.054688</ele>
<time>2013-11-19T10:29:34Z</time>
<speed>4.590000</speed>
<extensions>
<speed>4.6</speed>
<temp>0.00</temp>
<bpm>0</bpm>
<rpm>0.00</rpm>
</extensions>
</trkpt>
<trkpt lat="31.106273651" lon="34.823276520">
<ele>358.695313</ele>
<time>2013-11-19T10:29:39Z</time>
<speed>4.720000</speed>
<extensions>
<speed>4.7</speed>
<temp>0.00</temp>
<bpm>0</bpm>
<rpm>0.00</rpm>
</extensions>
</trkpt>
<trkpt lat="31.106121063" lon="34.823413849">
<ele>358.843750</ele>
<time>2013-11-19T10:29:44Z</time>
<speed>4.310000</speed>
<extensions>
<speed>4.3</speed>
<temp>0.00</temp>
<bpm>0</bpm>
<rpm>0.00</rpm>
</extensions>
</trkpt>
<trkpt lat="31.105964661" lon="34.823570251">
<ele>357.640625</ele>
<time>2013-11-19T10:29:49Z</time>
<speed>4.350000</speed>
<extensions>
<speed>4.3</speed>
<temp>0.00</temp>
<bpm>0</bpm>
<rpm>0.00</rpm>
</extensions>
</trkpt>
<trkpt lat="31.105817795" lon="34.823715210">
<ele>357.218750</ele>
<time>2013-11-19T10:29:54Z</time>
<speed>4.630000</speed>
<extensions>
<speed>4.6</speed>
<temp>0.00</temp>
<bpm>0</bpm>
<rpm>0.00</rpm>
</extensions>
</trkpt>
<trkpt lat="31.105640411" lon="34.823863983">
<ele>357.601563</ele>
<time>2013-11-19T10:29:59Z</time>
<speed>5.020000</speed>
<extensions>
<speed>5.0</speed>
<temp>0.00</temp>
<bpm>0</bpm>
<rpm>0.00</rpm>
</extensions>
</trkpt>
<trkpt lat="31.105463028" lon="34.824020386">
<ele>357.609375</ele>
<time>2013-11-19T10:30:04Z</time>
<speed>4.590000</speed>
<extensions>
<speed>4.6</speed>
<temp>0.00</temp>
<bpm>0</bpm>
<rpm>0.00</rpm>
</extensions>
</trkpt>
<trkpt lat="31.105287552" lon="34.824165344">
<ele>357.914063</ele>
<time>2013-11-19T10:30:09Z</time>
<speed>4.790000</speed>
<extensions>
<speed>4.8</speed>
<temp>0.00</temp>
<bpm>0</bpm>
<rpm>0.00</rpm>
</extensions>
</trkpt>
<trkpt lat="31.105123520" lon="34.824279785">
<ele>357.867188</ele>
<time>2013-11-19T10:30:14Z</time>
<speed>3.960000</speed>
<extensions>
<speed>4.0</speed>
<temp>0.00</temp>
<bpm>0</bpm>
<rpm>0.00</rpm>
</extensions>
</trkpt>
<trkpt lat="31.104970932" lon="34.824298859">
<ele>354.796875</ele>
<time>2013-11-19T10:30:19Z</time>
<speed>3.380000</speed>
<extensions>
<speed>3.4</speed>
<temp>0.00</temp>
<bpm>0</bpm>
<rpm>0.00</rpm>
</extensions>
</trkpt>
<trkpt lat="31.104831696" lon="34.824268341">
<ele>352.531250</ele>
<time>2013-11-19T10:30:24Z</time>
<speed>2.900000</speed>
<extensions>
<speed>2.9</speed>
<temp>0.00</temp>
<bpm>0</bpm>
<rpm>0.00</rpm>
</extensions>
</trkpt>
<trkpt lat="31.104738235" lon="34.824207306">
<ele>350.421875</ele>
<time>2013-11-19T10:30:29Z</time>
<speed>2.250000</speed>
<extensions>
<speed>2.3</speed>
<temp>0.00</temp>
<bpm>0</bpm>
<rpm>0.00</rpm>
</extensions>
</trkpt>
<trkpt lat="31.104665756" lon="34.824153900">
<ele>349.304688</ele>
<time>2013-11-19T10:30:34Z</time>
<speed>1.260000</speed>
<extensions>
<speed>1.3</speed>
<temp>0.00</temp>
<bpm>0</bpm>
<rpm>0.00</rpm>
</extensions>
</trkpt>
<trkpt lat="31.104688644" lon="34.824134827">
<ele>348.687500</ele>
<time>2013-11-19T10:30:39Z</time>
<speed>0.150000</speed>
<extensions>
<speed>0.2</speed>
<temp>0.00</temp>
<bpm>0</bpm>
<rpm>0.00</rpm>
</extensions>
</trkpt>
<trkpt lat="31.104690552" lon="34.824134827">
<ele>348.562500</ele>
<time>2013-11-19T10:30:44Z</time>
<extensions>
<speed>0.0</speed>
<temp>0.00</temp>
<bpm>0</bpm>
<rpm>0.00</rpm>
</extensions>
</trkpt>
<trkpt lat="31.104690552" lon="34.824134827">
<ele>348.546875</ele>
<time>2013-11-19T10:30:49Z</time>
<extensions>
<speed>0.0</speed>
<temp>0.00</temp>
<bpm>0</bpm>
<rpm>0.00</rpm>
</extensions>
</trkpt>
<trkpt lat="31.104690552" lon="34.824134827">
<ele>348.562500</ele>
<time>2013-11-19T10:30:54Z</time>
<speed>0.120000</speed>
<extensions>
<speed>0.1</speed>
<temp>0.00</temp>
<bpm>0</bpm>
<rpm>0.00</rpm>
</extensions>
</trkpt>
<trkpt lat="31.104690552" lon="34.824134827">
<ele>348.554688</ele>
<time>2013-11-19T10:30:59Z</time>
<extensions>
<speed>0.0</speed>
<temp>0.00</temp>
<bpm>0</bpm>
<rpm>0.00</rpm>
</extensions>
</trkpt>
<trkpt lat="31.104690552" lon="34.824134827">
<ele>348.539063</ele>
<time>2013-11-19T10:31:04Z</time>
<extensions>
<speed>0.0</speed>
<temp>0.00</temp>
<bpm>0</bpm>
<rpm>0.00</rpm>
</extensions>
</trkpt>
<trkpt lat="31.104692459" lon="34.824134827">
<ele>348.539063</ele>
<time>2013-11-19T10:31:09Z</time>
<extensions>
<speed>0.0</speed>
<temp>0.00</temp>
<bpm>0</bpm>
<rpm>0.00</rpm>
</extensions>
</trkpt>
<trkpt lat="31.104692459" lon="34.824134827">
<ele>348.539063</ele>
<time>2013-11-19T10:31:14Z</time>
<extensions>
<speed>0.0</speed>
<temp>0.00</temp>
<bpm>0</bpm>
<rpm>0.00</rpm>
</extensions>
</trkpt>
<trkpt lat="31.104692459" lon="34.824134827">
<ele>348.593750</ele>
<time>2013-11-19T10:31:19Z</time>
<speed>0.010000</speed>
<extensions>
<speed>0.0</speed>
<temp>0.00</temp>
<bpm>0</bpm>
<rpm>0.00</rpm>
</extensions>
</trkpt>
<trkpt lat="31.104692459" lon="34.824134827">
<ele>348.585938</ele>
<time>2013-11-19T10:31:24Z</time>
<speed>0.080000</speed>
<extensions>
<speed>0.1</speed>
<temp>0.00</temp>
<bpm>0</bpm>
<rpm>0.00</rpm>
</extensions>
</trkpt>
<trkpt lat="31.104665756" lon="34.824134827">
<ele>348.539063</ele>
<time>2013-11-19T10:31:29Z</time>
<speed>0.970000</speed>
<extensions>
<speed>1.0</speed>
<temp>0.00</temp>
<bpm>0</bpm>
<rpm>0.00</rpm>
</extensions>
</trkpt>
<trkpt lat="31.104608536" lon="34.824157715">
<ele>349.531250</ele>
<time>2013-11-19T10:31:34Z</time>
<speed>1.320000</speed>
<extensions>
<speed>1.3</speed>
<temp>0.00</temp>
<bpm>0</bpm>
<rpm>0.00</rpm>
</extensions>
</trkpt>
<trkpt lat="31.104570389" lon="34.824153900">
<ele>348.765625</ele>
<time>2013-11-19T10:31:39Z</time>
<speed>0.380000</speed>
<extensions>
<speed>0.4</speed>
<temp>0.00</temp>
<bpm>0</bpm>
<rpm>0.00</rpm>
</extensions>
</trkpt>
<trkpt lat="31.104566574" lon="34.824150085">
<ele>348.796875</ele>
<time>2013-11-19T10:31:44Z</time>
<speed>0.540000</speed>
<extensions>
<speed>0.5</speed>
<temp>0.00</temp>
<bpm>0</bpm>
<rpm>0.00</rpm>
</extensions>
</trkpt>
<trkpt lat="31.104564667" lon="34.824119568">
<ele>350.632813</ele>
<time>2013-11-19T10:31:49Z</time>
<speed>0.200000</speed>
<extensions>
<speed>0.2</speed>
<temp>0.00</temp>
<bpm>0</bpm>
<rpm>0.00</rpm>
</extensions>
</trkpt>
<trkpt lat="31.104555130" lon="34.824127197">
<ele>350.679688</ele>
<time>2013-11-19T10:31:54Z</time>
<speed>0.100000</speed>
<extensions>
<speed>0.1</speed>
<temp>0.00</temp>
<bpm>0</bpm>
<rpm>0.00</rpm>
</extensions>
</trkpt>
<trkpt lat="31.104551315" lon="34.824127197">
<ele>350.757813</ele>
<time>2013-11-19T10:31:59Z</time>
<speed>0.150000</speed>
<extensions>
<speed>0.2</speed>
<temp>0.00</temp>
<bpm>0</bpm>
<rpm>0.00</rpm>
</extensions>
</trkpt>
<trkpt lat="31.104549408" lon="34.824131012">
<ele>350.828125</ele>
<time>2013-11-19T10:32:04Z</time>
<extensions>
<speed>0.0</speed>
<temp>0.00</temp>
<bpm>0</bpm>
<rpm>0.00</rpm>
</extensions>
</trkpt>
<trkpt lat="31.104547501" lon="34.824131012">
<ele>350.828125</ele>
<time>2013-11-19T10:32:09Z</time>
<speed>0.010000</speed>
<extensions>
<speed>0.0</speed>
<temp>0.00</temp>
<bpm>0</bpm>
<rpm>0.00</rpm>
</extensions>
</trkpt>
<trkpt lat="31.104549408" lon="34.824131012">
<ele>350.828125</ele>
<time>2013-11-19T10:32:14Z</time>
<speed>0.030000</speed>
<extensions>
<speed>0.0</speed>
<temp>0.00</temp>
<bpm>0</bpm>
<rpm>0.00</rpm>
</extensions>
</trkpt>
<trkpt lat="31.104549408" lon="34.824131012">
<ele>350.828125</ele>
<time>2013-11-19T10:32:19Z</time>
<extensions>
<speed>0.0</speed>
<temp>0.00</temp>
<bpm>0</bpm>
<rpm>0.00</rpm>
</extensions>
</trkpt>
<trkpt lat="31.104549408" lon="34.824131012">
<ele>350.828125</ele>
<time>2013-11-19T10:32:24Z</time>
<extensions>
<speed>0.0</speed>
<temp>0.00</temp>
<bpm>0</bpm>
<rpm>0.00</rpm>
</extensions>
</trkpt>
<trkpt lat="31.104549408" lon="34.824131012">
<ele>350.812500</ele>
<time>2013-11-19T10:32:29Z</time>
<extensions>
<speed>0.0</speed>
<temp>0.00</temp>
<bpm>0</bpm>
<rpm>0.00</rpm>
</extensions>
</trkpt>
<trkpt lat="31.104549408" lon="34.824131012">
<ele>350.796875</ele>
<time>2013-11-19T10:32:34Z</time>
<speed>0.010000</speed>
<extensions>
<speed>0.0</speed>
<temp>0.00</temp>
<bpm>0</bpm>
<rpm>0.00</rpm>
</extensions>
</trkpt>
<trkpt lat="31.104549408" lon="34.824131012">
<ele>350.773438</ele>
<time>2013-11-19T10:32:39Z</time>
<speed>0.010000</speed>
<extensions>
<speed>0.0</speed>
<temp>0.00</temp>
<bpm>0</bpm>
<rpm>0.00</rpm>
</extensions>
</trkpt>
<trkpt lat="31.104549408" lon="34.824131012">
<ele>350.757813</ele>
<time>2013-11-19T10:32:44Z</time>
<extensions>
<speed>0.0</speed>
<temp>0.00</temp>
<bpm>0</bpm>
<rpm>0.00</rpm>
</extensions>
</trkpt>
<trkpt lat="31.104547501" lon="34.824131012">
<ele>350.742188</ele>
<time>2013-11-19T10:32:49Z</time>
<speed>0.020000</speed>
<extensions>
<speed>0.0</speed>
<temp>0.00</temp>
<bpm>0</bpm>
<rpm>0.00</rpm>
</extensions>
</trkpt>
<trkpt lat="31.104547501" lon="34.824131012">
<ele>350.742188</ele>
<time>2013-11-19T10:32:54Z</time>
<extensions>
<speed>0.0</speed>
<temp>0.00</temp>
<bpm>0</bpm>
<rpm>0.00</rpm>
</extensions>
</trkpt>
<trkpt lat="31.104547501" lon="34.824131012">
<ele>350.750000</ele>
<time>2013-11-19T10:32:59Z</time>
<extensions>
<speed>0.0</speed>
<temp>0.00</temp>
<bpm>0</bpm>
<rpm>0.00</rpm>
</extensions>
</trkpt>
<trkpt lat="31.104547501" lon="34.824131012">
<ele>350.750000</ele>
<time>2013-11-19T10:33:04Z</time>
<extensions>
<speed>0.0</speed>
<temp>0.00</temp>
<bpm>0</bpm>
<rpm>0.00</rpm>
</extensions>
</trkpt>
<trkpt lat="31.104547501" lon="34.824131012">
<ele>350.765625</ele>
<time>2013-11-19T10:33:09Z</time>
<extensions>
<speed>0.0</speed>
<temp>0.00</temp>
<bpm>0</bpm>
<rpm>0.00</rpm>
</extensions>
</trkpt>
<trkpt lat="31.104547501" lon="34.824131012">
<ele>350.773438</ele>
<time>2013-11-19T10:33:14Z</time>
<extensions>
<speed>0.0</speed>
<temp>0.00</temp>
<bpm>0</bpm>
<rpm>0.00</rpm>
</extensions>
</trkpt>
<trkpt lat="31.104547501" lon="34.824131012">
<ele>350.765625</ele>
<time>2013-11-19T10:33:19Z</time>
<extensions>
<speed>0.0</speed>
<temp>0.00</temp>
<bpm>0</bpm>
<rpm>0.00</rpm>
</extensions>
</trkpt>
<trkpt lat="31.104547501" lon="34.824131012">
<ele>350.750000</ele>
<time>2013-11-19T10:33:24Z</time>
<speed>0.010000</speed>
<extensions>
<speed>0.0</speed>
<temp>0.00</temp>
<bpm>0</bpm>
<rpm>0.00</rpm>
</extensions>
</trkpt>
<trkpt lat="31.104547501" lon="34.824131012">
<ele>350.742188</ele>
<time>2013-11-19T10:33:29Z</time>
<extensions>
<speed>0.0</speed>
<temp>0.00</temp>
<bpm>0</bpm>
<rpm>0.00</rpm>
</extensions>
</trkpt>
<trkpt lat="31.104547501" lon="34.824131012">
<ele>350.734375</ele>
<time>2013-11-19T10:33:34Z</time>
<extensions>
<speed>0.0</speed>
<temp>0.00</temp>
<bpm>0</bpm>
<rpm>0.00</rpm>
</extensions>
</trkpt>
<trkpt lat="31.104547501" lon="34.824131012">
<ele>350.734375</ele>
<time>2013-11-19T10:33:39Z</time>
<extensions>
<speed>0.0</speed>
<temp>0.00</temp>
<bpm>0</bpm>
<rpm>0.00</rpm>
</extensions>
</trkpt>
<trkpt lat="31.104547501" lon="34.824131012">
<ele>350.726563</ele>
<time>2013-11-19T10:33:44Z</time>
<speed>0.010000</speed>
<extensions>
<speed>0.0</speed>
<temp>0.00</temp>
<bpm>0</bpm>
<rpm>0.00</rpm>
</extensions>
</trkpt>
<trkpt lat="31.104547501" lon="34.824131012">
<ele>350.726563</ele>
<time>2013-11-19T10:33:49Z</time>
<extensions>
<speed>0.0</speed>
<temp>0.00</temp>
<bpm>0</bpm>
<rpm>0.00</rpm>
</extensions>
</trkpt>
<trkpt lat="31.104547501" lon="34.824131012">
<ele>350.718750</ele>
<time>2013-11-19T10:33:54Z</time>
<extensions>
<speed>0.0</speed>
<temp>0.00</temp>
<bpm>0</bpm>
<rpm>0.00</rpm>
</extensions>
</trkpt>
<trkpt lat="31.104547501" lon="34.824131012">
<ele>350.710938</ele>
<time>2013-11-19T10:33:59Z</time>
<extensions>
<speed>0.0</speed>
<temp>0.00</temp>
<bpm>0</bpm>
<rpm>0.00</rpm>
</extensions>
</trkpt>
<trkpt lat="31.104547501" lon="34.824131012">
<ele>350.703125</ele>
<time>2013-11-19T10:34:04Z</time>
<speed>0.010000</speed>
<extensions>
<speed>0.0</speed>
<temp>0.00</temp>
<bpm>0</bpm>
<rpm>0.00</rpm>
</extensions>
</trkpt>
<trkpt lat="31.104547501" lon="34.824131012">
<ele>350.703125</ele>
<time>2013-11-19T10:34:09Z</time>
<extensions>
<speed>0.0</speed>
<temp>0.00</temp>
<bpm>0</bpm>
<rpm>0.00</rpm>
</extensions>
</trkpt>
<trkpt lat="31.104547501" lon="34.824131012">
<ele>350.695313</ele>
<time>2013-11-19T10:34:14Z</time>
<extensions>
<speed>0.0</speed>
<temp>0.00</temp>
<bpm>0</bpm>
<rpm>0.00</rpm>
</extensions>
</trkpt>
<trkpt lat="31.104547501" lon="34.824131012">
<ele>350.687500</ele>
<time>2013-11-19T10:34:19Z</time>
<extensions>
<speed>0.0</speed>
<temp>0.00</temp>
<bpm>0</bpm>
<rpm>0.00</rpm>
</extensions>
</trkpt>
<trkpt lat="31.104545593" lon="34.824131012">
<ele>350.687500</ele>
<time>2013-11-19T10:34:24Z</time>
<speed>0.010000</speed>
<extensions>
<speed>0.0</speed>
<temp>0.00</temp>
<bpm>0</bpm>
<rpm>0.00</rpm>
</extensions>
</trkpt>
<trkpt lat="31.104545593" lon="34.824131012">
<ele>350.687500</ele>
<time>2013-11-19T10:34:29Z</time>
<extensions>
<speed>0.0</speed>
<temp>0.00</temp>
<bpm>0</bpm>
<rpm>0.00</rpm>
</extensions>
</trkpt>
<trkpt lat="31.104545593" lon="34.824131012">
<ele>350.679688</ele>
<time>2013-11-19T10:34:34Z</time>
<speed>0.010000</speed>
<extensions>
<speed>0.0</speed>
<temp>0.00</temp>
<bpm>0</bpm>
<rpm>0.00</rpm>
</extensions>
</trkpt>
<trkpt lat="31.104545593" lon="34.824131012">
<ele>350.671875</ele>
<time>2013-11-19T10:34:39Z</time>
<extensions>
<speed>0.0</speed>
<temp>0.00</temp>
<bpm>0</bpm>
<rpm>0.00</rpm>
</extensions>
</trkpt>
<trkpt lat="31.104545593" lon="34.824131012">
<ele>350.664063</ele>
<time>2013-11-19T10:34:44Z</time>
<extensions>
<speed>0.0</speed>
<temp>0.00</temp>
<bpm>0</bpm>
<rpm>0.00</rpm>
</extensions>
</trkpt>
<trkpt lat="31.104545593" lon="34.824131012">
<ele>350.656250</ele>
<time>2013-11-19T10:34:49Z</time>
<extensions>
<speed>0.0</speed>
<temp>0.00</temp>
<bpm>0</bpm>
<rpm>0.00</rpm>
</extensions>
</trkpt>
<trkpt lat="31.104545593" lon="34.824131012">
<ele>350.648438</ele>
<time>2013-11-19T10:34:54Z</time>
<extensions>
<speed>0.0</speed>
<temp>0.00</temp>
<bpm>0</bpm>
<rpm>0.00</rpm>
</extensions>
</trkpt>
<trkpt lat="31.104545593" lon="34.824131012">
<ele>350.648438</ele>
<time>2013-11-19T10:34:59Z</time>
<speed>0.010000</speed>
<extensions>
<speed>0.0</speed>
<temp>0.00</temp>
<bpm>0</bpm>
<rpm>0.00</rpm>
</extensions>
</trkpt>
<trkpt lat="31.104545593" lon="34.824131012">
<ele>350.632813</ele>
<time>2013-11-19T10:35:04Z</time>
<extensions>
<speed>0.0</speed>
<temp>0.00</temp>
<bpm>0</bpm>
<rpm>0.00</rpm>
</extensions>
</trkpt>
<trkpt lat="31.104545593" lon="34.824131012">
<ele>350.625000</ele>
<time>2013-11-19T10:35:09Z</time>
<extensions>
<speed>0.0</speed>
<temp>0.00</temp>
<bpm>0</bpm>
<rpm>0.00</rpm>
</extensions>
</trkpt>
<trkpt lat="31.104545593" lon="34.824131012">
<ele>350.617188</ele>
<time>2013-11-19T10:35:14Z</time>
<extensions>
<speed>0.0</speed>
<temp>0.00</temp>
<bpm>0</bpm>
<rpm>0.00</rpm>
</extensions>
</trkpt>
<trkpt lat="31.104545593" lon="34.824131012">
<ele>350.609375</ele>
<time>2013-11-19T10:35:19Z</time>
<extensions>
<speed>0.0</speed>
<temp>0.00</temp>
<bpm>0</bpm>
<rpm>0.00</rpm>
</extensions>
</trkpt>
<trkpt lat="31.104545593" lon="34.824131012">
<ele>350.601563</ele>
<time>2013-11-19T10:35:24Z</time>
<extensions>
<speed>0.0</speed>
<temp>0.00</temp>
<bpm>0</bpm>
<rpm>0.00</rpm>
</extensions>
</trkpt>
<trkpt lat="31.104545593" lon="34.824131012">
<ele>350.601563</ele>
<time>2013-11-19T10:35:29Z</time>
<extensions>
<speed>0.0</speed>
<temp>0.00</temp>
<bpm>0</bpm>
<rpm>0.00</rpm>
</extensions>
</trkpt>
<trkpt lat="31.104545593" lon="34.824131012">
<ele>350.601563</ele>
<time>2013-11-19T10:35:34Z</time>
<extensions>
<speed>0.0</speed>
<temp>0.00</temp>
<bpm>0</bpm>
<rpm>0.00</rpm>
</extensions>
</trkpt>
<trkpt lat="31.104545593" lon="34.824131012">
<ele>350.593750</ele>
<time>2013-11-19T10:35:39Z</time>
<extensions>
<speed>0.0</speed>
<temp>0.00</temp>
<bpm>0</bpm>
<rpm>0.00</rpm>
</extensions>
</trkpt>
<trkpt lat="31.104543686" lon="34.824131012">
<ele>350.593750</ele>
<time>2013-11-19T10:35:44Z</time>
<extensions>
<speed>0.0</speed>
<temp>0.00</temp>
<bpm>0</bpm>
<rpm>0.00</rpm>
</extensions>
</trkpt>
<trkpt lat="31.104543686" lon="34.824131012">
<ele>350.585938</ele>
<time>2013-11-19T10:35:49Z</time>
<speed>0.010000</speed>
<extensions>
<speed>0.0</speed>
<temp>0.00</temp>
<bpm>0</bpm>
<rpm>0.00</rpm>
</extensions>
</trkpt>
<trkpt lat="31.104543686" lon="34.824131012">
<ele>350.578125</ele>
<time>2013-11-19T10:35:54Z</time>
<extensions>
<speed>0.0</speed>
<temp>0.00</temp>
<bpm>0</bpm>
<rpm>0.00</rpm>
</extensions>
</trkpt>
<trkpt lat="31.104543686" lon="34.824127197">
<ele>350.562500</ele>
<time>2013-11-19T10:35:59Z</time>
<extensions>
<speed>0.0</speed>
<temp>0.00</temp>
<bpm>0</bpm>
<rpm>0.00</rpm>
</extensions>
</trkpt>
<trkpt lat="31.104543686" lon="34.824127197">
<ele>350.554688</ele>
<time>2013-11-19T10:36:04Z</time>
<extensions>
<speed>0.0</speed>
<temp>0.00</temp>
<bpm>0</bpm>
<rpm>0.00</rpm>
</extensions>
</trkpt>
<trkpt lat="31.104543686" lon="34.824127197">
<ele>350.554688</ele>
<time>2013-11-19T10:36:09Z</time>
<extensions>
<speed>0.0</speed>
<temp>0.00</temp>
<bpm>0</bpm>
<rpm>0.00</rpm>
</extensions>
</trkpt>
<trkpt lat="31.104543686" lon="34.824127197">
<ele>350.546875</ele>
<time>2013-11-19T10:36:14Z</time>
<extensions>
<speed>0.0</speed>
<temp>0.00</temp>
<bpm>0</bpm>
<rpm>0.00</rpm>
</extensions>
</trkpt>
<trkpt lat="31.104543686" lon="34.824127197">
<ele>350.546875</ele>
<time>2013-11-19T10:36:19Z</time>
<extensions>
<speed>0.0</speed>
<temp>0.00</temp>
<bpm>0</bpm>
<rpm>0.00</rpm>
</extensions>
</trkpt>
<trkpt lat="31.104543686" lon="34.824127197">
<ele>350.546875</ele>
<time>2013-11-19T10:36:24Z</time>
<extensions>
<speed>0.0</speed>
<temp>0.00</temp>
<bpm>0</bpm>
<rpm>0.00</rpm>
</extensions>
</trkpt>
<trkpt lat="31.104543686" lon="34.824127197">
<ele>350.539063</ele>
<time>2013-11-19T10:36:29Z</time>
<extensions>
<speed>0.0</speed>
<temp>0.00</temp>
<bpm>0</bpm>
<rpm>0.00</rpm>
</extensions>
</trkpt>
<trkpt lat="31.104543686" lon="34.824127197">
<ele>350.539063</ele>
<time>2013-11-19T10:36:34Z</time>
<extensions>
<speed>0.0</speed>
<temp>0.00</temp>
<bpm>0</bpm>
<rpm>0.00</rpm>
</extensions>
</trkpt>
<trkpt lat="31.104543686" lon="34.824127197">
<ele>350.531250</ele>
<time>2013-11-19T10:36:39Z</time>
<speed>0.010000</speed>
<extensions>
<speed>0.0</speed>
<temp>0.00</temp>
<bpm>0</bpm>
<rpm>0.00</rpm>
</extensions>
</trkpt>
<trkpt lat="31.104541779" lon="34.824127197">
<ele>350.523438</ele>
<time>2013-11-19T10:36:44Z</time>
<extensions>
<speed>0.0</speed>
<temp>0.00</temp>
<bpm>0</bpm>
<rpm>0.00</rpm>
</extensions>
</trkpt>
<trkpt lat="31.104541779" lon="34.824127197">
<ele>350.523438</ele>
<time>2013-11-19T10:36:49Z</time>
<extensions>
<speed>0.0</speed>
<temp>0.00</temp>
<bpm>0</bpm>
<rpm>0.00</rpm>
</extensions>
</trkpt>
<trkpt lat="31.104541779" lon="34.824127197">
<ele>350.515625</ele>
<time>2013-11-19T10:36:54Z</time>
<extensions>
<speed>0.0</speed>
<temp>0.00</temp>
<bpm>0</bpm>
<rpm>0.00</rpm>
</extensions>
</trkpt>
<trkpt lat="31.104541779" lon="34.824127197">
<ele>350.515625</ele>
<time>2013-11-19T10:36:59Z</time>
<extensions>
<speed>0.0</speed>
<temp>0.00</temp>
<bpm>0</bpm>
<rpm>0.00</rpm>
</extensions>
</trkpt>
<trkpt lat="31.104541779" lon="34.824127197">
<ele>350.507813</ele>
<time>2013-11-19T10:37:04Z</time>
<extensions>
<speed>0.0</speed>
<temp>0.00</temp>
<bpm>0</bpm>
<rpm>0.00</rpm>
</extensions>
</trkpt>
<trkpt lat="31.104541779" lon="34.824127197">
<ele>350.507813</ele>
<time>2013-11-19T10:37:09Z</time>
<extensions>
<speed>0.0</speed>
<temp>0.00</temp>
<bpm>0</bpm>
<rpm>0.00</rpm>
</extensions>
</trkpt>
<trkpt lat="31.104541779" lon="34.824127197">
<ele>350.515625</ele>
<time>2013-11-19T10:37:14Z</time>
<speed>0.010000</speed>
<extensions>
<speed>0.0</speed>
<temp>0.00</temp>
<bpm>0</bpm>
<rpm>0.00</rpm>
</extensions>
</trkpt>
<trkpt lat="31.104541779" lon="34.824127197">
<ele>350.515625</ele>
<time>2013-11-19T10:37:19Z</time>
<speed>0.010000</speed>
<extensions>
<speed>0.0</speed>
<temp>0.00</temp>
<bpm>0</bpm>
<rpm>0.00</rpm>
</extensions>
</trkpt>
<trkpt lat="31.104541779" lon="34.824127197">
<ele>350.523438</ele>
<time>2013-11-19T10:37:24Z</time>
<speed>0.010000</speed>
<extensions>
<speed>0.0</speed>
<temp>0.00</temp>
<bpm>0</bpm>
<rpm>0.00</rpm>
</extensions>
</trkpt>
<trkpt lat="31.104541779" lon="34.824127197">
<ele>350.523438</ele>
<time>2013-11-19T10:37:29Z</time>
<extensions>
<speed>0.0</speed>
<temp>0.00</temp>
<bpm>0</bpm>
<rpm>0.00</rpm>
</extensions>
</trkpt>
<trkpt lat="31.104541779" lon="34.824127197">
<ele>350.531250</ele>
<time>2013-11-19T10:37:34Z</time>
<extensions>
<speed>0.0</speed>
<temp>0.00</temp>
<bpm>0</bpm>
<rpm>0.00</rpm>
</extensions>
</trkpt>
<trkpt lat="31.104541779" lon="34.824127197">
<ele>350.531250</ele>
<time>2013-11-19T10:37:39Z</time>
<extensions>
<speed>0.0</speed>
<temp>0.00</temp>
<bpm>0</bpm>
<rpm>0.00</rpm>
</extensions>
</trkpt>
<trkpt lat="31.104541779" lon="34.824127197">
<ele>350.531250</ele>
<time>2013-11-19T10:37:44Z</time>
<extensions>
<speed>0.0</speed>
<temp>0.00</temp>
<bpm>0</bpm>
<rpm>0.00</rpm>
</extensions>
</trkpt>
<trkpt lat="31.104541779" lon="34.824127197">
<ele>350.539063</ele>
<time>2013-11-19T10:37:49Z</time>
<extensions>
<speed>0.0</speed>
<temp>0.00</temp>
<bpm>0</bpm>
<rpm>0.00</rpm>
</extensions>
</trkpt>
<trkpt lat="31.104541779" lon="34.824127197">
<ele>350.531250</ele>
<time>2013-11-19T10:37:54Z</time>
<extensions>
<speed>0.0</speed>
<temp>0.00</temp>
<bpm>0</bpm>
<rpm>0.00</rpm>
</extensions>
</trkpt>
<trkpt lat="31.104541779" lon="34.824127197">
<ele>350.531250</ele>
<time>2013-11-19T10:37:59Z</time>
<extensions>
<speed>0.0</speed>
<temp>0.00</temp>
<bpm>0</bpm>
<rpm>0.00</rpm>
</extensions>
</trkpt>
<trkpt lat="31.104541779" lon="34.824127197">
<ele>350.531250</ele>
<time>2013-11-19T10:38:04Z</time>
<extensions>
<speed>0.0</speed>
<temp>0.00</temp>
<bpm>0</bpm>
<rpm>0.00</rpm>
</extensions>
</trkpt>
<trkpt lat="31.104541779" lon="34.824127197">
<ele>350.531250</ele>
<time>2013-11-19T10:38:09Z</time>
<extensions>
<speed>0.0</speed>
<temp>0.00</temp>
<bpm>0</bpm>
<rpm>0.00</rpm>
</extensions>
</trkpt>
<trkpt lat="31.104541779" lon="34.824127197">
<ele>350.531250</ele>
<time>2013-11-19T10:38:14Z</time>
<speed>0.010000</speed>
<extensions>
<speed>0.0</speed>
<temp>0.00</temp>
<bpm>0</bpm>
<rpm>0.00</rpm>
</extensions>
</trkpt>
<trkpt lat="31.104539871" lon="34.824127197">
<ele>350.531250</ele>
<time>2013-11-19T10:38:19Z</time>
<extensions>
<speed>0.0</speed>
<temp>0.00</temp>
<bpm>0</bpm>
<rpm>0.00</rpm>
</extensions>
</trkpt>
<trkpt lat="31.104539871" lon="34.824127197">
<ele>350.531250</ele>
<time>2013-11-19T10:38:24Z</time>
<speed>0.010000</speed>
<extensions>
<speed>0.0</speed>
<temp>0.00</temp>
<bpm>0</bpm>
<rpm>0.00</rpm>
</extensions>
</trkpt>
<trkpt lat="31.104539871" lon="34.824127197">
<ele>350.531250</ele>
<time>2013-11-19T10:38:29Z</time>
<extensions>
<speed>0.0</speed>
<temp>0.00</temp>
<bpm>0</bpm>
<rpm>0.00</rpm>
</extensions>
</trkpt>
<trkpt lat="31.104539871" lon="34.824127197">
<ele>350.523438</ele>
<time>2013-11-19T10:38:34Z</time>
<extensions>
<speed>0.0</speed>
<temp>0.00</temp>
<bpm>0</bpm>
<rpm>0.00</rpm>
</extensions>
</trkpt>
<trkpt lat="31.104539871" lon="34.824127197">
<ele>350.523438</ele>
<time>2013-11-19T10:38:39Z</time>
<extensions>
<speed>0.0</speed>
<temp>0.00</temp>
<bpm>0</bpm>
<rpm>0.00</rpm>
</extensions>
</trkpt>
<trkpt lat="31.104539871" lon="34.824127197">
<ele>350.515625</ele>
<time>2013-11-19T10:38:44Z</time>
<extensions>
<speed>0.0</speed>
<temp>0.00</temp>
<bpm>0</bpm>
<rpm>0.00</rpm>
</extensions>
</trkpt>
<trkpt lat="31.104539871" lon="34.824127197">
<ele>350.515625</ele>
<time>2013-11-19T10:38:49Z</time>
<extensions>
<speed>0.0</speed>
<temp>0.00</temp>
<bpm>0</bpm>
<rpm>0.00</rpm>
</extensions>
</trkpt>
<trkpt lat="31.104539871" lon="34.824127197">
<ele>350.515625</ele>
<time>2013-11-19T10:38:54Z</time>
<extensions>
<speed>0.0</speed>
<temp>0.00</temp>
<bpm>0</bpm>
<rpm>0.00</rpm>
</extensions>
</trkpt>
<trkpt lat="31.104539871" lon="34.824127197">
<ele>350.523438</ele>
<time>2013-11-19T10:38:59Z</time>
<extensions>
<speed>0.0</speed>
<temp>0.00</temp>
<bpm>0</bpm>
<rpm>0.00</rpm>
</extensions>
</trkpt>
<trkpt lat="31.104539871" lon="34.824127197">
<ele>350.523438</ele>
<time>2013-11-19T10:39:04Z</time>
<speed>0.010000</speed>
<extensions>
<speed>0.0</speed>
<temp>0.00</temp>
<bpm>0</bpm>
<rpm>0.00</rpm>
</extensions>
</trkpt>
<trkpt lat="31.104539871" lon="34.824127197">
<ele>350.539063</ele>
<time>2013-11-19T10:39:09Z</time>
<extensions>
<speed>0.0</speed>
<temp>0.00</temp>
<bpm>0</bpm>
<rpm>0.00</rpm>
</extensions>
</trkpt>
<trkpt lat="31.104537964" lon="34.824127197">
<ele>350.562500</ele>
<time>2013-11-19T10:39:14Z</time>
<extensions>
<speed>0.0</speed>
<temp>0.00</temp>
<bpm>0</bpm>
<rpm>0.00</rpm>
</extensions>
</trkpt>
<trkpt lat="31.104537964" lon="34.824127197">
<ele>350.578125</ele>
<time>2013-11-19T10:39:19Z</time>
<extensions>
<speed>0.0</speed>
<temp>0.00</temp>
<bpm>0</bpm>
<rpm>0.00</rpm>
</extensions>
</trkpt>
<trkpt lat="31.104537964" lon="34.824127197">
<ele>350.601563</ele>
<time>2013-11-19T10:39:24Z</time>
<extensions>
<speed>0.0</speed>
<temp>0.00</temp>
<bpm>0</bpm>
<rpm>0.00</rpm>
</extensions>
</trkpt>
<trkpt lat="31.104537964" lon="34.824127197">
<ele>350.601563</ele>
<time>2013-11-19T10:39:29Z</time>
<extensions>
<speed>0.0</speed>
<temp>0.00</temp>
<bpm>0</bpm>
<rpm>0.00</rpm>
</extensions>
</trkpt>
<trkpt lat="31.104537964" lon="34.824127197">
<ele>350.601563</ele>
<time>2013-11-19T10:39:34Z</time>
<extensions>
<speed>0.0</speed>
<temp>0.00</temp>
<bpm>0</bpm>
<rpm>0.00</rpm>
</extensions>
</trkpt>
<trkpt lat="31.104537964" lon="34.824127197">
<ele>350.593750</ele>
<time>2013-11-19T10:39:39Z</time>
<extensions>
<speed>0.0</speed>
<temp>0.00</temp>
<bpm>0</bpm>
<rpm>0.00</rpm>
</extensions>
</trkpt>
<trkpt lat="31.104537964" lon="34.824127197">
<ele>350.578125</ele>
<time>2013-11-19T10:39:44Z</time>
<extensions>
<speed>0.0</speed>
<temp>0.00</temp>
<bpm>0</bpm>
<rpm>0.00</rpm>
</extensions>
</trkpt>
<trkpt lat="31.104537964" lon="34.824127197">
<ele>350.570313</ele>
<time>2013-11-19T10:39:49Z</time>
<extensions>
<speed>0.0</speed>
<temp>0.00</temp>
<bpm>0</bpm>
<rpm>0.00</rpm>
</extensions>
</trkpt>
<trkpt lat="31.104537964" lon="34.824127197">
<ele>350.562500</ele>
<time>2013-11-19T10:39:54Z</time>
<extensions>
<speed>0.0</speed>
<temp>0.00</temp>
<bpm>0</bpm>
<rpm>0.00</rpm>
</extensions>
</trkpt>
<trkpt lat="31.104537964" lon="34.824127197">
<ele>350.554688</ele>
<time>2013-11-19T10:39:59Z</time>
<extensions>
<speed>0.0</speed>
<temp>0.00</temp>
<bpm>0</bpm>
<rpm>0.00</rpm>
</extensions>
</trkpt>
<trkpt lat="31.104537964" lon="34.824127197">
<ele>350.546875</ele>
<time>2013-11-19T10:40:04Z</time>
<extensions>
<speed>0.0</speed>
<temp>0.00</temp>
<bpm>0</bpm>
<rpm>0.00</rpm>
</extensions>
</trkpt>
<trkpt lat="31.104537964" lon="34.824127197">
<ele>350.531250</ele>
<time>2013-11-19T10:40:09Z</time>
<extensions>
<speed>0.0</speed>
<temp>0.00</temp>
<bpm>0</bpm>
<rpm>0.00</rpm>
</extensions>
</trkpt>
<trkpt lat="31.104537964" lon="34.824123383">
<ele>350.515625</ele>
<time>2013-11-19T10:40:14Z</time>
<extensions>
<speed>0.0</speed>
<temp>0.00</temp>
<bpm>0</bpm>
<rpm>0.00</rpm>
</extensions>
</trkpt>
<trkpt lat="31.104537964" lon="34.824123383">
<ele>350.507813</ele>
<time>2013-11-19T10:40:19Z</time>
<extensions>
<speed>0.0</speed>
<temp>0.00</temp>
<bpm>0</bpm>
<rpm>0.00</rpm>
</extensions>
</trkpt>
<trkpt lat="31.104536057" lon="34.824123383">
<ele>350.484375</ele>
<time>2013-11-19T10:40:24Z</time>
<extensions>
<speed>0.0</speed>
<temp>0.00</temp>
<bpm>0</bpm>
<rpm>0.00</rpm>
</extensions>
</trkpt>
<trkpt lat="31.104536057" lon="34.824123383">
<ele>350.460938</ele>
<time>2013-11-19T10:40:29Z</time>
<extensions>
<speed>0.0</speed>
<temp>0.00</temp>
<bpm>0</bpm>
<rpm>0.00</rpm>
</extensions>
</trkpt>
<trkpt lat="31.104536057" lon="34.824123383">
<ele>350.429688</ele>
<time>2013-11-19T10:40:34Z</time>
<extensions>
<speed>0.0</speed>
<temp>0.00</temp>
<bpm>0</bpm>
<rpm>0.00</rpm>
</extensions>
</trkpt>
<trkpt lat="31.104536057" lon="34.824123383">
<ele>350.414063</ele>
<time>2013-11-19T10:40:39Z</time>
<extensions>
<speed>0.0</speed>
<temp>0.00</temp>
<bpm>0</bpm>
<rpm>0.00</rpm>
</extensions>
</trkpt>
<trkpt lat="31.104536057" lon="34.824123383">
<ele>350.390625</ele>
<time>2013-11-19T10:40:44Z</time>
<extensions>
<speed>0.0</speed>
<temp>0.00</temp>
<bpm>0</bpm>
<rpm>0.00</rpm>
</extensions>
</trkpt>
<trkpt lat="31.104536057" lon="34.824123383">
<ele>350.367188</ele>
<time>2013-11-19T10:40:49Z</time>
<extensions>
<speed>0.0</speed>
<temp>0.00</temp>
<bpm>0</bpm>
<rpm>0.00</rpm>
</extensions>
</trkpt>
<trkpt lat="31.104536057" lon="34.824123383">
<ele>350.359375</ele>
<time>2013-11-19T10:40:54Z</time>
<speed>0.010000</speed>
<extensions>
<speed>0.0</speed>
<temp>0.00</temp>
<bpm>0</bpm>
<rpm>0.00</rpm>
</extensions>
</trkpt>
<trkpt lat="31.104536057" lon="34.824123383">
<ele>350.335938</ele>
<time>2013-11-19T10:40:59Z</time>
<extensions>
<speed>0.0</speed>
<temp>0.00</temp>
<bpm>0</bpm>
<rpm>0.00</rpm>
</extensions>
</trkpt>
<trkpt lat="31.104536057" lon="34.824123383">
<ele>350.312500</ele>
<time>2013-11-19T10:41:04Z</time>
<extensions>
<speed>0.0</speed>
<temp>0.00</temp>
<bpm>0</bpm>
<rpm>0.00</rpm>
</extensions>
</trkpt>
<trkpt lat="31.104536057" lon="34.824123383">
<ele>350.289063</ele>
<time>2013-11-19T10:41:09Z</time>
<extensions>
<speed>0.0</speed>
<temp>0.00</temp>
<bpm>0</bpm>
<rpm>0.00</rpm>
</extensions>
</trkpt>
<trkpt lat="31.104534149" lon="34.824123383">
<ele>350.281250</ele>
<time>2013-11-19T10:41:14Z</time>
<speed>0.010000</speed>
<extensions>
<speed>0.0</speed>
<temp>0.00</temp>
<bpm>0</bpm>
<rpm>0.00</rpm>
</extensions>
</trkpt>
<trkpt lat="31.104534149" lon="34.824123383">
<ele>350.265625</ele>
<time>2013-11-19T10:41:19Z</time>
<extensions>
<speed>0.0</speed>
<temp>0.00</temp>
<bpm>0</bpm>
<rpm>0.00</rpm>
</extensions>
</trkpt>
<trkpt lat="31.104534149" lon="34.824123383">
<ele>350.273438</ele>
<time>2013-11-19T10:41:24Z</time>
<extensions>
<speed>0.0</speed>
<temp>0.00</temp>
<bpm>0</bpm>
<rpm>0.00</rpm>
</extensions>
</trkpt>
<trkpt lat="31.104534149" lon="34.824123383">
<ele>350.273438</ele>
<time>2013-11-19T10:41:29Z</time>
<extensions>
<speed>0.0</speed>
<temp>0.00</temp>
<bpm>0</bpm>
<rpm>0.00</rpm>
</extensions>
</trkpt>
<trkpt lat="31.104534149" lon="34.824123383">
<ele>350.281250</ele>
<time>2013-11-19T10:41:34Z</time>
<extensions>
<speed>0.0</speed>
<temp>0.00</temp>
<bpm>0</bpm>
<rpm>0.00</rpm>
</extensions>
</trkpt>
<trkpt lat="31.104534149" lon="34.824123383">
<ele>350.281250</ele>
<time>2013-11-19T10:41:39Z</time>
<extensions>
<speed>0.0</speed>
<temp>0.00</temp>
<bpm>0</bpm>
<rpm>0.00</rpm>
</extensions>
</trkpt>
<trkpt lat="31.104534149" lon="34.824119568">
<ele>350.273438</ele>
<time>2013-11-19T10:41:44Z</time>
<speed>0.010000</speed>
<extensions>
<speed>0.0</speed>
<temp>0.00</temp>
<bpm>0</bpm>
<rpm>0.00</rpm>
</extensions>
</trkpt>
<trkpt lat="31.104534149" lon="34.824119568">
<ele>350.265625</ele>
<time>2013-11-19T10:41:49Z</time>
<extensions>
<speed>0.0</speed>
<temp>0.00</temp>
<bpm>0</bpm>
<rpm>0.00</rpm>
</extensions>
</trkpt>
<trkpt lat="31.104534149" lon="34.824119568">
<ele>350.257813</ele>
<time>2013-11-19T10:41:54Z</time>
<extensions>
<speed>0.0</speed>
<temp>0.00</temp>
<bpm>0</bpm>
<rpm>0.00</rpm>
</extensions>
</trkpt>
<trkpt lat="31.104534149" lon="34.824119568">
<ele>350.242188</ele>
<time>2013-11-19T10:41:59Z</time>
<extensions>
<speed>0.0</speed>
<temp>0.00</temp>
<bpm>0</bpm>
<rpm>0.00</rpm>
</extensions>
</trkpt>
<trkpt lat="31.104534149" lon="34.824119568">
<ele>350.226563</ele>
<time>2013-11-19T10:42:04Z</time>
<extensions>
<speed>0.0</speed>
<temp>0.00</temp>
<bpm>0</bpm>
<rpm>0.00</rpm>
</extensions>
</trkpt>
<trkpt lat="31.104534149" lon="34.824119568">
<ele>350.203125</ele>
<time>2013-11-19T10:42:09Z</time>
<extensions>
<speed>0.0</speed>
<temp>0.00</temp>
<bpm>0</bpm>
<rpm>0.00</rpm>
</extensions>
</trkpt>
<trkpt lat="31.104534149" lon="34.824119568">
<ele>350.171875</ele>
<time>2013-11-19T10:42:14Z</time>
<speed>0.010000</speed>
<extensions>
<speed>0.0</speed>
<temp>0.00</temp>
<bpm>0</bpm>
<rpm>0.00</rpm>
</extensions>
</trkpt>
<trkpt lat="31.104532242" lon="34.824119568">
<ele>350.132813</ele>
<time>2013-11-19T10:42:19Z</time>
<speed>0.010000</speed>
<extensions>
<speed>0.0</speed>
<temp>0.00</temp>
<bpm>0</bpm>
<rpm>0.00</rpm>
</extensions>
</trkpt>
<trkpt lat="31.104532242" lon="34.824119568">
<ele>350.078125</ele>
<time>2013-11-19T10:42:24Z</time>
<extensions>
<speed>0.0</speed>
<temp>0.00</temp>
<bpm>0</bpm>
<rpm>0.00</rpm>
</extensions>
</trkpt>
<trkpt lat="31.104532242" lon="34.824119568">
<ele>350.062500</ele>
<time>2013-11-19T10:42:29Z</time>
<extensions>
<speed>0.0</speed>
<temp>0.00</temp>
<bpm>0</bpm>
<rpm>0.00</rpm>
</extensions>
</trkpt>
<trkpt lat="31.104532242" lon="34.824119568">
<ele>350.046875</ele>
<time>2013-11-19T10:42:34Z</time>
<speed>0.010000</speed>
<extensions>
<speed>0.0</speed>
<temp>0.00</temp>
<bpm>0</bpm>
<rpm>0.00</rpm>
</extensions>
</trkpt>
<trkpt lat="31.104532242" lon="34.824119568">
<ele>350.023438</ele>
<time>2013-11-19T10:42:39Z</time>
<extensions>
<speed>0.0</speed>
<temp>0.00</temp>
<bpm>0</bpm>
<rpm>0.00</rpm>
</extensions>
</trkpt>
<trkpt lat="31.104532242" lon="34.824119568">
<ele>350.031250</ele>
<time>2013-11-19T10:42:44Z</time>
<extensions>
<speed>0.0</speed>
<temp>0.00</temp>
<bpm>0</bpm>
<rpm>0.00</rpm>
</extensions>
</trkpt>
<trkpt lat="31.104532242" lon="34.824119568">
<ele>350.039063</ele>
<time>2013-11-19T10:42:49Z</time>
<extensions>
<speed>0.0</speed>
<temp>0.00</temp>
<bpm>0</bpm>
<rpm>0.00</rpm>
</extensions>
</trkpt>
<trkpt lat="31.104532242" lon="34.824119568">
<ele>350.039063</ele>
<time>2013-11-19T10:42:54Z</time>
<extensions>
<speed>0.0</speed>
<temp>0.00</temp>
<bpm>0</bpm>
<rpm>0.00</rpm>
</extensions>
</trkpt>
<trkpt lat="31.104532242" lon="34.824119568">
<ele>350.046875</ele>
<time>2013-11-19T10:42:59Z</time>
<extensions>
<speed>0.0</speed>
<temp>0.00</temp>
<bpm>0</bpm>
<rpm>0.00</rpm>
</extensions>
</trkpt>
<trkpt lat="31.104530334" lon="34.824119568">
<ele>350.046875</ele>
<time>2013-11-19T10:43:04Z</time>
<speed>0.010000</speed>
<extensions>
<speed>0.0</speed>
<temp>0.00</temp>
<bpm>0</bpm>
<rpm>0.00</rpm>
</extensions>
</trkpt>
<trkpt lat="31.104530334" lon="34.824119568">
<ele>350.039063</ele>
<time>2013-11-19T10:43:09Z</time>
<extensions>
<speed>0.0</speed>
<temp>0.00</temp>
<bpm>0</bpm>
<rpm>0.00</rpm>
</extensions>
</trkpt>
<trkpt lat="31.104530334" lon="34.824119568">
<ele>350.039063</ele>
<time>2013-11-19T10:43:14Z</time>
<extensions>
<speed>0.0</speed>
<temp>0.00</temp>
<bpm>0</bpm>
<rpm>0.00</rpm>
</extensions>
</trkpt>
<trkpt lat="31.104530334" lon="34.824119568">
<ele>350.031250</ele>
<time>2013-11-19T10:43:19Z</time>
<extensions>
<speed>0.0</speed>
<temp>0.00</temp>
<bpm>0</bpm>
<rpm>0.00</rpm>
</extensions>
</trkpt>
<trkpt lat="31.104530334" lon="34.824119568">
<ele>350.023438</ele>
<time>2013-11-19T10:43:24Z</time>
<speed>0.010000</speed>
<extensions>
<speed>0.0</speed>
<temp>0.00</temp>
<bpm>0</bpm>
<rpm>0.00</rpm>
</extensions>
</trkpt>
<trkpt lat="31.104530334" lon="34.824119568">
<ele>350.023438</ele>
<time>2013-11-19T10:43:29Z</time>
<extensions>
<speed>0.0</speed>
<temp>0.00</temp>
<bpm>0</bpm>
<rpm>0.00</rpm>
</extensions>
</trkpt>
<trkpt lat="31.104530334" lon="34.824119568">
<ele>350.007813</ele>
<time>2013-11-19T10:43:34Z</time>
<extensions>
<speed>0.0</speed>
<temp>0.00</temp>
<bpm>0</bpm>
<rpm>0.00</rpm>
</extensions>
</trkpt>
<trkpt lat="31.104530334" lon="34.824119568">
<ele>349.992188</ele>
<time>2013-11-19T10:43:39Z</time>
<extensions>
<speed>0.0</speed>
<temp>0.00</temp>
<bpm>0</bpm>
<rpm>0.00</rpm>
</extensions>
</trkpt>
<trkpt lat="31.104530334" lon="34.824119568">
<ele>349.984375</ele>
<time>2013-11-19T10:43:44Z</time>
<extensions>
<speed>0.0</speed>
<temp>0.00</temp>
<bpm>0</bpm>
<rpm>0.00</rpm>
</extensions>
</trkpt>
<trkpt lat="31.104530334" lon="34.824115753">
<ele>349.968750</ele>
<time>2013-11-19T10:43:49Z</time>
<extensions>
<speed>0.0</speed>
<temp>0.00</temp>
<bpm>0</bpm>
<rpm>0.00</rpm>
</extensions>
</trkpt>
<trkpt lat="31.104530334" lon="34.824115753">
<ele>349.953125</ele>
<time>2013-11-19T10:43:54Z</time>
<speed>0.010000</speed>
<extensions>
<speed>0.0</speed>
<temp>0.00</temp>
<bpm>0</bpm>
<rpm>0.00</rpm>
</extensions>
</trkpt>
<trkpt lat="31.104530334" lon="34.824115753">
<ele>349.953125</ele>
<time>2013-11-19T10:43:59Z</time>
<extensions>
<speed>0.0</speed>
<temp>0.00</temp>
<bpm>0</bpm>
<rpm>0.00</rpm>
</extensions>
</trkpt>
<trkpt lat="31.104530334" lon="34.824115753">
<ele>349.937500</ele>
<time>2013-11-19T10:44:04Z</time>
<extensions>
<speed>0.0</speed>
<temp>0.00</temp>
<bpm>0</bpm>
<rpm>0.00</rpm>
</extensions>
</trkpt>
<trkpt lat="31.104530334" lon="34.824115753">
<ele>349.914063</ele>
<time>2013-11-19T10:44:09Z</time>
<speed>0.010000</speed>
<extensions>
<speed>0.0</speed>
<temp>0.00</temp>
<bpm>0</bpm>
<rpm>0.00</rpm>
</extensions>
</trkpt>
<trkpt lat="31.104530334" lon="34.824115753">
<ele>349.906250</ele>
<time>2013-11-19T10:44:14Z</time>
<extensions>
<speed>0.0</speed>
<temp>0.00</temp>
<bpm>0</bpm>
<rpm>0.00</rpm>
</extensions>
</trkpt>
<trkpt lat="31.104530334" lon="34.824115753">
<ele>349.898438</ele>
<time>2013-11-19T10:44:19Z</time>
<extensions>
<speed>0.0</speed>
<temp>0.00</temp>
<bpm>0</bpm>
<rpm>0.00</rpm>
</extensions>
</trkpt>
<trkpt lat="31.104530334" lon="34.824115753">
<ele>349.898438</ele>
<time>2013-11-19T10:44:24Z</time>
<extensions>
<speed>0.0</speed>
<temp>0.00</temp>
<bpm>0</bpm>
<rpm>0.00</rpm>
</extensions>
</trkpt>
<trkpt lat="31.104530334" lon="34.824115753">
<ele>349.898438</ele>
<time>2013-11-19T10:44:29Z</time>
<speed>0.010000</speed>
<extensions>
<speed>0.0</speed>
<temp>0.00</temp>
<bpm>0</bpm>
<rpm>0.00</rpm>
</extensions>
</trkpt>
<trkpt lat="31.104530334" lon="34.824115753">
<ele>349.890625</ele>
<time>2013-11-19T10:44:34Z</time>
<speed>0.010000</speed>
<extensions>
<speed>0.0</speed>
<temp>0.00</temp>
<bpm>0</bpm>
<rpm>0.00</rpm>
</extensions>
</trkpt>
<trkpt lat="31.104530334" lon="34.824115753">
<ele>349.890625</ele>
<time>2013-11-19T10:44:39Z</time>
<extensions>
<speed>0.0</speed>
<temp>0.00</temp>
<bpm>0</bpm>
<rpm>0.00</rpm>
</extensions>
</trkpt>
<trkpt lat="31.104530334" lon="34.824115753">
<ele>349.882813</ele>
<time>2013-11-19T10:44:44Z</time>
<extensions>
<speed>0.0</speed>
<temp>0.00</temp>
<bpm>0</bpm>
<rpm>0.00</rpm>
</extensions>
</trkpt>
<trkpt lat="31.104530334" lon="34.824115753">
<ele>349.859375</ele>
<time>2013-11-19T10:44:49Z</time>
<speed>0.010000</speed>
<extensions>
<speed>0.0</speed>
<temp>0.00</temp>
<bpm>0</bpm>
<rpm>0.00</rpm>
</extensions>
</trkpt>
<trkpt lat="31.104530334" lon="34.824115753">
<ele>349.851563</ele>
<time>2013-11-19T10:44:54Z</time>
<extensions>
<speed>0.0</speed>
<temp>0.00</temp>
<bpm>0</bpm>
<rpm>0.00</rpm>
</extensions>
</trkpt>
<trkpt lat="31.104530334" lon="34.824115753">
<ele>349.835938</ele>
<time>2013-11-19T10:44:59Z</time>
<extensions>
<speed>0.0</speed>
<temp>0.00</temp>
<bpm>0</bpm>
<rpm>0.00</rpm>
</extensions>
</trkpt>
<trkpt lat="31.104528427" lon="34.824115753">
<ele>349.835938</ele>
<time>2013-11-19T10:45:04Z</time>
<extensions>
<speed>0.0</speed>
<temp>0.00</temp>
<bpm>0</bpm>
<rpm>0.00</rpm>
</extensions>
</trkpt>
<trkpt lat="31.104528427" lon="34.824115753">
<ele>349.843750</ele>
<time>2013-11-19T10:45:09Z</time>
<extensions>
<speed>0.0</speed>
<temp>0.00</temp>
<bpm>0</bpm>
<rpm>0.00</rpm>
</extensions>
</trkpt>
<trkpt lat="31.104528427" lon="34.824115753">
<ele>349.843750</ele>
<time>2013-11-19T10:45:14Z</time>
<extensions>
<speed>0.0</speed>
<temp>0.00</temp>
<bpm>0</bpm>
<rpm>0.00</rpm>
</extensions>
</trkpt>
<trkpt lat="31.104528427" lon="34.824115753">
<ele>349.835938</ele>
<time>2013-11-19T10:45:19Z</time>
<extensions>
<speed>0.0</speed>
<temp>0.00</temp>
<bpm>0</bpm>
<rpm>0.00</rpm>
</extensions>
</trkpt>
<trkpt lat="31.104528427" lon="34.824115753">
<ele>349.820313</ele>
<time>2013-11-19T10:45:24Z</time>
<extensions>
<speed>0.0</speed>
<temp>0.00</temp>
<bpm>0</bpm>
<rpm>0.00</rpm>
</extensions>
</trkpt>
<trkpt lat="31.104528427" lon="34.824115753">
<ele>349.812500</ele>
<time>2013-11-19T10:45:29Z</time>
<speed>0.070000</speed>
<extensions>
<speed>0.1</speed>
<temp>0.00</temp>
<bpm>0</bpm>
<rpm>0.00</rpm>
</extensions>
</trkpt>
<trkpt lat="31.104528427" lon="34.824115753">
<ele>349.812500</ele>
<time>2013-11-19T10:45:34Z</time>
<speed>0.010000</speed>
<extensions>
<speed>0.0</speed>
<temp>0.00</temp>
<bpm>0</bpm>
<rpm>0.00</rpm>
</extensions>
</trkpt>
<trkpt lat="31.104528427" lon="34.824115753">
<ele>349.804688</ele>
<time>2013-11-19T10:45:39Z</time>
<extensions>
<speed>0.0</speed>
<temp>0.00</temp>
<bpm>0</bpm>
<rpm>0.00</rpm>
</extensions>
</trkpt>
<trkpt lat="31.104528427" lon="34.824115753">
<ele>349.812500</ele>
<time>2013-11-19T10:45:44Z</time>
<extensions>
<speed>0.0</speed>
<temp>0.00</temp>
<bpm>0</bpm>
<rpm>0.00</rpm>
</extensions>
</trkpt>
<trkpt lat="31.104528427" lon="34.824115753">
<ele>349.828125</ele>
<time>2013-11-19T10:45:49Z</time>
<extensions>
<speed>0.0</speed>
<temp>0.00</temp>
<bpm>0</bpm>
<rpm>0.00</rpm>
</extensions>
</trkpt>
<trkpt lat="31.104530334" lon="34.824115753">
<ele>349.812500</ele>
<time>2013-11-19T10:45:54Z</time>
<speed>0.010000</speed>
<extensions>
<speed>0.0</speed>
<temp>0.00</temp>
<bpm>0</bpm>
<rpm>0.00</rpm>
</extensions>
</trkpt>
<trkpt lat="31.104530334" lon="34.824115753">
<ele>349.820313</ele>
<time>2013-11-19T10:45:59Z</time>
<speed>0.020000</speed>
<extensions>
<speed>0.0</speed>
<temp>0.00</temp>
<bpm>0</bpm>
<rpm>0.00</rpm>
</extensions>
</trkpt>
<trkpt lat="31.104530334" lon="34.824115753">
<ele>349.820313</ele>
<time>2013-11-19T10:46:04Z</time>
<speed>0.020000</speed>
<extensions>
<speed>0.0</speed>
<temp>0.00</temp>
<bpm>0</bpm>
<rpm>0.00</rpm>
</extensions>
</trkpt>
<trkpt lat="31.104530334" lon="34.824115753">
<ele>349.812500</ele>
<time>2013-11-19T10:46:09Z</time>
<speed>0.010000</speed>
<extensions>
<speed>0.0</speed>
<temp>0.00</temp>
<bpm>0</bpm>
<rpm>0.00</rpm>
</extensions>
</trkpt>
<trkpt lat="31.104530334" lon="34.824115753">
<ele>349.812500</ele>
<time>2013-11-19T10:46:14Z</time>
<extensions>
<speed>0.0</speed>
<temp>0.00</temp>
<bpm>0</bpm>
<rpm>0.00</rpm>
</extensions>
</trkpt>
<trkpt lat="31.104530334" lon="34.824115753">
<ele>349.828125</ele>
<time>2013-11-19T10:46:19Z</time>
<speed>0.010000</speed>
<extensions>
<speed>0.0</speed>
<temp>0.00</temp>
<bpm>0</bpm>
<rpm>0.00</rpm>
</extensions>
</trkpt>
<trkpt lat="31.104530334" lon="34.824115753">
<ele>349.820313</ele>
<time>2013-11-19T10:46:24Z</time>
<extensions>
<speed>0.0</speed>
<temp>0.00</temp>
<bpm>0</bpm>
<rpm>0.00</rpm>
</extensions>
</trkpt>
<trkpt lat="31.104530334" lon="34.824115753">
<ele>349.820313</ele>
<time>2013-11-19T10:46:29Z</time>
<extensions>
<speed>0.0</speed>
<temp>0.00</temp>
<bpm>0</bpm>
<rpm>0.00</rpm>
</extensions>
</trkpt>
<trkpt lat="31.104530334" lon="34.824115753">
<ele>349.859375</ele>
<time>2013-11-19T10:46:34Z</time>
<extensions>
<speed>0.0</speed>
<temp>0.00</temp>
<bpm>0</bpm>
<rpm>0.00</rpm>
</extensions>
</trkpt>
<trkpt lat="31.104530334" lon="34.824115753">
<ele>349.890625</ele>
<time>2013-11-19T10:46:39Z</time>
<extensions>
<speed>0.0</speed>
<temp>0.00</temp>
<bpm>0</bpm>
<rpm>0.00</rpm>
</extensions>
</trkpt>
<trkpt lat="31.104530334" lon="34.824115753">
<ele>349.921875</ele>
<time>2013-11-19T10:46:44Z</time>
<extensions>
<speed>0.0</speed>
<temp>0.00</temp>
<bpm>0</bpm>
<rpm>0.00</rpm>
</extensions>
</trkpt>
<trkpt lat="31.104530334" lon="34.824115753">
<ele>349.968750</ele>
<time>2013-11-19T10:46:49Z</time>
<extensions>
<speed>0.0</speed>
<temp>0.00</temp>
<bpm>0</bpm>
<rpm>0.00</rpm>
</extensions>
</trkpt>
<trkpt lat="31.104530334" lon="34.824115753">
<ele>350.000000</ele>
<time>2013-11-19T10:46:54Z</time>
<extensions>
<speed>0.0</speed>
<temp>0.00</temp>
<bpm>0</bpm>
<rpm>0.00</rpm>
</extensions>
</trkpt>
<trkpt lat="31.104530334" lon="34.824115753">
<ele>350.023438</ele>
<time>2013-11-19T10:46:59Z</time>
<extensions>
<speed>0.0</speed>
<temp>0.00</temp>
<bpm>0</bpm>
<rpm>0.00</rpm>
</extensions>
</trkpt>
<trkpt lat="31.104530334" lon="34.824115753">
<ele>350.039063</ele>
<time>2013-11-19T10:47:04Z</time>
<extensions>
<speed>0.0</speed>
<temp>0.00</temp>
<bpm>0</bpm>
<rpm>0.00</rpm>
</extensions>
</trkpt>
<trkpt lat="31.104530334" lon="34.824115753">
<ele>350.085938</ele>
<time>2013-11-19T10:47:09Z</time>
<speed>0.470000</speed>
<extensions>
<speed>0.5</speed>
<temp>0.00</temp>
<bpm>0</bpm>
<rpm>0.00</rpm>
</extensions>
</trkpt>
<trkpt lat="31.104518890" lon="34.824131012">
<ele>351.781250</ele>
<time>2013-11-19T10:47:14Z</time>
<speed>0.230000</speed>
<extensions>
<speed>0.2</speed>
<temp>0.00</temp>
<bpm>0</bpm>
<rpm>0.00</rpm>
</extensions>
</trkpt>
<trkpt lat="31.104522705" lon="34.824134827">
<ele>352.546875</ele>
<time>2013-11-19T10:47:19Z</time>
<speed>0.010000</speed>
<extensions>
<speed>0.0</speed>
<temp>0.00</temp>
<bpm>0</bpm>
<rpm>0.00</rpm>
</extensions>
</trkpt>
<trkpt lat="31.104522705" lon="34.824134827">
<ele>352.593750</ele>
<time>2013-11-19T10:47:24Z</time>
<speed>0.620000</speed>
<extensions>
<speed>0.6</speed>
<temp>0.00</temp>
<bpm>0</bpm>
<rpm>0.00</rpm>
</extensions>
</trkpt>
<trkpt lat="31.104505539" lon="34.824157715">
<ele>352.671875</ele>
<time>2013-11-19T10:47:29Z</time>
<speed>0.520000</speed>
<extensions>
<speed>0.5</speed>
<temp>0.00</temp>
<bpm>0</bpm>
<rpm>0.00</rpm>
</extensions>
</trkpt>
<trkpt lat="31.104488373" lon="34.824192047">
<ele>353.125000</ele>
<time>2013-11-19T10:47:34Z</time>
<speed>0.850000</speed>
<extensions>
<speed>0.8</speed>
<temp>0.00</temp>
<bpm>0</bpm>
<rpm>0.00</rpm>
</extensions>
</trkpt>
<trkpt lat="31.104427338" lon="34.824249268">
<ele>354.351563</ele>
<time>2013-11-19T10:47:39Z</time>
<speed>0.940000</speed>
<extensions>
<speed>0.9</speed>
<temp>0.00</temp>
<bpm>0</bpm>
<rpm>0.00</rpm>
</extensions>
</trkpt>
<trkpt lat="31.104383469" lon="34.824298859">
<ele>355.015625</ele>
<time>2013-11-19T10:47:44Z</time>
<speed>1.130000</speed>
<extensions>
<speed>1.1</speed>
<temp>0.00</temp>
<bpm>0</bpm>
<rpm>0.00</rpm>
</extensions>
</trkpt>
<trkpt lat="31.104347229" lon="34.824359894">
<ele>357.359375</ele>
<time>2013-11-19T10:47:49Z</time>
<speed>0.710000</speed>
<extensions>
<speed>0.7</speed>
<temp>0.00</temp>
<bpm>0</bpm>
<rpm>0.00</rpm>
</extensions>
</trkpt>
<trkpt lat="31.104333878" lon="34.824382782">
<ele>358.367188</ele>
<time>2013-11-19T10:47:54Z</time>
<speed>0.080000</speed>
<extensions>
<speed>0.1</speed>
<temp>0.00</temp>
<bpm>0</bpm>
<rpm>0.00</rpm>
</extensions>
</trkpt>
<trkpt lat="31.104404449" lon="34.824417114">
<ele>357.656250</ele>
<time>2013-11-19T10:47:59Z</time>
<speed>0.380000</speed>
<extensions>
<speed>0.4</speed>
<temp>0.00</temp>
<bpm>0</bpm>
<rpm>0.00</rpm>
</extensions>
</trkpt>
<trkpt lat="31.104393005" lon="34.824462891">
<ele>356.578125</ele>
<time>2013-11-19T10:48:04Z</time>
<speed>0.070000</speed>
<extensions>
<speed>0.1</speed>
<temp>0.00</temp>
<bpm>0</bpm>
<rpm>0.00</rpm>
</extensions>
</trkpt>
<trkpt lat="31.104391098" lon="34.824466705">
<ele>356.343750</ele>
<time>2013-11-19T10:48:09Z</time>
<speed>0.060000</speed>
<extensions>
<speed>0.1</speed>
<temp>0.00</temp>
<bpm>0</bpm>
<rpm>0.00</rpm>
</extensions>
</trkpt>
<trkpt lat="31.104391098" lon="34.824470520">
<ele>355.867188</ele>
<time>2013-11-19T10:48:14Z</time>
<speed>0.120000</speed>
<extensions>
<speed>0.1</speed>
<temp>0.00</temp>
<bpm>0</bpm>
<rpm>0.00</rpm>
</extensions>
</trkpt>
<trkpt lat="31.104393005" lon="34.824466705">
<ele>356.328125</ele>
<time>2013-11-19T10:48:19Z</time>
<extensions>
<speed>0.0</speed>
<temp>0.00</temp>
<bpm>0</bpm>
<rpm>0.00</rpm>
</extensions>
</trkpt>
<trkpt lat="31.104393005" lon="34.824466705">
<ele>356.320313</ele>
<time>2013-11-19T10:48:24Z</time>
<extensions>
<speed>0.0</speed>
<temp>0.00</temp>
<bpm>0</bpm>
<rpm>0.00</rpm>
</extensions>
</trkpt>
<trkpt lat="31.104393005" lon="34.824466705">
<ele>356.320313</ele>
<time>2013-11-19T10:48:29Z</time>
<speed>0.350000</speed>
<extensions>
<speed>0.3</speed>
<temp>0.00</temp>
<bpm>0</bpm>
<rpm>0.00</rpm>
</extensions>
</trkpt>
<trkpt lat="31.104385376" lon="34.824462891">
<ele>357.117188</ele>
<time>2013-11-19T10:48:34Z</time>
<speed>0.220000</speed>
<extensions>
<speed>0.2</speed>
<temp>0.00</temp>
<bpm>0</bpm>
<rpm>0.00</rpm>
</extensions>
</trkpt>
<trkpt lat="31.104385376" lon="34.824478149">
<ele>357.453125</ele>
<time>2013-11-19T10:48:39Z</time>
<speed>0.110000</speed>
<extensions>
<speed>0.1</speed>
<temp>0.00</temp>
<bpm>0</bpm>
<rpm>0.00</rpm>
</extensions>
</trkpt>
<trkpt lat="31.104391098" lon="34.824489594">
<ele>357.117188</ele>
<time>2013-11-19T10:48:44Z</time>
<extensions>
<speed>0.0</speed>
<temp>0.00</temp>
<bpm>0</bpm>
<rpm>0.00</rpm>
</extensions>
</trkpt>
<trkpt lat="31.104391098" lon="34.824489594">
<ele>357.054688</ele>
<time>2013-11-19T10:48:49Z</time>
<extensions>
<speed>0.0</speed>
<temp>0.00</temp>
<bpm>0</bpm>
<rpm>0.00</rpm>
</extensions>
</trkpt>
<trkpt lat="31.104391098" lon="34.824489594">
<ele>357.070313</ele>
<time>2013-11-19T10:48:54Z</time>
<extensions>
<speed>0.0</speed>
<temp>0.00</temp>
<bpm>0</bpm>
<rpm>0.00</rpm>
</extensions>
</trkpt>
<trkpt lat="31.104391098" lon="34.824489594">
<ele>357.070313</ele>
<time>2013-11-19T10:48:59Z</time>
<extensions>
<speed>0.0</speed>
<temp>0.00</temp>
<bpm>0</bpm>
<rpm>0.00</rpm>
</extensions>
</trkpt>
<trkpt lat="31.104393005" lon="34.824493408">
<ele>357.093750</ele>
<time>2013-11-19T10:49:04Z</time>
<speed>0.010000</speed>
<extensions>
<speed>0.0</speed>
<temp>0.00</temp>
<bpm>0</bpm>
<rpm>0.00</rpm>
</extensions>
</trkpt>
<trkpt lat="31.104393005" lon="34.824493408">
<ele>357.109375</ele>
<time>2013-11-19T10:49:09Z</time>
<extensions>
<speed>0.0</speed>
<temp>0.00</temp>
<bpm>0</bpm>
<rpm>0.00</rpm>
</extensions>
</trkpt>
<trkpt lat="31.104393005" lon="34.824493408">
<ele>357.125000</ele>
<time>2013-11-19T10:49:14Z</time>
<extensions>
<speed>0.0</speed>
<temp>0.00</temp>
<bpm>0</bpm>
<rpm>0.00</rpm>
</extensions>
</trkpt>
<trkpt lat="31.104393005" lon="34.824493408">
<ele>357.125000</ele>
<time>2013-11-19T10:49:19Z</time>
<extensions>
<speed>0.0</speed>
<temp>0.00</temp>
<bpm>0</bpm>
<rpm>0.00</rpm>
</extensions>
</trkpt>
<trkpt lat="31.104393005" lon="34.824493408">
<ele>357.132813</ele>
<time>2013-11-19T10:49:24Z</time>
<extensions>
<speed>0.0</speed>
<temp>0.00</temp>
<bpm>0</bpm>
<rpm>0.00</rpm>
</extensions>
</trkpt>
<trkpt lat="31.104393005" lon="34.824493408">
<ele>357.125000</ele>
<time>2013-11-19T10:49:29Z</time>
<extensions>
<speed>0.0</speed>
<temp>0.00</temp>
<bpm>0</bpm>
<rpm>0.00</rpm>
</extensions>
</trkpt>
<trkpt lat="31.104393005" lon="34.824493408">
<ele>357.132813</ele>
<time>2013-11-19T10:49:34Z</time>
<speed>0.020000</speed>
<extensions>
<speed>0.0</speed>
<temp>0.00</temp>
<bpm>0</bpm>
<rpm>0.00</rpm>
</extensions>
</trkpt>
<trkpt lat="31.104393005" lon="34.824493408">
<ele>357.148438</ele>
<time>2013-11-19T10:49:39Z</time>
<speed>0.010000</speed>
<extensions>
<speed>0.0</speed>
<temp>0.00</temp>
<bpm>0</bpm>
<rpm>0.00</rpm>
</extensions>
</trkpt>
<trkpt lat="31.104393005" lon="34.824493408">
<ele>357.171875</ele>
<time>2013-11-19T10:49:44Z</time>
<speed>0.010000</speed>
<extensions>
<speed>0.0</speed>
<temp>0.00</temp>
<bpm>0</bpm>
<rpm>0.00</rpm>
</extensions>
</trkpt>
<trkpt lat="31.104393005" lon="34.824497223">
<ele>357.203125</ele>
<time>2013-11-19T10:49:49Z</time>
<extensions>
<speed>0.0</speed>
<temp>0.00</temp>
<bpm>0</bpm>
<rpm>0.00</rpm>
</extensions>
</trkpt>
<trkpt lat="31.104393005" lon="34.824497223">
<ele>357.210938</ele>
<time>2013-11-19T10:49:54Z</time>
<speed>0.010000</speed>
<extensions>
<speed>0.0</speed>
<temp>0.00</temp>
<bpm>0</bpm>
<rpm>0.00</rpm>
</extensions>
</trkpt>
<trkpt lat="31.104393005" lon="34.824497223">
<ele>357.242188</ele>
<time>2013-11-19T10:49:59Z</time>
<speed>0.010000</speed>
<extensions>
<speed>0.0</speed>
<temp>0.00</temp>
<bpm>0</bpm>
<rpm>0.00</rpm>
</extensions>
</trkpt>
<trkpt lat="31.104393005" lon="34.824497223">
<ele>357.281250</ele>
<time>2013-11-19T10:50:04Z</time>
<extensions>
<speed>0.0</speed>
<temp>0.00</temp>
<bpm>0</bpm>
<rpm>0.00</rpm>
</extensions>
</trkpt>
<trkpt lat="31.104393005" lon="34.824497223">
<ele>357.320313</ele>
<time>2013-11-19T10:50:09Z</time>
<extensions>
<speed>0.0</speed>
<temp>0.00</temp>
<bpm>0</bpm>
<rpm>0.00</rpm>
</extensions>
</trkpt>
<trkpt lat="31.104393005" lon="34.824497223">
<ele>357.343750</ele>
<time>2013-11-19T10:50:14Z</time>
<extensions>
<speed>0.0</speed>
<temp>0.00</temp>
<bpm>0</bpm>
<rpm>0.00</rpm>
</extensions>
</trkpt>
<trkpt lat="31.104391098" lon="34.824497223">
<ele>357.375000</ele>
<time>2013-11-19T10:50:19Z</time>
<speed>0.010000</speed>
<extensions>
<speed>0.0</speed>
<temp>0.00</temp>
<bpm>0</bpm>
<rpm>0.00</rpm>
</extensions>
</trkpt>
<trkpt lat="31.104391098" lon="34.824497223">
<ele>357.390625</ele>
<time>2013-11-19T10:50:24Z</time>
<extensions>
<speed>0.0</speed>
<temp>0.00</temp>
<bpm>0</bpm>
<rpm>0.00</rpm>
</extensions>
</trkpt>
<trkpt lat="31.104391098" lon="34.824501038">
<ele>357.382813</ele>
<time>2013-11-19T10:50:29Z</time>
<extensions>
<speed>0.0</speed>
<temp>0.00</temp>
<bpm>0</bpm>
<rpm>0.00</rpm>
</extensions>
</trkpt>
<trkpt lat="31.104391098" lon="34.824501038">
<ele>357.398438</ele>
<time>2013-11-19T10:50:34Z</time>
<extensions>
<speed>0.0</speed>
<temp>0.00</temp>
<bpm>0</bpm>
<rpm>0.00</rpm>
</extensions>
</trkpt>
<trkpt lat="31.104391098" lon="34.824501038">
<ele>357.406250</ele>
<time>2013-11-19T10:50:39Z</time>
<extensions>
<speed>0.0</speed>
<temp>0.00</temp>
<bpm>0</bpm>
<rpm>0.00</rpm>
</extensions>
</trkpt>
<trkpt lat="31.104391098" lon="34.824501038">
<ele>357.406250</ele>
<time>2013-11-19T10:50:44Z</time>
<speed>0.010000</speed>
<extensions>
<speed>0.0</speed>
<temp>0.00</temp>
<bpm>0</bpm>
<rpm>0.00</rpm>
</extensions>
</trkpt>
<trkpt lat="31.104391098" lon="34.824501038">
<ele>357.398438</ele>
<time>2013-11-19T10:50:49Z</time>
<extensions>
<speed>0.0</speed>
<temp>0.00</temp>
<bpm>0</bpm>
<rpm>0.00</rpm>
</extensions>
</trkpt>
<trkpt lat="31.104391098" lon="34.824501038">
<ele>357.390625</ele>
<time>2013-11-19T10:50:54Z</time>
<extensions>
<speed>0.0</speed>
<temp>0.00</temp>
<bpm>0</bpm>
<rpm>0.00</rpm>
</extensions>
</trkpt>
<trkpt lat="31.104393005" lon="34.824501038">
<ele>357.406250</ele>
<time>2013-11-19T10:50:59Z</time>
<extensions>
<speed>0.0</speed>
<temp>0.00</temp>
<bpm>0</bpm>
<rpm>0.00</rpm>
</extensions>
</trkpt>
<trkpt lat="31.104393005" lon="34.824501038">
<ele>357.460938</ele>
<time>2013-11-19T10:51:04Z</time>
<extensions>
<speed>0.0</speed>
<temp>0.00</temp>
<bpm>0</bpm>
<rpm>0.00</rpm>
</extensions>
</trkpt>
<trkpt lat="31.104393005" lon="34.824501038">
<ele>357.468750</ele>
<time>2013-11-19T10:51:09Z</time>
<extensions>
<speed>0.0</speed>
<temp>0.00</temp>
<bpm>0</bpm>
<rpm>0.00</rpm>
</extensions>
</trkpt>
<trkpt lat="31.104393005" lon="34.824501038">
<ele>357.492188</ele>
<time>2013-11-19T10:51:14Z</time>
<speed>0.010000</speed>
<extensions>
<speed>0.0</speed>
<temp>0.00</temp>
<bpm>0</bpm>
<rpm>0.00</rpm>
</extensions>
</trkpt>
<trkpt lat="31.104393005" lon="34.824504852">
<ele>357.507813</ele>
<time>2013-11-19T10:51:19Z</time>
<speed>0.010000</speed>
<extensions>
<speed>0.0</speed>
<temp>0.00</temp>
<bpm>0</bpm>
<rpm>0.00</rpm>
</extensions>
</trkpt>
<trkpt lat="31.104393005" lon="34.824504852">
<ele>357.515625</ele>
<time>2013-11-19T10:51:24Z</time>
<extensions>
<speed>0.0</speed>
<temp>0.00</temp>
<bpm>0</bpm>
<rpm>0.00</rpm>
</extensions>
</trkpt>
<trkpt lat="31.104393005" lon="34.824504852">
<ele>357.531250</ele>
<time>2013-11-19T10:51:29Z</time>
<extensions>
<speed>0.0</speed>
<temp>0.00</temp>
<bpm>0</bpm>
<rpm>0.00</rpm>
</extensions>
</trkpt>
<trkpt lat="31.104393005" lon="34.824504852">
<ele>357.554688</ele>
<time>2013-11-19T10:51:34Z</time>
<extensions>
<speed>0.0</speed>
<temp>0.00</temp>
<bpm>0</bpm>
<rpm>0.00</rpm>
</extensions>
</trkpt>
<trkpt lat="31.104393005" lon="34.824504852">
<ele>357.562500</ele>
<time>2013-11-19T10:51:39Z</time>
<extensions>
<speed>0.0</speed>
<temp>0.00</temp>
<bpm>0</bpm>
<rpm>0.00</rpm>
</extensions>
</trkpt>
<trkpt lat="31.104394913" lon="34.824504852">
<ele>357.562500</ele>
<time>2013-11-19T10:51:44Z</time>
<speed>0.710000</speed>
<extensions>
<speed>0.7</speed>
<temp>0.00</temp>
<bpm>0</bpm>
<rpm>0.00</rpm>
</extensions>
</trkpt>
<trkpt lat="31.104433060" lon="34.824550629">
<ele>358.875000</ele>
<time>2013-11-19T10:51:49Z</time>
<speed>1.450000</speed>
<extensions>
<speed>1.4</speed>
<temp>0.00</temp>
<bpm>0</bpm>
<rpm>0.00</rpm>
</extensions>
</trkpt>
<trkpt lat="31.104505539" lon="34.824653625">
<ele>359.757813</ele>
<time>2013-11-19T10:51:54Z</time>
<speed>3.040000</speed>
<extensions>
<speed>3.0</speed>
<temp>0.00</temp>
<bpm>0</bpm>
<rpm>0.00</rpm>
</extensions>
</trkpt>
<trkpt lat="31.104509354" lon="34.824840546">
<ele>360.507813</ele>
<time>2013-11-19T10:51:59Z</time>
<speed>4.030000</speed>
<extensions>
<speed>4.0</speed>
<temp>0.00</temp>
<bpm>0</bpm>
<rpm>0.00</rpm>
</extensions>
</trkpt>
<trkpt lat="31.104421616" lon="34.825016022">
<ele>360.296875</ele>
<time>2013-11-19T10:52:04Z</time>
<speed>4.050000</speed>
<extensions>
<speed>4.0</speed>
<temp>0.00</temp>
<bpm>0</bpm>
<rpm>0.00</rpm>
</extensions>
</trkpt>
<trkpt lat="31.104234695" lon="34.825160980">
<ele>360.328125</ele>
<time>2013-11-19T10:52:09Z</time>
<speed>4.900000</speed>
<extensions>
<speed>4.9</speed>
<temp>0.00</temp>
<bpm>0</bpm>
<rpm>0.00</rpm>
</extensions>
</trkpt>
<trkpt lat="31.104053497" lon="34.825309753">
<ele>357.875000</ele>
<time>2013-11-19T10:52:14Z</time>
<speed>5.140000</speed>
<extensions>
<speed>5.1</speed>
<temp>0.00</temp>
<bpm>0</bpm>
<rpm>0.00</rpm>
</extensions>
</trkpt>
<trkpt lat="31.103845596" lon="34.825454712">
<ele>358.007813</ele>
<time>2013-11-19T10:52:19Z</time>
<speed>5.110000</speed>
<extensions>
<speed>5.1</speed>
<temp>0.00</temp>
<bpm>0</bpm>
<rpm>0.00</rpm>
</extensions>
</trkpt>
<trkpt lat="31.103649139" lon="34.825584412">
<ele>357.250000</ele>
<time>2013-11-19T10:52:24Z</time>
<speed>5.010000</speed>
<extensions>
<speed>5.0</speed>
<temp>0.00</temp>
<bpm>0</bpm>
<rpm>0.00</rpm>
</extensions>
</trkpt>
<trkpt lat="31.103441238" lon="34.825710297">
<ele>355.679688</ele>
<time>2013-11-19T10:52:29Z</time>
<speed>4.730000</speed>
<extensions>
<speed>4.7</speed>
<temp>0.00</temp>
<bpm>0</bpm>
<rpm>0.00</rpm>
</extensions>
</trkpt>
<trkpt lat="31.103223801" lon="34.825832367">
<ele>354.046875</ele>
<time>2013-11-19T10:52:34Z</time>
<speed>5.250000</speed>
<extensions>
<speed>5.2</speed>
<temp>0.00</temp>
<bpm>0</bpm>
<rpm>0.00</rpm>
</extensions>
</trkpt>
<trkpt lat="31.103008270" lon="34.825935364">
<ele>353.695313</ele>
<time>2013-11-19T10:52:39Z</time>
<speed>5.090000</speed>
<extensions>
<speed>5.1</speed>
<temp>0.00</temp>
<bpm>0</bpm>
<rpm>0.00</rpm>
</extensions>
</trkpt>
<trkpt lat="31.102800369" lon="34.826023102">
<ele>352.765625</ele>
<time>2013-11-19T10:52:44Z</time>
<speed>5.180000</speed>
<extensions>
<speed>5.2</speed>
<temp>0.00</temp>
<bpm>0</bpm>
<rpm>0.00</rpm>
</extensions>
</trkpt>
<trkpt lat="31.102575302" lon="34.826103210">
<ele>352.687500</ele>
<time>2013-11-19T10:52:49Z</time>
<speed>5.660000</speed>
<extensions>
<speed>5.7</speed>
<temp>0.00</temp>
<bpm>0</bpm>
<rpm>0.00</rpm>
</extensions>
</trkpt>
<trkpt lat="31.102338791" lon="34.826187134">
<ele>352.054688</ele>
<time>2013-11-19T10:52:54Z</time>
<speed>5.470000</speed>
<extensions>
<speed>5.5</speed>
<temp>0.00</temp>
<bpm>0</bpm>
<rpm>0.00</rpm>
</extensions>
</trkpt>
<trkpt lat="31.102109909" lon="34.826263428">
<ele>351.015625</ele>
<time>2013-11-19T10:52:59Z</time>
<speed>5.430000</speed>
<extensions>
<speed>5.4</speed>
<temp>0.00</temp>
<bpm>0</bpm>
<rpm>0.00</rpm>
</extensions>
</trkpt>
<trkpt lat="31.101867676" lon="34.826324463">
<ele>350.117188</ele>
<time>2013-11-19T10:53:04Z</time>
<speed>5.510000</speed>
<extensions>
<speed>5.5</speed>
<temp>0.00</temp>
<bpm>0</bpm>
<rpm>0.00</rpm>
</extensions>
</trkpt>
<trkpt lat="31.101629257" lon="34.826385498">
<ele>349.671875</ele>
<time>2013-11-19T10:53:09Z</time>
<speed>5.490000</speed>
<extensions>
<speed>5.5</speed>
<temp>0.00</temp>
<bpm>0</bpm>
<rpm>0.00</rpm>
</extensions>
</trkpt>
<trkpt lat="31.101392746" lon="34.826442719">
<ele>349.750000</ele>
<time>2013-11-19T10:53:14Z</time>
<speed>5.570000</speed>
<extensions>
<speed>5.6</speed>
<temp>0.00</temp>
<bpm>0</bpm>
<rpm>0.00</rpm>
</extensions>
</trkpt>
<trkpt lat="31.101146698" lon="34.826526642">
<ele>348.742188</ele>
<time>2013-11-19T10:53:19Z</time>
<speed>5.960000</speed>
<extensions>
<speed>6.0</speed>
<temp>0.00</temp>
<bpm>0</bpm>
<rpm>0.00</rpm>
</extensions>
</trkpt>
<trkpt lat="31.100881577" lon="34.826595306">
<ele>348.742188</ele>
<time>2013-11-19T10:53:24Z</time>
<speed>6.110000</speed>
<extensions>
<speed>6.1</speed>
<temp>0.00</temp>
<bpm>0</bpm>
<rpm>0.00</rpm>
</extensions>
</trkpt>
<trkpt lat="31.100624084" lon="34.826675415">
<ele>348.390625</ele>
<time>2013-11-19T10:53:29Z</time>
<speed>6.110000</speed>
<extensions>
<speed>6.1</speed>
<temp>0.00</temp>
<bpm>0</bpm>
<rpm>0.00</rpm>
</extensions>
</trkpt>
<trkpt lat="31.100364685" lon="34.826766968">
<ele>347.531250</ele>
<time>2013-11-19T10:53:34Z</time>
<speed>6.160000</speed>
<extensions>
<speed>6.2</speed>
<temp>0.00</temp>
<bpm>0</bpm>
<rpm>0.00</rpm>
</extensions>
</trkpt>
<trkpt lat="31.100137711" lon="34.826824188">
<ele>346.093750</ele>
<time>2013-11-19T10:53:39Z</time>
<speed>4.500000</speed>
<extensions>
<speed>4.5</speed>
<temp>0.00</temp>
<bpm>0</bpm>
<rpm>0.00</rpm>
</extensions>
</trkpt>
<trkpt lat="31.100011826" lon="34.826828003">
<ele>346.820313</ele>
<time>2013-11-19T10:53:44Z</time>
<speed>1.110000</speed>
<extensions>
<speed>1.1</speed>
<temp>0.00</temp>
<bpm>0</bpm>
<rpm>0.00</rpm>
</extensions>
</trkpt>
<trkpt lat="31.100008011" lon="34.826820374">
<ele>347.312500</ele>
<time>2013-11-19T10:53:49Z</time>
<speed>0.070000</speed>
<extensions>
<speed>0.1</speed>
<temp>0.00</temp>
<bpm>0</bpm>
<rpm>0.00</rpm>
</extensions>
</trkpt>
<trkpt lat="31.100008011" lon="34.826816559">
<ele>347.492188</ele>
<time>2013-11-19T10:53:54Z</time>
<speed>0.080000</speed>
<extensions>
<speed>0.1</speed>
<temp>0.00</temp>
<bpm>0</bpm>
<rpm>0.00</rpm>
</extensions>
</trkpt>
<trkpt lat="31.100009918" lon="34.826816559">
<ele>347.687500</ele>
<time>2013-11-19T10:53:59Z</time>
<speed>0.060000</speed>
<extensions>
<speed>0.1</speed>
<temp>0.00</temp>
<bpm>0</bpm>
<rpm>0.00</rpm>
</extensions>
</trkpt>
<trkpt lat="31.100009918" lon="34.826816559">
<ele>347.687500</ele>
<time>2013-11-19T10:54:04Z</time>
<speed>0.060000</speed>
<extensions>
<speed>0.1</speed>
<temp>0.00</temp>
<bpm>0</bpm>
<rpm>0.00</rpm>
</extensions>
</trkpt>
<trkpt lat="31.100009918" lon="34.826820374">
<ele>347.742188</ele>
<time>2013-11-19T10:54:09Z</time>
<speed>0.060000</speed>
<extensions>
<speed>0.1</speed>
<temp>0.00</temp>
<bpm>0</bpm>
<rpm>0.00</rpm>
</extensions>
</trkpt>
<trkpt lat="31.100009918" lon="34.826816559">
<ele>347.757813</ele>
<time>2013-11-19T10:54:14Z</time>
<speed>0.010000</speed>
<extensions>
<speed>0.0</speed>
<temp>0.00</temp>
<bpm>0</bpm>
<rpm>0.00</rpm>
</extensions>
</trkpt>
<trkpt lat="31.100009918" lon="34.826820374">
<ele>347.781250</ele>
<time>2013-11-19T10:54:19Z</time>
<speed>0.030000</speed>
<extensions>
<speed>0.0</speed>
<temp>0.00</temp>
<bpm>0</bpm>
<rpm>0.00</rpm>
</extensions>
</trkpt>
<trkpt lat="31.100009918" lon="34.826820374">
<ele>347.765625</ele>
<time>2013-11-19T10:54:24Z</time>
<speed>0.020000</speed>
<extensions>
<speed>0.0</speed>
<temp>0.00</temp>
<bpm>0</bpm>
<rpm>0.00</rpm>
</extensions>
</trkpt>
<trkpt lat="31.100009918" lon="34.826820374">
<ele>347.765625</ele>
<time>2013-11-19T10:54:29Z</time>
<speed>0.030000</speed>
<extensions>
<speed>0.0</speed>
<temp>0.00</temp>
<bpm>0</bpm>
<rpm>0.00</rpm>
</extensions>
</trkpt>
<trkpt lat="31.100009918" lon="34.826820374">
<ele>347.765625</ele>
<time>2013-11-19T10:54:34Z</time>
<speed>0.020000</speed>
<extensions>
<speed>0.0</speed>
<temp>0.00</temp>
<bpm>0</bpm>
<rpm>0.00</rpm>
</extensions>
</trkpt>
<trkpt lat="31.100011826" lon="34.826820374">
<ele>347.773438</ele>
<time>2013-11-19T10:54:39Z</time>
<speed>0.010000</speed>
<extensions>
<speed>0.0</speed>
<temp>0.00</temp>
<bpm>0</bpm>
<rpm>0.00</rpm>
</extensions>
</trkpt>
<trkpt lat="31.100011826" lon="34.826820374">
<ele>347.781250</ele>
<time>2013-11-19T10:54:44Z</time>
<speed>0.010000</speed>
<extensions>
<speed>0.0</speed>
<temp>0.00</temp>
<bpm>0</bpm>
<rpm>0.00</rpm>
</extensions>
</trkpt>
<trkpt lat="31.100011826" lon="34.826820374">
<ele>347.804688</ele>
<time>2013-11-19T10:54:49Z</time>
<speed>0.020000</speed>
<extensions>
<speed>0.0</speed>
<temp>0.00</temp>
<bpm>0</bpm>
<rpm>0.00</rpm>
</extensions>
</trkpt>
<trkpt lat="31.100011826" lon="34.826820374">
<ele>347.828125</ele>
<time>2013-11-19T10:54:54Z</time>
<speed>0.010000</speed>
<extensions>
<speed>0.0</speed>
<temp>0.00</temp>
<bpm>0</bpm>
<rpm>0.00</rpm>
</extensions>
</trkpt>
<trkpt lat="31.100011826" lon="34.826820374">
<ele>347.851563</ele>
<time>2013-11-19T10:54:59Z</time>
<speed>0.020000</speed>
<extensions>
<speed>0.0</speed>
<temp>0.00</temp>
<bpm>0</bpm>
<rpm>0.00</rpm>
</extensions>
</trkpt>
<trkpt lat="31.100011826" lon="34.826816559">
<ele>347.867188</ele>
<time>2013-11-19T10:55:04Z</time>
<speed>0.020000</speed>
<extensions>
<speed>0.0</speed>
<temp>0.00</temp>
<bpm>0</bpm>
<rpm>0.00</rpm>
</extensions>
</trkpt>
<trkpt lat="31.100011826" lon="34.826816559">
<ele>347.875000</ele>
<time>2013-11-19T10:55:09Z</time>
<speed>0.020000</speed>
<extensions>
<speed>0.0</speed>
<temp>0.00</temp>
<bpm>0</bpm>
<rpm>0.00</rpm>
</extensions>
</trkpt>
<trkpt lat="31.100011826" lon="34.826816559">
<ele>347.875000</ele>
<time>2013-11-19T10:55:14Z</time>
<speed>0.620000</speed>
<extensions>
<speed>0.6</speed>
<temp>0.00</temp>
<bpm>0</bpm>
<rpm>0.00</rpm>
</extensions>
</trkpt>
<trkpt lat="31.099912643" lon="34.826850891">
<ele>348.148438</ele>
<time>2013-11-19T10:55:19Z</time>
<speed>3.760000</speed>
<extensions>
<speed>3.8</speed>
<temp>0.00</temp>
<bpm>0</bpm>
<rpm>0.00</rpm>
</extensions>
</trkpt>
<trkpt lat="31.099725723" lon="34.826892853">
<ele>347.984375</ele>
<time>2013-11-19T10:55:24Z</time>
<speed>4.320000</speed>
<extensions>
<speed>4.3</speed>
<temp>0.00</temp>
<bpm>0</bpm>
<rpm>0.00</rpm>
</extensions>
</trkpt>
<trkpt lat="31.099498749" lon="34.826953888">
<ele>347.335938</ele>
<time>2013-11-19T10:55:29Z</time>
<speed>5.220000</speed>
<extensions>
<speed>5.2</speed>
<temp>0.00</temp>
<bpm>0</bpm>
<rpm>0.00</rpm>
</extensions>
</trkpt>
<trkpt lat="31.099258423" lon="34.827018738">
<ele>346.640625</ele>
<time>2013-11-19T10:55:34Z</time>
<speed>5.430000</speed>
<extensions>
<speed>5.4</speed>
<temp>0.00</temp>
<bpm>0</bpm>
<rpm>0.00</rpm>
</extensions>
</trkpt>
<trkpt lat="31.099020004" lon="34.827091217">
<ele>345.695313</ele>
<time>2013-11-19T10:55:39Z</time>
<speed>5.450000</speed>
<extensions>
<speed>5.5</speed>
<temp>0.00</temp>
<bpm>0</bpm>
<rpm>0.00</rpm>
</extensions>
</trkpt>
<trkpt lat="31.098775864" lon="34.827159882">
<ele>344.398438</ele>
<time>2013-11-19T10:55:44Z</time>
<speed>5.660000</speed>
<extensions>
<speed>5.7</speed>
<temp>0.00</temp>
<bpm>0</bpm>
<rpm>0.00</rpm>
</extensions>
</trkpt>
<trkpt lat="31.098514557" lon="34.827232361">
<ele>343.429688</ele>
<time>2013-11-19T10:55:49Z</time>
<speed>5.710000</speed>
<extensions>
<speed>5.7</speed>
<temp>0.00</temp>
<bpm>0</bpm>
<rpm>0.00</rpm>
</extensions>
</trkpt>
<trkpt lat="31.098270416" lon="34.827312469">
<ele>342.773438</ele>
<time>2013-11-19T10:55:54Z</time>
<speed>5.420000</speed>
<extensions>
<speed>5.4</speed>
<temp>0.00</temp>
<bpm>0</bpm>
<rpm>0.00</rpm>
</extensions>
</trkpt>
<trkpt lat="31.098014832" lon="34.827384949">
<ele>343.218750</ele>
<time>2013-11-19T10:55:59Z</time>
<speed>5.670000</speed>
<extensions>
<speed>5.7</speed>
<temp>0.00</temp>
<bpm>0</bpm>
<rpm>0.00</rpm>
</extensions>
</trkpt>
<trkpt lat="31.097768784" lon="34.827449799">
<ele>343.382813</ele>
<time>2013-11-19T10:56:04Z</time>
<speed>5.430000</speed>
<extensions>
<speed>5.4</speed>
<temp>0.00</temp>
<bpm>0</bpm>
<rpm>0.00</rpm>
</extensions>
</trkpt>
<trkpt lat="31.097526550" lon="34.827522278">
<ele>341.984375</ele>
<time>2013-11-19T10:56:09Z</time>
<speed>5.500000</speed>
<extensions>
<speed>5.5</speed>
<temp>0.00</temp>
<bpm>0</bpm>
<rpm>0.00</rpm>
</extensions>
</trkpt>
<trkpt lat="31.097286224" lon="34.827602386">
<ele>341.468750</ele>
<time>2013-11-19T10:56:14Z</time>
<speed>5.630000</speed>
<extensions>
<speed>5.6</speed>
<temp>0.00</temp>
<bpm>0</bpm>
<rpm>0.00</rpm>
</extensions>
</trkpt>
<trkpt lat="31.097042084" lon="34.827682495">
<ele>340.578125</ele>
<time>2013-11-19T10:56:19Z</time>
<speed>5.490000</speed>
<extensions>
<speed>5.5</speed>
<temp>0.00</temp>
<bpm>0</bpm>
<rpm>0.00</rpm>
</extensions>
</trkpt>
<trkpt lat="31.096797943" lon="34.827766418">
<ele>338.953125</ele>
<time>2013-11-19T10:56:24Z</time>
<speed>5.560000</speed>
<extensions>
<speed>5.6</speed>
<temp>0.00</temp>
<bpm>0</bpm>
<rpm>0.00</rpm>
</extensions>
</trkpt>
<trkpt lat="31.096538544" lon="34.827854156">
<ele>338.296875</ele>
<time>2013-11-19T10:56:29Z</time>
<speed>6.220000</speed>
<extensions>
<speed>6.2</speed>
<temp>0.00</temp>
<bpm>0</bpm>
<rpm>0.00</rpm>
</extensions>
</trkpt>
<trkpt lat="31.096267700" lon="34.827938080">
<ele>337.500000</ele>
<time>2013-11-19T10:56:34Z</time>
<speed>6.230000</speed>
<extensions>
<speed>6.2</speed>
<temp>0.00</temp>
<bpm>0</bpm>
<rpm>0.00</rpm>
</extensions>
</trkpt>
<trkpt lat="31.095994949" lon="34.828022003">
<ele>337.007813</ele>
<time>2013-11-19T10:56:39Z</time>
<speed>5.950000</speed>
<extensions>
<speed>6.0</speed>
<temp>0.00</temp>
<bpm>0</bpm>
<rpm>0.00</rpm>
</extensions>
</trkpt>
<trkpt lat="31.095735550" lon="34.828102112">
<ele>336.835938</ele>
<time>2013-11-19T10:56:44Z</time>
<speed>5.870000</speed>
<extensions>
<speed>5.9</speed>
<temp>0.00</temp>
<bpm>0</bpm>
<rpm>0.00</rpm>
</extensions>
</trkpt>
<trkpt lat="31.095491409" lon="34.828182220">
<ele>335.929688</ele>
<time>2013-11-19T10:56:49Z</time>
<speed>5.430000</speed>
<extensions>
<speed>5.4</speed>
<temp>0.00</temp>
<bpm>0</bpm>
<rpm>0.00</rpm>
</extensions>
</trkpt>
<trkpt lat="31.095264435" lon="34.828258514">
<ele>335.968750</ele>
<time>2013-11-19T10:56:54Z</time>
<speed>4.980000</speed>
<extensions>
<speed>5.0</speed>
<temp>0.00</temp>
<bpm>0</bpm>
<rpm>0.00</rpm>
</extensions>
</trkpt>
<trkpt lat="31.095052719" lon="34.828323364">
<ele>335.375000</ele>
<time>2013-11-19T10:56:59Z</time>
<speed>5.590000</speed>
<extensions>
<speed>5.6</speed>
<temp>0.00</temp>
<bpm>0</bpm>
<rpm>0.00</rpm>
</extensions>
</trkpt>
<trkpt lat="31.094831467" lon="34.828392029">
<ele>334.460938</ele>
<time>2013-11-19T10:57:04Z</time>
<speed>3.920000</speed>
<extensions>
<speed>3.9</speed>
<temp>0.00</temp>
<bpm>0</bpm>
<rpm>0.00</rpm>
</extensions>
</trkpt>
<trkpt lat="31.094669342" lon="34.828437805">
<ele>333.531250</ele>
<time>2013-11-19T10:57:09Z</time>
<speed>3.470000</speed>
<extensions>
<speed>3.5</speed>
<temp>0.00</temp>
<bpm>0</bpm>
<rpm>0.00</rpm>
</extensions>
</trkpt>
<trkpt lat="31.094514847" lon="34.828468323">
<ele>333.437500</ele>
<time>2013-11-19T10:57:14Z</time>
<speed>2.070000</speed>
<extensions>
<speed>2.1</speed>
<temp>0.00</temp>
<bpm>0</bpm>
<rpm>0.00</rpm>
</extensions>
</trkpt>
<trkpt lat="31.094512939" lon="34.828464508">
<ele>334.093750</ele>
<time>2013-11-19T10:57:19Z</time>
<speed>0.070000</speed>
<extensions>
<speed>0.1</speed>
<temp>0.00</temp>
<bpm>0</bpm>
<rpm>0.00</rpm>
</extensions>
</trkpt>
<trkpt lat="31.094512939" lon="34.828464508">
<ele>334.093750</ele>
<time>2013-11-19T10:57:24Z</time>
<speed>0.010000</speed>
<extensions>
<speed>0.0</speed>
<temp>0.00</temp>
<bpm>0</bpm>
<rpm>0.00</rpm>
</extensions>
</trkpt>
<trkpt lat="31.094512939" lon="34.828468323">
<ele>334.054688</ele>
<time>2013-11-19T10:57:29Z</time>
<speed>0.030000</speed>
<extensions>
<speed>0.0</speed>
<temp>0.00</temp>
<bpm>0</bpm>
<rpm>0.00</rpm>
</extensions>
</trkpt>
<trkpt lat="31.094514847" lon="34.828468323">
<ele>334.007813</ele>
<time>2013-11-19T10:57:34Z</time>
<speed>0.040000</speed>
<extensions>
<speed>0.0</speed>
<temp>0.00</temp>
<bpm>0</bpm>
<rpm>0.00</rpm>
</extensions>
</trkpt>
<trkpt lat="31.094514847" lon="34.828464508">
<ele>334.031250</ele>
<time>2013-11-19T10:57:39Z</time>
<speed>0.010000</speed>
<extensions>
<speed>0.0</speed>
<temp>0.00</temp>
<bpm>0</bpm>
<rpm>0.00</rpm>
</extensions>
</trkpt>
<trkpt lat="31.094514847" lon="34.828468323">
<ele>334.109375</ele>
<time>2013-11-19T10:57:44Z</time>
<speed>0.020000</speed>
<extensions>
<speed>0.0</speed>
<temp>0.00</temp>
<bpm>0</bpm>
<rpm>0.00</rpm>
</extensions>
</trkpt>
<trkpt lat="31.094514847" lon="34.828468323">
<ele>334.210938</ele>
<time>2013-11-19T10:57:49Z</time>
<speed>0.010000</speed>
<extensions>
<speed>0.0</speed>
<temp>0.00</temp>
<bpm>0</bpm>
<rpm>0.00</rpm>
</extensions>
</trkpt>
<trkpt lat="31.094516754" lon="34.828468323">
<ele>334.257813</ele>
<time>2013-11-19T10:57:54Z</time>
<extensions>
<speed>0.0</speed>
<temp>0.00</temp>
<bpm>0</bpm>
<rpm>0.00</rpm>
</extensions>
</trkpt>
<trkpt lat="31.094516754" lon="34.828468323">
<ele>334.273438</ele>
<time>2013-11-19T10:57:59Z</time>
<extensions>
<speed>0.0</speed>
<temp>0.00</temp>
<bpm>0</bpm>
<rpm>0.00</rpm>
</extensions>
</trkpt>
<trkpt lat="31.094516754" lon="34.828468323">
<ele>334.265625</ele>
<time>2013-11-19T10:58:04Z</time>
<extensions>
<speed>0.0</speed>
<temp>0.00</temp>
<bpm>0</bpm>
<rpm>0.00</rpm>
</extensions>
</trkpt>
<trkpt lat="31.094516754" lon="34.828468323">
<ele>334.281250</ele>
<time>2013-11-19T10:58:09Z</time>
<extensions>
<speed>0.0</speed>
<temp>0.00</temp>
<bpm>0</bpm>
<rpm>0.00</rpm>
</extensions>
</trkpt>
<trkpt lat="31.094516754" lon="34.828468323">
<ele>334.265625</ele>
<time>2013-11-19T10:58:14Z</time>
<extensions>
<speed>0.0</speed>
<temp>0.00</temp>
<bpm>0</bpm>
<rpm>0.00</rpm>
</extensions>
</trkpt>
<trkpt lat="31.094491959" lon="34.828464508">
<ele>334.109375</ele>
<time>2013-11-19T10:58:19Z</time>
<speed>1.820000</speed>
<extensions>
<speed>1.8</speed>
<temp>0.00</temp>
<bpm>0</bpm>
<rpm>0.00</rpm>
</extensions>
</trkpt>
<trkpt lat="31.094375610" lon="34.828502655">
<ele>334.234375</ele>
<time>2013-11-19T10:58:24Z</time>
<speed>3.590000</speed>
<extensions>
<speed>3.6</speed>
<temp>0.00</temp>
<bpm>0</bpm>
<rpm>0.00</rpm>
</extensions>
</trkpt>
<trkpt lat="31.094205856" lon="34.828536987">
<ele>334.796875</ele>
<time>2013-11-19T10:58:29Z</time>
<speed>3.970000</speed>
<extensions>
<speed>4.0</speed>
<temp>0.00</temp>
<bpm>0</bpm>
<rpm>0.00</rpm>
</extensions>
</trkpt>
<trkpt lat="31.093999863" lon="34.828567505">
<ele>335.562500</ele>
<time>2013-11-19T10:58:34Z</time>
<speed>5.040000</speed>
<extensions>
<speed>5.0</speed>
<temp>0.00</temp>
<bpm>0</bpm>
<rpm>0.00</rpm>
</extensions>
</trkpt>
<trkpt lat="31.093778610" lon="34.828620911">
<ele>335.140625</ele>
<time>2013-11-19T10:58:39Z</time>
<speed>5.350000</speed>
<extensions>
<speed>5.4</speed>
<temp>0.00</temp>
<bpm>0</bpm>
<rpm>0.00</rpm>
</extensions>
</trkpt>
<trkpt lat="31.093532562" lon="34.828685760">
<ele>334.140625</ele>
<time>2013-11-19T10:58:44Z</time>
<speed>5.640000</speed>
<extensions>
<speed>5.6</speed>
<temp>0.00</temp>
<bpm>0</bpm>
<rpm>0.00</rpm>
</extensions>
</trkpt>
<trkpt lat="31.093273163" lon="34.828742981">
<ele>333.265625</ele>
<time>2013-11-19T10:58:49Z</time>
<speed>6.020000</speed>
<extensions>
<speed>6.0</speed>
<temp>0.00</temp>
<bpm>0</bpm>
<rpm>0.00</rpm>
</extensions>
</trkpt>
<trkpt lat="31.093023300" lon="34.828792572">
<ele>333.804688</ele>
<time>2013-11-19T10:58:54Z</time>
<speed>5.760000</speed>
<extensions>
<speed>5.8</speed>
<temp>0.00</temp>
<bpm>0</bpm>
<rpm>0.00</rpm>
</extensions>
</trkpt>
<trkpt lat="31.092784882" lon="34.828853607">
<ele>333.695313</ele>
<time>2013-11-19T10:58:59Z</time>
<speed>5.280000</speed>
<extensions>
<speed>5.3</speed>
<temp>0.00</temp>
<bpm>0</bpm>
<rpm>0.00</rpm>
</extensions>
</trkpt>
<trkpt lat="31.092542648" lon="34.828891754">
<ele>334.164063</ele>
<time>2013-11-19T10:59:04Z</time>
<speed>5.360000</speed>
<extensions>
<speed>5.4</speed>
<temp>0.00</temp>
<bpm>0</bpm>
<rpm>0.00</rpm>
</extensions>
</trkpt>
<trkpt lat="31.092294693" lon="34.828926086">
<ele>335.265625</ele>
<time>2013-11-19T10:59:09Z</time>
<speed>5.410000</speed>
<extensions>
<speed>5.4</speed>
<temp>0.00</temp>
<bpm>0</bpm>
<rpm>0.00</rpm>
</extensions>
</trkpt>
<trkpt lat="31.092035294" lon="34.828975677">
<ele>335.710938</ele>
<time>2013-11-19T10:59:14Z</time>
<speed>5.950000</speed>
<extensions>
<speed>6.0</speed>
<temp>0.00</temp>
<bpm>0</bpm>
<rpm>0.00</rpm>
</extensions>
</trkpt>
<trkpt lat="31.091745377" lon="34.829017639">
<ele>335.835938</ele>
<time>2013-11-19T10:59:19Z</time>
<speed>6.200000</speed>
<extensions>
<speed>6.2</speed>
<temp>0.00</temp>
<bpm>0</bpm>
<rpm>0.00</rpm>
</extensions>
</trkpt>
<trkpt lat="31.091459274" lon="34.829074860">
<ele>336.507813</ele>
<time>2013-11-19T10:59:24Z</time>
<speed>5.580000</speed>
<extensions>
<speed>5.6</speed>
<temp>0.00</temp>
<bpm>0</bpm>
<rpm>0.00</rpm>
</extensions>
</trkpt>
<trkpt lat="31.091199875" lon="34.829120636">
<ele>337.296875</ele>
<time>2013-11-19T10:59:29Z</time>
<speed>6.010000</speed>
<extensions>
<speed>6.0</speed>
<temp>0.00</temp>
<bpm>0</bpm>
<rpm>0.00</rpm>
</extensions>
</trkpt>
<trkpt lat="31.090944290" lon="34.829189301">
<ele>337.265625</ele>
<time>2013-11-19T10:59:34Z</time>
<speed>5.150000</speed>
<extensions>
<speed>5.2</speed>
<temp>0.00</temp>
<bpm>0</bpm>
<rpm>0.00</rpm>
</extensions>
</trkpt>
<trkpt lat="31.090711594" lon="34.829265594">
<ele>336.562500</ele>
<time>2013-11-19T10:59:39Z</time>
<speed>5.530000</speed>
<extensions>
<speed>5.5</speed>
<temp>0.00</temp>
<bpm>0</bpm>
<rpm>0.00</rpm>
</extensions>
</trkpt>
<trkpt lat="31.090467453" lon="34.829360962">
<ele>336.531250</ele>
<time>2013-11-19T10:59:44Z</time>
<speed>5.400000</speed>
<extensions>
<speed>5.4</speed>
<temp>0.00</temp>
<bpm>0</bpm>
<rpm>0.00</rpm>
</extensions>
</trkpt>
<trkpt lat="31.090257645" lon="34.829460144">
<ele>337.875000</ele>
<time>2013-11-19T10:59:49Z</time>
<speed>4.900000</speed>
<extensions>
<speed>4.9</speed>
<temp>0.00</temp>
<bpm>0</bpm>
<rpm>0.00</rpm>
</extensions>
</trkpt>
<trkpt lat="31.090040207" lon="34.829570770">
<ele>339.414063</ele>
<time>2013-11-19T10:59:54Z</time>
<speed>5.980000</speed>
<extensions>
<speed>6.0</speed>
<temp>0.00</temp>
<bpm>0</bpm>
<rpm>0.00</rpm>
</extensions>
</trkpt>
<trkpt lat="31.089801788" lon="34.829715729">
<ele>338.914063</ele>
<time>2013-11-19T10:59:59Z</time>
<speed>5.880000</speed>
<extensions>
<speed>5.9</speed>
<temp>0.00</temp>
<bpm>0</bpm>
<rpm>0.00</rpm>
</extensions>
</trkpt>
<trkpt lat="31.089576721" lon="34.829887390">
<ele>339.796875</ele>
<time>2013-11-19T11:00:04Z</time>
<speed>5.790000</speed>
<extensions>
<speed>5.8</speed>
<temp>0.00</temp>
<bpm>0</bpm>
<rpm>0.00</rpm>
</extensions>
</trkpt>
<trkpt lat="31.089370728" lon="34.830043793">
<ele>338.054688</ele>
<time>2013-11-19T11:00:09Z</time>
<speed>5.010000</speed>
<extensions>
<speed>5.0</speed>
<temp>0.00</temp>
<bpm>0</bpm>
<rpm>0.00</rpm>
</extensions>
</trkpt>
<trkpt lat="31.089166641" lon="34.830215454">
<ele>339.429688</ele>
<time>2013-11-19T11:00:14Z</time>
<speed>5.670000</speed>
<extensions>
<speed>5.7</speed>
<temp>0.00</temp>
<bpm>0</bpm>
<rpm>0.00</rpm>
</extensions>
</trkpt>
<trkpt lat="31.088964462" lon="34.830448151">
<ele>337.742188</ele>
<time>2013-11-19T11:00:19Z</time>
<speed>6.040000</speed>
<extensions>
<speed>6.0</speed>
<temp>0.00</temp>
<bpm>0</bpm>
<rpm>0.00</rpm>
</extensions>
</trkpt>
<trkpt lat="31.088804245" lon="34.830638885">
<ele>336.210938</ele>
<time>2013-11-19T11:00:24Z</time>
<speed>5.100000</speed>
<extensions>
<speed>5.1</speed>
<temp>0.00</temp>
<bpm>0</bpm>
<rpm>0.00</rpm>
</extensions>
</trkpt>
<trkpt lat="31.088659286" lon="34.830818176">
<ele>335.078125</ele>
<time>2013-11-19T11:00:29Z</time>
<speed>4.630000</speed>
<extensions>
<speed>4.6</speed>
<temp>0.00</temp>
<bpm>0</bpm>
<rpm>0.00</rpm>
</extensions>
</trkpt>
<trkpt lat="31.088502884" lon="34.830997467">
<ele>334.679688</ele>
<time>2013-11-19T11:00:34Z</time>
<speed>5.530000</speed>
<extensions>
<speed>5.5</speed>
<temp>0.00</temp>
<bpm>0</bpm>
<rpm>0.00</rpm>
</extensions>
</trkpt>
<trkpt lat="31.088319778" lon="34.831203461">
<ele>335.585938</ele>
<time>2013-11-19T11:00:39Z</time>
<speed>5.340000</speed>
<extensions>
<speed>5.3</speed>
<temp>0.00</temp>
<bpm>0</bpm>
<rpm>0.00</rpm>
</extensions>
</trkpt>
<trkpt lat="31.088180542" lon="34.831363678">
<ele>334.914063</ele>
<time>2013-11-19T11:00:44Z</time>
<speed>4.020000</speed>
<extensions>
<speed>4.0</speed>
<temp>0.00</temp>
<bpm>0</bpm>
<rpm>0.00</rpm>
</extensions>
</trkpt>
<trkpt lat="31.088045120" lon="34.831520081">
<ele>334.382813</ele>
<time>2013-11-19T11:00:49Z</time>
<speed>4.130000</speed>
<extensions>
<speed>4.1</speed>
<temp>0.00</temp>
<bpm>0</bpm>
<rpm>0.00</rpm>
</extensions>
</trkpt>
<trkpt lat="31.087928772" lon="34.831657410">
<ele>334.460938</ele>
<time>2013-11-19T11:00:54Z</time>
<speed>3.390000</speed>
<extensions>
<speed>3.4</speed>
<temp>0.00</temp>
<bpm>0</bpm>
<rpm>0.00</rpm>
</extensions>
</trkpt>
<trkpt lat="31.087829590" lon="34.831760406">
<ele>336.000000</ele>
<time>2013-11-19T11:00:59Z</time>
<speed>2.980000</speed>
<extensions>
<speed>3.0</speed>
<temp>0.00</temp>
<bpm>0</bpm>
<rpm>0.00</rpm>
</extensions>
</trkpt>
<trkpt lat="31.087705612" lon="34.831909180">
<ele>336.101563</ele>
<time>2013-11-19T11:01:04Z</time>
<speed>4.190000</speed>
<extensions>
<speed>4.2</speed>
<temp>0.00</temp>
<bpm>0</bpm>
<rpm>0.00</rpm>
</extensions>
</trkpt>
<trkpt lat="31.087568283" lon="34.832077026">
<ele>337.562500</ele>
<time>2013-11-19T11:01:09Z</time>
<speed>4.690000</speed>
<extensions>
<speed>4.7</speed>
<temp>0.00</temp>
<bpm>0</bpm>
<rpm>0.00</rpm>
</extensions>
</trkpt>
<trkpt lat="31.087400436" lon="34.832263947">
<ele>338.750000</ele>
<time>2013-11-19T11:01:14Z</time>
<speed>5.100000</speed>
<extensions>
<speed>5.1</speed>
<temp>0.00</temp>
<bpm>0</bpm>
<rpm>0.00</rpm>
</extensions>
</trkpt>
<trkpt lat="31.087255478" lon="34.832424164">
<ele>339.250000</ele>
<time>2013-11-19T11:01:19Z</time>
<speed>4.160000</speed>
<extensions>
<speed>4.2</speed>
<temp>0.00</temp>
<bpm>0</bpm>
<rpm>0.00</rpm>
</extensions>
</trkpt>
<trkpt lat="31.087137222" lon="34.832557678">
<ele>339.257813</ele>
<time>2013-11-19T11:01:24Z</time>
<speed>3.480000</speed>
<extensions>
<speed>3.5</speed>
<temp>0.00</temp>
<bpm>0</bpm>
<rpm>0.00</rpm>
</extensions>
</trkpt>
<trkpt lat="31.087003708" lon="34.832695007">
<ele>339.289063</ele>
<time>2013-11-19T11:01:29Z</time>
<speed>4.880000</speed>
<extensions>
<speed>4.9</speed>
<temp>0.00</temp>
<bpm>0</bpm>
<rpm>0.00</rpm>
</extensions>
</trkpt>
<trkpt lat="31.086833954" lon="34.832870483">
<ele>339.023438</ele>
<time>2013-11-19T11:01:34Z</time>
<speed>5.290000</speed>
<extensions>
<speed>5.3</speed>
<temp>0.00</temp>
<bpm>0</bpm>
<rpm>0.00</rpm>
</extensions>
</trkpt>
<trkpt lat="31.086635590" lon="34.833049774">
<ele>338.664063</ele>
<time>2013-11-19T11:01:39Z</time>
<speed>5.210000</speed>
<extensions>
<speed>5.2</speed>
<temp>0.00</temp>
<bpm>0</bpm>
<rpm>0.00</rpm>
</extensions>
</trkpt>
<trkpt lat="31.086435318" lon="34.833206177">
<ele>337.882813</ele>
<time>2013-11-19T11:01:44Z</time>
<speed>5.600000</speed>
<extensions>
<speed>5.6</speed>
<temp>0.00</temp>
<bpm>0</bpm>
<rpm>0.00</rpm>
</extensions>
</trkpt>
<trkpt lat="31.086235046" lon="34.833362579">
<ele>337.726563</ele>
<time>2013-11-19T11:01:49Z</time>
<speed>5.170000</speed>
<extensions>
<speed>5.2</speed>
<temp>0.00</temp>
<bpm>0</bpm>
<rpm>0.00</rpm>
</extensions>
</trkpt>
<trkpt lat="31.086023331" lon="34.833507538">
<ele>338.335938</ele>
<time>2013-11-19T11:01:54Z</time>
<speed>5.660000</speed>
<extensions>
<speed>5.7</speed>
<temp>0.00</temp>
<bpm>0</bpm>
<rpm>0.00</rpm>
</extensions>
</trkpt>
<trkpt lat="31.085798264" lon="34.833663940">
<ele>337.632813</ele>
<time>2013-11-19T11:01:59Z</time>
<speed>5.770000</speed>
<extensions>
<speed>5.8</speed>
<temp>0.00</temp>
<bpm>0</bpm>
<rpm>0.00</rpm>
</extensions>
</trkpt>
<trkpt lat="31.085571289" lon="34.833801270">
<ele>338.078125</ele>
<time>2013-11-19T11:02:04Z</time>
<speed>5.670000</speed>
<extensions>
<speed>5.7</speed>
<temp>0.00</temp>
<bpm>0</bpm>
<rpm>0.00</rpm>
</extensions>
</trkpt>
<trkpt lat="31.085359573" lon="34.833915710">
<ele>338.273438</ele>
<time>2013-11-19T11:02:09Z</time>
<speed>4.680000</speed>
<extensions>
<speed>4.7</speed>
<temp>0.00</temp>
<bpm>0</bpm>
<rpm>0.00</rpm>
</extensions>
</trkpt>
<trkpt lat="31.085153580" lon="34.834033966">
<ele>338.429688</ele>
<time>2013-11-19T11:02:14Z</time>
<speed>5.590000</speed>
<extensions>
<speed>5.6</speed>
<temp>0.00</temp>
<bpm>0</bpm>
<rpm>0.00</rpm>
</extensions>
</trkpt>
<trkpt lat="31.084913254" lon="34.834140778">
<ele>338.164063</ele>
<time>2013-11-19T11:02:19Z</time>
<speed>5.810000</speed>
<extensions>
<speed>5.8</speed>
<temp>0.00</temp>
<bpm>0</bpm>
<rpm>0.00</rpm>
</extensions>
</trkpt>
<trkpt lat="31.084684372" lon="34.834228516">
<ele>338.632813</ele>
<time>2013-11-19T11:02:24Z</time>
<speed>5.080000</speed>
<extensions>
<speed>5.1</speed>
<temp>0.00</temp>
<bpm>0</bpm>
<rpm>0.00</rpm>
</extensions>
</trkpt>
<trkpt lat="31.084453583" lon="34.834312439">
<ele>339.039063</ele>
<time>2013-11-19T11:02:29Z</time>
<speed>5.670000</speed>
<extensions>
<speed>5.7</speed>
<temp>0.00</temp>
<bpm>0</bpm>
<rpm>0.00</rpm>
</extensions>
</trkpt>
<trkpt lat="31.084196091" lon="34.834396362">
<ele>338.539063</ele>
<time>2013-11-19T11:02:34Z</time>
<speed>5.940000</speed>
<extensions>
<speed>5.9</speed>
<temp>0.00</temp>
<bpm>0</bpm>
<rpm>0.00</rpm>
</extensions>
</trkpt>
<trkpt lat="31.083957672" lon="34.834457397">
<ele>338.781250</ele>
<time>2013-11-19T11:02:39Z</time>
<speed>5.220000</speed>
<extensions>
<speed>5.2</speed>
<temp>0.00</temp>
<bpm>0</bpm>
<rpm>0.00</rpm>
</extensions>
</trkpt>
<trkpt lat="31.083847046" lon="34.834476471">
<ele>340.085938</ele>
<time>2013-11-19T11:02:44Z</time>
<speed>0.060000</speed>
<extensions>
<speed>0.1</speed>
<temp>0.00</temp>
<bpm>0</bpm>
<rpm>0.00</rpm>
</extensions>
</trkpt>
<trkpt lat="31.083850861" lon="34.834480286">
<ele>340.070313</ele>
<time>2013-11-19T11:02:49Z</time>
<speed>0.030000</speed>
<extensions>
<speed>0.0</speed>
<temp>0.00</temp>
<bpm>0</bpm>
<rpm>0.00</rpm>
</extensions>
</trkpt>
<trkpt lat="31.083848953" lon="34.834480286">
<ele>340.031250</ele>
<time>2013-11-19T11:02:54Z</time>
<speed>0.050000</speed>
<extensions>
<speed>0.1</speed>
<temp>0.00</temp>
<bpm>0</bpm>
<rpm>0.00</rpm>
</extensions>
</trkpt>
<trkpt lat="31.083848953" lon="34.834480286">
<ele>339.992188</ele>
<time>2013-11-19T11:02:59Z</time>
<speed>0.030000</speed>
<extensions>
<speed>0.0</speed>
<temp>0.00</temp>
<bpm>0</bpm>
<rpm>0.00</rpm>
</extensions>
</trkpt>
<trkpt lat="31.083848953" lon="34.834480286">
<ele>339.976563</ele>
<time>2013-11-19T11:03:04Z</time>
<speed>0.020000</speed>
<extensions>
<speed>0.0</speed>
<temp>0.00</temp>
<bpm>0</bpm>
<rpm>0.00</rpm>
</extensions>
</trkpt>
<trkpt lat="31.083848953" lon="34.834480286">
<ele>339.968750</ele>
<time>2013-11-19T11:03:09Z</time>
<extensions>
<speed>0.0</speed>
<temp>0.00</temp>
<bpm>0</bpm>
<rpm>0.00</rpm>
</extensions>
</trkpt>
<trkpt lat="31.083847046" lon="34.834480286">
<ele>339.953125</ele>
<time>2013-11-19T11:03:14Z</time>
<speed>0.010000</speed>
<extensions>
<speed>0.0</speed>
<temp>0.00</temp>
<bpm>0</bpm>
<rpm>0.00</rpm>
</extensions>
</trkpt>
<trkpt lat="31.083847046" lon="34.834480286">
<ele>339.937500</ele>
<time>2013-11-19T11:03:19Z</time>
<speed>0.010000</speed>
<extensions>
<speed>0.0</speed>
<temp>0.00</temp>
<bpm>0</bpm>
<rpm>0.00</rpm>
</extensions>
</trkpt>
<trkpt lat="31.083847046" lon="34.834480286">
<ele>339.929688</ele>
<time>2013-11-19T11:03:24Z</time>
<speed>0.020000</speed>
<extensions>
<speed>0.0</speed>
<temp>0.00</temp>
<bpm>0</bpm>
<rpm>0.00</rpm>
</extensions>
</trkpt>
<trkpt lat="31.083847046" lon="34.834480286">
<ele>339.929688</ele>
<time>2013-11-19T11:03:29Z</time>
<extensions>
<speed>0.0</speed>
<temp>0.00</temp>
<bpm>0</bpm>
<rpm>0.00</rpm>
</extensions>
</trkpt>
<trkpt lat="31.083847046" lon="34.834480286">
<ele>339.914063</ele>
<time>2013-11-19T11:03:34Z</time>
<speed>0.010000</speed>
<extensions>
<speed>0.0</speed>
<temp>0.00</temp>
<bpm>0</bpm>
<rpm>0.00</rpm>
</extensions>
</trkpt>
<trkpt lat="31.083847046" lon="34.834480286">
<ele>339.906250</ele>
<time>2013-11-19T11:03:39Z</time>
<speed>0.010000</speed>
<extensions>
<speed>0.0</speed>
<temp>0.00</temp>
<bpm>0</bpm>
<rpm>0.00</rpm>
</extensions>
</trkpt>
<trkpt lat="31.083845139" lon="34.834480286">
<ele>339.906250</ele>
<time>2013-11-19T11:03:44Z</time>
<speed>0.010000</speed>
<extensions>
<speed>0.0</speed>
<temp>0.00</temp>
<bpm>0</bpm>
<rpm>0.00</rpm>
</extensions>
</trkpt>
<trkpt lat="31.083845139" lon="34.834480286">
<ele>339.914063</ele>
<time>2013-11-19T11:03:49Z</time>
<extensions>
<speed>0.0</speed>
<temp>0.00</temp>
<bpm>0</bpm>
<rpm>0.00</rpm>
</extensions>
</trkpt>
<trkpt lat="31.083845139" lon="34.834480286">
<ele>339.914063</ele>
<time>2013-11-19T11:03:54Z</time>
<extensions>
<speed>0.0</speed>
<temp>0.00</temp>
<bpm>0</bpm>
<rpm>0.00</rpm>
</extensions>
</trkpt>
<trkpt lat="31.083845139" lon="34.834480286">
<ele>339.898438</ele>
<time>2013-11-19T11:03:59Z</time>
<speed>0.010000</speed>
<extensions>
<speed>0.0</speed>
<temp>0.00</temp>
<bpm>0</bpm>
<rpm>0.00</rpm>
</extensions>
</trkpt>
<trkpt lat="31.083845139" lon="34.834480286">
<ele>339.906250</ele>
<time>2013-11-19T11:04:04Z</time>
<extensions>
<speed>0.0</speed>
<temp>0.00</temp>
<bpm>0</bpm>
<rpm>0.00</rpm>
</extensions>
</trkpt>
<trkpt lat="31.083845139" lon="34.834480286">
<ele>339.890625</ele>
<time>2013-11-19T11:04:09Z</time>
<speed>0.010000</speed>
<extensions>
<speed>0.0</speed>
<temp>0.00</temp>
<bpm>0</bpm>
<rpm>0.00</rpm>
</extensions>
</trkpt>
<trkpt lat="31.083845139" lon="34.834480286">
<ele>339.882813</ele>
<time>2013-11-19T11:04:14Z</time>
<speed>0.010000</speed>
<extensions>
<speed>0.0</speed>
<temp>0.00</temp>
<bpm>0</bpm>
<rpm>0.00</rpm>
</extensions>
</trkpt>
<trkpt lat="31.083845139" lon="34.834480286">
<ele>339.867188</ele>
<time>2013-11-19T11:04:19Z</time>
<speed>0.010000</speed>
<extensions>
<speed>0.0</speed>
<temp>0.00</temp>
<bpm>0</bpm>
<rpm>0.00</rpm>
</extensions>
</trkpt>
<trkpt lat="31.083845139" lon="34.834476471">
<ele>339.843750</ele>
<time>2013-11-19T11:04:24Z</time>
<extensions>
<speed>0.0</speed>
<temp>0.00</temp>
<bpm>0</bpm>
<rpm>0.00</rpm>
</extensions>
</trkpt>
<trkpt lat="31.083845139" lon="34.834476471">
<ele>339.835938</ele>
<time>2013-11-19T11:04:29Z</time>
<speed>0.010000</speed>
<extensions>
<speed>0.0</speed>
<temp>0.00</temp>
<bpm>0</bpm>
<rpm>0.00</rpm>
</extensions>
</trkpt>
<trkpt lat="31.083843231" lon="34.834476471">
<ele>339.812500</ele>
<time>2013-11-19T11:04:34Z</time>
<extensions>
<speed>0.0</speed>
<temp>0.00</temp>
<bpm>0</bpm>
<rpm>0.00</rpm>
</extensions>
</trkpt>
<trkpt lat="31.083843231" lon="34.834476471">
<ele>339.789063</ele>
<time>2013-11-19T11:04:39Z</time>
<extensions>
<speed>0.0</speed>
<temp>0.00</temp>
<bpm>0</bpm>
<rpm>0.00</rpm>
</extensions>
</trkpt>
<trkpt lat="31.083843231" lon="34.834476471">
<ele>339.773438</ele>
<time>2013-11-19T11:04:44Z</time>
<speed>0.010000</speed>
<extensions>
<speed>0.0</speed>
<temp>0.00</temp>
<bpm>0</bpm>
<rpm>0.00</rpm>
</extensions>
</trkpt>
<trkpt lat="31.083843231" lon="34.834476471">
<ele>339.750000</ele>
<time>2013-11-19T11:04:49Z</time>
<extensions>
<speed>0.0</speed>
<temp>0.00</temp>
<bpm>0</bpm>
<rpm>0.00</rpm>
</extensions>
</trkpt>
<trkpt lat="31.083843231" lon="34.834476471">
<ele>339.726563</ele>
<time>2013-11-19T11:04:54Z</time>
<extensions>
<speed>0.0</speed>
<temp>0.00</temp>
<bpm>0</bpm>
<rpm>0.00</rpm>
</extensions>
</trkpt>
<trkpt lat="31.083843231" lon="34.834476471">
<ele>339.703125</ele>
<time>2013-11-19T11:04:59Z</time>
<extensions>
<speed>0.0</speed>
<temp>0.00</temp>
<bpm>0</bpm>
<rpm>0.00</rpm>
</extensions>
</trkpt>
<trkpt lat="31.083843231" lon="34.834476471">
<ele>339.679688</ele>
<time>2013-11-19T11:05:04Z</time>
<speed>0.010000</speed>
<extensions>
<speed>0.0</speed>
<temp>0.00</temp>
<bpm>0</bpm>
<rpm>0.00</rpm>
</extensions>
</trkpt>
<trkpt lat="31.083841324" lon="34.834476471">
<ele>339.656250</ele>
<time>2013-11-19T11:05:09Z</time>
<speed>0.010000</speed>
<extensions>
<speed>0.0</speed>
<temp>0.00</temp>
<bpm>0</bpm>
<rpm>0.00</rpm>
</extensions>
</trkpt>
<trkpt lat="31.083841324" lon="34.834476471">
<ele>339.625000</ele>
<time>2013-11-19T11:05:14Z</time>
<speed>0.010000</speed>
<extensions>
<speed>0.0</speed>
<temp>0.00</temp>
<bpm>0</bpm>
<rpm>0.00</rpm>
</extensions>
</trkpt>
<trkpt lat="31.083841324" lon="34.834476471">
<ele>339.609375</ele>
<time>2013-11-19T11:05:19Z</time>
<extensions>
<speed>0.0</speed>
<temp>0.00</temp>
<bpm>0</bpm>
<rpm>0.00</rpm>
</extensions>
</trkpt>
<trkpt lat="31.083841324" lon="34.834476471">
<ele>339.593750</ele>
<time>2013-11-19T11:05:24Z</time>
<speed>0.010000</speed>
<extensions>
<speed>0.0</speed>
<temp>0.00</temp>
<bpm>0</bpm>
<rpm>0.00</rpm>
</extensions>
</trkpt>
<trkpt lat="31.083841324" lon="34.834476471">
<ele>339.578125</ele>
<time>2013-11-19T11:05:29Z</time>
<speed>0.010000</speed>
<extensions>
<speed>0.0</speed>
<temp>0.00</temp>
<bpm>0</bpm>
<rpm>0.00</rpm>
</extensions>
</trkpt>
<trkpt lat="31.083841324" lon="34.834476471">
<ele>339.554688</ele>
<time>2013-11-19T11:05:34Z</time>
<extensions>
<speed>0.0</speed>
<temp>0.00</temp>
<bpm>0</bpm>
<rpm>0.00</rpm>
</extensions>
</trkpt>
<trkpt lat="31.083841324" lon="34.834476471">
<ele>339.531250</ele>
<time>2013-11-19T11:05:39Z</time>
<extensions>
<speed>0.0</speed>
<temp>0.00</temp>
<bpm>0</bpm>
<rpm>0.00</rpm>
</extensions>
</trkpt>
<trkpt lat="31.083839417" lon="34.834476471">
<ele>339.507813</ele>
<time>2013-11-19T11:05:44Z</time>
<speed>0.010000</speed>
<extensions>
<speed>0.0</speed>
<temp>0.00</temp>
<bpm>0</bpm>
<rpm>0.00</rpm>
</extensions>
</trkpt>
<trkpt lat="31.083839417" lon="34.834476471">
<ele>339.500000</ele>
<time>2013-11-19T11:05:49Z</time>
<speed>0.010000</speed>
<extensions>
<speed>0.0</speed>
<temp>0.00</temp>
<bpm>0</bpm>
<rpm>0.00</rpm>
</extensions>
</trkpt>
<trkpt lat="31.083837509" lon="34.834476471">
<ele>339.437500</ele>
<time>2013-11-19T11:05:54Z</time>
<speed>0.920000</speed>
<extensions>
<speed>0.9</speed>
<temp>0.00</temp>
<bpm>0</bpm>
<rpm>0.00</rpm>
</extensions>
</trkpt>
<trkpt lat="31.083723068" lon="34.834514618">
<ele>339.843750</ele>
<time>2013-11-19T11:05:59Z</time>
<speed>3.840000</speed>
<extensions>
<speed>3.8</speed>
<temp>0.00</temp>
<bpm>0</bpm>
<rpm>0.00</rpm>
</extensions>
</trkpt>
<trkpt lat="31.083518982" lon="34.834583282">
<ele>339.578125</ele>
<time>2013-11-19T11:06:04Z</time>
<speed>5.010000</speed>
<extensions>
<speed>5.0</speed>
<temp>0.00</temp>
<bpm>0</bpm>
<rpm>0.00</rpm>
</extensions>
</trkpt>
<trkpt lat="31.083288193" lon="34.834651947">
<ele>340.437500</ele>
<time>2013-11-19T11:06:09Z</time>
<speed>5.050000</speed>
<extensions>
<speed>5.1</speed>
<temp>0.00</temp>
<bpm>0</bpm>
<rpm>0.00</rpm>
</extensions>
</trkpt>
<trkpt lat="31.083051682" lon="34.834747314">
<ele>337.148438</ele>
<time>2013-11-19T11:06:14Z</time>
<speed>5.490000</speed>
<extensions>
<speed>5.5</speed>
<temp>0.00</temp>
<bpm>0</bpm>
<rpm>0.00</rpm>
</extensions>
</trkpt>
<trkpt lat="31.082822800" lon="34.834812164">
<ele>338.648438</ele>
<time>2013-11-19T11:06:19Z</time>
<speed>4.360000</speed>
<extensions>
<speed>4.4</speed>
<temp>0.00</temp>
<bpm>0</bpm>
<rpm>0.00</rpm>
</extensions>
</trkpt>
<trkpt lat="31.082736969" lon="34.834831238">
<ele>338.929688</ele>
<time>2013-11-19T11:06:24Z</time>
<speed>1.040000</speed>
<extensions>
<speed>1.0</speed>
<temp>0.00</temp>
<bpm>0</bpm>
<rpm>0.00</rpm>
</extensions>
</trkpt>
<trkpt lat="31.082635880" lon="34.834857941">
<ele>338.578125</ele>
<time>2013-11-19T11:06:29Z</time>
<speed>2.900000</speed>
<extensions>
<speed>2.9</speed>
<temp>0.00</temp>
<bpm>0</bpm>
<rpm>0.00</rpm>
</extensions>
</trkpt>
<trkpt lat="31.082468033" lon="34.834907532">
<ele>338.625000</ele>
<time>2013-11-19T11:06:34Z</time>
<speed>4.590000</speed>
<extensions>
<speed>4.6</speed>
<temp>0.00</temp>
<bpm>0</bpm>
<rpm>0.00</rpm>
</extensions>
</trkpt>
<trkpt lat="31.082246780" lon="34.834980011">
<ele>337.914063</ele>
<time>2013-11-19T11:06:39Z</time>
<speed>5.450000</speed>
<extensions>
<speed>5.5</speed>
<temp>0.00</temp>
<bpm>0</bpm>
<rpm>0.00</rpm>
</extensions>
</trkpt>
<trkpt lat="31.082014084" lon="34.835052490">
<ele>337.554688</ele>
<time>2013-11-19T11:06:44Z</time>
<speed>4.990000</speed>
<extensions>
<speed>5.0</speed>
<temp>0.00</temp>
<bpm>0</bpm>
<rpm>0.00</rpm>
</extensions>
</trkpt>
<trkpt lat="31.081785202" lon="34.835128784">
<ele>337.500000</ele>
<time>2013-11-19T11:06:49Z</time>
<speed>5.700000</speed>
<extensions>
<speed>5.7</speed>
<temp>0.00</temp>
<bpm>0</bpm>
<rpm>0.00</rpm>
</extensions>
</trkpt>
<trkpt lat="31.081527710" lon="34.835205078">
<ele>337.476563</ele>
<time>2013-11-19T11:06:54Z</time>
<speed>5.470000</speed>
<extensions>
<speed>5.5</speed>
<temp>0.00</temp>
<bpm>0</bpm>
<rpm>0.00</rpm>
</extensions>
</trkpt>
<trkpt lat="31.081279755" lon="34.835269928">
<ele>336.718750</ele>
<time>2013-11-19T11:06:59Z</time>
<speed>5.720000</speed>
<extensions>
<speed>5.7</speed>
<temp>0.00</temp>
<bpm>0</bpm>
<rpm>0.00</rpm>
</extensions>
</trkpt>
<trkpt lat="31.081014633" lon="34.835353851">
<ele>336.101563</ele>
<time>2013-11-19T11:07:04Z</time>
<speed>5.600000</speed>
<extensions>
<speed>5.6</speed>
<temp>0.00</temp>
<bpm>0</bpm>
<rpm>0.00</rpm>
</extensions>
</trkpt>
<trkpt lat="31.080781937" lon="34.835407257">
<ele>336.328125</ele>
<time>2013-11-19T11:07:09Z</time>
<speed>5.290000</speed>
<extensions>
<speed>5.3</speed>
<temp>0.00</temp>
<bpm>0</bpm>
<rpm>0.00</rpm>
</extensions>
</trkpt>
<trkpt lat="31.080535889" lon="34.835491180">
<ele>336.531250</ele>
<time>2013-11-19T11:07:14Z</time>
<speed>6.070000</speed>
<extensions>
<speed>6.1</speed>
<temp>0.00</temp>
<bpm>0</bpm>
<rpm>0.00</rpm>
</extensions>
</trkpt>
<trkpt lat="31.080287933" lon="34.835536957">
<ele>338.593750</ele>
<time>2013-11-19T11:07:19Z</time>
<speed>5.780000</speed>
<extensions>
<speed>5.8</speed>
<temp>0.00</temp>
<bpm>0</bpm>
<rpm>0.00</rpm>
</extensions>
</trkpt>
<trkpt lat="31.080032349" lon="34.835636139">
<ele>337.789063</ele>
<time>2013-11-19T11:07:24Z</time>
<speed>6.300000</speed>
<extensions>
<speed>6.3</speed>
<temp>0.00</temp>
<bpm>0</bpm>
<rpm>0.00</rpm>
</extensions>
</trkpt>
<trkpt lat="31.079784393" lon="34.835720062">
<ele>338.742188</ele>
<time>2013-11-19T11:07:29Z</time>
<speed>5.200000</speed>
<extensions>
<speed>5.2</speed>
<temp>0.00</temp>
<bpm>0</bpm>
<rpm>0.00</rpm>
</extensions>
</trkpt>
<trkpt lat="31.079568863" lon="34.835792542">
<ele>339.054688</ele>
<time>2013-11-19T11:07:34Z</time>
<speed>5.380000</speed>
<extensions>
<speed>5.4</speed>
<temp>0.00</temp>
<bpm>0</bpm>
<rpm>0.00</rpm>
</extensions>
</trkpt>
<trkpt lat="31.079338074" lon="34.835868835">
<ele>340.132813</ele>
<time>2013-11-19T11:07:39Z</time>
<speed>4.830000</speed>
<extensions>
<speed>4.8</speed>
<temp>0.00</temp>
<bpm>0</bpm>
<rpm>0.00</rpm>
</extensions>
</trkpt>
<trkpt lat="31.079130173" lon="34.835929871">
<ele>340.921875</ele>
<time>2013-11-19T11:07:44Z</time>
<speed>5.260000</speed>
<extensions>
<speed>5.3</speed>
<temp>0.00</temp>
<bpm>0</bpm>
<rpm>0.00</rpm>
</extensions>
</trkpt>
<trkpt lat="31.078893661" lon="34.835998535">
<ele>341.007813</ele>
<time>2013-11-19T11:07:49Z</time>
<speed>5.880000</speed>
<extensions>
<speed>5.9</speed>
<temp>0.00</temp>
<bpm>0</bpm>
<rpm>0.00</rpm>
</extensions>
</trkpt>
<trkpt lat="31.078660965" lon="34.836078644">
<ele>341.523438</ele>
<time>2013-11-19T11:07:54Z</time>
<speed>5.650000</speed>
<extensions>
<speed>5.7</speed>
<temp>0.00</temp>
<bpm>0</bpm>
<rpm>0.00</rpm>
</extensions>
</trkpt>
<trkpt lat="31.078407288" lon="34.836177826">
<ele>341.476563</ele>
<time>2013-11-19T11:07:59Z</time>
<speed>6.100000</speed>
<extensions>
<speed>6.1</speed>
<temp>0.00</temp>
<bpm>0</bpm>
<rpm>0.00</rpm>
</extensions>
</trkpt>
<trkpt lat="31.078157425" lon="34.836215973">
<ele>346.484375</ele>
<time>2013-11-19T11:08:04Z</time>
<speed>5.340000</speed>
<extensions>
<speed>5.3</speed>
<temp>0.00</temp>
<bpm>0</bpm>
<rpm>0.00</rpm>
</extensions>
</trkpt>
<trkpt lat="31.077907562" lon="34.836326599">
<ele>347.109375</ele>
<time>2013-11-19T11:08:09Z</time>
<speed>6.170000</speed>
<extensions>
<speed>6.2</speed>
<temp>0.00</temp>
<bpm>0</bpm>
<rpm>0.00</rpm>
</extensions>
</trkpt>
<trkpt lat="31.077680588" lon="34.836460114">
<ele>347.187500</ele>
<time>2013-11-19T11:08:14Z</time>
<speed>5.460000</speed>
<extensions>
<speed>5.5</speed>
<temp>0.00</temp>
<bpm>0</bpm>
<rpm>0.00</rpm>
</extensions>
</trkpt>
<trkpt lat="31.077451706" lon="34.836608887">
<ele>347.375000</ele>
<time>2013-11-19T11:08:19Z</time>
<speed>6.280000</speed>
<extensions>
<speed>6.3</speed>
<temp>0.00</temp>
<bpm>0</bpm>
<rpm>0.00</rpm>
</extensions>
</trkpt>
<trkpt lat="31.077230453" lon="34.836769104">
<ele>348.164063</ele>
<time>2013-11-19T11:08:24Z</time>
<speed>5.160000</speed>
<extensions>
<speed>5.2</speed>
<temp>0.00</temp>
<bpm>0</bpm>
<rpm>0.00</rpm>
</extensions>
</trkpt>
<trkpt lat="31.077022552" lon="34.836940765">
<ele>347.882813</ele>
<time>2013-11-19T11:08:29Z</time>
<speed>6.140000</speed>
<extensions>
<speed>6.1</speed>
<temp>0.00</temp>
<bpm>0</bpm>
<rpm>0.00</rpm>
</extensions>
</trkpt>
<trkpt lat="31.076828003" lon="34.837123871">
<ele>347.476563</ele>
<time>2013-11-19T11:08:34Z</time>
<speed>5.580000</speed>
<extensions>
<speed>5.6</speed>
<temp>0.00</temp>
<bpm>0</bpm>
<rpm>0.00</rpm>
</extensions>
</trkpt>
<trkpt lat="31.076618195" lon="34.837326050">
<ele>348.023438</ele>
<time>2013-11-19T11:08:39Z</time>
<speed>5.740000</speed>
<extensions>
<speed>5.7</speed>
<temp>0.00</temp>
<bpm>0</bpm>
<rpm>0.00</rpm>
</extensions>
</trkpt>
<trkpt lat="31.076448441" lon="34.837509155">
<ele>347.664063</ele>
<time>2013-11-19T11:08:44Z</time>
<speed>5.020000</speed>
<extensions>
<speed>5.0</speed>
<temp>0.00</temp>
<bpm>0</bpm>
<rpm>0.00</rpm>
</extensions>
</trkpt>
<trkpt lat="31.076271057" lon="34.837703705">
<ele>347.203125</ele>
<time>2013-11-19T11:08:49Z</time>
<speed>5.710000</speed>
<extensions>
<speed>5.7</speed>
<temp>0.00</temp>
<bpm>0</bpm>
<rpm>0.00</rpm>
</extensions>
</trkpt>
<trkpt lat="31.076101303" lon="34.837894440">
<ele>346.703125</ele>
<time>2013-11-19T11:08:54Z</time>
<speed>4.840000</speed>
<extensions>
<speed>4.8</speed>
<temp>0.00</temp>
<bpm>0</bpm>
<rpm>0.00</rpm>
</extensions>
</trkpt>
<trkpt lat="31.075937271" lon="34.838077545">
<ele>345.656250</ele>
<time>2013-11-19T11:08:59Z</time>
<speed>5.320000</speed>
<extensions>
<speed>5.3</speed>
<temp>0.00</temp>
<bpm>0</bpm>
<rpm>0.00</rpm>
</extensions>
</trkpt>
<trkpt lat="31.075763702" lon="34.838260651">
<ele>345.414063</ele>
<time>2013-11-19T11:09:04Z</time>
<speed>5.260000</speed>
<extensions>
<speed>5.3</speed>
<temp>0.00</temp>
<bpm>0</bpm>
<rpm>0.00</rpm>
</extensions>
</trkpt>
<trkpt lat="31.075582504" lon="34.838420868">
<ele>344.992188</ele>
<time>2013-11-19T11:09:09Z</time>
<speed>5.300000</speed>
<extensions>
<speed>5.3</speed>
<temp>0.00</temp>
<bpm>0</bpm>
<rpm>0.00</rpm>
</extensions>
</trkpt>
<trkpt lat="31.075393677" lon="34.838569641">
<ele>344.195313</ele>
<time>2013-11-19T11:09:14Z</time>
<speed>4.470000</speed>
<extensions>
<speed>4.5</speed>
<temp>0.00</temp>
<bpm>0</bpm>
<rpm>0.00</rpm>
</extensions>
</trkpt>
<trkpt lat="31.075220108" lon="34.838695526">
<ele>343.101563</ele>
<time>2013-11-19T11:09:19Z</time>
<speed>4.530000</speed>
<extensions>
<speed>4.5</speed>
<temp>0.00</temp>
<bpm>0</bpm>
<rpm>0.00</rpm>
</extensions>
</trkpt>
<trkpt lat="31.074991226" lon="34.838809967">
<ele>341.460938</ele>
<time>2013-11-19T11:09:24Z</time>
<speed>4.990000</speed>
<extensions>
<speed>5.0</speed>
<temp>0.00</temp>
<bpm>0</bpm>
<rpm>0.00</rpm>
</extensions>
</trkpt>
<trkpt lat="31.074783325" lon="34.838932037">
<ele>341.125000</ele>
<time>2013-11-19T11:09:29Z</time>
<speed>4.100000</speed>
<extensions>
<speed>4.1</speed>
<temp>0.00</temp>
<bpm>0</bpm>
<rpm>0.00</rpm>
</extensions>
</trkpt>
<trkpt lat="31.074602127" lon="34.839057922">
<ele>342.554688</ele>
<time>2013-11-19T11:09:34Z</time>
<speed>5.480000</speed>
<extensions>
<speed>5.5</speed>
<temp>0.00</temp>
<bpm>0</bpm>
<rpm>0.00</rpm>
</extensions>
</trkpt>
<trkpt lat="31.074367523" lon="34.839179993">
<ele>344.375000</ele>
<time>2013-11-19T11:09:39Z</time>
<speed>5.200000</speed>
<extensions>
<speed>5.2</speed>
<temp>0.00</temp>
<bpm>0</bpm>
<rpm>0.00</rpm>
</extensions>
</trkpt>
<trkpt lat="31.074150085" lon="34.839260101">
<ele>345.085938</ele>
<time>2013-11-19T11:09:44Z</time>
<speed>5.340000</speed>
<extensions>
<speed>5.3</speed>
<temp>0.00</temp>
<bpm>0</bpm>
<rpm>0.00</rpm>
</extensions>
</trkpt>
<trkpt lat="31.073917389" lon="34.839344025">
<ele>344.968750</ele>
<time>2013-11-19T11:09:49Z</time>
<speed>5.750000</speed>
<extensions>
<speed>5.8</speed>
<temp>0.00</temp>
<bpm>0</bpm>
<rpm>0.00</rpm>
</extensions>
</trkpt>
<trkpt lat="31.073682785" lon="34.839405060">
<ele>345.031250</ele>
<time>2013-11-19T11:09:54Z</time>
<speed>5.610000</speed>
<extensions>
<speed>5.6</speed>
<temp>0.00</temp>
<bpm>0</bpm>
<rpm>0.00</rpm>
</extensions>
</trkpt>
<trkpt lat="31.073432922" lon="34.839443207">
<ele>346.515625</ele>
<time>2013-11-19T11:09:59Z</time>
<speed>4.950000</speed>
<extensions>
<speed>4.9</speed>
<temp>0.00</temp>
<bpm>0</bpm>
<rpm>0.00</rpm>
</extensions>
</trkpt>
<trkpt lat="31.073202133" lon="34.839469910">
<ele>347.539063</ele>
<time>2013-11-19T11:10:04Z</time>
<speed>5.440000</speed>
<extensions>
<speed>5.4</speed>
<temp>0.00</temp>
<bpm>0</bpm>
<rpm>0.00</rpm>
</extensions>
</trkpt>
<trkpt lat="31.072940826" lon="34.839508057">
<ele>348.476563</ele>
<time>2013-11-19T11:10:09Z</time>
<speed>5.800000</speed>
<extensions>
<speed>5.8</speed>
<temp>0.00</temp>
<bpm>0</bpm>
<rpm>0.00</rpm>
</extensions>
</trkpt>
<trkpt lat="31.072696686" lon="34.839515686">
<ele>348.210938</ele>
<time>2013-11-19T11:10:14Z</time>
<speed>5.630000</speed>
<extensions>
<speed>5.6</speed>
<temp>0.00</temp>
<bpm>0</bpm>
<rpm>0.00</rpm>
</extensions>
</trkpt>
<trkpt lat="31.072433472" lon="34.839508057">
<ele>348.765625</ele>
<time>2013-11-19T11:10:19Z</time>
<speed>6.070000</speed>
<extensions>
<speed>6.1</speed>
<temp>0.00</temp>
<bpm>0</bpm>
<rpm>0.00</rpm>
</extensions>
</trkpt>
<trkpt lat="31.072181702" lon="34.839481354">
<ele>349.421875</ele>
<time>2013-11-19T11:10:24Z</time>
<speed>5.510000</speed>
<extensions>
<speed>5.5</speed>
<temp>0.00</temp>
<bpm>0</bpm>
<rpm>0.00</rpm>
</extensions>
</trkpt>
<trkpt lat="31.071926117" lon="34.839439392">
<ele>349.843750</ele>
<time>2013-11-19T11:10:29Z</time>
<speed>5.840000</speed>
<extensions>
<speed>5.8</speed>
<temp>0.00</temp>
<bpm>0</bpm>
<rpm>0.00</rpm>
</extensions>
</trkpt>
<trkpt lat="31.071699142" lon="34.839401245">
<ele>351.000000</ele>
<time>2013-11-19T11:10:34Z</time>
<speed>4.580000</speed>
<extensions>
<speed>4.6</speed>
<temp>0.00</temp>
<bpm>0</bpm>
<rpm>0.00</rpm>
</extensions>
</trkpt>
<trkpt lat="31.071462631" lon="34.839344025">
<ele>352.359375</ele>
<time>2013-11-19T11:10:39Z</time>
<speed>5.530000</speed>
<extensions>
<speed>5.5</speed>
<temp>0.00</temp>
<bpm>0</bpm>
<rpm>0.00</rpm>
</extensions>
</trkpt>
<trkpt lat="31.071218491" lon="34.839271545">
<ele>352.695313</ele>
<time>2013-11-19T11:10:44Z</time>
<speed>5.150000</speed>
<extensions>
<speed>5.2</speed>
<temp>0.00</temp>
<bpm>0</bpm>
<rpm>0.00</rpm>
</extensions>
</trkpt>
<trkpt lat="31.070974350" lon="34.839202881">
<ele>352.718750</ele>
<time>2013-11-19T11:10:49Z</time>
<speed>5.800000</speed>
<extensions>
<speed>5.8</speed>
<temp>0.00</temp>
<bpm>0</bpm>
<rpm>0.00</rpm>
</extensions>
</trkpt>
<trkpt lat="31.070732117" lon="34.839141846">
<ele>352.757813</ele>
<time>2013-11-19T11:10:54Z</time>
<speed>4.980000</speed>
<extensions>
<speed>5.0</speed>
<temp>0.00</temp>
<bpm>0</bpm>
<rpm>0.00</rpm>
</extensions>
</trkpt>
<trkpt lat="31.070531845" lon="34.839088440">
<ele>352.960938</ele>
<time>2013-11-19T11:10:59Z</time>
<speed>4.130000</speed>
<extensions>
<speed>4.1</speed>
<temp>0.00</temp>
<bpm>0</bpm>
<rpm>0.00</rpm>
</extensions>
</trkpt>
<trkpt lat="31.070371628" lon="34.839050293">
<ele>353.062500</ele>
<time>2013-11-19T11:11:04Z</time>
<speed>3.270000</speed>
<extensions>
<speed>3.3</speed>
<temp>0.00</temp>
<bpm>0</bpm>
<rpm>0.00</rpm>
</extensions>
</trkpt>
<trkpt lat="31.070215225" lon="34.839004517">
<ele>353.203125</ele>
<time>2013-11-19T11:11:09Z</time>
<speed>3.310000</speed>
<extensions>
<speed>3.3</speed>
<temp>0.00</temp>
<bpm>0</bpm>
<rpm>0.00</rpm>
</extensions>
</trkpt>
<trkpt lat="31.070075989" lon="34.838970184">
<ele>353.531250</ele>
<time>2013-11-19T11:11:14Z</time>
<speed>3.450000</speed>
<extensions>
<speed>3.5</speed>
<temp>0.00</temp>
<bpm>0</bpm>
<rpm>0.00</rpm>
</extensions>
</trkpt>
<trkpt lat="31.069929123" lon="34.838935852">
<ele>354.023438</ele>
<time>2013-11-19T11:11:19Z</time>
<speed>3.710000</speed>
<extensions>
<speed>3.7</speed>
<temp>0.00</temp>
<bpm>0</bpm>
<rpm>0.00</rpm>
</extensions>
</trkpt>
<trkpt lat="31.069763184" lon="34.838882446">
<ele>354.187500</ele>
<time>2013-11-19T11:11:24Z</time>
<speed>3.520000</speed>
<extensions>
<speed>3.5</speed>
<temp>0.00</temp>
<bpm>0</bpm>
<rpm>0.00</rpm>
</extensions>
</trkpt>
<trkpt lat="31.069602966" lon="34.838840485">
<ele>355.750000</ele>
<time>2013-11-19T11:11:29Z</time>
<speed>4.070000</speed>
<extensions>
<speed>4.1</speed>
<temp>0.00</temp>
<bpm>0</bpm>
<rpm>0.00</rpm>
</extensions>
</trkpt>
<trkpt lat="31.069437027" lon="34.838798523">
<ele>355.273438</ele>
<time>2013-11-19T11:11:34Z</time>
<speed>3.400000</speed>
<extensions>
<speed>3.4</speed>
<temp>0.00</temp>
<bpm>0</bpm>
<rpm>0.00</rpm>
</extensions>
</trkpt>
<trkpt lat="31.069313049" lon="34.838764191">
<ele>355.585938</ele>
<time>2013-11-19T11:11:39Z</time>
<speed>2.330000</speed>
<extensions>
<speed>2.3</speed>
<temp>0.00</temp>
<bpm>0</bpm>
<rpm>0.00</rpm>
</extensions>
</trkpt>
<trkpt lat="31.069194794" lon="34.838733673">
<ele>355.789063</ele>
<time>2013-11-19T11:11:44Z</time>
<speed>2.950000</speed>
<extensions>
<speed>2.9</speed>
<temp>0.00</temp>
<bpm>0</bpm>
<rpm>0.00</rpm>
</extensions>
</trkpt>
<trkpt lat="31.069053650" lon="34.838691711">
<ele>356.156250</ele>
<time>2013-11-19T11:11:49Z</time>
<speed>3.490000</speed>
<extensions>
<speed>3.5</speed>
<temp>0.00</temp>
<bpm>0</bpm>
<rpm>0.00</rpm>
</extensions>
</trkpt>
<trkpt lat="31.068906784" lon="34.838657379">
<ele>356.796875</ele>
<time>2013-11-19T11:11:54Z</time>
<speed>2.750000</speed>
<extensions>
<speed>2.7</speed>
<temp>0.00</temp>
<bpm>0</bpm>
<rpm>0.00</rpm>
</extensions>
</trkpt>
<trkpt lat="31.068756104" lon="34.838607788">
<ele>357.554688</ele>
<time>2013-11-19T11:11:59Z</time>
<speed>3.710000</speed>
<extensions>
<speed>3.7</speed>
<temp>0.00</temp>
<bpm>0</bpm>
<rpm>0.00</rpm>
</extensions>
</trkpt>
<trkpt lat="31.068574905" lon="34.838554382">
<ele>357.617188</ele>
<time>2013-11-19T11:12:04Z</time>
<speed>4.410000</speed>
<extensions>
<speed>4.4</speed>
<temp>0.00</temp>
<bpm>0</bpm>
<rpm>0.00</rpm>
</extensions>
</trkpt>
<trkpt lat="31.068374634" lon="34.838497162">
<ele>357.312500</ele>
<time>2013-11-19T11:12:09Z</time>
<speed>4.320000</speed>
<extensions>
<speed>4.3</speed>
<temp>0.00</temp>
<bpm>0</bpm>
<rpm>0.00</rpm>
</extensions>
</trkpt>
<trkpt lat="31.068204880" lon="34.838462830">
<ele>357.882813</ele>
<time>2013-11-19T11:12:14Z</time>
<speed>3.330000</speed>
<extensions>
<speed>3.3</speed>
<temp>0.00</temp>
<bpm>0</bpm>
<rpm>0.00</rpm>
</extensions>
</trkpt>
<trkpt lat="31.068077087" lon="34.838436127">
<ele>357.953125</ele>
<time>2013-11-19T11:12:19Z</time>
<speed>2.390000</speed>
<extensions>
<speed>2.4</speed>
<temp>0.00</temp>
<bpm>0</bpm>
<rpm>0.00</rpm>
</extensions>
</trkpt>
<trkpt lat="31.067964554" lon="34.838420868">
<ele>359.671875</ele>
<time>2013-11-19T11:12:24Z</time>
<speed>3.060000</speed>
<extensions>
<speed>3.1</speed>
<temp>0.00</temp>
<bpm>0</bpm>
<rpm>0.00</rpm>
</extensions>
</trkpt>
<trkpt lat="31.067804337" lon="34.838394165">
<ele>359.960938</ele>
<time>2013-11-19T11:12:29Z</time>
<speed>3.540000</speed>
<extensions>
<speed>3.5</speed>
<temp>0.00</temp>
<bpm>0</bpm>
<rpm>0.00</rpm>
</extensions>
</trkpt>
<trkpt lat="31.067607880" lon="34.838378906">
<ele>360.078125</ele>
<time>2013-11-19T11:12:34Z</time>
<speed>4.320000</speed>
<extensions>
<speed>4.3</speed>
<temp>0.00</temp>
<bpm>0</bpm>
<rpm>0.00</rpm>
</extensions>
</trkpt>
<trkpt lat="31.067428589" lon="34.838363647">
<ele>359.312500</ele>
<time>2013-11-19T11:12:39Z</time>
<speed>3.430000</speed>
<extensions>
<speed>3.4</speed>
<temp>0.00</temp>
<bpm>0</bpm>
<rpm>0.00</rpm>
</extensions>
</trkpt>
<trkpt lat="31.067298889" lon="34.838359833">
<ele>360.203125</ele>
<time>2013-11-19T11:12:44Z</time>
<speed>2.380000</speed>
<extensions>
<speed>2.4</speed>
<temp>0.00</temp>
<bpm>0</bpm>
<rpm>0.00</rpm>
</extensions>
</trkpt>
<trkpt lat="31.067184448" lon="34.838356018">
<ele>360.078125</ele>
<time>2013-11-19T11:12:49Z</time>
<speed>3.070000</speed>
<extensions>
<speed>3.1</speed>
<temp>0.00</temp>
<bpm>0</bpm>
<rpm>0.00</rpm>
</extensions>
</trkpt>
<trkpt lat="31.067043304" lon="34.838352203">
<ele>360.101563</ele>
<time>2013-11-19T11:12:54Z</time>
<speed>2.910000</speed>
<extensions>
<speed>2.9</speed>
<temp>0.00</temp>
<bpm>0</bpm>
<rpm>0.00</rpm>
</extensions>
</trkpt>
<trkpt lat="31.066938400" lon="34.838356018">
<ele>359.875000</ele>
<time>2013-11-19T11:12:59Z</time>
<speed>2.350000</speed>
<extensions>
<speed>2.4</speed>
<temp>0.00</temp>
<bpm>0</bpm>
<rpm>0.00</rpm>
</extensions>
</trkpt>
<trkpt lat="31.066825867" lon="34.838352203">
<ele>359.828125</ele>
<time>2013-11-19T11:13:04Z</time>
<speed>2.620000</speed>
<extensions>
<speed>2.6</speed>
<temp>0.00</temp>
<bpm>0</bpm>
<rpm>0.00</rpm>
</extensions>
</trkpt>
<trkpt lat="31.066780090" lon="34.838352203">
<ele>359.109375</ele>
<time>2013-11-19T11:13:09Z</time>
<speed>0.150000</speed>
<extensions>
<speed>0.2</speed>
<temp>0.00</temp>
<bpm>0</bpm>
<rpm>0.00</rpm>
</extensions>
</trkpt>
<trkpt lat="31.066780090" lon="34.838352203">
<ele>359.367188</ele>
<time>2013-11-19T11:13:14Z</time>
<speed>0.300000</speed>
<extensions>
<speed>0.3</speed>
<temp>0.00</temp>
<bpm>0</bpm>
<rpm>0.00</rpm>
</extensions>
</trkpt>
<trkpt lat="31.066780090" lon="34.838356018">
<ele>359.437500</ele>
<time>2013-11-19T11:13:19Z</time>
<speed>0.020000</speed>
<extensions>
<speed>0.0</speed>
<temp>0.00</temp>
<bpm>0</bpm>
<rpm>0.00</rpm>
</extensions>
</trkpt>
<trkpt lat="31.066778183" lon="34.838356018">
<ele>359.453125</ele>
<time>2013-11-19T11:13:24Z</time>
<speed>0.160000</speed>
<extensions>
<speed>0.2</speed>
<temp>0.00</temp>
<bpm>0</bpm>
<rpm>0.00</rpm>
</extensions>
</trkpt>
<trkpt lat="31.066772461" lon="34.838363647">
<ele>359.421875</ele>
<time>2013-11-19T11:13:29Z</time>
<speed>0.260000</speed>
<extensions>
<speed>0.3</speed>
<temp>0.00</temp>
<bpm>0</bpm>
<rpm>0.00</rpm>
</extensions>
</trkpt>
<trkpt lat="31.066764832" lon="34.838375092">
<ele>359.406250</ele>
<time>2013-11-19T11:13:34Z</time>
<speed>0.190000</speed>
<extensions>
<speed>0.2</speed>
<temp>0.00</temp>
<bpm>0</bpm>
<rpm>0.00</rpm>
</extensions>
</trkpt>
<trkpt lat="31.066757202" lon="34.838378906">
<ele>359.429688</ele>
<time>2013-11-19T11:13:39Z</time>
<speed>0.210000</speed>
<extensions>
<speed>0.2</speed>
<temp>0.00</temp>
<bpm>0</bpm>
<rpm>0.00</rpm>
</extensions>
</trkpt>
<trkpt lat="31.066753387" lon="34.838390350">
<ele>359.460938</ele>
<time>2013-11-19T11:13:44Z</time>
<speed>0.250000</speed>
<extensions>
<speed>0.2</speed>
<temp>0.00</temp>
<bpm>0</bpm>
<rpm>0.00</rpm>
</extensions>
</trkpt>
<trkpt lat="31.066749573" lon="34.838394165">
<ele>359.453125</ele>
<time>2013-11-19T11:13:49Z</time>
<speed>0.120000</speed>
<extensions>
<speed>0.1</speed>
<temp>0.00</temp>
<bpm>0</bpm>
<rpm>0.00</rpm>
</extensions>
</trkpt>
<trkpt lat="31.066747665" lon="34.838394165">
<ele>359.437500</ele>
<time>2013-11-19T11:13:54Z</time>
<speed>0.020000</speed>
<extensions>
<speed>0.0</speed>
<temp>0.00</temp>
<bpm>0</bpm>
<rpm>0.00</rpm>
</extensions>
</trkpt>
<trkpt lat="31.066747665" lon="34.838397980">
<ele>359.468750</ele>
<time>2013-11-19T11:13:59Z</time>
<speed>0.150000</speed>
<extensions>
<speed>0.2</speed>
<temp>0.00</temp>
<bpm>0</bpm>
<rpm>0.00</rpm>
</extensions>
</trkpt>
<trkpt lat="31.066745758" lon="34.838397980">
<ele>359.484375</ele>
<time>2013-11-19T11:14:04Z</time>
<extensions>
<speed>0.0</speed>
<temp>0.00</temp>
<bpm>0</bpm>
<rpm>0.00</rpm>
</extensions>
</trkpt>
<trkpt lat="31.066745758" lon="34.838397980">
<ele>359.476563</ele>
<time>2013-11-19T11:14:09Z</time>
<speed>0.010000</speed>
<extensions>
<speed>0.0</speed>
<temp>0.00</temp>
<bpm>0</bpm>
<rpm>0.00</rpm>
</extensions>
</trkpt>
<trkpt lat="31.066745758" lon="34.838397980">
<ele>359.484375</ele>
<time>2013-11-19T11:14:14Z</time>
<speed>0.030000</speed>
<extensions>
<speed>0.0</speed>
<temp>0.00</temp>
<bpm>0</bpm>
<rpm>0.00</rpm>
</extensions>
</trkpt>
<trkpt lat="31.066743851" lon="34.838397980">
<ele>359.484375</ele>
<time>2013-11-19T11:14:19Z</time>
<extensions>
<speed>0.0</speed>
<temp>0.00</temp>
<bpm>0</bpm>
<rpm>0.00</rpm>
</extensions>
</trkpt>
<trkpt lat="31.066743851" lon="34.838397980">
<ele>359.468750</ele>
<time>2013-11-19T11:14:24Z</time>
<speed>0.020000</speed>
<extensions>
<speed>0.0</speed>
<temp>0.00</temp>
<bpm>0</bpm>
<rpm>0.00</rpm>
</extensions>
</trkpt>
<trkpt lat="31.066743851" lon="34.838401794">
<ele>359.445313</ele>
<time>2013-11-19T11:14:29Z</time>
<speed>0.010000</speed>
<extensions>
<speed>0.0</speed>
<temp>0.00</temp>
<bpm>0</bpm>
<rpm>0.00</rpm>
</extensions>
</trkpt>
<trkpt lat="31.066743851" lon="34.838401794">
<ele>359.429688</ele>
<time>2013-11-19T11:14:34Z</time>
<speed>0.010000</speed>
<extensions>
<speed>0.0</speed>
<temp>0.00</temp>
<bpm>0</bpm>
<rpm>0.00</rpm>
</extensions>
</trkpt>
<trkpt lat="31.066743851" lon="34.838401794">
<ele>359.414063</ele>
<time>2013-11-19T11:14:39Z</time>
<speed>0.030000</speed>
<extensions>
<speed>0.0</speed>
<temp>0.00</temp>
<bpm>0</bpm>
<rpm>0.00</rpm>
</extensions>
</trkpt>
<trkpt lat="31.066741943" lon="34.838401794">
<ele>359.382813</ele>
<time>2013-11-19T11:14:44Z</time>
<speed>0.030000</speed>
<extensions>
<speed>0.0</speed>
<temp>0.00</temp>
<bpm>0</bpm>
<rpm>0.00</rpm>
</extensions>
</trkpt>
<trkpt lat="31.066741943" lon="34.838401794">
<ele>359.343750</ele>
<time>2013-11-19T11:14:49Z</time>
<speed>0.010000</speed>
<extensions>
<speed>0.0</speed>
<temp>0.00</temp>
<bpm>0</bpm>
<rpm>0.00</rpm>
</extensions>
</trkpt>
<trkpt lat="31.066741943" lon="34.838401794">
<ele>359.312500</ele>
<time>2013-11-19T11:14:54Z</time>
<speed>0.010000</speed>
<extensions>
<speed>0.0</speed>
<temp>0.00</temp>
<bpm>0</bpm>
<rpm>0.00</rpm>
</extensions>
</trkpt>
<trkpt lat="31.066741943" lon="34.838401794">
<ele>359.312500</ele>
<time>2013-11-19T11:14:59Z</time>
<speed>0.030000</speed>
<extensions>
<speed>0.0</speed>
<temp>0.00</temp>
<bpm>0</bpm>
<rpm>0.00</rpm>
</extensions>
</trkpt>
<trkpt lat="31.066741943" lon="34.838401794">
<ele>359.320313</ele>
<time>2013-11-19T11:15:04Z</time>
<extensions>
<speed>0.0</speed>
<temp>0.00</temp>
<bpm>0</bpm>
<rpm>0.00</rpm>
</extensions>
</trkpt>
<trkpt lat="31.066740036" lon="34.838401794">
<ele>359.328125</ele>
<time>2013-11-19T11:15:09Z</time>
<speed>0.010000</speed>
<extensions>
<speed>0.0</speed>
<temp>0.00</temp>
<bpm>0</bpm>
<rpm>0.00</rpm>
</extensions>
</trkpt>
<trkpt lat="31.066740036" lon="34.838401794">
<ele>359.335938</ele>
<time>2013-11-19T11:15:14Z</time>
<extensions>
<speed>0.0</speed>
<temp>0.00</temp>
<bpm>0</bpm>
<rpm>0.00</rpm>
</extensions>
</trkpt>
<trkpt lat="31.066740036" lon="34.838401794">
<ele>359.328125</ele>
<time>2013-11-19T11:15:19Z</time>
<extensions>
<speed>0.0</speed>
<temp>0.00</temp>
<bpm>0</bpm>
<rpm>0.00</rpm>
</extensions>
</trkpt>
<trkpt lat="31.066740036" lon="34.838401794">
<ele>359.320313</ele>
<time>2013-11-19T11:15:24Z</time>
<extensions>
<speed>0.0</speed>
<temp>0.00</temp>
<bpm>0</bpm>
<rpm>0.00</rpm>
</extensions>
</trkpt>
<trkpt lat="31.066740036" lon="34.838401794">
<ele>359.289063</ele>
<time>2013-11-19T11:15:29Z</time>
<extensions>
<speed>0.0</speed>
<temp>0.00</temp>
<bpm>0</bpm>
<rpm>0.00</rpm>
</extensions>
</trkpt>
<trkpt lat="31.066740036" lon="34.838401794">
<ele>359.265625</ele>
<time>2013-11-19T11:15:34Z</time>
<speed>0.010000</speed>
<extensions>
<speed>0.0</speed>
<temp>0.00</temp>
<bpm>0</bpm>
<rpm>0.00</rpm>
</extensions>
</trkpt>
<trkpt lat="31.066740036" lon="34.838401794">
<ele>359.234375</ele>
<time>2013-11-19T11:15:39Z</time>
<speed>0.020000</speed>
<extensions>
<speed>0.0</speed>
<temp>0.00</temp>
<bpm>0</bpm>
<rpm>0.00</rpm>
</extensions>
</trkpt>
<trkpt lat="31.066740036" lon="34.838401794">
<ele>359.218750</ele>
<time>2013-11-19T11:15:44Z</time>
<extensions>
<speed>0.0</speed>
<temp>0.00</temp>
<bpm>0</bpm>
<rpm>0.00</rpm>
</extensions>
</trkpt>
<trkpt lat="31.066738129" lon="34.838401794">
<ele>359.226563</ele>
<time>2013-11-19T11:15:49Z</time>
<extensions>
<speed>0.0</speed>
<temp>0.00</temp>
<bpm>0</bpm>
<rpm>0.00</rpm>
</extensions>
</trkpt>
<trkpt lat="31.066740036" lon="34.838401794">
<ele>359.265625</ele>
<time>2013-11-19T11:15:54Z</time>
<extensions>
<speed>0.0</speed>
<temp>0.00</temp>
<bpm>0</bpm>
<rpm>0.00</rpm>
</extensions>
</trkpt>
<trkpt lat="31.066738129" lon="34.838405609">
<ele>359.265625</ele>
<time>2013-11-19T11:15:59Z</time>
<speed>0.010000</speed>
<extensions>
<speed>0.0</speed>
<temp>0.00</temp>
<bpm>0</bpm>
<rpm>0.00</rpm>
</extensions>
</trkpt>
<trkpt lat="31.066738129" lon="34.838405609">
<ele>359.273438</ele>
<time>2013-11-19T11:16:04Z</time>
<speed>0.020000</speed>
<extensions>
<speed>0.0</speed>
<temp>0.00</temp>
<bpm>0</bpm>
<rpm>0.00</rpm>
</extensions>
</trkpt>
<trkpt lat="31.066734314" lon="34.838401794">
<ele>359.218750</ele>
<time>2013-11-19T11:16:09Z</time>
<speed>1.080000</speed>
<extensions>
<speed>1.1</speed>
<temp>0.00</temp>
<bpm>0</bpm>
<rpm>0.00</rpm>
</extensions>
</trkpt>
<trkpt lat="31.066671371" lon="34.838409424">
<ele>361.093750</ele>
<time>2013-11-19T11:16:14Z</time>
<speed>2.820000</speed>
<extensions>
<speed>2.8</speed>
<temp>0.00</temp>
<bpm>0</bpm>
<rpm>0.00</rpm>
</extensions>
</trkpt>
<trkpt lat="31.066537857" lon="34.838394165">
<ele>361.117188</ele>
<time>2013-11-19T11:16:19Z</time>
<speed>3.780000</speed>
<extensions>
<speed>3.8</speed>
<temp>0.00</temp>
<bpm>0</bpm>
<rpm>0.00</rpm>
</extensions>
</trkpt>
<trkpt lat="31.066349030" lon="34.838409424">
<ele>360.671875</ele>
<time>2013-11-19T11:16:24Z</time>
<speed>4.620000</speed>
<extensions>
<speed>4.6</speed>
<temp>0.00</temp>
<bpm>0</bpm>
<rpm>0.00</rpm>
</extensions>
</trkpt>
<trkpt lat="31.066144943" lon="34.838424683">
<ele>360.812500</ele>
<time>2013-11-19T11:16:29Z</time>
<speed>4.500000</speed>
<extensions>
<speed>4.5</speed>
<temp>0.00</temp>
<bpm>0</bpm>
<rpm>0.00</rpm>
</extensions>
</trkpt>
<trkpt lat="31.065954208" lon="34.838417053">
<ele>360.562500</ele>
<time>2013-11-19T11:16:34Z</time>
<speed>4.330000</speed>
<extensions>
<speed>4.3</speed>
<temp>0.00</temp>
<bpm>0</bpm>
<rpm>0.00</rpm>
</extensions>
</trkpt>
<trkpt lat="31.065761566" lon="34.838443756">
<ele>360.054688</ele>
<time>2013-11-19T11:16:39Z</time>
<speed>4.420000</speed>
<extensions>
<speed>4.4</speed>
<temp>0.00</temp>
<bpm>0</bpm>
<rpm>0.00</rpm>
</extensions>
</trkpt>
<trkpt lat="31.065553665" lon="34.838470459">
<ele>359.937500</ele>
<time>2013-11-19T11:16:44Z</time>
<speed>4.920000</speed>
<extensions>
<speed>4.9</speed>
<temp>0.00</temp>
<bpm>0</bpm>
<rpm>0.00</rpm>
</extensions>
</trkpt>
<trkpt lat="31.065332413" lon="34.838489532">
<ele>360.171875</ele>
<time>2013-11-19T11:16:49Z</time>
<speed>5.010000</speed>
<extensions>
<speed>5.0</speed>
<temp>0.00</temp>
<bpm>0</bpm>
<rpm>0.00</rpm>
</extensions>
</trkpt>
<trkpt lat="31.065132141" lon="34.838504791">
<ele>360.554688</ele>
<time>2013-11-19T11:16:54Z</time>
<speed>4.410000</speed>
<extensions>
<speed>4.4</speed>
<temp>0.00</temp>
<bpm>0</bpm>
<rpm>0.00</rpm>
</extensions>
</trkpt>
<trkpt lat="31.064918518" lon="34.838523865">
<ele>360.570313</ele>
<time>2013-11-19T11:16:59Z</time>
<speed>5.080000</speed>
<extensions>
<speed>5.1</speed>
<temp>0.00</temp>
<bpm>0</bpm>
<rpm>0.00</rpm>
</extensions>
</trkpt>
<trkpt lat="31.064687729" lon="34.838527679">
<ele>361.265625</ele>
<time>2013-11-19T11:17:04Z</time>
<speed>4.800000</speed>
<extensions>
<speed>4.8</speed>
<temp>0.00</temp>
<bpm>0</bpm>
<rpm>0.00</rpm>
</extensions>
</trkpt>
<trkpt lat="31.064462662" lon="34.838508606">
<ele>361.820313</ele>
<time>2013-11-19T11:17:09Z</time>
<speed>5.500000</speed>
<extensions>
<speed>5.5</speed>
<temp>0.00</temp>
<bpm>0</bpm>
<rpm>0.00</rpm>
</extensions>
</trkpt>
<trkpt lat="31.064222336" lon="34.838455200">
<ele>362.234375</ele>
<time>2013-11-19T11:17:14Z</time>
<speed>4.870000</speed>
<extensions>
<speed>4.9</speed>
<temp>0.00</temp>
<bpm>0</bpm>
<rpm>0.00</rpm>
</extensions>
</trkpt>
<trkpt lat="31.064008713" lon="34.838409424">
<ele>363.125000</ele>
<time>2013-11-19T11:17:19Z</time>
<speed>5.140000</speed>
<extensions>
<speed>5.1</speed>
<temp>0.00</temp>
<bpm>0</bpm>
<rpm>0.00</rpm>
</extensions>
</trkpt>
<trkpt lat="31.063764572" lon="34.838344574">
<ele>363.328125</ele>
<time>2013-11-19T11:17:24Z</time>
<speed>5.530000</speed>
<extensions>
<speed>5.5</speed>
<temp>0.00</temp>
<bpm>0</bpm>
<rpm>0.00</rpm>
</extensions>
</trkpt>
<trkpt lat="31.063531876" lon="34.838260651">
<ele>364.265625</ele>
<time>2013-11-19T11:17:29Z</time>
<speed>5.290000</speed>
<extensions>
<speed>5.3</speed>
<temp>0.00</temp>
<bpm>0</bpm>
<rpm>0.00</rpm>
</extensions>
</trkpt>
<trkpt lat="31.063304901" lon="34.838165283">
<ele>364.703125</ele>
<time>2013-11-19T11:17:34Z</time>
<speed>4.520000</speed>
<extensions>
<speed>4.5</speed>
<temp>0.00</temp>
<bpm>0</bpm>
<rpm>0.00</rpm>
</extensions>
</trkpt>
<trkpt lat="31.063163757" lon="34.838088989">
<ele>366.195313</ele>
<time>2013-11-19T11:17:39Z</time>
<speed>3.330000</speed>
<extensions>
<speed>3.3</speed>
<temp>0.00</temp>
<bpm>0</bpm>
<rpm>0.00</rpm>
</extensions>
</trkpt>
<trkpt lat="31.063026428" lon="34.838008881">
<ele>367.101563</ele>
<time>2013-11-19T11:17:44Z</time>
<speed>2.620000</speed>
<extensions>
<speed>2.6</speed>
<temp>0.00</temp>
<bpm>0</bpm>
<rpm>0.00</rpm>
</extensions>
</trkpt>
<trkpt lat="31.062971115" lon="34.837871552">
<ele>365.671875</ele>
<time>2013-11-19T11:17:49Z</time>
<speed>2.570000</speed>
<extensions>
<speed>2.6</speed>
<temp>0.00</temp>
<bpm>0</bpm>
<rpm>0.00</rpm>
</extensions>
</trkpt>
<trkpt lat="31.062934875" lon="34.837818146">
<ele>365.585938</ele>
<time>2013-11-19T11:17:54Z</time>
<speed>0.900000</speed>
<extensions>
<speed>0.9</speed>
<temp>0.00</temp>
<bpm>0</bpm>
<rpm>0.00</rpm>
</extensions>
</trkpt>
<trkpt lat="31.062925339" lon="34.837783813">
<ele>366.109375</ele>
<time>2013-11-19T11:17:59Z</time>
<speed>0.530000</speed>
<extensions>
<speed>0.5</speed>
<temp>0.00</temp>
<bpm>0</bpm>
<rpm>0.00</rpm>
</extensions>
</trkpt>
<trkpt lat="31.062917709" lon="34.837730408">
<ele>366.054688</ele>
<time>2013-11-19T11:18:04Z</time>
<speed>1.340000</speed>
<extensions>
<speed>1.3</speed>
<temp>0.00</temp>
<bpm>0</bpm>
<rpm>0.00</rpm>
</extensions>
</trkpt>
<trkpt lat="31.062923431" lon="34.837703705">
<ele>365.359375</ele>
<time>2013-11-19T11:18:09Z</time>
<speed>0.130000</speed>
<extensions>
<speed>0.1</speed>
<temp>0.00</temp>
<bpm>0</bpm>
<rpm>0.00</rpm>
</extensions>
</trkpt>
<trkpt lat="31.062927246" lon="34.837669373">
<ele>366.117188</ele>
<time>2013-11-19T11:18:14Z</time>
<speed>1.230000</speed>
<extensions>
<speed>1.2</speed>
<temp>0.00</temp>
<bpm>0</bpm>
<rpm>0.00</rpm>
</extensions>
</trkpt>
<trkpt lat="31.062866211" lon="34.837581635">
<ele>366.015625</ele>
<time>2013-11-19T11:18:19Z</time>
<speed>2.890000</speed>
<extensions>
<speed>2.9</speed>
<temp>0.00</temp>
<bpm>0</bpm>
<rpm>0.00</rpm>
</extensions>
</trkpt>
<trkpt lat="31.062725067" lon="34.837497711">
<ele>366.132813</ele>
<time>2013-11-19T11:18:24Z</time>
<speed>3.740000</speed>
<extensions>
<speed>3.7</speed>
<temp>0.00</temp>
<bpm>0</bpm>
<rpm>0.00</rpm>
</extensions>
</trkpt>
<trkpt lat="31.062568665" lon="34.837402344">
<ele>366.617188</ele>
<time>2013-11-19T11:18:29Z</time>
<speed>3.810000</speed>
<extensions>
<speed>3.8</speed>
<temp>0.00</temp>
<bpm>0</bpm>
<rpm>0.00</rpm>
</extensions>
</trkpt>
<trkpt lat="31.062389374" lon="34.837364197">
<ele>366.570313</ele>
<time>2013-11-19T11:18:34Z</time>
<speed>4.200000</speed>
<extensions>
<speed>4.2</speed>
<temp>0.00</temp>
<bpm>0</bpm>
<rpm>0.00</rpm>
</extensions>
</trkpt>
<trkpt lat="31.062229156" lon="34.837310791">
<ele>366.539063</ele>
<time>2013-11-19T11:18:39Z</time>
<speed>3.590000</speed>
<extensions>
<speed>3.6</speed>
<temp>0.00</temp>
<bpm>0</bpm>
<rpm>0.00</rpm>
</extensions>
</trkpt>
<trkpt lat="31.062103271" lon="34.837184906">
<ele>366.757813</ele>
<time>2013-11-19T11:18:44Z</time>
<speed>3.610000</speed>
<extensions>
<speed>3.6</speed>
<temp>0.00</temp>
<bpm>0</bpm>
<rpm>0.00</rpm>
</extensions>
</trkpt>
<trkpt lat="31.061964035" lon="34.837062836">
<ele>367.851563</ele>
<time>2013-11-19T11:18:49Z</time>
<speed>3.870000</speed>
<extensions>
<speed>3.9</speed>
<temp>0.00</temp>
<bpm>0</bpm>
<rpm>0.00</rpm>
</extensions>
</trkpt>
<trkpt lat="31.061824799" lon="34.836933136">
<ele>369.093750</ele>
<time>2013-11-19T11:18:54Z</time>
<speed>3.880000</speed>
<extensions>
<speed>3.9</speed>
<temp>0.00</temp>
<bpm>0</bpm>
<rpm>0.00</rpm>
</extensions>
</trkpt>
<trkpt lat="31.061677933" lon="34.836795807">
<ele>369.718750</ele>
<time>2013-11-19T11:18:59Z</time>
<speed>3.840000</speed>
<extensions>
<speed>3.8</speed>
<temp>0.00</temp>
<bpm>0</bpm>
<rpm>0.00</rpm>
</extensions>
</trkpt>
<trkpt lat="31.061578751" lon="34.836700439">
<ele>369.687500</ele>
<time>2013-11-19T11:19:04Z</time>
<speed>1.910000</speed>
<extensions>
<speed>1.9</speed>
<temp>0.00</temp>
<bpm>0</bpm>
<rpm>0.00</rpm>
</extensions>
</trkpt>
<trkpt lat="31.061519623" lon="34.836647034">
<ele>369.992188</ele>
<time>2013-11-19T11:19:09Z</time>
<speed>1.620000</speed>
<extensions>
<speed>1.6</speed>
<temp>0.00</temp>
<bpm>0</bpm>
<rpm>0.00</rpm>
</extensions>
</trkpt>
<trkpt lat="31.061454773" lon="34.836585999">
<ele>371.304688</ele>
<time>2013-11-19T11:19:14Z</time>
<speed>2.370000</speed>
<extensions>
<speed>2.4</speed>
<temp>0.00</temp>
<bpm>0</bpm>
<rpm>0.00</rpm>
</extensions>
</trkpt>
<trkpt lat="31.061353683" lon="34.836509705">
<ele>372.007813</ele>
<time>2013-11-19T11:19:19Z</time>
<speed>2.770000</speed>
<extensions>
<speed>2.8</speed>
<temp>0.00</temp>
<bpm>0</bpm>
<rpm>0.00</rpm>
</extensions>
</trkpt>
<trkpt lat="31.061256409" lon="34.836414337">
<ele>372.984375</ele>
<time>2013-11-19T11:19:24Z</time>
<speed>2.380000</speed>
<extensions>
<speed>2.4</speed>
<temp>0.00</temp>
<bpm>0</bpm>
<rpm>0.00</rpm>
</extensions>
</trkpt>
<trkpt lat="31.061155319" lon="34.836334229">
<ele>373.929688</ele>
<time>2013-11-19T11:19:29Z</time>
<speed>3.040000</speed>
<extensions>
<speed>3.0</speed>
<temp>0.00</temp>
<bpm>0</bpm>
<rpm>0.00</rpm>
</extensions>
</trkpt>
<trkpt lat="31.061054230" lon="34.836231232">
<ele>375.046875</ele>
<time>2013-11-19T11:19:34Z</time>
<speed>2.890000</speed>
<extensions>
<speed>2.9</speed>
<temp>0.00</temp>
<bpm>0</bpm>
<rpm>0.00</rpm>
</extensions>
</trkpt>
<trkpt lat="31.060955048" lon="34.836143494">
<ele>376.226563</ele>
<time>2013-11-19T11:19:39Z</time>
<speed>2.360000</speed>
<extensions>
<speed>2.4</speed>
<temp>0.00</temp>
<bpm>0</bpm>
<rpm>0.00</rpm>
</extensions>
</trkpt>
<trkpt lat="31.060880661" lon="34.836067200">
<ele>377.140625</ele>
<time>2013-11-19T11:19:44Z</time>
<speed>2.390000</speed>
<extensions>
<speed>2.4</speed>
<temp>0.00</temp>
<bpm>0</bpm>
<rpm>0.00</rpm>
</extensions>
</trkpt>
<trkpt lat="31.060792923" lon="34.835975647">
<ele>377.367188</ele>
<time>2013-11-19T11:19:49Z</time>
<speed>2.390000</speed>
<extensions>
<speed>2.4</speed>
<temp>0.00</temp>
<bpm>0</bpm>
<rpm>0.00</rpm>
</extensions>
</trkpt>
<trkpt lat="31.060724258" lon="34.835895538">
<ele>377.968750</ele>
<time>2013-11-19T11:19:54Z</time>
<speed>1.960000</speed>
<extensions>
<speed>2.0</speed>
<temp>0.00</temp>
<bpm>0</bpm>
<rpm>0.00</rpm>
</extensions>
</trkpt>
<trkpt lat="31.060676575" lon="34.835826874">
<ele>378.585938</ele>
<time>2013-11-19T11:19:59Z</time>
<speed>1.710000</speed>
<extensions>
<speed>1.7</speed>
<temp>0.00</temp>
<bpm>0</bpm>
<rpm>0.00</rpm>
</extensions>
</trkpt>
<trkpt lat="31.060617447" lon="34.835762024">
<ele>379.546875</ele>
<time>2013-11-19T11:20:04Z</time>
<speed>1.840000</speed>
<extensions>
<speed>1.8</speed>
<temp>0.00</temp>
<bpm>0</bpm>
<rpm>0.00</rpm>
</extensions>
</trkpt>
<trkpt lat="31.060550690" lon="34.835685730">
<ele>380.359375</ele>
<time>2013-11-19T11:20:09Z</time>
<speed>1.810000</speed>
<extensions>
<speed>1.8</speed>
<temp>0.00</temp>
<bpm>0</bpm>
<rpm>0.00</rpm>
</extensions>
</trkpt>
<trkpt lat="31.060491562" lon="34.835620880">
<ele>381.812500</ele>
<time>2013-11-19T11:20:14Z</time>
<speed>1.820000</speed>
<extensions>
<speed>1.8</speed>
<temp>0.00</temp>
<bpm>0</bpm>
<rpm>0.00</rpm>
</extensions>
</trkpt>
<trkpt lat="31.060430527" lon="34.835563660">
<ele>382.750000</ele>
<time>2013-11-19T11:20:19Z</time>
<speed>1.630000</speed>
<extensions>
<speed>1.6</speed>
<temp>0.00</temp>
<bpm>0</bpm>
<rpm>0.00</rpm>
</extensions>
</trkpt>
<trkpt lat="31.060415268" lon="34.835540771">
<ele>383.390625</ele>
<time>2013-11-19T11:20:24Z</time>
<speed>0.730000</speed>
<extensions>
<speed>0.7</speed>
<temp>0.00</temp>
<bpm>0</bpm>
<rpm>0.00</rpm>
</extensions>
</trkpt>
<trkpt lat="31.060382843" lon="34.835510254">
<ele>384.640625</ele>
<time>2013-11-19T11:20:29Z</time>
<speed>0.890000</speed>
<extensions>
<speed>0.9</speed>
<temp>0.00</temp>
<bpm>0</bpm>
<rpm>0.00</rpm>
</extensions>
</trkpt>
<trkpt lat="31.060354233" lon="34.835475922">
<ele>385.234375</ele>
<time>2013-11-19T11:20:34Z</time>
<speed>0.790000</speed>
<extensions>
<speed>0.8</speed>
<temp>0.00</temp>
<bpm>0</bpm>
<rpm>0.00</rpm>
</extensions>
</trkpt>
<trkpt lat="31.060316086" lon="34.835441589">
<ele>386.015625</ele>
<time>2013-11-19T11:20:39Z</time>
<speed>0.930000</speed>
<extensions>
<speed>0.9</speed>
<temp>0.00</temp>
<bpm>0</bpm>
<rpm>0.00</rpm>
</extensions>
</trkpt>
<trkpt lat="31.060289383" lon="34.835411072">
<ele>386.875000</ele>
<time>2013-11-19T11:20:44Z</time>
<speed>1.060000</speed>
<extensions>
<speed>1.1</speed>
<temp>0.00</temp>
<bpm>0</bpm>
<rpm>0.00</rpm>
</extensions>
</trkpt>
<trkpt lat="31.060255051" lon="34.835376740">
<ele>387.906250</ele>
<time>2013-11-19T11:20:49Z</time>
<speed>1.130000</speed>
<extensions>
<speed>1.1</speed>
<temp>0.00</temp>
<bpm>0</bpm>
<rpm>0.00</rpm>
</extensions>
</trkpt>
<trkpt lat="31.060230255" lon="34.835334778">
<ele>388.265625</ele>
<time>2013-11-19T11:20:54Z</time>
<speed>1.110000</speed>
<extensions>
<speed>1.1</speed>
<temp>0.00</temp>
<bpm>0</bpm>
<rpm>0.00</rpm>
</extensions>
</trkpt>
<trkpt lat="31.060213089" lon="34.835289001">
<ele>388.890625</ele>
<time>2013-11-19T11:20:59Z</time>
<speed>1.000000</speed>
<extensions>
<speed>1.0</speed>
<temp>0.00</temp>
<bpm>0</bpm>
<rpm>0.00</rpm>
</extensions>
</trkpt>
<trkpt lat="31.060195923" lon="34.835227966">
<ele>389.195313</ele>
<time>2013-11-19T11:21:04Z</time>
<speed>1.280000</speed>
<extensions>
<speed>1.3</speed>
<temp>0.00</temp>
<bpm>0</bpm>
<rpm>0.00</rpm>
</extensions>
</trkpt>
<trkpt lat="31.060186386" lon="34.835159302">
<ele>389.625000</ele>
<time>2013-11-19T11:21:09Z</time>
<speed>1.150000</speed>
<extensions>
<speed>1.1</speed>
<temp>0.00</temp>
<bpm>0</bpm>
<rpm>0.00</rpm>
</extensions>
</trkpt>
<trkpt lat="31.060176849" lon="34.835098267">
<ele>390.117188</ele>
<time>2013-11-19T11:21:14Z</time>
<speed>1.070000</speed>
<extensions>
<speed>1.1</speed>
<temp>0.00</temp>
<bpm>0</bpm>
<rpm>0.00</rpm>
</extensions>
</trkpt>
<trkpt lat="31.060165405" lon="34.835044861">
<ele>390.195313</ele>
<time>2013-11-19T11:21:19Z</time>
<speed>1.130000</speed>
<extensions>
<speed>1.1</speed>
<temp>0.00</temp>
<bpm>0</bpm>
<rpm>0.00</rpm>
</extensions>
</trkpt>
<trkpt lat="31.060153961" lon="34.834983826">
<ele>390.406250</ele>
<time>2013-11-19T11:21:24Z</time>
<speed>1.240000</speed>
<extensions>
<speed>1.2</speed>
<temp>0.00</temp>
<bpm>0</bpm>
<rpm>0.00</rpm>
</extensions>
</trkpt>
<trkpt lat="31.060150146" lon="34.834922791">
<ele>390.437500</ele>
<time>2013-11-19T11:21:29Z</time>
<speed>1.240000</speed>
<extensions>
<speed>1.2</speed>
<temp>0.00</temp>
<bpm>0</bpm>
<rpm>0.00</rpm>
</extensions>
</trkpt>
<trkpt lat="31.060138702" lon="34.834854126">
<ele>390.406250</ele>
<time>2013-11-19T11:21:34Z</time>
<speed>1.410000</speed>
<extensions>
<speed>1.4</speed>
<temp>0.00</temp>
<bpm>0</bpm>
<rpm>0.00</rpm>
</extensions>
</trkpt>
<trkpt lat="31.060119629" lon="34.834785461">
<ele>390.695313</ele>
<time>2013-11-19T11:21:39Z</time>
<speed>1.340000</speed>
<extensions>
<speed>1.3</speed>
<temp>0.00</temp>
<bpm>0</bpm>
<rpm>0.00</rpm>
</extensions>
</trkpt>
<trkpt lat="31.060106277" lon="34.834728241">
<ele>391.054688</ele>
<time>2013-11-19T11:21:44Z</time>
<speed>1.000000</speed>
<extensions>
<speed>1.0</speed>
<temp>0.00</temp>
<bpm>0</bpm>
<rpm>0.00</rpm>
</extensions>
</trkpt>
<trkpt lat="31.060117722" lon="34.834674835">
<ele>391.609375</ele>
<time>2013-11-19T11:21:49Z</time>
<speed>0.990000</speed>
<extensions>
<speed>1.0</speed>
<temp>0.00</temp>
<bpm>0</bpm>
<rpm>0.00</rpm>
</extensions>
</trkpt>
<trkpt lat="31.060129166" lon="34.834629059">
<ele>392.289063</ele>
<time>2013-11-19T11:21:54Z</time>
<speed>0.850000</speed>
<extensions>
<speed>0.8</speed>
<temp>0.00</temp>
<bpm>0</bpm>
<rpm>0.00</rpm>
</extensions>
</trkpt>
<trkpt lat="31.060157776" lon="34.834583282">
<ele>393.328125</ele>
<time>2013-11-19T11:21:59Z</time>
<speed>1.070000</speed>
<extensions>
<speed>1.1</speed>
<temp>0.00</temp>
<bpm>0</bpm>
<rpm>0.00</rpm>
</extensions>
</trkpt>
<trkpt lat="31.060173035" lon="34.834529877">
<ele>394.125000</ele>
<time>2013-11-19T11:22:04Z</time>
<speed>0.790000</speed>
<extensions>
<speed>0.8</speed>
<temp>0.00</temp>
<bpm>0</bpm>
<rpm>0.00</rpm>
</extensions>
</trkpt>
<trkpt lat="31.060197830" lon="34.834495544">
<ele>394.554688</ele>
<time>2013-11-19T11:22:09Z</time>
<speed>0.850000</speed>
<extensions>
<speed>0.8</speed>
<temp>0.00</temp>
<bpm>0</bpm>
<rpm>0.00</rpm>
</extensions>
</trkpt>
<trkpt lat="31.060205460" lon="34.834438324">
<ele>394.765625</ele>
<time>2013-11-19T11:22:14Z</time>
<speed>1.010000</speed>
<extensions>
<speed>1.0</speed>
<temp>0.00</temp>
<bpm>0</bpm>
<rpm>0.00</rpm>
</extensions>
</trkpt>
<trkpt lat="31.060211182" lon="34.834426880">
<ele>394.804688</ele>
<time>2013-11-19T11:22:19Z</time>
<speed>0.080000</speed>
<extensions>
<speed>0.1</speed>
<temp>0.00</temp>
<bpm>0</bpm>
<rpm>0.00</rpm>
</extensions>
</trkpt>
<trkpt lat="31.060214996" lon="34.834426880">
<ele>394.914063</ele>
<time>2013-11-19T11:22:24Z</time>
<speed>0.020000</speed>
<extensions>
<speed>0.0</speed>
<temp>0.00</temp>
<bpm>0</bpm>
<rpm>0.00</rpm>
</extensions>
</trkpt>
<trkpt lat="31.060216904" lon="34.834426880">
<ele>394.953125</ele>
<time>2013-11-19T11:22:29Z</time>
<speed>0.030000</speed>
<extensions>
<speed>0.0</speed>
<temp>0.00</temp>
<bpm>0</bpm>
<rpm>0.00</rpm>
</extensions>
</trkpt>
<trkpt lat="31.060213089" lon="34.834423065">
<ele>395.054688</ele>
<time>2013-11-19T11:22:34Z</time>
<speed>0.470000</speed>
<extensions>
<speed>0.5</speed>
<temp>0.00</temp>
<bpm>0</bpm>
<rpm>0.00</rpm>
</extensions>
</trkpt>
<trkpt lat="31.060230255" lon="34.834388733">
<ele>394.812500</ele>
<time>2013-11-19T11:22:39Z</time>
<speed>1.470000</speed>
<extensions>
<speed>1.5</speed>
<temp>0.00</temp>
<bpm>0</bpm>
<rpm>0.00</rpm>
</extensions>
</trkpt>
<trkpt lat="31.060258865" lon="34.834285736">
<ele>393.179688</ele>
<time>2013-11-19T11:22:44Z</time>
<speed>2.510000</speed>
<extensions>
<speed>2.5</speed>
<temp>0.00</temp>
<bpm>0</bpm>
<rpm>0.00</rpm>
</extensions>
</trkpt>
<trkpt lat="31.060277939" lon="34.834236145">
<ele>393.000000</ele>
<time>2013-11-19T11:22:49Z</time>
<speed>0.180000</speed>
<extensions>
<speed>0.2</speed>
<temp>0.00</temp>
<bpm>0</bpm>
<rpm>0.00</rpm>
</extensions>
</trkpt>
<trkpt lat="31.060335159" lon="34.834045410">
<ele>385.117188</ele>
<time>2013-11-19T11:22:54Z</time>
<speed>7.510000</speed>
<extensions>
<speed>7.5</speed>
<temp>0.00</temp>
<bpm>0</bpm>
<rpm>0.00</rpm>
</extensions>
</trkpt>
<trkpt lat="31.060438156" lon="34.833595276">
<ele>377.210938</ele>
<time>2013-11-19T11:22:59Z</time>
<speed>9.180000</speed>
<extensions>
<speed>9.2</speed>
<temp>0.00</temp>
<bpm>0</bpm>
<rpm>0.00</rpm>
</extensions>
</trkpt>
<trkpt lat="31.060478210" lon="34.833156586">
<ele>374.328125</ele>
<time>2013-11-19T11:23:04Z</time>
<speed>7.030000</speed>
<extensions>
<speed>7.0</speed>
<temp>0.00</temp>
<bpm>0</bpm>
<rpm>0.00</rpm>
</extensions>
</trkpt>
<trkpt lat="31.060447693" lon="34.832832336">
<ele>372.429688</ele>
<time>2013-11-19T11:23:09Z</time>
<speed>4.800000</speed>
<extensions>
<speed>4.8</speed>
<temp>0.00</temp>
<bpm>0</bpm>
<rpm>0.00</rpm>
</extensions>
</trkpt>
<trkpt lat="31.060302734" lon="34.832706451">
<ele>374.000000</ele>
<time>2013-11-19T11:23:14Z</time>
<speed>3.050000</speed>
<extensions>
<speed>3.0</speed>
<temp>0.00</temp>
<bpm>0</bpm>
<rpm>0.00</rpm>
</extensions>
</trkpt>
<trkpt lat="31.060216904" lon="34.832649231">
<ele>375.453125</ele>
<time>2013-11-19T11:23:19Z</time>
<speed>2.350000</speed>
<extensions>
<speed>2.4</speed>
<temp>0.00</temp>
<bpm>0</bpm>
<rpm>0.00</rpm>
</extensions>
</trkpt>
<trkpt lat="31.060125351" lon="34.832588196">
<ele>376.585938</ele>
<time>2013-11-19T11:23:24Z</time>
<speed>2.360000</speed>
<extensions>
<speed>2.4</speed>
<temp>0.00</temp>
<bpm>0</bpm>
<rpm>0.00</rpm>
</extensions>
</trkpt>
<trkpt lat="31.060052872" lon="34.832538605">
<ele>377.132813</ele>
<time>2013-11-19T11:23:29Z</time>
<speed>1.090000</speed>
<extensions>
<speed>1.1</speed>
<temp>0.00</temp>
<bpm>0</bpm>
<rpm>0.00</rpm>
</extensions>
</trkpt>
<trkpt lat="31.060045242" lon="34.832542419">
<ele>377.757813</ele>
<time>2013-11-19T11:23:34Z</time>
<speed>0.010000</speed>
<extensions>
<speed>0.0</speed>
<temp>0.00</temp>
<bpm>0</bpm>
<rpm>0.00</rpm>
</extensions>
</trkpt>
<trkpt lat="31.060045242" lon="34.832542419">
<ele>377.750000</ele>
<time>2013-11-19T11:23:39Z</time>
<extensions>
<speed>0.0</speed>
<temp>0.00</temp>
<bpm>0</bpm>
<rpm>0.00</rpm>
</extensions>
</trkpt>
<trkpt lat="31.060045242" lon="34.832542419">
<ele>377.742188</ele>
<time>2013-11-19T11:23:44Z</time>
<extensions>
<speed>0.0</speed>
<temp>0.00</temp>
<bpm>0</bpm>
<rpm>0.00</rpm>
</extensions>
</trkpt>
<trkpt lat="31.060045242" lon="34.832542419">
<ele>377.679688</ele>
<time>2013-11-19T11:23:49Z</time>
<speed>0.010000</speed>
<extensions>
<speed>0.0</speed>
<temp>0.00</temp>
<bpm>0</bpm>
<rpm>0.00</rpm>
</extensions>
</trkpt>
<trkpt lat="31.060045242" lon="34.832542419">
<ele>377.671875</ele>
<time>2013-11-19T11:23:54Z</time>
<extensions>
<speed>0.0</speed>
<temp>0.00</temp>
<bpm>0</bpm>
<rpm>0.00</rpm>
</extensions>
</trkpt>
<trkpt lat="31.060045242" lon="34.832542419">
<ele>377.695313</ele>
<time>2013-11-19T11:23:59Z</time>
<extensions>
<speed>0.0</speed>
<temp>0.00</temp>
<bpm>0</bpm>
<rpm>0.00</rpm>
</extensions>
</trkpt>
<trkpt lat="31.060045242" lon="34.832542419">
<ele>377.703125</ele>
<time>2013-11-19T11:24:04Z</time>
<extensions>
<speed>0.0</speed>
<temp>0.00</temp>
<bpm>0</bpm>
<rpm>0.00</rpm>
</extensions>
</trkpt>
<trkpt lat="31.060045242" lon="34.832546234">
<ele>377.710938</ele>
<time>2013-11-19T11:24:09Z</time>
<speed>0.020000</speed>
<extensions>
<speed>0.0</speed>
<temp>0.00</temp>
<bpm>0</bpm>
<rpm>0.00</rpm>
</extensions>
</trkpt>
<trkpt lat="31.060045242" lon="34.832546234">
<ele>377.710938</ele>
<time>2013-11-19T11:24:14Z</time>
<speed>0.010000</speed>
<extensions>
<speed>0.0</speed>
<temp>0.00</temp>
<bpm>0</bpm>
<rpm>0.00</rpm>
</extensions>
</trkpt>
<trkpt lat="31.060045242" lon="34.832546234">
<ele>377.718750</ele>
<time>2013-11-19T11:24:19Z</time>
<speed>0.010000</speed>
<extensions>
<speed>0.0</speed>
<temp>0.00</temp>
<bpm>0</bpm>
<rpm>0.00</rpm>
</extensions>
</trkpt>
<trkpt lat="31.060045242" lon="34.832546234">
<ele>377.726563</ele>
<time>2013-11-19T11:24:24Z</time>
<extensions>
<speed>0.0</speed>
<temp>0.00</temp>
<bpm>0</bpm>
<rpm>0.00</rpm>
</extensions>
</trkpt>
<trkpt lat="31.060045242" lon="34.832546234">
<ele>377.726563</ele>
<time>2013-11-19T11:24:29Z</time>
<extensions>
<speed>0.0</speed>
<temp>0.00</temp>
<bpm>0</bpm>
<rpm>0.00</rpm>
</extensions>
</trkpt>
<trkpt lat="31.060045242" lon="34.832546234">
<ele>377.734375</ele>
<time>2013-11-19T11:24:34Z</time>
<extensions>
<speed>0.0</speed>
<temp>0.00</temp>
<bpm>0</bpm>
<rpm>0.00</rpm>
</extensions>
</trkpt>
<trkpt lat="31.060045242" lon="34.832546234">
<ele>377.734375</ele>
<time>2013-11-19T11:24:39Z</time>
<extensions>
<speed>0.0</speed>
<temp>0.00</temp>
<bpm>0</bpm>
<rpm>0.00</rpm>
</extensions>
</trkpt>
<trkpt lat="31.060045242" lon="34.832546234">
<ele>377.742188</ele>
<time>2013-11-19T11:24:44Z</time>
<extensions>
<speed>0.0</speed>
<temp>0.00</temp>
<bpm>0</bpm>
<rpm>0.00</rpm>
</extensions>
</trkpt>
<trkpt lat="31.060045242" lon="34.832546234">
<ele>377.750000</ele>
<time>2013-11-19T11:24:49Z</time>
<speed>0.020000</speed>
<extensions>
<speed>0.0</speed>
<temp>0.00</temp>
<bpm>0</bpm>
<rpm>0.00</rpm>
</extensions>
</trkpt>
<trkpt lat="31.060045242" lon="34.832546234">
<ele>377.750000</ele>
<time>2013-11-19T11:24:54Z</time>
<speed>0.010000</speed>
<extensions>
<speed>0.0</speed>
<temp>0.00</temp>
<bpm>0</bpm>
<rpm>0.00</rpm>
</extensions>
</trkpt>
<trkpt lat="31.060045242" lon="34.832546234">
<ele>377.757813</ele>
<time>2013-11-19T11:24:59Z</time>
<speed>0.040000</speed>
<extensions>
<speed>0.0</speed>
<temp>0.00</temp>
<bpm>0</bpm>
<rpm>0.00</rpm>
</extensions>
</trkpt>
<trkpt lat="31.060045242" lon="34.832546234">
<ele>377.757813</ele>
<time>2013-11-19T11:25:04Z</time>
<speed>0.040000</speed>
<extensions>
<speed>0.0</speed>
<temp>0.00</temp>
<bpm>0</bpm>
<rpm>0.00</rpm>
</extensions>
</trkpt>
<trkpt lat="31.060047150" lon="34.832546234">
<ele>377.757813</ele>
<time>2013-11-19T11:25:09Z</time>
<speed>0.010000</speed>
<extensions>
<speed>0.0</speed>
<temp>0.00</temp>
<bpm>0</bpm>
<rpm>0.00</rpm>
</extensions>
</trkpt>
<trkpt lat="31.060045242" lon="34.832546234">
<ele>377.757813</ele>
<time>2013-11-19T11:25:14Z</time>
<extensions>
<speed>0.0</speed>
<temp>0.00</temp>
<bpm>0</bpm>
<rpm>0.00</rpm>
</extensions>
</trkpt>
<trkpt lat="31.060045242" lon="34.832546234">
<ele>377.757813</ele>
<time>2013-11-19T11:25:19Z</time>
<extensions>
<speed>0.0</speed>
<temp>0.00</temp>
<bpm>0</bpm>
<rpm>0.00</rpm>
</extensions>
</trkpt>
<trkpt lat="31.060045242" lon="34.832546234">
<ele>377.765625</ele>
<time>2013-11-19T11:25:24Z</time>
<extensions>
<speed>0.0</speed>
<temp>0.00</temp>
<bpm>0</bpm>
<rpm>0.00</rpm>
</extensions>
</trkpt>
<trkpt lat="31.060047150" lon="34.832546234">
<ele>377.765625</ele>
<time>2013-11-19T11:25:29Z</time>
<extensions>
<speed>0.0</speed>
<temp>0.00</temp>
<bpm>0</bpm>
<rpm>0.00</rpm>
</extensions>
</trkpt>
<trkpt lat="31.060047150" lon="34.832546234">
<ele>377.765625</ele>
<time>2013-11-19T11:25:34Z</time>
<extensions>
<speed>0.0</speed>
<temp>0.00</temp>
<bpm>0</bpm>
<rpm>0.00</rpm>
</extensions>
</trkpt>
<trkpt lat="31.060047150" lon="34.832546234">
<ele>377.765625</ele>
<time>2013-11-19T11:25:39Z</time>
<speed>0.010000</speed>
<extensions>
<speed>0.0</speed>
<temp>0.00</temp>
<bpm>0</bpm>
<rpm>0.00</rpm>
</extensions>
</trkpt>
<trkpt lat="31.060047150" lon="34.832546234">
<ele>377.765625</ele>
<time>2013-11-19T11:25:44Z</time>
<extensions>
<speed>0.0</speed>
<temp>0.00</temp>
<bpm>0</bpm>
<rpm>0.00</rpm>
</extensions>
</trkpt>
<trkpt lat="31.060047150" lon="34.832546234">
<ele>377.765625</ele>
<time>2013-11-19T11:25:49Z</time>
<extensions>
<speed>0.0</speed>
<temp>0.00</temp>
<bpm>0</bpm>
<rpm>0.00</rpm>
</extensions>
</trkpt>
<trkpt lat="31.060047150" lon="34.832546234">
<ele>377.765625</ele>
<time>2013-11-19T11:25:54Z</time>
<extensions>
<speed>0.0</speed>
<temp>0.00</temp>
<bpm>0</bpm>
<rpm>0.00</rpm>
</extensions>
</trkpt>
<trkpt lat="31.060047150" lon="34.832546234">
<ele>377.765625</ele>
<time>2013-11-19T11:25:59Z</time>
<extensions>
<speed>0.0</speed>
<temp>0.00</temp>
<bpm>0</bpm>
<rpm>0.00</rpm>
</extensions>
</trkpt>
<trkpt lat="31.060047150" lon="34.832546234">
<ele>377.765625</ele>
<time>2013-11-19T11:26:04Z</time>
<extensions>
<speed>0.0</speed>
<temp>0.00</temp>
<bpm>0</bpm>
<rpm>0.00</rpm>
</extensions>
</trkpt>
<trkpt lat="31.060047150" lon="34.832546234">
<ele>377.765625</ele>
<time>2013-11-19T11:26:09Z</time>
<extensions>
<speed>0.0</speed>
<temp>0.00</temp>
<bpm>0</bpm>
<rpm>0.00</rpm>
</extensions>
</trkpt>
<trkpt lat="31.060047150" lon="34.832546234">
<ele>377.757813</ele>
<time>2013-11-19T11:26:14Z</time>
<extensions>
<speed>0.0</speed>
<temp>0.00</temp>
<bpm>0</bpm>
<rpm>0.00</rpm>
</extensions>
</trkpt>
<trkpt lat="31.060047150" lon="34.832546234">
<ele>377.757813</ele>
<time>2013-11-19T11:26:19Z</time>
<extensions>
<speed>0.0</speed>
<temp>0.00</temp>
<bpm>0</bpm>
<rpm>0.00</rpm>
</extensions>
</trkpt>
<trkpt lat="31.060045242" lon="34.832546234">
<ele>377.765625</ele>
<time>2013-11-19T11:26:24Z</time>
<extensions>
<speed>0.0</speed>
<temp>0.00</temp>
<bpm>0</bpm>
<rpm>0.00</rpm>
</extensions>
</trkpt>
<trkpt lat="31.060045242" lon="34.832546234">
<ele>377.765625</ele>
<time>2013-11-19T11:26:29Z</time>
<speed>0.010000</speed>
<extensions>
<speed>0.0</speed>
<temp>0.00</temp>
<bpm>0</bpm>
<rpm>0.00</rpm>
</extensions>
</trkpt>
<trkpt lat="31.060045242" lon="34.832546234">
<ele>377.773438</ele>
<time>2013-11-19T11:26:34Z</time>
<speed>0.180000</speed>
<extensions>
<speed>0.2</speed>
<temp>0.00</temp>
<bpm>0</bpm>
<rpm>0.00</rpm>
</extensions>
</trkpt>
<trkpt lat="31.060047150" lon="34.832550049">
<ele>377.773438</ele>
<time>2013-11-19T11:26:39Z</time>
<speed>0.010000</speed>
<extensions>
<speed>0.0</speed>
<temp>0.00</temp>
<bpm>0</bpm>
<rpm>0.00</rpm>
</extensions>
</trkpt>
<trkpt lat="31.060047150" lon="34.832550049">
<ele>377.757813</ele>
<time>2013-11-19T11:26:44Z</time>
<speed>0.040000</speed>
<extensions>
<speed>0.0</speed>
<temp>0.00</temp>
<bpm>0</bpm>
<rpm>0.00</rpm>
</extensions>
</trkpt>
<trkpt lat="31.060047150" lon="34.832550049">
<ele>377.757813</ele>
<time>2013-11-19T11:26:49Z</time>
<extensions>
<speed>0.0</speed>
<temp>0.00</temp>
<bpm>0</bpm>
<rpm>0.00</rpm>
</extensions>
</trkpt>
<trkpt lat="31.060047150" lon="34.832550049">
<ele>377.757813</ele>
<time>2013-11-19T11:26:54Z</time>
<extensions>
<speed>0.0</speed>
<temp>0.00</temp>
<bpm>0</bpm>
<rpm>0.00</rpm>
</extensions>
</trkpt>
<trkpt lat="31.060047150" lon="34.832550049">
<ele>377.742188</ele>
<time>2013-11-19T11:26:59Z</time>
<speed>0.010000</speed>
<extensions>
<speed>0.0</speed>
<temp>0.00</temp>
<bpm>0</bpm>
<rpm>0.00</rpm>
</extensions>
</trkpt>
<trkpt lat="31.060047150" lon="34.832550049">
<ele>377.750000</ele>
<time>2013-11-19T11:27:04Z</time>
<extensions>
<speed>0.0</speed>
<temp>0.00</temp>
<bpm>0</bpm>
<rpm>0.00</rpm>
</extensions>
</trkpt>
<trkpt lat="31.060047150" lon="34.832550049">
<ele>377.750000</ele>
<time>2013-11-19T11:27:09Z</time>
<extensions>
<speed>0.0</speed>
<temp>0.00</temp>
<bpm>0</bpm>
<rpm>0.00</rpm>
</extensions>
</trkpt>
<trkpt lat="31.060047150" lon="34.832550049">
<ele>377.750000</ele>
<time>2013-11-19T11:27:14Z</time>
<speed>0.010000</speed>
<extensions>
<speed>0.0</speed>
<temp>0.00</temp>
<bpm>0</bpm>
<rpm>0.00</rpm>
</extensions>
</trkpt>
<trkpt lat="31.060047150" lon="34.832550049">
<ele>377.757813</ele>
<time>2013-11-19T11:27:19Z</time>
<extensions>
<speed>0.0</speed>
<temp>0.00</temp>
<bpm>0</bpm>
<rpm>0.00</rpm>
</extensions>
</trkpt>
<trkpt lat="31.060047150" lon="34.832550049">
<ele>377.757813</ele>
<time>2013-11-19T11:27:24Z</time>
<extensions>
<speed>0.0</speed>
<temp>0.00</temp>
<bpm>0</bpm>
<rpm>0.00</rpm>
</extensions>
</trkpt>
<trkpt lat="31.060047150" lon="34.832550049">
<ele>377.757813</ele>
<time>2013-11-19T11:27:29Z</time>
<extensions>
<speed>0.0</speed>
<temp>0.00</temp>
<bpm>0</bpm>
<rpm>0.00</rpm>
</extensions>
</trkpt>
<trkpt lat="31.060047150" lon="34.832550049">
<ele>377.734375</ele>
<time>2013-11-19T11:27:34Z</time>
<extensions>
<speed>0.0</speed>
<temp>0.00</temp>
<bpm>0</bpm>
<rpm>0.00</rpm>
</extensions>
</trkpt>
<trkpt lat="31.060047150" lon="34.832550049">
<ele>377.718750</ele>
<time>2013-11-19T11:27:39Z</time>
<extensions>
<speed>0.0</speed>
<temp>0.00</temp>
<bpm>0</bpm>
<rpm>0.00</rpm>
</extensions>
</trkpt>
<trkpt lat="31.060047150" lon="34.832550049">
<ele>377.710938</ele>
<time>2013-11-19T11:27:44Z</time>
<extensions>
<speed>0.0</speed>
<temp>0.00</temp>
<bpm>0</bpm>
<rpm>0.00</rpm>
</extensions>
</trkpt>
<trkpt lat="31.060047150" lon="34.832550049">
<ele>377.695313</ele>
<time>2013-11-19T11:27:49Z</time>
<extensions>
<speed>0.0</speed>
<temp>0.00</temp>
<bpm>0</bpm>
<rpm>0.00</rpm>
</extensions>
</trkpt>
<trkpt lat="31.060047150" lon="34.832550049">
<ele>377.687500</ele>
<time>2013-11-19T11:27:54Z</time>
<extensions>
<speed>0.0</speed>
<temp>0.00</temp>
<bpm>0</bpm>
<rpm>0.00</rpm>
</extensions>
</trkpt>
<trkpt lat="31.060047150" lon="34.832550049">
<ele>377.679688</ele>
<time>2013-11-19T11:27:59Z</time>
<extensions>
<speed>0.0</speed>
<temp>0.00</temp>
<bpm>0</bpm>
<rpm>0.00</rpm>
</extensions>
</trkpt>
<trkpt lat="31.060047150" lon="34.832550049">
<ele>377.671875</ele>
<time>2013-11-19T11:28:04Z</time>
<speed>0.010000</speed>
<extensions>
<speed>0.0</speed>
<temp>0.00</temp>
<bpm>0</bpm>
<rpm>0.00</rpm>
</extensions>
</trkpt>
<trkpt lat="31.060047150" lon="34.832550049">
<ele>377.656250</ele>
<time>2013-11-19T11:28:09Z</time>
<extensions>
<speed>0.0</speed>
<temp>0.00</temp>
<bpm>0</bpm>
<rpm>0.00</rpm>
</extensions>
</trkpt>
<trkpt lat="31.060047150" lon="34.832550049">
<ele>377.648438</ele>
<time>2013-11-19T11:28:14Z</time>
<extensions>
<speed>0.0</speed>
<temp>0.00</temp>
<bpm>0</bpm>
<rpm>0.00</rpm>
</extensions>
</trkpt>
<trkpt lat="31.060047150" lon="34.832550049">
<ele>377.640625</ele>
<time>2013-11-19T11:28:19Z</time>
<extensions>
<speed>0.0</speed>
<temp>0.00</temp>
<bpm>0</bpm>
<rpm>0.00</rpm>
</extensions>
</trkpt>
<trkpt lat="31.060047150" lon="34.832550049">
<ele>377.625000</ele>
<time>2013-11-19T11:28:24Z</time>
<extensions>
<speed>0.0</speed>
<temp>0.00</temp>
<bpm>0</bpm>
<rpm>0.00</rpm>
</extensions>
</trkpt>
<trkpt lat="31.060047150" lon="34.832550049">
<ele>377.625000</ele>
<time>2013-11-19T11:28:29Z</time>
<extensions>
<speed>0.0</speed>
<temp>0.00</temp>
<bpm>0</bpm>
<rpm>0.00</rpm>
</extensions>
</trkpt>
<trkpt lat="31.060045242" lon="34.832550049">
<ele>377.609375</ele>
<time>2013-11-19T11:28:34Z</time>
<speed>0.010000</speed>
<extensions>
<speed>0.0</speed>
<temp>0.00</temp>
<bpm>0</bpm>
<rpm>0.00</rpm>
</extensions>
</trkpt>
<trkpt lat="31.060045242" lon="34.832550049">
<ele>377.601563</ele>
<time>2013-11-19T11:28:39Z</time>
<speed>0.020000</speed>
<extensions>
<speed>0.0</speed>
<temp>0.00</temp>
<bpm>0</bpm>
<rpm>0.00</rpm>
</extensions>
</trkpt>
<trkpt lat="31.060043335" lon="34.832550049">
<ele>377.476563</ele>
<time>2013-11-19T11:28:44Z</time>
<extensions>
<speed>0.0</speed>
<temp>0.00</temp>
<bpm>0</bpm>
<rpm>0.00</rpm>
</extensions>
</trkpt>
<trkpt lat="31.060043335" lon="34.832550049">
<ele>377.468750</ele>
<time>2013-11-19T11:28:49Z</time>
<extensions>
<speed>0.0</speed>
<temp>0.00</temp>
<bpm>0</bpm>
<rpm>0.00</rpm>
</extensions>
</trkpt>
<trkpt lat="31.060043335" lon="34.832550049">
<ele>377.460938</ele>
<time>2013-11-19T11:28:54Z</time>
<extensions>
<speed>0.0</speed>
<temp>0.00</temp>
<bpm>0</bpm>
<rpm>0.00</rpm>
</extensions>
</trkpt>
<trkpt lat="31.060043335" lon="34.832550049">
<ele>377.453125</ele>
<time>2013-11-19T11:28:59Z</time>
<extensions>
<speed>0.0</speed>
<temp>0.00</temp>
<bpm>0</bpm>
<rpm>0.00</rpm>
</extensions>
</trkpt>
<trkpt lat="31.060043335" lon="34.832550049">
<ele>377.445313</ele>
<time>2013-11-19T11:29:04Z</time>
<extensions>
<speed>0.0</speed>
<temp>0.00</temp>
<bpm>0</bpm>
<rpm>0.00</rpm>
</extensions>
</trkpt>
<trkpt lat="31.060043335" lon="34.832550049">
<ele>377.437500</ele>
<time>2013-11-19T11:29:09Z</time>
<extensions>
<speed>0.0</speed>
<temp>0.00</temp>
<bpm>0</bpm>
<rpm>0.00</rpm>
</extensions>
</trkpt>
<trkpt lat="31.060043335" lon="34.832550049">
<ele>377.437500</ele>
<time>2013-11-19T11:29:14Z</time>
<extensions>
<speed>0.0</speed>
<temp>0.00</temp>
<bpm>0</bpm>
<rpm>0.00</rpm>
</extensions>
</trkpt>
<trkpt lat="31.060041428" lon="34.832550049">
<ele>377.390625</ele>
<time>2013-11-19T11:29:19Z</time>
<speed>0.080000</speed>
<extensions>
<speed>0.1</speed>
<temp>0.00</temp>
<bpm>0</bpm>
<rpm>0.00</rpm>
</extensions>
</trkpt>
<trkpt lat="31.060112000" lon="34.832530975">
<ele>376.757813</ele>
<time>2013-11-19T11:29:24Z</time>
<speed>3.440000</speed>
<extensions>
<speed>3.4</speed>
<temp>0.00</temp>
<bpm>0</bpm>
<rpm>0.00</rpm>
</extensions>
</trkpt>
<trkpt lat="31.060285568" lon="34.832553864">
<ele>376.101563</ele>
<time>2013-11-19T11:29:29Z</time>
<speed>4.050000</speed>
<extensions>
<speed>4.0</speed>
<temp>0.00</temp>
<bpm>0</bpm>
<rpm>0.00</rpm>
</extensions>
</trkpt>
<trkpt lat="31.060468674" lon="34.832561493">
<ele>375.546875</ele>
<time>2013-11-19T11:29:34Z</time>
<speed>4.160000</speed>
<extensions>
<speed>4.2</speed>
<temp>0.00</temp>
<bpm>0</bpm>
<rpm>0.00</rpm>
</extensions>
</trkpt>
<trkpt lat="31.060642242" lon="34.832588196">
<ele>375.398438</ele>
<time>2013-11-19T11:29:39Z</time>
<speed>3.950000</speed>
<extensions>
<speed>4.0</speed>
<temp>0.00</temp>
<bpm>0</bpm>
<rpm>0.00</rpm>
</extensions>
</trkpt>
<trkpt lat="31.060785294" lon="34.832664490">
<ele>375.523438</ele>
<time>2013-11-19T11:29:44Z</time>
<speed>3.320000</speed>
<extensions>
<speed>3.3</speed>
<temp>0.00</temp>
<bpm>0</bpm>
<rpm>0.00</rpm>
</extensions>
</trkpt>
<trkpt lat="31.060920715" lon="34.832790375">
<ele>375.695313</ele>
<time>2013-11-19T11:29:49Z</time>
<speed>3.630000</speed>
<extensions>
<speed>3.6</speed>
<temp>0.00</temp>
<bpm>0</bpm>
<rpm>0.00</rpm>
</extensions>
</trkpt>
<trkpt lat="31.061048508" lon="34.832908630">
<ele>375.906250</ele>
<time>2013-11-19T11:29:54Z</time>
<speed>3.740000</speed>
<extensions>
<speed>3.7</speed>
<temp>0.00</temp>
<bpm>0</bpm>
<rpm>0.00</rpm>
</extensions>
</trkpt>
<trkpt lat="31.061157227" lon="34.833019257">
<ele>376.093750</ele>
<time>2013-11-19T11:29:59Z</time>
<speed>2.790000</speed>
<extensions>
<speed>2.8</speed>
<temp>0.00</temp>
<bpm>0</bpm>
<rpm>0.00</rpm>
</extensions>
</trkpt>
<trkpt lat="31.061203003" lon="34.833053589">
<ele>376.500000</ele>
<time>2013-11-19T11:30:04Z</time>
<speed>0.210000</speed>
<extensions>
<speed>0.2</speed>
<temp>0.00</temp>
<bpm>0</bpm>
<rpm>0.00</rpm>
</extensions>
</trkpt>
<trkpt lat="31.061201096" lon="34.833049774">
<ele>376.679688</ele>
<time>2013-11-19T11:30:09Z</time>
<extensions>
<speed>0.0</speed>
<temp>0.00</temp>
<bpm>0</bpm>
<rpm>0.00</rpm>
</extensions>
</trkpt>
<trkpt lat="31.061201096" lon="34.833049774">
<ele>376.648438</ele>
<time>2013-11-19T11:30:14Z</time>
<speed>0.010000</speed>
<extensions>
<speed>0.0</speed>
<temp>0.00</temp>
<bpm>0</bpm>
<rpm>0.00</rpm>
</extensions>
</trkpt>
<trkpt lat="31.061201096" lon="34.833049774">
<ele>376.601563</ele>
<time>2013-11-19T11:30:19Z</time>
<extensions>
<speed>0.0</speed>
<temp>0.00</temp>
<bpm>0</bpm>
<rpm>0.00</rpm>
</extensions>
</trkpt>
<trkpt lat="31.061201096" lon="34.833049774">
<ele>376.539063</ele>
<time>2013-11-19T11:30:24Z</time>
<extensions>
<speed>0.0</speed>
<temp>0.00</temp>
<bpm>0</bpm>
<rpm>0.00</rpm>
</extensions>
</trkpt>
<trkpt lat="31.061201096" lon="34.833049774">
<ele>376.484375</ele>
<time>2013-11-19T11:30:29Z</time>
<extensions>
<speed>0.0</speed>
<temp>0.00</temp>
<bpm>0</bpm>
<rpm>0.00</rpm>
</extensions>
</trkpt>
<trkpt lat="31.061201096" lon="34.833049774">
<ele>376.421875</ele>
<time>2013-11-19T11:30:34Z</time>
<extensions>
<speed>0.0</speed>
<temp>0.00</temp>
<bpm>0</bpm>
<rpm>0.00</rpm>
</extensions>
</trkpt>
<trkpt lat="31.061201096" lon="34.833049774">
<ele>376.382813</ele>
<time>2013-11-19T11:30:39Z</time>
<extensions>
<speed>0.0</speed>
<temp>0.00</temp>
<bpm>0</bpm>
<rpm>0.00</rpm>
</extensions>
</trkpt>
<trkpt lat="31.061201096" lon="34.833049774">
<ele>376.375000</ele>
<time>2013-11-19T11:30:44Z</time>
<speed>0.010000</speed>
<extensions>
<speed>0.0</speed>
<temp>0.00</temp>
<bpm>0</bpm>
<rpm>0.00</rpm>
</extensions>
</trkpt>
<trkpt lat="31.061201096" lon="34.833049774">
<ele>376.375000</ele>
<time>2013-11-19T11:30:49Z</time>
<extensions>
<speed>0.0</speed>
<temp>0.00</temp>
<bpm>0</bpm>
<rpm>0.00</rpm>
</extensions>
</trkpt>
<trkpt lat="31.061201096" lon="34.833049774">
<ele>376.375000</ele>
<time>2013-11-19T11:30:54Z</time>
<extensions>
<speed>0.0</speed>
<temp>0.00</temp>
<bpm>0</bpm>
<rpm>0.00</rpm>
</extensions>
</trkpt>
<trkpt lat="31.061201096" lon="34.833049774">
<ele>376.382813</ele>
<time>2013-11-19T11:30:59Z</time>
<extensions>
<speed>0.0</speed>
<temp>0.00</temp>
<bpm>0</bpm>
<rpm>0.00</rpm>
</extensions>
</trkpt>
<trkpt lat="31.061201096" lon="34.833049774">
<ele>376.382813</ele>
<time>2013-11-19T11:31:04Z</time>
<extensions>
<speed>0.0</speed>
<temp>0.00</temp>
<bpm>0</bpm>
<rpm>0.00</rpm>
</extensions>
</trkpt>
<trkpt lat="31.061201096" lon="34.833049774">
<ele>376.375000</ele>
<time>2013-11-19T11:31:09Z</time>
<extensions>
<speed>0.0</speed>
<temp>0.00</temp>
<bpm>0</bpm>
<rpm>0.00</rpm>
</extensions>
</trkpt>
<trkpt lat="31.061199188" lon="34.833049774">
<ele>376.367188</ele>
<time>2013-11-19T11:31:14Z</time>
<extensions>
<speed>0.0</speed>
<temp>0.00</temp>
<bpm>0</bpm>
<rpm>0.00</rpm>
</extensions>
</trkpt>
<trkpt lat="31.061199188" lon="34.833049774">
<ele>376.351563</ele>
<time>2013-11-19T11:31:19Z</time>
<extensions>
<speed>0.0</speed>
<temp>0.00</temp>
<bpm>0</bpm>
<rpm>0.00</rpm>
</extensions>
</trkpt>
<trkpt lat="31.061199188" lon="34.833049774">
<ele>376.343750</ele>
<time>2013-11-19T11:31:24Z</time>
<extensions>
<speed>0.0</speed>
<temp>0.00</temp>
<bpm>0</bpm>
<rpm>0.00</rpm>
</extensions>
</trkpt>
<trkpt lat="31.061199188" lon="34.833049774">
<ele>376.343750</ele>
<time>2013-11-19T11:31:29Z</time>
<extensions>
<speed>0.0</speed>
<temp>0.00</temp>
<bpm>0</bpm>
<rpm>0.00</rpm>
</extensions>
</trkpt>
<trkpt lat="31.061199188" lon="34.833049774">
<ele>376.335938</ele>
<time>2013-11-19T11:31:34Z</time>
<extensions>
<speed>0.0</speed>
<temp>0.00</temp>
<bpm>0</bpm>
<rpm>0.00</rpm>
</extensions>
</trkpt>
<trkpt lat="31.061199188" lon="34.833049774">
<ele>376.328125</ele>
<time>2013-11-19T11:31:39Z</time>
<extensions>
<speed>0.0</speed>
<temp>0.00</temp>
<bpm>0</bpm>
<rpm>0.00</rpm>
</extensions>
</trkpt>
<trkpt lat="31.061199188" lon="34.833049774">
<ele>376.320313</ele>
<time>2013-11-19T11:31:44Z</time>
<speed>0.010000</speed>
<extensions>
<speed>0.0</speed>
<temp>0.00</temp>
<bpm>0</bpm>
<rpm>0.00</rpm>
</extensions>
</trkpt>
<trkpt lat="31.061199188" lon="34.833049774">
<ele>376.312500</ele>
<time>2013-11-19T11:31:49Z</time>
<speed>0.010000</speed>
<extensions>
<speed>0.0</speed>
<temp>0.00</temp>
<bpm>0</bpm>
<rpm>0.00</rpm>
</extensions>
</trkpt>
<trkpt lat="31.061199188" lon="34.833049774">
<ele>376.304688</ele>
<time>2013-11-19T11:31:54Z</time>
<extensions>
<speed>0.0</speed>
<temp>0.00</temp>
<bpm>0</bpm>
<rpm>0.00</rpm>
</extensions>
</trkpt>
<trkpt lat="31.061199188" lon="34.833049774">
<ele>376.296875</ele>
<time>2013-11-19T11:31:59Z</time>
<extensions>
<speed>0.0</speed>
<temp>0.00</temp>
<bpm>0</bpm>
<rpm>0.00</rpm>
</extensions>
</trkpt>
<trkpt lat="31.061199188" lon="34.833049774">
<ele>376.289063</ele>
<time>2013-11-19T11:32:04Z</time>
<extensions>
<speed>0.0</speed>
<temp>0.00</temp>
<bpm>0</bpm>
<rpm>0.00</rpm>
</extensions>
</trkpt>
<trkpt lat="31.061199188" lon="34.833049774">
<ele>376.296875</ele>
<time>2013-11-19T11:32:09Z</time>
<extensions>
<speed>0.0</speed>
<temp>0.00</temp>
<bpm>0</bpm>
<rpm>0.00</rpm>
</extensions>
</trkpt>
<trkpt lat="31.061199188" lon="34.833049774">
<ele>376.296875</ele>
<time>2013-11-19T11:32:14Z</time>
<extensions>
<speed>0.0</speed>
<temp>0.00</temp>
<bpm>0</bpm>
<rpm>0.00</rpm>
</extensions>
</trkpt>
<trkpt lat="31.061199188" lon="34.833049774">
<ele>376.289063</ele>
<time>2013-11-19T11:32:19Z</time>
<speed>0.010000</speed>
<extensions>
<speed>0.0</speed>
<temp>0.00</temp>
<bpm>0</bpm>
<rpm>0.00</rpm>
</extensions>
</trkpt>
<trkpt lat="31.061199188" lon="34.833049774">
<ele>376.281250</ele>
<time>2013-11-19T11:32:24Z</time>
<extensions>
<speed>0.0</speed>
<temp>0.00</temp>
<bpm>0</bpm>
<rpm>0.00</rpm>
</extensions>
</trkpt>
<trkpt lat="31.061199188" lon="34.833049774">
<ele>376.273438</ele>
<time>2013-11-19T11:32:29Z</time>
<extensions>
<speed>0.0</speed>
<temp>0.00</temp>
<bpm>0</bpm>
<rpm>0.00</rpm>
</extensions>
</trkpt>
<trkpt lat="31.061199188" lon="34.833045959">
<ele>376.265625</ele>
<time>2013-11-19T11:32:34Z</time>
<extensions>
<speed>0.0</speed>
<temp>0.00</temp>
<bpm>0</bpm>
<rpm>0.00</rpm>
</extensions>
</trkpt>
<trkpt lat="31.061199188" lon="34.833045959">
<ele>376.265625</ele>
<time>2013-11-19T11:32:39Z</time>
<extensions>
<speed>0.0</speed>
<temp>0.00</temp>
<bpm>0</bpm>
<rpm>0.00</rpm>
</extensions>
</trkpt>
<trkpt lat="31.061197281" lon="34.833045959">
<ele>376.265625</ele>
<time>2013-11-19T11:32:44Z</time>
<extensions>
<speed>0.0</speed>
<temp>0.00</temp>
<bpm>0</bpm>
<rpm>0.00</rpm>
</extensions>
</trkpt>
<trkpt lat="31.061197281" lon="34.833045959">
<ele>376.265625</ele>
<time>2013-11-19T11:32:49Z</time>
<extensions>
<speed>0.0</speed>
<temp>0.00</temp>
<bpm>0</bpm>
<rpm>0.00</rpm>
</extensions>
</trkpt>
<trkpt lat="31.061197281" lon="34.833045959">
<ele>376.265625</ele>
<time>2013-11-19T11:32:54Z</time>
<extensions>
<speed>0.0</speed>
<temp>0.00</temp>
<bpm>0</bpm>
<rpm>0.00</rpm>
</extensions>
</trkpt>
<trkpt lat="31.061197281" lon="34.833045959">
<ele>376.273438</ele>
<time>2013-11-19T11:32:59Z</time>
<extensions>
<speed>0.0</speed>
<temp>0.00</temp>
<bpm>0</bpm>
<rpm>0.00</rpm>
</extensions>
</trkpt>
<trkpt lat="31.061197281" lon="34.833045959">
<ele>376.273438</ele>
<time>2013-11-19T11:33:04Z</time>
<extensions>
<speed>0.0</speed>
<temp>0.00</temp>
<bpm>0</bpm>
<rpm>0.00</rpm>
</extensions>
</trkpt>
<trkpt lat="31.061197281" lon="34.833045959">
<ele>376.273438</ele>
<time>2013-11-19T11:33:09Z</time>
<extensions>
<speed>0.0</speed>
<temp>0.00</temp>
<bpm>0</bpm>
<rpm>0.00</rpm>
</extensions>
</trkpt>
<trkpt lat="31.061197281" lon="34.833045959">
<ele>376.273438</ele>
<time>2013-11-19T11:33:14Z</time>
<extensions>
<speed>0.0</speed>
<temp>0.00</temp>
<bpm>0</bpm>
<rpm>0.00</rpm>
</extensions>
</trkpt>
<trkpt lat="31.061197281" lon="34.833045959">
<ele>376.265625</ele>
<time>2013-11-19T11:33:19Z</time>
<extensions>
<speed>0.0</speed>
<temp>0.00</temp>
<bpm>0</bpm>
<rpm>0.00</rpm>
</extensions>
</trkpt>
<trkpt lat="31.061197281" lon="34.833045959">
<ele>376.257813</ele>
<time>2013-11-19T11:33:24Z</time>
<extensions>
<speed>0.0</speed>
<temp>0.00</temp>
<bpm>0</bpm>
<rpm>0.00</rpm>
</extensions>
</trkpt>
<trkpt lat="31.061197281" lon="34.833045959">
<ele>376.257813</ele>
<time>2013-11-19T11:33:29Z</time>
<extensions>
<speed>0.0</speed>
<temp>0.00</temp>
<bpm>0</bpm>
<rpm>0.00</rpm>
</extensions>
</trkpt>
<trkpt lat="31.061197281" lon="34.833045959">
<ele>376.257813</ele>
<time>2013-11-19T11:33:34Z</time>
<extensions>
<speed>0.0</speed>
<temp>0.00</temp>
<bpm>0</bpm>
<rpm>0.00</rpm>
</extensions>
</trkpt>
<trkpt lat="31.061197281" lon="34.833045959">
<ele>376.265625</ele>
<time>2013-11-19T11:33:39Z</time>
<extensions>
<speed>0.0</speed>
<temp>0.00</temp>
<bpm>0</bpm>
<rpm>0.00</rpm>
</extensions>
</trkpt>
<trkpt lat="31.061197281" lon="34.833045959">
<ele>376.273438</ele>
<time>2013-11-19T11:33:44Z</time>
<extensions>
<speed>0.0</speed>
<temp>0.00</temp>
<bpm>0</bpm>
<rpm>0.00</rpm>
</extensions>
</trkpt>
<trkpt lat="31.061197281" lon="34.833045959">
<ele>376.281250</ele>
<time>2013-11-19T11:33:49Z</time>
<extensions>
<speed>0.0</speed>
<temp>0.00</temp>
<bpm>0</bpm>
<rpm>0.00</rpm>
</extensions>
</trkpt>
<trkpt lat="31.061197281" lon="34.833045959">
<ele>376.296875</ele>
<time>2013-11-19T11:33:54Z</time>
<extensions>
<speed>0.0</speed>
<temp>0.00</temp>
<bpm>0</bpm>
<rpm>0.00</rpm>
</extensions>
</trkpt>
<trkpt lat="31.061197281" lon="34.833045959">
<ele>376.312500</ele>
<time>2013-11-19T11:33:59Z</time>
<extensions>
<speed>0.0</speed>
<temp>0.00</temp>
<bpm>0</bpm>
<rpm>0.00</rpm>
</extensions>
</trkpt>
<trkpt lat="31.061197281" lon="34.833045959">
<ele>376.328125</ele>
<time>2013-11-19T11:34:04Z</time>
<extensions>
<speed>0.0</speed>
<temp>0.00</temp>
<bpm>0</bpm>
<rpm>0.00</rpm>
</extensions>
</trkpt>
<trkpt lat="31.061197281" lon="34.833045959">
<ele>376.343750</ele>
<time>2013-11-19T11:34:09Z</time>
<extensions>
<speed>0.0</speed>
<temp>0.00</temp>
<bpm>0</bpm>
<rpm>0.00</rpm>
</extensions>
</trkpt>
<trkpt lat="31.061197281" lon="34.833045959">
<ele>376.359375</ele>
<time>2013-11-19T11:34:14Z</time>
<speed>0.010000</speed>
<extensions>
<speed>0.0</speed>
<temp>0.00</temp>
<bpm>0</bpm>
<rpm>0.00</rpm>
</extensions>
</trkpt>
<trkpt lat="31.061197281" lon="34.833042145">
<ele>376.382813</ele>
<time>2013-11-19T11:34:19Z</time>
<extensions>
<speed>0.0</speed>
<temp>0.00</temp>
<bpm>0</bpm>
<rpm>0.00</rpm>
</extensions>
</trkpt>
<trkpt lat="31.061197281" lon="34.833042145">
<ele>376.414063</ele>
<time>2013-11-19T11:34:24Z</time>
<extensions>
<speed>0.0</speed>
<temp>0.00</temp>
<bpm>0</bpm>
<rpm>0.00</rpm>
</extensions>
</trkpt>
<trkpt lat="31.061197281" lon="34.833042145">
<ele>376.445313</ele>
<time>2013-11-19T11:34:29Z</time>
<extensions>
<speed>0.0</speed>
<temp>0.00</temp>
<bpm>0</bpm>
<rpm>0.00</rpm>
</extensions>
</trkpt>
<trkpt lat="31.061197281" lon="34.833042145">
<ele>376.476563</ele>
<time>2013-11-19T11:34:34Z</time>
<extensions>
<speed>0.0</speed>
<temp>0.00</temp>
<bpm>0</bpm>
<rpm>0.00</rpm>
</extensions>
</trkpt>
<trkpt lat="31.061197281" lon="34.833042145">
<ele>376.500000</ele>
<time>2013-11-19T11:34:39Z</time>
<extensions>
<speed>0.0</speed>
<temp>0.00</temp>
<bpm>0</bpm>
<rpm>0.00</rpm>
</extensions>
</trkpt>
<trkpt lat="31.061197281" lon="34.833042145">
<ele>376.523438</ele>
<time>2013-11-19T11:34:44Z</time>
<extensions>
<speed>0.0</speed>
<temp>0.00</temp>
<bpm>0</bpm>
<rpm>0.00</rpm>
</extensions>
</trkpt>
<trkpt lat="31.061197281" lon="34.833042145">
<ele>376.554688</ele>
<time>2013-11-19T11:34:49Z</time>
<extensions>
<speed>0.0</speed>
<temp>0.00</temp>
<bpm>0</bpm>
<rpm>0.00</rpm>
</extensions>
</trkpt>
<trkpt lat="31.061197281" lon="34.833042145">
<ele>376.578125</ele>
<time>2013-11-19T11:34:54Z</time>
<extensions>
<speed>0.0</speed>
<temp>0.00</temp>
<bpm>0</bpm>
<rpm>0.00</rpm>
</extensions>
</trkpt>
<trkpt lat="31.061197281" lon="34.833042145">
<ele>376.609375</ele>
<time>2013-11-19T11:34:59Z</time>
<speed>0.010000</speed>
<extensions>
<speed>0.0</speed>
<temp>0.00</temp>
<bpm>0</bpm>
<rpm>0.00</rpm>
</extensions>
</trkpt>
<trkpt lat="31.061197281" lon="34.833042145">
<ele>376.632813</ele>
<time>2013-11-19T11:35:04Z</time>
<extensions>
<speed>0.0</speed>
<temp>0.00</temp>
<bpm>0</bpm>
<rpm>0.00</rpm>
</extensions>
</trkpt>
<trkpt lat="31.061197281" lon="34.833042145">
<ele>376.640625</ele>
<time>2013-11-19T11:35:09Z</time>
<extensions>
<speed>0.0</speed>
<temp>0.00</temp>
<bpm>0</bpm>
<rpm>0.00</rpm>
</extensions>
</trkpt>
<trkpt lat="31.061197281" lon="34.833042145">
<ele>376.656250</ele>
<time>2013-11-19T11:35:14Z</time>
<extensions>
<speed>0.0</speed>
<temp>0.00</temp>
<bpm>0</bpm>
<rpm>0.00</rpm>
</extensions>
</trkpt>
<trkpt lat="31.061199188" lon="34.833042145">
<ele>376.664063</ele>
<time>2013-11-19T11:35:19Z</time>
<extensions>
<speed>0.0</speed>
<temp>0.00</temp>
<bpm>0</bpm>
<rpm>0.00</rpm>
</extensions>
</trkpt>
<trkpt lat="31.061199188" lon="34.833042145">
<ele>376.687500</ele>
<time>2013-11-19T11:35:24Z</time>
<speed>0.010000</speed>
<extensions>
<speed>0.0</speed>
<temp>0.00</temp>
<bpm>0</bpm>
<rpm>0.00</rpm>
</extensions>
</trkpt>
<trkpt lat="31.061199188" lon="34.833042145">
<ele>376.710938</ele>
<time>2013-11-19T11:35:29Z</time>
<extensions>
<speed>0.0</speed>
<temp>0.00</temp>
<bpm>0</bpm>
<rpm>0.00</rpm>
</extensions>
</trkpt>
<trkpt lat="31.061199188" lon="34.833042145">
<ele>376.726563</ele>
<time>2013-11-19T11:35:34Z</time>
<extensions>
<speed>0.0</speed>
<temp>0.00</temp>
<bpm>0</bpm>
<rpm>0.00</rpm>
</extensions>
</trkpt>
<trkpt lat="31.061199188" lon="34.833042145">
<ele>376.742188</ele>
<time>2013-11-19T11:35:39Z</time>
<extensions>
<speed>0.0</speed>
<temp>0.00</temp>
<bpm>0</bpm>
<rpm>0.00</rpm>
</extensions>
</trkpt>
<trkpt lat="31.061199188" lon="34.833042145">
<ele>376.765625</ele>
<time>2013-11-19T11:35:44Z</time>
<extensions>
<speed>0.0</speed>
<temp>0.00</temp>
<bpm>0</bpm>
<rpm>0.00</rpm>
</extensions>
</trkpt>
<trkpt lat="31.061201096" lon="34.833042145">
<ele>376.789063</ele>
<time>2013-11-19T11:35:49Z</time>
<extensions>
<speed>0.0</speed>
<temp>0.00</temp>
<bpm>0</bpm>
<rpm>0.00</rpm>
</extensions>
</trkpt>
<trkpt lat="31.061201096" lon="34.833042145">
<ele>376.796875</ele>
<time>2013-11-19T11:35:54Z</time>
<extensions>
<speed>0.0</speed>
<temp>0.00</temp>
<bpm>0</bpm>
<rpm>0.00</rpm>
</extensions>
</trkpt>
<trkpt lat="31.061201096" lon="34.833042145">
<ele>376.820313</ele>
<time>2013-11-19T11:35:59Z</time>
<extensions>
<speed>0.0</speed>
<temp>0.00</temp>
<bpm>0</bpm>
<rpm>0.00</rpm>
</extensions>
</trkpt>
<trkpt lat="31.061201096" lon="34.833042145">
<ele>376.851563</ele>
<time>2013-11-19T11:36:04Z</time>
<extensions>
<speed>0.0</speed>
<temp>0.00</temp>
<bpm>0</bpm>
<rpm>0.00</rpm>
</extensions>
</trkpt>
<trkpt lat="31.061201096" lon="34.833042145">
<ele>376.890625</ele>
<time>2013-11-19T11:36:09Z</time>
<extensions>
<speed>0.0</speed>
<temp>0.00</temp>
<bpm>0</bpm>
<rpm>0.00</rpm>
</extensions>
</trkpt>
<trkpt lat="31.061201096" lon="34.833042145">
<ele>376.906250</ele>
<time>2013-11-19T11:36:14Z</time>
<extensions>
<speed>0.0</speed>
<temp>0.00</temp>
<bpm>0</bpm>
<rpm>0.00</rpm>
</extensions>
</trkpt>
<trkpt lat="31.061203003" lon="34.833042145">
<ele>376.929688</ele>
<time>2013-11-19T11:36:19Z</time>
<extensions>
<speed>0.0</speed>
<temp>0.00</temp>
<bpm>0</bpm>
<rpm>0.00</rpm>
</extensions>
</trkpt>
<trkpt lat="31.061203003" lon="34.833042145">
<ele>376.960938</ele>
<time>2013-11-19T11:36:24Z</time>
<extensions>
<speed>0.0</speed>
<temp>0.00</temp>
<bpm>0</bpm>
<rpm>0.00</rpm>
</extensions>
</trkpt>
<trkpt lat="31.061203003" lon="34.833042145">
<ele>377.000000</ele>
<time>2013-11-19T11:36:29Z</time>
<extensions>
<speed>0.0</speed>
<temp>0.00</temp>
<bpm>0</bpm>
<rpm>0.00</rpm>
</extensions>
</trkpt>
<trkpt lat="31.061203003" lon="34.833042145">
<ele>377.031250</ele>
<time>2013-11-19T11:36:34Z</time>
<extensions>
<speed>0.0</speed>
<temp>0.00</temp>
<bpm>0</bpm>
<rpm>0.00</rpm>
</extensions>
</trkpt>
<trkpt lat="31.061203003" lon="34.833042145">
<ele>377.070313</ele>
<time>2013-11-19T11:36:39Z</time>
<speed>0.010000</speed>
<extensions>
<speed>0.0</speed>
<temp>0.00</temp>
<bpm>0</bpm>
<rpm>0.00</rpm>
</extensions>
</trkpt>
<trkpt lat="31.061203003" lon="34.833038330">
<ele>377.156250</ele>
<time>2013-11-19T11:36:44Z</time>
<speed>0.030000</speed>
<extensions>
<speed>0.0</speed>
<temp>0.00</temp>
<bpm>0</bpm>
<rpm>0.00</rpm>
</extensions>
</trkpt>
<trkpt lat="31.061193466" lon="34.833026886">
<ele>377.398438</ele>
<time>2013-11-19T11:36:49Z</time>
<speed>1.850000</speed>
<extensions>
<speed>1.8</speed>
<temp>0.00</temp>
<bpm>0</bpm>
<rpm>0.00</rpm>
</extensions>
</trkpt>
<trkpt lat="31.061122894" lon="34.832954407">
<ele>378.046875</ele>
<time>2013-11-19T11:36:54Z</time>
<speed>2.470000</speed>
<extensions>
<speed>2.5</speed>
<temp>0.00</temp>
<bpm>0</bpm>
<rpm>0.00</rpm>
</extensions>
</trkpt>
<trkpt lat="31.061019897" lon="34.832855225">
<ele>378.171875</ele>
<time>2013-11-19T11:36:59Z</time>
<speed>3.280000</speed>
<extensions>
<speed>3.3</speed>
<temp>0.00</temp>
<bpm>0</bpm>
<rpm>0.00</rpm>
</extensions>
</trkpt>
<trkpt lat="31.060899734" lon="34.832748413">
<ele>379.117188</ele>
<time>2013-11-19T11:37:04Z</time>
<speed>3.370000</speed>
<extensions>
<speed>3.4</speed>
<temp>0.00</temp>
<bpm>0</bpm>
<rpm>0.00</rpm>
</extensions>
</trkpt>
<trkpt lat="31.060775757" lon="34.832618713">
<ele>379.281250</ele>
<time>2013-11-19T11:37:09Z</time>
<speed>3.650000</speed>
<extensions>
<speed>3.7</speed>
<temp>0.00</temp>
<bpm>0</bpm>
<rpm>0.00</rpm>
</extensions>
</trkpt>
<trkpt lat="31.060613632" lon="34.832530975">
<ele>378.843750</ele>
<time>2013-11-19T11:37:14Z</time>
<speed>3.450000</speed>
<extensions>
<speed>3.5</speed>
<temp>0.00</temp>
<bpm>0</bpm>
<rpm>0.00</rpm>
</extensions>
</trkpt>
<trkpt lat="31.060491562" lon="34.832504272">
<ele>379.617188</ele>
<time>2013-11-19T11:37:19Z</time>
<speed>1.990000</speed>
<extensions>
<speed>2.0</speed>
<temp>0.00</temp>
<bpm>0</bpm>
<rpm>0.00</rpm>
</extensions>
</trkpt>
<trkpt lat="31.060400009" lon="34.832500458">
<ele>381.109375</ele>
<time>2013-11-19T11:37:24Z</time>
<speed>2.700000</speed>
<extensions>
<speed>2.7</speed>
<temp>0.00</temp>
<bpm>0</bpm>
<rpm>0.00</rpm>
</extensions>
</trkpt>
<trkpt lat="31.060262680" lon="34.832508087">
<ele>381.617188</ele>
<time>2013-11-19T11:37:29Z</time>
<speed>3.220000</speed>
<extensions>
<speed>3.2</speed>
<temp>0.00</temp>
<bpm>0</bpm>
<rpm>0.00</rpm>
</extensions>
</trkpt>
<trkpt lat="31.060161591" lon="34.832527161">
<ele>382.765625</ele>
<time>2013-11-19T11:37:34Z</time>
<speed>1.890000</speed>
<extensions>
<speed>1.9</speed>
<temp>0.00</temp>
<bpm>0</bpm>
<rpm>0.00</rpm>
</extensions>
</trkpt>
<trkpt lat="31.060060501" lon="34.832500458">
<ele>383.242188</ele>
<time>2013-11-19T11:37:39Z</time>
<speed>2.710000</speed>
<extensions>
<speed>2.7</speed>
<temp>0.00</temp>
<bpm>0</bpm>
<rpm>0.00</rpm>
</extensions>
</trkpt>
<trkpt lat="31.059940338" lon="34.832405090">
<ele>383.601563</ele>
<time>2013-11-19T11:37:44Z</time>
<speed>3.410000</speed>
<extensions>
<speed>3.4</speed>
<temp>0.00</temp>
<bpm>0</bpm>
<rpm>0.00</rpm>
</extensions>
</trkpt>
<trkpt lat="31.059808731" lon="34.832294464">
<ele>384.296875</ele>
<time>2013-11-19T11:37:49Z</time>
<speed>3.910000</speed>
<extensions>
<speed>3.9</speed>
<temp>0.00</temp>
<bpm>0</bpm>
<rpm>0.00</rpm>
</extensions>
</trkpt>
<trkpt lat="31.059659958" lon="34.832157135">
<ele>384.726563</ele>
<time>2013-11-19T11:37:54Z</time>
<speed>3.500000</speed>
<extensions>
<speed>3.5</speed>
<temp>0.00</temp>
<bpm>0</bpm>
<rpm>0.00</rpm>
</extensions>
</trkpt>
<trkpt lat="31.059524536" lon="34.832042694">
<ele>385.335938</ele>
<time>2013-11-19T11:37:59Z</time>
<speed>3.820000</speed>
<extensions>
<speed>3.8</speed>
<temp>0.00</temp>
<bpm>0</bpm>
<rpm>0.00</rpm>
</extensions>
</trkpt>
<trkpt lat="31.059391022" lon="34.831951141">
<ele>385.359375</ele>
<time>2013-11-19T11:38:04Z</time>
<speed>2.610000</speed>
<extensions>
<speed>2.6</speed>
<temp>0.00</temp>
<bpm>0</bpm>
<rpm>0.00</rpm>
</extensions>
</trkpt>
<trkpt lat="31.059255600" lon="34.831878662">
<ele>385.617188</ele>
<time>2013-11-19T11:38:09Z</time>
<speed>3.680000</speed>
<extensions>
<speed>3.7</speed>
<temp>0.00</temp>
<bpm>0</bpm>
<rpm>0.00</rpm>
</extensions>
</trkpt>
<trkpt lat="31.059114456" lon="34.831840515">
<ele>386.070313</ele>
<time>2013-11-19T11:38:14Z</time>
<speed>2.600000</speed>
<extensions>
<speed>2.6</speed>
<temp>0.00</temp>
<bpm>0</bpm>
<rpm>0.00</rpm>
</extensions>
</trkpt>
<trkpt lat="31.058980942" lon="34.831821442">
<ele>386.828125</ele>
<time>2013-11-19T11:38:19Z</time>
<speed>3.240000</speed>
<extensions>
<speed>3.2</speed>
<temp>0.00</temp>
<bpm>0</bpm>
<rpm>0.00</rpm>
</extensions>
</trkpt>
<trkpt lat="31.058830261" lon="34.831817627">
<ele>387.195313</ele>
<time>2013-11-19T11:38:24Z</time>
<speed>3.480000</speed>
<extensions>
<speed>3.5</speed>
<temp>0.00</temp>
<bpm>0</bpm>
<rpm>0.00</rpm>
</extensions>
</trkpt>
<trkpt lat="31.058673859" lon="34.831798553">
<ele>387.867188</ele>
<time>2013-11-19T11:38:29Z</time>
<speed>3.870000</speed>
<extensions>
<speed>3.9</speed>
<temp>0.00</temp>
<bpm>0</bpm>
<rpm>0.00</rpm>
</extensions>
</trkpt>
<trkpt lat="31.058507919" lon="34.831783295">
<ele>388.656250</ele>
<time>2013-11-19T11:38:34Z</time>
<speed>2.960000</speed>
<extensions>
<speed>3.0</speed>
<temp>0.00</temp>
<bpm>0</bpm>
<rpm>0.00</rpm>
</extensions>
</trkpt>
<trkpt lat="31.058364868" lon="34.831783295">
<ele>389.070313</ele>
<time>2013-11-19T11:38:39Z</time>
<speed>3.920000</speed>
<extensions>
<speed>3.9</speed>
<temp>0.00</temp>
<bpm>0</bpm>
<rpm>0.00</rpm>
</extensions>
</trkpt>
<trkpt lat="31.058202744" lon="34.831794739">
<ele>389.703125</ele>
<time>2013-11-19T11:38:44Z</time>
<speed>3.140000</speed>
<extensions>
<speed>3.1</speed>
<temp>0.00</temp>
<bpm>0</bpm>
<rpm>0.00</rpm>
</extensions>
</trkpt>
<trkpt lat="31.058050156" lon="34.831821442">
<ele>390.359375</ele>
<time>2013-11-19T11:38:49Z</time>
<speed>3.640000</speed>
<extensions>
<speed>3.6</speed>
<temp>0.00</temp>
<bpm>0</bpm>
<rpm>0.00</rpm>
</extensions>
</trkpt>
<trkpt lat="31.057872772" lon="34.831867218">
<ele>391.531250</ele>
<time>2013-11-19T11:38:54Z</time>
<speed>4.020000</speed>
<extensions>
<speed>4.0</speed>
<temp>0.00</temp>
<bpm>0</bpm>
<rpm>0.00</rpm>
</extensions>
</trkpt>
<trkpt lat="31.057716370" lon="34.831905365">
<ele>392.570313</ele>
<time>2013-11-19T11:38:59Z</time>
<speed>3.050000</speed>
<extensions>
<speed>3.0</speed>
<temp>0.00</temp>
<bpm>0</bpm>
<rpm>0.00</rpm>
</extensions>
</trkpt>
<trkpt lat="31.057571411" lon="34.831939697">
<ele>393.382813</ele>
<time>2013-11-19T11:39:04Z</time>
<speed>3.810000</speed>
<extensions>
<speed>3.8</speed>
<temp>0.00</temp>
<bpm>0</bpm>
<rpm>0.00</rpm>
</extensions>
</trkpt>
<trkpt lat="31.057411194" lon="34.831962585">
<ele>393.898438</ele>
<time>2013-11-19T11:39:09Z</time>
<speed>3.220000</speed>
<extensions>
<speed>3.2</speed>
<temp>0.00</temp>
<bpm>0</bpm>
<rpm>0.00</rpm>
</extensions>
</trkpt>
<trkpt lat="31.057256699" lon="34.831977844">
<ele>394.515625</ele>
<time>2013-11-19T11:39:14Z</time>
<speed>3.750000</speed>
<extensions>
<speed>3.8</speed>
<temp>0.00</temp>
<bpm>0</bpm>
<rpm>0.00</rpm>
</extensions>
</trkpt>
<trkpt lat="31.057104111" lon="34.831966400">
<ele>395.171875</ele>
<time>2013-11-19T11:39:19Z</time>
<speed>3.630000</speed>
<extensions>
<speed>3.6</speed>
<temp>0.00</temp>
<bpm>0</bpm>
<rpm>0.00</rpm>
</extensions>
</trkpt>
<trkpt lat="31.056949615" lon="34.831943512">
<ele>396.289063</ele>
<time>2013-11-19T11:39:24Z</time>
<speed>3.030000</speed>
<extensions>
<speed>3.0</speed>
<temp>0.00</temp>
<bpm>0</bpm>
<rpm>0.00</rpm>
</extensions>
</trkpt>
<trkpt lat="31.056781769" lon="34.831878662">
<ele>396.765625</ele>
<time>2013-11-19T11:39:29Z</time>
<speed>3.920000</speed>
<extensions>
<speed>3.9</speed>
<temp>0.00</temp>
<bpm>0</bpm>
<rpm>0.00</rpm>
</extensions>
</trkpt>
<trkpt lat="31.056604385" lon="34.831802368">
<ele>397.257813</ele>
<time>2013-11-19T11:39:34Z</time>
<speed>3.980000</speed>
<extensions>
<speed>4.0</speed>
<temp>0.00</temp>
<bpm>0</bpm>
<rpm>0.00</rpm>
</extensions>
</trkpt>
<trkpt lat="31.056442261" lon="34.831745148">
<ele>397.453125</ele>
<time>2013-11-19T11:39:39Z</time>
<speed>3.810000</speed>
<extensions>
<speed>3.8</speed>
<temp>0.00</temp>
<bpm>0</bpm>
<rpm>0.00</rpm>
</extensions>
</trkpt>
<trkpt lat="31.056257248" lon="34.831672668">
<ele>397.609375</ele>
<time>2013-11-19T11:39:44Z</time>
<speed>4.060000</speed>
<extensions>
<speed>4.1</speed>
<temp>0.00</temp>
<bpm>0</bpm>
<rpm>0.00</rpm>
</extensions>
</trkpt>
<trkpt lat="31.056097031" lon="34.831611633">
<ele>397.945313</ele>
<time>2013-11-19T11:39:49Z</time>
<speed>3.540000</speed>
<extensions>
<speed>3.5</speed>
<temp>0.00</temp>
<bpm>0</bpm>
<rpm>0.00</rpm>
</extensions>
</trkpt>
<trkpt lat="31.055925369" lon="34.831531525">
<ele>397.867188</ele>
<time>2013-11-19T11:39:54Z</time>
<speed>4.150000</speed>
<extensions>
<speed>4.1</speed>
<temp>0.00</temp>
<bpm>0</bpm>
<rpm>0.00</rpm>
</extensions>
</trkpt>
<trkpt lat="31.055780411" lon="34.831432343">
<ele>397.765625</ele>
<time>2013-11-19T11:39:59Z</time>
<speed>2.710000</speed>
<extensions>
<speed>2.7</speed>
<temp>0.00</temp>
<bpm>0</bpm>
<rpm>0.00</rpm>
</extensions>
</trkpt>
<trkpt lat="31.055700302" lon="34.831375122">
<ele>397.546875</ele>
<time>2013-11-19T11:40:04Z</time>
<speed>2.200000</speed>
<extensions>
<speed>2.2</speed>
<temp>0.00</temp>
<bpm>0</bpm>
<rpm>0.00</rpm>
</extensions>
</trkpt>
<trkpt lat="31.055616379" lon="34.831298828">
<ele>397.406250</ele>
<time>2013-11-19T11:40:09Z</time>
<speed>1.770000</speed>
<extensions>
<speed>1.8</speed>
<temp>0.00</temp>
<bpm>0</bpm>
<rpm>0.00</rpm>
</extensions>
</trkpt>
<trkpt lat="31.055553436" lon="34.831241608">
<ele>397.328125</ele>
<time>2013-11-19T11:40:14Z</time>
<speed>2.380000</speed>
<extensions>
<speed>2.4</speed>
<temp>0.00</temp>
<bpm>0</bpm>
<rpm>0.00</rpm>
</extensions>
</trkpt>
<trkpt lat="31.055444717" lon="34.831157684">
<ele>397.460938</ele>
<time>2013-11-19T11:40:19Z</time>
<speed>3.040000</speed>
<extensions>
<speed>3.0</speed>
<temp>0.00</temp>
<bpm>0</bpm>
<rpm>0.00</rpm>
</extensions>
</trkpt>
<trkpt lat="31.055360794" lon="34.831073761">
<ele>397.312500</ele>
<time>2013-11-19T11:40:24Z</time>
<speed>1.850000</speed>
<extensions>
<speed>1.8</speed>
<temp>0.00</temp>
<bpm>0</bpm>
<rpm>0.00</rpm>
</extensions>
</trkpt>
<trkpt lat="31.055284500" lon="34.831001282">
<ele>397.320313</ele>
<time>2013-11-19T11:40:29Z</time>
<speed>2.760000</speed>
<extensions>
<speed>2.8</speed>
<temp>0.00</temp>
<bpm>0</bpm>
<rpm>0.00</rpm>
</extensions>
</trkpt>
<trkpt lat="31.055170059" lon="34.830905914">
<ele>397.734375</ele>
<time>2013-11-19T11:40:34Z</time>
<speed>3.000000</speed>
<extensions>
<speed>3.0</speed>
<temp>0.00</temp>
<bpm>0</bpm>
<rpm>0.00</rpm>
</extensions>
</trkpt>
<trkpt lat="31.055068970" lon="34.830818176">
<ele>398.148438</ele>
<time>2013-11-19T11:40:39Z</time>
<speed>3.150000</speed>
<extensions>
<speed>3.2</speed>
<temp>0.00</temp>
<bpm>0</bpm>
<rpm>0.00</rpm>
</extensions>
</trkpt>
<trkpt lat="31.054931641" lon="34.830707550">
<ele>398.890625</ele>
<time>2013-11-19T11:40:44Z</time>
<speed>3.560000</speed>
<extensions>
<speed>3.6</speed>
<temp>0.00</temp>
<bpm>0</bpm>
<rpm>0.00</rpm>
</extensions>
</trkpt>
<trkpt lat="31.054834366" lon="34.830589294">
<ele>399.296875</ele>
<time>2013-11-19T11:40:49Z</time>
<speed>2.820000</speed>
<extensions>
<speed>2.8</speed>
<temp>0.00</temp>
<bpm>0</bpm>
<rpm>0.00</rpm>
</extensions>
</trkpt>
<trkpt lat="31.054744720" lon="34.830490112">
<ele>399.687500</ele>
<time>2013-11-19T11:40:54Z</time>
<speed>2.560000</speed>
<extensions>
<speed>2.6</speed>
<temp>0.00</temp>
<bpm>0</bpm>
<rpm>0.00</rpm>
</extensions>
</trkpt>
<trkpt lat="31.054656982" lon="34.830394745">
<ele>399.976563</ele>
<time>2013-11-19T11:40:59Z</time>
<speed>3.270000</speed>
<extensions>
<speed>3.3</speed>
<temp>0.00</temp>
<bpm>0</bpm>
<rpm>0.00</rpm>
</extensions>
</trkpt>
<trkpt lat="31.054534912" lon="34.830268860">
<ele>400.500000</ele>
<time>2013-11-19T11:41:04Z</time>
<speed>4.090000</speed>
<extensions>
<speed>4.1</speed>
<temp>0.00</temp>
<bpm>0</bpm>
<rpm>0.00</rpm>
</extensions>
</trkpt>
<trkpt lat="31.054418564" lon="34.830085754">
<ele>400.914063</ele>
<time>2013-11-19T11:41:09Z</time>
<speed>4.220000</speed>
<extensions>
<speed>4.2</speed>
<temp>0.00</temp>
<bpm>0</bpm>
<rpm>0.00</rpm>
</extensions>
</trkpt>
<trkpt lat="31.054346085" lon="34.829914093">
<ele>400.953125</ele>
<time>2013-11-19T11:41:14Z</time>
<speed>3.440000</speed>
<extensions>
<speed>3.4</speed>
<temp>0.00</temp>
<bpm>0</bpm>
<rpm>0.00</rpm>
</extensions>
</trkpt>
<trkpt lat="31.054256439" lon="34.829788208">
<ele>401.234375</ele>
<time>2013-11-19T11:41:19Z</time>
<speed>3.520000</speed>
<extensions>
<speed>3.5</speed>
<temp>0.00</temp>
<bpm>0</bpm>
<rpm>0.00</rpm>
</extensions>
</trkpt>
<trkpt lat="31.054187775" lon="34.829589844">
<ele>401.296875</ele>
<time>2013-11-19T11:41:24Z</time>
<speed>4.140000</speed>
<extensions>
<speed>4.1</speed>
<temp>0.00</temp>
<bpm>0</bpm>
<rpm>0.00</rpm>
</extensions>
</trkpt>
<trkpt lat="31.054090500" lon="34.829387665">
<ele>401.085938</ele>
<time>2013-11-19T11:41:29Z</time>
<speed>4.850000</speed>
<extensions>
<speed>4.8</speed>
<temp>0.00</temp>
<bpm>0</bpm>
<rpm>0.00</rpm>
</extensions>
</trkpt>
<trkpt lat="31.053979874" lon="34.829177856">
<ele>400.953125</ele>
<time>2013-11-19T11:41:34Z</time>
<speed>4.610000</speed>
<extensions>
<speed>4.6</speed>
<temp>0.00</temp>
<bpm>0</bpm>
<rpm>0.00</rpm>
</extensions>
</trkpt>
<trkpt lat="31.053842545" lon="34.828987122">
<ele>400.835938</ele>
<time>2013-11-19T11:41:39Z</time>
<speed>4.700000</speed>
<extensions>
<speed>4.7</speed>
<temp>0.00</temp>
<bpm>0</bpm>
<rpm>0.00</rpm>
</extensions>
</trkpt>
<trkpt lat="31.053697586" lon="34.828800201">
<ele>400.718750</ele>
<time>2013-11-19T11:41:44Z</time>
<speed>4.800000</speed>
<extensions>
<speed>4.8</speed>
<temp>0.00</temp>
<bpm>0</bpm>
<rpm>0.00</rpm>
</extensions>
</trkpt>
<trkpt lat="31.053546906" lon="34.828613281">
<ele>401.851563</ele>
<time>2013-11-19T11:41:49Z</time>
<speed>4.650000</speed>
<extensions>
<speed>4.6</speed>
<temp>0.00</temp>
<bpm>0</bpm>
<rpm>0.00</rpm>
</extensions>
</trkpt>
<trkpt lat="31.053401947" lon="34.828411102">
<ele>402.351563</ele>
<time>2013-11-19T11:41:54Z</time>
<speed>4.590000</speed>
<extensions>
<speed>4.6</speed>
<temp>0.00</temp>
<bpm>0</bpm>
<rpm>0.00</rpm>
</extensions>
</trkpt>
<trkpt lat="31.053255081" lon="34.828178406">
<ele>401.273438</ele>
<time>2013-11-19T11:41:59Z</time>
<speed>6.170000</speed>
<extensions>
<speed>6.2</speed>
<temp>0.00</temp>
<bpm>0</bpm>
<rpm>0.00</rpm>
</extensions>
</trkpt>
<trkpt lat="31.053115845" lon="34.827884674">
<ele>400.562500</ele>
<time>2013-11-19T11:42:04Z</time>
<speed>6.790000</speed>
<extensions>
<speed>6.8</speed>
<temp>0.00</temp>
<bpm>0</bpm>
<rpm>0.00</rpm>
</extensions>
</trkpt>
<trkpt lat="31.052967072" lon="34.827560425">
<ele>399.539063</ele>
<time>2013-11-19T11:42:09Z</time>
<speed>6.960000</speed>
<extensions>
<speed>7.0</speed>
<temp>0.00</temp>
<bpm>0</bpm>
<rpm>0.00</rpm>
</extensions>
</trkpt>
<trkpt lat="31.052824020" lon="34.827236176">
<ele>399.242188</ele>
<time>2013-11-19T11:42:14Z</time>
<speed>6.880000</speed>
<extensions>
<speed>6.9</speed>
<temp>0.00</temp>
<bpm>0</bpm>
<rpm>0.00</rpm>
</extensions>
</trkpt>
<trkpt lat="31.052684784" lon="34.826915741">
<ele>398.929688</ele>
<time>2013-11-19T11:42:19Z</time>
<speed>6.870000</speed>
<extensions>
<speed>6.9</speed>
<temp>0.00</temp>
<bpm>0</bpm>
<rpm>0.00</rpm>
</extensions>
</trkpt>
<trkpt lat="31.052516937" lon="34.826622009">
<ele>398.296875</ele>
<time>2013-11-19T11:42:24Z</time>
<speed>6.780000</speed>
<extensions>
<speed>6.8</speed>
<temp>0.00</temp>
<bpm>0</bpm>
<rpm>0.00</rpm>
</extensions>
</trkpt>
<trkpt lat="31.052349091" lon="34.826335907">
<ele>397.765625</ele>
<time>2013-11-19T11:42:29Z</time>
<speed>6.170000</speed>
<extensions>
<speed>6.2</speed>
<temp>0.00</temp>
<bpm>0</bpm>
<rpm>0.00</rpm>
</extensions>
</trkpt>
<trkpt lat="31.052196503" lon="34.826084137">
<ele>397.492188</ele>
<time>2013-11-19T11:42:34Z</time>
<speed>5.800000</speed>
<extensions>
<speed>5.8</speed>
<temp>0.00</temp>
<bpm>0</bpm>
<rpm>0.00</rpm>
</extensions>
</trkpt>
<trkpt lat="31.052066803" lon="34.825798035">
<ele>397.492188</ele>
<time>2013-11-19T11:42:39Z</time>
<speed>6.380000</speed>
<extensions>
<speed>6.4</speed>
<temp>0.00</temp>
<bpm>0</bpm>
<rpm>0.00</rpm>
</extensions>
</trkpt>
<trkpt lat="31.051956177" lon="34.825527191">
<ele>397.882813</ele>
<time>2013-11-19T11:42:44Z</time>
<speed>5.160000</speed>
<extensions>
<speed>5.2</speed>
<temp>0.00</temp>
<bpm>0</bpm>
<rpm>0.00</rpm>
</extensions>
</trkpt>
<trkpt lat="31.051864624" lon="34.825298309">
<ele>398.359375</ele>
<time>2013-11-19T11:42:49Z</time>
<speed>4.340000</speed>
<extensions>
<speed>4.3</speed>
<temp>0.00</temp>
<bpm>0</bpm>
<rpm>0.00</rpm>
</extensions>
</trkpt>
<trkpt lat="31.051723480" lon="34.825119019">
<ele>398.007813</ele>
<time>2013-11-19T11:42:54Z</time>
<speed>5.160000</speed>
<extensions>
<speed>5.2</speed>
<temp>0.00</temp>
<bpm>0</bpm>
<rpm>0.00</rpm>
</extensions>
</trkpt>
<trkpt lat="31.051555634" lon="34.824932098">
<ele>398.476563</ele>
<time>2013-11-19T11:42:59Z</time>
<speed>5.070000</speed>
<extensions>
<speed>5.1</speed>
<temp>0.00</temp>
<bpm>0</bpm>
<rpm>0.00</rpm>
</extensions>
</trkpt>
<trkpt lat="31.051342010" lon="34.824802399">
<ele>398.210938</ele>
<time>2013-11-19T11:43:04Z</time>
<speed>5.290000</speed>
<extensions>
<speed>5.3</speed>
<temp>0.00</temp>
<bpm>0</bpm>
<rpm>0.00</rpm>
</extensions>
</trkpt>
<trkpt lat="31.051128387" lon="34.824638367">
<ele>398.039063</ele>
<time>2013-11-19T11:43:09Z</time>
<speed>5.720000</speed>
<extensions>
<speed>5.7</speed>
<temp>0.00</temp>
<bpm>0</bpm>
<rpm>0.00</rpm>
</extensions>
</trkpt>
<trkpt lat="31.050897598" lon="34.824489594">
<ele>397.492188</ele>
<time>2013-11-19T11:43:14Z</time>
<speed>5.480000</speed>
<extensions>
<speed>5.5</speed>
<temp>0.00</temp>
<bpm>0</bpm>
<rpm>0.00</rpm>
</extensions>
</trkpt>
<trkpt lat="31.050689697" lon="34.824348450">
<ele>397.234375</ele>
<time>2013-11-19T11:43:19Z</time>
<speed>5.310000</speed>
<extensions>
<speed>5.3</speed>
<temp>0.00</temp>
<bpm>0</bpm>
<rpm>0.00</rpm>
</extensions>
</trkpt>
<trkpt lat="31.050533295" lon="34.824119568">
<ele>397.164063</ele>
<time>2013-11-19T11:43:24Z</time>
<speed>5.690000</speed>
<extensions>
<speed>5.7</speed>
<temp>0.00</temp>
<bpm>0</bpm>
<rpm>0.00</rpm>
</extensions>
</trkpt>
<trkpt lat="31.050411224" lon="34.823856354">
<ele>397.281250</ele>
<time>2013-11-19T11:43:29Z</time>
<speed>6.190000</speed>
<extensions>
<speed>6.2</speed>
<temp>0.00</temp>
<bpm>0</bpm>
<rpm>0.00</rpm>
</extensions>
</trkpt>
<trkpt lat="31.050258636" lon="34.823593140">
<ele>397.078125</ele>
<time>2013-11-19T11:43:34Z</time>
<speed>6.310000</speed>
<extensions>
<speed>6.3</speed>
<temp>0.00</temp>
<bpm>0</bpm>
<rpm>0.00</rpm>
</extensions>
</trkpt>
<trkpt lat="31.050033569" lon="34.823371887">
<ele>396.773438</ele>
<time>2013-11-19T11:43:39Z</time>
<speed>6.610000</speed>
<extensions>
<speed>6.6</speed>
<temp>0.00</temp>
<bpm>0</bpm>
<rpm>0.00</rpm>
</extensions>
</trkpt>
<trkpt lat="31.049804688" lon="34.823104858">
<ele>395.296875</ele>
<time>2013-11-19T11:43:44Z</time>
<speed>7.740000</speed>
<extensions>
<speed>7.7</speed>
<temp>0.00</temp>
<bpm>0</bpm>
<rpm>0.00</rpm>
</extensions>
</trkpt>
<trkpt lat="31.049568176" lon="34.822784424">
<ele>394.398438</ele>
<time>2013-11-19T11:43:49Z</time>
<speed>8.230000</speed>
<extensions>
<speed>8.2</speed>
<temp>0.00</temp>
<bpm>0</bpm>
<rpm>0.00</rpm>
</extensions>
</trkpt>
<trkpt lat="31.049350739" lon="34.822444916">
<ele>393.882813</ele>
<time>2013-11-19T11:43:54Z</time>
<speed>7.930000</speed>
<extensions>
<speed>7.9</speed>
<temp>0.00</temp>
<bpm>0</bpm>
<rpm>0.00</rpm>
</extensions>
</trkpt>
<trkpt lat="31.049121857" lon="34.822151184">
<ele>393.390625</ele>
<time>2013-11-19T11:43:59Z</time>
<speed>7.340000</speed>
<extensions>
<speed>7.3</speed>
<temp>0.00</temp>
<bpm>0</bpm>
<rpm>0.00</rpm>
</extensions>
</trkpt>
<trkpt lat="31.048843384" lon="34.821884155">
<ele>391.750000</ele>
<time>2013-11-19T11:44:04Z</time>
<speed>8.210000</speed>
<extensions>
<speed>8.2</speed>
<temp>0.00</temp>
<bpm>0</bpm>
<rpm>0.00</rpm>
</extensions>
</trkpt>
<trkpt lat="31.048570633" lon="34.821613312">
<ele>391.671875</ele>
<time>2013-11-19T11:44:09Z</time>
<speed>7.490000</speed>
<extensions>
<speed>7.5</speed>
<temp>0.00</temp>
<bpm>0</bpm>
<rpm>0.00</rpm>
</extensions>
</trkpt>
<trkpt lat="31.048355103" lon="34.821338654">
<ele>391.781250</ele>
<time>2013-11-19T11:44:14Z</time>
<speed>6.670000</speed>
<extensions>
<speed>6.7</speed>
<temp>0.00</temp>
<bpm>0</bpm>
<rpm>0.00</rpm>
</extensions>
</trkpt>
<trkpt lat="31.048173904" lon="34.821094513">
<ele>392.398438</ele>
<time>2013-11-19T11:44:19Z</time>
<speed>5.700000</speed>
<extensions>
<speed>5.7</speed>
<temp>0.00</temp>
<bpm>0</bpm>
<rpm>0.00</rpm>
</extensions>
</trkpt>
<trkpt lat="31.048019409" lon="34.820865631">
<ele>393.062500</ele>
<time>2013-11-19T11:44:24Z</time>
<speed>5.640000</speed>
<extensions>
<speed>5.6</speed>
<temp>0.00</temp>
<bpm>0</bpm>
<rpm>0.00</rpm>
</extensions>
</trkpt>
<trkpt lat="31.047851563" lon="34.820625305">
<ele>392.937500</ele>
<time>2013-11-19T11:44:29Z</time>
<speed>6.260000</speed>
<extensions>
<speed>6.3</speed>
<temp>0.00</temp>
<bpm>0</bpm>
<rpm>0.00</rpm>
</extensions>
</trkpt>
<trkpt lat="31.047687531" lon="34.820312500">
<ele>391.359375</ele>
<time>2013-11-19T11:44:34Z</time>
<speed>7.870000</speed>
<extensions>
<speed>7.9</speed>
<temp>0.00</temp>
<bpm>0</bpm>
<rpm>0.00</rpm>
</extensions>
</trkpt>
<trkpt lat="31.047483444" lon="34.819931030">
<ele>389.085938</ele>
<time>2013-11-19T11:44:39Z</time>
<speed>9.610000</speed>
<extensions>
<speed>9.6</speed>
<temp>0.00</temp>
<bpm>0</bpm>
<rpm>0.00</rpm>
</extensions>
</trkpt>
<trkpt lat="31.047277451" lon="34.819503784">
<ele>388.250000</ele>
<time>2013-11-19T11:44:44Z</time>
<speed>9.240000</speed>
<extensions>
<speed>9.2</speed>
<temp>0.00</temp>
<bpm>0</bpm>
<rpm>0.00</rpm>
</extensions>
</trkpt>
<trkpt lat="31.047111511" lon="34.819057465">
<ele>387.859375</ele>
<time>2013-11-19T11:44:49Z</time>
<speed>8.780000</speed>
<extensions>
<speed>8.8</speed>
<temp>0.00</temp>
<bpm>0</bpm>
<rpm>0.00</rpm>
</extensions>
</trkpt>
<trkpt lat="31.046939850" lon="34.818656921">
<ele>387.039063</ele>
<time>2013-11-19T11:44:54Z</time>
<speed>8.950000</speed>
<extensions>
<speed>9.0</speed>
<temp>0.00</temp>
<bpm>0</bpm>
<rpm>0.00</rpm>
</extensions>
</trkpt>
<trkpt lat="31.046674728" lon="34.818279266">
<ele>385.742188</ele>
<time>2013-11-19T11:44:59Z</time>
<speed>9.350000</speed>
<extensions>
<speed>9.3</speed>
<temp>0.00</temp>
<bpm>0</bpm>
<rpm>0.00</rpm>
</extensions>
</trkpt>
<trkpt lat="31.046407700" lon="34.817905426">
<ele>385.390625</ele>
<time>2013-11-19T11:45:04Z</time>
<speed>9.120000</speed>
<extensions>
<speed>9.1</speed>
<temp>0.00</temp>
<bpm>0</bpm>
<rpm>0.00</rpm>
</extensions>
</trkpt>
<trkpt lat="31.046175003" lon="34.817554474">
<ele>385.640625</ele>
<time>2013-11-19T11:45:09Z</time>
<speed>7.960000</speed>
<extensions>
<speed>8.0</speed>
<temp>0.00</temp>
<bpm>0</bpm>
<rpm>0.00</rpm>
</extensions>
</trkpt>
<trkpt lat="31.045986176" lon="34.817237854">
<ele>386.031250</ele>
<time>2013-11-19T11:45:14Z</time>
<speed>6.880000</speed>
<extensions>
<speed>6.9</speed>
<temp>0.00</temp>
<bpm>0</bpm>
<rpm>0.00</rpm>
</extensions>
</trkpt>
<trkpt lat="31.045806885" lon="34.816970825">
<ele>386.429688</ele>
<time>2013-11-19T11:45:19Z</time>
<speed>6.380000</speed>
<extensions>
<speed>6.4</speed>
<temp>0.00</temp>
<bpm>0</bpm>
<rpm>0.00</rpm>
</extensions>
</trkpt>
<trkpt lat="31.045621872" lon="34.816692352">
<ele>385.695313</ele>
<time>2013-11-19T11:45:24Z</time>
<speed>6.990000</speed>
<extensions>
<speed>7.0</speed>
<temp>0.00</temp>
<bpm>0</bpm>
<rpm>0.00</rpm>
</extensions>
</trkpt>
<trkpt lat="31.045406342" lon="34.816413879">
<ele>385.195313</ele>
<time>2013-11-19T11:45:29Z</time>
<speed>7.220000</speed>
<extensions>
<speed>7.2</speed>
<temp>0.00</temp>
<bpm>0</bpm>
<rpm>0.00</rpm>
</extensions>
</trkpt>
<trkpt lat="31.045209885" lon="34.816123962">
<ele>385.226563</ele>
<time>2013-11-19T11:45:34Z</time>
<speed>6.600000</speed>
<extensions>
<speed>6.6</speed>
<temp>0.00</temp>
<bpm>0</bpm>
<rpm>0.00</rpm>
</extensions>
</trkpt>
<trkpt lat="31.045003891" lon="34.815856934">
<ele>385.875000</ele>
<time>2013-11-19T11:45:39Z</time>
<speed>6.740000</speed>
<extensions>
<speed>6.7</speed>
<temp>0.00</temp>
<bpm>0</bpm>
<rpm>0.00</rpm>
</extensions>
</trkpt>
<trkpt lat="31.044788361" lon="34.815631866">
<ele>387.250000</ele>
<time>2013-11-19T11:45:44Z</time>
<speed>6.210000</speed>
<extensions>
<speed>6.2</speed>
<temp>0.00</temp>
<bpm>0</bpm>
<rpm>0.00</rpm>
</extensions>
</trkpt>
<trkpt lat="31.044589996" lon="34.815471649">
<ele>388.265625</ele>
<time>2013-11-19T11:45:49Z</time>
<speed>4.680000</speed>
<extensions>
<speed>4.7</speed>
<temp>0.00</temp>
<bpm>0</bpm>
<rpm>0.00</rpm>
</extensions>
</trkpt>
<trkpt lat="31.044393539" lon="34.815330505">
<ele>388.273438</ele>
<time>2013-11-19T11:45:54Z</time>
<speed>5.670000</speed>
<extensions>
<speed>5.7</speed>
<temp>0.00</temp>
<bpm>0</bpm>
<rpm>0.00</rpm>
</extensions>
</trkpt>
<trkpt lat="31.044168472" lon="34.815193176">
<ele>387.750000</ele>
<time>2013-11-19T11:45:59Z</time>
<speed>5.410000</speed>
<extensions>
<speed>5.4</speed>
<temp>0.00</temp>
<bpm>0</bpm>
<rpm>0.00</rpm>
</extensions>
</trkpt>
<trkpt lat="31.043947220" lon="34.814998627">
<ele>387.054688</ele>
<time>2013-11-19T11:46:04Z</time>
<speed>6.630000</speed>
<extensions>
<speed>6.6</speed>
<temp>0.00</temp>
<bpm>0</bpm>
<rpm>0.00</rpm>
</extensions>
</trkpt>
<trkpt lat="31.043706894" lon="34.814735413">
<ele>386.382813</ele>
<time>2013-11-19T11:46:09Z</time>
<speed>7.410000</speed>
<extensions>
<speed>7.4</speed>
<temp>0.00</temp>
<bpm>0</bpm>
<rpm>0.00</rpm>
</extensions>
</trkpt>
<trkpt lat="31.043455124" lon="34.814487457">
<ele>386.835938</ele>
<time>2013-11-19T11:46:14Z</time>
<speed>7.110000</speed>
<extensions>
<speed>7.1</speed>
<temp>0.00</temp>
<bpm>0</bpm>
<rpm>0.00</rpm>
</extensions>
</trkpt>
<trkpt lat="31.043214798" lon="34.814235687">
<ele>386.953125</ele>
<time>2013-11-19T11:46:19Z</time>
<speed>7.420000</speed>
<extensions>
<speed>7.4</speed>
<temp>0.00</temp>
<bpm>0</bpm>
<rpm>0.00</rpm>
</extensions>
</trkpt>
<trkpt lat="31.042987823" lon="34.813938141">
<ele>386.070313</ele>
<time>2013-11-19T11:46:24Z</time>
<speed>7.760000</speed>
<extensions>
<speed>7.8</speed>
<temp>0.00</temp>
<bpm>0</bpm>
<rpm>0.00</rpm>
</extensions>
</trkpt>
<trkpt lat="31.042734146" lon="34.813636780">
<ele>385.062500</ele>
<time>2013-11-19T11:46:29Z</time>
<speed>8.230000</speed>
<extensions>
<speed>8.2</speed>
<temp>0.00</temp>
<bpm>0</bpm>
<rpm>0.00</rpm>
</extensions>
</trkpt>
<trkpt lat="31.042474747" lon="34.813327789">
<ele>384.554688</ele>
<time>2013-11-19T11:46:34Z</time>
<speed>8.100000</speed>
<extensions>
<speed>8.1</speed>
<temp>0.00</temp>
<bpm>0</bpm>
<rpm>0.00</rpm>
</extensions>
</trkpt>
<trkpt lat="31.042236328" lon="34.813011169">
<ele>384.132813</ele>
<time>2013-11-19T11:46:39Z</time>
<speed>8.240000</speed>
<extensions>
<speed>8.2</speed>
<temp>0.00</temp>
<bpm>0</bpm>
<rpm>0.00</rpm>
</extensions>
</trkpt>
<trkpt lat="31.041980743" lon="34.812686920">
<ele>382.812500</ele>
<time>2013-11-19T11:46:44Z</time>
<speed>8.610000</speed>
<extensions>
<speed>8.6</speed>
<temp>0.00</temp>
<bpm>0</bpm>
<rpm>0.00</rpm>
</extensions>
</trkpt>
<trkpt lat="31.041727066" lon="34.812351227">
<ele>382.398438</ele>
<time>2013-11-19T11:46:49Z</time>
<speed>8.460000</speed>
<extensions>
<speed>8.5</speed>
<temp>0.00</temp>
<bpm>0</bpm>
<rpm>0.00</rpm>
</extensions>
</trkpt>
<trkpt lat="31.041522980" lon="34.812099457">
<ele>382.406250</ele>
<time>2013-11-19T11:46:54Z</time>
<speed>4.540000</speed>
<extensions>
<speed>4.5</speed>
<temp>0.00</temp>
<bpm>0</bpm>
<rpm>0.00</rpm>
</extensions>
</trkpt>
<trkpt lat="31.041416168" lon="34.811950684">
<ele>382.507813</ele>
<time>2013-11-19T11:46:59Z</time>
<speed>2.810000</speed>
<extensions>
<speed>2.8</speed>
<temp>0.00</temp>
<bpm>0</bpm>
<rpm>0.00</rpm>
</extensions>
</trkpt>
<trkpt lat="31.041395187" lon="34.811939240">
<ele>380.625000</ele>
<time>2013-11-19T11:47:04Z</time>
<speed>0.020000</speed>
<extensions>
<speed>0.0</speed>
<temp>0.00</temp>
<bpm>0</bpm>
<rpm>0.00</rpm>
</extensions>
</trkpt>
<trkpt lat="31.041395187" lon="34.811939240">
<ele>380.578125</ele>
<time>2013-11-19T11:47:09Z</time>
<speed>0.010000</speed>
<extensions>
<speed>0.0</speed>
<temp>0.00</temp>
<bpm>0</bpm>
<rpm>0.00</rpm>
</extensions>
</trkpt>
<trkpt lat="31.041395187" lon="34.811939240">
<ele>380.507813</ele>
<time>2013-11-19T11:47:14Z</time>
<extensions>
<speed>0.0</speed>
<temp>0.00</temp>
<bpm>0</bpm>
<rpm>0.00</rpm>
</extensions>
</trkpt>
<trkpt lat="31.041395187" lon="34.811939240">
<ele>380.468750</ele>
<time>2013-11-19T11:47:19Z</time>
<speed>0.010000</speed>
<extensions>
<speed>0.0</speed>
<temp>0.00</temp>
<bpm>0</bpm>
<rpm>0.00</rpm>
</extensions>
</trkpt>
<trkpt lat="31.041395187" lon="34.811939240">
<ele>380.421875</ele>
<time>2013-11-19T11:47:24Z</time>
<extensions>
<speed>0.0</speed>
<temp>0.00</temp>
<bpm>0</bpm>
<rpm>0.00</rpm>
</extensions>
</trkpt>
<trkpt lat="31.041395187" lon="34.811939240">
<ele>380.390625</ele>
<time>2013-11-19T11:47:29Z</time>
<speed>1.070000</speed>
<extensions>
<speed>1.1</speed>
<temp>0.00</temp>
<bpm>0</bpm>
<rpm>0.00</rpm>
</extensions>
</trkpt>
<trkpt lat="31.041385651" lon="34.811923981">
<ele>379.640625</ele>
<time>2013-11-19T11:47:34Z</time>
<speed>0.110000</speed>
<extensions>
<speed>0.1</speed>
<temp>0.00</temp>
<bpm>0</bpm>
<rpm>0.00</rpm>
</extensions>
</trkpt>
<trkpt lat="31.041383743" lon="34.811923981">
<ele>379.375000</ele>
<time>2013-11-19T11:47:39Z</time>
<extensions>
<speed>0.0</speed>
<temp>0.00</temp>
<bpm>0</bpm>
<rpm>0.00</rpm>
</extensions>
</trkpt>
<trkpt lat="31.041385651" lon="34.811923981">
<ele>379.367188</ele>
<time>2013-11-19T11:47:44Z</time>
<extensions>
<speed>0.0</speed>
<temp>0.00</temp>
<bpm>0</bpm>
<rpm>0.00</rpm>
</extensions>
</trkpt>
<trkpt lat="31.041385651" lon="34.811923981">
<ele>379.351563</ele>
<time>2013-11-19T11:47:49Z</time>
<speed>0.080000</speed>
<extensions>
<speed>0.1</speed>
<temp>0.00</temp>
<bpm>0</bpm>
<rpm>0.00</rpm>
</extensions>
</trkpt>
<trkpt lat="31.041383743" lon="34.811923981">
<ele>379.343750</ele>
<time>2013-11-19T11:47:54Z</time>
<speed>0.070000</speed>
<extensions>
<speed>0.1</speed>
<temp>0.00</temp>
<bpm>0</bpm>
<rpm>0.00</rpm>
</extensions>
</trkpt>
<trkpt lat="31.041374207" lon="34.811908722">
<ele>379.156250</ele>
<time>2013-11-19T11:47:59Z</time>
<speed>1.130000</speed>
<extensions>
<speed>1.1</speed>
<temp>0.00</temp>
<bpm>0</bpm>
<rpm>0.00</rpm>
</extensions>
</trkpt>
<trkpt lat="31.041311264" lon="34.811836243">
<ele>378.531250</ele>
<time>2013-11-19T11:48:04Z</time>
<speed>2.570000</speed>
<extensions>
<speed>2.6</speed>
<temp>0.00</temp>
<bpm>0</bpm>
<rpm>0.00</rpm>
</extensions>
</trkpt>
<trkpt lat="31.041225433" lon="34.811725616">
<ele>378.125000</ele>
<time>2013-11-19T11:48:09Z</time>
<speed>3.170000</speed>
<extensions>
<speed>3.2</speed>
<temp>0.00</temp>
<bpm>0</bpm>
<rpm>0.00</rpm>
</extensions>
</trkpt>
<trkpt lat="31.041135788" lon="34.811592102">
<ele>377.656250</ele>
<time>2013-11-19T11:48:14Z</time>
<speed>3.570000</speed>
<extensions>
<speed>3.6</speed>
<temp>0.00</temp>
<bpm>0</bpm>
<rpm>0.00</rpm>
</extensions>
</trkpt>
<trkpt lat="31.041028976" lon="34.811424255">
<ele>376.656250</ele>
<time>2013-11-19T11:48:19Z</time>
<speed>4.750000</speed>
<extensions>
<speed>4.8</speed>
<temp>0.00</temp>
<bpm>0</bpm>
<rpm>0.00</rpm>
</extensions>
</trkpt>
<trkpt lat="31.040885925" lon="34.811206818">
<ele>375.968750</ele>
<time>2013-11-19T11:48:24Z</time>
<speed>5.750000</speed>
<extensions>
<speed>5.8</speed>
<temp>0.00</temp>
<bpm>0</bpm>
<rpm>0.00</rpm>
</extensions>
</trkpt>
<trkpt lat="31.040706635" lon="34.810955048">
<ele>375.273438</ele>
<time>2013-11-19T11:48:29Z</time>
<speed>6.250000</speed>
<extensions>
<speed>6.3</speed>
<temp>0.00</temp>
<bpm>0</bpm>
<rpm>0.00</rpm>
</extensions>
</trkpt>
<trkpt lat="31.040517807" lon="34.810718536">
<ele>375.304688</ele>
<time>2013-11-19T11:48:34Z</time>
<speed>5.900000</speed>
<extensions>
<speed>5.9</speed>
<temp>0.00</temp>
<bpm>0</bpm>
<rpm>0.00</rpm>
</extensions>
</trkpt>
<trkpt lat="31.040338516" lon="34.810497284">
<ele>374.617188</ele>
<time>2013-11-19T11:48:39Z</time>
<speed>5.690000</speed>
<extensions>
<speed>5.7</speed>
<temp>0.00</temp>
<bpm>0</bpm>
<rpm>0.00</rpm>
</extensions>
</trkpt>
<trkpt lat="31.040168762" lon="34.810256958">
<ele>374.914063</ele>
<time>2013-11-19T11:48:44Z</time>
<speed>6.120000</speed>
<extensions>
<speed>6.1</speed>
<temp>0.00</temp>
<bpm>0</bpm>
<rpm>0.00</rpm>
</extensions>
</trkpt>
<trkpt lat="31.040002823" lon="34.810012817">
<ele>374.695313</ele>
<time>2013-11-19T11:48:49Z</time>
<speed>6.040000</speed>
<extensions>
<speed>6.0</speed>
<temp>0.00</temp>
<bpm>0</bpm>
<rpm>0.00</rpm>
</extensions>
</trkpt>
<trkpt lat="31.039871216" lon="34.809734344">
<ele>374.335938</ele>
<time>2013-11-19T11:48:54Z</time>
<speed>6.210000</speed>
<extensions>
<speed>6.2</speed>
<temp>0.00</temp>
<bpm>0</bpm>
<rpm>0.00</rpm>
</extensions>
</trkpt>
<trkpt lat="31.039726257" lon="34.809463501">
<ele>373.843750</ele>
<time>2013-11-19T11:48:59Z</time>
<speed>6.490000</speed>
<extensions>
<speed>6.5</speed>
<temp>0.00</temp>
<bpm>0</bpm>
<rpm>0.00</rpm>
</extensions>
</trkpt>
<trkpt lat="31.039581299" lon="34.809154510">
<ele>372.945313</ele>
<time>2013-11-19T11:49:04Z</time>
<speed>6.910000</speed>
<extensions>
<speed>6.9</speed>
<temp>0.00</temp>
<bpm>0</bpm>
<rpm>0.00</rpm>
</extensions>
</trkpt>
<trkpt lat="31.039394379" lon="34.808826447">
<ele>371.570313</ele>
<time>2013-11-19T11:49:09Z</time>
<speed>8.130000</speed>
<extensions>
<speed>8.1</speed>
<temp>0.00</temp>
<bpm>0</bpm>
<rpm>0.00</rpm>
</extensions>
</trkpt>
<trkpt lat="31.039133072" lon="34.808498383">
<ele>369.968750</ele>
<time>2013-11-19T11:49:14Z</time>
<speed>9.000000</speed>
<extensions>
<speed>9.0</speed>
<temp>0.00</temp>
<bpm>0</bpm>
<rpm>0.00</rpm>
</extensions>
</trkpt>
<trkpt lat="31.038852692" lon="34.808158875">
<ele>369.234375</ele>
<time>2013-11-19T11:49:19Z</time>
<speed>8.810000</speed>
<extensions>
<speed>8.8</speed>
<temp>0.00</temp>
<bpm>0</bpm>
<rpm>0.00</rpm>
</extensions>
</trkpt>
<trkpt lat="31.038572311" lon="34.807857513">
<ele>369.234375</ele>
<time>2013-11-19T11:49:24Z</time>
<speed>6.670000</speed>
<extensions>
<speed>6.7</speed>
<temp>0.00</temp>
<bpm>0</bpm>
<rpm>0.00</rpm>
</extensions>
</trkpt>
<trkpt lat="31.038415909" lon="34.807731628">
<ele>369.273438</ele>
<time>2013-11-19T11:49:29Z</time>
<speed>2.010000</speed>
<extensions>
<speed>2.0</speed>
<temp>0.00</temp>
<bpm>0</bpm>
<rpm>0.00</rpm>
</extensions>
</trkpt>
<trkpt lat="31.038337708" lon="34.807697296">
<ele>368.882813</ele>
<time>2013-11-19T11:49:34Z</time>
<speed>1.610000</speed>
<extensions>
<speed>1.6</speed>
<temp>0.00</temp>
<bpm>0</bpm>
<rpm>0.00</rpm>
</extensions>
</trkpt>
<trkpt lat="31.038303375" lon="34.807659149">
<ele>367.289063</ele>
<time>2013-11-19T11:49:39Z</time>
<speed>0.080000</speed>
<extensions>
<speed>0.1</speed>
<temp>0.00</temp>
<bpm>0</bpm>
<rpm>0.00</rpm>
</extensions>
</trkpt>
<trkpt lat="31.038305283" lon="34.807659149">
<ele>367.132813</ele>
<time>2013-11-19T11:49:44Z</time>
<speed>0.030000</speed>
<extensions>
<speed>0.0</speed>
<temp>0.00</temp>
<bpm>0</bpm>
<rpm>0.00</rpm>
</extensions>
</trkpt>
<trkpt lat="31.038307190" lon="34.807659149">
<ele>367.101563</ele>
<time>2013-11-19T11:49:49Z</time>
<speed>0.090000</speed>
<extensions>
<speed>0.1</speed>
<temp>0.00</temp>
<bpm>0</bpm>
<rpm>0.00</rpm>
</extensions>
</trkpt>
<trkpt lat="31.038311005" lon="34.807659149">
<ele>367.085938</ele>
<time>2013-11-19T11:49:54Z</time>
<speed>0.090000</speed>
<extensions>
<speed>0.1</speed>
<temp>0.00</temp>
<bpm>0</bpm>
<rpm>0.00</rpm>
</extensions>
</trkpt>
<trkpt lat="31.038293839" lon="34.807640076">
<ele>367.539063</ele>
<time>2013-11-19T11:49:59Z</time>
<speed>0.440000</speed>
<extensions>
<speed>0.4</speed>
<temp>0.00</temp>
<bpm>0</bpm>
<rpm>0.00</rpm>
</extensions>
</trkpt>
<trkpt lat="31.038255692" lon="34.807594299">
<ele>368.195313</ele>
<time>2013-11-19T11:50:04Z</time>
<speed>0.820000</speed>
<extensions>
<speed>0.8</speed>
<temp>0.00</temp>
<bpm>0</bpm>
<rpm>0.00</rpm>
</extensions>
</trkpt>
<trkpt lat="31.038240433" lon="34.807567596">
<ele>368.539063</ele>
<time>2013-11-19T11:50:09Z</time>
<speed>1.870000</speed>
<extensions>
<speed>1.9</speed>
<temp>0.00</temp>
<bpm>0</bpm>
<rpm>0.00</rpm>
</extensions>
</trkpt>
<trkpt lat="31.038143158" lon="34.807476044">
<ele>369.117188</ele>
<time>2013-11-19T11:50:14Z</time>
<speed>3.850000</speed>
<extensions>
<speed>3.8</speed>
<temp>0.00</temp>
<bpm>0</bpm>
<rpm>0.00</rpm>
</extensions>
</trkpt>
<trkpt lat="31.037992477" lon="34.807361603">
<ele>369.656250</ele>
<time>2013-11-19T11:50:19Z</time>
<speed>4.190000</speed>
<extensions>
<speed>4.2</speed>
<temp>0.00</temp>
<bpm>0</bpm>
<rpm>0.00</rpm>
</extensions>
</trkpt>
<trkpt lat="31.037832260" lon="34.807239532">
<ele>369.820313</ele>
<time>2013-11-19T11:50:24Z</time>
<speed>4.000000</speed>
<extensions>
<speed>4.0</speed>
<temp>0.00</temp>
<bpm>0</bpm>
<rpm>0.00</rpm>
</extensions>
</trkpt>
<trkpt lat="31.037675858" lon="34.807113647">
<ele>370.406250</ele>
<time>2013-11-19T11:50:29Z</time>
<speed>3.850000</speed>
<extensions>
<speed>3.8</speed>
<temp>0.00</temp>
<bpm>0</bpm>
<rpm>0.00</rpm>
</extensions>
</trkpt>
<trkpt lat="31.037519455" lon="34.806980133">
<ele>370.796875</ele>
<time>2013-11-19T11:50:34Z</time>
<speed>4.490000</speed>
<extensions>
<speed>4.5</speed>
<temp>0.00</temp>
<bpm>0</bpm>
<rpm>0.00</rpm>
</extensions>
</trkpt>
<trkpt lat="31.037387848" lon="34.806842804">
<ele>371.312500</ele>
<time>2013-11-19T11:50:39Z</time>
<speed>4.030000</speed>
<extensions>
<speed>4.0</speed>
<temp>0.00</temp>
<bpm>0</bpm>
<rpm>0.00</rpm>
</extensions>
</trkpt>
<trkpt lat="31.037267685" lon="34.806674957">
<ele>371.968750</ele>
<time>2013-11-19T11:50:44Z</time>
<speed>4.160000</speed>
<extensions>
<speed>4.2</speed>
<temp>0.00</temp>
<bpm>0</bpm>
<rpm>0.00</rpm>
</extensions>
</trkpt>
<trkpt lat="31.037166595" lon="34.806484222">
<ele>372.007813</ele>
<time>2013-11-19T11:50:49Z</time>
<speed>4.630000</speed>
<extensions>
<speed>4.6</speed>
<temp>0.00</temp>
<bpm>0</bpm>
<rpm>0.00</rpm>
</extensions>
</trkpt>
<trkpt lat="31.037086487" lon="34.806293488">
<ele>372.039063</ele>
<time>2013-11-19T11:50:54Z</time>
<speed>3.940000</speed>
<extensions>
<speed>3.9</speed>
<temp>0.00</temp>
<bpm>0</bpm>
<rpm>0.00</rpm>
</extensions>
</trkpt>
<trkpt lat="31.037010193" lon="34.806118011">
<ele>372.257813</ele>
<time>2013-11-19T11:50:59Z</time>
<speed>4.550000</speed>
<extensions>
<speed>4.5</speed>
<temp>0.00</temp>
<bpm>0</bpm>
<rpm>0.00</rpm>
</extensions>
</trkpt>
<trkpt lat="31.036920547" lon="34.805896759">
<ele>371.796875</ele>
<time>2013-11-19T11:51:04Z</time>
<speed>4.620000</speed>
<extensions>
<speed>4.6</speed>
<temp>0.00</temp>
<bpm>0</bpm>
<rpm>0.00</rpm>
</extensions>
</trkpt>
<trkpt lat="31.036808014" lon="34.805694580">
<ele>371.296875</ele>
<time>2013-11-19T11:51:09Z</time>
<speed>4.770000</speed>
<extensions>
<speed>4.8</speed>
<temp>0.00</temp>
<bpm>0</bpm>
<rpm>0.00</rpm>
</extensions>
</trkpt>
<trkpt lat="31.036693573" lon="34.805484772">
<ele>371.007813</ele>
<time>2013-11-19T11:51:14Z</time>
<speed>4.900000</speed>
<extensions>
<speed>4.9</speed>
<temp>0.00</temp>
<bpm>0</bpm>
<rpm>0.00</rpm>
</extensions>
</trkpt>
<trkpt lat="31.036554337" lon="34.805271149">
<ele>371.015625</ele>
<time>2013-11-19T11:51:19Z</time>
<speed>5.480000</speed>
<extensions>
<speed>5.5</speed>
<temp>0.00</temp>
<bpm>0</bpm>
<rpm>0.00</rpm>
</extensions>
</trkpt>
<trkpt lat="31.036411285" lon="34.805046082">
<ele>370.843750</ele>
<time>2013-11-19T11:51:24Z</time>
<speed>5.430000</speed>
<extensions>
<speed>5.4</speed>
<temp>0.00</temp>
<bpm>0</bpm>
<rpm>0.00</rpm>
</extensions>
</trkpt>
<trkpt lat="31.036293030" lon="34.804794312">
<ele>370.554688</ele>
<time>2013-11-19T11:51:29Z</time>
<speed>5.550000</speed>
<extensions>
<speed>5.5</speed>
<temp>0.00</temp>
<bpm>0</bpm>
<rpm>0.00</rpm>
</extensions>
</trkpt>
<trkpt lat="31.036186218" lon="34.804538727">
<ele>370.320313</ele>
<time>2013-11-19T11:51:34Z</time>
<speed>5.020000</speed>
<extensions>
<speed>5.0</speed>
<temp>0.00</temp>
<bpm>0</bpm>
<rpm>0.00</rpm>
</extensions>
</trkpt>
<trkpt lat="31.036073685" lon="34.804317474">
<ele>370.742188</ele>
<time>2013-11-19T11:51:39Z</time>
<speed>5.340000</speed>
<extensions>
<speed>5.3</speed>
<temp>0.00</temp>
<bpm>0</bpm>
<rpm>0.00</rpm>
</extensions>
</trkpt>
<trkpt lat="31.035900116" lon="34.804103851">
<ele>370.718750</ele>
<time>2013-11-19T11:51:44Z</time>
<speed>5.560000</speed>
<extensions>
<speed>5.6</speed>
<temp>0.00</temp>
<bpm>0</bpm>
<rpm>0.00</rpm>
</extensions>
</trkpt>
<trkpt lat="31.035671234" lon="34.803905487">
<ele>370.218750</ele>
<time>2013-11-19T11:51:49Z</time>
<speed>6.590000</speed>
<extensions>
<speed>6.6</speed>
<temp>0.00</temp>
<bpm>0</bpm>
<rpm>0.00</rpm>
</extensions>
</trkpt>
<trkpt lat="31.035396576" lon="34.803710938">
<ele>369.664063</ele>
<time>2013-11-19T11:51:54Z</time>
<speed>6.800000</speed>
<extensions>
<speed>6.8</speed>
<temp>0.00</temp>
<bpm>0</bpm>
<rpm>0.00</rpm>
</extensions>
</trkpt>
<trkpt lat="31.035150528" lon="34.803524017">
<ele>369.585938</ele>
<time>2013-11-19T11:51:59Z</time>
<speed>6.170000</speed>
<extensions>
<speed>6.2</speed>
<temp>0.00</temp>
<bpm>0</bpm>
<rpm>0.00</rpm>
</extensions>
</trkpt>
<trkpt lat="31.034950256" lon="34.803340912">
<ele>370.617188</ele>
<time>2013-11-19T11:52:04Z</time>
<speed>5.340000</speed>
<extensions>
<speed>5.3</speed>
<temp>0.00</temp>
<bpm>0</bpm>
<rpm>0.00</rpm>
</extensions>
</trkpt>
<trkpt lat="31.034763336" lon="34.803161621">
<ele>372.148438</ele>
<time>2013-11-19T11:52:09Z</time>
<speed>5.460000</speed>
<extensions>
<speed>5.5</speed>
<temp>0.00</temp>
<bpm>0</bpm>
<rpm>0.00</rpm>
</extensions>
</trkpt>
<trkpt lat="31.034563065" lon="34.802997589">
<ele>372.914063</ele>
<time>2013-11-19T11:52:14Z</time>
<speed>4.860000</speed>
<extensions>
<speed>4.9</speed>
<temp>0.00</temp>
<bpm>0</bpm>
<rpm>0.00</rpm>
</extensions>
</trkpt>
<trkpt lat="31.034362793" lon="34.802875519">
<ele>372.945313</ele>
<time>2013-11-19T11:52:19Z</time>
<speed>4.840000</speed>
<extensions>
<speed>4.8</speed>
<temp>0.00</temp>
<bpm>0</bpm>
<rpm>0.00</rpm>
</extensions>
</trkpt>
<trkpt lat="31.034128189" lon="34.802772522">
<ele>371.226563</ele>
<time>2013-11-19T11:52:24Z</time>
<speed>6.580000</speed>
<extensions>
<speed>6.6</speed>
<temp>0.00</temp>
<bpm>0</bpm>
<rpm>0.00</rpm>
</extensions>
</trkpt>
<trkpt lat="31.033861160" lon="34.802597046">
<ele>370.585938</ele>
<time>2013-11-19T11:52:29Z</time>
<speed>6.550000</speed>
<extensions>
<speed>6.5</speed>
<temp>0.00</temp>
<bpm>0</bpm>
<rpm>0.00</rpm>
</extensions>
</trkpt>
<trkpt lat="31.033641815" lon="34.802417755">
<ele>371.328125</ele>
<time>2013-11-19T11:52:34Z</time>
<speed>5.490000</speed>
<extensions>
<speed>5.5</speed>
<temp>0.00</temp>
<bpm>0</bpm>
<rpm>0.00</rpm>
</extensions>
</trkpt>
<trkpt lat="31.033451080" lon="34.802249908">
<ele>372.046875</ele>
<time>2013-11-19T11:52:39Z</time>
<speed>5.020000</speed>
<extensions>
<speed>5.0</speed>
<temp>0.00</temp>
<bpm>0</bpm>
<rpm>0.00</rpm>
</extensions>
</trkpt>
<trkpt lat="31.033250809" lon="34.802093506">
<ele>373.390625</ele>
<time>2013-11-19T11:52:44Z</time>
<speed>5.840000</speed>
<extensions>
<speed>5.8</speed>
<temp>0.00</temp>
<bpm>0</bpm>
<rpm>0.00</rpm>
</extensions>
</trkpt>
<trkpt lat="31.033004761" lon="34.801937103">
<ele>373.476563</ele>
<time>2013-11-19T11:52:49Z</time>
<speed>6.050000</speed>
<extensions>
<speed>6.1</speed>
<temp>0.00</temp>
<bpm>0</bpm>
<rpm>0.00</rpm>
</extensions>
</trkpt>
<trkpt lat="31.032781601" lon="34.801784515">
<ele>373.554688</ele>
<time>2013-11-19T11:52:54Z</time>
<speed>5.540000</speed>
<extensions>
<speed>5.5</speed>
<temp>0.00</temp>
<bpm>0</bpm>
<rpm>0.00</rpm>
</extensions>
</trkpt>
<trkpt lat="31.032552719" lon="34.801620483">
<ele>373.500000</ele>
<time>2013-11-19T11:52:59Z</time>
<speed>6.310000</speed>
<extensions>
<speed>6.3</speed>
<temp>0.00</temp>
<bpm>0</bpm>
<rpm>0.00</rpm>
</extensions>
</trkpt>
<trkpt lat="31.032325745" lon="34.801448822">
<ele>373.062500</ele>
<time>2013-11-19T11:53:04Z</time>
<speed>5.710000</speed>
<extensions>
<speed>5.7</speed>
<temp>0.00</temp>
<bpm>0</bpm>
<rpm>0.00</rpm>
</extensions>
</trkpt>
<trkpt lat="31.032135010" lon="34.801273346">
<ele>374.210938</ele>
<time>2013-11-19T11:53:09Z</time>
<speed>5.550000</speed>
<extensions>
<speed>5.5</speed>
<temp>0.00</temp>
<bpm>0</bpm>
<rpm>0.00</rpm>
</extensions>
</trkpt>
<trkpt lat="31.031951904" lon="34.801113129">
<ele>374.484375</ele>
<time>2013-11-19T11:53:14Z</time>
<speed>4.650000</speed>
<extensions>
<speed>4.6</speed>
<temp>0.00</temp>
<bpm>0</bpm>
<rpm>0.00</rpm>
</extensions>
</trkpt>
<trkpt lat="31.031745911" lon="34.800991058">
<ele>374.328125</ele>
<time>2013-11-19T11:53:19Z</time>
<speed>5.780000</speed>
<extensions>
<speed>5.8</speed>
<temp>0.00</temp>
<bpm>0</bpm>
<rpm>0.00</rpm>
</extensions>
</trkpt>
<trkpt lat="31.031497955" lon="34.800861359">
<ele>372.945313</ele>
<time>2013-11-19T11:53:24Z</time>
<speed>6.100000</speed>
<extensions>
<speed>6.1</speed>
<temp>0.00</temp>
<bpm>0</bpm>
<rpm>0.00</rpm>
</extensions>
</trkpt>
<trkpt lat="31.031225204" lon="34.800735474">
<ele>371.710938</ele>
<time>2013-11-19T11:53:29Z</time>
<speed>6.540000</speed>
<extensions>
<speed>6.5</speed>
<temp>0.00</temp>
<bpm>0</bpm>
<rpm>0.00</rpm>
</extensions>
</trkpt>
<trkpt lat="31.030956268" lon="34.800624847">
<ele>370.554688</ele>
<time>2013-11-19T11:53:34Z</time>
<speed>6.170000</speed>
<extensions>
<speed>6.2</speed>
<temp>0.00</temp>
<bpm>0</bpm>
<rpm>0.00</rpm>
</extensions>
</trkpt>
<trkpt lat="31.030710220" lon="34.800510406">
<ele>370.265625</ele>
<time>2013-11-19T11:53:39Z</time>
<speed>5.770000</speed>
<extensions>
<speed>5.8</speed>
<temp>0.00</temp>
<bpm>0</bpm>
<rpm>0.00</rpm>
</extensions>
</trkpt>
<trkpt lat="31.030502319" lon="34.800369263">
<ele>370.062500</ele>
<time>2013-11-19T11:53:44Z</time>
<speed>4.460000</speed>
<extensions>
<speed>4.5</speed>
<temp>0.00</temp>
<bpm>0</bpm>
<rpm>0.00</rpm>
</extensions>
</trkpt>
<trkpt lat="31.030374527" lon="34.800228119">
<ele>367.390625</ele>
<time>2013-11-19T11:53:49Z</time>
<speed>3.430000</speed>
<extensions>
<speed>3.4</speed>
<temp>0.00</temp>
<bpm>0</bpm>
<rpm>0.00</rpm>
</extensions>
</trkpt>
<trkpt lat="31.030242920" lon="34.800174713">
<ele>367.710938</ele>
<time>2013-11-19T11:53:54Z</time>
<speed>3.930000</speed>
<extensions>
<speed>3.9</speed>
<temp>0.00</temp>
<bpm>0</bpm>
<rpm>0.00</rpm>
</extensions>
</trkpt>
<trkpt lat="31.030071259" lon="34.800071716">
<ele>367.992188</ele>
<time>2013-11-19T11:53:59Z</time>
<speed>4.800000</speed>
<extensions>
<speed>4.8</speed>
<temp>0.00</temp>
<bpm>0</bpm>
<rpm>0.00</rpm>
</extensions>
</trkpt>
<trkpt lat="31.029882431" lon="34.799930573">
<ele>369.390625</ele>
<time>2013-11-19T11:54:04Z</time>
<speed>4.890000</speed>
<extensions>
<speed>4.9</speed>
<temp>0.00</temp>
<bpm>0</bpm>
<rpm>0.00</rpm>
</extensions>
</trkpt>
<trkpt lat="31.029720306" lon="34.799808502">
<ele>370.546875</ele>
<time>2013-11-19T11:54:09Z</time>
<speed>3.780000</speed>
<extensions>
<speed>3.8</speed>
<temp>0.00</temp>
<bpm>0</bpm>
<rpm>0.00</rpm>
</extensions>
</trkpt>
<trkpt lat="31.029602051" lon="34.799705505">
<ele>372.414063</ele>
<time>2013-11-19T11:54:14Z</time>
<speed>2.490000</speed>
<extensions>
<speed>2.5</speed>
<temp>0.00</temp>
<bpm>0</bpm>
<rpm>0.00</rpm>
</extensions>
</trkpt>
<trkpt lat="31.029520035" lon="34.799633026">
<ele>374.171875</ele>
<time>2013-11-19T11:54:19Z</time>
<speed>2.570000</speed>
<extensions>
<speed>2.6</speed>
<temp>0.00</temp>
<bpm>0</bpm>
<rpm>0.00</rpm>
</extensions>
</trkpt>
<trkpt lat="31.029418945" lon="34.799526215">
<ele>375.328125</ele>
<time>2013-11-19T11:54:24Z</time>
<speed>3.370000</speed>
<extensions>
<speed>3.4</speed>
<temp>0.00</temp>
<bpm>0</bpm>
<rpm>0.00</rpm>
</extensions>
</trkpt>
<trkpt lat="31.029325485" lon="34.799400330">
<ele>377.328125</ele>
<time>2013-11-19T11:54:29Z</time>
<speed>2.990000</speed>
<extensions>
<speed>3.0</speed>
<temp>0.00</temp>
<bpm>0</bpm>
<rpm>0.00</rpm>
</extensions>
</trkpt>
<trkpt lat="31.029207230" lon="34.799285889">
<ele>376.890625</ele>
<time>2013-11-19T11:54:34Z</time>
<speed>4.010000</speed>
<extensions>
<speed>4.0</speed>
<temp>0.00</temp>
<bpm>0</bpm>
<rpm>0.00</rpm>
</extensions>
</trkpt>
<trkpt lat="31.029069901" lon="34.799098969">
<ele>375.320313</ele>
<time>2013-11-19T11:54:39Z</time>
<speed>5.830000</speed>
<extensions>
<speed>5.8</speed>
<temp>0.00</temp>
<bpm>0</bpm>
<rpm>0.00</rpm>
</extensions>
</trkpt>
<trkpt lat="31.028900146" lon="34.798847198">
<ele>374.250000</ele>
<time>2013-11-19T11:54:44Z</time>
<speed>6.360000</speed>
<extensions>
<speed>6.4</speed>
<temp>0.00</temp>
<bpm>0</bpm>
<rpm>0.00</rpm>
</extensions>
</trkpt>
<trkpt lat="31.028724670" lon="34.798599243">
<ele>373.679688</ele>
<time>2013-11-19T11:54:49Z</time>
<speed>6.210000</speed>
<extensions>
<speed>6.2</speed>
<temp>0.00</temp>
<bpm>0</bpm>
<rpm>0.00</rpm>
</extensions>
</trkpt>
<trkpt lat="31.028551102" lon="34.798339844">
<ele>373.867188</ele>
<time>2013-11-19T11:54:54Z</time>
<speed>6.140000</speed>
<extensions>
<speed>6.1</speed>
<temp>0.00</temp>
<bpm>0</bpm>
<rpm>0.00</rpm>
</extensions>
</trkpt>
<trkpt lat="31.028362274" lon="34.798118591">
<ele>373.859375</ele>
<time>2013-11-19T11:54:59Z</time>
<speed>5.840000</speed>
<extensions>
<speed>5.8</speed>
<temp>0.00</temp>
<bpm>0</bpm>
<rpm>0.00</rpm>
</extensions>
</trkpt>
<trkpt lat="31.028141022" lon="34.797908783">
<ele>374.023438</ele>
<time>2013-11-19T11:55:04Z</time>
<speed>6.100000</speed>
<extensions>
<speed>6.1</speed>
<temp>0.00</temp>
<bpm>0</bpm>
<rpm>0.00</rpm>
</extensions>
</trkpt>
<trkpt lat="31.027894974" lon="34.797706604">
<ele>372.359375</ele>
<time>2013-11-19T11:55:09Z</time>
<speed>7.220000</speed>
<extensions>
<speed>7.2</speed>
<temp>0.00</temp>
<bpm>0</bpm>
<rpm>0.00</rpm>
</extensions>
</trkpt>
<trkpt lat="31.027599335" lon="34.797451019">
<ele>370.101563</ele>
<time>2013-11-19T11:55:14Z</time>
<speed>9.040000</speed>
<extensions>
<speed>9.0</speed>
<temp>0.00</temp>
<bpm>0</bpm>
<rpm>0.00</rpm>
</extensions>
</trkpt>
<trkpt lat="31.027297974" lon="34.797183990">
<ele>370.187500</ele>
<time>2013-11-19T11:55:19Z</time>
<speed>7.270000</speed>
<extensions>
<speed>7.3</speed>
<temp>0.00</temp>
<bpm>0</bpm>
<rpm>0.00</rpm>
</extensions>
</trkpt>
<trkpt lat="31.027090073" lon="34.796943665">
<ele>370.546875</ele>
<time>2013-11-19T11:55:24Z</time>
<speed>5.710000</speed>
<extensions>
<speed>5.7</speed>
<temp>0.00</temp>
<bpm>0</bpm>
<rpm>0.00</rpm>
</extensions>
</trkpt>
<trkpt lat="31.026924133" lon="34.796756744">
<ele>371.203125</ele>
<time>2013-11-19T11:55:29Z</time>
<speed>4.830000</speed>
<extensions>
<speed>4.8</speed>
<temp>0.00</temp>
<bpm>0</bpm>
<rpm>0.00</rpm>
</extensions>
</trkpt>
<trkpt lat="31.026744843" lon="34.796573639">
<ele>371.367188</ele>
<time>2013-11-19T11:55:34Z</time>
<speed>5.820000</speed>
<extensions>
<speed>5.8</speed>
<temp>0.00</temp>
<bpm>0</bpm>
<rpm>0.00</rpm>
</extensions>
</trkpt>
<trkpt lat="31.026565552" lon="34.796363831">
<ele>372.234375</ele>
<time>2013-11-19T11:55:39Z</time>
<speed>5.560000</speed>
<extensions>
<speed>5.6</speed>
<temp>0.00</temp>
<bpm>0</bpm>
<rpm>0.00</rpm>
</extensions>
</trkpt>
<trkpt lat="31.026367188" lon="34.796165466">
<ele>372.187500</ele>
<time>2013-11-19T11:55:44Z</time>
<speed>5.470000</speed>
<extensions>
<speed>5.5</speed>
<temp>0.00</temp>
<bpm>0</bpm>
<rpm>0.00</rpm>
</extensions>
</trkpt>
<trkpt lat="31.026172638" lon="34.796001434">
<ele>371.843750</ele>
<time>2013-11-19T11:55:49Z</time>
<speed>5.610000</speed>
<extensions>
<speed>5.6</speed>
<temp>0.00</temp>
<bpm>0</bpm>
<rpm>0.00</rpm>
</extensions>
</trkpt>
<trkpt lat="31.025945663" lon="34.795860291">
<ele>371.476563</ele>
<time>2013-11-19T11:55:54Z</time>
<speed>5.140000</speed>
<extensions>
<speed>5.1</speed>
<temp>0.00</temp>
<bpm>0</bpm>
<rpm>0.00</rpm>
</extensions>
</trkpt>
<trkpt lat="31.025739670" lon="34.795692444">
<ele>371.992188</ele>
<time>2013-11-19T11:55:59Z</time>
<speed>5.990000</speed>
<extensions>
<speed>6.0</speed>
<temp>0.00</temp>
<bpm>0</bpm>
<rpm>0.00</rpm>
</extensions>
</trkpt>
<trkpt lat="31.025524139" lon="34.795520782">
<ele>372.429688</ele>
<time>2013-11-19T11:56:04Z</time>
<speed>5.980000</speed>
<extensions>
<speed>6.0</speed>
<temp>0.00</temp>
<bpm>0</bpm>
<rpm>0.00</rpm>
</extensions>
</trkpt>
<trkpt lat="31.025331497" lon="34.795326233">
<ele>373.289063</ele>
<time>2013-11-19T11:56:09Z</time>
<speed>5.800000</speed>
<extensions>
<speed>5.8</speed>
<temp>0.00</temp>
<bpm>0</bpm>
<rpm>0.00</rpm>
</extensions>
</trkpt>
<trkpt lat="31.025186539" lon="34.795066833">
<ele>371.632813</ele>
<time>2013-11-19T11:56:14Z</time>
<speed>6.430000</speed>
<extensions>
<speed>6.4</speed>
<temp>0.00</temp>
<bpm>0</bpm>
<rpm>0.00</rpm>
</extensions>
</trkpt>
<trkpt lat="31.025014877" lon="34.794795990">
<ele>369.523438</ele>
<time>2013-11-19T11:56:19Z</time>
<speed>6.520000</speed>
<extensions>
<speed>6.5</speed>
<temp>0.00</temp>
<bpm>0</bpm>
<rpm>0.00</rpm>
</extensions>
</trkpt>
<trkpt lat="31.024854660" lon="34.794548035">
<ele>370.164063</ele>
<time>2013-11-19T11:56:24Z</time>
<speed>5.440000</speed>
<extensions>
<speed>5.4</speed>
<temp>0.00</temp>
<bpm>0</bpm>
<rpm>0.00</rpm>
</extensions>
</trkpt>
<trkpt lat="31.024694443" lon="34.794330597">
<ele>370.710938</ele>
<time>2013-11-19T11:56:29Z</time>
<speed>5.860000</speed>
<extensions>
<speed>5.9</speed>
<temp>0.00</temp>
<bpm>0</bpm>
<rpm>0.00</rpm>
</extensions>
</trkpt>
<trkpt lat="31.024518967" lon="34.794097900">
<ele>371.304688</ele>
<time>2013-11-19T11:56:34Z</time>
<speed>5.330000</speed>
<extensions>
<speed>5.3</speed>
<temp>0.00</temp>
<bpm>0</bpm>
<rpm>0.00</rpm>
</extensions>
</trkpt>
<trkpt lat="31.024360657" lon="34.793941498">
<ele>371.828125</ele>
<time>2013-11-19T11:56:39Z</time>
<speed>4.330000</speed>
<extensions>
<speed>4.3</speed>
<temp>0.00</temp>
<bpm>0</bpm>
<rpm>0.00</rpm>
</extensions>
</trkpt>
<trkpt lat="31.024208069" lon="34.793807983">
<ele>372.546875</ele>
<time>2013-11-19T11:56:44Z</time>
<speed>3.850000</speed>
<extensions>
<speed>3.8</speed>
<temp>0.00</temp>
<bpm>0</bpm>
<rpm>0.00</rpm>
</extensions>
</trkpt>
<trkpt lat="31.024065018" lon="34.793697357">
<ele>372.742188</ele>
<time>2013-11-19T11:56:49Z</time>
<speed>3.110000</speed>
<extensions>
<speed>3.1</speed>
<temp>0.00</temp>
<bpm>0</bpm>
<rpm>0.00</rpm>
</extensions>
</trkpt>
<trkpt lat="31.023963928" lon="34.793590546">
<ele>373.242188</ele>
<time>2013-11-19T11:56:54Z</time>
<speed>3.120000</speed>
<extensions>
<speed>3.1</speed>
<temp>0.00</temp>
<bpm>0</bpm>
<rpm>0.00</rpm>
</extensions>
</trkpt>
<trkpt lat="31.023811340" lon="34.793479919">
<ele>372.960938</ele>
<time>2013-11-19T11:56:59Z</time>
<speed>4.130000</speed>
<extensions>
<speed>4.1</speed>
<temp>0.00</temp>
<bpm>0</bpm>
<rpm>0.00</rpm>
</extensions>
</trkpt>
<trkpt lat="31.023714066" lon="34.793338776">
<ele>372.796875</ele>
<time>2013-11-19T11:57:04Z</time>
<speed>3.610000</speed>
<extensions>
<speed>3.6</speed>
<temp>0.00</temp>
<bpm>0</bpm>
<rpm>0.00</rpm>
</extensions>
</trkpt>
<trkpt lat="31.023624420" lon="34.793209076">
<ele>373.437500</ele>
<time>2013-11-19T11:57:09Z</time>
<speed>3.030000</speed>
<extensions>
<speed>3.0</speed>
<temp>0.00</temp>
<bpm>0</bpm>
<rpm>0.00</rpm>
</extensions>
</trkpt>
<trkpt lat="31.023561478" lon="34.793079376">
<ele>372.953125</ele>
<time>2013-11-19T11:57:14Z</time>
<speed>2.980000</speed>
<extensions>
<speed>3.0</speed>
<temp>0.00</temp>
<bpm>0</bpm>
<rpm>0.00</rpm>
</extensions>
</trkpt>
<trkpt lat="31.023502350" lon="34.793003082">
<ele>372.640625</ele>
<time>2013-11-19T11:57:19Z</time>
<speed>1.450000</speed>
<extensions>
<speed>1.4</speed>
<temp>0.00</temp>
<bpm>0</bpm>
<rpm>0.00</rpm>
</extensions>
</trkpt>
<trkpt lat="31.023469925" lon="34.792972565">
<ele>372.398438</ele>
<time>2013-11-19T11:57:24Z</time>
<speed>0.070000</speed>
<extensions>
<speed>0.1</speed>
<temp>0.00</temp>
<bpm>0</bpm>
<rpm>0.00</rpm>
</extensions>
</trkpt>
<trkpt lat="31.023468018" lon="34.792968750">
<ele>372.164063</ele>
<time>2013-11-19T11:57:29Z</time>
<extensions>
<speed>0.0</speed>
<temp>0.00</temp>
<bpm>0</bpm>
<rpm>0.00</rpm>
</extensions>
</trkpt>
<trkpt lat="31.023469925" lon="34.792968750">
<ele>372.226563</ele>
<time>2013-11-19T11:57:34Z</time>
<speed>0.010000</speed>
<extensions>
<speed>0.0</speed>
<temp>0.00</temp>
<bpm>0</bpm>
<rpm>0.00</rpm>
</extensions>
</trkpt>
<trkpt lat="31.023469925" lon="34.792968750">
<ele>372.218750</ele>
<time>2013-11-19T11:57:39Z</time>
<speed>0.020000</speed>
<extensions>
<speed>0.0</speed>
<temp>0.00</temp>
<bpm>0</bpm>
<rpm>0.00</rpm>
</extensions>
</trkpt>
<trkpt lat="31.023469925" lon="34.792968750">
<ele>372.210938</ele>
<time>2013-11-19T11:57:44Z</time>
<extensions>
<speed>0.0</speed>
<temp>0.00</temp>
<bpm>0</bpm>
<rpm>0.00</rpm>
</extensions>
</trkpt>
<trkpt lat="31.023469925" lon="34.792968750">
<ele>372.257813</ele>
<time>2013-11-19T11:57:49Z</time>
<extensions>
<speed>0.0</speed>
<temp>0.00</temp>
<bpm>0</bpm>
<rpm>0.00</rpm>
</extensions>
</trkpt>
<trkpt lat="31.023469925" lon="34.792968750">
<ele>372.335938</ele>
<time>2013-11-19T11:57:54Z</time>
<speed>0.010000</speed>
<extensions>
<speed>0.0</speed>
<temp>0.00</temp>
<bpm>0</bpm>
<rpm>0.00</rpm>
</extensions>
</trkpt>
<trkpt lat="31.023471832" lon="34.792968750">
<ele>372.414063</ele>
<time>2013-11-19T11:57:59Z</time>
<extensions>
<speed>0.0</speed>
<temp>0.00</temp>
<bpm>0</bpm>
<rpm>0.00</rpm>
</extensions>
</trkpt>
<trkpt lat="31.023471832" lon="34.792968750">
<ele>372.414063</ele>
<time>2013-11-19T11:58:04Z</time>
<extensions>
<speed>0.0</speed>
<temp>0.00</temp>
<bpm>0</bpm>
<rpm>0.00</rpm>
</extensions>
</trkpt>
<trkpt lat="31.023471832" lon="34.792968750">
<ele>372.421875</ele>
<time>2013-11-19T11:58:09Z</time>
<extensions>
<speed>0.0</speed>
<temp>0.00</temp>
<bpm>0</bpm>
<rpm>0.00</rpm>
</extensions>
</trkpt>
<trkpt lat="31.023471832" lon="34.792968750">
<ele>372.421875</ele>
<time>2013-11-19T11:58:14Z</time>
<extensions>
<speed>0.0</speed>
<temp>0.00</temp>
<bpm>0</bpm>
<rpm>0.00</rpm>
</extensions>
</trkpt>
<trkpt lat="31.023471832" lon="34.792968750">
<ele>372.421875</ele>
<time>2013-11-19T11:58:19Z</time>
<extensions>
<speed>0.0</speed>
<temp>0.00</temp>
<bpm>0</bpm>
<rpm>0.00</rpm>
</extensions>
</trkpt>
<trkpt lat="31.023471832" lon="34.792964935">
<ele>372.429688</ele>
<time>2013-11-19T11:58:24Z</time>
<extensions>
<speed>0.0</speed>
<temp>0.00</temp>
<bpm>0</bpm>
<rpm>0.00</rpm>
</extensions>
</trkpt>
<trkpt lat="31.023471832" lon="34.792964935">
<ele>372.421875</ele>
<time>2013-11-19T11:58:29Z</time>
<extensions>
<speed>0.0</speed>
<temp>0.00</temp>
<bpm>0</bpm>
<rpm>0.00</rpm>
</extensions>
</trkpt>
<trkpt lat="31.023471832" lon="34.792964935">
<ele>372.406250</ele>
<time>2013-11-19T11:58:34Z</time>
<extensions>
<speed>0.0</speed>
<temp>0.00</temp>
<bpm>0</bpm>
<rpm>0.00</rpm>
</extensions>
</trkpt>
<trkpt lat="31.023471832" lon="34.792964935">
<ele>372.382813</ele>
<time>2013-11-19T11:58:39Z</time>
<extensions>
<speed>0.0</speed>
<temp>0.00</temp>
<bpm>0</bpm>
<rpm>0.00</rpm>
</extensions>
</trkpt>
<trkpt lat="31.023471832" lon="34.792964935">
<ele>372.382813</ele>
<time>2013-11-19T11:58:44Z</time>
<extensions>
<speed>0.0</speed>
<temp>0.00</temp>
<bpm>0</bpm>
<rpm>0.00</rpm>
</extensions>
</trkpt>
<trkpt lat="31.023471832" lon="34.792964935">
<ele>372.375000</ele>
<time>2013-11-19T11:58:49Z</time>
<extensions>
<speed>0.0</speed>
<temp>0.00</temp>
<bpm>0</bpm>
<rpm>0.00</rpm>
</extensions>
</trkpt>
<trkpt lat="31.023471832" lon="34.792964935">
<ele>372.375000</ele>
<time>2013-11-19T11:58:54Z</time>
<extensions>
<speed>0.0</speed>
<temp>0.00</temp>
<bpm>0</bpm>
<rpm>0.00</rpm>
</extensions>
</trkpt>
<trkpt lat="31.023471832" lon="34.792964935">
<ele>372.382813</ele>
<time>2013-11-19T11:58:59Z</time>
<extensions>
<speed>0.0</speed>
<temp>0.00</temp>
<bpm>0</bpm>
<rpm>0.00</rpm>
</extensions>
</trkpt>
<trkpt lat="31.023471832" lon="34.792964935">
<ele>372.390625</ele>
<time>2013-11-19T11:59:04Z</time>
<extensions>
<speed>0.0</speed>
<temp>0.00</temp>
<bpm>0</bpm>
<rpm>0.00</rpm>
</extensions>
</trkpt>
<trkpt lat="31.023471832" lon="34.792964935">
<ele>372.390625</ele>
<time>2013-11-19T11:59:09Z</time>
<extensions>
<speed>0.0</speed>
<temp>0.00</temp>
<bpm>0</bpm>
<rpm>0.00</rpm>
</extensions>
</trkpt>
<trkpt lat="31.023471832" lon="34.792964935">
<ele>372.382813</ele>
<time>2013-11-19T11:59:14Z</time>
<extensions>
<speed>0.0</speed>
<temp>0.00</temp>
<bpm>0</bpm>
<rpm>0.00</rpm>
</extensions>
</trkpt>
<trkpt lat="31.023471832" lon="34.792964935">
<ele>372.375000</ele>
<time>2013-11-19T11:59:19Z</time>
<extensions>
<speed>0.0</speed>
<temp>0.00</temp>
<bpm>0</bpm>
<rpm>0.00</rpm>
</extensions>
</trkpt>
<trkpt lat="31.023471832" lon="34.792964935">
<ele>372.359375</ele>
<time>2013-11-19T11:59:24Z</time>
<extensions>
<speed>0.0</speed>
<temp>0.00</temp>
<bpm>0</bpm>
<rpm>0.00</rpm>
</extensions>
</trkpt>
<trkpt lat="31.023471832" lon="34.792964935">
<ele>372.328125</ele>
<time>2013-11-19T11:59:29Z</time>
<extensions>
<speed>0.0</speed>
<temp>0.00</temp>
<bpm>0</bpm>
<rpm>0.00</rpm>
</extensions>
</trkpt>
<trkpt lat="31.023471832" lon="34.792964935">
<ele>372.335938</ele>
<time>2013-11-19T11:59:34Z</time>
<extensions>
<speed>0.0</speed>
<temp>0.00</temp>
<bpm>0</bpm>
<rpm>0.00</rpm>
</extensions>
</trkpt>
<trkpt lat="31.023471832" lon="34.792964935">
<ele>372.335938</ele>
<time>2013-11-19T11:59:39Z</time>
<extensions>
<speed>0.0</speed>
<temp>0.00</temp>
<bpm>0</bpm>
<rpm>0.00</rpm>
</extensions>
</trkpt>
<trkpt lat="31.023471832" lon="34.792964935">
<ele>372.335938</ele>
<time>2013-11-19T11:59:44Z</time>
<extensions>
<speed>0.0</speed>
<temp>0.00</temp>
<bpm>0</bpm>
<rpm>0.00</rpm>
</extensions>
</trkpt>
<trkpt lat="31.023471832" lon="34.792964935">
<ele>372.335938</ele>
<time>2013-11-19T11:59:49Z</time>
<extensions>
<speed>0.0</speed>
<temp>0.00</temp>
<bpm>0</bpm>
<rpm>0.00</rpm>
</extensions>
</trkpt>
<trkpt lat="31.023471832" lon="34.792964935">
<ele>372.328125</ele>
<time>2013-11-19T11:59:54Z</time>
<extensions>
<speed>0.0</speed>
<temp>0.00</temp>
<bpm>0</bpm>
<rpm>0.00</rpm>
</extensions>
</trkpt>
<trkpt lat="31.023471832" lon="34.792964935">
<ele>372.312500</ele>
<time>2013-11-19T11:59:59Z</time>
<extensions>
<speed>0.0</speed>
<temp>0.00</temp>
<bpm>0</bpm>
<rpm>0.00</rpm>
</extensions>
</trkpt>
<trkpt lat="31.023471832" lon="34.792964935">
<ele>372.312500</ele>
<time>2013-11-19T12:00:04Z</time>
<extensions>
<speed>0.0</speed>
<temp>0.00</temp>
<bpm>0</bpm>
<rpm>0.00</rpm>
</extensions>
</trkpt>
<trkpt lat="31.023471832" lon="34.792964935">
<ele>372.312500</ele>
<time>2013-11-19T12:00:09Z</time>
<extensions>
<speed>0.0</speed>
<temp>0.00</temp>
<bpm>0</bpm>
<rpm>0.00</rpm>
</extensions>
</trkpt>
<trkpt lat="31.023471832" lon="34.792964935">
<ele>372.320313</ele>
<time>2013-11-19T12:00:14Z</time>
<extensions>
<speed>0.0</speed>
<temp>0.00</temp>
<bpm>0</bpm>
<rpm>0.00</rpm>
</extensions>
</trkpt>
<trkpt lat="31.023471832" lon="34.792964935">
<ele>372.312500</ele>
<time>2013-11-19T12:00:19Z</time>
<extensions>
<speed>0.0</speed>
<temp>0.00</temp>
<bpm>0</bpm>
<rpm>0.00</rpm>
</extensions>
</trkpt>
<trkpt lat="31.023471832" lon="34.792964935">
<ele>372.273438</ele>
<time>2013-11-19T12:00:24Z</time>
<extensions>
<speed>0.0</speed>
<temp>0.00</temp>
<bpm>0</bpm>
<rpm>0.00</rpm>
</extensions>
</trkpt>
<trkpt lat="31.023471832" lon="34.792964935">
<ele>372.257813</ele>
<time>2013-11-19T12:00:29Z</time>
<extensions>
<speed>0.0</speed>
<temp>0.00</temp>
<bpm>0</bpm>
<rpm>0.00</rpm>
</extensions>
</trkpt>
<trkpt lat="31.023471832" lon="34.792964935">
<ele>372.257813</ele>
<time>2013-11-19T12:00:34Z</time>
<speed>0.010000</speed>
<extensions>
<speed>0.0</speed>
<temp>0.00</temp>
<bpm>0</bpm>
<rpm>0.00</rpm>
</extensions>
</trkpt>
<trkpt lat="31.023471832" lon="34.792964935">
<ele>372.273438</ele>
<time>2013-11-19T12:00:39Z</time>
<speed>0.010000</speed>
<extensions>
<speed>0.0</speed>
<temp>0.00</temp>
<bpm>0</bpm>
<rpm>0.00</rpm>
</extensions>
</trkpt>
<trkpt lat="31.023471832" lon="34.792964935">
<ele>372.242188</ele>
<time>2013-11-19T12:00:44Z</time>
<extensions>
<speed>0.0</speed>
<temp>0.00</temp>
<bpm>0</bpm>
<rpm>0.00</rpm>
</extensions>
</trkpt>
<trkpt lat="31.023468018" lon="34.792964935">
<ele>372.218750</ele>
<time>2013-11-19T12:00:49Z</time>
<speed>1.210000</speed>
<extensions>
<speed>1.2</speed>
<temp>0.00</temp>
<bpm>0</bpm>
<rpm>0.00</rpm>
</extensions>
</trkpt>
<trkpt lat="31.023399353" lon="34.793029785">
<ele>371.453125</ele>
<time>2013-11-19T12:00:54Z</time>
<speed>1.580000</speed>
<extensions>
<speed>1.6</speed>
<temp>0.00</temp>
<bpm>0</bpm>
<rpm>0.00</rpm>
</extensions>
</trkpt>
<trkpt lat="31.023366928" lon="34.793087006">
<ele>370.578125</ele>
<time>2013-11-19T12:00:59Z</time>
<speed>0.870000</speed>
<extensions>
<speed>0.9</speed>
<temp>0.00</temp>
<bpm>0</bpm>
<rpm>0.00</rpm>
</extensions>
</trkpt>
<trkpt lat="31.023370743" lon="34.793029785">
<ele>369.406250</ele>
<time>2013-11-19T12:01:04Z</time>
<speed>3.230000</speed>
<extensions>
<speed>3.2</speed>
<temp>0.00</temp>
<bpm>0</bpm>
<rpm>0.00</rpm>
</extensions>
</trkpt>
<trkpt lat="31.023477554" lon="34.792896271">
<ele>367.375000</ele>
<time>2013-11-19T12:01:09Z</time>
<speed>3.390000</speed>
<extensions>
<speed>3.4</speed>
<temp>0.00</temp>
<bpm>0</bpm>
<rpm>0.00</rpm>
</extensions>
</trkpt>
<trkpt lat="31.023502350" lon="34.792751312">
<ele>366.492188</ele>
<time>2013-11-19T12:01:14Z</time>
<speed>3.660000</speed>
<extensions>
<speed>3.7</speed>
<temp>0.00</temp>
<bpm>0</bpm>
<rpm>0.00</rpm>
</extensions>
</trkpt>
<trkpt lat="31.023370743" lon="34.792629242">
<ele>367.273438</ele>
<time>2013-11-19T12:01:19Z</time>
<speed>4.320000</speed>
<extensions>
<speed>4.3</speed>
<temp>0.00</temp>
<bpm>0</bpm>
<rpm>0.00</rpm>
</extensions>
</trkpt>
<trkpt lat="31.023237228" lon="34.792472839">
<ele>367.500000</ele>
<time>2013-11-19T12:01:24Z</time>
<speed>3.760000</speed>
<extensions>
<speed>3.8</speed>
<temp>0.00</temp>
<bpm>0</bpm>
<rpm>0.00</rpm>
</extensions>
</trkpt>
<trkpt lat="31.023166656" lon="34.792369843">
<ele>367.429688</ele>
<time>2013-11-19T12:01:29Z</time>
<speed>2.000000</speed>
<extensions>
<speed>2.0</speed>
<temp>0.00</temp>
<bpm>0</bpm>
<rpm>0.00</rpm>
</extensions>
</trkpt>
<trkpt lat="31.023054123" lon="34.792255402">
<ele>367.429688</ele>
<time>2013-11-19T12:01:34Z</time>
<speed>4.080000</speed>
<extensions>
<speed>4.1</speed>
<temp>0.00</temp>
<bpm>0</bpm>
<rpm>0.00</rpm>
</extensions>
</trkpt>
<trkpt lat="31.022930145" lon="34.792087555">
<ele>367.406250</ele>
<time>2013-11-19T12:01:39Z</time>
<speed>4.660000</speed>
<extensions>
<speed>4.7</speed>
<temp>0.00</temp>
<bpm>0</bpm>
<rpm>0.00</rpm>
</extensions>
</trkpt>
<trkpt lat="31.022806168" lon="34.791915894">
<ele>366.687500</ele>
<time>2013-11-19T12:01:44Z</time>
<speed>3.870000</speed>
<extensions>
<speed>3.9</speed>
<temp>0.00</temp>
<bpm>0</bpm>
<rpm>0.00</rpm>
</extensions>
</trkpt>
<trkpt lat="31.022701263" lon="34.791751862">
<ele>366.460938</ele>
<time>2013-11-19T12:01:49Z</time>
<speed>3.920000</speed>
<extensions>
<speed>3.9</speed>
<temp>0.00</temp>
<bpm>0</bpm>
<rpm>0.00</rpm>
</extensions>
</trkpt>
<trkpt lat="31.022607803" lon="34.791595459">
<ele>366.296875</ele>
<time>2013-11-19T12:01:54Z</time>
<speed>4.280000</speed>
<extensions>
<speed>4.3</speed>
<temp>0.00</temp>
<bpm>0</bpm>
<rpm>0.00</rpm>
</extensions>
</trkpt>
<trkpt lat="31.022529602" lon="34.791404724">
<ele>366.593750</ele>
<time>2013-11-19T12:01:59Z</time>
<speed>3.960000</speed>
<extensions>
<speed>4.0</speed>
<temp>0.00</temp>
<bpm>0</bpm>
<rpm>0.00</rpm>
</extensions>
</trkpt>
<trkpt lat="31.022464752" lon="34.791229248">
<ele>366.421875</ele>
<time>2013-11-19T12:02:04Z</time>
<speed>4.400000</speed>
<extensions>
<speed>4.4</speed>
<temp>0.00</temp>
<bpm>0</bpm>
<rpm>0.00</rpm>
</extensions>
</trkpt>
<trkpt lat="31.022380829" lon="34.791038513">
<ele>365.960938</ele>
<time>2013-11-19T12:02:09Z</time>
<speed>4.540000</speed>
<extensions>
<speed>4.5</speed>
<temp>0.00</temp>
<bpm>0</bpm>
<rpm>0.00</rpm>
</extensions>
</trkpt>
<trkpt lat="31.022296906" lon="34.790836334">
<ele>365.648438</ele>
<time>2013-11-19T12:02:14Z</time>
<speed>4.480000</speed>
<extensions>
<speed>4.5</speed>
<temp>0.00</temp>
<bpm>0</bpm>
<rpm>0.00</rpm>
</extensions>
</trkpt>
<trkpt lat="31.022186279" lon="34.790634155">
<ele>365.179688</ele>
<time>2013-11-19T12:02:19Z</time>
<speed>4.550000</speed>
<extensions>
<speed>4.5</speed>
<temp>0.00</temp>
<bpm>0</bpm>
<rpm>0.00</rpm>
</extensions>
</trkpt>
<trkpt lat="31.022075653" lon="34.790424347">
<ele>365.585938</ele>
<time>2013-11-19T12:02:24Z</time>
<speed>4.440000</speed>
<extensions>
<speed>4.4</speed>
<temp>0.00</temp>
<bpm>0</bpm>
<rpm>0.00</rpm>
</extensions>
</trkpt>
<trkpt lat="31.022010803" lon="34.790225983">
<ele>364.820313</ele>
<time>2013-11-19T12:02:29Z</time>
<speed>3.980000</speed>
<extensions>
<speed>4.0</speed>
<temp>0.00</temp>
<bpm>0</bpm>
<rpm>0.00</rpm>
</extensions>
</trkpt>
<trkpt lat="31.021966934" lon="34.790042877">
<ele>363.460938</ele>
<time>2013-11-19T12:02:34Z</time>
<speed>3.790000</speed>
<extensions>
<speed>3.8</speed>
<temp>0.00</temp>
<bpm>0</bpm>
<rpm>0.00</rpm>
</extensions>
</trkpt>
<trkpt lat="31.021896362" lon="34.789844513">
<ele>362.320313</ele>
<time>2013-11-19T12:02:39Z</time>
<speed>4.180000</speed>
<extensions>
<speed>4.2</speed>
<temp>0.00</temp>
<bpm>0</bpm>
<rpm>0.00</rpm>
</extensions>
</trkpt>
<trkpt lat="31.021854401" lon="34.789623260">
<ele>359.859375</ele>
<time>2013-11-19T12:02:44Z</time>
<speed>4.160000</speed>
<extensions>
<speed>4.2</speed>
<temp>0.00</temp>
<bpm>0</bpm>
<rpm>0.00</rpm>
</extensions>
</trkpt>
<trkpt lat="31.021841049" lon="34.789455414">
<ele>358.375000</ele>
<time>2013-11-19T12:02:49Z</time>
<speed>1.610000</speed>
<extensions>
<speed>1.6</speed>
<temp>0.00</temp>
<bpm>0</bpm>
<rpm>0.00</rpm>
</extensions>
</trkpt>
<trkpt lat="31.021842957" lon="34.789371490">
<ele>357.718750</ele>
<time>2013-11-19T12:02:54Z</time>
<speed>1.350000</speed>
<extensions>
<speed>1.4</speed>
<temp>0.00</temp>
<bpm>0</bpm>
<rpm>0.00</rpm>
</extensions>
</trkpt>
<trkpt lat="31.021873474" lon="34.789390564">
<ele>358.976563</ele>
<time>2013-11-19T12:02:59Z</time>
<speed>2.230000</speed>
<extensions>
<speed>2.2</speed>
<temp>0.00</temp>
<bpm>0</bpm>
<rpm>0.00</rpm>
</extensions>
</trkpt>
<trkpt lat="31.021837234" lon="34.789531708">
<ele>360.250000</ele>
<time>2013-11-19T12:03:04Z</time>
<speed>3.440000</speed>
<extensions>
<speed>3.4</speed>
<temp>0.00</temp>
<bpm>0</bpm>
<rpm>0.00</rpm>
</extensions>
</trkpt>
<trkpt lat="31.021755219" lon="34.789669037">
<ele>362.093750</ele>
<time>2013-11-19T12:03:09Z</time>
<speed>3.510000</speed>
<extensions>
<speed>3.5</speed>
<temp>0.00</temp>
<bpm>0</bpm>
<rpm>0.00</rpm>
</extensions>
</trkpt>
<trkpt lat="31.021711349" lon="34.789821625">
<ele>363.000000</ele>
<time>2013-11-19T12:03:14Z</time>
<speed>2.260000</speed>
<extensions>
<speed>2.3</speed>
<temp>0.00</temp>
<bpm>0</bpm>
<rpm>0.00</rpm>
</extensions>
</trkpt>
<trkpt lat="31.021659851" lon="34.789985657">
<ele>363.445313</ele>
<time>2013-11-19T12:03:19Z</time>
<speed>3.700000</speed>
<extensions>
<speed>3.7</speed>
<temp>0.00</temp>
<bpm>0</bpm>
<rpm>0.00</rpm>
</extensions>
</trkpt>
<trkpt lat="31.021587372" lon="34.790142059">
<ele>363.632813</ele>
<time>2013-11-19T12:03:24Z</time>
<speed>3.720000</speed>
<extensions>
<speed>3.7</speed>
<temp>0.00</temp>
<bpm>0</bpm>
<rpm>0.00</rpm>
</extensions>
</trkpt>
<trkpt lat="31.021526337" lon="34.790283203">
<ele>363.546875</ele>
<time>2013-11-19T12:03:29Z</time>
<speed>1.880000</speed>
<extensions>
<speed>1.9</speed>
<temp>0.00</temp>
<bpm>0</bpm>
<rpm>0.00</rpm>
</extensions>
</trkpt>
<trkpt lat="31.021467209" lon="34.790409088">
<ele>363.968750</ele>
<time>2013-11-19T12:03:34Z</time>
<speed>3.320000</speed>
<extensions>
<speed>3.3</speed>
<temp>0.00</temp>
<bpm>0</bpm>
<rpm>0.00</rpm>
</extensions>
</trkpt>
<trkpt lat="31.021324158" lon="34.790523529">
<ele>363.796875</ele>
<time>2013-11-19T12:03:39Z</time>
<speed>3.530000</speed>
<extensions>
<speed>3.5</speed>
<temp>0.00</temp>
<bpm>0</bpm>
<rpm>0.00</rpm>
</extensions>
</trkpt>
<trkpt lat="31.021194458" lon="34.790626526">
<ele>363.851563</ele>
<time>2013-11-19T12:03:44Z</time>
<speed>3.250000</speed>
<extensions>
<speed>3.2</speed>
<temp>0.00</temp>
<bpm>0</bpm>
<rpm>0.00</rpm>
</extensions>
</trkpt>
<trkpt lat="31.021070480" lon="34.790653229">
<ele>363.804688</ele>
<time>2013-11-19T12:03:49Z</time>
<speed>2.800000</speed>
<extensions>
<speed>2.8</speed>
<temp>0.00</temp>
<bpm>0</bpm>
<rpm>0.00</rpm>
</extensions>
</trkpt>
<trkpt lat="31.020982742" lon="34.790611267">
<ele>364.335938</ele>
<time>2013-11-19T12:03:54Z</time>
<speed>2.490000</speed>
<extensions>
<speed>2.5</speed>
<temp>0.00</temp>
<bpm>0</bpm>
<rpm>0.00</rpm>
</extensions>
</trkpt>
<trkpt lat="31.020847321" lon="34.790515900">
<ele>365.054688</ele>
<time>2013-11-19T12:03:59Z</time>
<speed>4.190000</speed>
<extensions>
<speed>4.2</speed>
<temp>0.00</temp>
<bpm>0</bpm>
<rpm>0.00</rpm>
</extensions>
</trkpt>
<trkpt lat="31.020719528" lon="34.790382385">
<ele>365.312500</ele>
<time>2013-11-19T12:04:04Z</time>
<speed>3.880000</speed>
<extensions>
<speed>3.9</speed>
<temp>0.00</temp>
<bpm>0</bpm>
<rpm>0.00</rpm>
</extensions>
</trkpt>
<trkpt lat="31.020645142" lon="34.790218353">
<ele>365.664063</ele>
<time>2013-11-19T12:04:09Z</time>
<speed>4.160000</speed>
<extensions>
<speed>4.2</speed>
<temp>0.00</temp>
<bpm>0</bpm>
<rpm>0.00</rpm>
</extensions>
</trkpt>
<trkpt lat="31.020555496" lon="34.790027618">
<ele>365.789063</ele>
<time>2013-11-19T12:04:14Z</time>
<speed>4.040000</speed>
<extensions>
<speed>4.0</speed>
<temp>0.00</temp>
<bpm>0</bpm>
<rpm>0.00</rpm>
</extensions>
</trkpt>
<trkpt lat="31.020477295" lon="34.789836884">
<ele>365.867188</ele>
<time>2013-11-19T12:04:19Z</time>
<speed>4.190000</speed>
<extensions>
<speed>4.2</speed>
<temp>0.00</temp>
<bpm>0</bpm>
<rpm>0.00</rpm>
</extensions>
</trkpt>
<trkpt lat="31.020381927" lon="34.789649963">
<ele>365.828125</ele>
<time>2013-11-19T12:04:24Z</time>
<speed>4.040000</speed>
<extensions>
<speed>4.0</speed>
<temp>0.00</temp>
<bpm>0</bpm>
<rpm>0.00</rpm>
</extensions>
</trkpt>
<trkpt lat="31.020261765" lon="34.789474487">
<ele>364.500000</ele>
<time>2013-11-19T12:04:29Z</time>
<speed>4.300000</speed>
<extensions>
<speed>4.3</speed>
<temp>0.00</temp>
<bpm>0</bpm>
<rpm>0.00</rpm>
</extensions>
</trkpt>
<trkpt lat="31.020177841" lon="34.789279938">
<ele>364.265625</ele>
<time>2013-11-19T12:04:34Z</time>
<speed>4.040000</speed>
<extensions>
<speed>4.0</speed>
<temp>0.00</temp>
<bpm>0</bpm>
<rpm>0.00</rpm>
</extensions>
</trkpt>
<trkpt lat="31.020076752" lon="34.789176941">
<ele>365.367188</ele>
<time>2013-11-19T12:04:39Z</time>
<speed>1.900000</speed>
<extensions>
<speed>1.9</speed>
<temp>0.00</temp>
<bpm>0</bpm>
<rpm>0.00</rpm>
</extensions>
</trkpt>
<trkpt lat="31.019947052" lon="34.789108276">
<ele>365.562500</ele>
<time>2013-11-19T12:04:44Z</time>
<speed>3.350000</speed>
<extensions>
<speed>3.4</speed>
<temp>0.00</temp>
<bpm>0</bpm>
<rpm>0.00</rpm>
</extensions>
</trkpt>
<trkpt lat="31.019802094" lon="34.788974762">
<ele>366.539063</ele>
<time>2013-11-19T12:04:49Z</time>
<speed>3.620000</speed>
<extensions>
<speed>3.6</speed>
<temp>0.00</temp>
<bpm>0</bpm>
<rpm>0.00</rpm>
</extensions>
</trkpt>
<trkpt lat="31.019680023" lon="34.788883209">
<ele>367.406250</ele>
<time>2013-11-19T12:04:54Z</time>
<speed>2.270000</speed>
<extensions>
<speed>2.3</speed>
<temp>0.00</temp>
<bpm>0</bpm>
<rpm>0.00</rpm>
</extensions>
</trkpt>
<trkpt lat="31.019601822" lon="34.788921356">
<ele>367.460938</ele>
<time>2013-11-19T12:04:59Z</time>
<speed>2.300000</speed>
<extensions>
<speed>2.3</speed>
<temp>0.00</temp>
<bpm>0</bpm>
<rpm>0.00</rpm>
</extensions>
</trkpt>
<trkpt lat="31.019506454" lon="34.788997650">
<ele>366.382813</ele>
<time>2013-11-19T12:05:04Z</time>
<speed>4.340000</speed>
<extensions>
<speed>4.3</speed>
<temp>0.00</temp>
<bpm>0</bpm>
<rpm>0.00</rpm>
</extensions>
</trkpt>
<trkpt lat="31.019281387" lon="34.789089203">
<ele>365.226563</ele>
<time>2013-11-19T12:05:09Z</time>
<speed>4.620000</speed>
<extensions>
<speed>4.6</speed>
<temp>0.00</temp>
<bpm>0</bpm>
<rpm>0.00</rpm>
</extensions>
</trkpt>
<trkpt lat="31.019149780" lon="34.789218903">
<ele>365.359375</ele>
<time>2013-11-19T12:05:14Z</time>
<speed>3.830000</speed>
<extensions>
<speed>3.8</speed>
<temp>0.00</temp>
<bpm>0</bpm>
<rpm>0.00</rpm>
</extensions>
</trkpt>
<trkpt lat="31.018985748" lon="34.789222717">
<ele>365.312500</ele>
<time>2013-11-19T12:05:19Z</time>
<speed>3.830000</speed>
<extensions>
<speed>3.8</speed>
<temp>0.00</temp>
<bpm>0</bpm>
<rpm>0.00</rpm>
</extensions>
</trkpt>
<trkpt lat="31.018836975" lon="34.789104462">
<ele>364.632813</ele>
<time>2013-11-19T12:05:24Z</time>
<speed>3.860000</speed>
<extensions>
<speed>3.9</speed>
<temp>0.00</temp>
<bpm>0</bpm>
<rpm>0.00</rpm>
</extensions>
</trkpt>
<trkpt lat="31.018684387" lon="34.788982391">
<ele>363.351563</ele>
<time>2013-11-19T12:05:29Z</time>
<speed>4.120000</speed>
<extensions>
<speed>4.1</speed>
<temp>0.00</temp>
<bpm>0</bpm>
<rpm>0.00</rpm>
</extensions>
</trkpt>
<trkpt lat="31.018527985" lon="34.788822174">
<ele>362.976563</ele>
<time>2013-11-19T12:05:34Z</time>
<speed>5.110000</speed>
<extensions>
<speed>5.1</speed>
<temp>0.00</temp>
<bpm>0</bpm>
<rpm>0.00</rpm>
</extensions>
</trkpt>
<trkpt lat="31.018335342" lon="34.788642883">
<ele>362.898438</ele>
<time>2013-11-19T12:05:39Z</time>
<speed>5.380000</speed>
<extensions>
<speed>5.4</speed>
<temp>0.00</temp>
<bpm>0</bpm>
<rpm>0.00</rpm>
</extensions>
</trkpt>
<trkpt lat="31.018119812" lon="34.788455963">
<ele>362.890625</ele>
<time>2013-11-19T12:05:44Z</time>
<speed>6.400000</speed>
<extensions>
<speed>6.4</speed>
<temp>0.00</temp>
<bpm>0</bpm>
<rpm>0.00</rpm>
</extensions>
</trkpt>
<trkpt lat="31.017890930" lon="34.788257599">
<ele>362.773438</ele>
<time>2013-11-19T12:05:49Z</time>
<speed>6.190000</speed>
<extensions>
<speed>6.2</speed>
<temp>0.00</temp>
<bpm>0</bpm>
<rpm>0.00</rpm>
</extensions>
</trkpt>
<trkpt lat="31.017656326" lon="34.788074493">
<ele>362.882813</ele>
<time>2013-11-19T12:05:54Z</time>
<speed>6.260000</speed>
<extensions>
<speed>6.3</speed>
<temp>0.00</temp>
<bpm>0</bpm>
<rpm>0.00</rpm>
</extensions>
</trkpt>
<trkpt lat="31.017416000" lon="34.787895203">
<ele>362.093750</ele>
<time>2013-11-19T12:05:59Z</time>
<speed>6.320000</speed>
<extensions>
<speed>6.3</speed>
<temp>0.00</temp>
<bpm>0</bpm>
<rpm>0.00</rpm>
</extensions>
</trkpt>
<trkpt lat="31.017206192" lon="34.787685394">
<ele>361.296875</ele>
<time>2013-11-19T12:06:04Z</time>
<speed>5.700000</speed>
<extensions>
<speed>5.7</speed>
<temp>0.00</temp>
<bpm>0</bpm>
<rpm>0.00</rpm>
</extensions>
</trkpt>
<trkpt lat="31.017063141" lon="34.787448883">
<ele>360.890625</ele>
<time>2013-11-19T12:06:09Z</time>
<speed>5.900000</speed>
<extensions>
<speed>5.9</speed>
<temp>0.00</temp>
<bpm>0</bpm>
<rpm>0.00</rpm>
</extensions>
</trkpt>
<trkpt lat="31.016916275" lon="34.787178040">
<ele>359.750000</ele>
<time>2013-11-19T12:06:14Z</time>
<speed>6.230000</speed>
<extensions>
<speed>6.2</speed>
<temp>0.00</temp>
<bpm>0</bpm>
<rpm>0.00</rpm>
</extensions>
</trkpt>
<trkpt lat="31.016769409" lon="34.786911011">
<ele>359.265625</ele>
<time>2013-11-19T12:06:19Z</time>
<speed>5.800000</speed>
<extensions>
<speed>5.8</speed>
<temp>0.00</temp>
<bpm>0</bpm>
<rpm>0.00</rpm>
</extensions>
</trkpt>
<trkpt lat="31.016632080" lon="34.786674500">
<ele>358.242188</ele>
<time>2013-11-19T12:06:24Z</time>
<speed>5.370000</speed>
<extensions>
<speed>5.4</speed>
<temp>0.00</temp>
<bpm>0</bpm>
<rpm>0.00</rpm>
</extensions>
</trkpt>
<trkpt lat="31.016519547" lon="34.786437988">
<ele>357.992188</ele>
<time>2013-11-19T12:06:29Z</time>
<speed>5.250000</speed>
<extensions>
<speed>5.2</speed>
<temp>0.00</temp>
<bpm>0</bpm>
<rpm>0.00</rpm>
</extensions>
</trkpt>
<trkpt lat="31.016407013" lon="34.786163330">
<ele>357.664063</ele>
<time>2013-11-19T12:06:34Z</time>
<speed>6.380000</speed>
<extensions>
<speed>6.4</speed>
<temp>0.00</temp>
<bpm>0</bpm>
<rpm>0.00</rpm>
</extensions>
</trkpt>
<trkpt lat="31.016267776" lon="34.785873413">
<ele>357.195313</ele>
<time>2013-11-19T12:06:39Z</time>
<speed>6.420000</speed>
<extensions>
<speed>6.4</speed>
<temp>0.00</temp>
<bpm>0</bpm>
<rpm>0.00</rpm>
</extensions>
</trkpt>
<trkpt lat="31.016124725" lon="34.785587311">
<ele>356.843750</ele>
<time>2013-11-19T12:06:44Z</time>
<speed>6.170000</speed>
<extensions>
<speed>6.2</speed>
<temp>0.00</temp>
<bpm>0</bpm>
<rpm>0.00</rpm>
</extensions>
</trkpt>
<trkpt lat="31.015987396" lon="34.785324097">
<ele>355.687500</ele>
<time>2013-11-19T12:06:49Z</time>
<speed>5.490000</speed>
<extensions>
<speed>5.5</speed>
<temp>0.00</temp>
<bpm>0</bpm>
<rpm>0.00</rpm>
</extensions>
</trkpt>
<trkpt lat="31.015861511" lon="34.785072327">
<ele>355.039063</ele>
<time>2013-11-19T12:06:54Z</time>
<speed>5.640000</speed>
<extensions>
<speed>5.6</speed>
<temp>0.00</temp>
<bpm>0</bpm>
<rpm>0.00</rpm>
</extensions>
</trkpt>
<trkpt lat="31.015735626" lon="34.784832001">
<ele>355.101563</ele>
<time>2013-11-19T12:06:59Z</time>
<speed>5.200000</speed>
<extensions>
<speed>5.2</speed>
<temp>0.00</temp>
<bpm>0</bpm>
<rpm>0.00</rpm>
</extensions>
</trkpt>
<trkpt lat="31.015596390" lon="34.784584045">
<ele>355.265625</ele>
<time>2013-11-19T12:07:04Z</time>
<speed>6.260000</speed>
<extensions>
<speed>6.3</speed>
<temp>0.00</temp>
<bpm>0</bpm>
<rpm>0.00</rpm>
</extensions>
</trkpt>
<trkpt lat="31.015462875" lon="34.784294128">
<ele>355.296875</ele>
<time>2013-11-19T12:07:09Z</time>
<speed>6.200000</speed>
<extensions>
<speed>6.2</speed>
<temp>0.00</temp>
<bpm>0</bpm>
<rpm>0.00</rpm>
</extensions>
</trkpt>
<trkpt lat="31.015316010" lon="34.784011841">
<ele>355.625000</ele>
<time>2013-11-19T12:07:14Z</time>
<speed>6.430000</speed>
<extensions>
<speed>6.4</speed>
<temp>0.00</temp>
<bpm>0</bpm>
<rpm>0.00</rpm>
</extensions>
</trkpt>
<trkpt lat="31.015169144" lon="34.783721924">
<ele>355.195313</ele>
<time>2013-11-19T12:07:19Z</time>
<speed>6.330000</speed>
<extensions>
<speed>6.3</speed>
<temp>0.00</temp>
<bpm>0</bpm>
<rpm>0.00</rpm>
</extensions>
</trkpt>
<trkpt lat="31.015029907" lon="34.783439636">
<ele>355.046875</ele>
<time>2013-11-19T12:07:24Z</time>
<speed>5.920000</speed>
<extensions>
<speed>5.9</speed>
<temp>0.00</temp>
<bpm>0</bpm>
<rpm>0.00</rpm>
</extensions>
</trkpt>
<trkpt lat="31.014884949" lon="34.783157349">
<ele>354.757813</ele>
<time>2013-11-19T12:07:29Z</time>
<speed>6.630000</speed>
<extensions>
<speed>6.6</speed>
<temp>0.00</temp>
<bpm>0</bpm>
<rpm>0.00</rpm>
</extensions>
</trkpt>
<trkpt lat="31.014719009" lon="34.782878876">
<ele>354.968750</ele>
<time>2013-11-19T12:07:34Z</time>
<speed>6.170000</speed>
<extensions>
<speed>6.2</speed>
<temp>0.00</temp>
<bpm>0</bpm>
<rpm>0.00</rpm>
</extensions>
</trkpt>
<trkpt lat="31.014575958" lon="34.782608032">
<ele>355.234375</ele>
<time>2013-11-19T12:07:39Z</time>
<speed>6.000000</speed>
<extensions>
<speed>6.0</speed>
<temp>0.00</temp>
<bpm>0</bpm>
<rpm>0.00</rpm>
</extensions>
</trkpt>
<trkpt lat="31.014431000" lon="34.782325745">
<ele>355.453125</ele>
<time>2013-11-19T12:07:44Z</time>
<speed>6.450000</speed>
<extensions>
<speed>6.4</speed>
<temp>0.00</temp>
<bpm>0</bpm>
<rpm>0.00</rpm>
</extensions>
</trkpt>
<trkpt lat="31.014293671" lon="34.782047272">
<ele>355.390625</ele>
<time>2013-11-19T12:07:49Z</time>
<speed>5.930000</speed>
<extensions>
<speed>5.9</speed>
<temp>0.00</temp>
<bpm>0</bpm>
<rpm>0.00</rpm>
</extensions>
</trkpt>
<trkpt lat="31.014162064" lon="34.781795502">
<ele>355.031250</ele>
<time>2013-11-19T12:07:54Z</time>
<speed>5.480000</speed>
<extensions>
<speed>5.5</speed>
<temp>0.00</temp>
<bpm>0</bpm>
<rpm>0.00</rpm>
</extensions>
</trkpt>
<trkpt lat="31.014038086" lon="34.781528473">
<ele>354.921875</ele>
<time>2013-11-19T12:07:59Z</time>
<speed>5.780000</speed>
<extensions>
<speed>5.8</speed>
<temp>0.00</temp>
<bpm>0</bpm>
<rpm>0.00</rpm>
</extensions>
</trkpt>
<trkpt lat="31.013925552" lon="34.781265259">
<ele>354.242188</ele>
<time>2013-11-19T12:08:04Z</time>
<speed>5.320000</speed>
<extensions>
<speed>5.3</speed>
<temp>0.00</temp>
<bpm>0</bpm>
<rpm>0.00</rpm>
</extensions>
</trkpt>
<trkpt lat="31.013793945" lon="34.781021118">
<ele>354.468750</ele>
<time>2013-11-19T12:08:09Z</time>
<speed>5.830000</speed>
<extensions>
<speed>5.8</speed>
<temp>0.00</temp>
<bpm>0</bpm>
<rpm>0.00</rpm>
</extensions>
</trkpt>
<trkpt lat="31.013681412" lon="34.780769348">
<ele>354.656250</ele>
<time>2013-11-19T12:08:14Z</time>
<speed>5.070000</speed>
<extensions>
<speed>5.1</speed>
<temp>0.00</temp>
<bpm>0</bpm>
<rpm>0.00</rpm>
</extensions>
</trkpt>
<trkpt lat="31.013559341" lon="34.780529022">
<ele>354.960938</ele>
<time>2013-11-19T12:08:19Z</time>
<speed>5.560000</speed>
<extensions>
<speed>5.6</speed>
<temp>0.00</temp>
<bpm>0</bpm>
<rpm>0.00</rpm>
</extensions>
</trkpt>
<trkpt lat="31.013431549" lon="34.780277252">
<ele>355.546875</ele>
<time>2013-11-19T12:08:24Z</time>
<speed>5.540000</speed>
<extensions>
<speed>5.5</speed>
<temp>0.00</temp>
<bpm>0</bpm>
<rpm>0.00</rpm>
</extensions>
</trkpt>
<trkpt lat="31.013326645" lon="34.780078888">
<ele>356.601563</ele>
<time>2013-11-19T12:08:29Z</time>
<speed>3.660000</speed>
<extensions>
<speed>3.7</speed>
<temp>0.00</temp>
<bpm>0</bpm>
<rpm>0.00</rpm>
</extensions>
</trkpt>
<trkpt lat="31.013246536" lon="34.779937744">
<ele>357.679688</ele>
<time>2013-11-19T12:08:34Z</time>
<speed>3.490000</speed>
<extensions>
<speed>3.5</speed>
<temp>0.00</temp>
<bpm>0</bpm>
<rpm>0.00</rpm>
</extensions>
</trkpt>
<trkpt lat="31.013139725" lon="34.779781342">
<ele>358.242188</ele>
<time>2013-11-19T12:08:39Z</time>
<speed>4.170000</speed>
<extensions>
<speed>4.2</speed>
<temp>0.00</temp>
<bpm>0</bpm>
<rpm>0.00</rpm>
</extensions>
</trkpt>
<trkpt lat="31.013044357" lon="34.779609680">
<ele>358.054688</ele>
<time>2013-11-19T12:08:44Z</time>
<speed>3.090000</speed>
<extensions>
<speed>3.1</speed>
<temp>0.00</temp>
<bpm>0</bpm>
<rpm>0.00</rpm>
</extensions>
</trkpt>
<trkpt lat="31.012933731" lon="34.779449463">
<ele>356.984375</ele>
<time>2013-11-19T12:08:49Z</time>
<speed>4.910000</speed>
<extensions>
<speed>4.9</speed>
<temp>0.00</temp>
<bpm>0</bpm>
<rpm>0.00</rpm>
</extensions>
</trkpt>
<trkpt lat="31.012741089" lon="34.779220581">
<ele>355.125000</ele>
<time>2013-11-19T12:08:54Z</time>
<speed>6.380000</speed>
<extensions>
<speed>6.4</speed>
<temp>0.00</temp>
<bpm>0</bpm>
<rpm>0.00</rpm>
</extensions>
</trkpt>
<trkpt lat="31.012512207" lon="34.778961182">
<ele>353.781250</ele>
<time>2013-11-19T12:08:59Z</time>
<speed>7.420000</speed>
<extensions>
<speed>7.4</speed>
<temp>0.00</temp>
<bpm>0</bpm>
<rpm>0.00</rpm>
</extensions>
</trkpt>
<trkpt lat="31.012258530" lon="34.778678894">
<ele>352.320313</ele>
<time>2013-11-19T12:09:04Z</time>
<speed>7.870000</speed>
<extensions>
<speed>7.9</speed>
<temp>0.00</temp>
<bpm>0</bpm>
<rpm>0.00</rpm>
</extensions>
</trkpt>
<trkpt lat="31.012014389" lon="34.778392792">
<ele>351.679688</ele>
<time>2013-11-19T12:09:09Z</time>
<speed>7.480000</speed>
<extensions>
<speed>7.5</speed>
<temp>0.00</temp>
<bpm>0</bpm>
<rpm>0.00</rpm>
</extensions>
</trkpt>
<trkpt lat="31.011754990" lon="34.778190613">
<ele>352.351563</ele>
<time>2013-11-19T12:09:14Z</time>
<speed>6.280000</speed>
<extensions>
<speed>6.3</speed>
<temp>0.00</temp>
<bpm>0</bpm>
<rpm>0.00</rpm>
</extensions>
</trkpt>
<trkpt lat="31.011495590" lon="34.778060913">
<ele>351.976563</ele>
<time>2013-11-19T12:09:19Z</time>
<speed>6.290000</speed>
<extensions>
<speed>6.3</speed>
<temp>0.00</temp>
<bpm>0</bpm>
<rpm>0.00</rpm>
</extensions>
</trkpt>
<trkpt lat="31.011375427" lon="34.777835846">
<ele>352.117188</ele>
<time>2013-11-19T12:09:24Z</time>
<speed>4.710000</speed>
<extensions>
<speed>4.7</speed>
<temp>0.00</temp>
<bpm>0</bpm>
<rpm>0.00</rpm>
</extensions>
</trkpt>
<trkpt lat="31.011394501" lon="34.777618408">
<ele>351.171875</ele>
<time>2013-11-19T12:09:29Z</time>
<speed>3.570000</speed>
<extensions>
<speed>3.6</speed>
<temp>0.00</temp>
<bpm>0</bpm>
<rpm>0.00</rpm>
</extensions>
</trkpt>
<trkpt lat="31.011407852" lon="34.777469635">
<ele>350.195313</ele>
<time>2013-11-19T12:09:34Z</time>
<speed>2.580000</speed>
<extensions>
<speed>2.6</speed>
<temp>0.00</temp>
<bpm>0</bpm>
<rpm>0.00</rpm>
</extensions>
</trkpt>
<trkpt lat="31.011453629" lon="34.777290344">
<ele>349.046875</ele>
<time>2013-11-19T12:09:39Z</time>
<speed>4.020000</speed>
<extensions>
<speed>4.0</speed>
<temp>0.00</temp>
<bpm>0</bpm>
<rpm>0.00</rpm>
</extensions>
</trkpt>
<trkpt lat="31.011503220" lon="34.777076721">
<ele>348.117188</ele>
<time>2013-11-19T12:09:44Z</time>
<speed>4.140000</speed>
<extensions>
<speed>4.1</speed>
<temp>0.00</temp>
<bpm>0</bpm>
<rpm>0.00</rpm>
</extensions>
</trkpt>
<trkpt lat="31.011554718" lon="34.776847839">
<ele>347.484375</ele>
<time>2013-11-19T12:09:49Z</time>
<speed>4.570000</speed>
<extensions>
<speed>4.6</speed>
<temp>0.00</temp>
<bpm>0</bpm>
<rpm>0.00</rpm>
</extensions>
</trkpt>
<trkpt lat="31.011615753" lon="34.776599884">
<ele>346.804688</ele>
<time>2013-11-19T12:09:54Z</time>
<speed>5.000000</speed>
<extensions>
<speed>5.0</speed>
<temp>0.00</temp>
<bpm>0</bpm>
<rpm>0.00</rpm>
</extensions>
</trkpt>
<trkpt lat="31.011686325" lon="34.776336670">
<ele>346.000000</ele>
<time>2013-11-19T12:09:59Z</time>
<speed>5.400000</speed>
<extensions>
<speed>5.4</speed>
<temp>0.00</temp>
<bpm>0</bpm>
<rpm>0.00</rpm>
</extensions>
</trkpt>
<trkpt lat="31.011760712" lon="34.776050568">
<ele>345.578125</ele>
<time>2013-11-19T12:10:04Z</time>
<speed>5.500000</speed>
<extensions>
<speed>5.5</speed>
<temp>0.00</temp>
<bpm>0</bpm>
<rpm>0.00</rpm>
</extensions>
</trkpt>
<trkpt lat="31.011825562" lon="34.775768280">
<ele>344.968750</ele>
<time>2013-11-19T12:10:09Z</time>
<speed>5.790000</speed>
<extensions>
<speed>5.8</speed>
<temp>0.00</temp>
<bpm>0</bpm>
<rpm>0.00</rpm>
</extensions>
</trkpt>
<trkpt lat="31.011911392" lon="34.775470734">
<ele>344.304688</ele>
<time>2013-11-19T12:10:14Z</time>
<speed>5.990000</speed>
<extensions>
<speed>6.0</speed>
<temp>0.00</temp>
<bpm>0</bpm>
<rpm>0.00</rpm>
</extensions>
</trkpt>
<trkpt lat="31.011991501" lon="34.775165558">
<ele>343.578125</ele>
<time>2013-11-19T12:10:19Z</time>
<speed>6.270000</speed>
<extensions>
<speed>6.3</speed>
<temp>0.00</temp>
<bpm>0</bpm>
<rpm>0.00</rpm>
</extensions>
</trkpt>
<trkpt lat="31.012079239" lon="34.774845123">
<ele>341.960938</ele>
<time>2013-11-19T12:10:24Z</time>
<speed>6.570000</speed>
<extensions>
<speed>6.6</speed>
<temp>0.00</temp>
<bpm>0</bpm>
<rpm>0.00</rpm>
</extensions>
</trkpt>
<trkpt lat="31.012172699" lon="34.774528503">
<ele>340.515625</ele>
<time>2013-11-19T12:10:29Z</time>
<speed>6.480000</speed>
<extensions>
<speed>6.5</speed>
<temp>0.00</temp>
<bpm>0</bpm>
<rpm>0.00</rpm>
</extensions>
</trkpt>
<trkpt lat="31.012268066" lon="34.774211884">
<ele>338.984375</ele>
<time>2013-11-19T12:10:34Z</time>
<speed>6.510000</speed>
<extensions>
<speed>6.5</speed>
<temp>0.00</temp>
<bpm>0</bpm>
<rpm>0.00</rpm>
</extensions>
</trkpt>
<trkpt lat="31.012350082" lon="34.773887634">
<ele>337.398438</ele>
<time>2013-11-19T12:10:39Z</time>
<speed>6.730000</speed>
<extensions>
<speed>6.7</speed>
<temp>0.00</temp>
<bpm>0</bpm>
<rpm>0.00</rpm>
</extensions>
</trkpt>
<trkpt lat="31.012449265" lon="34.773536682">
<ele>336.109375</ele>
<time>2013-11-19T12:10:44Z</time>
<speed>7.100000</speed>
<extensions>
<speed>7.1</speed>
<temp>0.00</temp>
<bpm>0</bpm>
<rpm>0.00</rpm>
</extensions>
</trkpt>
<trkpt lat="31.012544632" lon="34.773181915">
<ele>335.046875</ele>
<time>2013-11-19T12:10:49Z</time>
<speed>7.130000</speed>
<extensions>
<speed>7.1</speed>
<temp>0.00</temp>
<bpm>0</bpm>
<rpm>0.00</rpm>
</extensions>
</trkpt>
<trkpt lat="31.012624741" lon="34.772827148">
<ele>333.007813</ele>
<time>2013-11-19T12:10:54Z</time>
<speed>7.000000</speed>
<extensions>
<speed>7.0</speed>
<temp>0.00</temp>
<bpm>0</bpm>
<rpm>0.00</rpm>
</extensions>
</trkpt>
<trkpt lat="31.012716293" lon="34.772472382">
<ele>331.960938</ele>
<time>2013-11-19T12:10:59Z</time>
<speed>7.280000</speed>
<extensions>
<speed>7.3</speed>
<temp>0.00</temp>
<bpm>0</bpm>
<rpm>0.00</rpm>
</extensions>
</trkpt>
<trkpt lat="31.012823105" lon="34.772109985">
<ele>330.921875</ele>
<time>2013-11-19T12:11:04Z</time>
<speed>7.380000</speed>
<extensions>
<speed>7.4</speed>
<temp>0.00</temp>
<bpm>0</bpm>
<rpm>0.00</rpm>
</extensions>
</trkpt>
<trkpt lat="31.012922287" lon="34.771743774">
<ele>329.945313</ele>
<time>2013-11-19T12:11:09Z</time>
<speed>7.200000</speed>
<extensions>
<speed>7.2</speed>
<temp>0.00</temp>
<bpm>0</bpm>
<rpm>0.00</rpm>
</extensions>
</trkpt>
<trkpt lat="31.013017654" lon="34.771385193">
<ele>329.187500</ele>
<time>2013-11-19T12:11:14Z</time>
<speed>6.910000</speed>
<extensions>
<speed>6.9</speed>
<temp>0.00</temp>
<bpm>0</bpm>
<rpm>0.00</rpm>
</extensions>
</trkpt>
<trkpt lat="31.013099670" lon="34.771041870">
<ele>328.601563</ele>
<time>2013-11-19T12:11:19Z</time>
<speed>6.800000</speed>
<extensions>
<speed>6.8</speed>
<temp>0.00</temp>
<bpm>0</bpm>
<rpm>0.00</rpm>
</extensions>
</trkpt>
<trkpt lat="31.013191223" lon="34.770694733">
<ele>327.812500</ele>
<time>2013-11-19T12:11:24Z</time>
<speed>7.040000</speed>
<extensions>
<speed>7.0</speed>
<temp>0.00</temp>
<bpm>0</bpm>
<rpm>0.00</rpm>
</extensions>
</trkpt>
<trkpt lat="31.013286591" lon="34.770347595">
<ele>326.929688</ele>
<time>2013-11-19T12:11:29Z</time>
<speed>6.720000</speed>
<extensions>
<speed>6.7</speed>
<temp>0.00</temp>
<bpm>0</bpm>
<rpm>0.00</rpm>
</extensions>
</trkpt>
<trkpt lat="31.013366699" lon="34.770019531">
<ele>326.015625</ele>
<time>2013-11-19T12:11:34Z</time>
<speed>6.330000</speed>
<extensions>
<speed>6.3</speed>
<temp>0.00</temp>
<bpm>0</bpm>
<rpm>0.00</rpm>
</extensions>
</trkpt>
<trkpt lat="31.013442993" lon="34.769710541">
<ele>324.992188</ele>
<time>2013-11-19T12:11:39Z</time>
<speed>5.950000</speed>
<extensions>
<speed>6.0</speed>
<temp>0.00</temp>
<bpm>0</bpm>
<rpm>0.00</rpm>
</extensions>
</trkpt>
<trkpt lat="31.013523102" lon="34.769397736">
<ele>324.210938</ele>
<time>2013-11-19T12:11:44Z</time>
<speed>6.500000</speed>
<extensions>
<speed>6.5</speed>
<temp>0.00</temp>
<bpm>0</bpm>
<rpm>0.00</rpm>
</extensions>
</trkpt>
<trkpt lat="31.013599396" lon="34.769073486">
<ele>323.867188</ele>
<time>2013-11-19T12:11:49Z</time>
<speed>6.070000</speed>
<extensions>
<speed>6.1</speed>
<temp>0.00</temp>
<bpm>0</bpm>
<rpm>0.00</rpm>
</extensions>
</trkpt>
<trkpt lat="31.013664246" lon="34.768772125">
<ele>323.039063</ele>
<time>2013-11-19T12:11:54Z</time>
<speed>5.850000</speed>
<extensions>
<speed>5.8</speed>
<temp>0.00</temp>
<bpm>0</bpm>
<rpm>0.00</rpm>
</extensions>
</trkpt>
<trkpt lat="31.013740540" lon="34.768486023">
<ele>322.382813</ele>
<time>2013-11-19T12:11:59Z</time>
<speed>5.710000</speed>
<extensions>
<speed>5.7</speed>
<temp>0.00</temp>
<bpm>0</bpm>
<rpm>0.00</rpm>
</extensions>
</trkpt>
<trkpt lat="31.013818741" lon="34.768184662">
<ele>322.101563</ele>
<time>2013-11-19T12:12:04Z</time>
<speed>6.500000</speed>
<extensions>
<speed>6.5</speed>
<temp>0.00</temp>
<bpm>0</bpm>
<rpm>0.00</rpm>
</extensions>
</trkpt>
<trkpt lat="31.013923645" lon="34.767841339">
<ele>321.703125</ele>
<time>2013-11-19T12:12:09Z</time>
<speed>7.100000</speed>
<extensions>
<speed>7.1</speed>
<temp>0.00</temp>
<bpm>0</bpm>
<rpm>0.00</rpm>
</extensions>
</trkpt>
<trkpt lat="31.014030457" lon="34.767494202">
<ele>320.976563</ele>
<time>2013-11-19T12:12:14Z</time>
<speed>6.790000</speed>
<extensions>
<speed>6.8</speed>
<temp>0.00</temp>
<bpm>0</bpm>
<rpm>0.00</rpm>
</extensions>
</trkpt>
<trkpt lat="31.014137268" lon="34.767166138">
<ele>320.335938</ele>
<time>2013-11-19T12:12:19Z</time>
<speed>6.440000</speed>
<extensions>
<speed>6.4</speed>
<temp>0.00</temp>
<bpm>0</bpm>
<rpm>0.00</rpm>
</extensions>
</trkpt>
<trkpt lat="31.014236450" lon="34.766853333">
<ele>319.953125</ele>
<time>2013-11-19T12:12:24Z</time>
<speed>6.430000</speed>
<extensions>
<speed>6.4</speed>
<temp>0.00</temp>
<bpm>0</bpm>
<rpm>0.00</rpm>
</extensions>
</trkpt>
<trkpt lat="31.014341354" lon="34.766532898">
<ele>319.367188</ele>
<time>2013-11-19T12:12:29Z</time>
<speed>6.570000</speed>
<extensions>
<speed>6.6</speed>
<temp>0.00</temp>
<bpm>0</bpm>
<rpm>0.00</rpm>
</extensions>
</trkpt>
<trkpt lat="31.014448166" lon="34.766227722">
<ele>319.101563</ele>
<time>2013-11-19T12:12:34Z</time>
<speed>5.960000</speed>
<extensions>
<speed>6.0</speed>
<temp>0.00</temp>
<bpm>0</bpm>
<rpm>0.00</rpm>
</extensions>
</trkpt>
<trkpt lat="31.014539719" lon="34.765968323">
<ele>318.421875</ele>
<time>2013-11-19T12:12:39Z</time>
<speed>4.850000</speed>
<extensions>
<speed>4.8</speed>
<temp>0.00</temp>
<bpm>0</bpm>
<rpm>0.00</rpm>
</extensions>
</trkpt>
<trkpt lat="31.014614105" lon="34.765743256">
<ele>318.039063</ele>
<time>2013-11-19T12:12:44Z</time>
<speed>4.480000</speed>
<extensions>
<speed>4.5</speed>
<temp>0.00</temp>
<bpm>0</bpm>
<rpm>0.00</rpm>
</extensions>
</trkpt>
<trkpt lat="31.014678955" lon="34.765533447">
<ele>317.179688</ele>
<time>2013-11-19T12:12:49Z</time>
<speed>4.130000</speed>
<extensions>
<speed>4.1</speed>
<temp>0.00</temp>
<bpm>0</bpm>
<rpm>0.00</rpm>
</extensions>
</trkpt>
<trkpt lat="31.014738083" lon="34.765338898">
<ele>316.382813</ele>
<time>2013-11-19T12:12:54Z</time>
<speed>3.870000</speed>
<extensions>
<speed>3.9</speed>
<temp>0.00</temp>
<bpm>0</bpm>
<rpm>0.00</rpm>
</extensions>
</trkpt>
<trkpt lat="31.014799118" lon="34.765148163">
<ele>316.882813</ele>
<time>2013-11-19T12:12:59Z</time>
<speed>3.530000</speed>
<extensions>
<speed>3.5</speed>
<temp>0.00</temp>
<bpm>0</bpm>
<rpm>0.00</rpm>
</extensions>
</trkpt>
<trkpt lat="31.014842987" lon="34.765014648">
<ele>316.414063</ele>
<time>2013-11-19T12:13:04Z</time>
<speed>2.730000</speed>
<extensions>
<speed>2.7</speed>
<temp>0.00</temp>
<bpm>0</bpm>
<rpm>0.00</rpm>
</extensions>
</trkpt>
<trkpt lat="31.014884949" lon="34.764892578">
<ele>315.757813</ele>
<time>2013-11-19T12:13:09Z</time>
<speed>2.500000</speed>
<extensions>
<speed>2.5</speed>
<temp>0.00</temp>
<bpm>0</bpm>
<rpm>0.00</rpm>
</extensions>
</trkpt>
<trkpt lat="31.014911652" lon="34.764804840">
<ele>315.023438</ele>
<time>2013-11-19T12:13:14Z</time>
<speed>0.190000</speed>
<extensions>
<speed>0.2</speed>
<temp>0.00</temp>
<bpm>0</bpm>
<rpm>0.00</rpm>
</extensions>
</trkpt>
<trkpt lat="31.014911652" lon="34.764804840">
<ele>314.742188</ele>
<time>2013-11-19T12:13:19Z</time>
<speed>0.030000</speed>
<extensions>
<speed>0.0</speed>
<temp>0.00</temp>
<bpm>0</bpm>
<rpm>0.00</rpm>
</extensions>
</trkpt>
<trkpt lat="31.014911652" lon="34.764804840">
<ele>314.695313</ele>
<time>2013-11-19T12:13:24Z</time>
<extensions>
<speed>0.0</speed>
<temp>0.00</temp>
<bpm>0</bpm>
<rpm>0.00</rpm>
</extensions>
</trkpt>
<trkpt lat="31.014919281" lon="34.764781952">
<ele>314.515625</ele>
<time>2013-11-19T12:13:29Z</time>
<speed>1.660000</speed>
<extensions>
<speed>1.7</speed>
<temp>0.00</temp>
<bpm>0</bpm>
<rpm>0.00</rpm>
</extensions>
</trkpt>
<trkpt lat="31.014959335" lon="34.764659882">
<ele>314.117188</ele>
<time>2013-11-19T12:13:34Z</time>
<speed>3.290000</speed>
<extensions>
<speed>3.3</speed>
<temp>0.00</temp>
<bpm>0</bpm>
<rpm>0.00</rpm>
</extensions>
</trkpt>
<trkpt lat="31.015022278" lon="34.764476776">
<ele>314.226563</ele>
<time>2013-11-19T12:13:39Z</time>
<speed>4.440000</speed>
<extensions>
<speed>4.4</speed>
<temp>0.00</temp>
<bpm>0</bpm>
<rpm>0.00</rpm>
</extensions>
</trkpt>
<trkpt lat="31.015079498" lon="34.764266968">
<ele>313.328125</ele>
<time>2013-11-19T12:13:44Z</time>
<speed>4.380000</speed>
<extensions>
<speed>4.4</speed>
<temp>0.00</temp>
<bpm>0</bpm>
<rpm>0.00</rpm>
</extensions>
</trkpt>
<trkpt lat="31.015146255" lon="34.764060974">
<ele>312.867188</ele>
<time>2013-11-19T12:13:49Z</time>
<speed>3.810000</speed>
<extensions>
<speed>3.8</speed>
<temp>0.00</temp>
<bpm>0</bpm>
<rpm>0.00</rpm>
</extensions>
</trkpt>
<trkpt lat="31.015207291" lon="34.763870239">
<ele>311.937500</ele>
<time>2013-11-19T12:13:54Z</time>
<speed>4.490000</speed>
<extensions>
<speed>4.5</speed>
<temp>0.00</temp>
<bpm>0</bpm>
<rpm>0.00</rpm>
</extensions>
</trkpt>
<trkpt lat="31.015287399" lon="34.763660431">
<ele>311.242188</ele>
<time>2013-11-19T12:13:59Z</time>
<speed>4.260000</speed>
<extensions>
<speed>4.3</speed>
<temp>0.00</temp>
<bpm>0</bpm>
<rpm>0.00</rpm>
</extensions>
</trkpt>
<trkpt lat="31.015365601" lon="34.763454437">
<ele>310.625000</ele>
<time>2013-11-19T12:14:04Z</time>
<speed>4.060000</speed>
<extensions>
<speed>4.1</speed>
<temp>0.00</temp>
<bpm>0</bpm>
<rpm>0.00</rpm>
</extensions>
</trkpt>
<trkpt lat="31.015436172" lon="34.763263702">
<ele>310.031250</ele>
<time>2013-11-19T12:14:09Z</time>
<speed>3.800000</speed>
<extensions>
<speed>3.8</speed>
<temp>0.00</temp>
<bpm>0</bpm>
<rpm>0.00</rpm>
</extensions>
</trkpt>
<trkpt lat="31.015510559" lon="34.763080597">
<ele>310.070313</ele>
<time>2013-11-19T12:14:14Z</time>
<speed>3.600000</speed>
<extensions>
<speed>3.6</speed>
<temp>0.00</temp>
<bpm>0</bpm>
<rpm>0.00</rpm>
</extensions>
</trkpt>
<trkpt lat="31.015598297" lon="34.762954712">
<ele>309.875000</ele>
<time>2013-11-19T12:14:19Z</time>
<speed>2.860000</speed>
<extensions>
<speed>2.9</speed>
<temp>0.00</temp>
<bpm>0</bpm>
<rpm>0.00</rpm>
</extensions>
</trkpt>
<trkpt lat="31.015670776" lon="34.762851715">
<ele>309.507813</ele>
<time>2013-11-19T12:14:24Z</time>
<speed>2.560000</speed>
<extensions>
<speed>2.6</speed>
<temp>0.00</temp>
<bpm>0</bpm>
<rpm>0.00</rpm>
</extensions>
</trkpt>
<trkpt lat="31.015712738" lon="34.762752533">
<ele>310.312500</ele>
<time>2013-11-19T12:14:29Z</time>
<speed>2.010000</speed>
<extensions>
<speed>2.0</speed>
<temp>0.00</temp>
<bpm>0</bpm>
<rpm>0.00</rpm>
</extensions>
</trkpt>
<trkpt lat="31.015741348" lon="34.762664795">
<ele>309.429688</ele>
<time>2013-11-19T12:14:34Z</time>
<speed>0.340000</speed>
<extensions>
<speed>0.3</speed>
<temp>0.00</temp>
<bpm>0</bpm>
<rpm>0.00</rpm>
</extensions>
</trkpt>
<trkpt lat="31.015737534" lon="34.762664795">
<ele>309.218750</ele>
<time>2013-11-19T12:14:39Z</time>
<extensions>
<speed>0.0</speed>
<temp>0.00</temp>
<bpm>0</bpm>
<rpm>0.00</rpm>
</extensions>
</trkpt>
<trkpt lat="31.015735626" lon="34.762664795">
<ele>309.164063</ele>
<time>2013-11-19T12:14:44Z</time>
<speed>0.020000</speed>
<extensions>
<speed>0.0</speed>
<temp>0.00</temp>
<bpm>0</bpm>
<rpm>0.00</rpm>
</extensions>
</trkpt>
<trkpt lat="31.015735626" lon="34.762664795">
<ele>309.093750</ele>
<time>2013-11-19T12:14:49Z</time>
<extensions>
<speed>0.0</speed>
<temp>0.00</temp>
<bpm>0</bpm>
<rpm>0.00</rpm>
</extensions>
</trkpt>
<trkpt lat="31.015735626" lon="34.762664795">
<ele>309.070313</ele>
<time>2013-11-19T12:14:54Z</time>
<extensions>
<speed>0.0</speed>
<temp>0.00</temp>
<bpm>0</bpm>
<rpm>0.00</rpm>
</extensions>
</trkpt>
<trkpt lat="31.015737534" lon="34.762660980">
<ele>309.046875</ele>
<time>2013-11-19T12:14:59Z</time>
<speed>1.160000</speed>
<extensions>
<speed>1.2</speed>
<temp>0.00</temp>
<bpm>0</bpm>
<rpm>0.00</rpm>
</extensions>
</trkpt>
<trkpt lat="31.015773773" lon="34.762565613">
<ele>308.804688</ele>
<time>2013-11-19T12:15:04Z</time>
<speed>2.500000</speed>
<extensions>
<speed>2.5</speed>
<temp>0.00</temp>
<bpm>0</bpm>
<rpm>0.00</rpm>
</extensions>
</trkpt>
<trkpt lat="31.015821457" lon="34.762458801">
<ele>308.898438</ele>
<time>2013-11-19T12:15:09Z</time>
<speed>2.080000</speed>
<extensions>
<speed>2.1</speed>
<temp>0.00</temp>
<bpm>0</bpm>
<rpm>0.00</rpm>
</extensions>
</trkpt>
<trkpt lat="31.015899658" lon="34.762428284">
<ele>309.093750</ele>
<time>2013-11-19T12:15:14Z</time>
<speed>2.370000</speed>
<extensions>
<speed>2.4</speed>
<temp>0.00</temp>
<bpm>0</bpm>
<rpm>0.00</rpm>
</extensions>
</trkpt>
<trkpt lat="31.015985489" lon="34.762409210">
<ele>310.242188</ele>
<time>2013-11-19T12:15:19Z</time>
<speed>0.940000</speed>
<extensions>
<speed>0.9</speed>
<temp>0.00</temp>
<bpm>0</bpm>
<rpm>0.00</rpm>
</extensions>
</trkpt>
<trkpt lat="31.015993118" lon="34.762393951">
<ele>310.070313</ele>
<time>2013-11-19T12:15:24Z</time>
<speed>0.020000</speed>
<extensions>
<speed>0.0</speed>
<temp>0.00</temp>
<bpm>0</bpm>
<rpm>0.00</rpm>
</extensions>
</trkpt>
<trkpt lat="31.015995026" lon="34.762393951">
<ele>310.132813</ele>
<time>2013-11-19T12:15:29Z</time>
<speed>1.050000</speed>
<extensions>
<speed>1.0</speed>
<temp>0.00</temp>
<bpm>0</bpm>
<rpm>0.00</rpm>
</extensions>
</trkpt>
<trkpt lat="31.016000748" lon="34.762435913">
<ele>311.015625</ele>
<time>2013-11-19T12:15:34Z</time>
<speed>1.620000</speed>
<extensions>
<speed>1.6</speed>
<temp>0.00</temp>
<bpm>0</bpm>
<rpm>0.00</rpm>
</extensions>
</trkpt>
<trkpt lat="31.015987396" lon="34.762443542">
<ele>312.617188</ele>
<time>2013-11-19T12:15:39Z</time>
<speed>0.010000</speed>
<extensions>
<speed>0.0</speed>
<temp>0.00</temp>
<bpm>0</bpm>
<rpm>0.00</rpm>
</extensions>
</trkpt>
<trkpt lat="31.015975952" lon="34.762439728">
<ele>313.757813</ele>
<time>2013-11-19T12:15:44Z</time>
<speed>0.140000</speed>
<extensions>
<speed>0.1</speed>
<temp>0.00</temp>
<bpm>0</bpm>
<rpm>0.00</rpm>
</extensions>
</trkpt>
<trkpt lat="31.015974045" lon="34.762435913">
<ele>314.140625</ele>
<time>2013-11-19T12:15:49Z</time>
<speed>0.040000</speed>
<extensions>
<speed>0.0</speed>
<temp>0.00</temp>
<bpm>0</bpm>
<rpm>0.00</rpm>
</extensions>
</trkpt>
<trkpt lat="31.015974045" lon="34.762435913">
<ele>314.164063</ele>
<time>2013-11-19T12:15:54Z</time>
<speed>0.010000</speed>
<extensions>
<speed>0.0</speed>
<temp>0.00</temp>
<bpm>0</bpm>
<rpm>0.00</rpm>
</extensions>
</trkpt>
<trkpt lat="31.015974045" lon="34.762435913">
<ele>314.210938</ele>
<time>2013-11-19T12:15:59Z</time>
<speed>0.140000</speed>
<extensions>
<speed>0.1</speed>
<temp>0.00</temp>
<bpm>0</bpm>
<rpm>0.00</rpm>
</extensions>
</trkpt>
<trkpt lat="31.015947342" lon="34.762485504">
<ele>315.585938</ele>
<time>2013-11-19T12:16:04Z</time>
<speed>2.070000</speed>
<extensions>
<speed>2.1</speed>
<temp>0.00</temp>
<bpm>0</bpm>
<rpm>0.00</rpm>
</extensions>
</trkpt>
<trkpt lat="31.015880585" lon="34.762538910">
<ele>317.570313</ele>
<time>2013-11-19T12:16:09Z</time>
<speed>0.920000</speed>
<extensions>
<speed>0.9</speed>
<temp>0.00</temp>
<bpm>0</bpm>
<rpm>0.00</rpm>
</extensions>
</trkpt>
<trkpt lat="31.015876770" lon="34.762557983">
<ele>318.859375</ele>
<time>2013-11-19T12:16:14Z</time>
<speed>0.080000</speed>
<extensions>
<speed>0.1</speed>
<temp>0.00</temp>
<bpm>0</bpm>
<rpm>0.00</rpm>
</extensions>
</trkpt>
<trkpt lat="31.015874863" lon="34.762569427">
<ele>319.437500</ele>
<time>2013-11-19T12:16:19Z</time>
<speed>0.090000</speed>
<extensions>
<speed>0.1</speed>
<temp>0.00</temp>
<bpm>0</bpm>
<rpm>0.00</rpm>
</extensions>
</trkpt>
<trkpt lat="31.015874863" lon="34.762569427">
<ele>319.437500</ele>
<time>2013-11-19T12:16:24Z</time>
<speed>0.010000</speed>
<extensions>
<speed>0.0</speed>
<temp>0.00</temp>
<bpm>0</bpm>
<rpm>0.00</rpm>
</extensions>
</trkpt>
<trkpt lat="31.015874863" lon="34.762569427">
<ele>319.507813</ele>
<time>2013-11-19T12:16:29Z</time>
<speed>0.320000</speed>
<extensions>
<speed>0.3</speed>
<temp>0.00</temp>
<bpm>0</bpm>
<rpm>0.00</rpm>
</extensions>
</trkpt>
<trkpt lat="31.015869141" lon="34.762538910">
<ele>320.054688</ele>
<time>2013-11-19T12:16:34Z</time>
<speed>1.150000</speed>
<extensions>
<speed>1.1</speed>
<temp>0.00</temp>
<bpm>0</bpm>
<rpm>0.00</rpm>
</extensions>
</trkpt>
<trkpt lat="31.015935898" lon="34.762458801">
<ele>320.648438</ele>
<time>2013-11-19T12:16:39Z</time>
<speed>2.110000</speed>
<extensions>
<speed>2.1</speed>
<temp>0.00</temp>
<bpm>0</bpm>
<rpm>0.00</rpm>
</extensions>
</trkpt>
<trkpt lat="31.015987396" lon="34.762359619">
<ele>320.773438</ele>
<time>2013-11-19T12:16:44Z</time>
<speed>2.110000</speed>
<extensions>
<speed>2.1</speed>
<temp>0.00</temp>
<bpm>0</bpm>
<rpm>0.00</rpm>
</extensions>
</trkpt>
<trkpt lat="31.016033173" lon="34.762248993">
<ele>320.804688</ele>
<time>2013-11-19T12:16:49Z</time>
<speed>2.760000</speed>
<extensions>
<speed>2.8</speed>
<temp>0.00</temp>
<bpm>0</bpm>
<rpm>0.00</rpm>
</extensions>
</trkpt>
<trkpt lat="31.016035080" lon="34.762115479">
<ele>321.000000</ele>
<time>2013-11-19T12:16:54Z</time>
<speed>2.010000</speed>
<extensions>
<speed>2.0</speed>
<temp>0.00</temp>
<bpm>0</bpm>
<rpm>0.00</rpm>
</extensions>
</trkpt>
<trkpt lat="31.016071320" lon="34.761989594">
<ele>320.195313</ele>
<time>2013-11-19T12:16:59Z</time>
<speed>2.800000</speed>
<extensions>
<speed>2.8</speed>
<temp>0.00</temp>
<bpm>0</bpm>
<rpm>0.00</rpm>
</extensions>
</trkpt>
<trkpt lat="31.016096115" lon="34.761840820">
<ele>319.078125</ele>
<time>2013-11-19T12:17:04Z</time>
<speed>2.840000</speed>
<extensions>
<speed>2.8</speed>
<temp>0.00</temp>
<bpm>0</bpm>
<rpm>0.00</rpm>
</extensions>
</trkpt>
<trkpt lat="31.016143799" lon="34.761718750">
<ele>318.031250</ele>
<time>2013-11-19T12:17:09Z</time>
<speed>2.110000</speed>
<extensions>
<speed>2.1</speed>
<temp>0.00</temp>
<bpm>0</bpm>
<rpm>0.00</rpm>
</extensions>
</trkpt>
<trkpt lat="31.016227722" lon="34.761688232">
<ele>317.375000</ele>
<time>2013-11-19T12:17:14Z</time>
<speed>2.490000</speed>
<extensions>
<speed>2.5</speed>
<temp>0.00</temp>
<bpm>0</bpm>
<rpm>0.00</rpm>
</extensions>
</trkpt>
<trkpt lat="31.016326904" lon="34.761688232">
<ele>317.062500</ele>
<time>2013-11-19T12:17:19Z</time>
<speed>2.240000</speed>
<extensions>
<speed>2.2</speed>
<temp>0.00</temp>
<bpm>0</bpm>
<rpm>0.00</rpm>
</extensions>
</trkpt>
<trkpt lat="31.016427994" lon="34.761684418">
<ele>316.351563</ele>
<time>2013-11-19T12:17:24Z</time>
<speed>1.970000</speed>
<extensions>
<speed>2.0</speed>
<temp>0.00</temp>
<bpm>0</bpm>
<rpm>0.00</rpm>
</extensions>
</trkpt>
<trkpt lat="31.016475677" lon="34.761707306">
<ele>316.601563</ele>
<time>2013-11-19T12:17:29Z</time>
<speed>0.300000</speed>
<extensions>
<speed>0.3</speed>
<temp>0.00</temp>
<bpm>0</bpm>
<rpm>0.00</rpm>
</extensions>
</trkpt>
<trkpt lat="31.016471863" lon="34.761707306">
<ele>316.273438</ele>
<time>2013-11-19T12:17:34Z</time>
<speed>0.010000</speed>
<extensions>
<speed>0.0</speed>
<temp>0.00</temp>
<bpm>0</bpm>
<rpm>0.00</rpm>
</extensions>
</trkpt>
<trkpt lat="31.016471863" lon="34.761707306">
<ele>316.367188</ele>
<time>2013-11-19T12:17:39Z</time>
<speed>0.010000</speed>
<extensions>
<speed>0.0</speed>
<temp>0.00</temp>
<bpm>0</bpm>
<rpm>0.00</rpm>
</extensions>
</trkpt>
<trkpt lat="31.016471863" lon="34.761707306">
<ele>316.375000</ele>
<time>2013-11-19T12:17:44Z</time>
<extensions>
<speed>0.0</speed>
<temp>0.00</temp>
<bpm>0</bpm>
<rpm>0.00</rpm>
</extensions>
</trkpt>
<trkpt lat="31.016471863" lon="34.761707306">
<ele>316.351563</ele>
<time>2013-11-19T12:17:49Z</time>
<extensions>
<speed>0.0</speed>
<temp>0.00</temp>
<bpm>0</bpm>
<rpm>0.00</rpm>
</extensions>
</trkpt>
<trkpt lat="31.016471863" lon="34.761707306">
<ele>316.320313</ele>
<time>2013-11-19T12:17:54Z</time>
<speed>0.010000</speed>
<extensions>
<speed>0.0</speed>
<temp>0.00</temp>
<bpm>0</bpm>
<rpm>0.00</rpm>
</extensions>
</trkpt>
<trkpt lat="31.016471863" lon="34.761707306">
<ele>316.289063</ele>
<time>2013-11-19T12:17:59Z</time>
<speed>0.010000</speed>
<extensions>
<speed>0.0</speed>
<temp>0.00</temp>
<bpm>0</bpm>
<rpm>0.00</rpm>
</extensions>
</trkpt>
<trkpt lat="31.016469955" lon="34.761707306">
<ele>316.296875</ele>
<time>2013-11-19T12:18:04Z</time>
<speed>0.010000</speed>
<extensions>
<speed>0.0</speed>
<temp>0.00</temp>
<bpm>0</bpm>
<rpm>0.00</rpm>
</extensions>
</trkpt>
<trkpt lat="31.016469955" lon="34.761707306">
<ele>316.296875</ele>
<time>2013-11-19T12:18:09Z</time>
<extensions>
<speed>0.0</speed>
<temp>0.00</temp>
<bpm>0</bpm>
<rpm>0.00</rpm>
</extensions>
</trkpt>
<trkpt lat="31.016469955" lon="34.761707306">
<ele>316.296875</ele>
<time>2013-11-19T12:18:14Z</time>
<extensions>
<speed>0.0</speed>
<temp>0.00</temp>
<bpm>0</bpm>
<rpm>0.00</rpm>
</extensions>
</trkpt>
<trkpt lat="31.016469955" lon="34.761707306">
<ele>316.304688</ele>
<time>2013-11-19T12:18:19Z</time>
<extensions>
<speed>0.0</speed>
<temp>0.00</temp>
<bpm>0</bpm>
<rpm>0.00</rpm>
</extensions>
</trkpt>
<trkpt lat="31.016469955" lon="34.761707306">
<ele>316.281250</ele>
<time>2013-11-19T12:18:24Z</time>
<extensions>
<speed>0.0</speed>
<temp>0.00</temp>
<bpm>0</bpm>
<rpm>0.00</rpm>
</extensions>
</trkpt>
<trkpt lat="31.016469955" lon="34.761707306">
<ele>316.257813</ele>
<time>2013-11-19T12:18:29Z</time>
<extensions>
<speed>0.0</speed>
<temp>0.00</temp>
<bpm>0</bpm>
<rpm>0.00</rpm>
</extensions>
</trkpt>
<trkpt lat="31.016469955" lon="34.761703491">
<ele>316.242188</ele>
<time>2013-11-19T12:18:34Z</time>
<speed>0.010000</speed>
<extensions>
<speed>0.0</speed>
<temp>0.00</temp>
<bpm>0</bpm>
<rpm>0.00</rpm>
</extensions>
</trkpt>
<trkpt lat="31.016469955" lon="34.761703491">
<ele>316.226563</ele>
<time>2013-11-19T12:18:39Z</time>
<extensions>
<speed>0.0</speed>
<temp>0.00</temp>
<bpm>0</bpm>
<rpm>0.00</rpm>
</extensions>
</trkpt>
<trkpt lat="31.016469955" lon="34.761703491">
<ele>316.234375</ele>
<time>2013-11-19T12:18:44Z</time>
<speed>0.020000</speed>
<extensions>
<speed>0.0</speed>
<temp>0.00</temp>
<bpm>0</bpm>
<rpm>0.00</rpm>
</extensions>
</trkpt>
<trkpt lat="31.016468048" lon="34.761703491">
<ele>316.234375</ele>
<time>2013-11-19T12:18:49Z</time>
<extensions>
<speed>0.0</speed>
<temp>0.00</temp>
<bpm>0</bpm>
<rpm>0.00</rpm>
</extensions>
</trkpt>
<trkpt lat="31.016469955" lon="34.761707306">
<ele>316.468750</ele>
<time>2013-11-19T12:18:54Z</time>
<extensions>
<speed>0.0</speed>
<temp>0.00</temp>
<bpm>0</bpm>
<rpm>0.00</rpm>
</extensions>
</trkpt>
<trkpt lat="31.016469955" lon="34.761707306">
<ele>316.500000</ele>
<time>2013-11-19T12:18:59Z</time>
<speed>0.010000</speed>
<extensions>
<speed>0.0</speed>
<temp>0.00</temp>
<bpm>0</bpm>
<rpm>0.00</rpm>
</extensions>
</trkpt>
<trkpt lat="31.016469955" lon="34.761707306">
<ele>316.492188</ele>
<time>2013-11-19T12:19:04Z</time>
<speed>0.010000</speed>
<extensions>
<speed>0.0</speed>
<temp>0.00</temp>
<bpm>0</bpm>
<rpm>0.00</rpm>
</extensions>
</trkpt>
<trkpt lat="31.016471863" lon="34.761707306">
<ele>316.515625</ele>
<time>2013-11-19T12:19:09Z</time>
<speed>0.020000</speed>
<extensions>
<speed>0.0</speed>
<temp>0.00</temp>
<bpm>0</bpm>
<rpm>0.00</rpm>
</extensions>
</trkpt>
<trkpt lat="31.016468048" lon="34.761707306">
<ele>316.429688</ele>
<time>2013-11-19T12:19:14Z</time>
<speed>0.220000</speed>
<extensions>
<speed>0.2</speed>
<temp>0.00</temp>
<bpm>0</bpm>
<rpm>0.00</rpm>
</extensions>
</trkpt>
<trkpt lat="31.016464233" lon="34.761707306">
<ele>315.882813</ele>
<time>2013-11-19T12:19:19Z</time>
<speed>0.020000</speed>
<extensions>
<speed>0.0</speed>
<temp>0.00</temp>
<bpm>0</bpm>
<rpm>0.00</rpm>
</extensions>
</trkpt>
<trkpt lat="31.016464233" lon="34.761707306">
<ele>315.875000</ele>
<time>2013-11-19T12:19:24Z</time>
<extensions>
<speed>0.0</speed>
<temp>0.00</temp>
<bpm>0</bpm>
<rpm>0.00</rpm>
</extensions>
</trkpt>
<trkpt lat="31.016464233" lon="34.761707306">
<ele>315.882813</ele>
<time>2013-11-19T12:19:29Z</time>
<extensions>
<speed>0.0</speed>
<temp>0.00</temp>
<bpm>0</bpm>
<rpm>0.00</rpm>
</extensions>
</trkpt>
<trkpt lat="31.016464233" lon="34.761707306">
<ele>315.882813</ele>
<time>2013-11-19T12:19:34Z</time>
<extensions>
<speed>0.0</speed>
<temp>0.00</temp>
<bpm>0</bpm>
<rpm>0.00</rpm>
</extensions>
</trkpt>
<trkpt lat="31.016464233" lon="34.761707306">
<ele>315.882813</ele>
<time>2013-11-19T12:19:39Z</time>
<extensions>
<speed>0.0</speed>
<temp>0.00</temp>
<bpm>0</bpm>
<rpm>0.00</rpm>
</extensions>
</trkpt>
<trkpt lat="31.016464233" lon="34.761707306">
<ele>315.898438</ele>
<time>2013-11-19T12:19:44Z</time>
<extensions>
<speed>0.0</speed>
<temp>0.00</temp>
<bpm>0</bpm>
<rpm>0.00</rpm>
</extensions>
</trkpt>
<trkpt lat="31.016464233" lon="34.761707306">
<ele>315.906250</ele>
<time>2013-11-19T12:19:49Z</time>
<speed>0.020000</speed>
<extensions>
<speed>0.0</speed>
<temp>0.00</temp>
<bpm>0</bpm>
<rpm>0.00</rpm>
</extensions>
</trkpt>
<trkpt lat="31.016464233" lon="34.761707306">
<ele>315.890625</ele>
<time>2013-11-19T12:19:54Z</time>
<speed>0.020000</speed>
<extensions>
<speed>0.0</speed>
<temp>0.00</temp>
<bpm>0</bpm>
<rpm>0.00</rpm>
</extensions>
</trkpt>
<trkpt lat="31.016464233" lon="34.761707306">
<ele>315.890625</ele>
<time>2013-11-19T12:19:59Z</time>
<speed>0.050000</speed>
<extensions>
<speed>0.1</speed>
<temp>0.00</temp>
<bpm>0</bpm>
<rpm>0.00</rpm>
</extensions>
</trkpt>
<trkpt lat="31.016504288" lon="34.761760712">
<ele>316.648438</ele>
<time>2013-11-19T12:20:04Z</time>
<speed>2.100000</speed>
<extensions>
<speed>2.1</speed>
<temp>0.00</temp>
<bpm>0</bpm>
<rpm>0.00</rpm>
</extensions>
</trkpt>
<trkpt lat="31.016555786" lon="34.761852264">
<ele>317.359375</ele>
<time>2013-11-19T12:20:09Z</time>
<speed>1.380000</speed>
<extensions>
<speed>1.4</speed>
<temp>0.00</temp>
<bpm>0</bpm>
<rpm>0.00</rpm>
</extensions>
</trkpt>
<trkpt lat="31.016555786" lon="34.761856079">
<ele>318.054688</ele>
<time>2013-11-19T12:20:14Z</time>
<speed>0.910000</speed>
<extensions>
<speed>0.9</speed>
<temp>0.00</temp>
<bpm>0</bpm>
<rpm>0.00</rpm>
</extensions>
</trkpt>
<trkpt lat="31.016595840" lon="34.761890411">
<ele>319.304688</ele>
<time>2013-11-19T12:20:19Z</time>
<speed>1.150000</speed>
<extensions>
<speed>1.1</speed>
<temp>0.00</temp>
<bpm>0</bpm>
<rpm>0.00</rpm>
</extensions>
</trkpt>
<trkpt lat="31.016633987" lon="34.761909485">
<ele>319.289063</ele>
<time>2013-11-19T12:20:24Z</time>
<speed>0.800000</speed>
<extensions>
<speed>0.8</speed>
<temp>0.00</temp>
<bpm>0</bpm>
<rpm>0.00</rpm>
</extensions>
</trkpt>
<trkpt lat="31.016668320" lon="34.761917114">
<ele>319.242188</ele>
<time>2013-11-19T12:20:29Z</time>
<speed>0.180000</speed>
<extensions>
<speed>0.2</speed>
<temp>0.00</temp>
<bpm>0</bpm>
<rpm>0.00</rpm>
</extensions>
</trkpt>
<trkpt lat="31.016683578" lon="34.761962891">
<ele>319.625000</ele>
<time>2013-11-19T12:20:34Z</time>
<speed>1.930000</speed>
<extensions>
<speed>1.9</speed>
<temp>0.00</temp>
<bpm>0</bpm>
<rpm>0.00</rpm>
</extensions>
</trkpt>
<trkpt lat="31.016700745" lon="34.762073517">
<ele>319.968750</ele>
<time>2013-11-19T12:20:39Z</time>
<speed>2.340000</speed>
<extensions>
<speed>2.3</speed>
<temp>0.00</temp>
<bpm>0</bpm>
<rpm>0.00</rpm>
</extensions>
</trkpt>
<trkpt lat="31.016675949" lon="34.762184143">
<ele>319.859375</ele>
<time>2013-11-19T12:20:44Z</time>
<speed>2.340000</speed>
<extensions>
<speed>2.3</speed>
<temp>0.00</temp>
<bpm>0</bpm>
<rpm>0.00</rpm>
</extensions>
</trkpt>
<trkpt lat="31.016653061" lon="34.762306213">
<ele>320.179688</ele>
<time>2013-11-19T12:20:49Z</time>
<speed>2.580000</speed>
<extensions>
<speed>2.6</speed>
<temp>0.00</temp>
<bpm>0</bpm>
<rpm>0.00</rpm>
</extensions>
</trkpt>
<trkpt lat="31.016620636" lon="34.762416840">
<ele>320.726563</ele>
<time>2013-11-19T12:20:54Z</time>
<speed>1.910000</speed>
<extensions>
<speed>1.9</speed>
<temp>0.00</temp>
<bpm>0</bpm>
<rpm>0.00</rpm>
</extensions>
</trkpt>
<trkpt lat="31.016607285" lon="34.762500763">
<ele>320.773438</ele>
<time>2013-11-19T12:20:59Z</time>
<speed>1.800000</speed>
<extensions>
<speed>1.8</speed>
<temp>0.00</temp>
<bpm>0</bpm>
<rpm>0.00</rpm>
</extensions>
</trkpt>
<trkpt lat="31.016595840" lon="34.762603760">
<ele>320.914063</ele>
<time>2013-11-19T12:21:04Z</time>
<speed>2.110000</speed>
<extensions>
<speed>2.1</speed>
<temp>0.00</temp>
<bpm>0</bpm>
<rpm>0.00</rpm>
</extensions>
</trkpt>
<trkpt lat="31.016611099" lon="34.762699127">
<ele>321.179688</ele>
<time>2013-11-19T12:21:09Z</time>
<speed>2.000000</speed>
<extensions>
<speed>2.0</speed>
<temp>0.00</temp>
<bpm>0</bpm>
<rpm>0.00</rpm>
</extensions>
</trkpt>
<trkpt lat="31.016664505" lon="34.762733459">
<ele>320.562500</ele>
<time>2013-11-19T12:21:14Z</time>
<speed>1.990000</speed>
<extensions>
<speed>2.0</speed>
<temp>0.00</temp>
<bpm>0</bpm>
<rpm>0.00</rpm>
</extensions>
</trkpt>
<trkpt lat="31.016687393" lon="34.762664795">
<ele>320.093750</ele>
<time>2013-11-19T12:21:19Z</time>
<speed>1.750000</speed>
<extensions>
<speed>1.8</speed>
<temp>0.00</temp>
<bpm>0</bpm>
<rpm>0.00</rpm>
</extensions>
</trkpt>
<trkpt lat="31.016691208" lon="34.762592316">
<ele>319.859375</ele>
<time>2013-11-19T12:21:24Z</time>
<speed>0.760000</speed>
<extensions>
<speed>0.8</speed>
<temp>0.00</temp>
<bpm>0</bpm>
<rpm>0.00</rpm>
</extensions>
</trkpt>
<trkpt lat="31.016702652" lon="34.762569427">
<ele>319.093750</ele>
<time>2013-11-19T12:21:29Z</time>
<speed>0.900000</speed>
<extensions>
<speed>0.9</speed>
<temp>0.00</temp>
<bpm>0</bpm>
<rpm>0.00</rpm>
</extensions>
</trkpt>
<trkpt lat="31.016740799" lon="34.762538910">
<ele>319.164063</ele>
<time>2013-11-19T12:21:34Z</time>
<speed>0.950000</speed>
<extensions>
<speed>1.0</speed>
<temp>0.00</temp>
<bpm>0</bpm>
<rpm>0.00</rpm>
</extensions>
</trkpt>
<trkpt lat="31.016773224" lon="34.762519836">
<ele>319.140625</ele>
<time>2013-11-19T12:21:39Z</time>
<speed>1.020000</speed>
<extensions>
<speed>1.0</speed>
<temp>0.00</temp>
<bpm>0</bpm>
<rpm>0.00</rpm>
</extensions>
</trkpt>
<trkpt lat="31.016815186" lon="34.762531281">
<ele>318.585938</ele>
<time>2013-11-19T12:21:44Z</time>
<speed>1.200000</speed>
<extensions>
<speed>1.2</speed>
<temp>0.00</temp>
<bpm>0</bpm>
<rpm>0.00</rpm>
</extensions>
</trkpt>
<trkpt lat="31.016860962" lon="34.762542725">
<ele>318.718750</ele>
<time>2013-11-19T12:21:49Z</time>
<speed>1.120000</speed>
<extensions>
<speed>1.1</speed>
<temp>0.00</temp>
<bpm>0</bpm>
<rpm>0.00</rpm>
</extensions>
</trkpt>
<trkpt lat="31.016904831" lon="34.762542725">
<ele>318.710938</ele>
<time>2013-11-19T12:21:54Z</time>
<speed>1.260000</speed>
<extensions>
<speed>1.3</speed>
<temp>0.00</temp>
<bpm>0</bpm>
<rpm>0.00</rpm>
</extensions>
</trkpt>
<trkpt lat="31.016952515" lon="34.762527466">
<ele>318.726563</ele>
<time>2013-11-19T12:21:59Z</time>
<speed>1.090000</speed>
<extensions>
<speed>1.1</speed>
<temp>0.00</temp>
<bpm>0</bpm>
<rpm>0.00</rpm>
</extensions>
</trkpt>
<trkpt lat="31.016996384" lon="34.762538910">
<ele>319.125000</ele>
<time>2013-11-19T12:22:04Z</time>
<speed>1.130000</speed>
<extensions>
<speed>1.1</speed>
<temp>0.00</temp>
<bpm>0</bpm>
<rpm>0.00</rpm>
</extensions>
</trkpt>
<trkpt lat="31.017034531" lon="34.762527466">
<ele>319.601563</ele>
<time>2013-11-19T12:22:09Z</time>
<speed>0.460000</speed>
<extensions>
<speed>0.5</speed>
<temp>0.00</temp>
<bpm>0</bpm>
<rpm>0.00</rpm>
</extensions>
</trkpt>
<trkpt lat="31.017049789" lon="34.762508392">
<ele>319.656250</ele>
<time>2013-11-19T12:22:14Z</time>
<speed>1.350000</speed>
<extensions>
<speed>1.4</speed>
<temp>0.00</temp>
<bpm>0</bpm>
<rpm>0.00</rpm>
</extensions>
</trkpt>
<trkpt lat="31.017089844" lon="34.762390137">
<ele>319.203125</ele>
<time>2013-11-19T12:22:19Z</time>
<speed>2.600000</speed>
<extensions>
<speed>2.6</speed>
<temp>0.00</temp>
<bpm>0</bpm>
<rpm>0.00</rpm>
</extensions>
</trkpt>
<trkpt lat="31.017120361" lon="34.762287140">
<ele>319.500000</ele>
<time>2013-11-19T12:22:24Z</time>
<speed>1.580000</speed>
<extensions>
<speed>1.6</speed>
<temp>0.00</temp>
<bpm>0</bpm>
<rpm>0.00</rpm>
</extensions>
</trkpt>
<trkpt lat="31.017147064" lon="34.762176514">
<ele>319.132813</ele>
<time>2013-11-19T12:22:29Z</time>
<speed>1.970000</speed>
<extensions>
<speed>2.0</speed>
<temp>0.00</temp>
<bpm>0</bpm>
<rpm>0.00</rpm>
</extensions>
</trkpt>
<trkpt lat="31.017192841" lon="34.762054443">
<ele>318.765625</ele>
<time>2013-11-19T12:22:34Z</time>
<speed>2.570000</speed>
<extensions>
<speed>2.6</speed>
<temp>0.00</temp>
<bpm>0</bpm>
<rpm>0.00</rpm>
</extensions>
</trkpt>
<trkpt lat="31.017251968" lon="34.761928558">
<ele>318.679688</ele>
<time>2013-11-19T12:22:39Z</time>
<speed>2.790000</speed>
<extensions>
<speed>2.8</speed>
<temp>0.00</temp>
<bpm>0</bpm>
<rpm>0.00</rpm>
</extensions>
</trkpt>
<trkpt lat="31.017309189" lon="34.761802673">
<ele>319.054688</ele>
<time>2013-11-19T12:22:44Z</time>
<speed>2.500000</speed>
<extensions>
<speed>2.5</speed>
<temp>0.00</temp>
<bpm>0</bpm>
<rpm>0.00</rpm>
</extensions>
</trkpt>
<trkpt lat="31.017377853" lon="34.761657715">
<ele>319.210938</ele>
<time>2013-11-19T12:22:49Z</time>
<speed>3.470000</speed>
<extensions>
<speed>3.5</speed>
<temp>0.00</temp>
<bpm>0</bpm>
<rpm>0.00</rpm>
</extensions>
</trkpt>
<trkpt lat="31.017448425" lon="34.761520386">
<ele>319.328125</ele>
<time>2013-11-19T12:22:54Z</time>
<speed>2.330000</speed>
<extensions>
<speed>2.3</speed>
<temp>0.00</temp>
<bpm>0</bpm>
<rpm>0.00</rpm>
</extensions>
</trkpt>
<trkpt lat="31.017499924" lon="34.761398315">
<ele>319.132813</ele>
<time>2013-11-19T12:22:59Z</time>
<speed>2.770000</speed>
<extensions>
<speed>2.8</speed>
<temp>0.00</temp>
<bpm>0</bpm>
<rpm>0.00</rpm>
</extensions>
</trkpt>
<trkpt lat="31.017549515" lon="34.761280060">
<ele>318.898438</ele>
<time>2013-11-19T12:23:04Z</time>
<speed>2.800000</speed>
<extensions>
<speed>2.8</speed>
<temp>0.00</temp>
<bpm>0</bpm>
<rpm>0.00</rpm>
</extensions>
</trkpt>
<trkpt lat="31.017580032" lon="34.761154175">
<ele>319.054688</ele>
<time>2013-11-19T12:23:09Z</time>
<speed>2.350000</speed>
<extensions>
<speed>2.4</speed>
<temp>0.00</temp>
<bpm>0</bpm>
<rpm>0.00</rpm>
</extensions>
</trkpt>
<trkpt lat="31.017602921" lon="34.761016846">
<ele>319.484375</ele>
<time>2013-11-19T12:23:14Z</time>
<speed>2.190000</speed>
<extensions>
<speed>2.2</speed>
<temp>0.00</temp>
<bpm>0</bpm>
<rpm>0.00</rpm>
</extensions>
</trkpt>
<trkpt lat="31.017562866" lon="34.760894775">
<ele>319.390625</ele>
<time>2013-11-19T12:23:19Z</time>
<speed>2.620000</speed>
<extensions>
<speed>2.6</speed>
<temp>0.00</temp>
<bpm>0</bpm>
<rpm>0.00</rpm>
</extensions>
</trkpt>
<trkpt lat="31.017492294" lon="34.760787964">
<ele>320.179688</ele>
<time>2013-11-19T12:23:24Z</time>
<speed>2.720000</speed>
<extensions>
<speed>2.7</speed>
<temp>0.00</temp>
<bpm>0</bpm>
<rpm>0.00</rpm>
</extensions>
</trkpt>
<trkpt lat="31.017427444" lon="34.760662079">
<ele>320.445313</ele>
<time>2013-11-19T12:23:29Z</time>
<speed>3.100000</speed>
<extensions>
<speed>3.1</speed>
<temp>0.00</temp>
<bpm>0</bpm>
<rpm>0.00</rpm>
</extensions>
</trkpt>
<trkpt lat="31.017404556" lon="34.760520935">
<ele>320.492188</ele>
<time>2013-11-19T12:23:34Z</time>
<speed>3.070000</speed>
<extensions>
<speed>3.1</speed>
<temp>0.00</temp>
<bpm>0</bpm>
<rpm>0.00</rpm>
</extensions>
</trkpt>
<trkpt lat="31.017417908" lon="34.760345459">
<ele>319.898438</ele>
<time>2013-11-19T12:23:39Z</time>
<speed>3.030000</speed>
<extensions>
<speed>3.0</speed>
<temp>0.00</temp>
<bpm>0</bpm>
<rpm>0.00</rpm>
</extensions>
</trkpt>
<trkpt lat="31.017400742" lon="34.760185242">
<ele>319.562500</ele>
<time>2013-11-19T12:23:44Z</time>
<speed>3.270000</speed>
<extensions>
<speed>3.3</speed>
<temp>0.00</temp>
<bpm>0</bpm>
<rpm>0.00</rpm>
</extensions>
</trkpt>
<trkpt lat="31.017372131" lon="34.760131836">
<ele>319.492188</ele>
<time>2013-11-19T12:23:49Z</time>
<speed>0.060000</speed>
<extensions>
<speed>0.1</speed>
<temp>0.00</temp>
<bpm>0</bpm>
<rpm>0.00</rpm>
</extensions>
</trkpt>
<trkpt lat="31.017364502" lon="34.760128021">
<ele>320.000000</ele>
<time>2013-11-19T12:23:54Z</time>
<speed>0.800000</speed>
<extensions>
<speed>0.8</speed>
<temp>0.00</temp>
<bpm>0</bpm>
<rpm>0.00</rpm>
</extensions>
</trkpt>
<trkpt lat="31.017339706" lon="34.760112762">
<ele>319.773438</ele>
<time>2013-11-19T12:23:59Z</time>
<speed>1.250000</speed>
<extensions>
<speed>1.3</speed>
<temp>0.00</temp>
<bpm>0</bpm>
<rpm>0.00</rpm>
</extensions>
</trkpt>
<trkpt lat="31.017309189" lon="34.760116577">
<ele>320.601563</ele>
<time>2013-11-19T12:24:04Z</time>
<speed>1.940000</speed>
<extensions>
<speed>1.9</speed>
<temp>0.00</temp>
<bpm>0</bpm>
<rpm>0.00</rpm>
</extensions>
</trkpt>
<trkpt lat="31.017227173" lon="34.760166168">
<ele>320.984375</ele>
<time>2013-11-19T12:24:09Z</time>
<speed>1.930000</speed>
<extensions>
<speed>1.9</speed>
<temp>0.00</temp>
<bpm>0</bpm>
<rpm>0.00</rpm>
</extensions>
</trkpt>
<trkpt lat="31.017150879" lon="34.760231018">
<ele>321.625000</ele>
<time>2013-11-19T12:24:14Z</time>
<speed>2.680000</speed>
<extensions>
<speed>2.7</speed>
<temp>0.00</temp>
<bpm>0</bpm>
<rpm>0.00</rpm>
</extensions>
</trkpt>
<trkpt lat="31.017082214" lon="34.760330200">
<ele>322.156250</ele>
<time>2013-11-19T12:24:19Z</time>
<speed>2.780000</speed>
<extensions>
<speed>2.8</speed>
<temp>0.00</temp>
<bpm>0</bpm>
<rpm>0.00</rpm>
</extensions>
</trkpt>
<trkpt lat="31.017015457" lon="34.760429382">
<ele>322.593750</ele>
<time>2013-11-19T12:24:24Z</time>
<speed>2.590000</speed>
<extensions>
<speed>2.6</speed>
<temp>0.00</temp>
<bpm>0</bpm>
<rpm>0.00</rpm>
</extensions>
</trkpt>
<trkpt lat="31.016946793" lon="34.760536194">
<ele>323.593750</ele>
<time>2013-11-19T12:24:29Z</time>
<speed>2.310000</speed>
<extensions>
<speed>2.3</speed>
<temp>0.00</temp>
<bpm>0</bpm>
<rpm>0.00</rpm>
</extensions>
</trkpt>
<trkpt lat="31.016876221" lon="34.760646820">
<ele>324.156250</ele>
<time>2013-11-19T12:24:34Z</time>
<speed>2.520000</speed>
<extensions>
<speed>2.5</speed>
<temp>0.00</temp>
<bpm>0</bpm>
<rpm>0.00</rpm>
</extensions>
</trkpt>
<trkpt lat="31.016786575" lon="34.760742188">
<ele>324.445313</ele>
<time>2013-11-19T12:24:39Z</time>
<speed>2.680000</speed>
<extensions>
<speed>2.7</speed>
<temp>0.00</temp>
<bpm>0</bpm>
<rpm>0.00</rpm>
</extensions>
</trkpt>
<trkpt lat="31.016687393" lon="34.760833740">
<ele>324.320313</ele>
<time>2013-11-19T12:24:44Z</time>
<speed>3.260000</speed>
<extensions>
<speed>3.3</speed>
<temp>0.00</temp>
<bpm>0</bpm>
<rpm>0.00</rpm>
</extensions>
</trkpt>
<trkpt lat="31.016582489" lon="34.760932922">
<ele>324.843750</ele>
<time>2013-11-19T12:24:49Z</time>
<speed>3.370000</speed>
<extensions>
<speed>3.4</speed>
<temp>0.00</temp>
<bpm>0</bpm>
<rpm>0.00</rpm>
</extensions>
</trkpt>
<trkpt lat="31.016460419" lon="34.761047363">
<ele>325.523438</ele>
<time>2013-11-19T12:24:54Z</time>
<speed>3.510000</speed>
<extensions>
<speed>3.5</speed>
<temp>0.00</temp>
<bpm>0</bpm>
<rpm>0.00</rpm>
</extensions>
</trkpt>
<trkpt lat="31.016366959" lon="34.761154175">
<ele>325.828125</ele>
<time>2013-11-19T12:24:59Z</time>
<speed>3.070000</speed>
<extensions>
<speed>3.1</speed>
<temp>0.00</temp>
<bpm>0</bpm>
<rpm>0.00</rpm>
</extensions>
</trkpt>
<trkpt lat="31.016254425" lon="34.761230469">
<ele>326.601563</ele>
<time>2013-11-19T12:25:04Z</time>
<speed>1.990000</speed>
<extensions>
<speed>2.0</speed>
<temp>0.00</temp>
<bpm>0</bpm>
<rpm>0.00</rpm>
</extensions>
</trkpt>
<trkpt lat="31.016216278" lon="34.761173248">
<ele>328.109375</ele>
<time>2013-11-19T12:25:09Z</time>
<speed>2.140000</speed>
<extensions>
<speed>2.1</speed>
<temp>0.00</temp>
<bpm>0</bpm>
<rpm>0.00</rpm>
</extensions>
</trkpt>
<trkpt lat="31.016181946" lon="34.761108398">
<ele>328.882813</ele>
<time>2013-11-19T12:25:14Z</time>
<speed>1.060000</speed>
<extensions>
<speed>1.1</speed>
<temp>0.00</temp>
<bpm>0</bpm>
<rpm>0.00</rpm>
</extensions>
</trkpt>
<trkpt lat="31.016174316" lon="34.761077881">
<ele>329.523438</ele>
<time>2013-11-19T12:25:19Z</time>
<speed>0.870000</speed>
<extensions>
<speed>0.9</speed>
<temp>0.00</temp>
<bpm>0</bpm>
<rpm>0.00</rpm>
</extensions>
</trkpt>
<trkpt lat="31.016160965" lon="34.761066437">
<ele>330.015625</ele>
<time>2013-11-19T12:25:24Z</time>
<extensions>
<speed>0.0</speed>
<temp>0.00</temp>
<bpm>0</bpm>
<rpm>0.00</rpm>
</extensions>
</trkpt>
<trkpt lat="31.016151428" lon="34.761054993">
<ele>330.062500</ele>
<time>2013-11-19T12:25:29Z</time>
<speed>1.140000</speed>
<extensions>
<speed>1.1</speed>
<temp>0.00</temp>
<bpm>0</bpm>
<rpm>0.00</rpm>
</extensions>
</trkpt>
<trkpt lat="31.016153336" lon="34.760951996">
<ele>330.437500</ele>
<time>2013-11-19T12:25:34Z</time>
<speed>2.460000</speed>
<extensions>
<speed>2.5</speed>
<temp>0.00</temp>
<bpm>0</bpm>
<rpm>0.00</rpm>
</extensions>
</trkpt>
<trkpt lat="31.016044617" lon="34.760818481">
<ele>330.578125</ele>
<time>2013-11-19T12:25:39Z</time>
<speed>3.290000</speed>
<extensions>
<speed>3.3</speed>
<temp>0.00</temp>
<bpm>0</bpm>
<rpm>0.00</rpm>
</extensions>
</trkpt>
<trkpt lat="31.015930176" lon="34.760730743">
<ele>333.242188</ele>
<time>2013-11-19T12:25:44Z</time>
<speed>3.600000</speed>
<extensions>
<speed>3.6</speed>
<temp>0.00</temp>
<bpm>0</bpm>
<rpm>0.00</rpm>
</extensions>
</trkpt>
<trkpt lat="31.015766144" lon="34.760601044">
<ele>334.570313</ele>
<time>2013-11-19T12:25:49Z</time>
<speed>4.410000</speed>
<extensions>
<speed>4.4</speed>
<temp>0.00</temp>
<bpm>0</bpm>
<rpm>0.00</rpm>
</extensions>
</trkpt>
<trkpt lat="31.015605927" lon="34.760471344">
<ele>335.125000</ele>
<time>2013-11-19T12:25:54Z</time>
<speed>3.880000</speed>
<extensions>
<speed>3.9</speed>
<temp>0.00</temp>
<bpm>0</bpm>
<rpm>0.00</rpm>
</extensions>
</trkpt>
<trkpt lat="31.015447617" lon="34.760341644">
<ele>335.367188</ele>
<time>2013-11-19T12:25:59Z</time>
<speed>3.940000</speed>
<extensions>
<speed>3.9</speed>
<temp>0.00</temp>
<bpm>0</bpm>
<rpm>0.00</rpm>
</extensions>
</trkpt>
<trkpt lat="31.015295029" lon="34.760219574">
<ele>335.742188</ele>
<time>2013-11-19T12:26:04Z</time>
<speed>3.960000</speed>
<extensions>
<speed>4.0</speed>
<temp>0.00</temp>
<bpm>0</bpm>
<rpm>0.00</rpm>
</extensions>
</trkpt>
<trkpt lat="31.015155792" lon="34.760112762">
<ele>336.039063</ele>
<time>2013-11-19T12:26:09Z</time>
<speed>3.760000</speed>
<extensions>
<speed>3.8</speed>
<temp>0.00</temp>
<bpm>0</bpm>
<rpm>0.00</rpm>
</extensions>
</trkpt>
<trkpt lat="31.015031815" lon="34.760021210">
<ele>336.062500</ele>
<time>2013-11-19T12:26:14Z</time>
<speed>2.680000</speed>
<extensions>
<speed>2.7</speed>
<temp>0.00</temp>
<bpm>0</bpm>
<rpm>0.00</rpm>
</extensions>
</trkpt>
<trkpt lat="31.014942169" lon="34.759956360">
<ele>336.007813</ele>
<time>2013-11-19T12:26:19Z</time>
<speed>2.620000</speed>
<extensions>
<speed>2.6</speed>
<temp>0.00</temp>
<bpm>0</bpm>
<rpm>0.00</rpm>
</extensions>
</trkpt>
<trkpt lat="31.014829636" lon="34.759868622">
<ele>336.117188</ele>
<time>2013-11-19T12:26:24Z</time>
<speed>3.340000</speed>
<extensions>
<speed>3.3</speed>
<temp>0.00</temp>
<bpm>0</bpm>
<rpm>0.00</rpm>
</extensions>
</trkpt>
<trkpt lat="31.014692307" lon="34.759784698">
<ele>335.898438</ele>
<time>2013-11-19T12:26:29Z</time>
<speed>3.510000</speed>
<extensions>
<speed>3.5</speed>
<temp>0.00</temp>
<bpm>0</bpm>
<rpm>0.00</rpm>
</extensions>
</trkpt>
<trkpt lat="31.014537811" lon="34.759716034">
<ele>335.656250</ele>
<time>2013-11-19T12:26:34Z</time>
<speed>3.580000</speed>
<extensions>
<speed>3.6</speed>
<temp>0.00</temp>
<bpm>0</bpm>
<rpm>0.00</rpm>
</extensions>
</trkpt>
<trkpt lat="31.014396667" lon="34.759658813">
<ele>335.632813</ele>
<time>2013-11-19T12:26:39Z</time>
<speed>3.260000</speed>
<extensions>
<speed>3.3</speed>
<temp>0.00</temp>
<bpm>0</bpm>
<rpm>0.00</rpm>
</extensions>
</trkpt>
<trkpt lat="31.014280319" lon="34.759639740">
<ele>336.015625</ele>
<time>2013-11-19T12:26:44Z</time>
<speed>2.040000</speed>
<extensions>
<speed>2.0</speed>
<temp>0.00</temp>
<bpm>0</bpm>
<rpm>0.00</rpm>
</extensions>
</trkpt>
<trkpt lat="31.014230728" lon="34.759635925">
<ele>336.359375</ele>
<time>2013-11-19T12:26:49Z</time>
<speed>0.800000</speed>
<extensions>
<speed>0.8</speed>
<temp>0.00</temp>
<bpm>0</bpm>
<rpm>0.00</rpm>
</extensions>
</trkpt>
<trkpt lat="31.014200211" lon="34.759632111">
<ele>336.171875</ele>
<time>2013-11-19T12:26:54Z</time>
<speed>0.900000</speed>
<extensions>
<speed>0.9</speed>
<temp>0.00</temp>
<bpm>0</bpm>
<rpm>0.00</rpm>
</extensions>
</trkpt>
<trkpt lat="31.014125824" lon="34.759632111">
<ele>335.710938</ele>
<time>2013-11-19T12:26:59Z</time>
<speed>1.950000</speed>
<extensions>
<speed>1.9</speed>
<temp>0.00</temp>
<bpm>0</bpm>
<rpm>0.00</rpm>
</extensions>
</trkpt>
<trkpt lat="31.014059067" lon="34.759662628">
<ele>335.390625</ele>
<time>2013-11-19T12:27:04Z</time>
<speed>1.540000</speed>
<extensions>
<speed>1.5</speed>
<temp>0.00</temp>
<bpm>0</bpm>
<rpm>0.00</rpm>
</extensions>
</trkpt>
<trkpt lat="31.014114380" lon="34.759662628">
<ele>334.984375</ele>
<time>2013-11-19T12:27:09Z</time>
<speed>1.040000</speed>
<extensions>
<speed>1.0</speed>
<temp>0.00</temp>
<bpm>0</bpm>
<rpm>0.00</rpm>
</extensions>
</trkpt>
<trkpt lat="31.014165878" lon="34.759658813">
<ele>334.507813</ele>
<time>2013-11-19T12:27:14Z</time>
<speed>1.710000</speed>
<extensions>
<speed>1.7</speed>
<temp>0.00</temp>
<bpm>0</bpm>
<rpm>0.00</rpm>
</extensions>
</trkpt>
<trkpt lat="31.014230728" lon="34.759670258">
<ele>334.179688</ele>
<time>2013-11-19T12:27:19Z</time>
<speed>1.340000</speed>
<extensions>
<speed>1.3</speed>
<temp>0.00</temp>
<bpm>0</bpm>
<rpm>0.00</rpm>
</extensions>
</trkpt>
<trkpt lat="31.014282227" lon="34.759681702">
<ele>333.937500</ele>
<time>2013-11-19T12:27:24Z</time>
<speed>1.070000</speed>
<extensions>
<speed>1.1</speed>
<temp>0.00</temp>
<bpm>0</bpm>
<rpm>0.00</rpm>
</extensions>
</trkpt>
<trkpt lat="31.014316559" lon="34.759674072">
<ele>333.656250</ele>
<time>2013-11-19T12:27:29Z</time>
<speed>1.080000</speed>
<extensions>
<speed>1.1</speed>
<temp>0.00</temp>
<bpm>0</bpm>
<rpm>0.00</rpm>
</extensions>
</trkpt>
<trkpt lat="31.014373779" lon="34.759677887">
<ele>333.468750</ele>
<time>2013-11-19T12:27:34Z</time>
<speed>1.640000</speed>
<extensions>
<speed>1.6</speed>
<temp>0.00</temp>
<bpm>0</bpm>
<rpm>0.00</rpm>
</extensions>
</trkpt>
<trkpt lat="31.014429092" lon="34.759704590">
<ele>333.367188</ele>
<time>2013-11-19T12:27:39Z</time>
<speed>1.650000</speed>
<extensions>
<speed>1.7</speed>
<temp>0.00</temp>
<bpm>0</bpm>
<rpm>0.00</rpm>
</extensions>
</trkpt>
<trkpt lat="31.014513016" lon="34.759746552">
<ele>332.531250</ele>
<time>2013-11-19T12:27:44Z</time>
<speed>2.050000</speed>
<extensions>
<speed>2.1</speed>
<temp>0.00</temp>
<bpm>0</bpm>
<rpm>0.00</rpm>
</extensions>
</trkpt>
<trkpt lat="31.014583588" lon="34.759777069">
<ele>331.976563</ele>
<time>2013-11-19T12:27:49Z</time>
<speed>1.920000</speed>
<extensions>
<speed>1.9</speed>
<temp>0.00</temp>
<bpm>0</bpm>
<rpm>0.00</rpm>
</extensions>
</trkpt>
<trkpt lat="31.014680862" lon="34.759822845">
<ele>332.171875</ele>
<time>2013-11-19T12:27:54Z</time>
<speed>2.410000</speed>
<extensions>
<speed>2.4</speed>
<temp>0.00</temp>
<bpm>0</bpm>
<rpm>0.00</rpm>
</extensions>
</trkpt>
<trkpt lat="31.014764786" lon="34.759906769">
<ele>332.687500</ele>
<time>2013-11-19T12:27:59Z</time>
<speed>2.600000</speed>
<extensions>
<speed>2.6</speed>
<temp>0.00</temp>
<bpm>0</bpm>
<rpm>0.00</rpm>
</extensions>
</trkpt>
<trkpt lat="31.014865875" lon="34.759963989">
<ele>331.710938</ele>
<time>2013-11-19T12:28:04Z</time>
<speed>2.470000</speed>
<extensions>
<speed>2.5</speed>
<temp>0.00</temp>
<bpm>0</bpm>
<rpm>0.00</rpm>
</extensions>
</trkpt>
<trkpt lat="31.014957428" lon="34.759986877">
<ele>331.453125</ele>
<time>2013-11-19T12:28:09Z</time>
<speed>1.760000</speed>
<extensions>
<speed>1.8</speed>
<temp>0.00</temp>
<bpm>0</bpm>
<rpm>0.00</rpm>
</extensions>
</trkpt>
<trkpt lat="31.015024185" lon="34.760028839">
<ele>331.390625</ele>
<time>2013-11-19T12:28:14Z</time>
<speed>1.920000</speed>
<extensions>
<speed>1.9</speed>
<temp>0.00</temp>
<bpm>0</bpm>
<rpm>0.00</rpm>
</extensions>
</trkpt>
<trkpt lat="31.015115738" lon="34.760143280">
<ele>331.226563</ele>
<time>2013-11-19T12:28:19Z</time>
<speed>3.740000</speed>
<extensions>
<speed>3.7</speed>
<temp>0.00</temp>
<bpm>0</bpm>
<rpm>0.00</rpm>
</extensions>
</trkpt>
<trkpt lat="31.015247345" lon="34.760269165">
<ele>330.640625</ele>
<time>2013-11-19T12:28:24Z</time>
<speed>3.460000</speed>
<extensions>
<speed>3.5</speed>
<temp>0.00</temp>
<bpm>0</bpm>
<rpm>0.00</rpm>
</extensions>
</trkpt>
<trkpt lat="31.015371323" lon="34.760379791">
<ele>330.445313</ele>
<time>2013-11-19T12:28:29Z</time>
<speed>3.960000</speed>
<extensions>
<speed>4.0</speed>
<temp>0.00</temp>
<bpm>0</bpm>
<rpm>0.00</rpm>
</extensions>
</trkpt>
<trkpt lat="31.015518188" lon="34.760501862">
<ele>329.679688</ele>
<time>2013-11-19T12:28:34Z</time>
<speed>3.710000</speed>
<extensions>
<speed>3.7</speed>
<temp>0.00</temp>
<bpm>0</bpm>
<rpm>0.00</rpm>
</extensions>
</trkpt>
<trkpt lat="31.015640259" lon="34.760616302">
<ele>329.429688</ele>
<time>2013-11-19T12:28:39Z</time>
<speed>3.600000</speed>
<extensions>
<speed>3.6</speed>
<temp>0.00</temp>
<bpm>0</bpm>
<rpm>0.00</rpm>
</extensions>
</trkpt>
<trkpt lat="31.015777588" lon="34.760715485">
<ele>328.820313</ele>
<time>2013-11-19T12:28:44Z</time>
<speed>3.160000</speed>
<extensions>
<speed>3.2</speed>
<temp>0.00</temp>
<bpm>0</bpm>
<rpm>0.00</rpm>
</extensions>
</trkpt>
<trkpt lat="31.015884399" lon="34.760799408">
<ele>326.765625</ele>
<time>2013-11-19T12:28:49Z</time>
<speed>3.280000</speed>
<extensions>
<speed>3.3</speed>
<temp>0.00</temp>
<bpm>0</bpm>
<rpm>0.00</rpm>
</extensions>
</trkpt>
<trkpt lat="31.016035080" lon="34.760883331">
<ele>326.898438</ele>
<time>2013-11-19T12:28:54Z</time>
<speed>4.150000</speed>
<extensions>
<speed>4.1</speed>
<temp>0.00</temp>
<bpm>0</bpm>
<rpm>0.00</rpm>
</extensions>
</trkpt>
<trkpt lat="31.016172409" lon="34.760746002">
<ele>326.179688</ele>
<time>2013-11-19T12:28:59Z</time>
<speed>4.300000</speed>
<extensions>
<speed>4.3</speed>
<temp>0.00</temp>
<bpm>0</bpm>
<rpm>0.00</rpm>
</extensions>
</trkpt>
<trkpt lat="31.016254425" lon="34.760520935">
<ele>325.750000</ele>
<time>2013-11-19T12:29:04Z</time>
<speed>4.940000</speed>
<extensions>
<speed>4.9</speed>
<temp>0.00</temp>
<bpm>0</bpm>
<rpm>0.00</rpm>
</extensions>
</trkpt>
<trkpt lat="31.016338348" lon="34.760292053">
<ele>325.179688</ele>
<time>2013-11-19T12:29:09Z</time>
<speed>4.700000</speed>
<extensions>
<speed>4.7</speed>
<temp>0.00</temp>
<bpm>0</bpm>
<rpm>0.00</rpm>
</extensions>
</trkpt>
<trkpt lat="31.016414642" lon="34.760036469">
<ele>324.164063</ele>
<time>2013-11-19T12:29:14Z</time>
<speed>4.840000</speed>
<extensions>
<speed>4.8</speed>
<temp>0.00</temp>
<bpm>0</bpm>
<rpm>0.00</rpm>
</extensions>
</trkpt>
<trkpt lat="31.016496658" lon="34.759815216">
<ele>324.335938</ele>
<time>2013-11-19T12:29:19Z</time>
<speed>5.200000</speed>
<extensions>
<speed>5.2</speed>
<temp>0.00</temp>
<bpm>0</bpm>
<rpm>0.00</rpm>
</extensions>
</trkpt>
<trkpt lat="31.016559601" lon="34.759578705">
<ele>325.023438</ele>
<time>2013-11-19T12:29:24Z</time>
<speed>4.600000</speed>
<extensions>
<speed>4.6</speed>
<temp>0.00</temp>
<bpm>0</bpm>
<rpm>0.00</rpm>
</extensions>
</trkpt>
<trkpt lat="31.016645432" lon="34.759330750">
<ele>323.945313</ele>
<time>2013-11-19T12:29:29Z</time>
<speed>5.330000</speed>
<extensions>
<speed>5.3</speed>
<temp>0.00</temp>
<bpm>0</bpm>
<rpm>0.00</rpm>
</extensions>
</trkpt>
<trkpt lat="31.016738892" lon="34.759082794">
<ele>323.671875</ele>
<time>2013-11-19T12:29:34Z</time>
<speed>4.880000</speed>
<extensions>
<speed>4.9</speed>
<temp>0.00</temp>
<bpm>0</bpm>
<rpm>0.00</rpm>
</extensions>
</trkpt>
<trkpt lat="31.016832352" lon="34.758831024">
<ele>323.937500</ele>
<time>2013-11-19T12:29:39Z</time>
<speed>5.260000</speed>
<extensions>
<speed>5.3</speed>
<temp>0.00</temp>
<bpm>0</bpm>
<rpm>0.00</rpm>
</extensions>
</trkpt>
<trkpt lat="31.016937256" lon="34.758567810">
<ele>324.750000</ele>
<time>2013-11-19T12:29:44Z</time>
<speed>5.410000</speed>
<extensions>
<speed>5.4</speed>
<temp>0.00</temp>
<bpm>0</bpm>
<rpm>0.00</rpm>
</extensions>
</trkpt>
<trkpt lat="31.017036438" lon="34.758296967">
<ele>324.820313</ele>
<time>2013-11-19T12:29:49Z</time>
<speed>4.920000</speed>
<extensions>
<speed>4.9</speed>
<temp>0.00</temp>
<bpm>0</bpm>
<rpm>0.00</rpm>
</extensions>
</trkpt>
<trkpt lat="31.017086029" lon="34.758102417">
<ele>325.875000</ele>
<time>2013-11-19T12:29:54Z</time>
<speed>3.520000</speed>
<extensions>
<speed>3.5</speed>
<temp>0.00</temp>
<bpm>0</bpm>
<rpm>0.00</rpm>
</extensions>
</trkpt>
<trkpt lat="31.017007828" lon="34.758010864">
<ele>327.312500</ele>
<time>2013-11-19T12:29:59Z</time>
<speed>1.970000</speed>
<extensions>
<speed>2.0</speed>
<temp>0.00</temp>
<bpm>0</bpm>
<rpm>0.00</rpm>
</extensions>
</trkpt>
<trkpt lat="31.016994476" lon="34.757884979">
<ele>326.218750</ele>
<time>2013-11-19T12:30:04Z</time>
<speed>2.530000</speed>
<extensions>
<speed>2.5</speed>
<temp>0.00</temp>
<bpm>0</bpm>
<rpm>0.00</rpm>
</extensions>
</trkpt>
<trkpt lat="31.017034531" lon="34.757762909">
<ele>325.359375</ele>
<time>2013-11-19T12:30:09Z</time>
<speed>2.600000</speed>
<extensions>
<speed>2.6</speed>
<temp>0.00</temp>
<bpm>0</bpm>
<rpm>0.00</rpm>
</extensions>
</trkpt>
<trkpt lat="31.017086029" lon="34.757625580">
<ele>324.742188</ele>
<time>2013-11-19T12:30:14Z</time>
<speed>3.000000</speed>
<extensions>
<speed>3.0</speed>
<temp>0.00</temp>
<bpm>0</bpm>
<rpm>0.00</rpm>
</extensions>
</trkpt>
<trkpt lat="31.017158508" lon="34.757476807">
<ele>324.367188</ele>
<time>2013-11-19T12:30:19Z</time>
<speed>3.660000</speed>
<extensions>
<speed>3.7</speed>
<temp>0.00</temp>
<bpm>0</bpm>
<rpm>0.00</rpm>
</extensions>
</trkpt>
<trkpt lat="31.017259598" lon="34.757270813">
<ele>323.367188</ele>
<time>2013-11-19T12:30:24Z</time>
<speed>5.020000</speed>
<extensions>
<speed>5.0</speed>
<temp>0.00</temp>
<bpm>0</bpm>
<rpm>0.00</rpm>
</extensions>
</trkpt>
<trkpt lat="31.017391205" lon="34.757068634">
<ele>323.921875</ele>
<time>2013-11-19T12:30:29Z</time>
<speed>4.760000</speed>
<extensions>
<speed>4.8</speed>
<temp>0.00</temp>
<bpm>0</bpm>
<rpm>0.00</rpm>
</extensions>
</trkpt>
<trkpt lat="31.017517090" lon="34.756858826">
<ele>324.820313</ele>
<time>2013-11-19T12:30:34Z</time>
<speed>3.920000</speed>
<extensions>
<speed>3.9</speed>
<temp>0.00</temp>
<bpm>0</bpm>
<rpm>0.00</rpm>
</extensions>
</trkpt>
<trkpt lat="31.017513275" lon="34.756645203">
<ele>324.507813</ele>
<time>2013-11-19T12:30:39Z</time>
<speed>4.210000</speed>
<extensions>
<speed>4.2</speed>
<temp>0.00</temp>
<bpm>0</bpm>
<rpm>0.00</rpm>
</extensions>
</trkpt>
<trkpt lat="31.017436981" lon="34.756465912">
<ele>324.132813</ele>
<time>2013-11-19T12:30:44Z</time>
<speed>2.590000</speed>
<extensions>
<speed>2.6</speed>
<temp>0.00</temp>
<bpm>0</bpm>
<rpm>0.00</rpm>
</extensions>
</trkpt>
<trkpt lat="31.017412186" lon="34.756385803">
<ele>324.218750</ele>
<time>2013-11-19T12:30:49Z</time>
<speed>0.210000</speed>
<extensions>
<speed>0.2</speed>
<temp>0.00</temp>
<bpm>0</bpm>
<rpm>0.00</rpm>
</extensions>
</trkpt>
<trkpt lat="31.017410278" lon="34.756389618">
<ele>324.382813</ele>
<time>2013-11-19T12:30:54Z</time>
<speed>0.010000</speed>
<extensions>
<speed>0.0</speed>
<temp>0.00</temp>
<bpm>0</bpm>
<rpm>0.00</rpm>
</extensions>
</trkpt>
<trkpt lat="31.017410278" lon="34.756389618">
<ele>324.398438</ele>
<time>2013-11-19T12:30:59Z</time>
<speed>0.010000</speed>
<extensions>
<speed>0.0</speed>
<temp>0.00</temp>
<bpm>0</bpm>
<rpm>0.00</rpm>
</extensions>
</trkpt>
<trkpt lat="31.017410278" lon="34.756389618">
<ele>324.343750</ele>
<time>2013-11-19T12:31:04Z</time>
<speed>0.010000</speed>
<extensions>
<speed>0.0</speed>
<temp>0.00</temp>
<bpm>0</bpm>
<rpm>0.00</rpm>
</extensions>
</trkpt>
<trkpt lat="31.017400742" lon="34.756351471">
<ele>324.531250</ele>
<time>2013-11-19T12:31:09Z</time>
<speed>1.080000</speed>
<extensions>
<speed>1.1</speed>
<temp>0.00</temp>
<bpm>0</bpm>
<rpm>0.00</rpm>
</extensions>
</trkpt>
<trkpt lat="31.017398834" lon="34.756336212">
<ele>324.101563</ele>
<time>2013-11-19T12:31:14Z</time>
<extensions>
<speed>0.0</speed>
<temp>0.00</temp>
<bpm>0</bpm>
<rpm>0.00</rpm>
</extensions>
</trkpt>
<trkpt lat="31.017398834" lon="34.756336212">
<ele>324.101563</ele>
<time>2013-11-19T12:31:19Z</time>
<extensions>
<speed>0.0</speed>
<temp>0.00</temp>
<bpm>0</bpm>
<rpm>0.00</rpm>
</extensions>
</trkpt>
<trkpt lat="31.017398834" lon="34.756336212">
<ele>324.109375</ele>
<time>2013-11-19T12:31:24Z</time>
<extensions>
<speed>0.0</speed>
<temp>0.00</temp>
<bpm>0</bpm>
<rpm>0.00</rpm>
</extensions>
</trkpt>
<trkpt lat="31.017398834" lon="34.756336212">
<ele>324.109375</ele>
<time>2013-11-19T12:31:29Z</time>
<extensions>
<speed>0.0</speed>
<temp>0.00</temp>
<bpm>0</bpm>
<rpm>0.00</rpm>
</extensions>
</trkpt>
<trkpt lat="31.017398834" lon="34.756336212">
<ele>324.101563</ele>
<time>2013-11-19T12:31:34Z</time>
<extensions>
<speed>0.0</speed>
<temp>0.00</temp>
<bpm>0</bpm>
<rpm>0.00</rpm>
</extensions>
</trkpt>
<trkpt lat="31.017398834" lon="34.756332397">
<ele>324.109375</ele>
<time>2013-11-19T12:31:39Z</time>
<speed>0.570000</speed>
<extensions>
<speed>0.6</speed>
<temp>0.00</temp>
<bpm>0</bpm>
<rpm>0.00</rpm>
</extensions>
</trkpt>
<trkpt lat="31.017389297" lon="34.756328583">
<ele>324.398438</ele>
<time>2013-11-19T12:31:44Z</time>
<extensions>
<speed>0.0</speed>
<temp>0.00</temp>
<bpm>0</bpm>
<rpm>0.00</rpm>
</extensions>
</trkpt>
<trkpt lat="31.017389297" lon="34.756324768">
<ele>324.398438</ele>
<time>2013-11-19T12:31:49Z</time>
<speed>0.710000</speed>
<extensions>
<speed>0.7</speed>
<temp>0.00</temp>
<bpm>0</bpm>
<rpm>0.00</rpm>
</extensions>
</trkpt>
<trkpt lat="31.017372131" lon="34.756282806">
<ele>324.375000</ele>
<time>2013-11-19T12:31:54Z</time>
<speed>0.410000</speed>
<extensions>
<speed>0.4</speed>
<temp>0.00</temp>
<bpm>0</bpm>
<rpm>0.00</rpm>
</extensions>
</trkpt>
<trkpt lat="31.017360687" lon="34.756263733">
<ele>324.195313</ele>
<time>2013-11-19T12:31:59Z</time>
<speed>0.880000</speed>
<extensions>
<speed>0.9</speed>
<temp>0.00</temp>
<bpm>0</bpm>
<rpm>0.00</rpm>
</extensions>
</trkpt>
<trkpt lat="31.017353058" lon="34.756248474">
<ele>324.320313</ele>
<time>2013-11-19T12:32:04Z</time>
<extensions>
<speed>0.0</speed>
<temp>0.00</temp>
<bpm>0</bpm>
<rpm>0.00</rpm>
</extensions>
</trkpt>
<trkpt lat="31.017353058" lon="34.756248474">
<ele>324.359375</ele>
<time>2013-11-19T12:32:09Z</time>
<speed>0.050000</speed>
<extensions>
<speed>0.1</speed>
<temp>0.00</temp>
<bpm>0</bpm>
<rpm>0.00</rpm>
</extensions>
</trkpt>
<trkpt lat="31.017353058" lon="34.756248474">
<ele>324.382813</ele>
<time>2013-11-19T12:32:14Z</time>
<speed>0.010000</speed>
<extensions>
<speed>0.0</speed>
<temp>0.00</temp>
<bpm>0</bpm>
<rpm>0.00</rpm>
</extensions>
</trkpt>
<trkpt lat="31.017353058" lon="34.756248474">
<ele>324.414063</ele>
<time>2013-11-19T12:32:19Z</time>
<extensions>
<speed>0.0</speed>
<temp>0.00</temp>
<bpm>0</bpm>
<rpm>0.00</rpm>
</extensions>
</trkpt>
<trkpt lat="31.017353058" lon="34.756248474">
<ele>324.414063</ele>
<time>2013-11-19T12:32:24Z</time>
<speed>0.010000</speed>
<extensions>
<speed>0.0</speed>
<temp>0.00</temp>
<bpm>0</bpm>
<rpm>0.00</rpm>
</extensions>
</trkpt>
<trkpt lat="31.017353058" lon="34.756248474">
<ele>324.421875</ele>
<time>2013-11-19T12:32:29Z</time>
<extensions>
<speed>0.0</speed>
<temp>0.00</temp>
<bpm>0</bpm>
<rpm>0.00</rpm>
</extensions>
</trkpt>
<trkpt lat="31.017353058" lon="34.756248474">
<ele>324.414063</ele>
<time>2013-11-19T12:32:34Z</time>
<extensions>
<speed>0.0</speed>
<temp>0.00</temp>
<bpm>0</bpm>
<rpm>0.00</rpm>
</extensions>
</trkpt>
<trkpt lat="31.017353058" lon="34.756248474">
<ele>324.406250</ele>
<time>2013-11-19T12:32:39Z</time>
<extensions>
<speed>0.0</speed>
<temp>0.00</temp>
<bpm>0</bpm>
<rpm>0.00</rpm>
</extensions>
</trkpt>
<trkpt lat="31.017353058" lon="34.756248474">
<ele>324.398438</ele>
<time>2013-11-19T12:32:44Z</time>
<extensions>
<speed>0.0</speed>
<temp>0.00</temp>
<bpm>0</bpm>
<rpm>0.00</rpm>
</extensions>
</trkpt>
<trkpt lat="31.017353058" lon="34.756248474">
<ele>324.390625</ele>
<time>2013-11-19T12:32:49Z</time>
<extensions>
<speed>0.0</speed>
<temp>0.00</temp>
<bpm>0</bpm>
<rpm>0.00</rpm>
</extensions>
</trkpt>
<trkpt lat="31.017353058" lon="34.756248474">
<ele>324.382813</ele>
<time>2013-11-19T12:32:54Z</time>
<extensions>
<speed>0.0</speed>
<temp>0.00</temp>
<bpm>0</bpm>
<rpm>0.00</rpm>
</extensions>
</trkpt>
<trkpt lat="31.017353058" lon="34.756248474">
<ele>324.382813</ele>
<time>2013-11-19T12:32:59Z</time>
<extensions>
<speed>0.0</speed>
<temp>0.00</temp>
<bpm>0</bpm>
<rpm>0.00</rpm>
</extensions>
</trkpt>
<trkpt lat="31.017347336" lon="34.756248474">
<ele>324.375000</ele>
<time>2013-11-19T12:33:04Z</time>
<speed>0.630000</speed>
<extensions>
<speed>0.6</speed>
<temp>0.00</temp>
<bpm>0</bpm>
<rpm>0.00</rpm>
</extensions>
</trkpt>
<trkpt lat="31.017343521" lon="34.756252289">
<ele>324.492188</ele>
<time>2013-11-19T12:33:09Z</time>
<speed>0.710000</speed>
<extensions>
<speed>0.7</speed>
<temp>0.00</temp>
<bpm>0</bpm>
<rpm>0.00</rpm>
</extensions>
</trkpt>
<trkpt lat="31.017343521" lon="34.756195068">
<ele>323.843750</ele>
<time>2013-11-19T12:33:14Z</time>
<speed>1.740000</speed>
<extensions>
<speed>1.7</speed>
<temp>0.00</temp>
<bpm>0</bpm>
<rpm>0.00</rpm>
</extensions>
</trkpt>
<trkpt lat="31.017385483" lon="34.756107330">
<ele>323.046875</ele>
<time>2013-11-19T12:33:19Z</time>
<speed>2.250000</speed>
<extensions>
<speed>2.3</speed>
<temp>0.00</temp>
<bpm>0</bpm>
<rpm>0.00</rpm>
</extensions>
</trkpt>
<trkpt lat="31.017377853" lon="34.755977631">
<ele>322.851563</ele>
<time>2013-11-19T12:33:24Z</time>
<speed>3.070000</speed>
<extensions>
<speed>3.1</speed>
<temp>0.00</temp>
<bpm>0</bpm>
<rpm>0.00</rpm>
</extensions>
</trkpt>
<trkpt lat="31.017349243" lon="34.755809784">
<ele>322.843750</ele>
<time>2013-11-19T12:33:29Z</time>
<speed>3.230000</speed>
<extensions>
<speed>3.2</speed>
<temp>0.00</temp>
<bpm>0</bpm>
<rpm>0.00</rpm>
</extensions>
</trkpt>
<trkpt lat="31.017293930" lon="34.755653381">
<ele>322.718750</ele>
<time>2013-11-19T12:33:34Z</time>
<speed>3.370000</speed>
<extensions>
<speed>3.4</speed>
<temp>0.00</temp>
<bpm>0</bpm>
<rpm>0.00</rpm>
</extensions>
</trkpt>
<trkpt lat="31.017263412" lon="34.755516052">
<ele>322.562500</ele>
<time>2013-11-19T12:33:39Z</time>
<speed>2.690000</speed>
<extensions>
<speed>2.7</speed>
<temp>0.00</temp>
<bpm>0</bpm>
<rpm>0.00</rpm>
</extensions>
</trkpt>
<trkpt lat="31.017259598" lon="34.755397797">
<ele>322.203125</ele>
<time>2013-11-19T12:33:44Z</time>
<speed>2.430000</speed>
<extensions>
<speed>2.4</speed>
<temp>0.00</temp>
<bpm>0</bpm>
<rpm>0.00</rpm>
</extensions>
</trkpt>
<trkpt lat="31.017234802" lon="34.755264282">
<ele>321.921875</ele>
<time>2013-11-19T12:33:49Z</time>
<speed>3.360000</speed>
<extensions>
<speed>3.4</speed>
<temp>0.00</temp>
<bpm>0</bpm>
<rpm>0.00</rpm>
</extensions>
</trkpt>
<trkpt lat="31.017164230" lon="34.755088806">
<ele>321.945313</ele>
<time>2013-11-19T12:33:54Z</time>
<speed>3.850000</speed>
<extensions>
<speed>3.8</speed>
<temp>0.00</temp>
<bpm>0</bpm>
<rpm>0.00</rpm>
</extensions>
</trkpt>
<trkpt lat="31.017026901" lon="34.754936218">
<ele>321.406250</ele>
<time>2013-11-19T12:33:59Z</time>
<speed>4.680000</speed>
<extensions>
<speed>4.7</speed>
<temp>0.00</temp>
<bpm>0</bpm>
<rpm>0.00</rpm>
</extensions>
</trkpt>
<trkpt lat="31.016862869" lon="34.754806519">
<ele>321.320313</ele>
<time>2013-11-19T12:34:04Z</time>
<speed>4.130000</speed>
<extensions>
<speed>4.1</speed>
<temp>0.00</temp>
<bpm>0</bpm>
<rpm>0.00</rpm>
</extensions>
</trkpt>
<trkpt lat="31.016696930" lon="34.754684448">
<ele>321.585938</ele>
<time>2013-11-19T12:34:09Z</time>
<speed>4.220000</speed>
<extensions>
<speed>4.2</speed>
<temp>0.00</temp>
<bpm>0</bpm>
<rpm>0.00</rpm>
</extensions>
</trkpt>
<trkpt lat="31.016559601" lon="34.754566193">
<ele>321.320313</ele>
<time>2013-11-19T12:34:14Z</time>
<speed>4.050000</speed>
<extensions>
<speed>4.0</speed>
<temp>0.00</temp>
<bpm>0</bpm>
<rpm>0.00</rpm>
</extensions>
</trkpt>
<trkpt lat="31.016429901" lon="34.754432678">
<ele>321.109375</ele>
<time>2013-11-19T12:34:19Z</time>
<speed>3.470000</speed>
<extensions>
<speed>3.5</speed>
<temp>0.00</temp>
<bpm>0</bpm>
<rpm>0.00</rpm>
</extensions>
</trkpt>
<trkpt lat="31.016311646" lon="34.754329681">
<ele>320.656250</ele>
<time>2013-11-19T12:34:24Z</time>
<speed>3.220000</speed>
<extensions>
<speed>3.2</speed>
<temp>0.00</temp>
<bpm>0</bpm>
<rpm>0.00</rpm>
</extensions>
</trkpt>
<trkpt lat="31.016244888" lon="34.754199982">
<ele>320.968750</ele>
<time>2013-11-19T12:34:29Z</time>
<speed>2.850000</speed>
<extensions>
<speed>2.9</speed>
<temp>0.00</temp>
<bpm>0</bpm>
<rpm>0.00</rpm>
</extensions>
</trkpt>
<trkpt lat="31.016223907" lon="34.754032135">
<ele>320.898438</ele>
<time>2013-11-19T12:34:34Z</time>
<speed>3.590000</speed>
<extensions>
<speed>3.6</speed>
<temp>0.00</temp>
<bpm>0</bpm>
<rpm>0.00</rpm>
</extensions>
</trkpt>
<trkpt lat="31.016237259" lon="34.753822327">
<ele>320.765625</ele>
<time>2013-11-19T12:34:39Z</time>
<speed>4.040000</speed>
<extensions>
<speed>4.0</speed>
<temp>0.00</temp>
<bpm>0</bpm>
<rpm>0.00</rpm>
</extensions>
</trkpt>
<trkpt lat="31.016262054" lon="34.753623962">
<ele>320.421875</ele>
<time>2013-11-19T12:34:44Z</time>
<speed>3.420000</speed>
<extensions>
<speed>3.4</speed>
<temp>0.00</temp>
<bpm>0</bpm>
<rpm>0.00</rpm>
</extensions>
</trkpt>
<trkpt lat="31.016281128" lon="34.753475189">
<ele>320.390625</ele>
<time>2013-11-19T12:34:49Z</time>
<speed>2.760000</speed>
<extensions>
<speed>2.8</speed>
<temp>0.00</temp>
<bpm>0</bpm>
<rpm>0.00</rpm>
</extensions>
</trkpt>
<trkpt lat="31.016332626" lon="34.753318787">
<ele>320.320313</ele>
<time>2013-11-19T12:34:54Z</time>
<speed>3.840000</speed>
<extensions>
<speed>3.8</speed>
<temp>0.00</temp>
<bpm>0</bpm>
<rpm>0.00</rpm>
</extensions>
</trkpt>
<trkpt lat="31.016380310" lon="34.753147125">
<ele>320.062500</ele>
<time>2013-11-19T12:34:59Z</time>
<speed>3.440000</speed>
<extensions>
<speed>3.4</speed>
<temp>0.00</temp>
<bpm>0</bpm>
<rpm>0.00</rpm>
</extensions>
</trkpt>
<trkpt lat="31.016403198" lon="34.752975464">
<ele>318.968750</ele>
<time>2013-11-19T12:35:04Z</time>
<speed>3.500000</speed>
<extensions>
<speed>3.5</speed>
<temp>0.00</temp>
<bpm>0</bpm>
<rpm>0.00</rpm>
</extensions>
</trkpt>
<trkpt lat="31.016452789" lon="34.752796173">
<ele>320.820313</ele>
<time>2013-11-19T12:35:09Z</time>
<speed>3.870000</speed>
<extensions>
<speed>3.9</speed>
<temp>0.00</temp>
<bpm>0</bpm>
<rpm>0.00</rpm>
</extensions>
</trkpt>
<trkpt lat="31.016494751" lon="34.752590179">
<ele>320.789063</ele>
<time>2013-11-19T12:35:14Z</time>
<speed>4.120000</speed>
<extensions>
<speed>4.1</speed>
<temp>0.00</temp>
<bpm>0</bpm>
<rpm>0.00</rpm>
</extensions>
</trkpt>
<trkpt lat="31.016534805" lon="34.752376556">
<ele>321.312500</ele>
<time>2013-11-19T12:35:19Z</time>
<speed>4.560000</speed>
<extensions>
<speed>4.6</speed>
<temp>0.00</temp>
<bpm>0</bpm>
<rpm>0.00</rpm>
</extensions>
</trkpt>
<trkpt lat="31.016569138" lon="34.752147675">
<ele>321.320313</ele>
<time>2013-11-19T12:35:24Z</time>
<speed>4.310000</speed>
<extensions>
<speed>4.3</speed>
<temp>0.00</temp>
<bpm>0</bpm>
<rpm>0.00</rpm>
</extensions>
</trkpt>
<trkpt lat="31.016597748" lon="34.751918793">
<ele>321.234375</ele>
<time>2013-11-19T12:35:29Z</time>
<speed>4.130000</speed>
<extensions>
<speed>4.1</speed>
<temp>0.00</temp>
<bpm>0</bpm>
<rpm>0.00</rpm>
</extensions>
</trkpt>
<trkpt lat="31.016643524" lon="34.751689911">
<ele>321.171875</ele>
<time>2013-11-19T12:35:34Z</time>
<speed>4.410000</speed>
<extensions>
<speed>4.4</speed>
<temp>0.00</temp>
<bpm>0</bpm>
<rpm>0.00</rpm>
</extensions>
</trkpt>
<trkpt lat="31.016681671" lon="34.751502991">
<ele>321.406250</ele>
<time>2013-11-19T12:35:39Z</time>
<speed>3.550000</speed>
<extensions>
<speed>3.5</speed>
<temp>0.00</temp>
<bpm>0</bpm>
<rpm>0.00</rpm>
</extensions>
</trkpt>
<trkpt lat="31.016702652" lon="34.751316071">
<ele>321.429688</ele>
<time>2013-11-19T12:35:44Z</time>
<speed>3.640000</speed>
<extensions>
<speed>3.6</speed>
<temp>0.00</temp>
<bpm>0</bpm>
<rpm>0.00</rpm>
</extensions>
</trkpt>
<trkpt lat="31.016748428" lon="34.751098633">
<ele>321.382813</ele>
<time>2013-11-19T12:35:49Z</time>
<speed>4.440000</speed>
<extensions>
<speed>4.4</speed>
<temp>0.00</temp>
<bpm>0</bpm>
<rpm>0.00</rpm>
</extensions>
</trkpt>
<trkpt lat="31.016798019" lon="34.750892639">
<ele>321.437500</ele>
<time>2013-11-19T12:35:54Z</time>
<speed>4.070000</speed>
<extensions>
<speed>4.1</speed>
<temp>0.00</temp>
<bpm>0</bpm>
<rpm>0.00</rpm>
</extensions>
</trkpt>
<trkpt lat="31.016843796" lon="34.750682831">
<ele>321.757813</ele>
<time>2013-11-19T12:35:59Z</time>
<speed>4.160000</speed>
<extensions>
<speed>4.2</speed>
<temp>0.00</temp>
<bpm>0</bpm>
<rpm>0.00</rpm>
</extensions>
</trkpt>
<trkpt lat="31.016860962" lon="34.750484467">
<ele>322.554688</ele>
<time>2013-11-19T12:36:04Z</time>
<speed>2.910000</speed>
<extensions>
<speed>2.9</speed>
<temp>0.00</temp>
<bpm>0</bpm>
<rpm>0.00</rpm>
</extensions>
</trkpt>
<trkpt lat="31.016845703" lon="34.750354767">
<ele>322.757813</ele>
<time>2013-11-19T12:36:09Z</time>
<speed>2.520000</speed>
<extensions>
<speed>2.5</speed>
<temp>0.00</temp>
<bpm>0</bpm>
<rpm>0.00</rpm>
</extensions>
</trkpt>
<trkpt lat="31.016834259" lon="34.750217438">
<ele>322.914063</ele>
<time>2013-11-19T12:36:14Z</time>
<speed>3.030000</speed>
<extensions>
<speed>3.0</speed>
<temp>0.00</temp>
<bpm>0</bpm>
<rpm>0.00</rpm>
</extensions>
</trkpt>
<trkpt lat="31.016834259" lon="34.750068665">
<ele>323.414063</ele>
<time>2013-11-19T12:36:19Z</time>
<speed>2.530000</speed>
<extensions>
<speed>2.5</speed>
<temp>0.00</temp>
<bpm>0</bpm>
<rpm>0.00</rpm>
</extensions>
</trkpt>
<trkpt lat="31.016826630" lon="34.750022888">
<ele>323.710938</ele>
<time>2013-11-19T12:36:24Z</time>
<speed>0.330000</speed>
<extensions>
<speed>0.3</speed>
<temp>0.00</temp>
<bpm>0</bpm>
<rpm>0.00</rpm>
</extensions>
</trkpt>
<trkpt lat="31.016824722" lon="34.749977112">
<ele>324.242188</ele>
<time>2013-11-19T12:36:29Z</time>
<speed>1.150000</speed>
<extensions>
<speed>1.1</speed>
<temp>0.00</temp>
<bpm>0</bpm>
<rpm>0.00</rpm>
</extensions>
</trkpt>
<trkpt lat="31.016832352" lon="34.749927521">
<ele>324.695313</ele>
<time>2013-11-19T12:36:34Z</time>
<speed>0.740000</speed>
<extensions>
<speed>0.7</speed>
<temp>0.00</temp>
<bpm>0</bpm>
<rpm>0.00</rpm>
</extensions>
</trkpt>
<trkpt lat="31.016839981" lon="34.749874115">
<ele>325.031250</ele>
<time>2013-11-19T12:36:39Z</time>
<speed>1.010000</speed>
<extensions>
<speed>1.0</speed>
<temp>0.00</temp>
<bpm>0</bpm>
<rpm>0.00</rpm>
</extensions>
</trkpt>
<trkpt lat="31.016839981" lon="34.749809265">
<ele>325.570313</ele>
<time>2013-11-19T12:36:44Z</time>
<speed>1.040000</speed>
<extensions>
<speed>1.0</speed>
<temp>0.00</temp>
<bpm>0</bpm>
<rpm>0.00</rpm>
</extensions>
</trkpt>
<trkpt lat="31.016860962" lon="34.749755859">
<ele>326.398438</ele>
<time>2013-11-19T12:36:49Z</time>
<speed>1.220000</speed>
<extensions>
<speed>1.2</speed>
<temp>0.00</temp>
<bpm>0</bpm>
<rpm>0.00</rpm>
</extensions>
</trkpt>
<trkpt lat="31.016887665" lon="34.749706268">
<ele>327.093750</ele>
<time>2013-11-19T12:36:54Z</time>
<speed>0.630000</speed>
<extensions>
<speed>0.6</speed>
<temp>0.00</temp>
<bpm>0</bpm>
<rpm>0.00</rpm>
</extensions>
</trkpt>
<trkpt lat="31.016902924" lon="34.749664307">
<ele>327.171875</ele>
<time>2013-11-19T12:36:59Z</time>
<speed>1.020000</speed>
<extensions>
<speed>1.0</speed>
<temp>0.00</temp>
<bpm>0</bpm>
<rpm>0.00</rpm>
</extensions>
</trkpt>
<trkpt lat="31.016927719" lon="34.749614716">
<ele>327.406250</ele>
<time>2013-11-19T12:37:04Z</time>
<speed>0.400000</speed>
<extensions>
<speed>0.4</speed>
<temp>0.00</temp>
<bpm>0</bpm>
<rpm>0.00</rpm>
</extensions>
</trkpt>
<trkpt lat="31.016929626" lon="34.749607086">
<ele>327.140625</ele>
<time>2013-11-19T12:37:09Z</time>
<extensions>
<speed>0.0</speed>
<temp>0.00</temp>
<bpm>0</bpm>
<rpm>0.00</rpm>
</extensions>
</trkpt>
<trkpt lat="31.016927719" lon="34.749607086">
<ele>327.125000</ele>
<time>2013-11-19T12:37:14Z</time>
<speed>0.070000</speed>
<extensions>
<speed>0.1</speed>
<temp>0.00</temp>
<bpm>0</bpm>
<rpm>0.00</rpm>
</extensions>
</trkpt>
<trkpt lat="31.016927719" lon="34.749607086">
<ele>327.070313</ele>
<time>2013-11-19T12:37:19Z</time>
<extensions>
<speed>0.0</speed>
<temp>0.00</temp>
<bpm>0</bpm>
<rpm>0.00</rpm>
</extensions>
</trkpt>
<trkpt lat="31.016927719" lon="34.749607086">
<ele>327.070313</ele>
<time>2013-11-19T12:37:24Z</time>
<extensions>
<speed>0.0</speed>
<temp>0.00</temp>
<bpm>0</bpm>
<rpm>0.00</rpm>
</extensions>
</trkpt>
<trkpt lat="31.016927719" lon="34.749607086">
<ele>327.062500</ele>
<time>2013-11-19T12:37:29Z</time>
<extensions>
<speed>0.0</speed>
<temp>0.00</temp>
<bpm>0</bpm>
<rpm>0.00</rpm>
</extensions>
</trkpt>
<trkpt lat="31.016927719" lon="34.749607086">
<ele>327.062500</ele>
<time>2013-11-19T12:37:34Z</time>
<speed>0.070000</speed>
<extensions>
<speed>0.1</speed>
<temp>0.00</temp>
<bpm>0</bpm>
<rpm>0.00</rpm>
</extensions>
</trkpt>
<trkpt lat="31.016929626" lon="34.749607086">
<ele>327.046875</ele>
<time>2013-11-19T12:37:39Z</time>
<speed>0.800000</speed>
<extensions>
<speed>0.8</speed>
<temp>0.00</temp>
<bpm>0</bpm>
<rpm>0.00</rpm>
</extensions>
</trkpt>
<trkpt lat="31.016956329" lon="34.749534607">
<ele>327.539063</ele>
<time>2013-11-19T12:37:44Z</time>
<speed>2.180000</speed>
<extensions>
<speed>2.2</speed>
<temp>0.00</temp>
<bpm>0</bpm>
<rpm>0.00</rpm>
</extensions>
</trkpt>
<trkpt lat="31.017000198" lon="34.749401093">
<ele>327.460938</ele>
<time>2013-11-19T12:37:49Z</time>
<speed>2.870000</speed>
<extensions>
<speed>2.9</speed>
<temp>0.00</temp>
<bpm>0</bpm>
<rpm>0.00</rpm>
</extensions>
</trkpt>
<trkpt lat="31.017065048" lon="34.749267578">
<ele>326.789063</ele>
<time>2013-11-19T12:37:54Z</time>
<speed>2.220000</speed>
<extensions>
<speed>2.2</speed>
<temp>0.00</temp>
<bpm>0</bpm>
<rpm>0.00</rpm>
</extensions>
</trkpt>
<trkpt lat="31.017124176" lon="34.749176025">
<ele>326.234375</ele>
<time>2013-11-19T12:37:59Z</time>
<speed>1.160000</speed>
<extensions>
<speed>1.2</speed>
<temp>0.00</temp>
<bpm>0</bpm>
<rpm>0.00</rpm>
</extensions>
</trkpt>
<trkpt lat="31.017126083" lon="34.749168396">
<ele>325.890625</ele>
<time>2013-11-19T12:38:04Z</time>
<speed>0.020000</speed>
<extensions>
<speed>0.0</speed>
<temp>0.00</temp>
<bpm>0</bpm>
<rpm>0.00</rpm>
</extensions>
</trkpt>
<trkpt lat="31.017126083" lon="34.749164581">
<ele>325.750000</ele>
<time>2013-11-19T12:38:09Z</time>
<speed>0.110000</speed>
<extensions>
<speed>0.1</speed>
<temp>0.00</temp>
<bpm>0</bpm>
<rpm>0.00</rpm>
</extensions>
</trkpt>
<trkpt lat="31.017126083" lon="34.749179840">
<ele>325.515625</ele>
<time>2013-11-19T12:38:14Z</time>
<speed>0.970000</speed>
<extensions>
<speed>1.0</speed>
<temp>0.00</temp>
<bpm>0</bpm>
<rpm>0.00</rpm>
</extensions>
</trkpt>
<trkpt lat="31.017076492" lon="34.749233246">
<ele>326.335938</ele>
<time>2013-11-19T12:38:19Z</time>
<speed>1.820000</speed>
<extensions>
<speed>1.8</speed>
<temp>0.00</temp>
<bpm>0</bpm>
<rpm>0.00</rpm>
</extensions>
</trkpt>
<trkpt lat="31.017019272" lon="34.749347687">
<ele>327.070313</ele>
<time>2013-11-19T12:38:24Z</time>
<speed>3.130000</speed>
<extensions>
<speed>3.1</speed>
<temp>0.00</temp>
<bpm>0</bpm>
<rpm>0.00</rpm>
</extensions>
</trkpt>
<trkpt lat="31.016977310" lon="34.749504089">
<ele>327.328125</ele>
<time>2013-11-19T12:38:29Z</time>
<speed>2.420000</speed>
<extensions>
<speed>2.4</speed>
<temp>0.00</temp>
<bpm>0</bpm>
<rpm>0.00</rpm>
</extensions>
</trkpt>
<trkpt lat="31.016908646" lon="34.749629974">
<ele>327.289063</ele>
<time>2013-11-19T12:38:34Z</time>
<speed>2.840000</speed>
<extensions>
<speed>2.8</speed>
<temp>0.00</temp>
<bpm>0</bpm>
<rpm>0.00</rpm>
</extensions>
</trkpt>
<trkpt lat="31.016849518" lon="34.749740601">
<ele>326.226563</ele>
<time>2013-11-19T12:38:39Z</time>
<speed>2.550000</speed>
<extensions>
<speed>2.6</speed>
<temp>0.00</temp>
<bpm>0</bpm>
<rpm>0.00</rpm>
</extensions>
</trkpt>
<trkpt lat="31.016828537" lon="34.749862671">
<ele>324.921875</ele>
<time>2013-11-19T12:38:44Z</time>
<speed>1.550000</speed>
<extensions>
<speed>1.5</speed>
<temp>0.00</temp>
<bpm>0</bpm>
<rpm>0.00</rpm>
</extensions>
</trkpt>
<trkpt lat="31.016843796" lon="34.749961853">
<ele>324.468750</ele>
<time>2013-11-19T12:38:49Z</time>
<speed>2.190000</speed>
<extensions>
<speed>2.2</speed>
<temp>0.00</temp>
<bpm>0</bpm>
<rpm>0.00</rpm>
</extensions>
</trkpt>
<trkpt lat="31.016847610" lon="34.750122070">
<ele>323.343750</ele>
<time>2013-11-19T12:38:54Z</time>
<speed>3.310000</speed>
<extensions>
<speed>3.3</speed>
<temp>0.00</temp>
<bpm>0</bpm>
<rpm>0.00</rpm>
</extensions>
</trkpt>
<trkpt lat="31.016841888" lon="34.750305176">
<ele>322.671875</ele>
<time>2013-11-19T12:38:59Z</time>
<speed>3.600000</speed>
<extensions>
<speed>3.6</speed>
<temp>0.00</temp>
<bpm>0</bpm>
<rpm>0.00</rpm>
</extensions>
</trkpt>
<trkpt lat="31.016851425" lon="34.750499725">
<ele>322.242188</ele>
<time>2013-11-19T12:39:04Z</time>
<speed>3.950000</speed>
<extensions>
<speed>4.0</speed>
<temp>0.00</temp>
<bpm>0</bpm>
<rpm>0.00</rpm>
</extensions>
</trkpt>
<trkpt lat="31.016843796" lon="34.750732422">
<ele>321.773438</ele>
<time>2013-11-19T12:39:09Z</time>
<speed>4.850000</speed>
<extensions>
<speed>4.8</speed>
<temp>0.00</temp>
<bpm>0</bpm>
<rpm>0.00</rpm>
</extensions>
</trkpt>
<trkpt lat="31.016786575" lon="34.750961304">
<ele>321.640625</ele>
<time>2013-11-19T12:39:14Z</time>
<speed>4.150000</speed>
<extensions>
<speed>4.1</speed>
<temp>0.00</temp>
<bpm>0</bpm>
<rpm>0.00</rpm>
</extensions>
</trkpt>
<trkpt lat="31.016731262" lon="34.751194000">
<ele>321.562500</ele>
<time>2013-11-19T12:39:19Z</time>
<speed>4.620000</speed>
<extensions>
<speed>4.6</speed>
<temp>0.00</temp>
<bpm>0</bpm>
<rpm>0.00</rpm>
</extensions>
</trkpt>
<trkpt lat="31.016695023" lon="34.751407623">
<ele>321.570313</ele>
<time>2013-11-19T12:39:24Z</time>
<speed>3.860000</speed>
<extensions>
<speed>3.9</speed>
<temp>0.00</temp>
<bpm>0</bpm>
<rpm>0.00</rpm>
</extensions>
</trkpt>
<trkpt lat="31.016656876" lon="34.751613617">
<ele>321.109375</ele>
<time>2013-11-19T12:39:29Z</time>
<speed>3.810000</speed>
<extensions>
<speed>3.8</speed>
<temp>0.00</temp>
<bpm>0</bpm>
<rpm>0.00</rpm>
</extensions>
</trkpt>
<trkpt lat="31.016607285" lon="34.751842499">
<ele>320.992188</ele>
<time>2013-11-19T12:39:34Z</time>
<speed>5.270000</speed>
<extensions>
<speed>5.3</speed>
<temp>0.00</temp>
<bpm>0</bpm>
<rpm>0.00</rpm>
</extensions>
</trkpt>
<trkpt lat="31.016580582" lon="34.752098083">
<ele>321.375000</ele>
<time>2013-11-19T12:39:39Z</time>
<speed>4.440000</speed>
<extensions>
<speed>4.4</speed>
<temp>0.00</temp>
<bpm>0</bpm>
<rpm>0.00</rpm>
</extensions>
</trkpt>
<trkpt lat="31.016553879" lon="34.752353668">
<ele>321.710938</ele>
<time>2013-11-19T12:39:44Z</time>
<speed>5.120000</speed>
<extensions>
<speed>5.1</speed>
<temp>0.00</temp>
<bpm>0</bpm>
<rpm>0.00</rpm>
</extensions>
</trkpt>
<trkpt lat="31.016529083" lon="34.752578735">
<ele>321.617188</ele>
<time>2013-11-19T12:39:49Z</time>
<speed>4.180000</speed>
<extensions>
<speed>4.2</speed>
<temp>0.00</temp>
<bpm>0</bpm>
<rpm>0.00</rpm>
</extensions>
</trkpt>
<trkpt lat="31.016479492" lon="34.752807617">
<ele>321.414063</ele>
<time>2013-11-19T12:39:54Z</time>
<speed>4.140000</speed>
<extensions>
<speed>4.1</speed>
<temp>0.00</temp>
<bpm>0</bpm>
<rpm>0.00</rpm>
</extensions>
</trkpt>
<trkpt lat="31.016441345" lon="34.753002167">
<ele>321.210938</ele>
<time>2013-11-19T12:39:59Z</time>
<speed>3.930000</speed>
<extensions>
<speed>3.9</speed>
<temp>0.00</temp>
<bpm>0</bpm>
<rpm>0.00</rpm>
</extensions>
</trkpt>
<trkpt lat="31.016389847" lon="34.753173828">
<ele>320.953125</ele>
<time>2013-11-19T12:40:04Z</time>
<speed>3.430000</speed>
<extensions>
<speed>3.4</speed>
<temp>0.00</temp>
<bpm>0</bpm>
<rpm>0.00</rpm>
</extensions>
</trkpt>
<trkpt lat="31.016365051" lon="34.753368378">
<ele>320.718750</ele>
<time>2013-11-19T12:40:09Z</time>
<speed>4.380000</speed>
<extensions>
<speed>4.4</speed>
<temp>0.00</temp>
<bpm>0</bpm>
<rpm>0.00</rpm>
</extensions>
</trkpt>
<trkpt lat="31.016305923" lon="34.753570557">
<ele>320.609375</ele>
<time>2013-11-19T12:40:14Z</time>
<speed>3.850000</speed>
<extensions>
<speed>3.8</speed>
<temp>0.00</temp>
<bpm>0</bpm>
<rpm>0.00</rpm>
</extensions>
</trkpt>
<trkpt lat="31.016275406" lon="34.753780365">
<ele>320.718750</ele>
<time>2013-11-19T12:40:19Z</time>
<speed>4.720000</speed>
<extensions>
<speed>4.7</speed>
<temp>0.00</temp>
<bpm>0</bpm>
<rpm>0.00</rpm>
</extensions>
</trkpt>
<trkpt lat="31.016239166" lon="34.753997803">
<ele>321.085938</ele>
<time>2013-11-19T12:40:24Z</time>
<speed>4.490000</speed>
<extensions>
<speed>4.5</speed>
<temp>0.00</temp>
<bpm>0</bpm>
<rpm>0.00</rpm>
</extensions>
</trkpt>
<trkpt lat="31.016263962" lon="34.754196167">
<ele>320.593750</ele>
<time>2013-11-19T12:40:29Z</time>
<speed>3.790000</speed>
<extensions>
<speed>3.8</speed>
<temp>0.00</temp>
<bpm>0</bpm>
<rpm>0.00</rpm>
</extensions>
</trkpt>
<trkpt lat="31.016298294" lon="34.754329681">
<ele>321.640625</ele>
<time>2013-11-19T12:40:34Z</time>
<speed>3.350000</speed>
<extensions>
<speed>3.4</speed>
<temp>0.00</temp>
<bpm>0</bpm>
<rpm>0.00</rpm>
</extensions>
</trkpt>
<trkpt lat="31.016427994" lon="34.754436493">
<ele>322.195313</ele>
<time>2013-11-19T12:40:39Z</time>
<speed>4.710000</speed>
<extensions>
<speed>4.7</speed>
<temp>0.00</temp>
<bpm>0</bpm>
<rpm>0.00</rpm>
</extensions>
</trkpt>
<trkpt lat="31.016567230" lon="34.754611969">
<ele>321.726563</ele>
<time>2013-11-19T12:40:44Z</time>
<speed>4.650000</speed>
<extensions>
<speed>4.6</speed>
<temp>0.00</temp>
<bpm>0</bpm>
<rpm>0.00</rpm>
</extensions>
</trkpt>
<trkpt lat="31.016637802" lon="34.754848480">
<ele>321.515625</ele>
<time>2013-11-19T12:40:49Z</time>
<speed>4.710000</speed>
<extensions>
<speed>4.7</speed>
<temp>0.00</temp>
<bpm>0</bpm>
<rpm>0.00</rpm>
</extensions>
</trkpt>
<trkpt lat="31.016759872" lon="34.755046844">
<ele>321.171875</ele>
<time>2013-11-19T12:40:54Z</time>
<speed>4.380000</speed>
<extensions>
<speed>4.4</speed>
<temp>0.00</temp>
<bpm>0</bpm>
<rpm>0.00</rpm>
</extensions>
</trkpt>
<trkpt lat="31.016874313" lon="34.755264282">
<ele>320.859375</ele>
<time>2013-11-19T12:40:59Z</time>
<speed>4.940000</speed>
<extensions>
<speed>4.9</speed>
<temp>0.00</temp>
<bpm>0</bpm>
<rpm>0.00</rpm>
</extensions>
</trkpt>
<trkpt lat="31.016969681" lon="34.755443573">
<ele>321.492188</ele>
<time>2013-11-19T12:41:04Z</time>
<speed>3.740000</speed>
<extensions>
<speed>3.7</speed>
<temp>0.00</temp>
<bpm>0</bpm>
<rpm>0.00</rpm>
</extensions>
</trkpt>
<trkpt lat="31.017070770" lon="34.755611420">
<ele>320.953125</ele>
<time>2013-11-19T12:41:09Z</time>
<speed>4.210000</speed>
<extensions>
<speed>4.2</speed>
<temp>0.00</temp>
<bpm>0</bpm>
<rpm>0.00</rpm>
</extensions>
</trkpt>
<trkpt lat="31.017148972" lon="34.755783081">
<ele>321.218750</ele>
<time>2013-11-19T12:41:14Z</time>
<speed>3.080000</speed>
<extensions>
<speed>3.1</speed>
<temp>0.00</temp>
<bpm>0</bpm>
<rpm>0.00</rpm>
</extensions>
</trkpt>
<trkpt lat="31.017185211" lon="34.755947113">
<ele>321.335938</ele>
<time>2013-11-19T12:41:19Z</time>
<speed>3.470000</speed>
<extensions>
<speed>3.5</speed>
<temp>0.00</temp>
<bpm>0</bpm>
<rpm>0.00</rpm>
</extensions>
</trkpt>
<trkpt lat="31.017232895" lon="34.756103516">
<ele>321.726563</ele>
<time>2013-11-19T12:41:24Z</time>
<speed>2.840000</speed>
<extensions>
<speed>2.8</speed>
<temp>0.00</temp>
<bpm>0</bpm>
<rpm>0.00</rpm>
</extensions>
</trkpt>
<trkpt lat="31.017267227" lon="34.756217957">
<ele>321.875000</ele>
<time>2013-11-19T12:41:29Z</time>
<speed>1.660000</speed>
<extensions>
<speed>1.7</speed>
<temp>0.00</temp>
<bpm>0</bpm>
<rpm>0.00</rpm>
</extensions>
</trkpt>
<trkpt lat="31.017288208" lon="34.756275177">
<ele>322.031250</ele>
<time>2013-11-19T12:41:34Z</time>
<speed>1.030000</speed>
<extensions>
<speed>1.0</speed>
<temp>0.00</temp>
<bpm>0</bpm>
<rpm>0.00</rpm>
</extensions>
</trkpt>
<trkpt lat="31.017309189" lon="34.756328583">
<ele>322.078125</ele>
<time>2013-11-19T12:41:39Z</time>
<speed>1.120000</speed>
<extensions>
<speed>1.1</speed>
<temp>0.00</temp>
<bpm>0</bpm>
<rpm>0.00</rpm>
</extensions>
</trkpt>
<trkpt lat="31.017320633" lon="34.756385803">
<ele>322.304688</ele>
<time>2013-11-19T12:41:44Z</time>
<speed>1.020000</speed>
<extensions>
<speed>1.0</speed>
<temp>0.00</temp>
<bpm>0</bpm>
<rpm>0.00</rpm>
</extensions>
</trkpt>
<trkpt lat="31.017339706" lon="34.756446838">
<ele>322.093750</ele>
<time>2013-11-19T12:41:49Z</time>
<speed>2.140000</speed>
<extensions>
<speed>2.1</speed>
<temp>0.00</temp>
<bpm>0</bpm>
<rpm>0.00</rpm>
</extensions>
</trkpt>
<trkpt lat="31.017402649" lon="34.756561279">
<ele>322.617188</ele>
<time>2013-11-19T12:41:54Z</time>
<speed>2.710000</speed>
<extensions>
<speed>2.7</speed>
<temp>0.00</temp>
<bpm>0</bpm>
<rpm>0.00</rpm>
</extensions>
</trkpt>
<trkpt lat="31.017459869" lon="34.756675720">
<ele>322.523438</ele>
<time>2013-11-19T12:41:59Z</time>
<speed>2.410000</speed>
<extensions>
<speed>2.4</speed>
<temp>0.00</temp>
<bpm>0</bpm>
<rpm>0.00</rpm>
</extensions>
</trkpt>
<trkpt lat="31.017492294" lon="34.756816864">
<ele>322.023438</ele>
<time>2013-11-19T12:42:04Z</time>
<speed>2.950000</speed>
<extensions>
<speed>2.9</speed>
<temp>0.00</temp>
<bpm>0</bpm>
<rpm>0.00</rpm>
</extensions>
</trkpt>
<trkpt lat="31.017477036" lon="34.756950378">
<ele>321.812500</ele>
<time>2013-11-19T12:42:09Z</time>
<speed>2.930000</speed>
<extensions>
<speed>2.9</speed>
<temp>0.00</temp>
<bpm>0</bpm>
<rpm>0.00</rpm>
</extensions>
</trkpt>
<trkpt lat="31.017393112" lon="34.757087708">
<ele>322.617188</ele>
<time>2013-11-19T12:42:14Z</time>
<speed>3.670000</speed>
<extensions>
<speed>3.7</speed>
<temp>0.00</temp>
<bpm>0</bpm>
<rpm>0.00</rpm>
</extensions>
</trkpt>
<trkpt lat="31.017295837" lon="34.757236481">
<ele>323.304688</ele>
<time>2013-11-19T12:42:19Z</time>
<speed>3.480000</speed>
<extensions>
<speed>3.5</speed>
<temp>0.00</temp>
<bpm>0</bpm>
<rpm>0.00</rpm>
</extensions>
</trkpt>
<trkpt lat="31.017215729" lon="34.757411957">
<ele>323.757813</ele>
<time>2013-11-19T12:42:24Z</time>
<speed>3.670000</speed>
<extensions>
<speed>3.7</speed>
<temp>0.00</temp>
<bpm>0</bpm>
<rpm>0.00</rpm>
</extensions>
</trkpt>
<trkpt lat="31.017126083" lon="34.757572174">
<ele>323.867188</ele>
<time>2013-11-19T12:42:29Z</time>
<speed>3.810000</speed>
<extensions>
<speed>3.8</speed>
<temp>0.00</temp>
<bpm>0</bpm>
<rpm>0.00</rpm>
</extensions>
</trkpt>
<trkpt lat="31.017013550" lon="34.757694244">
<ele>325.203125</ele>
<time>2013-11-19T12:42:34Z</time>
<speed>3.630000</speed>
<extensions>
<speed>3.6</speed>
<temp>0.00</temp>
<bpm>0</bpm>
<rpm>0.00</rpm>
</extensions>
</trkpt>
<trkpt lat="31.016944885" lon="34.757846832">
<ele>327.156250</ele>
<time>2013-11-19T12:42:39Z</time>
<speed>3.100000</speed>
<extensions>
<speed>3.1</speed>
<temp>0.00</temp>
<bpm>0</bpm>
<rpm>0.00</rpm>
</extensions>
</trkpt>
<trkpt lat="31.016979218" lon="34.757987976">
<ele>328.679688</ele>
<time>2013-11-19T12:42:44Z</time>
<speed>2.040000</speed>
<extensions>
<speed>2.0</speed>
<temp>0.00</temp>
<bpm>0</bpm>
<rpm>0.00</rpm>
</extensions>
</trkpt>
<trkpt lat="31.017103195" lon="34.758018494">
<ele>328.625000</ele>
<time>2013-11-19T12:42:49Z</time>
<speed>3.980000</speed>
<extensions>
<speed>4.0</speed>
<temp>0.00</temp>
<bpm>0</bpm>
<rpm>0.00</rpm>
</extensions>
</trkpt>
<trkpt lat="31.017229080" lon="34.757858276">
<ele>327.781250</ele>
<time>2013-11-19T12:42:54Z</time>
<speed>4.510000</speed>
<extensions>
<speed>4.5</speed>
<temp>0.00</temp>
<bpm>0</bpm>
<rpm>0.00</rpm>
</extensions>
</trkpt>
<trkpt lat="31.017351151" lon="34.757659912">
<ele>327.617188</ele>
<time>2013-11-19T12:42:59Z</time>
<speed>5.250000</speed>
<extensions>
<speed>5.2</speed>
<temp>0.00</temp>
<bpm>0</bpm>
<rpm>0.00</rpm>
</extensions>
</trkpt>
<trkpt lat="31.017501831" lon="34.757446289">
<ele>327.304688</ele>
<time>2013-11-19T12:43:04Z</time>
<speed>5.460000</speed>
<extensions>
<speed>5.5</speed>
<temp>0.00</temp>
<bpm>0</bpm>
<rpm>0.00</rpm>
</extensions>
</trkpt>
<trkpt lat="31.017667770" lon="34.757232666">
<ele>326.703125</ele>
<time>2013-11-19T12:43:09Z</time>
<speed>5.940000</speed>
<extensions>
<speed>5.9</speed>
<temp>0.00</temp>
<bpm>0</bpm>
<rpm>0.00</rpm>
</extensions>
</trkpt>
<trkpt lat="31.017850876" lon="34.757030487">
<ele>326.414063</ele>
<time>2013-11-19T12:43:14Z</time>
<speed>5.430000</speed>
<extensions>
<speed>5.4</speed>
<temp>0.00</temp>
<bpm>0</bpm>
<rpm>0.00</rpm>
</extensions>
</trkpt>
<trkpt lat="31.018043518" lon="34.756843567">
<ele>325.531250</ele>
<time>2013-11-19T12:43:19Z</time>
<speed>5.350000</speed>
<extensions>
<speed>5.4</speed>
<temp>0.00</temp>
<bpm>0</bpm>
<rpm>0.00</rpm>
</extensions>
</trkpt>
<trkpt lat="31.018251419" lon="34.756660461">
<ele>324.859375</ele>
<time>2013-11-19T12:43:24Z</time>
<speed>5.660000</speed>
<extensions>
<speed>5.7</speed>
<temp>0.00</temp>
<bpm>0</bpm>
<rpm>0.00</rpm>
</extensions>
</trkpt>
<trkpt lat="31.018453598" lon="34.756519318">
<ele>324.632813</ele>
<time>2013-11-19T12:43:29Z</time>
<speed>5.500000</speed>
<extensions>
<speed>5.5</speed>
<temp>0.00</temp>
<bpm>0</bpm>
<rpm>0.00</rpm>
</extensions>
</trkpt>
<trkpt lat="31.018686295" lon="34.756381989">
<ele>323.906250</ele>
<time>2013-11-19T12:43:34Z</time>
<speed>5.730000</speed>
<extensions>
<speed>5.7</speed>
<temp>0.00</temp>
<bpm>0</bpm>
<rpm>0.00</rpm>
</extensions>
</trkpt>
<trkpt lat="31.018911362" lon="34.756267548">
<ele>323.687500</ele>
<time>2013-11-19T12:43:39Z</time>
<speed>5.670000</speed>
<extensions>
<speed>5.7</speed>
<temp>0.00</temp>
<bpm>0</bpm>
<rpm>0.00</rpm>
</extensions>
</trkpt>
<trkpt lat="31.019165039" lon="34.756153107">
<ele>323.421875</ele>
<time>2013-11-19T12:43:44Z</time>
<speed>6.280000</speed>
<extensions>
<speed>6.3</speed>
<temp>0.00</temp>
<bpm>0</bpm>
<rpm>0.00</rpm>
</extensions>
</trkpt>
<trkpt lat="31.019403458" lon="34.756034851">
<ele>323.007813</ele>
<time>2013-11-19T12:43:49Z</time>
<speed>5.370000</speed>
<extensions>
<speed>5.4</speed>
<temp>0.00</temp>
<bpm>0</bpm>
<rpm>0.00</rpm>
</extensions>
</trkpt>
<trkpt lat="31.019618988" lon="34.755924225">
<ele>322.960938</ele>
<time>2013-11-19T12:43:54Z</time>
<speed>5.370000</speed>
<extensions>
<speed>5.4</speed>
<temp>0.00</temp>
<bpm>0</bpm>
<rpm>0.00</rpm>
</extensions>
</trkpt>
<trkpt lat="31.019855499" lon="34.755809784">
<ele>322.695313</ele>
<time>2013-11-19T12:43:59Z</time>
<speed>6.020000</speed>
<extensions>
<speed>6.0</speed>
<temp>0.00</temp>
<bpm>0</bpm>
<rpm>0.00</rpm>
</extensions>
</trkpt>
<trkpt lat="31.020109177" lon="34.755676270">
<ele>322.359375</ele>
<time>2013-11-19T12:44:04Z</time>
<speed>6.090000</speed>
<extensions>
<speed>6.1</speed>
<temp>0.00</temp>
<bpm>0</bpm>
<rpm>0.00</rpm>
</extensions>
</trkpt>
<trkpt lat="31.020332336" lon="34.755569458">
<ele>322.250000</ele>
<time>2013-11-19T12:44:09Z</time>
<speed>4.810000</speed>
<extensions>
<speed>4.8</speed>
<temp>0.00</temp>
<bpm>0</bpm>
<rpm>0.00</rpm>
</extensions>
</trkpt>
<trkpt lat="31.020509720" lon="34.755474091">
<ele>321.835938</ele>
<time>2013-11-19T12:44:14Z</time>
<speed>3.950000</speed>
<extensions>
<speed>4.0</speed>
<temp>0.00</temp>
<bpm>0</bpm>
<rpm>0.00</rpm>
</extensions>
</trkpt>
<trkpt lat="31.020673752" lon="34.755390167">
<ele>321.515625</ele>
<time>2013-11-19T12:44:19Z</time>
<speed>3.550000</speed>
<extensions>
<speed>3.5</speed>
<temp>0.00</temp>
<bpm>0</bpm>
<rpm>0.00</rpm>
</extensions>
</trkpt>
<trkpt lat="31.020807266" lon="34.755332947">
<ele>321.468750</ele>
<time>2013-11-19T12:44:24Z</time>
<speed>2.930000</speed>
<extensions>
<speed>2.9</speed>
<temp>0.00</temp>
<bpm>0</bpm>
<rpm>0.00</rpm>
</extensions>
</trkpt>
<trkpt lat="31.020915985" lon="34.755256653">
<ele>320.898438</ele>
<time>2013-11-19T12:44:29Z</time>
<speed>2.520000</speed>
<extensions>
<speed>2.5</speed>
<temp>0.00</temp>
<bpm>0</bpm>
<rpm>0.00</rpm>
</extensions>
</trkpt>
<trkpt lat="31.021028519" lon="34.755214691">
<ele>319.390625</ele>
<time>2013-11-19T12:44:34Z</time>
<speed>2.580000</speed>
<extensions>
<speed>2.6</speed>
<temp>0.00</temp>
<bpm>0</bpm>
<rpm>0.00</rpm>
</extensions>
</trkpt>
<trkpt lat="31.021030426" lon="34.755306244">
<ele>319.203125</ele>
<time>2013-11-19T12:44:39Z</time>
<speed>2.670000</speed>
<extensions>
<speed>2.7</speed>
<temp>0.00</temp>
<bpm>0</bpm>
<rpm>0.00</rpm>
</extensions>
</trkpt>
<trkpt lat="31.020902634" lon="34.755409241">
<ele>320.156250</ele>
<time>2013-11-19T12:44:44Z</time>
<speed>4.320000</speed>
<extensions>
<speed>4.3</speed>
<temp>0.00</temp>
<bpm>0</bpm>
<rpm>0.00</rpm>
</extensions>
</trkpt>
<trkpt lat="31.020715714" lon="34.755516052">
<ele>320.882813</ele>
<time>2013-11-19T12:44:49Z</time>
<speed>4.860000</speed>
<extensions>
<speed>4.9</speed>
<temp>0.00</temp>
<bpm>0</bpm>
<rpm>0.00</rpm>
</extensions>
</trkpt>
<trkpt lat="31.020523071" lon="34.755661011">
<ele>321.085938</ele>
<time>2013-11-19T12:44:54Z</time>
<speed>5.180000</speed>
<extensions>
<speed>5.2</speed>
<temp>0.00</temp>
<bpm>0</bpm>
<rpm>0.00</rpm>
</extensions>
</trkpt>
<trkpt lat="31.020318985" lon="34.755817413">
<ele>321.718750</ele>
<time>2013-11-19T12:44:59Z</time>
<speed>5.710000</speed>
<extensions>
<speed>5.7</speed>
<temp>0.00</temp>
<bpm>0</bpm>
<rpm>0.00</rpm>
</extensions>
</trkpt>
<trkpt lat="31.020116806" lon="34.755981445">
<ele>322.109375</ele>
<time>2013-11-19T12:45:04Z</time>
<speed>5.520000</speed>
<extensions>
<speed>5.5</speed>
<temp>0.00</temp>
<bpm>0</bpm>
<rpm>0.00</rpm>
</extensions>
</trkpt>
<trkpt lat="31.019924164" lon="34.756156921">
<ele>322.546875</ele>
<time>2013-11-19T12:45:09Z</time>
<speed>5.280000</speed>
<extensions>
<speed>5.3</speed>
<temp>0.00</temp>
<bpm>0</bpm>
<rpm>0.00</rpm>
</extensions>
</trkpt>
<trkpt lat="31.019737244" lon="34.756313324">
<ele>322.687500</ele>
<time>2013-11-19T12:45:14Z</time>
<speed>5.180000</speed>
<extensions>
<speed>5.2</speed>
<temp>0.00</temp>
<bpm>0</bpm>
<rpm>0.00</rpm>
</extensions>
</trkpt>
<trkpt lat="31.019546509" lon="34.756465912">
<ele>322.445313</ele>
<time>2013-11-19T12:45:19Z</time>
<speed>5.230000</speed>
<extensions>
<speed>5.2</speed>
<temp>0.00</temp>
<bpm>0</bpm>
<rpm>0.00</rpm>
</extensions>
</trkpt>
<trkpt lat="31.019348145" lon="34.756633759">
<ele>321.859375</ele>
<time>2013-11-19T12:45:24Z</time>
<speed>5.710000</speed>
<extensions>
<speed>5.7</speed>
<temp>0.00</temp>
<bpm>0</bpm>
<rpm>0.00</rpm>
</extensions>
</trkpt>
<trkpt lat="31.019134521" lon="34.756793976">
<ele>320.234375</ele>
<time>2013-11-19T12:45:29Z</time>
<speed>4.740000</speed>
<extensions>
<speed>4.7</speed>
<temp>0.00</temp>
<bpm>0</bpm>
<rpm>0.00</rpm>
</extensions>
</trkpt>
<trkpt lat="31.019041061" lon="34.756896973">
<ele>320.101563</ele>
<time>2013-11-19T12:45:34Z</time>
<speed>1.970000</speed>
<extensions>
<speed>2.0</speed>
<temp>0.00</temp>
<bpm>0</bpm>
<rpm>0.00</rpm>
</extensions>
</trkpt>
<trkpt lat="31.019029617" lon="34.756912231">
<ele>320.164063</ele>
<time>2013-11-19T12:45:39Z</time>
<speed>0.010000</speed>
<extensions>
<speed>0.0</speed>
<temp>0.00</temp>
<bpm>0</bpm>
<rpm>0.00</rpm>
</extensions>
</trkpt>
<trkpt lat="31.019029617" lon="34.756912231">
<ele>320.187500</ele>
<time>2013-11-19T12:45:44Z</time>
<speed>0.010000</speed>
<extensions>
<speed>0.0</speed>
<temp>0.00</temp>
<bpm>0</bpm>
<rpm>0.00</rpm>
</extensions>
</trkpt>
<trkpt lat="31.019029617" lon="34.756912231">
<ele>320.179688</ele>
<time>2013-11-19T12:45:49Z</time>
<speed>0.010000</speed>
<extensions>
<speed>0.0</speed>
<temp>0.00</temp>
<bpm>0</bpm>
<rpm>0.00</rpm>
</extensions>
</trkpt>
<trkpt lat="31.019025803" lon="34.756919861">
<ele>320.242188</ele>
<time>2013-11-19T12:45:54Z</time>
<speed>1.520000</speed>
<extensions>
<speed>1.5</speed>
<temp>0.00</temp>
<bpm>0</bpm>
<rpm>0.00</rpm>
</extensions>
</trkpt>
<trkpt lat="31.019027710" lon="34.757030487">
<ele>319.937500</ele>
<time>2013-11-19T12:45:59Z</time>
<speed>2.540000</speed>
<extensions>
<speed>2.5</speed>
<temp>0.00</temp>
<bpm>0</bpm>
<rpm>0.00</rpm>
</extensions>
</trkpt>
<trkpt lat="31.019060135" lon="34.757175446">
<ele>320.953125</ele>
<time>2013-11-19T12:46:04Z</time>
<speed>2.630000</speed>
<extensions>
<speed>2.6</speed>
<temp>0.00</temp>
<bpm>0</bpm>
<rpm>0.00</rpm>
</extensions>
</trkpt>
<trkpt lat="31.019126892" lon="34.757308960">
<ele>321.765625</ele>
<time>2013-11-19T12:46:09Z</time>
<speed>2.340000</speed>
<extensions>
<speed>2.3</speed>
<temp>0.00</temp>
<bpm>0</bpm>
<rpm>0.00</rpm>
</extensions>
</trkpt>
<trkpt lat="31.019220352" lon="34.757434845">
<ele>321.812500</ele>
<time>2013-11-19T12:46:14Z</time>
<speed>3.110000</speed>
<extensions>
<speed>3.1</speed>
<temp>0.00</temp>
<bpm>0</bpm>
<rpm>0.00</rpm>
</extensions>
</trkpt>
<trkpt lat="31.019311905" lon="34.757602692">
<ele>321.562500</ele>
<time>2013-11-19T12:46:19Z</time>
<speed>4.020000</speed>
<extensions>
<speed>4.0</speed>
<temp>0.00</temp>
<bpm>0</bpm>
<rpm>0.00</rpm>
</extensions>
</trkpt>
<trkpt lat="31.019369125" lon="34.757789612">
<ele>321.562500</ele>
<time>2013-11-19T12:46:24Z</time>
<speed>3.730000</speed>
<extensions>
<speed>3.7</speed>
<temp>0.00</temp>
<bpm>0</bpm>
<rpm>0.00</rpm>
</extensions>
</trkpt>
<trkpt lat="31.019437790" lon="34.757965088">
<ele>321.867188</ele>
<time>2013-11-19T12:46:29Z</time>
<speed>3.540000</speed>
<extensions>
<speed>3.5</speed>
<temp>0.00</temp>
<bpm>0</bpm>
<rpm>0.00</rpm>
</extensions>
</trkpt>
<trkpt lat="31.019517899" lon="34.758113861">
<ele>322.203125</ele>
<time>2013-11-19T12:46:34Z</time>
<speed>3.350000</speed>
<extensions>
<speed>3.4</speed>
<temp>0.00</temp>
<bpm>0</bpm>
<rpm>0.00</rpm>
</extensions>
</trkpt>
<trkpt lat="31.019584656" lon="34.758243561">
<ele>323.203125</ele>
<time>2013-11-19T12:46:39Z</time>
<speed>2.380000</speed>
<extensions>
<speed>2.4</speed>
<temp>0.00</temp>
<bpm>0</bpm>
<rpm>0.00</rpm>
</extensions>
</trkpt>
<trkpt lat="31.019638062" lon="34.758365631">
<ele>324.132813</ele>
<time>2013-11-19T12:46:44Z</time>
<speed>2.920000</speed>
<extensions>
<speed>2.9</speed>
<temp>0.00</temp>
<bpm>0</bpm>
<rpm>0.00</rpm>
</extensions>
</trkpt>
<trkpt lat="31.019676208" lon="34.758472443">
<ele>324.593750</ele>
<time>2013-11-19T12:46:49Z</time>
<speed>2.200000</speed>
<extensions>
<speed>2.2</speed>
<temp>0.00</temp>
<bpm>0</bpm>
<rpm>0.00</rpm>
</extensions>
</trkpt>
<trkpt lat="31.019720078" lon="34.758605957">
<ele>325.078125</ele>
<time>2013-11-19T12:46:54Z</time>
<speed>2.710000</speed>
<extensions>
<speed>2.7</speed>
<temp>0.00</temp>
<bpm>0</bpm>
<rpm>0.00</rpm>
</extensions>
</trkpt>
<trkpt lat="31.019767761" lon="34.758724213">
<ele>325.820313</ele>
<time>2013-11-19T12:46:59Z</time>
<speed>2.330000</speed>
<extensions>
<speed>2.3</speed>
<temp>0.00</temp>
<bpm>0</bpm>
<rpm>0.00</rpm>
</extensions>
</trkpt>
<trkpt lat="31.019796371" lon="34.758853912">
<ele>326.757813</ele>
<time>2013-11-19T12:47:04Z</time>
<speed>2.610000</speed>
<extensions>
<speed>2.6</speed>
<temp>0.00</temp>
<bpm>0</bpm>
<rpm>0.00</rpm>
</extensions>
</trkpt>
<trkpt lat="31.019809723" lon="34.758983612">
<ele>327.148438</ele>
<time>2013-11-19T12:47:09Z</time>
<speed>2.440000</speed>
<extensions>
<speed>2.4</speed>
<temp>0.00</temp>
<bpm>0</bpm>
<rpm>0.00</rpm>
</extensions>
</trkpt>
<trkpt lat="31.019804001" lon="34.759113312">
<ele>326.937500</ele>
<time>2013-11-19T12:47:14Z</time>
<speed>2.300000</speed>
<extensions>
<speed>2.3</speed>
<temp>0.00</temp>
<bpm>0</bpm>
<rpm>0.00</rpm>
</extensions>
</trkpt>
<trkpt lat="31.019779205" lon="34.759231567">
<ele>326.906250</ele>
<time>2013-11-19T12:47:19Z</time>
<speed>2.310000</speed>
<extensions>
<speed>2.3</speed>
<temp>0.00</temp>
<bpm>0</bpm>
<rpm>0.00</rpm>
</extensions>
</trkpt>
<trkpt lat="31.019754410" lon="34.759323120">
<ele>327.539063</ele>
<time>2013-11-19T12:47:24Z</time>
<speed>1.320000</speed>
<extensions>
<speed>1.3</speed>
<temp>0.00</temp>
<bpm>0</bpm>
<rpm>0.00</rpm>
</extensions>
</trkpt>
<trkpt lat="31.019735336" lon="34.759395599">
<ele>327.859375</ele>
<time>2013-11-19T12:47:29Z</time>
<speed>1.480000</speed>
<extensions>
<speed>1.5</speed>
<temp>0.00</temp>
<bpm>0</bpm>
<rpm>0.00</rpm>
</extensions>
</trkpt>
<trkpt lat="31.019712448" lon="34.759460449">
<ele>328.507813</ele>
<time>2013-11-19T12:47:34Z</time>
<speed>1.410000</speed>
<extensions>
<speed>1.4</speed>
<temp>0.00</temp>
<bpm>0</bpm>
<rpm>0.00</rpm>
</extensions>
</trkpt>
<trkpt lat="31.019687653" lon="34.759532928">
<ele>329.046875</ele>
<time>2013-11-19T12:47:39Z</time>
<speed>1.620000</speed>
<extensions>
<speed>1.6</speed>
<temp>0.00</temp>
<bpm>0</bpm>
<rpm>0.00</rpm>
</extensions>
</trkpt>
<trkpt lat="31.019657135" lon="34.759605408">
<ele>329.445313</ele>
<time>2013-11-19T12:47:44Z</time>
<speed>1.520000</speed>
<extensions>
<speed>1.5</speed>
<temp>0.00</temp>
<bpm>0</bpm>
<rpm>0.00</rpm>
</extensions>
</trkpt>
<trkpt lat="31.019626617" lon="34.759666443">
<ele>329.875000</ele>
<time>2013-11-19T12:47:49Z</time>
<speed>1.480000</speed>
<extensions>
<speed>1.5</speed>
<temp>0.00</temp>
<bpm>0</bpm>
<rpm>0.00</rpm>
</extensions>
</trkpt>
<trkpt lat="31.019588470" lon="34.759731293">
<ele>330.421875</ele>
<time>2013-11-19T12:47:54Z</time>
<speed>1.430000</speed>
<extensions>
<speed>1.4</speed>
<temp>0.00</temp>
<bpm>0</bpm>
<rpm>0.00</rpm>
</extensions>
</trkpt>
<trkpt lat="31.019565582" lon="34.759796143">
<ele>330.773438</ele>
<time>2013-11-19T12:47:59Z</time>
<speed>1.470000</speed>
<extensions>
<speed>1.5</speed>
<temp>0.00</temp>
<bpm>0</bpm>
<rpm>0.00</rpm>
</extensions>
</trkpt>
<trkpt lat="31.019538879" lon="34.759868622">
<ele>331.398438</ele>
<time>2013-11-19T12:48:04Z</time>
<speed>1.560000</speed>
<extensions>
<speed>1.6</speed>
<temp>0.00</temp>
<bpm>0</bpm>
<rpm>0.00</rpm>
</extensions>
</trkpt>
<trkpt lat="31.019496918" lon="34.759929657">
<ele>331.921875</ele>
<time>2013-11-19T12:48:09Z</time>
<speed>1.550000</speed>
<extensions>
<speed>1.5</speed>
<temp>0.00</temp>
<bpm>0</bpm>
<rpm>0.00</rpm>
</extensions>
</trkpt>
<trkpt lat="31.019472122" lon="34.760002136">
<ele>332.515625</ele>
<time>2013-11-19T12:48:14Z</time>
<speed>1.350000</speed>
<extensions>
<speed>1.4</speed>
<temp>0.00</temp>
<bpm>0</bpm>
<rpm>0.00</rpm>
</extensions>
</trkpt>
<trkpt lat="31.019430161" lon="34.760066986">
<ele>333.234375</ele>
<time>2013-11-19T12:48:19Z</time>
<speed>1.630000</speed>
<extensions>
<speed>1.6</speed>
<temp>0.00</temp>
<bpm>0</bpm>
<rpm>0.00</rpm>
</extensions>
</trkpt>
<trkpt lat="31.019395828" lon="34.760135651">
<ele>333.656250</ele>
<time>2013-11-19T12:48:24Z</time>
<speed>1.650000</speed>
<extensions>
<speed>1.7</speed>
<temp>0.00</temp>
<bpm>0</bpm>
<rpm>0.00</rpm>
</extensions>
</trkpt>
<trkpt lat="31.019365311" lon="34.760215759">
<ele>334.242188</ele>
<time>2013-11-19T12:48:29Z</time>
<speed>1.610000</speed>
<extensions>
<speed>1.6</speed>
<temp>0.00</temp>
<bpm>0</bpm>
<rpm>0.00</rpm>
</extensions>
</trkpt>
<trkpt lat="31.019330978" lon="34.760280609">
<ele>334.710938</ele>
<time>2013-11-19T12:48:34Z</time>
<speed>1.370000</speed>
<extensions>
<speed>1.4</speed>
<temp>0.00</temp>
<bpm>0</bpm>
<rpm>0.00</rpm>
</extensions>
</trkpt>
<trkpt lat="31.019302368" lon="34.760349274">
<ele>335.179688</ele>
<time>2013-11-19T12:48:39Z</time>
<speed>1.520000</speed>
<extensions>
<speed>1.5</speed>
<temp>0.00</temp>
<bpm>0</bpm>
<rpm>0.00</rpm>
</extensions>
</trkpt>
<trkpt lat="31.019269943" lon="34.760414124">
<ele>336.148438</ele>
<time>2013-11-19T12:48:44Z</time>
<speed>1.380000</speed>
<extensions>
<speed>1.4</speed>
<temp>0.00</temp>
<bpm>0</bpm>
<rpm>0.00</rpm>
</extensions>
</trkpt>
<trkpt lat="31.019241333" lon="34.760463715">
<ele>336.750000</ele>
<time>2013-11-19T12:48:49Z</time>
<speed>1.400000</speed>
<extensions>
<speed>1.4</speed>
<temp>0.00</temp>
<bpm>0</bpm>
<rpm>0.00</rpm>
</extensions>
</trkpt>
<trkpt lat="31.019220352" lon="34.760501862">
<ele>337.515625</ele>
<time>2013-11-19T12:48:54Z</time>
<speed>0.020000</speed>
<extensions>
<speed>0.0</speed>
<temp>0.00</temp>
<bpm>0</bpm>
<rpm>0.00</rpm>
</extensions>
</trkpt>
<trkpt lat="31.019216537" lon="34.760505676">
<ele>337.757813</ele>
<time>2013-11-19T12:48:59Z</time>
<speed>0.840000</speed>
<extensions>
<speed>0.8</speed>
<temp>0.00</temp>
<bpm>0</bpm>
<rpm>0.00</rpm>
</extensions>
</trkpt>
<trkpt lat="31.019174576" lon="34.760551453">
<ele>337.875000</ele>
<time>2013-11-19T12:49:04Z</time>
<speed>1.720000</speed>
<extensions>
<speed>1.7</speed>
<temp>0.00</temp>
<bpm>0</bpm>
<rpm>0.00</rpm>
</extensions>
</trkpt>
<trkpt lat="31.019126892" lon="34.760627747">
<ele>338.351563</ele>
<time>2013-11-19T12:49:09Z</time>
<speed>1.780000</speed>
<extensions>
<speed>1.8</speed>
<temp>0.00</temp>
<bpm>0</bpm>
<rpm>0.00</rpm>
</extensions>
</trkpt>
<trkpt lat="31.019067764" lon="34.760700226">
<ele>338.875000</ele>
<time>2013-11-19T12:49:14Z</time>
<speed>1.910000</speed>
<extensions>
<speed>1.9</speed>
<temp>0.00</temp>
<bpm>0</bpm>
<rpm>0.00</rpm>
</extensions>
</trkpt>
<trkpt lat="31.018995285" lon="34.760780334">
<ele>339.382813</ele>
<time>2013-11-19T12:49:19Z</time>
<speed>2.350000</speed>
<extensions>
<speed>2.4</speed>
<temp>0.00</temp>
<bpm>0</bpm>
<rpm>0.00</rpm>
</extensions>
</trkpt>
<trkpt lat="31.018918991" lon="34.760845184">
<ele>339.742188</ele>
<time>2013-11-19T12:49:24Z</time>
<speed>1.760000</speed>
<extensions>
<speed>1.8</speed>
<temp>0.00</temp>
<bpm>0</bpm>
<rpm>0.00</rpm>
</extensions>
</trkpt>
<trkpt lat="31.018859863" lon="34.760894775">
<ele>340.453125</ele>
<time>2013-11-19T12:49:29Z</time>
<speed>1.550000</speed>
<extensions>
<speed>1.5</speed>
<temp>0.00</temp>
<bpm>0</bpm>
<rpm>0.00</rpm>
</extensions>
</trkpt>
<trkpt lat="31.018800735" lon="34.760940552">
<ele>340.937500</ele>
<time>2013-11-19T12:49:34Z</time>
<speed>1.600000</speed>
<extensions>
<speed>1.6</speed>
<temp>0.00</temp>
<bpm>0</bpm>
<rpm>0.00</rpm>
</extensions>
</trkpt>
<trkpt lat="31.018733978" lon="34.760978699">
<ele>341.523438</ele>
<time>2013-11-19T12:49:39Z</time>
<speed>1.520000</speed>
<extensions>
<speed>1.5</speed>
<temp>0.00</temp>
<bpm>0</bpm>
<rpm>0.00</rpm>
</extensions>
</trkpt>
<trkpt lat="31.018678665" lon="34.761013031">
<ele>342.250000</ele>
<time>2013-11-19T12:49:44Z</time>
<speed>1.610000</speed>
<extensions>
<speed>1.6</speed>
<temp>0.00</temp>
<bpm>0</bpm>
<rpm>0.00</rpm>
</extensions>
</trkpt>
<trkpt lat="31.018623352" lon="34.761043549">
<ele>342.718750</ele>
<time>2013-11-19T12:49:49Z</time>
<speed>1.430000</speed>
<extensions>
<speed>1.4</speed>
<temp>0.00</temp>
<bpm>0</bpm>
<rpm>0.00</rpm>
</extensions>
</trkpt>
<trkpt lat="31.018564224" lon="34.761066437">
<ele>343.218750</ele>
<time>2013-11-19T12:49:54Z</time>
<speed>1.610000</speed>
<extensions>
<speed>1.6</speed>
<temp>0.00</temp>
<bpm>0</bpm>
<rpm>0.00</rpm>
</extensions>
</trkpt>
<trkpt lat="31.018482208" lon="34.761093140">
<ele>343.562500</ele>
<time>2013-11-19T12:49:59Z</time>
<speed>1.510000</speed>
<extensions>
<speed>1.5</speed>
<temp>0.00</temp>
<bpm>0</bpm>
<rpm>0.00</rpm>
</extensions>
</trkpt>
<trkpt lat="31.018409729" lon="34.761093140">
<ele>343.984375</ele>
<time>2013-11-19T12:50:04Z</time>
<speed>1.480000</speed>
<extensions>
<speed>1.5</speed>
<temp>0.00</temp>
<bpm>0</bpm>
<rpm>0.00</rpm>
</extensions>
</trkpt>
<trkpt lat="31.018386841" lon="34.761093140">
<ele>344.640625</ele>
<time>2013-11-19T12:50:09Z</time>
<speed>0.310000</speed>
<extensions>
<speed>0.3</speed>
<temp>0.00</temp>
<bpm>0</bpm>
<rpm>0.00</rpm>
</extensions>
</trkpt>
<trkpt lat="31.018384933" lon="34.761085510">
<ele>344.414063</ele>
<time>2013-11-19T12:50:14Z</time>
<extensions>
<speed>0.0</speed>
<temp>0.00</temp>
<bpm>0</bpm>
<rpm>0.00</rpm>
</extensions>
</trkpt>
<trkpt lat="31.018386841" lon="34.761085510">
<ele>344.390625</ele>
<time>2013-11-19T12:50:19Z</time>
<extensions>
<speed>0.0</speed>
<temp>0.00</temp>
<bpm>0</bpm>
<rpm>0.00</rpm>
</extensions>
</trkpt>
<trkpt lat="31.018386841" lon="34.761085510">
<ele>344.406250</ele>
<time>2013-11-19T12:50:24Z</time>
<extensions>
<speed>0.0</speed>
<temp>0.00</temp>
<bpm>0</bpm>
<rpm>0.00</rpm>
</extensions>
</trkpt>
<trkpt lat="31.018386841" lon="34.761085510">
<ele>344.398438</ele>
<time>2013-11-19T12:50:29Z</time>
<extensions>
<speed>0.0</speed>
<temp>0.00</temp>
<bpm>0</bpm>
<rpm>0.00</rpm>
</extensions>
</trkpt>
<trkpt lat="31.018386841" lon="34.761085510">
<ele>344.390625</ele>
<time>2013-11-19T12:50:34Z</time>
<extensions>
<speed>0.0</speed>
<temp>0.00</temp>
<bpm>0</bpm>
<rpm>0.00</rpm>
</extensions>
</trkpt>
<trkpt lat="31.018386841" lon="34.761085510">
<ele>344.382813</ele>
<time>2013-11-19T12:50:39Z</time>
<extensions>
<speed>0.0</speed>
<temp>0.00</temp>
<bpm>0</bpm>
<rpm>0.00</rpm>
</extensions>
</trkpt>
<trkpt lat="31.018386841" lon="34.761085510">
<ele>344.367188</ele>
<time>2013-11-19T12:50:44Z</time>
<extensions>
<speed>0.0</speed>
<temp>0.00</temp>
<bpm>0</bpm>
<rpm>0.00</rpm>
</extensions>
</trkpt>
<trkpt lat="31.018386841" lon="34.761085510">
<ele>344.359375</ele>
<time>2013-11-19T12:50:49Z</time>
<extensions>
<speed>0.0</speed>
<temp>0.00</temp>
<bpm>0</bpm>
<rpm>0.00</rpm>
</extensions>
</trkpt>
<trkpt lat="31.018386841" lon="34.761085510">
<ele>344.351563</ele>
<time>2013-11-19T12:50:54Z</time>
<extensions>
<speed>0.0</speed>
<temp>0.00</temp>
<bpm>0</bpm>
<rpm>0.00</rpm>
</extensions>
</trkpt>
<trkpt lat="31.018386841" lon="34.761085510">
<ele>344.335938</ele>
<time>2013-11-19T12:50:59Z</time>
<extensions>
<speed>0.0</speed>
<temp>0.00</temp>
<bpm>0</bpm>
<rpm>0.00</rpm>
</extensions>
</trkpt>
<trkpt lat="31.018386841" lon="34.761085510">
<ele>344.320313</ele>
<time>2013-11-19T12:51:04Z</time>
<extensions>
<speed>0.0</speed>
<temp>0.00</temp>
<bpm>0</bpm>
<rpm>0.00</rpm>
</extensions>
</trkpt>
<trkpt lat="31.018386841" lon="34.761085510">
<ele>344.312500</ele>
<time>2013-11-19T12:51:09Z</time>
<extensions>
<speed>0.0</speed>
<temp>0.00</temp>
<bpm>0</bpm>
<rpm>0.00</rpm>
</extensions>
</trkpt>
<trkpt lat="31.018386841" lon="34.761085510">
<ele>344.304688</ele>
<time>2013-11-19T12:51:14Z</time>
<extensions>
<speed>0.0</speed>
<temp>0.00</temp>
<bpm>0</bpm>
<rpm>0.00</rpm>
</extensions>
</trkpt>
<trkpt lat="31.018386841" lon="34.761085510">
<ele>344.289063</ele>
<time>2013-11-19T12:51:19Z</time>
<extensions>
<speed>0.0</speed>
<temp>0.00</temp>
<bpm>0</bpm>
<rpm>0.00</rpm>
</extensions>
</trkpt>
<trkpt lat="31.018386841" lon="34.761085510">
<ele>344.273438</ele>
<time>2013-11-19T12:51:24Z</time>
<extensions>
<speed>0.0</speed>
<temp>0.00</temp>
<bpm>0</bpm>
<rpm>0.00</rpm>
</extensions>
</trkpt>
<trkpt lat="31.018388748" lon="34.761085510">
<ele>344.265625</ele>
<time>2013-11-19T12:51:29Z</time>
<extensions>
<speed>0.0</speed>
<temp>0.00</temp>
<bpm>0</bpm>
<rpm>0.00</rpm>
</extensions>
</trkpt>
<trkpt lat="31.018388748" lon="34.761085510">
<ele>344.257813</ele>
<time>2013-11-19T12:51:34Z</time>
<extensions>
<speed>0.0</speed>
<temp>0.00</temp>
<bpm>0</bpm>
<rpm>0.00</rpm>
</extensions>
</trkpt>
<trkpt lat="31.018388748" lon="34.761085510">
<ele>344.242188</ele>
<time>2013-11-19T12:51:39Z</time>
<extensions>
<speed>0.0</speed>
<temp>0.00</temp>
<bpm>0</bpm>
<rpm>0.00</rpm>
</extensions>
</trkpt>
<trkpt lat="31.018388748" lon="34.761085510">
<ele>344.226563</ele>
<time>2013-11-19T12:51:44Z</time>
<extensions>
<speed>0.0</speed>
<temp>0.00</temp>
<bpm>0</bpm>
<rpm>0.00</rpm>
</extensions>
</trkpt>
<trkpt lat="31.018388748" lon="34.761085510">
<ele>344.218750</ele>
<time>2013-11-19T12:51:49Z</time>
<extensions>
<speed>0.0</speed>
<temp>0.00</temp>
<bpm>0</bpm>
<rpm>0.00</rpm>
</extensions>
</trkpt>
<trkpt lat="31.018388748" lon="34.761085510">
<ele>344.210938</ele>
<time>2013-11-19T12:51:54Z</time>
<extensions>
<speed>0.0</speed>
<temp>0.00</temp>
<bpm>0</bpm>
<rpm>0.00</rpm>
</extensions>
</trkpt>
<trkpt lat="31.018388748" lon="34.761085510">
<ele>344.195313</ele>
<time>2013-11-19T12:51:59Z</time>
<extensions>
<speed>0.0</speed>
<temp>0.00</temp>
<bpm>0</bpm>
<rpm>0.00</rpm>
</extensions>
</trkpt>
<trkpt lat="31.018388748" lon="34.761085510">
<ele>344.187500</ele>
<time>2013-11-19T12:52:04Z</time>
<extensions>
<speed>0.0</speed>
<temp>0.00</temp>
<bpm>0</bpm>
<rpm>0.00</rpm>
</extensions>
</trkpt>
<trkpt lat="31.018388748" lon="34.761085510">
<ele>344.179688</ele>
<time>2013-11-19T12:52:09Z</time>
<extensions>
<speed>0.0</speed>
<temp>0.00</temp>
<bpm>0</bpm>
<rpm>0.00</rpm>
</extensions>
</trkpt>
<trkpt lat="31.018388748" lon="34.761085510">
<ele>344.171875</ele>
<time>2013-11-19T12:52:14Z</time>
<extensions>
<speed>0.0</speed>
<temp>0.00</temp>
<bpm>0</bpm>
<rpm>0.00</rpm>
</extensions>
</trkpt>
<trkpt lat="31.018388748" lon="34.761085510">
<ele>344.164063</ele>
<time>2013-11-19T12:52:19Z</time>
<extensions>
<speed>0.0</speed>
<temp>0.00</temp>
<bpm>0</bpm>
<rpm>0.00</rpm>
</extensions>
</trkpt>
<trkpt lat="31.018388748" lon="34.761085510">
<ele>344.148438</ele>
<time>2013-11-19T12:52:24Z</time>
<extensions>
<speed>0.0</speed>
<temp>0.00</temp>
<bpm>0</bpm>
<rpm>0.00</rpm>
</extensions>
</trkpt>
<trkpt lat="31.018388748" lon="34.761085510">
<ele>344.140625</ele>
<time>2013-11-19T12:52:29Z</time>
<extensions>
<speed>0.0</speed>
<temp>0.00</temp>
<bpm>0</bpm>
<rpm>0.00</rpm>
</extensions>
</trkpt>
<trkpt lat="31.018388748" lon="34.761085510">
<ele>344.125000</ele>
<time>2013-11-19T12:52:34Z</time>
<extensions>
<speed>0.0</speed>
<temp>0.00</temp>
<bpm>0</bpm>
<rpm>0.00</rpm>
</extensions>
</trkpt>
<trkpt lat="31.018388748" lon="34.761085510">
<ele>344.117188</ele>
<time>2013-11-19T12:52:39Z</time>
<extensions>
<speed>0.0</speed>
<temp>0.00</temp>
<bpm>0</bpm>
<rpm>0.00</rpm>
</extensions>
</trkpt>
<trkpt lat="31.018388748" lon="34.761085510">
<ele>344.101563</ele>
<time>2013-11-19T12:52:44Z</time>
<extensions>
<speed>0.0</speed>
<temp>0.00</temp>
<bpm>0</bpm>
<rpm>0.00</rpm>
</extensions>
</trkpt>
<trkpt lat="31.018388748" lon="34.761085510">
<ele>344.101563</ele>
<time>2013-11-19T12:52:49Z</time>
<speed>0.180000</speed>
<extensions>
<speed>0.2</speed>
<temp>0.00</temp>
<bpm>0</bpm>
<rpm>0.00</rpm>
</extensions>
</trkpt>
<trkpt lat="31.018396378" lon="34.761108398">
<ele>344.312500</ele>
<time>2013-11-19T12:52:54Z</time>
<speed>0.170000</speed>
<extensions>
<speed>0.2</speed>
<temp>0.00</temp>
<bpm>0</bpm>
<rpm>0.00</rpm>
</extensions>
</trkpt>
<trkpt lat="31.018453598" lon="34.761146545">
<ele>344.398438</ele>
<time>2013-11-19T12:52:59Z</time>
<speed>2.130000</speed>
<extensions>
<speed>2.1</speed>
<temp>0.00</temp>
<bpm>0</bpm>
<rpm>0.00</rpm>
</extensions>
</trkpt>
<trkpt lat="31.018526077" lon="34.761165619">
<ele>344.039063</ele>
<time>2013-11-19T12:53:04Z</time>
<speed>1.400000</speed>
<extensions>
<speed>1.4</speed>
<temp>0.00</temp>
<bpm>0</bpm>
<rpm>0.00</rpm>
</extensions>
</trkpt>
<trkpt lat="31.018583298" lon="34.761173248">
<ele>343.500000</ele>
<time>2013-11-19T12:53:09Z</time>
<speed>1.350000</speed>
<extensions>
<speed>1.4</speed>
<temp>0.00</temp>
<bpm>0</bpm>
<rpm>0.00</rpm>
</extensions>
</trkpt>
<trkpt lat="31.018623352" lon="34.761215210">
<ele>343.640625</ele>
<time>2013-11-19T12:53:14Z</time>
<speed>1.190000</speed>
<extensions>
<speed>1.2</speed>
<temp>0.00</temp>
<bpm>0</bpm>
<rpm>0.00</rpm>
</extensions>
</trkpt>
<trkpt lat="31.018640518" lon="34.761280060">
<ele>343.984375</ele>
<time>2013-11-19T12:53:19Z</time>
<speed>1.270000</speed>
<extensions>
<speed>1.3</speed>
<temp>0.00</temp>
<bpm>0</bpm>
<rpm>0.00</rpm>
</extensions>
</trkpt>
<trkpt lat="31.018665314" lon="34.761322021">
<ele>343.835938</ele>
<time>2013-11-19T12:53:24Z</time>
<speed>0.790000</speed>
<extensions>
<speed>0.8</speed>
<temp>0.00</temp>
<bpm>0</bpm>
<rpm>0.00</rpm>
</extensions>
</trkpt>
<trkpt lat="31.018667221" lon="34.761363983">
<ele>343.406250</ele>
<time>2013-11-19T12:53:29Z</time>
<speed>1.020000</speed>
<extensions>
<speed>1.0</speed>
<temp>0.00</temp>
<bpm>0</bpm>
<rpm>0.00</rpm>
</extensions>
</trkpt>
<trkpt lat="31.018692017" lon="34.761444092">
<ele>343.851563</ele>
<time>2013-11-19T12:53:34Z</time>
<speed>1.410000</speed>
<extensions>
<speed>1.4</speed>
<temp>0.00</temp>
<bpm>0</bpm>
<rpm>0.00</rpm>
</extensions>
</trkpt>
<trkpt lat="31.018680573" lon="34.761482239">
<ele>343.937500</ele>
<time>2013-11-19T12:53:39Z</time>
<speed>0.840000</speed>
<extensions>
<speed>0.8</speed>
<temp>0.00</temp>
<bpm>0</bpm>
<rpm>0.00</rpm>
</extensions>
</trkpt>
<trkpt lat="31.018642426" lon="34.761531830">
<ele>343.757813</ele>
<time>2013-11-19T12:53:44Z</time>
<speed>1.660000</speed>
<extensions>
<speed>1.7</speed>
<temp>0.00</temp>
<bpm>0</bpm>
<rpm>0.00</rpm>
</extensions>
</trkpt>
<trkpt lat="31.018596649" lon="34.761623383">
<ele>343.882813</ele>
<time>2013-11-19T12:53:49Z</time>
<speed>2.160000</speed>
<extensions>
<speed>2.2</speed>
<temp>0.00</temp>
<bpm>0</bpm>
<rpm>0.00</rpm>
</extensions>
</trkpt>
<trkpt lat="31.018541336" lon="34.761718750">
<ele>343.367188</ele>
<time>2013-11-19T12:53:54Z</time>
<speed>2.230000</speed>
<extensions>
<speed>2.2</speed>
<temp>0.00</temp>
<bpm>0</bpm>
<rpm>0.00</rpm>
</extensions>
</trkpt>
<trkpt lat="31.018505096" lon="34.761795044">
<ele>342.695313</ele>
<time>2013-11-19T12:53:59Z</time>
<speed>1.970000</speed>
<extensions>
<speed>2.0</speed>
<temp>0.00</temp>
<bpm>0</bpm>
<rpm>0.00</rpm>
</extensions>
</trkpt>
<trkpt lat="31.018489838" lon="34.761848450">
<ele>341.976563</ele>
<time>2013-11-19T12:54:04Z</time>
<speed>0.020000</speed>
<extensions>
<speed>0.0</speed>
<temp>0.00</temp>
<bpm>0</bpm>
<rpm>0.00</rpm>
</extensions>
</trkpt>
<trkpt lat="31.018489838" lon="34.761848450">
<ele>341.750000</ele>
<time>2013-11-19T12:54:09Z</time>
<speed>0.150000</speed>
<extensions>
<speed>0.2</speed>
<temp>0.00</temp>
<bpm>0</bpm>
<rpm>0.00</rpm>
</extensions>
</trkpt>
<trkpt lat="31.018489838" lon="34.761844635">
<ele>341.734375</ele>
<time>2013-11-19T12:54:14Z</time>
<speed>0.020000</speed>
<extensions>
<speed>0.0</speed>
<temp>0.00</temp>
<bpm>0</bpm>
<rpm>0.00</rpm>
</extensions>
</trkpt>
<trkpt lat="31.018491745" lon="34.761848450">
<ele>341.726563</ele>
<time>2013-11-19T12:54:19Z</time>
<extensions>
<speed>0.0</speed>
<temp>0.00</temp>
<bpm>0</bpm>
<rpm>0.00</rpm>
</extensions>
</trkpt>
<trkpt lat="31.018491745" lon="34.761852264">
<ele>341.726563</ele>
<time>2013-11-19T12:54:24Z</time>
<speed>0.210000</speed>
<extensions>
<speed>0.2</speed>
<temp>0.00</temp>
<bpm>0</bpm>
<rpm>0.00</rpm>
</extensions>
</trkpt>
<trkpt lat="31.018503189" lon="34.761829376">
<ele>341.773438</ele>
<time>2013-11-19T12:54:29Z</time>
<speed>1.570000</speed>
<extensions>
<speed>1.6</speed>
<temp>0.00</temp>
<bpm>0</bpm>
<rpm>0.00</rpm>
</extensions>
</trkpt>
<trkpt lat="31.018550873" lon="34.761730194">
<ele>340.390625</ele>
<time>2013-11-19T12:54:34Z</time>
<speed>2.560000</speed>
<extensions>
<speed>2.6</speed>
<temp>0.00</temp>
<bpm>0</bpm>
<rpm>0.00</rpm>
</extensions>
</trkpt>
<trkpt lat="31.018598557" lon="34.761619568">
<ele>339.679688</ele>
<time>2013-11-19T12:54:39Z</time>
<speed>2.560000</speed>
<extensions>
<speed>2.6</speed>
<temp>0.00</temp>
<bpm>0</bpm>
<rpm>0.00</rpm>
</extensions>
</trkpt>
<trkpt lat="31.018651962" lon="34.761493683">
<ele>337.750000</ele>
<time>2013-11-19T12:54:44Z</time>
<speed>2.650000</speed>
<extensions>
<speed>2.6</speed>
<temp>0.00</temp>
<bpm>0</bpm>
<rpm>0.00</rpm>
</extensions>
</trkpt>
<trkpt lat="31.018718719" lon="34.761341095">
<ele>334.804688</ele>
<time>2013-11-19T12:54:49Z</time>
<speed>4.120000</speed>
<extensions>
<speed>4.1</speed>
<temp>0.00</temp>
<bpm>0</bpm>
<rpm>0.00</rpm>
</extensions>
</trkpt>
<trkpt lat="31.018806458" lon="34.761161804">
<ele>332.257813</ele>
<time>2013-11-19T12:54:54Z</time>
<speed>4.020000</speed>
<extensions>
<speed>4.0</speed>
<temp>0.00</temp>
<bpm>0</bpm>
<rpm>0.00</rpm>
</extensions>
</trkpt>
<trkpt lat="31.018911362" lon="34.760971069">
<ele>328.046875</ele>
<time>2013-11-19T12:54:59Z</time>
<speed>5.380000</speed>
<extensions>
<speed>5.4</speed>
<temp>0.00</temp>
<bpm>0</bpm>
<rpm>0.00</rpm>
</extensions>
</trkpt>
<trkpt lat="31.019107819" lon="34.760746002">
<ele>323.546875</ele>
<time>2013-11-19T12:55:04Z</time>
<speed>6.020000</speed>
<extensions>
<speed>6.0</speed>
<temp>0.00</temp>
<bpm>0</bpm>
<rpm>0.00</rpm>
</extensions>
</trkpt>
<trkpt lat="31.019245148" lon="34.760566711">
<ele>320.539063</ele>
<time>2013-11-19T12:55:09Z</time>
<speed>4.750000</speed>
<extensions>
<speed>4.8</speed>
<temp>0.00</temp>
<bpm>0</bpm>
<rpm>0.00</rpm>
</extensions>
</trkpt>
<trkpt lat="31.019380569" lon="34.760322571">
<ele>317.242188</ele>
<time>2013-11-19T12:55:14Z</time>
<speed>6.220000</speed>
<extensions>
<speed>6.2</speed>
<temp>0.00</temp>
<bpm>0</bpm>
<rpm>0.00</rpm>
</extensions>
</trkpt>
<trkpt lat="31.019519806" lon="34.760021210">
<ele>313.195313</ele>
<time>2013-11-19T12:55:19Z</time>
<speed>6.560000</speed>
<extensions>
<speed>6.6</speed>
<temp>0.00</temp>
<bpm>0</bpm>
<rpm>0.00</rpm>
</extensions>
</trkpt>
<trkpt lat="31.019659042" lon="34.759727478">
<ele>309.210938</ele>
<time>2013-11-19T12:55:24Z</time>
<speed>6.740000</speed>
<extensions>
<speed>6.7</speed>
<temp>0.00</temp>
<bpm>0</bpm>
<rpm>0.00</rpm>
</extensions>
</trkpt>
<trkpt lat="31.019775391" lon="34.759403229">
<ele>306.000000</ele>
<time>2013-11-19T12:55:29Z</time>
<speed>6.550000</speed>
<extensions>
<speed>6.5</speed>
<temp>0.00</temp>
<bpm>0</bpm>
<rpm>0.00</rpm>
</extensions>
</trkpt>
<trkpt lat="31.019886017" lon="34.759189606">
<ele>303.773438</ele>
<time>2013-11-19T12:55:34Z</time>
<speed>3.950000</speed>
<extensions>
<speed>4.0</speed>
<temp>0.00</temp>
<bpm>0</bpm>
<rpm>0.00</rpm>
</extensions>
</trkpt>
<trkpt lat="31.020017624" lon="34.759105682">
<ele>302.343750</ele>
<time>2013-11-19T12:55:39Z</time>
<speed>2.460000</speed>
<extensions>
<speed>2.5</speed>
<temp>0.00</temp>
<bpm>0</bpm>
<rpm>0.00</rpm>
</extensions>
</trkpt>
<trkpt lat="31.020078659" lon="34.759151459">
<ele>303.312500</ele>
<time>2013-11-19T12:55:44Z</time>
<speed>3.020000</speed>
<extensions>
<speed>3.0</speed>
<temp>0.00</temp>
<bpm>0</bpm>
<rpm>0.00</rpm>
</extensions>
</trkpt>
<trkpt lat="31.020132065" lon="34.759326935">
<ele>305.171875</ele>
<time>2013-11-19T12:55:49Z</time>
<speed>3.720000</speed>
<extensions>
<speed>3.7</speed>
<temp>0.00</temp>
<bpm>0</bpm>
<rpm>0.00</rpm>
</extensions>
</trkpt>
<trkpt lat="31.020154953" lon="34.759513855">
<ele>308.554688</ele>
<time>2013-11-19T12:55:54Z</time>
<speed>3.190000</speed>
<extensions>
<speed>3.2</speed>
<temp>0.00</temp>
<bpm>0</bpm>
<rpm>0.00</rpm>
</extensions>
</trkpt>
<trkpt lat="31.020187378" lon="34.759704590">
<ele>310.226563</ele>
<time>2013-11-19T12:55:59Z</time>
<speed>3.580000</speed>
<extensions>
<speed>3.6</speed>
<temp>0.00</temp>
<bpm>0</bpm>
<rpm>0.00</rpm>
</extensions>
</trkpt>
<trkpt lat="31.020231247" lon="34.759902954">
<ele>311.125000</ele>
<time>2013-11-19T12:56:04Z</time>
<speed>4.000000</speed>
<extensions>
<speed>4.0</speed>
<temp>0.00</temp>
<bpm>0</bpm>
<rpm>0.00</rpm>
</extensions>
</trkpt>
<trkpt lat="31.020278931" lon="34.760093689">
<ele>312.484375</ele>
<time>2013-11-19T12:56:09Z</time>
<speed>3.350000</speed>
<extensions>
<speed>3.4</speed>
<temp>0.00</temp>
<bpm>0</bpm>
<rpm>0.00</rpm>
</extensions>
</trkpt>
<trkpt lat="31.020318985" lon="34.760284424">
<ele>314.093750</ele>
<time>2013-11-19T12:56:14Z</time>
<speed>3.420000</speed>
<extensions>
<speed>3.4</speed>
<temp>0.00</temp>
<bpm>0</bpm>
<rpm>0.00</rpm>
</extensions>
</trkpt>
<trkpt lat="31.020332336" lon="34.760459900">
<ele>316.226563</ele>
<time>2013-11-19T12:56:19Z</time>
<speed>3.870000</speed>
<extensions>
<speed>3.9</speed>
<temp>0.00</temp>
<bpm>0</bpm>
<rpm>0.00</rpm>
</extensions>
</trkpt>
<trkpt lat="31.020318985" lon="34.760654449">
<ele>318.429688</ele>
<time>2013-11-19T12:56:24Z</time>
<speed>3.960000</speed>
<extensions>
<speed>4.0</speed>
<temp>0.00</temp>
<bpm>0</bpm>
<rpm>0.00</rpm>
</extensions>
</trkpt>
<trkpt lat="31.020290375" lon="34.760833740">
<ele>320.382813</ele>
<time>2013-11-19T12:56:29Z</time>
<speed>3.200000</speed>
<extensions>
<speed>3.2</speed>
<temp>0.00</temp>
<bpm>0</bpm>
<rpm>0.00</rpm>
</extensions>
</trkpt>
<trkpt lat="31.020275116" lon="34.761039734">
<ele>320.515625</ele>
<time>2013-11-19T12:56:34Z</time>
<speed>4.540000</speed>
<extensions>
<speed>4.5</speed>
<temp>0.00</temp>
<bpm>0</bpm>
<rpm>0.00</rpm>
</extensions>
</trkpt>
<trkpt lat="31.020280838" lon="34.761260986">
<ele>320.851563</ele>
<time>2013-11-19T12:56:39Z</time>
<speed>3.400000</speed>
<extensions>
<speed>3.4</speed>
<temp>0.00</temp>
<bpm>0</bpm>
<rpm>0.00</rpm>
</extensions>
</trkpt>
<trkpt lat="31.020290375" lon="34.761447906">
<ele>321.601563</ele>
<time>2013-11-19T12:56:44Z</time>
<speed>3.830000</speed>
<extensions>
<speed>3.8</speed>
<temp>0.00</temp>
<bpm>0</bpm>
<rpm>0.00</rpm>
</extensions>
</trkpt>
<trkpt lat="31.020271301" lon="34.761623383">
<ele>322.375000</ele>
<time>2013-11-19T12:56:49Z</time>
<speed>2.750000</speed>
<extensions>
<speed>2.7</speed>
<temp>0.00</temp>
<bpm>0</bpm>
<rpm>0.00</rpm>
</extensions>
</trkpt>
<trkpt lat="31.020248413" lon="34.761787415">
<ele>322.703125</ele>
<time>2013-11-19T12:56:54Z</time>
<speed>3.620000</speed>
<extensions>
<speed>3.6</speed>
<temp>0.00</temp>
<bpm>0</bpm>
<rpm>0.00</rpm>
</extensions>
</trkpt>
<trkpt lat="31.020214081" lon="34.761974335">
<ele>322.617188</ele>
<time>2013-11-19T12:56:59Z</time>
<speed>3.690000</speed>
<extensions>
<speed>3.7</speed>
<temp>0.00</temp>
<bpm>0</bpm>
<rpm>0.00</rpm>
</extensions>
</trkpt>
<trkpt lat="31.020158768" lon="34.762153625">
<ele>322.523438</ele>
<time>2013-11-19T12:57:04Z</time>
<speed>4.030000</speed>
<extensions>
<speed>4.0</speed>
<temp>0.00</temp>
<bpm>0</bpm>
<rpm>0.00</rpm>
</extensions>
</trkpt>
<trkpt lat="31.020097733" lon="34.762344360">
<ele>322.656250</ele>
<time>2013-11-19T12:57:09Z</time>
<speed>3.450000</speed>
<extensions>
<speed>3.5</speed>
<temp>0.00</temp>
<bpm>0</bpm>
<rpm>0.00</rpm>
</extensions>
</trkpt>
<trkpt lat="31.020034790" lon="34.762508392">
<ele>323.070313</ele>
<time>2013-11-19T12:57:14Z</time>
<speed>3.770000</speed>
<extensions>
<speed>3.8</speed>
<temp>0.00</temp>
<bpm>0</bpm>
<rpm>0.00</rpm>
</extensions>
</trkpt>
<trkpt lat="31.019969940" lon="34.762676239">
<ele>323.500000</ele>
<time>2013-11-19T12:57:19Z</time>
<speed>3.080000</speed>
<extensions>
<speed>3.1</speed>
<temp>0.00</temp>
<bpm>0</bpm>
<rpm>0.00</rpm>
</extensions>
</trkpt>
<trkpt lat="31.019918442" lon="34.762825012">
<ele>323.890625</ele>
<time>2013-11-19T12:57:24Z</time>
<speed>3.770000</speed>
<extensions>
<speed>3.8</speed>
<temp>0.00</temp>
<bpm>0</bpm>
<rpm>0.00</rpm>
</extensions>
</trkpt>
<trkpt lat="31.019855499" lon="34.762989044">
<ele>323.750000</ele>
<time>2013-11-19T12:57:29Z</time>
<speed>3.300000</speed>
<extensions>
<speed>3.3</speed>
<temp>0.00</temp>
<bpm>0</bpm>
<rpm>0.00</rpm>
</extensions>
</trkpt>
<trkpt lat="31.019786835" lon="34.763156891">
<ele>324.062500</ele>
<time>2013-11-19T12:57:34Z</time>
<speed>3.830000</speed>
<extensions>
<speed>3.8</speed>
<temp>0.00</temp>
<bpm>0</bpm>
<rpm>0.00</rpm>
</extensions>
</trkpt>
<trkpt lat="31.019721985" lon="34.763309479">
<ele>324.054688</ele>
<time>2013-11-19T12:57:39Z</time>
<speed>3.240000</speed>
<extensions>
<speed>3.2</speed>
<temp>0.00</temp>
<bpm>0</bpm>
<rpm>0.00</rpm>
</extensions>
</trkpt>
<trkpt lat="31.019662857" lon="34.763492584">
<ele>324.171875</ele>
<time>2013-11-19T12:57:44Z</time>
<speed>4.090000</speed>
<extensions>
<speed>4.1</speed>
<temp>0.00</temp>
<bpm>0</bpm>
<rpm>0.00</rpm>
</extensions>
</trkpt>
<trkpt lat="31.019615173" lon="34.763683319">
<ele>325.140625</ele>
<time>2013-11-19T12:57:49Z</time>
<speed>3.770000</speed>
<extensions>
<speed>3.8</speed>
<temp>0.00</temp>
<bpm>0</bpm>
<rpm>0.00</rpm>
</extensions>
</trkpt>
<trkpt lat="31.019575119" lon="34.763885498">
<ele>325.492188</ele>
<time>2013-11-19T12:57:54Z</time>
<speed>3.610000</speed>
<extensions>
<speed>3.6</speed>
<temp>0.00</temp>
<bpm>0</bpm>
<rpm>0.00</rpm>
</extensions>
</trkpt>
<trkpt lat="31.019536972" lon="34.764060974">
<ele>325.593750</ele>
<time>2013-11-19T12:57:59Z</time>
<speed>3.710000</speed>
<extensions>
<speed>3.7</speed>
<temp>0.00</temp>
<bpm>0</bpm>
<rpm>0.00</rpm>
</extensions>
</trkpt>
<trkpt lat="31.019504547" lon="34.764255524">
<ele>326.031250</ele>
<time>2013-11-19T12:58:04Z</time>
<speed>3.080000</speed>
<extensions>
<speed>3.1</speed>
<temp>0.00</temp>
<bpm>0</bpm>
<rpm>0.00</rpm>
</extensions>
</trkpt>
<trkpt lat="31.019474030" lon="34.764419556">
<ele>325.898438</ele>
<time>2013-11-19T12:58:09Z</time>
<speed>3.540000</speed>
<extensions>
<speed>3.5</speed>
<temp>0.00</temp>
<bpm>0</bpm>
<rpm>0.00</rpm>
</extensions>
</trkpt>
<trkpt lat="31.019443512" lon="34.764591217">
<ele>325.781250</ele>
<time>2013-11-19T12:58:14Z</time>
<speed>2.960000</speed>
<extensions>
<speed>3.0</speed>
<temp>0.00</temp>
<bpm>0</bpm>
<rpm>0.00</rpm>
</extensions>
</trkpt>
<trkpt lat="31.019409180" lon="34.764770508">
<ele>325.875000</ele>
<time>2013-11-19T12:58:19Z</time>
<speed>3.820000</speed>
<extensions>
<speed>3.8</speed>
<temp>0.00</temp>
<bpm>0</bpm>
<rpm>0.00</rpm>
</extensions>
</trkpt>
<trkpt lat="31.019374847" lon="34.764965057">
<ele>325.460938</ele>
<time>2013-11-19T12:58:24Z</time>
<speed>3.790000</speed>
<extensions>
<speed>3.8</speed>
<temp>0.00</temp>
<bpm>0</bpm>
<rpm>0.00</rpm>
</extensions>
</trkpt>
<trkpt lat="31.019342422" lon="34.765159607">
<ele>325.453125</ele>
<time>2013-11-19T12:58:29Z</time>
<speed>3.650000</speed>
<extensions>
<speed>3.7</speed>
<temp>0.00</temp>
<bpm>0</bpm>
<rpm>0.00</rpm>
</extensions>
</trkpt>
<trkpt lat="31.019308090" lon="34.765357971">
<ele>325.539063</ele>
<time>2013-11-19T12:58:34Z</time>
<speed>3.990000</speed>
<extensions>
<speed>4.0</speed>
<temp>0.00</temp>
<bpm>0</bpm>
<rpm>0.00</rpm>
</extensions>
</trkpt>
<trkpt lat="31.019273758" lon="34.765575409">
<ele>325.757813</ele>
<time>2013-11-19T12:58:39Z</time>
<speed>3.990000</speed>
<extensions>
<speed>4.0</speed>
<temp>0.00</temp>
<bpm>0</bpm>
<rpm>0.00</rpm>
</extensions>
</trkpt>
<trkpt lat="31.019250870" lon="34.765743256">
<ele>325.945313</ele>
<time>2013-11-19T12:58:44Z</time>
<speed>3.320000</speed>
<extensions>
<speed>3.3</speed>
<temp>0.00</temp>
<bpm>0</bpm>
<rpm>0.00</rpm>
</extensions>
</trkpt>
<trkpt lat="31.019220352" lon="34.765941620">
<ele>326.226563</ele>
<time>2013-11-19T12:58:49Z</time>
<speed>4.330000</speed>
<extensions>
<speed>4.3</speed>
<temp>0.00</temp>
<bpm>0</bpm>
<rpm>0.00</rpm>
</extensions>
</trkpt>
<trkpt lat="31.019201279" lon="34.766109467">
<ele>326.773438</ele>
<time>2013-11-19T12:58:54Z</time>
<speed>2.470000</speed>
<extensions>
<speed>2.5</speed>
<temp>0.00</temp>
<bpm>0</bpm>
<rpm>0.00</rpm>
</extensions>
</trkpt>
<trkpt lat="31.019176483" lon="34.766265869">
<ele>327.031250</ele>
<time>2013-11-19T12:58:59Z</time>
<speed>3.480000</speed>
<extensions>
<speed>3.5</speed>
<temp>0.00</temp>
<bpm>0</bpm>
<rpm>0.00</rpm>
</extensions>
</trkpt>
<trkpt lat="31.019144058" lon="34.766456604">
<ele>327.609375</ele>
<time>2013-11-19T12:59:04Z</time>
<speed>3.770000</speed>
<extensions>
<speed>3.8</speed>
<temp>0.00</temp>
<bpm>0</bpm>
<rpm>0.00</rpm>
</extensions>
</trkpt>
<trkpt lat="31.019104004" lon="34.766651154">
<ele>328.023438</ele>
<time>2013-11-19T12:59:09Z</time>
<speed>3.450000</speed>
<extensions>
<speed>3.5</speed>
<temp>0.00</temp>
<bpm>0</bpm>
<rpm>0.00</rpm>
</extensions>
</trkpt>
<trkpt lat="31.019062042" lon="34.766815186">
<ele>328.703125</ele>
<time>2013-11-19T12:59:14Z</time>
<speed>3.450000</speed>
<extensions>
<speed>3.5</speed>
<temp>0.00</temp>
<bpm>0</bpm>
<rpm>0.00</rpm>
</extensions>
</trkpt>
<trkpt lat="31.019008636" lon="34.766986847">
<ele>328.906250</ele>
<time>2013-11-19T12:59:19Z</time>
<speed>3.360000</speed>
<extensions>
<speed>3.4</speed>
<temp>0.00</temp>
<bpm>0</bpm>
<rpm>0.00</rpm>
</extensions>
</trkpt>
<trkpt lat="31.018970490" lon="34.767154694">
<ele>329.117188</ele>
<time>2013-11-19T12:59:24Z</time>
<speed>3.060000</speed>
<extensions>
<speed>3.1</speed>
<temp>0.00</temp>
<bpm>0</bpm>
<rpm>0.00</rpm>
</extensions>
</trkpt>
<trkpt lat="31.018951416" lon="34.767307281">
<ele>329.289063</ele>
<time>2013-11-19T12:59:29Z</time>
<speed>2.800000</speed>
<extensions>
<speed>2.8</speed>
<temp>0.00</temp>
<bpm>0</bpm>
<rpm>0.00</rpm>
</extensions>
</trkpt>
<trkpt lat="31.018938065" lon="34.767410278">
<ele>330.195313</ele>
<time>2013-11-19T12:59:34Z</time>
<speed>1.370000</speed>
<extensions>
<speed>1.4</speed>
<temp>0.00</temp>
<bpm>0</bpm>
<rpm>0.00</rpm>
</extensions>
</trkpt>
<trkpt lat="31.018934250" lon="34.767482758">
<ele>330.750000</ele>
<time>2013-11-19T12:59:39Z</time>
<speed>1.180000</speed>
<extensions>
<speed>1.2</speed>
<temp>0.00</temp>
<bpm>0</bpm>
<rpm>0.00</rpm>
</extensions>
</trkpt>
<trkpt lat="31.018928528" lon="34.767547607">
<ele>330.992188</ele>
<time>2013-11-19T12:59:44Z</time>
<speed>0.980000</speed>
<extensions>
<speed>1.0</speed>
<temp>0.00</temp>
<bpm>0</bpm>
<rpm>0.00</rpm>
</extensions>
</trkpt>
<trkpt lat="31.018924713" lon="34.767604828">
<ele>331.093750</ele>
<time>2013-11-19T12:59:49Z</time>
<speed>1.600000</speed>
<extensions>
<speed>1.6</speed>
<temp>0.00</temp>
<bpm>0</bpm>
<rpm>0.00</rpm>
</extensions>
</trkpt>
<trkpt lat="31.018922806" lon="34.767665863">
<ele>331.265625</ele>
<time>2013-11-19T12:59:54Z</time>
<speed>0.560000</speed>
<extensions>
<speed>0.6</speed>
<temp>0.00</temp>
<bpm>0</bpm>
<rpm>0.00</rpm>
</extensions>
</trkpt>
<trkpt lat="31.018920898" lon="34.767669678">
<ele>331.539063</ele>
<time>2013-11-19T12:59:59Z</time>
<extensions>
<speed>0.0</speed>
<temp>0.00</temp>
<bpm>0</bpm>
<rpm>0.00</rpm>
</extensions>
</trkpt>
<trkpt lat="31.018920898" lon="34.767665863">
<ele>331.546875</ele>
<time>2013-11-19T13:00:04Z</time>
<speed>0.010000</speed>
<extensions>
<speed>0.0</speed>
<temp>0.00</temp>
<bpm>0</bpm>
<rpm>0.00</rpm>
</extensions>
</trkpt>
<trkpt lat="31.018920898" lon="34.767665863">
<ele>331.546875</ele>
<time>2013-11-19T13:00:09Z</time>
<extensions>
<speed>0.0</speed>
<temp>0.00</temp>
<bpm>0</bpm>
<rpm>0.00</rpm>
</extensions>
</trkpt>
<trkpt lat="31.018917084" lon="34.767677307">
<ele>331.554688</ele>
<time>2013-11-19T13:00:14Z</time>
<speed>0.710000</speed>
<extensions>
<speed>0.7</speed>
<temp>0.00</temp>
<bpm>0</bpm>
<rpm>0.00</rpm>
</extensions>
</trkpt>
<trkpt lat="31.018896103" lon="34.767646790">
<ele>330.851563</ele>
<time>2013-11-19T13:00:19Z</time>
<speed>2.090000</speed>
<extensions>
<speed>2.1</speed>
<temp>0.00</temp>
<bpm>0</bpm>
<rpm>0.00</rpm>
</extensions>
</trkpt>
<trkpt lat="31.018913269" lon="34.767494202">
<ele>329.851563</ele>
<time>2013-11-19T13:00:24Z</time>
<speed>3.980000</speed>
<extensions>
<speed>4.0</speed>
<temp>0.00</temp>
<bpm>0</bpm>
<rpm>0.00</rpm>
</extensions>
</trkpt>
<trkpt lat="31.018936157" lon="34.767288208">
<ele>328.460938</ele>
<time>2013-11-19T13:00:29Z</time>
<speed>4.470000</speed>
<extensions>
<speed>4.5</speed>
<temp>0.00</temp>
<bpm>0</bpm>
<rpm>0.00</rpm>
</extensions>
</trkpt>
<trkpt lat="31.018976212" lon="34.767059326">
<ele>327.617188</ele>
<time>2013-11-19T13:00:34Z</time>
<speed>4.510000</speed>
<extensions>
<speed>4.5</speed>
<temp>0.00</temp>
<bpm>0</bpm>
<rpm>0.00</rpm>
</extensions>
</trkpt>
<trkpt lat="31.019027710" lon="34.766845703">
<ele>326.625000</ele>
<time>2013-11-19T13:00:39Z</time>
<speed>4.200000</speed>
<extensions>
<speed>4.2</speed>
<temp>0.00</temp>
<bpm>0</bpm>
<rpm>0.00</rpm>
</extensions>
</trkpt>
<trkpt lat="31.019083023" lon="34.766616821">
<ele>324.703125</ele>
<time>2013-11-19T13:00:44Z</time>
<speed>5.000000</speed>
<extensions>
<speed>5.0</speed>
<temp>0.00</temp>
<bpm>0</bpm>
<rpm>0.00</rpm>
</extensions>
</trkpt>
<trkpt lat="31.019130707" lon="34.766349792">
<ele>322.726563</ele>
<time>2013-11-19T13:00:49Z</time>
<speed>5.130000</speed>
<extensions>
<speed>5.1</speed>
<temp>0.00</temp>
<bpm>0</bpm>
<rpm>0.00</rpm>
</extensions>
</trkpt>
<trkpt lat="31.019170761" lon="34.766086578">
<ele>321.406250</ele>
<time>2013-11-19T13:00:54Z</time>
<speed>5.170000</speed>
<extensions>
<speed>5.2</speed>
<temp>0.00</temp>
<bpm>0</bpm>
<rpm>0.00</rpm>
</extensions>
</trkpt>
<trkpt lat="31.019205093" lon="34.765823364">
<ele>320.406250</ele>
<time>2013-11-19T13:00:59Z</time>
<speed>4.630000</speed>
<extensions>
<speed>4.6</speed>
<temp>0.00</temp>
<bpm>0</bpm>
<rpm>0.00</rpm>
</extensions>
</trkpt>
<trkpt lat="31.019237518" lon="34.765594482">
<ele>318.820313</ele>
<time>2013-11-19T13:01:04Z</time>
<speed>4.220000</speed>
<extensions>
<speed>4.2</speed>
<temp>0.00</temp>
<bpm>0</bpm>
<rpm>0.00</rpm>
</extensions>
</trkpt>
<trkpt lat="31.019275665" lon="34.765384674">
<ele>318.062500</ele>
<time>2013-11-19T13:01:09Z</time>
<speed>3.690000</speed>
<extensions>
<speed>3.7</speed>
<temp>0.00</temp>
<bpm>0</bpm>
<rpm>0.00</rpm>
</extensions>
</trkpt>
<trkpt lat="31.019306183" lon="34.765201569">
<ele>316.898438</ele>
<time>2013-11-19T13:01:14Z</time>
<speed>3.320000</speed>
<extensions>
<speed>3.3</speed>
<temp>0.00</temp>
<bpm>0</bpm>
<rpm>0.00</rpm>
</extensions>
</trkpt>
<trkpt lat="31.019344330" lon="34.765018463">
<ele>316.039063</ele>
<time>2013-11-19T13:01:19Z</time>
<speed>3.860000</speed>
<extensions>
<speed>3.9</speed>
<temp>0.00</temp>
<bpm>0</bpm>
<rpm>0.00</rpm>
</extensions>
</trkpt>
<trkpt lat="31.019374847" lon="34.764831543">
<ele>315.148438</ele>
<time>2013-11-19T13:01:24Z</time>
<speed>3.520000</speed>
<extensions>
<speed>3.5</speed>
<temp>0.00</temp>
<bpm>0</bpm>
<rpm>0.00</rpm>
</extensions>
</trkpt>
<trkpt lat="31.019407272" lon="34.764633179">
<ele>314.218750</ele>
<time>2013-11-19T13:01:29Z</time>
<speed>4.280000</speed>
<extensions>
<speed>4.3</speed>
<temp>0.00</temp>
<bpm>0</bpm>
<rpm>0.00</rpm>
</extensions>
</trkpt>
<trkpt lat="31.019458771" lon="34.764419556">
<ele>313.335938</ele>
<time>2013-11-19T13:01:34Z</time>
<speed>3.950000</speed>
<extensions>
<speed>4.0</speed>
<temp>0.00</temp>
<bpm>0</bpm>
<rpm>0.00</rpm>
</extensions>
</trkpt>
<trkpt lat="31.019502640" lon="34.764205933">
<ele>311.945313</ele>
<time>2013-11-19T13:01:39Z</time>
<speed>4.210000</speed>
<extensions>
<speed>4.2</speed>
<temp>0.00</temp>
<bpm>0</bpm>
<rpm>0.00</rpm>
</extensions>
</trkpt>
<trkpt lat="31.019546509" lon="34.763977051">
<ele>310.843750</ele>
<time>2013-11-19T13:01:44Z</time>
<speed>4.760000</speed>
<extensions>
<speed>4.8</speed>
<temp>0.00</temp>
<bpm>0</bpm>
<rpm>0.00</rpm>
</extensions>
</trkpt>
<trkpt lat="31.019601822" lon="34.763736725">
<ele>310.085938</ele>
<time>2013-11-19T13:01:49Z</time>
<speed>4.700000</speed>
<extensions>
<speed>4.7</speed>
<temp>0.00</temp>
<bpm>0</bpm>
<rpm>0.00</rpm>
</extensions>
</trkpt>
<trkpt lat="31.019660950" lon="34.763504028">
<ele>309.039063</ele>
<time>2013-11-19T13:01:54Z</time>
<speed>4.640000</speed>
<extensions>
<speed>4.6</speed>
<temp>0.00</temp>
<bpm>0</bpm>
<rpm>0.00</rpm>
</extensions>
</trkpt>
<trkpt lat="31.019731522" lon="34.763282776">
<ele>308.007813</ele>
<time>2013-11-19T13:01:59Z</time>
<speed>4.430000</speed>
<extensions>
<speed>4.4</speed>
<temp>0.00</temp>
<bpm>0</bpm>
<rpm>0.00</rpm>
</extensions>
</trkpt>
<trkpt lat="31.019802094" lon="34.763076782">
<ele>307.304688</ele>
<time>2013-11-19T13:02:04Z</time>
<speed>4.030000</speed>
<extensions>
<speed>4.0</speed>
<temp>0.00</temp>
<bpm>0</bpm>
<rpm>0.00</rpm>
</extensions>
</trkpt>
<trkpt lat="31.019880295" lon="34.762863159">
<ele>306.781250</ele>
<time>2013-11-19T13:02:09Z</time>
<speed>4.260000</speed>
<extensions>
<speed>4.3</speed>
<temp>0.00</temp>
<bpm>0</bpm>
<rpm>0.00</rpm>
</extensions>
</trkpt>
<trkpt lat="31.019945145" lon="34.762680054">
<ele>306.148438</ele>
<time>2013-11-19T13:02:14Z</time>
<speed>3.380000</speed>
<extensions>
<speed>3.4</speed>
<temp>0.00</temp>
<bpm>0</bpm>
<rpm>0.00</rpm>
</extensions>
</trkpt>
<trkpt lat="31.020008087" lon="34.762516022">
<ele>305.382813</ele>
<time>2013-11-19T13:02:19Z</time>
<speed>3.590000</speed>
<extensions>
<speed>3.6</speed>
<temp>0.00</temp>
<bpm>0</bpm>
<rpm>0.00</rpm>
</extensions>
</trkpt>
<trkpt lat="31.020069122" lon="34.762340546">
<ele>304.414063</ele>
<time>2013-11-19T13:02:24Z</time>
<speed>3.490000</speed>
<extensions>
<speed>3.5</speed>
<temp>0.00</temp>
<bpm>0</bpm>
<rpm>0.00</rpm>
</extensions>
</trkpt>
<trkpt lat="31.020124435" lon="34.762157440">
<ele>303.804688</ele>
<time>2013-11-19T13:02:29Z</time>
<speed>4.310000</speed>
<extensions>
<speed>4.3</speed>
<temp>0.00</temp>
<bpm>0</bpm>
<rpm>0.00</rpm>
</extensions>
</trkpt>
<trkpt lat="31.020179749" lon="34.761932373">
<ele>303.414063</ele>
<time>2013-11-19T13:02:34Z</time>
<speed>4.280000</speed>
<extensions>
<speed>4.3</speed>
<temp>0.00</temp>
<bpm>0</bpm>
<rpm>0.00</rpm>
</extensions>
</trkpt>
<trkpt lat="31.020221710" lon="34.761699677">
<ele>303.257813</ele>
<time>2013-11-19T13:02:39Z</time>
<speed>4.690000</speed>
<extensions>
<speed>4.7</speed>
<temp>0.00</temp>
<bpm>0</bpm>
<rpm>0.00</rpm>
</extensions>
</trkpt>
<trkpt lat="31.020246506" lon="34.761451721">
<ele>302.312500</ele>
<time>2013-11-19T13:02:44Z</time>
<speed>4.890000</speed>
<extensions>
<speed>4.9</speed>
<temp>0.00</temp>
<bpm>0</bpm>
<rpm>0.00</rpm>
</extensions>
</trkpt>
<trkpt lat="31.020240784" lon="34.761180878">
<ele>301.687500</ele>
<time>2013-11-19T13:02:49Z</time>
<speed>5.080000</speed>
<extensions>
<speed>5.1</speed>
<temp>0.00</temp>
<bpm>0</bpm>
<rpm>0.00</rpm>
</extensions>
</trkpt>
<trkpt lat="31.020244598" lon="34.760917664">
<ele>301.382813</ele>
<time>2013-11-19T13:02:54Z</time>
<speed>4.460000</speed>
<extensions>
<speed>4.5</speed>
<temp>0.00</temp>
<bpm>0</bpm>
<rpm>0.00</rpm>
</extensions>
</trkpt>
<trkpt lat="31.020275116" lon="34.760700226">
<ele>300.593750</ele>
<time>2013-11-19T13:02:59Z</time>
<speed>4.410000</speed>
<extensions>
<speed>4.4</speed>
<temp>0.00</temp>
<bpm>0</bpm>
<rpm>0.00</rpm>
</extensions>
</trkpt>
<trkpt lat="31.020299911" lon="34.760452271">
<ele>299.921875</ele>
<time>2013-11-19T13:03:04Z</time>
<speed>5.270000</speed>
<extensions>
<speed>5.3</speed>
<temp>0.00</temp>
<bpm>0</bpm>
<rpm>0.00</rpm>
</extensions>
</trkpt>
<trkpt lat="31.020265579" lon="34.760173798">
<ele>299.921875</ele>
<time>2013-11-19T13:03:09Z</time>
<speed>5.020000</speed>
<extensions>
<speed>5.0</speed>
<temp>0.00</temp>
<bpm>0</bpm>
<rpm>0.00</rpm>
</extensions>
</trkpt>
<trkpt lat="31.020200729" lon="34.759922028">
<ele>299.671875</ele>
<time>2013-11-19T13:03:14Z</time>
<speed>4.980000</speed>
<extensions>
<speed>5.0</speed>
<temp>0.00</temp>
<bpm>0</bpm>
<rpm>0.00</rpm>
</extensions>
</trkpt>
<trkpt lat="31.020143509" lon="34.759662628">
<ele>299.117188</ele>
<time>2013-11-19T13:03:19Z</time>
<speed>4.880000</speed>
<extensions>
<speed>4.9</speed>
<temp>0.00</temp>
<bpm>0</bpm>
<rpm>0.00</rpm>
</extensions>
</trkpt>
<trkpt lat="31.020109177" lon="34.759426117">
<ele>299.164063</ele>
<time>2013-11-19T13:03:24Z</time>
<speed>4.420000</speed>
<extensions>
<speed>4.4</speed>
<temp>0.00</temp>
<bpm>0</bpm>
<rpm>0.00</rpm>
</extensions>
</trkpt>
<trkpt lat="31.020046234" lon="34.759170532">
<ele>299.039063</ele>
<time>2013-11-19T13:03:29Z</time>
<speed>5.510000</speed>
<extensions>
<speed>5.5</speed>
<temp>0.00</temp>
<bpm>0</bpm>
<rpm>0.00</rpm>
</extensions>
</trkpt>
<trkpt lat="31.019905090" lon="34.758907318">
<ele>299.859375</ele>
<time>2013-11-19T13:03:34Z</time>
<speed>5.780000</speed>
<extensions>
<speed>5.8</speed>
<temp>0.00</temp>
<bpm>0</bpm>
<rpm>0.00</rpm>
</extensions>
</trkpt>
<trkpt lat="31.019750595" lon="34.758663177">
<ele>299.687500</ele>
<time>2013-11-19T13:03:39Z</time>
<speed>5.430000</speed>
<extensions>
<speed>5.4</speed>
<temp>0.00</temp>
<bpm>0</bpm>
<rpm>0.00</rpm>
</extensions>
</trkpt>
<trkpt lat="31.019632339" lon="34.758388519">
<ele>298.695313</ele>
<time>2013-11-19T13:03:44Z</time>
<speed>5.880000</speed>
<extensions>
<speed>5.9</speed>
<temp>0.00</temp>
<bpm>0</bpm>
<rpm>0.00</rpm>
</extensions>
</trkpt>
<trkpt lat="31.019479752" lon="34.758090973">
<ele>297.140625</ele>
<time>2013-11-19T13:03:49Z</time>
<speed>7.330000</speed>
<extensions>
<speed>7.3</speed>
<temp>0.00</temp>
<bpm>0</bpm>
<rpm>0.00</rpm>
</extensions>
</trkpt>
<trkpt lat="31.019325256" lon="34.757778168">
<ele>296.250000</ele>
<time>2013-11-19T13:03:54Z</time>
<speed>6.590000</speed>
<extensions>
<speed>6.6</speed>
<temp>0.00</temp>
<bpm>0</bpm>
<rpm>0.00</rpm>
</extensions>
</trkpt>
<trkpt lat="31.019243240" lon="34.757495880">
<ele>296.523438</ele>
<time>2013-11-19T13:03:59Z</time>
<speed>4.710000</speed>
<extensions>
<speed>4.7</speed>
<temp>0.00</temp>
<bpm>0</bpm>
<rpm>0.00</rpm>
</extensions>
</trkpt>
<trkpt lat="31.019121170" lon="34.757335663">
<ele>298.171875</ele>
<time>2013-11-19T13:04:04Z</time>
<speed>3.400000</speed>
<extensions>
<speed>3.4</speed>
<temp>0.00</temp>
<bpm>0</bpm>
<rpm>0.00</rpm>
</extensions>
</trkpt>
<trkpt lat="31.019023895" lon="34.757183075">
<ele>297.359375</ele>
<time>2013-11-19T13:04:09Z</time>
<speed>4.190000</speed>
<extensions>
<speed>4.2</speed>
<temp>0.00</temp>
<bpm>0</bpm>
<rpm>0.00</rpm>
</extensions>
</trkpt>
<trkpt lat="31.019027710" lon="34.756923676">
<ele>295.851563</ele>
<time>2013-11-19T13:04:14Z</time>
<speed>5.130000</speed>
<extensions>
<speed>5.1</speed>
<temp>0.00</temp>
<bpm>0</bpm>
<rpm>0.00</rpm>
</extensions>
</trkpt>
<trkpt lat="31.019195557" lon="34.756778717">
<ele>296.046875</ele>
<time>2013-11-19T13:04:19Z</time>
<speed>4.750000</speed>
<extensions>
<speed>4.8</speed>
<temp>0.00</temp>
<bpm>0</bpm>
<rpm>0.00</rpm>
</extensions>
</trkpt>
<trkpt lat="31.019357681" lon="34.756675720">
<ele>296.937500</ele>
<time>2013-11-19T13:04:24Z</time>
<speed>3.160000</speed>
<extensions>
<speed>3.2</speed>
<temp>0.00</temp>
<bpm>0</bpm>
<rpm>0.00</rpm>
</extensions>
</trkpt>
<trkpt lat="31.019491196" lon="34.756572723">
<ele>297.250000</ele>
<time>2013-11-19T13:04:29Z</time>
<speed>3.780000</speed>
<extensions>
<speed>3.8</speed>
<temp>0.00</temp>
<bpm>0</bpm>
<rpm>0.00</rpm>
</extensions>
</trkpt>
<trkpt lat="31.019636154" lon="34.756446838">
<ele>297.578125</ele>
<time>2013-11-19T13:04:34Z</time>
<speed>4.080000</speed>
<extensions>
<speed>4.1</speed>
<temp>0.00</temp>
<bpm>0</bpm>
<rpm>0.00</rpm>
</extensions>
</trkpt>
<trkpt lat="31.019790649" lon="34.756309509">
<ele>297.539063</ele>
<time>2013-11-19T13:04:39Z</time>
<speed>4.370000</speed>
<extensions>
<speed>4.4</speed>
<temp>0.00</temp>
<bpm>0</bpm>
<rpm>0.00</rpm>
</extensions>
</trkpt>
<trkpt lat="31.019956589" lon="34.756179810">
<ele>297.484375</ele>
<time>2013-11-19T13:04:44Z</time>
<speed>4.760000</speed>
<extensions>
<speed>4.8</speed>
<temp>0.00</temp>
<bpm>0</bpm>
<rpm>0.00</rpm>
</extensions>
</trkpt>
<trkpt lat="31.020118713" lon="34.756046295">
<ele>297.578125</ele>
<time>2013-11-19T13:04:49Z</time>
<speed>4.430000</speed>
<extensions>
<speed>4.4</speed>
<temp>0.00</temp>
<bpm>0</bpm>
<rpm>0.00</rpm>
</extensions>
</trkpt>
<trkpt lat="31.020280838" lon="34.755882263">
<ele>297.070313</ele>
<time>2013-11-19T13:04:54Z</time>
<speed>5.160000</speed>
<extensions>
<speed>5.2</speed>
<temp>0.00</temp>
<bpm>0</bpm>
<rpm>0.00</rpm>
</extensions>
</trkpt>
<trkpt lat="31.020463943" lon="34.755710602">
<ele>296.296875</ele>
<time>2013-11-19T13:04:59Z</time>
<speed>4.890000</speed>
<extensions>
<speed>4.9</speed>
<temp>0.00</temp>
<bpm>0</bpm>
<rpm>0.00</rpm>
</extensions>
</trkpt>
<trkpt lat="31.020647049" lon="34.755577087">
<ele>295.742188</ele>
<time>2013-11-19T13:05:04Z</time>
<speed>4.850000</speed>
<extensions>
<speed>4.8</speed>
<temp>0.00</temp>
<bpm>0</bpm>
<rpm>0.00</rpm>
</extensions>
</trkpt>
<trkpt lat="31.020841599" lon="34.755458832">
<ele>295.335938</ele>
<time>2013-11-19T13:05:09Z</time>
<speed>4.410000</speed>
<extensions>
<speed>4.4</speed>
<temp>0.00</temp>
<bpm>0</bpm>
<rpm>0.00</rpm>
</extensions>
</trkpt>
<trkpt lat="31.020998001" lon="34.755367279">
<ele>295.164063</ele>
<time>2013-11-19T13:05:14Z</time>
<speed>3.540000</speed>
<extensions>
<speed>3.5</speed>
<temp>0.00</temp>
<bpm>0</bpm>
<rpm>0.00</rpm>
</extensions>
</trkpt>
<trkpt lat="31.021089554" lon="34.755210876">
<ele>294.085938</ele>
<time>2013-11-19T13:05:19Z</time>
<speed>3.690000</speed>
<extensions>
<speed>3.7</speed>
<temp>0.00</temp>
<bpm>0</bpm>
<rpm>0.00</rpm>
</extensions>
</trkpt>
<trkpt lat="31.021198273" lon="34.755081177">
<ele>293.953125</ele>
<time>2013-11-19T13:05:24Z</time>
<speed>3.950000</speed>
<extensions>
<speed>4.0</speed>
<temp>0.00</temp>
<bpm>0</bpm>
<rpm>0.00</rpm>
</extensions>
</trkpt>
<trkpt lat="31.021368027" lon="34.754955292">
<ele>294.015625</ele>
<time>2013-11-19T13:05:29Z</time>
<speed>4.840000</speed>
<extensions>
<speed>4.8</speed>
<temp>0.00</temp>
<bpm>0</bpm>
<rpm>0.00</rpm>
</extensions>
</trkpt>
<trkpt lat="31.021554947" lon="34.754817963">
<ele>294.125000</ele>
<time>2013-11-19T13:05:34Z</time>
<speed>4.570000</speed>
<extensions>
<speed>4.6</speed>
<temp>0.00</temp>
<bpm>0</bpm>
<rpm>0.00</rpm>
</extensions>
</trkpt>
<trkpt lat="31.021715164" lon="34.754695892">
<ele>294.101563</ele>
<time>2013-11-19T13:05:39Z</time>
<speed>4.070000</speed>
<extensions>
<speed>4.1</speed>
<temp>0.00</temp>
<bpm>0</bpm>
<rpm>0.00</rpm>
</extensions>
</trkpt>
<trkpt lat="31.021888733" lon="34.754554749">
<ele>294.226563</ele>
<time>2013-11-19T13:05:44Z</time>
<speed>5.230000</speed>
<extensions>
<speed>5.2</speed>
<temp>0.00</temp>
<bpm>0</bpm>
<rpm>0.00</rpm>
</extensions>
</trkpt>
<trkpt lat="31.022092819" lon="34.754379272">
<ele>294.023438</ele>
<time>2013-11-19T13:05:49Z</time>
<speed>5.490000</speed>
<extensions>
<speed>5.5</speed>
<temp>0.00</temp>
<bpm>0</bpm>
<rpm>0.00</rpm>
</extensions>
</trkpt>
<trkpt lat="31.022296906" lon="34.754207611">
<ele>293.617188</ele>
<time>2013-11-19T13:05:54Z</time>
<speed>6.040000</speed>
<extensions>
<speed>6.0</speed>
<temp>0.00</temp>
<bpm>0</bpm>
<rpm>0.00</rpm>
</extensions>
</trkpt>
<trkpt lat="31.022512436" lon="34.754016876">
<ele>293.484375</ele>
<time>2013-11-19T13:05:59Z</time>
<speed>5.850000</speed>
<extensions>
<speed>5.8</speed>
<temp>0.00</temp>
<bpm>0</bpm>
<rpm>0.00</rpm>
</extensions>
</trkpt>
<trkpt lat="31.022733688" lon="34.753829956">
<ele>293.335938</ele>
<time>2013-11-19T13:06:04Z</time>
<speed>6.420000</speed>
<extensions>
<speed>6.4</speed>
<temp>0.00</temp>
<bpm>0</bpm>
<rpm>0.00</rpm>
</extensions>
</trkpt>
<trkpt lat="31.022956848" lon="34.753639221">
<ele>292.671875</ele>
<time>2013-11-19T13:06:09Z</time>
<speed>6.260000</speed>
<extensions>
<speed>6.3</speed>
<temp>0.00</temp>
<bpm>0</bpm>
<rpm>0.00</rpm>
</extensions>
</trkpt>
<trkpt lat="31.023189545" lon="34.753433228">
<ele>291.875000</ele>
<time>2013-11-19T13:06:14Z</time>
<speed>6.800000</speed>
<extensions>
<speed>6.8</speed>
<temp>0.00</temp>
<bpm>0</bpm>
<rpm>0.00</rpm>
</extensions>
</trkpt>
<trkpt lat="31.023418427" lon="34.753238678">
<ele>291.281250</ele>
<time>2013-11-19T13:06:19Z</time>
<speed>6.110000</speed>
<extensions>
<speed>6.1</speed>
<temp>0.00</temp>
<bpm>0</bpm>
<rpm>0.00</rpm>
</extensions>
</trkpt>
<trkpt lat="31.023639679" lon="34.753051758">
<ele>291.507813</ele>
<time>2013-11-19T13:06:24Z</time>
<speed>6.360000</speed>
<extensions>
<speed>6.4</speed>
<temp>0.00</temp>
<bpm>0</bpm>
<rpm>0.00</rpm>
</extensions>
</trkpt>
<trkpt lat="31.023883820" lon="34.752841949">
<ele>291.296875</ele>
<time>2013-11-19T13:06:29Z</time>
<speed>6.850000</speed>
<extensions>
<speed>6.8</speed>
<temp>0.00</temp>
<bpm>0</bpm>
<rpm>0.00</rpm>
</extensions>
</trkpt>
<trkpt lat="31.024118423" lon="34.752643585">
<ele>291.429688</ele>
<time>2013-11-19T13:06:34Z</time>
<speed>6.100000</speed>
<extensions>
<speed>6.1</speed>
<temp>0.00</temp>
<bpm>0</bpm>
<rpm>0.00</rpm>
</extensions>
</trkpt>
<trkpt lat="31.024335861" lon="34.752449036">
<ele>291.570313</ele>
<time>2013-11-19T13:06:39Z</time>
<speed>5.890000</speed>
<extensions>
<speed>5.9</speed>
<temp>0.00</temp>
<bpm>0</bpm>
<rpm>0.00</rpm>
</extensions>
</trkpt>
<trkpt lat="31.024553299" lon="34.752265930">
<ele>291.992188</ele>
<time>2013-11-19T13:06:44Z</time>
<speed>6.220000</speed>
<extensions>
<speed>6.2</speed>
<temp>0.00</temp>
<bpm>0</bpm>
<rpm>0.00</rpm>
</extensions>
</trkpt>
<trkpt lat="31.024780273" lon="34.752079010">
<ele>292.125000</ele>
<time>2013-11-19T13:06:49Z</time>
<speed>6.160000</speed>
<extensions>
<speed>6.2</speed>
<temp>0.00</temp>
<bpm>0</bpm>
<rpm>0.00</rpm>
</extensions>
</trkpt>
<trkpt lat="31.025005341" lon="34.751895905">
<ele>291.992188</ele>
<time>2013-11-19T13:06:54Z</time>
<speed>6.240000</speed>
<extensions>
<speed>6.2</speed>
<temp>0.00</temp>
<bpm>0</bpm>
<rpm>0.00</rpm>
</extensions>
</trkpt>
<trkpt lat="31.025218964" lon="34.751728058">
<ele>291.757813</ele>
<time>2013-11-19T13:06:59Z</time>
<speed>5.360000</speed>
<extensions>
<speed>5.4</speed>
<temp>0.00</temp>
<bpm>0</bpm>
<rpm>0.00</rpm>
</extensions>
</trkpt>
<trkpt lat="31.025419235" lon="34.751586914">
<ele>291.312500</ele>
<time>2013-11-19T13:07:04Z</time>
<speed>5.520000</speed>
<extensions>
<speed>5.5</speed>
<temp>0.00</temp>
<bpm>0</bpm>
<rpm>0.00</rpm>
</extensions>
</trkpt>
<trkpt lat="31.025636673" lon="34.751430511">
<ele>291.312500</ele>
<time>2013-11-19T13:07:09Z</time>
<speed>5.860000</speed>
<extensions>
<speed>5.9</speed>
<temp>0.00</temp>
<bpm>0</bpm>
<rpm>0.00</rpm>
</extensions>
</trkpt>
<trkpt lat="31.025854111" lon="34.751277924">
<ele>292.406250</ele>
<time>2013-11-19T13:07:14Z</time>
<speed>5.410000</speed>
<extensions>
<speed>5.4</speed>
<temp>0.00</temp>
<bpm>0</bpm>
<rpm>0.00</rpm>
</extensions>
</trkpt>
<trkpt lat="31.026062012" lon="34.751136780">
<ele>293.132813</ele>
<time>2013-11-19T13:07:19Z</time>
<speed>5.490000</speed>
<extensions>
<speed>5.5</speed>
<temp>0.00</temp>
<bpm>0</bpm>
<rpm>0.00</rpm>
</extensions>
</trkpt>
<trkpt lat="31.026252747" lon="34.751003265">
<ele>293.382813</ele>
<time>2013-11-19T13:07:24Z</time>
<speed>4.510000</speed>
<extensions>
<speed>4.5</speed>
<temp>0.00</temp>
<bpm>0</bpm>
<rpm>0.00</rpm>
</extensions>
</trkpt>
<trkpt lat="31.026414871" lon="34.750892639">
<ele>293.898438</ele>
<time>2013-11-19T13:07:29Z</time>
<speed>4.160000</speed>
<extensions>
<speed>4.2</speed>
<temp>0.00</temp>
<bpm>0</bpm>
<rpm>0.00</rpm>
</extensions>
</trkpt>
<trkpt lat="31.026594162" lon="34.750793457">
<ele>294.210938</ele>
<time>2013-11-19T13:07:34Z</time>
<speed>4.030000</speed>
<extensions>
<speed>4.0</speed>
<temp>0.00</temp>
<bpm>0</bpm>
<rpm>0.00</rpm>
</extensions>
</trkpt>
<trkpt lat="31.026754379" lon="34.750713348">
<ele>294.507813</ele>
<time>2013-11-19T13:07:39Z</time>
<speed>4.240000</speed>
<extensions>
<speed>4.2</speed>
<temp>0.00</temp>
<bpm>0</bpm>
<rpm>0.00</rpm>
</extensions>
</trkpt>
<trkpt lat="31.026956558" lon="34.750640869">
<ele>295.125000</ele>
<time>2013-11-19T13:07:44Z</time>
<speed>4.820000</speed>
<extensions>
<speed>4.8</speed>
<temp>0.00</temp>
<bpm>0</bpm>
<rpm>0.00</rpm>
</extensions>
</trkpt>
<trkpt lat="31.027145386" lon="34.750595093">
<ele>295.562500</ele>
<time>2013-11-19T13:07:49Z</time>
<speed>3.140000</speed>
<extensions>
<speed>3.1</speed>
<temp>0.00</temp>
<bpm>0</bpm>
<rpm>0.00</rpm>
</extensions>
</trkpt>
<trkpt lat="31.027278900" lon="34.750568390">
<ele>295.875000</ele>
<time>2013-11-19T13:07:54Z</time>
<speed>3.230000</speed>
<extensions>
<speed>3.2</speed>
<temp>0.00</temp>
<bpm>0</bpm>
<rpm>0.00</rpm>
</extensions>
</trkpt>
<trkpt lat="31.027431488" lon="34.750541687">
<ele>296.531250</ele>
<time>2013-11-19T13:07:59Z</time>
<speed>3.090000</speed>
<extensions>
<speed>3.1</speed>
<temp>0.00</temp>
<bpm>0</bpm>
<rpm>0.00</rpm>
</extensions>
</trkpt>
<trkpt lat="31.027551651" lon="34.750522614">
<ele>297.171875</ele>
<time>2013-11-19T13:08:04Z</time>
<speed>2.650000</speed>
<extensions>
<speed>2.6</speed>
<temp>0.00</temp>
<bpm>0</bpm>
<rpm>0.00</rpm>
</extensions>
</trkpt>
<trkpt lat="31.027696609" lon="34.750499725">
<ele>297.359375</ele>
<time>2013-11-19T13:08:09Z</time>
<speed>3.860000</speed>
<extensions>
<speed>3.9</speed>
<temp>0.00</temp>
<bpm>0</bpm>
<rpm>0.00</rpm>
</extensions>
</trkpt>
<trkpt lat="31.027881622" lon="34.750465393">
<ele>297.148438</ele>
<time>2013-11-19T13:08:14Z</time>
<speed>4.270000</speed>
<extensions>
<speed>4.3</speed>
<temp>0.00</temp>
<bpm>0</bpm>
<rpm>0.00</rpm>
</extensions>
</trkpt>
<trkpt lat="31.028093338" lon="34.750431061">
<ele>297.203125</ele>
<time>2013-11-19T13:08:19Z</time>
<speed>4.950000</speed>
<extensions>
<speed>4.9</speed>
<temp>0.00</temp>
<bpm>0</bpm>
<rpm>0.00</rpm>
</extensions>
</trkpt>
<trkpt lat="31.028293610" lon="34.750400543">
<ele>297.187500</ele>
<time>2013-11-19T13:08:24Z</time>
<speed>3.970000</speed>
<extensions>
<speed>4.0</speed>
<temp>0.00</temp>
<bpm>0</bpm>
<rpm>0.00</rpm>
</extensions>
</trkpt>
<trkpt lat="31.028450012" lon="34.750377655">
<ele>297.210938</ele>
<time>2013-11-19T13:08:29Z</time>
<speed>3.180000</speed>
<extensions>
<speed>3.2</speed>
<temp>0.00</temp>
<bpm>0</bpm>
<rpm>0.00</rpm>
</extensions>
</trkpt>
<trkpt lat="31.028606415" lon="34.750350952">
<ele>297.210938</ele>
<time>2013-11-19T13:08:34Z</time>
<speed>3.830000</speed>
<extensions>
<speed>3.8</speed>
<temp>0.00</temp>
<bpm>0</bpm>
<rpm>0.00</rpm>
</extensions>
</trkpt>
<trkpt lat="31.028793335" lon="34.750324249">
<ele>297.070313</ele>
<time>2013-11-19T13:08:39Z</time>
<speed>4.410000</speed>
<extensions>
<speed>4.4</speed>
<temp>0.00</temp>
<bpm>0</bpm>
<rpm>0.00</rpm>
</extensions>
</trkpt>
<trkpt lat="31.028997421" lon="34.750289917">
<ele>296.843750</ele>
<time>2013-11-19T13:08:44Z</time>
<speed>4.620000</speed>
<extensions>
<speed>4.6</speed>
<temp>0.00</temp>
<bpm>0</bpm>
<rpm>0.00</rpm>
</extensions>
</trkpt>
<trkpt lat="31.029186249" lon="34.750267029">
<ele>296.960938</ele>
<time>2013-11-19T13:08:49Z</time>
<speed>4.430000</speed>
<extensions>
<speed>4.4</speed>
<temp>0.00</temp>
<bpm>0</bpm>
<rpm>0.00</rpm>
</extensions>
</trkpt>
<trkpt lat="31.029405594" lon="34.750232697">
<ele>296.812500</ele>
<time>2013-11-19T13:08:54Z</time>
<speed>5.180000</speed>
<extensions>
<speed>5.2</speed>
<temp>0.00</temp>
<bpm>0</bpm>
<rpm>0.00</rpm>
</extensions>
</trkpt>
<trkpt lat="31.029628754" lon="34.750202179">
<ele>296.070313</ele>
<time>2013-11-19T13:08:59Z</time>
<speed>4.690000</speed>
<extensions>
<speed>4.7</speed>
<temp>0.00</temp>
<bpm>0</bpm>
<rpm>0.00</rpm>
</extensions>
</trkpt>
<trkpt lat="31.029851913" lon="34.750167847">
<ele>295.914063</ele>
<time>2013-11-19T13:09:04Z</time>
<speed>5.360000</speed>
<extensions>
<speed>5.4</speed>
<temp>0.00</temp>
<bpm>0</bpm>
<rpm>0.00</rpm>
</extensions>
</trkpt>
<trkpt lat="31.030099869" lon="34.750137329">
<ele>295.593750</ele>
<time>2013-11-19T13:09:09Z</time>
<speed>5.280000</speed>
<extensions>
<speed>5.3</speed>
<temp>0.00</temp>
<bpm>0</bpm>
<rpm>0.00</rpm>
</extensions>
</trkpt>
<trkpt lat="31.030353546" lon="34.750102997">
<ele>295.476563</ele>
<time>2013-11-19T13:09:14Z</time>
<speed>5.740000</speed>
<extensions>
<speed>5.7</speed>
<temp>0.00</temp>
<bpm>0</bpm>
<rpm>0.00</rpm>
</extensions>
</trkpt>
<trkpt lat="31.030611038" lon="34.750064850">
<ele>294.492188</ele>
<time>2013-11-19T13:09:19Z</time>
<speed>5.430000</speed>
<extensions>
<speed>5.4</speed>
<temp>0.00</temp>
<bpm>0</bpm>
<rpm>0.00</rpm>
</extensions>
</trkpt>
<trkpt lat="31.030836105" lon="34.750034332">
<ele>294.031250</ele>
<time>2013-11-19T13:09:24Z</time>
<speed>4.850000</speed>
<extensions>
<speed>4.8</speed>
<temp>0.00</temp>
<bpm>0</bpm>
<rpm>0.00</rpm>
</extensions>
</trkpt>
<trkpt lat="31.031072617" lon="34.749996185">
<ele>293.992188</ele>
<time>2013-11-19T13:09:29Z</time>
<speed>5.470000</speed>
<extensions>
<speed>5.5</speed>
<temp>0.00</temp>
<bpm>0</bpm>
<rpm>0.00</rpm>
</extensions>
</trkpt>
<trkpt lat="31.031320572" lon="34.749958038">
<ele>294.148438</ele>
<time>2013-11-19T13:09:34Z</time>
<speed>5.180000</speed>
<extensions>
<speed>5.2</speed>
<temp>0.00</temp>
<bpm>0</bpm>
<rpm>0.00</rpm>
</extensions>
</trkpt>
<trkpt lat="31.031528473" lon="34.749935150">
<ele>294.156250</ele>
<time>2013-11-19T13:09:39Z</time>
<speed>4.340000</speed>
<extensions>
<speed>4.3</speed>
<temp>0.00</temp>
<bpm>0</bpm>
<rpm>0.00</rpm>
</extensions>
</trkpt>
<trkpt lat="31.031732559" lon="34.749912262">
<ele>294.265625</ele>
<time>2013-11-19T13:09:44Z</time>
<speed>5.050000</speed>
<extensions>
<speed>5.1</speed>
<temp>0.00</temp>
<bpm>0</bpm>
<rpm>0.00</rpm>
</extensions>
</trkpt>
<trkpt lat="31.031972885" lon="34.749877930">
<ele>294.648438</ele>
<time>2013-11-19T13:09:49Z</time>
<speed>5.190000</speed>
<extensions>
<speed>5.2</speed>
<temp>0.00</temp>
<bpm>0</bpm>
<rpm>0.00</rpm>
</extensions>
</trkpt>
<trkpt lat="31.032218933" lon="34.749843597">
<ele>294.742188</ele>
<time>2013-11-19T13:09:54Z</time>
<speed>5.310000</speed>
<extensions>
<speed>5.3</speed>
<temp>0.00</temp>
<bpm>0</bpm>
<rpm>0.00</rpm>
</extensions>
</trkpt>
<trkpt lat="31.032440186" lon="34.749824524">
<ele>295.468750</ele>
<time>2013-11-19T13:09:59Z</time>
<speed>4.830000</speed>
<extensions>
<speed>4.8</speed>
<temp>0.00</temp>
<bpm>0</bpm>
<rpm>0.00</rpm>
</extensions>
</trkpt>
<trkpt lat="31.032688141" lon="34.749797821">
<ele>296.632813</ele>
<time>2013-11-19T13:10:04Z</time>
<speed>5.830000</speed>
<extensions>
<speed>5.8</speed>
<temp>0.00</temp>
<bpm>0</bpm>
<rpm>0.00</rpm>
</extensions>
</trkpt>
<trkpt lat="31.032920837" lon="34.749771118">
<ele>296.742188</ele>
<time>2013-11-19T13:10:09Z</time>
<speed>5.060000</speed>
<extensions>
<speed>5.1</speed>
<temp>0.00</temp>
<bpm>0</bpm>
<rpm>0.00</rpm>
</extensions>
</trkpt>
<trkpt lat="31.033151627" lon="34.749744415">
<ele>297.671875</ele>
<time>2013-11-19T13:10:14Z</time>
<speed>5.640000</speed>
<extensions>
<speed>5.6</speed>
<temp>0.00</temp>
<bpm>0</bpm>
<rpm>0.00</rpm>
</extensions>
</trkpt>
<trkpt lat="31.033414841" lon="34.749713898">
<ele>297.914063</ele>
<time>2013-11-19T13:10:19Z</time>
<speed>6.070000</speed>
<extensions>
<speed>6.1</speed>
<temp>0.00</temp>
<bpm>0</bpm>
<rpm>0.00</rpm>
</extensions>
</trkpt>
<trkpt lat="31.033672333" lon="34.749683380">
<ele>297.648438</ele>
<time>2013-11-19T13:10:24Z</time>
<speed>5.540000</speed>
<extensions>
<speed>5.5</speed>
<temp>0.00</temp>
<bpm>0</bpm>
<rpm>0.00</rpm>
</extensions>
</trkpt>
<trkpt lat="31.033924103" lon="34.749629974">
<ele>298.953125</ele>
<time>2013-11-19T13:10:29Z</time>
<speed>6.050000</speed>
<extensions>
<speed>6.1</speed>
<temp>0.00</temp>
<bpm>0</bpm>
<rpm>0.00</rpm>
</extensions>
</trkpt>
<trkpt lat="31.034183502" lon="34.749599457">
<ele>298.984375</ele>
<time>2013-11-19T13:10:34Z</time>
<speed>5.260000</speed>
<extensions>
<speed>5.3</speed>
<temp>0.00</temp>
<bpm>0</bpm>
<rpm>0.00</rpm>
</extensions>
</trkpt>
<trkpt lat="31.034442902" lon="34.749553680">
<ele>299.304688</ele>
<time>2013-11-19T13:10:39Z</time>
<speed>6.190000</speed>
<extensions>
<speed>6.2</speed>
<temp>0.00</temp>
<bpm>0</bpm>
<rpm>0.00</rpm>
</extensions>
</trkpt>
<trkpt lat="31.034709930" lon="34.749519348">
<ele>299.515625</ele>
<time>2013-11-19T13:10:44Z</time>
<speed>5.640000</speed>
<extensions>
<speed>5.6</speed>
<temp>0.00</temp>
<bpm>0</bpm>
<rpm>0.00</rpm>
</extensions>
</trkpt>
<trkpt lat="31.034959793" lon="34.749454498">
<ele>300.109375</ele>
<time>2013-11-19T13:10:49Z</time>
<speed>5.880000</speed>
<extensions>
<speed>5.9</speed>
<temp>0.00</temp>
<bpm>0</bpm>
<rpm>0.00</rpm>
</extensions>
</trkpt>
<trkpt lat="31.035221100" lon="34.749336243">
<ele>301.195313</ele>
<time>2013-11-19T13:10:54Z</time>
<speed>6.520000</speed>
<extensions>
<speed>6.5</speed>
<temp>0.00</temp>
<bpm>0</bpm>
<rpm>0.00</rpm>
</extensions>
</trkpt>
<trkpt lat="31.035474777" lon="34.749214172">
<ele>303.156250</ele>
<time>2013-11-19T13:10:59Z</time>
<speed>5.950000</speed>
<extensions>
<speed>6.0</speed>
<temp>0.00</temp>
<bpm>0</bpm>
<rpm>0.00</rpm>
</extensions>
</trkpt>
<trkpt lat="31.035703659" lon="34.749065399">
<ele>303.101563</ele>
<time>2013-11-19T13:11:04Z</time>
<speed>5.450000</speed>
<extensions>
<speed>5.5</speed>
<temp>0.00</temp>
<bpm>0</bpm>
<rpm>0.00</rpm>
</extensions>
</trkpt>
<trkpt lat="31.035917282" lon="34.748908997">
<ele>300.726563</ele>
<time>2013-11-19T13:11:09Z</time>
<speed>5.280000</speed>
<extensions>
<speed>5.3</speed>
<temp>0.00</temp>
<bpm>0</bpm>
<rpm>0.00</rpm>
</extensions>
</trkpt>
<trkpt lat="31.036125183" lon="34.748741150">
<ele>299.203125</ele>
<time>2013-11-19T13:11:14Z</time>
<speed>6.180000</speed>
<extensions>
<speed>6.2</speed>
<temp>0.00</temp>
<bpm>0</bpm>
<rpm>0.00</rpm>
</extensions>
</trkpt>
<trkpt lat="31.036357880" lon="34.748527527">
<ele>297.812500</ele>
<time>2013-11-19T13:11:19Z</time>
<speed>6.270000</speed>
<extensions>
<speed>6.3</speed>
<temp>0.00</temp>
<bpm>0</bpm>
<rpm>0.00</rpm>
</extensions>
</trkpt>
<trkpt lat="31.036561966" lon="34.748313904">
<ele>297.265625</ele>
<time>2013-11-19T13:11:24Z</time>
<speed>5.690000</speed>
<extensions>
<speed>5.7</speed>
<temp>0.00</temp>
<bpm>0</bpm>
<rpm>0.00</rpm>
</extensions>
</trkpt>
<trkpt lat="31.036737442" lon="34.748085022">
<ele>296.531250</ele>
<time>2013-11-19T13:11:29Z</time>
<speed>5.930000</speed>
<extensions>
<speed>5.9</speed>
<temp>0.00</temp>
<bpm>0</bpm>
<rpm>0.00</rpm>
</extensions>
</trkpt>
<trkpt lat="31.036897659" lon="34.747840881">
<ele>296.843750</ele>
<time>2013-11-19T13:11:34Z</time>
<speed>5.670000</speed>
<extensions>
<speed>5.7</speed>
<temp>0.00</temp>
<bpm>0</bpm>
<rpm>0.00</rpm>
</extensions>
</trkpt>
<trkpt lat="31.037048340" lon="34.747604370">
<ele>295.929688</ele>
<time>2013-11-19T13:11:39Z</time>
<speed>5.050000</speed>
<extensions>
<speed>5.1</speed>
<temp>0.00</temp>
<bpm>0</bpm>
<rpm>0.00</rpm>
</extensions>
</trkpt>
<trkpt lat="31.037170410" lon="34.747383118">
<ele>296.226563</ele>
<time>2013-11-19T13:11:44Z</time>
<speed>5.020000</speed>
<extensions>
<speed>5.0</speed>
<temp>0.00</temp>
<bpm>0</bpm>
<rpm>0.00</rpm>
</extensions>
</trkpt>
<trkpt lat="31.037284851" lon="34.747146606">
<ele>295.804688</ele>
<time>2013-11-19T13:11:49Z</time>
<speed>5.050000</speed>
<extensions>
<speed>5.1</speed>
<temp>0.00</temp>
<bpm>0</bpm>
<rpm>0.00</rpm>
</extensions>
</trkpt>
<trkpt lat="31.037387848" lon="34.746921539">
<ele>295.843750</ele>
<time>2013-11-19T13:11:54Z</time>
<speed>5.010000</speed>
<extensions>
<speed>5.0</speed>
<temp>0.00</temp>
<bpm>0</bpm>
<rpm>0.00</rpm>
</extensions>
</trkpt>
<trkpt lat="31.037498474" lon="34.746681213">
<ele>294.375000</ele>
<time>2013-11-19T13:11:59Z</time>
<speed>4.670000</speed>
<extensions>
<speed>4.7</speed>
<temp>0.00</temp>
<bpm>0</bpm>
<rpm>0.00</rpm>
</extensions>
</trkpt>
<trkpt lat="31.037601471" lon="34.746463776">
<ele>293.718750</ele>
<time>2013-11-19T13:12:04Z</time>
<speed>5.150000</speed>
<extensions>
<speed>5.2</speed>
<temp>0.00</temp>
<bpm>0</bpm>
<rpm>0.00</rpm>
</extensions>
</trkpt>
<trkpt lat="31.037714005" lon="34.746204376">
<ele>292.031250</ele>
<time>2013-11-19T13:12:09Z</time>
<speed>5.570000</speed>
<extensions>
<speed>5.6</speed>
<temp>0.00</temp>
<bpm>0</bpm>
<rpm>0.00</rpm>
</extensions>
</trkpt>
<trkpt lat="31.037837982" lon="34.745952606">
<ele>291.148438</ele>
<time>2013-11-19T13:12:14Z</time>
<speed>5.860000</speed>
<extensions>
<speed>5.9</speed>
<temp>0.00</temp>
<bpm>0</bpm>
<rpm>0.00</rpm>
</extensions>
</trkpt>
<trkpt lat="31.037969589" lon="34.745658875">
<ele>290.015625</ele>
<time>2013-11-19T13:12:19Z</time>
<speed>6.470000</speed>
<extensions>
<speed>6.5</speed>
<temp>0.00</temp>
<bpm>0</bpm>
<rpm>0.00</rpm>
</extensions>
</trkpt>
<trkpt lat="31.038101196" lon="34.745372772">
<ele>289.234375</ele>
<time>2013-11-19T13:12:24Z</time>
<speed>5.970000</speed>
<extensions>
<speed>6.0</speed>
<temp>0.00</temp>
<bpm>0</bpm>
<rpm>0.00</rpm>
</extensions>
</trkpt>
<trkpt lat="31.038221359" lon="34.745101929">
<ele>287.875000</ele>
<time>2013-11-19T13:12:29Z</time>
<speed>5.510000</speed>
<extensions>
<speed>5.5</speed>
<temp>0.00</temp>
<bpm>0</bpm>
<rpm>0.00</rpm>
</extensions>
</trkpt>
<trkpt lat="31.038333893" lon="34.744838715">
<ele>286.804688</ele>
<time>2013-11-19T13:12:34Z</time>
<speed>5.690000</speed>
<extensions>
<speed>5.7</speed>
<temp>0.00</temp>
<bpm>0</bpm>
<rpm>0.00</rpm>
</extensions>
</trkpt>
<trkpt lat="31.038452148" lon="34.744583130">
<ele>285.812500</ele>
<time>2013-11-19T13:12:39Z</time>
<speed>5.270000</speed>
<extensions>
<speed>5.3</speed>
<temp>0.00</temp>
<bpm>0</bpm>
<rpm>0.00</rpm>
</extensions>
</trkpt>
<trkpt lat="31.038560867" lon="34.744338989">
<ele>285.343750</ele>
<time>2013-11-19T13:12:44Z</time>
<speed>5.640000</speed>
<extensions>
<speed>5.6</speed>
<temp>0.00</temp>
<bpm>0</bpm>
<rpm>0.00</rpm>
</extensions>
</trkpt>
<trkpt lat="31.038673401" lon="34.744071960">
<ele>284.796875</ele>
<time>2013-11-19T13:12:49Z</time>
<speed>5.500000</speed>
<extensions>
<speed>5.5</speed>
<temp>0.00</temp>
<bpm>0</bpm>
<rpm>0.00</rpm>
</extensions>
</trkpt>
<trkpt lat="31.038780212" lon="34.743824005">
<ele>283.898438</ele>
<time>2013-11-19T13:12:54Z</time>
<speed>5.110000</speed>
<extensions>
<speed>5.1</speed>
<temp>0.00</temp>
<bpm>0</bpm>
<rpm>0.00</rpm>
</extensions>
</trkpt>
<trkpt lat="31.038887024" lon="34.743583679">
<ele>283.281250</ele>
<time>2013-11-19T13:12:59Z</time>
<speed>5.490000</speed>
<extensions>
<speed>5.5</speed>
<temp>0.00</temp>
<bpm>0</bpm>
<rpm>0.00</rpm>
</extensions>
</trkpt>
<trkpt lat="31.038999557" lon="34.743312836">
<ele>282.281250</ele>
<time>2013-11-19T13:13:04Z</time>
<speed>5.680000</speed>
<extensions>
<speed>5.7</speed>
<temp>0.00</temp>
<bpm>0</bpm>
<rpm>0.00</rpm>
</extensions>
</trkpt>
<trkpt lat="31.039115906" lon="34.743057251">
<ele>281.460938</ele>
<time>2013-11-19T13:13:09Z</time>
<speed>5.430000</speed>
<extensions>
<speed>5.4</speed>
<temp>0.00</temp>
<bpm>0</bpm>
<rpm>0.00</rpm>
</extensions>
</trkpt>
<trkpt lat="31.039228439" lon="34.742809296">
<ele>281.171875</ele>
<time>2013-11-19T13:13:14Z</time>
<speed>5.260000</speed>
<extensions>
<speed>5.3</speed>
<temp>0.00</temp>
<bpm>0</bpm>
<rpm>0.00</rpm>
</extensions>
</trkpt>
<trkpt lat="31.039339066" lon="34.742572784">
<ele>280.453125</ele>
<time>2013-11-19T13:13:19Z</time>
<speed>5.120000</speed>
<extensions>
<speed>5.1</speed>
<temp>0.00</temp>
<bpm>0</bpm>
<rpm>0.00</rpm>
</extensions>
</trkpt>
<trkpt lat="31.039453506" lon="34.742317200">
<ele>280.054688</ele>
<time>2013-11-19T13:13:24Z</time>
<speed>5.980000</speed>
<extensions>
<speed>6.0</speed>
<temp>0.00</temp>
<bpm>0</bpm>
<rpm>0.00</rpm>
</extensions>
</trkpt>
<trkpt lat="31.039575577" lon="34.742023468">
<ele>279.734375</ele>
<time>2013-11-19T13:13:29Z</time>
<speed>6.540000</speed>
<extensions>
<speed>6.5</speed>
<temp>0.00</temp>
<bpm>0</bpm>
<rpm>0.00</rpm>
</extensions>
</trkpt>
<trkpt lat="31.039707184" lon="34.741718292">
<ele>279.601563</ele>
<time>2013-11-19T13:13:34Z</time>
<speed>6.500000</speed>
<extensions>
<speed>6.5</speed>
<temp>0.00</temp>
<bpm>0</bpm>
<rpm>0.00</rpm>
</extensions>
</trkpt>
<trkpt lat="31.039831161" lon="34.741424561">
<ele>279.320313</ele>
<time>2013-11-19T13:13:39Z</time>
<speed>6.360000</speed>
<extensions>
<speed>6.4</speed>
<temp>0.00</temp>
<bpm>0</bpm>
<rpm>0.00</rpm>
</extensions>
</trkpt>
<trkpt lat="31.039951324" lon="34.741142273">
<ele>278.640625</ele>
<time>2013-11-19T13:13:44Z</time>
<speed>4.210000</speed>
<extensions>
<speed>4.2</speed>
<temp>0.00</temp>
<bpm>0</bpm>
<rpm>0.00</rpm>
</extensions>
</trkpt>
<trkpt lat="31.039974213" lon="34.741081238">
<ele>279.078125</ele>
<time>2013-11-19T13:13:49Z</time>
<speed>0.040000</speed>
<extensions>
<speed>0.0</speed>
<temp>0.00</temp>
<bpm>0</bpm>
<rpm>0.00</rpm>
</extensions>
</trkpt>
<trkpt lat="31.039972305" lon="34.741085052">
<ele>279.179688</ele>
<time>2013-11-19T13:13:54Z</time>
<speed>0.010000</speed>
<extensions>
<speed>0.0</speed>
<temp>0.00</temp>
<bpm>0</bpm>
<rpm>0.00</rpm>
</extensions>
</trkpt>
<trkpt lat="31.039970398" lon="34.741085052">
<ele>279.164063</ele>
<time>2013-11-19T13:13:59Z</time>
<extensions>
<speed>0.0</speed>
<temp>0.00</temp>
<bpm>0</bpm>
<rpm>0.00</rpm>
</extensions>
</trkpt>
<trkpt lat="31.039970398" lon="34.741085052">
<ele>279.140625</ele>
<time>2013-11-19T13:14:04Z</time>
<extensions>
<speed>0.0</speed>
<temp>0.00</temp>
<bpm>0</bpm>
<rpm>0.00</rpm>
</extensions>
</trkpt>
<trkpt lat="31.039970398" lon="34.741085052">
<ele>279.101563</ele>
<time>2013-11-19T13:14:09Z</time>
<speed>0.010000</speed>
<extensions>
<speed>0.0</speed>
<temp>0.00</temp>
<bpm>0</bpm>
<rpm>0.00</rpm>
</extensions>
</trkpt>
<trkpt lat="31.039981842" lon="34.741054535">
<ele>279.304688</ele>
<time>2013-11-19T13:14:14Z</time>
<speed>1.680000</speed>
<extensions>
<speed>1.7</speed>
<temp>0.00</temp>
<bpm>0</bpm>
<rpm>0.00</rpm>
</extensions>
</trkpt>
<trkpt lat="31.040031433" lon="34.740940094">
<ele>279.281250</ele>
<time>2013-11-19T13:14:19Z</time>
<speed>2.830000</speed>
<extensions>
<speed>2.8</speed>
<temp>0.00</temp>
<bpm>0</bpm>
<rpm>0.00</rpm>
</extensions>
</trkpt>
<trkpt lat="31.040094376" lon="34.740802765">
<ele>279.148438</ele>
<time>2013-11-19T13:14:24Z</time>
<speed>3.230000</speed>
<extensions>
<speed>3.2</speed>
<temp>0.00</temp>
<bpm>0</bpm>
<rpm>0.00</rpm>
</extensions>
</trkpt>
<trkpt lat="31.040180206" lon="34.740631104">
<ele>278.046875</ele>
<time>2013-11-19T13:14:29Z</time>
<speed>3.960000</speed>
<extensions>
<speed>4.0</speed>
<temp>0.00</temp>
<bpm>0</bpm>
<rpm>0.00</rpm>
</extensions>
</trkpt>
<trkpt lat="31.040279388" lon="34.740421295">
<ele>276.734375</ele>
<time>2013-11-19T13:14:34Z</time>
<speed>4.840000</speed>
<extensions>
<speed>4.8</speed>
<temp>0.00</temp>
<bpm>0</bpm>
<rpm>0.00</rpm>
</extensions>
</trkpt>
<trkpt lat="31.040395737" lon="34.740169525">
<ele>275.406250</ele>
<time>2013-11-19T13:14:39Z</time>
<speed>5.710000</speed>
<extensions>
<speed>5.7</speed>
<temp>0.00</temp>
<bpm>0</bpm>
<rpm>0.00</rpm>
</extensions>
</trkpt>
<trkpt lat="31.040527344" lon="34.739868164">
<ele>273.468750</ele>
<time>2013-11-19T13:14:44Z</time>
<speed>6.850000</speed>
<extensions>
<speed>6.8</speed>
<temp>0.00</temp>
<bpm>0</bpm>
<rpm>0.00</rpm>
</extensions>
</trkpt>
<trkpt lat="31.040683746" lon="34.739521027">
<ele>271.312500</ele>
<time>2013-11-19T13:14:49Z</time>
<speed>7.910000</speed>
<extensions>
<speed>7.9</speed>
<temp>0.00</temp>
<bpm>0</bpm>
<rpm>0.00</rpm>
</extensions>
</trkpt>
<trkpt lat="31.040863037" lon="34.739124298">
<ele>268.976563</ele>
<time>2013-11-19T13:14:54Z</time>
<speed>8.810000</speed>
<extensions>
<speed>8.8</speed>
<temp>0.00</temp>
<bpm>0</bpm>
<rpm>0.00</rpm>
</extensions>
</trkpt>
<trkpt lat="31.041049957" lon="34.738704681">
<ele>267.187500</ele>
<time>2013-11-19T13:14:59Z</time>
<speed>8.870000</speed>
<extensions>
<speed>8.9</speed>
<temp>0.00</temp>
<bpm>0</bpm>
<rpm>0.00</rpm>
</extensions>
</trkpt>
<trkpt lat="31.041229248" lon="34.738304138">
<ele>266.500000</ele>
<time>2013-11-19T13:15:04Z</time>
<speed>8.160000</speed>
<extensions>
<speed>8.2</speed>
<temp>0.00</temp>
<bpm>0</bpm>
<rpm>0.00</rpm>
</extensions>
</trkpt>
<trkpt lat="31.041379929" lon="34.737953186">
<ele>266.437500</ele>
<time>2013-11-19T13:15:09Z</time>
<speed>6.860000</speed>
<extensions>
<speed>6.9</speed>
<temp>0.00</temp>
<bpm>0</bpm>
<rpm>0.00</rpm>
</extensions>
</trkpt>
<trkpt lat="31.041511536" lon="34.737663269">
<ele>266.484375</ele>
<time>2013-11-19T13:15:14Z</time>
<speed>5.660000</speed>
<extensions>
<speed>5.7</speed>
<temp>0.00</temp>
<bpm>0</bpm>
<rpm>0.00</rpm>
</extensions>
</trkpt>
<trkpt lat="31.041627884" lon="34.737400055">
<ele>266.734375</ele>
<time>2013-11-19T13:15:19Z</time>
<speed>6.010000</speed>
<extensions>
<speed>6.0</speed>
<temp>0.00</temp>
<bpm>0</bpm>
<rpm>0.00</rpm>
</extensions>
</trkpt>
<trkpt lat="31.041748047" lon="34.737133026">
<ele>266.992188</ele>
<time>2013-11-19T13:15:24Z</time>
<speed>5.860000</speed>
<extensions>
<speed>5.9</speed>
<temp>0.00</temp>
<bpm>0</bpm>
<rpm>0.00</rpm>
</extensions>
</trkpt>
<trkpt lat="31.041870117" lon="34.736850739">
<ele>267.148438</ele>
<time>2013-11-19T13:15:29Z</time>
<speed>5.810000</speed>
<extensions>
<speed>5.8</speed>
<temp>0.00</temp>
<bpm>0</bpm>
<rpm>0.00</rpm>
</extensions>
</trkpt>
<trkpt lat="31.041986465" lon="34.736591339">
<ele>267.484375</ele>
<time>2013-11-19T13:15:34Z</time>
<speed>5.950000</speed>
<extensions>
<speed>6.0</speed>
<temp>0.00</temp>
<bpm>0</bpm>
<rpm>0.00</rpm>
</extensions>
</trkpt>
<trkpt lat="31.042116165" lon="34.736293793">
<ele>267.750000</ele>
<time>2013-11-19T13:15:39Z</time>
<speed>6.530000</speed>
<extensions>
<speed>6.5</speed>
<temp>0.00</temp>
<bpm>0</bpm>
<rpm>0.00</rpm>
</extensions>
</trkpt>
<trkpt lat="31.042242050" lon="34.736015320">
<ele>268.117188</ele>
<time>2013-11-19T13:15:44Z</time>
<speed>5.950000</speed>
<extensions>
<speed>6.0</speed>
<temp>0.00</temp>
<bpm>0</bpm>
<rpm>0.00</rpm>
</extensions>
</trkpt>
<trkpt lat="31.042364120" lon="34.735752106">
<ele>268.578125</ele>
<time>2013-11-19T13:15:49Z</time>
<speed>5.280000</speed>
<extensions>
<speed>5.3</speed>
<temp>0.00</temp>
<bpm>0</bpm>
<rpm>0.00</rpm>
</extensions>
</trkpt>
<trkpt lat="31.042461395" lon="34.735527039">
<ele>269.179688</ele>
<time>2013-11-19T13:15:54Z</time>
<speed>4.770000</speed>
<extensions>
<speed>4.8</speed>
<temp>0.00</temp>
<bpm>0</bpm>
<rpm>0.00</rpm>
</extensions>
</trkpt>
<trkpt lat="31.042566299" lon="34.735294342">
<ele>269.421875</ele>
<time>2013-11-19T13:15:59Z</time>
<speed>5.070000</speed>
<extensions>
<speed>5.1</speed>
<temp>0.00</temp>
<bpm>0</bpm>
<rpm>0.00</rpm>
</extensions>
</trkpt>
<trkpt lat="31.042661667" lon="34.735080719">
<ele>269.375000</ele>
<time>2013-11-19T13:16:04Z</time>
<speed>4.240000</speed>
<extensions>
<speed>4.2</speed>
<temp>0.00</temp>
<bpm>0</bpm>
<rpm>0.00</rpm>
</extensions>
</trkpt>
<trkpt lat="31.042776108" lon="34.734897614">
<ele>269.882813</ele>
<time>2013-11-19T13:16:09Z</time>
<speed>4.850000</speed>
<extensions>
<speed>4.8</speed>
<temp>0.00</temp>
<bpm>0</bpm>
<rpm>0.00</rpm>
</extensions>
</trkpt>
<trkpt lat="31.042921066" lon="34.734672546">
<ele>270.500000</ele>
<time>2013-11-19T13:16:14Z</time>
<speed>5.680000</speed>
<extensions>
<speed>5.7</speed>
<temp>0.00</temp>
<bpm>0</bpm>
<rpm>0.00</rpm>
</extensions>
</trkpt>
<trkpt lat="31.043071747" lon="34.734455109">
<ele>271.640625</ele>
<time>2013-11-19T13:16:19Z</time>
<speed>4.720000</speed>
<extensions>
<speed>4.7</speed>
<temp>0.00</temp>
<bpm>0</bpm>
<rpm>0.00</rpm>
</extensions>
</trkpt>
<trkpt lat="31.043201447" lon="34.734298706">
<ele>272.875000</ele>
<time>2013-11-19T13:16:24Z</time>
<speed>4.330000</speed>
<extensions>
<speed>4.3</speed>
<temp>0.00</temp>
<bpm>0</bpm>
<rpm>0.00</rpm>
</extensions>
</trkpt>
<trkpt lat="31.043348312" lon="34.734123230">
<ele>274.031250</ele>
<time>2013-11-19T13:16:29Z</time>
<speed>4.960000</speed>
<extensions>
<speed>5.0</speed>
<temp>0.00</temp>
<bpm>0</bpm>
<rpm>0.00</rpm>
</extensions>
</trkpt>
<trkpt lat="31.043508530" lon="34.733951569">
<ele>275.093750</ele>
<time>2013-11-19T13:16:34Z</time>
<speed>5.160000</speed>
<extensions>
<speed>5.2</speed>
<temp>0.00</temp>
<bpm>0</bpm>
<rpm>0.00</rpm>
</extensions>
</trkpt>
<trkpt lat="31.043691635" lon="34.733791351">
<ele>276.007813</ele>
<time>2013-11-19T13:16:39Z</time>
<speed>5.540000</speed>
<extensions>
<speed>5.5</speed>
<temp>0.00</temp>
<bpm>0</bpm>
<rpm>0.00</rpm>
</extensions>
</trkpt>
<trkpt lat="31.043909073" lon="34.733642578">
<ele>277.296875</ele>
<time>2013-11-19T13:16:44Z</time>
<speed>5.630000</speed>
<extensions>
<speed>5.6</speed>
<temp>0.00</temp>
<bpm>0</bpm>
<rpm>0.00</rpm>
</extensions>
</trkpt>
<trkpt lat="31.044136047" lon="34.733497620">
<ele>278.234375</ele>
<time>2013-11-19T13:16:49Z</time>
<speed>6.160000</speed>
<extensions>
<speed>6.2</speed>
<temp>0.00</temp>
<bpm>0</bpm>
<rpm>0.00</rpm>
</extensions>
</trkpt>
<trkpt lat="31.044378281" lon="34.733352661">
<ele>277.734375</ele>
<time>2013-11-19T13:16:54Z</time>
<speed>5.810000</speed>
<extensions>
<speed>5.8</speed>
<temp>0.00</temp>
<bpm>0</bpm>
<rpm>0.00</rpm>
</extensions>
</trkpt>
<trkpt lat="31.044610977" lon="34.733219147">
<ele>277.093750</ele>
<time>2013-11-19T13:16:59Z</time>
<speed>5.680000</speed>
<extensions>
<speed>5.7</speed>
<temp>0.00</temp>
<bpm>0</bpm>
<rpm>0.00</rpm>
</extensions>
</trkpt>
<trkpt lat="31.044839859" lon="34.733081818">
<ele>276.328125</ele>
<time>2013-11-19T13:17:04Z</time>
<speed>5.560000</speed>
<extensions>
<speed>5.6</speed>
<temp>0.00</temp>
<bpm>0</bpm>
<rpm>0.00</rpm>
</extensions>
</trkpt>
<trkpt lat="31.045063019" lon="34.732952118">
<ele>275.468750</ele>
<time>2013-11-19T13:17:09Z</time>
<speed>5.320000</speed>
<extensions>
<speed>5.3</speed>
<temp>0.00</temp>
<bpm>0</bpm>
<rpm>0.00</rpm>
</extensions>
</trkpt>
<trkpt lat="31.045278549" lon="34.732826233">
<ele>274.554688</ele>
<time>2013-11-19T13:17:14Z</time>
<speed>5.330000</speed>
<extensions>
<speed>5.3</speed>
<temp>0.00</temp>
<bpm>0</bpm>
<rpm>0.00</rpm>
</extensions>
</trkpt>
<trkpt lat="31.045499802" lon="34.732700348">
<ele>273.718750</ele>
<time>2013-11-19T13:17:19Z</time>
<speed>5.400000</speed>
<extensions>
<speed>5.4</speed>
<temp>0.00</temp>
<bpm>0</bpm>
<rpm>0.00</rpm>
</extensions>
</trkpt>
<trkpt lat="31.045724869" lon="34.732559204">
<ele>272.679688</ele>
<time>2013-11-19T13:17:24Z</time>
<speed>5.800000</speed>
<extensions>
<speed>5.8</speed>
<temp>0.00</temp>
<bpm>0</bpm>
<rpm>0.00</rpm>
</extensions>
</trkpt>
<trkpt lat="31.045959473" lon="34.732414246">
<ele>271.000000</ele>
<time>2013-11-19T13:17:29Z</time>
<speed>6.150000</speed>
<extensions>
<speed>6.1</speed>
<temp>0.00</temp>
<bpm>0</bpm>
<rpm>0.00</rpm>
</extensions>
</trkpt>
<trkpt lat="31.046205521" lon="34.732261658">
<ele>270.148438</ele>
<time>2013-11-19T13:17:34Z</time>
<speed>6.130000</speed>
<extensions>
<speed>6.1</speed>
<temp>0.00</temp>
<bpm>0</bpm>
<rpm>0.00</rpm>
</extensions>
</trkpt>
<trkpt lat="31.046440125" lon="34.732093811">
<ele>268.890625</ele>
<time>2013-11-19T13:17:39Z</time>
<speed>6.060000</speed>
<extensions>
<speed>6.1</speed>
<temp>0.00</temp>
<bpm>0</bpm>
<rpm>0.00</rpm>
</extensions>
</trkpt>
<trkpt lat="31.046667099" lon="34.731918335">
<ele>267.507813</ele>
<time>2013-11-19T13:17:44Z</time>
<speed>6.100000</speed>
<extensions>
<speed>6.1</speed>
<temp>0.00</temp>
<bpm>0</bpm>
<rpm>0.00</rpm>
</extensions>
</trkpt>
<trkpt lat="31.046892166" lon="34.731731415">
<ele>266.265625</ele>
<time>2013-11-19T13:17:49Z</time>
<speed>6.310000</speed>
<extensions>
<speed>6.3</speed>
<temp>0.00</temp>
<bpm>0</bpm>
<rpm>0.00</rpm>
</extensions>
</trkpt>
<trkpt lat="31.047119141" lon="34.731529236">
<ele>264.796875</ele>
<time>2013-11-19T13:17:54Z</time>
<speed>6.400000</speed>
<extensions>
<speed>6.4</speed>
<temp>0.00</temp>
<bpm>0</bpm>
<rpm>0.00</rpm>
</extensions>
</trkpt>
<trkpt lat="31.047344208" lon="34.731311798">
<ele>263.414063</ele>
<time>2013-11-19T13:17:59Z</time>
<speed>6.470000</speed>
<extensions>
<speed>6.5</speed>
<temp>0.00</temp>
<bpm>0</bpm>
<rpm>0.00</rpm>
</extensions>
</trkpt>
<trkpt lat="31.047573090" lon="34.731098175">
<ele>262.375000</ele>
<time>2013-11-19T13:18:04Z</time>
<speed>6.520000</speed>
<extensions>
<speed>6.5</speed>
<temp>0.00</temp>
<bpm>0</bpm>
<rpm>0.00</rpm>
</extensions>
</trkpt>
<trkpt lat="31.047796249" lon="34.730880737">
<ele>261.445313</ele>
<time>2013-11-19T13:18:09Z</time>
<speed>6.440000</speed>
<extensions>
<speed>6.4</speed>
<temp>0.00</temp>
<bpm>0</bpm>
<rpm>0.00</rpm>
</extensions>
</trkpt>
<trkpt lat="31.048006058" lon="34.730648041">
<ele>260.531250</ele>
<time>2013-11-19T13:18:14Z</time>
<speed>6.550000</speed>
<extensions>
<speed>6.5</speed>
<temp>0.00</temp>
<bpm>0</bpm>
<rpm>0.00</rpm>
</extensions>
</trkpt>
<trkpt lat="31.048233032" lon="34.730415344">
<ele>259.132813</ele>
<time>2013-11-19T13:18:19Z</time>
<speed>6.700000</speed>
<extensions>
<speed>6.7</speed>
<temp>0.00</temp>
<bpm>0</bpm>
<rpm>0.00</rpm>
</extensions>
</trkpt>
<trkpt lat="31.048465729" lon="34.730182648">
<ele>257.664063</ele>
<time>2013-11-19T13:18:24Z</time>
<speed>6.800000</speed>
<extensions>
<speed>6.8</speed>
<temp>0.00</temp>
<bpm>0</bpm>
<rpm>0.00</rpm>
</extensions>
</trkpt>
<trkpt lat="31.048698425" lon="34.729942322">
<ele>256.382813</ele>
<time>2013-11-19T13:18:29Z</time>
<speed>6.960000</speed>
<extensions>
<speed>7.0</speed>
<temp>0.00</temp>
<bpm>0</bpm>
<rpm>0.00</rpm>
</extensions>
</trkpt>
<trkpt lat="31.048933029" lon="34.729694366">
<ele>255.203125</ele>
<time>2013-11-19T13:18:34Z</time>
<speed>6.940000</speed>
<extensions>
<speed>6.9</speed>
<temp>0.00</temp>
<bpm>0</bpm>
<rpm>0.00</rpm>
</extensions>
</trkpt>
<trkpt lat="31.049161911" lon="34.729450226">
<ele>254.042969</ele>
<time>2013-11-19T13:18:39Z</time>
<speed>6.890000</speed>
<extensions>
<speed>6.9</speed>
<temp>0.00</temp>
<bpm>0</bpm>
<rpm>0.00</rpm>
</extensions>
</trkpt>
<trkpt lat="31.049371719" lon="34.729209900">
<ele>253.417969</ele>
<time>2013-11-19T13:18:44Z</time>
<speed>5.990000</speed>
<extensions>
<speed>6.0</speed>
<temp>0.00</temp>
<bpm>0</bpm>
<rpm>0.00</rpm>
</extensions>
</trkpt>
<trkpt lat="31.049566269" lon="34.729003906">
<ele>252.566406</ele>
<time>2013-11-19T13:18:49Z</time>
<speed>5.800000</speed>
<extensions>
<speed>5.8</speed>
<temp>0.00</temp>
<bpm>0</bpm>
<rpm>0.00</rpm>
</extensions>
</trkpt>
<trkpt lat="31.049758911" lon="34.728809357">
<ele>251.945313</ele>
<time>2013-11-19T13:18:54Z</time>
<speed>5.150000</speed>
<extensions>
<speed>5.2</speed>
<temp>0.00</temp>
<bpm>0</bpm>
<rpm>0.00</rpm>
</extensions>
</trkpt>
<trkpt lat="31.049936295" lon="34.728610992">
<ele>252.191406</ele>
<time>2013-11-19T13:18:59Z</time>
<speed>5.530000</speed>
<extensions>
<speed>5.5</speed>
<temp>0.00</temp>
<bpm>0</bpm>
<rpm>0.00</rpm>
</extensions>
</trkpt>
<trkpt lat="31.050119400" lon="34.728404999">
<ele>251.742188</ele>
<time>2013-11-19T13:19:04Z</time>
<speed>5.550000</speed>
<extensions>
<speed>5.5</speed>
<temp>0.00</temp>
<bpm>0</bpm>
<rpm>0.00</rpm>
</extensions>
</trkpt>
<trkpt lat="31.050289154" lon="34.728210449">
<ele>252.667969</ele>
<time>2013-11-19T13:19:09Z</time>
<speed>5.360000</speed>
<extensions>
<speed>5.4</speed>
<temp>0.00</temp>
<bpm>0</bpm>
<rpm>0.00</rpm>
</extensions>
</trkpt>
<trkpt lat="31.050451279" lon="34.728004456">
<ele>252.601563</ele>
<time>2013-11-19T13:19:14Z</time>
<speed>5.310000</speed>
<extensions>
<speed>5.3</speed>
<temp>0.00</temp>
<bpm>0</bpm>
<rpm>0.00</rpm>
</extensions>
</trkpt>
<trkpt lat="31.050596237" lon="34.727790833">
<ele>252.113281</ele>
<time>2013-11-19T13:19:19Z</time>
<speed>5.040000</speed>
<extensions>
<speed>5.0</speed>
<temp>0.00</temp>
<bpm>0</bpm>
<rpm>0.00</rpm>
</extensions>
</trkpt>
<trkpt lat="31.050710678" lon="34.727611542">
<ele>252.218750</ele>
<time>2013-11-19T13:19:24Z</time>
<speed>3.550000</speed>
<extensions>
<speed>3.5</speed>
<temp>0.00</temp>
<bpm>0</bpm>
<rpm>0.00</rpm>
</extensions>
</trkpt>
<trkpt lat="31.050779343" lon="34.727478027">
<ele>252.562500</ele>
<time>2013-11-19T13:19:29Z</time>
<speed>2.720000</speed>
<extensions>
<speed>2.7</speed>
<temp>0.00</temp>
<bpm>0</bpm>
<rpm>0.00</rpm>
</extensions>
</trkpt>
<trkpt lat="31.050798416" lon="34.727321625">
<ele>252.296875</ele>
<time>2013-11-19T13:19:34Z</time>
<speed>3.260000</speed>
<extensions>
<speed>3.3</speed>
<temp>0.00</temp>
<bpm>0</bpm>
<rpm>0.00</rpm>
</extensions>
</trkpt>
<trkpt lat="31.050685883" lon="34.727226257">
<ele>254.121094</ele>
<time>2013-11-19T13:19:39Z</time>
<speed>2.170000</speed>
<extensions>
<speed>2.2</speed>
<temp>0.00</temp>
<bpm>0</bpm>
<rpm>0.00</rpm>
</extensions>
</trkpt>
<trkpt lat="31.050619125" lon="34.727195740">
<ele>255.578125</ele>
<time>2013-11-19T13:19:44Z</time>
<speed>1.510000</speed>
<extensions>
<speed>1.5</speed>
<temp>0.00</temp>
<bpm>0</bpm>
<rpm>0.00</rpm>
</extensions>
</trkpt>
<trkpt lat="31.050554276" lon="34.727149963">
<ele>255.804688</ele>
<time>2013-11-19T13:19:49Z</time>
<speed>2.130000</speed>
<extensions>
<speed>2.1</speed>
<temp>0.00</temp>
<bpm>0</bpm>
<rpm>0.00</rpm>
</extensions>
</trkpt>
<trkpt lat="31.050453186" lon="34.727054596">
<ele>257.046875</ele>
<time>2013-11-19T13:19:54Z</time>
<speed>3.060000</speed>
<extensions>
<speed>3.1</speed>
<temp>0.00</temp>
<bpm>0</bpm>
<rpm>0.00</rpm>
</extensions>
</trkpt>
<trkpt lat="31.050327301" lon="34.726940155">
<ele>257.695313</ele>
<time>2013-11-19T13:19:59Z</time>
<speed>3.790000</speed>
<extensions>
<speed>3.8</speed>
<temp>0.00</temp>
<bpm>0</bpm>
<rpm>0.00</rpm>
</extensions>
</trkpt>
<trkpt lat="31.050182343" lon="34.726791382">
<ele>259.617188</ele>
<time>2013-11-19T13:20:04Z</time>
<speed>4.120000</speed>
<extensions>
<speed>4.1</speed>
<temp>0.00</temp>
<bpm>0</bpm>
<rpm>0.00</rpm>
</extensions>
</trkpt>
<trkpt lat="31.050050735" lon="34.726657867">
<ele>259.796875</ele>
<time>2013-11-19T13:20:09Z</time>
<speed>3.320000</speed>
<extensions>
<speed>3.3</speed>
<temp>0.00</temp>
<bpm>0</bpm>
<rpm>0.00</rpm>
</extensions>
</trkpt>
<trkpt lat="31.049934387" lon="34.726551056">
<ele>260.375000</ele>
<time>2013-11-19T13:20:14Z</time>
<speed>3.210000</speed>
<extensions>
<speed>3.2</speed>
<temp>0.00</temp>
<bpm>0</bpm>
<rpm>0.00</rpm>
</extensions>
</trkpt>
<trkpt lat="31.049800873" lon="34.726413727">
<ele>260.367188</ele>
<time>2013-11-19T13:20:19Z</time>
<speed>4.640000</speed>
<extensions>
<speed>4.6</speed>
<temp>0.00</temp>
<bpm>0</bpm>
<rpm>0.00</rpm>
</extensions>
</trkpt>
<trkpt lat="31.049634933" lon="34.726249695">
<ele>261.281250</ele>
<time>2013-11-19T13:20:24Z</time>
<speed>4.780000</speed>
<extensions>
<speed>4.8</speed>
<temp>0.00</temp>
<bpm>0</bpm>
<rpm>0.00</rpm>
</extensions>
</trkpt>
<trkpt lat="31.049463272" lon="34.726081848">
<ele>261.390625</ele>
<time>2013-11-19T13:20:29Z</time>
<speed>5.170000</speed>
<extensions>
<speed>5.2</speed>
<temp>0.00</temp>
<bpm>0</bpm>
<rpm>0.00</rpm>
</extensions>
</trkpt>
<trkpt lat="31.049289703" lon="34.725910187">
<ele>262.054688</ele>
<time>2013-11-19T13:20:34Z</time>
<speed>5.040000</speed>
<extensions>
<speed>5.0</speed>
<temp>0.00</temp>
<bpm>0</bpm>
<rpm>0.00</rpm>
</extensions>
</trkpt>
<trkpt lat="31.049104691" lon="34.725742340">
<ele>262.679688</ele>
<time>2013-11-19T13:20:39Z</time>
<speed>4.950000</speed>
<extensions>
<speed>4.9</speed>
<temp>0.00</temp>
<bpm>0</bpm>
<rpm>0.00</rpm>
</extensions>
</trkpt>
<trkpt lat="31.048929214" lon="34.725563049">
<ele>263.132813</ele>
<time>2013-11-19T13:20:44Z</time>
<speed>5.510000</speed>
<extensions>
<speed>5.5</speed>
<temp>0.00</temp>
<bpm>0</bpm>
<rpm>0.00</rpm>
</extensions>
</trkpt>
<trkpt lat="31.048744202" lon="34.725391388">
<ele>263.562500</ele>
<time>2013-11-19T13:20:49Z</time>
<speed>4.770000</speed>
<extensions>
<speed>4.8</speed>
<temp>0.00</temp>
<bpm>0</bpm>
<rpm>0.00</rpm>
</extensions>
</trkpt>
<trkpt lat="31.048572540" lon="34.725212097">
<ele>263.578125</ele>
<time>2013-11-19T13:20:54Z</time>
<speed>5.170000</speed>
<extensions>
<speed>5.2</speed>
<temp>0.00</temp>
<bpm>0</bpm>
<rpm>0.00</rpm>
</extensions>
</trkpt>
<trkpt lat="31.048406601" lon="34.725048065">
<ele>263.695313</ele>
<time>2013-11-19T13:20:59Z</time>
<speed>4.360000</speed>
<extensions>
<speed>4.4</speed>
<temp>0.00</temp>
<bpm>0</bpm>
<rpm>0.00</rpm>
</extensions>
</trkpt>
<trkpt lat="31.048255920" lon="34.724899292">
<ele>263.273438</ele>
<time>2013-11-19T13:21:04Z</time>
<speed>4.470000</speed>
<extensions>
<speed>4.5</speed>
<temp>0.00</temp>
<bpm>0</bpm>
<rpm>0.00</rpm>
</extensions>
</trkpt>
<trkpt lat="31.048114777" lon="34.724739075">
<ele>263.570313</ele>
<time>2013-11-19T13:21:09Z</time>
<speed>4.720000</speed>
<extensions>
<speed>4.7</speed>
<temp>0.00</temp>
<bpm>0</bpm>
<rpm>0.00</rpm>
</extensions>
</trkpt>
<trkpt lat="31.047948837" lon="34.724575043">
<ele>263.750000</ele>
<time>2013-11-19T13:21:14Z</time>
<speed>4.480000</speed>
<extensions>
<speed>4.5</speed>
<temp>0.00</temp>
<bpm>0</bpm>
<rpm>0.00</rpm>
</extensions>
</trkpt>
<trkpt lat="31.047803879" lon="34.724441528">
<ele>264.046875</ele>
<time>2013-11-19T13:21:19Z</time>
<speed>3.390000</speed>
<extensions>
<speed>3.4</speed>
<temp>0.00</temp>
<bpm>0</bpm>
<rpm>0.00</rpm>
</extensions>
</trkpt>
<trkpt lat="31.047740936" lon="34.724323273">
<ele>264.085938</ele>
<time>2013-11-19T13:21:24Z</time>
<speed>2.040000</speed>
<extensions>
<speed>2.0</speed>
<temp>0.00</temp>
<bpm>0</bpm>
<rpm>0.00</rpm>
</extensions>
</trkpt>
<trkpt lat="31.047681808" lon="34.724262238">
<ele>264.804688</ele>
<time>2013-11-19T13:21:29Z</time>
<speed>2.170000</speed>
<extensions>
<speed>2.2</speed>
<temp>0.00</temp>
<bpm>0</bpm>
<rpm>0.00</rpm>
</extensions>
</trkpt>
<trkpt lat="31.047578812" lon="34.724227905">
<ele>264.812500</ele>
<time>2013-11-19T13:21:34Z</time>
<speed>2.750000</speed>
<extensions>
<speed>2.7</speed>
<temp>0.00</temp>
<bpm>0</bpm>
<rpm>0.00</rpm>
</extensions>
</trkpt>
<trkpt lat="31.047466278" lon="34.724159241">
<ele>265.250000</ele>
<time>2013-11-19T13:21:39Z</time>
<speed>2.430000</speed>
<extensions>
<speed>2.4</speed>
<temp>0.00</temp>
<bpm>0</bpm>
<rpm>0.00</rpm>
</extensions>
</trkpt>
<trkpt lat="31.047380447" lon="34.724098206">
<ele>265.367188</ele>
<time>2013-11-19T13:21:44Z</time>
<speed>1.260000</speed>
<extensions>
<speed>1.3</speed>
<temp>0.00</temp>
<bpm>0</bpm>
<rpm>0.00</rpm>
</extensions>
</trkpt>
<trkpt lat="31.047313690" lon="34.724056244">
<ele>265.710938</ele>
<time>2013-11-19T13:21:49Z</time>
<speed>2.330000</speed>
<extensions>
<speed>2.3</speed>
<temp>0.00</temp>
<bpm>0</bpm>
<rpm>0.00</rpm>
</extensions>
</trkpt>
<trkpt lat="31.047220230" lon="34.724025726">
<ele>266.281250</ele>
<time>2013-11-19T13:21:54Z</time>
<speed>2.390000</speed>
<extensions>
<speed>2.4</speed>
<temp>0.00</temp>
<bpm>0</bpm>
<rpm>0.00</rpm>
</extensions>
</trkpt>
<trkpt lat="31.047130585" lon="34.723995209">
<ele>267.101563</ele>
<time>2013-11-19T13:21:59Z</time>
<speed>1.530000</speed>
<extensions>
<speed>1.5</speed>
<temp>0.00</temp>
<bpm>0</bpm>
<rpm>0.00</rpm>
</extensions>
</trkpt>
<trkpt lat="31.047050476" lon="34.723949432">
<ele>268.234375</ele>
<time>2013-11-19T13:22:04Z</time>
<speed>2.650000</speed>
<extensions>
<speed>2.6</speed>
<temp>0.00</temp>
<bpm>0</bpm>
<rpm>0.00</rpm>
</extensions>
</trkpt>
<trkpt lat="31.046941757" lon="34.723907471">
<ele>268.757813</ele>
<time>2013-11-19T13:22:09Z</time>
<speed>2.040000</speed>
<extensions>
<speed>2.0</speed>
<temp>0.00</temp>
<bpm>0</bpm>
<rpm>0.00</rpm>
</extensions>
</trkpt>
<trkpt lat="31.046831131" lon="34.723876953">
<ele>269.578125</ele>
<time>2013-11-19T13:22:14Z</time>
<speed>2.800000</speed>
<extensions>
<speed>2.8</speed>
<temp>0.00</temp>
<bpm>0</bpm>
<rpm>0.00</rpm>
</extensions>
</trkpt>
<trkpt lat="31.046689987" lon="34.723865509">
<ele>269.859375</ele>
<time>2013-11-19T13:22:19Z</time>
<speed>3.560000</speed>
<extensions>
<speed>3.6</speed>
<temp>0.00</temp>
<bpm>0</bpm>
<rpm>0.00</rpm>
</extensions>
</trkpt>
<trkpt lat="31.046539307" lon="34.723865509">
<ele>270.125000</ele>
<time>2013-11-19T13:22:24Z</time>
<speed>3.700000</speed>
<extensions>
<speed>3.7</speed>
<temp>0.00</temp>
<bpm>0</bpm>
<rpm>0.00</rpm>
</extensions>
</trkpt>
<trkpt lat="31.046377182" lon="34.723861694">
<ele>269.468750</ele>
<time>2013-11-19T13:22:29Z</time>
<speed>3.040000</speed>
<extensions>
<speed>3.0</speed>
<temp>0.00</temp>
<bpm>0</bpm>
<rpm>0.00</rpm>
</extensions>
</trkpt>
<trkpt lat="31.046226501" lon="34.723884583">
<ele>269.031250</ele>
<time>2013-11-19T13:22:34Z</time>
<speed>3.640000</speed>
<extensions>
<speed>3.6</speed>
<temp>0.00</temp>
<bpm>0</bpm>
<rpm>0.00</rpm>
</extensions>
</trkpt>
<trkpt lat="31.046060562" lon="34.723918915">
<ele>269.453125</ele>
<time>2013-11-19T13:22:39Z</time>
<speed>4.030000</speed>
<extensions>
<speed>4.0</speed>
<temp>0.00</temp>
<bpm>0</bpm>
<rpm>0.00</rpm>
</extensions>
</trkpt>
<trkpt lat="31.045875549" lon="34.723987579">
<ele>269.382813</ele>
<time>2013-11-19T13:22:44Z</time>
<speed>4.330000</speed>
<extensions>
<speed>4.3</speed>
<temp>0.00</temp>
<bpm>0</bpm>
<rpm>0.00</rpm>
</extensions>
</trkpt>
<trkpt lat="31.045694351" lon="34.724082947">
<ele>269.843750</ele>
<time>2013-11-19T13:22:49Z</time>
<speed>4.040000</speed>
<extensions>
<speed>4.0</speed>
<temp>0.00</temp>
<bpm>0</bpm>
<rpm>0.00</rpm>
</extensions>
</trkpt>
<trkpt lat="31.045530319" lon="34.724166870">
<ele>269.945313</ele>
<time>2013-11-19T13:22:54Z</time>
<speed>4.200000</speed>
<extensions>
<speed>4.2</speed>
<temp>0.00</temp>
<bpm>0</bpm>
<rpm>0.00</rpm>
</extensions>
</trkpt>
<trkpt lat="31.045379639" lon="34.724235535">
<ele>270.320313</ele>
<time>2013-11-19T13:22:59Z</time>
<speed>3.310000</speed>
<extensions>
<speed>3.3</speed>
<temp>0.00</temp>
<bpm>0</bpm>
<rpm>0.00</rpm>
</extensions>
</trkpt>
<trkpt lat="31.045259476" lon="34.724288940">
<ele>270.742188</ele>
<time>2013-11-19T13:23:04Z</time>
<speed>2.680000</speed>
<extensions>
<speed>2.7</speed>
<temp>0.00</temp>
<bpm>0</bpm>
<rpm>0.00</rpm>
</extensions>
</trkpt>
<trkpt lat="31.045164108" lon="34.724315643">
<ele>270.882813</ele>
<time>2013-11-19T13:23:09Z</time>
<speed>2.190000</speed>
<extensions>
<speed>2.2</speed>
<temp>0.00</temp>
<bpm>0</bpm>
<rpm>0.00</rpm>
</extensions>
</trkpt>
<trkpt lat="31.045063019" lon="34.724334717">
<ele>270.929688</ele>
<time>2013-11-19T13:23:14Z</time>
<speed>2.740000</speed>
<extensions>
<speed>2.7</speed>
<temp>0.00</temp>
<bpm>0</bpm>
<rpm>0.00</rpm>
</extensions>
</trkpt>
<trkpt lat="31.044963837" lon="34.724361420">
<ele>271.437500</ele>
<time>2013-11-19T13:23:19Z</time>
<speed>2.540000</speed>
<extensions>
<speed>2.5</speed>
<temp>0.00</temp>
<bpm>0</bpm>
<rpm>0.00</rpm>
</extensions>
</trkpt>
<trkpt lat="31.044824600" lon="34.724376678">
<ele>271.062500</ele>
<time>2013-11-19T13:23:24Z</time>
<speed>3.270000</speed>
<extensions>
<speed>3.3</speed>
<temp>0.00</temp>
<bpm>0</bpm>
<rpm>0.00</rpm>
</extensions>
</trkpt>
<trkpt lat="31.044677734" lon="34.724372864">
<ele>271.437500</ele>
<time>2013-11-19T13:23:29Z</time>
<speed>3.550000</speed>
<extensions>
<speed>3.5</speed>
<temp>0.00</temp>
<bpm>0</bpm>
<rpm>0.00</rpm>
</extensions>
</trkpt>
<trkpt lat="31.044523239" lon="34.724327087">
<ele>272.039063</ele>
<time>2013-11-19T13:23:34Z</time>
<speed>3.180000</speed>
<extensions>
<speed>3.2</speed>
<temp>0.00</temp>
<bpm>0</bpm>
<rpm>0.00</rpm>
</extensions>
</trkpt>
<trkpt lat="31.044372559" lon="34.724292755">
<ele>272.210938</ele>
<time>2013-11-19T13:23:39Z</time>
<speed>3.300000</speed>
<extensions>
<speed>3.3</speed>
<temp>0.00</temp>
<bpm>0</bpm>
<rpm>0.00</rpm>
</extensions>
</trkpt>
<trkpt lat="31.044231415" lon="34.724285126">
<ele>272.296875</ele>
<time>2013-11-19T13:23:44Z</time>
<speed>3.420000</speed>
<extensions>
<speed>3.4</speed>
<temp>0.00</temp>
<bpm>0</bpm>
<rpm>0.00</rpm>
</extensions>
</trkpt>
<trkpt lat="31.044109344" lon="34.724266052">
<ele>272.781250</ele>
<time>2013-11-19T13:23:49Z</time>
<speed>2.510000</speed>
<extensions>
<speed>2.5</speed>
<temp>0.00</temp>
<bpm>0</bpm>
<rpm>0.00</rpm>
</extensions>
</trkpt>
<trkpt lat="31.044031143" lon="34.724246979">
<ele>273.156250</ele>
<time>2013-11-19T13:23:54Z</time>
<speed>1.570000</speed>
<extensions>
<speed>1.6</speed>
<temp>0.00</temp>
<bpm>0</bpm>
<rpm>0.00</rpm>
</extensions>
</trkpt>
<trkpt lat="31.043951035" lon="34.724216461">
<ele>273.414063</ele>
<time>2013-11-19T13:23:59Z</time>
<speed>1.600000</speed>
<extensions>
<speed>1.6</speed>
<temp>0.00</temp>
<bpm>0</bpm>
<rpm>0.00</rpm>
</extensions>
</trkpt>
<trkpt lat="31.043874741" lon="34.724182129">
<ele>273.546875</ele>
<time>2013-11-19T13:24:04Z</time>
<speed>2.230000</speed>
<extensions>
<speed>2.2</speed>
<temp>0.00</temp>
<bpm>0</bpm>
<rpm>0.00</rpm>
</extensions>
</trkpt>
<trkpt lat="31.043764114" lon="34.724182129">
<ele>274.273438</ele>
<time>2013-11-19T13:24:09Z</time>
<speed>2.840000</speed>
<extensions>
<speed>2.8</speed>
<temp>0.00</temp>
<bpm>0</bpm>
<rpm>0.00</rpm>
</extensions>
</trkpt>
<trkpt lat="31.043628693" lon="34.724121094">
<ele>274.195313</ele>
<time>2013-11-19T13:24:14Z</time>
<speed>3.150000</speed>
<extensions>
<speed>3.2</speed>
<temp>0.00</temp>
<bpm>0</bpm>
<rpm>0.00</rpm>
</extensions>
</trkpt>
<trkpt lat="31.043506622" lon="34.724052429">
<ele>274.140625</ele>
<time>2013-11-19T13:24:19Z</time>
<speed>2.780000</speed>
<extensions>
<speed>2.8</speed>
<temp>0.00</temp>
<bpm>0</bpm>
<rpm>0.00</rpm>
</extensions>
</trkpt>
<trkpt lat="31.043371201" lon="34.724006653">
<ele>274.859375</ele>
<time>2013-11-19T13:24:24Z</time>
<speed>3.180000</speed>
<extensions>
<speed>3.2</speed>
<temp>0.00</temp>
<bpm>0</bpm>
<rpm>0.00</rpm>
</extensions>
</trkpt>
<trkpt lat="31.043249130" lon="34.723934174">
<ele>275.164063</ele>
<time>2013-11-19T13:24:29Z</time>
<speed>3.380000</speed>
<extensions>
<speed>3.4</speed>
<temp>0.00</temp>
<bpm>0</bpm>
<rpm>0.00</rpm>
</extensions>
</trkpt>
<trkpt lat="31.043096542" lon="34.723854065">
<ele>275.328125</ele>
<time>2013-11-19T13:24:34Z</time>
<speed>3.930000</speed>
<extensions>
<speed>3.9</speed>
<temp>0.00</temp>
<bpm>0</bpm>
<rpm>0.00</rpm>
</extensions>
</trkpt>
<trkpt lat="31.042947769" lon="34.723785400">
<ele>275.664063</ele>
<time>2013-11-19T13:24:39Z</time>
<speed>3.180000</speed>
<extensions>
<speed>3.2</speed>
<temp>0.00</temp>
<bpm>0</bpm>
<rpm>0.00</rpm>
</extensions>
</trkpt>
<trkpt lat="31.042789459" lon="34.723705292">
<ele>275.625000</ele>
<time>2013-11-19T13:24:44Z</time>
<speed>4.130000</speed>
<extensions>
<speed>4.1</speed>
<temp>0.00</temp>
<bpm>0</bpm>
<rpm>0.00</rpm>
</extensions>
</trkpt>
<trkpt lat="31.042640686" lon="34.723636627">
<ele>276.187500</ele>
<time>2013-11-19T13:24:49Z</time>
<speed>2.730000</speed>
<extensions>
<speed>2.7</speed>
<temp>0.00</temp>
<bpm>0</bpm>
<rpm>0.00</rpm>
</extensions>
</trkpt>
<trkpt lat="31.042539597" lon="34.723594666">
<ele>276.023438</ele>
<time>2013-11-19T13:24:54Z</time>
<speed>2.330000</speed>
<extensions>
<speed>2.3</speed>
<temp>0.00</temp>
<bpm>0</bpm>
<rpm>0.00</rpm>
</extensions>
</trkpt>
<trkpt lat="31.042419434" lon="34.723529816">
<ele>276.500000</ele>
<time>2013-11-19T13:24:59Z</time>
<speed>3.230000</speed>
<extensions>
<speed>3.2</speed>
<temp>0.00</temp>
<bpm>0</bpm>
<rpm>0.00</rpm>
</extensions>
</trkpt>
<trkpt lat="31.042295456" lon="34.723457336">
<ele>276.414063</ele>
<time>2013-11-19T13:25:04Z</time>
<speed>2.870000</speed>
<extensions>
<speed>2.9</speed>
<temp>0.00</temp>
<bpm>0</bpm>
<rpm>0.00</rpm>
</extensions>
</trkpt>
<trkpt lat="31.042169571" lon="34.723388672">
<ele>276.890625</ele>
<time>2013-11-19T13:25:09Z</time>
<speed>3.440000</speed>
<extensions>
<speed>3.4</speed>
<temp>0.00</temp>
<bpm>0</bpm>
<rpm>0.00</rpm>
</extensions>
</trkpt>
<trkpt lat="31.042055130" lon="34.723312378">
<ele>276.437500</ele>
<time>2013-11-19T13:25:14Z</time>
<speed>2.920000</speed>
<extensions>
<speed>2.9</speed>
<temp>0.00</temp>
<bpm>0</bpm>
<rpm>0.00</rpm>
</extensions>
</trkpt>
<trkpt lat="31.041971207" lon="34.723224640">
<ele>275.523438</ele>
<time>2013-11-19T13:25:19Z</time>
<speed>2.960000</speed>
<extensions>
<speed>3.0</speed>
<temp>0.00</temp>
<bpm>0</bpm>
<rpm>0.00</rpm>
</extensions>
</trkpt>
<trkpt lat="31.041879654" lon="34.723094940">
<ele>275.562500</ele>
<time>2013-11-19T13:25:24Z</time>
<speed>3.160000</speed>
<extensions>
<speed>3.2</speed>
<temp>0.00</temp>
<bpm>0</bpm>
<rpm>0.00</rpm>
</extensions>
</trkpt>
<trkpt lat="31.041784286" lon="34.722953796">
<ele>275.070313</ele>
<time>2013-11-19T13:25:29Z</time>
<speed>3.240000</speed>
<extensions>
<speed>3.2</speed>
<temp>0.00</temp>
<bpm>0</bpm>
<rpm>0.00</rpm>
</extensions>
</trkpt>
<trkpt lat="31.041692734" lon="34.722812653">
<ele>274.539063</ele>
<time>2013-11-19T13:25:34Z</time>
<speed>2.820000</speed>
<extensions>
<speed>2.8</speed>
<temp>0.00</temp>
<bpm>0</bpm>
<rpm>0.00</rpm>
</extensions>
</trkpt>
<trkpt lat="31.041627884" lon="34.722705841">
<ele>274.148438</ele>
<time>2013-11-19T13:25:39Z</time>
<speed>2.900000</speed>
<extensions>
<speed>2.9</speed>
<temp>0.00</temp>
<bpm>0</bpm>
<rpm>0.00</rpm>
</extensions>
</trkpt>
<trkpt lat="31.041549683" lon="34.722568512">
<ele>273.789063</ele>
<time>2013-11-19T13:25:44Z</time>
<speed>3.040000</speed>
<extensions>
<speed>3.0</speed>
<temp>0.00</temp>
<bpm>0</bpm>
<rpm>0.00</rpm>
</extensions>
</trkpt>
<trkpt lat="31.041467667" lon="34.722434998">
<ele>273.023438</ele>
<time>2013-11-19T13:25:49Z</time>
<speed>2.960000</speed>
<extensions>
<speed>3.0</speed>
<temp>0.00</temp>
<bpm>0</bpm>
<rpm>0.00</rpm>
</extensions>
</trkpt>
<trkpt lat="31.041397095" lon="34.722320557">
<ele>272.500000</ele>
<time>2013-11-19T13:25:54Z</time>
<speed>2.490000</speed>
<extensions>
<speed>2.5</speed>
<temp>0.00</temp>
<bpm>0</bpm>
<rpm>0.00</rpm>
</extensions>
</trkpt>
<trkpt lat="31.041326523" lon="34.722194672">
<ele>271.804688</ele>
<time>2013-11-19T13:25:59Z</time>
<speed>3.140000</speed>
<extensions>
<speed>3.1</speed>
<temp>0.00</temp>
<bpm>0</bpm>
<rpm>0.00</rpm>
</extensions>
</trkpt>
<trkpt lat="31.041257858" lon="34.722072601">
<ele>271.281250</ele>
<time>2013-11-19T13:26:04Z</time>
<speed>2.270000</speed>
<extensions>
<speed>2.3</speed>
<temp>0.00</temp>
<bpm>0</bpm>
<rpm>0.00</rpm>
</extensions>
</trkpt>
<trkpt lat="31.041200638" lon="34.721988678">
<ele>271.234375</ele>
<time>2013-11-19T13:26:09Z</time>
<speed>2.040000</speed>
<extensions>
<speed>2.0</speed>
<temp>0.00</temp>
<bpm>0</bpm>
<rpm>0.00</rpm>
</extensions>
</trkpt>
<trkpt lat="31.041151047" lon="34.721897125">
<ele>271.906250</ele>
<time>2013-11-19T13:26:14Z</time>
<speed>2.080000</speed>
<extensions>
<speed>2.1</speed>
<temp>0.00</temp>
<bpm>0</bpm>
<rpm>0.00</rpm>
</extensions>
</trkpt>
<trkpt lat="31.041109085" lon="34.721805573">
<ele>271.437500</ele>
<time>2013-11-19T13:26:19Z</time>
<speed>2.200000</speed>
<extensions>
<speed>2.2</speed>
<temp>0.00</temp>
<bpm>0</bpm>
<rpm>0.00</rpm>
</extensions>
</trkpt>
<trkpt lat="31.041059494" lon="34.721710205">
<ele>271.156250</ele>
<time>2013-11-19T13:26:24Z</time>
<speed>1.930000</speed>
<extensions>
<speed>1.9</speed>
<temp>0.00</temp>
<bpm>0</bpm>
<rpm>0.00</rpm>
</extensions>
</trkpt>
<trkpt lat="31.041017532" lon="34.721626282">
<ele>270.757813</ele>
<time>2013-11-19T13:26:29Z</time>
<speed>1.530000</speed>
<extensions>
<speed>1.5</speed>
<temp>0.00</temp>
<bpm>0</bpm>
<rpm>0.00</rpm>
</extensions>
</trkpt>
<trkpt lat="31.040977478" lon="34.721565247">
<ele>270.507813</ele>
<time>2013-11-19T13:26:34Z</time>
<speed>1.450000</speed>
<extensions>
<speed>1.4</speed>
<temp>0.00</temp>
<bpm>0</bpm>
<rpm>0.00</rpm>
</extensions>
</trkpt>
<trkpt lat="31.040943146" lon="34.721508026">
<ele>269.992188</ele>
<time>2013-11-19T13:26:39Z</time>
<speed>1.390000</speed>
<extensions>
<speed>1.4</speed>
<temp>0.00</temp>
<bpm>0</bpm>
<rpm>0.00</rpm>
</extensions>
</trkpt>
<trkpt lat="31.040931702" lon="34.721542358">
<ele>269.304688</ele>
<time>2013-11-19T13:26:44Z</time>
<speed>3.290000</speed>
<extensions>
<speed>3.3</speed>
<temp>0.00</temp>
<bpm>0</bpm>
<rpm>0.00</rpm>
</extensions>
</trkpt>
<trkpt lat="31.041017532" lon="34.721687317">
<ele>269.203125</ele>
<time>2013-11-19T13:26:49Z</time>
<speed>3.680000</speed>
<extensions>
<speed>3.7</speed>
<temp>0.00</temp>
<bpm>0</bpm>
<rpm>0.00</rpm>
</extensions>
</trkpt>
<trkpt lat="31.041110992" lon="34.721843719">
<ele>269.320313</ele>
<time>2013-11-19T13:26:54Z</time>
<speed>3.690000</speed>
<extensions>
<speed>3.7</speed>
<temp>0.00</temp>
<bpm>0</bpm>
<rpm>0.00</rpm>
</extensions>
</trkpt>
<trkpt lat="31.041212082" lon="34.722019196">
<ele>269.914063</ele>
<time>2013-11-19T13:26:59Z</time>
<speed>4.030000</speed>
<extensions>
<speed>4.0</speed>
<temp>0.00</temp>
<bpm>0</bpm>
<rpm>0.00</rpm>
</extensions>
</trkpt>
<trkpt lat="31.041313171" lon="34.722194672">
<ele>270.421875</ele>
<time>2013-11-19T13:27:04Z</time>
<speed>4.270000</speed>
<extensions>
<speed>4.3</speed>
<temp>0.00</temp>
<bpm>0</bpm>
<rpm>0.00</rpm>
</extensions>
</trkpt>
<trkpt lat="31.041410446" lon="34.722362518">
<ele>271.148438</ele>
<time>2013-11-19T13:27:09Z</time>
<speed>3.380000</speed>
<extensions>
<speed>3.4</speed>
<temp>0.00</temp>
<bpm>0</bpm>
<rpm>0.00</rpm>
</extensions>
</trkpt>
<trkpt lat="31.041503906" lon="34.722522736">
<ele>272.070313</ele>
<time>2013-11-19T13:27:14Z</time>
<speed>3.830000</speed>
<extensions>
<speed>3.8</speed>
<temp>0.00</temp>
<bpm>0</bpm>
<rpm>0.00</rpm>
</extensions>
</trkpt>
<trkpt lat="31.041597366" lon="34.722690582">
<ele>273.007813</ele>
<time>2013-11-19T13:27:19Z</time>
<speed>3.360000</speed>
<extensions>
<speed>3.4</speed>
<temp>0.00</temp>
<bpm>0</bpm>
<rpm>0.00</rpm>
</extensions>
</trkpt>
<trkpt lat="31.041694641" lon="34.722850800">
<ele>273.726563</ele>
<time>2013-11-19T13:27:24Z</time>
<speed>4.070000</speed>
<extensions>
<speed>4.1</speed>
<temp>0.00</temp>
<bpm>0</bpm>
<rpm>0.00</rpm>
</extensions>
</trkpt>
<trkpt lat="31.041810989" lon="34.723041534">
<ele>274.695313</ele>
<time>2013-11-19T13:27:29Z</time>
<speed>4.090000</speed>
<extensions>
<speed>4.1</speed>
<temp>0.00</temp>
<bpm>0</bpm>
<rpm>0.00</rpm>
</extensions>
</trkpt>
<trkpt lat="31.041931152" lon="34.723217010">
<ele>275.687500</ele>
<time>2013-11-19T13:27:34Z</time>
<speed>4.690000</speed>
<extensions>
<speed>4.7</speed>
<temp>0.00</temp>
<bpm>0</bpm>
<rpm>0.00</rpm>
</extensions>
</trkpt>
<trkpt lat="31.042083740" lon="34.723358154">
<ele>276.906250</ele>
<time>2013-11-19T13:27:39Z</time>
<speed>4.330000</speed>
<extensions>
<speed>4.3</speed>
<temp>0.00</temp>
<bpm>0</bpm>
<rpm>0.00</rpm>
</extensions>
</trkpt>
<trkpt lat="31.042251587" lon="34.723457336">
<ele>276.351563</ele>
<time>2013-11-19T13:27:44Z</time>
<speed>4.050000</speed>
<extensions>
<speed>4.0</speed>
<temp>0.00</temp>
<bpm>0</bpm>
<rpm>0.00</rpm>
</extensions>
</trkpt>
<trkpt lat="31.042390823" lon="34.723533630">
<ele>275.859375</ele>
<time>2013-11-19T13:27:49Z</time>
<speed>2.680000</speed>
<extensions>
<speed>2.7</speed>
<temp>0.00</temp>
<bpm>0</bpm>
<rpm>0.00</rpm>
</extensions>
</trkpt>
<trkpt lat="31.042510986" lon="34.723598480">
<ele>275.890625</ele>
<time>2013-11-19T13:27:54Z</time>
<speed>2.970000</speed>
<extensions>
<speed>3.0</speed>
<temp>0.00</temp>
<bpm>0</bpm>
<rpm>0.00</rpm>
</extensions>
</trkpt>
<trkpt lat="31.042654037" lon="34.723667145">
<ele>276.664063</ele>
<time>2013-11-19T13:27:59Z</time>
<speed>3.430000</speed>
<extensions>
<speed>3.4</speed>
<temp>0.00</temp>
<bpm>0</bpm>
<rpm>0.00</rpm>
</extensions>
</trkpt>
<trkpt lat="31.042808533" lon="34.723735809">
<ele>276.429688</ele>
<time>2013-11-19T13:28:04Z</time>
<speed>3.960000</speed>
<extensions>
<speed>4.0</speed>
<temp>0.00</temp>
<bpm>0</bpm>
<rpm>0.00</rpm>
</extensions>
</trkpt>
<trkpt lat="31.042989731" lon="34.723823547">
<ele>276.382813</ele>
<time>2013-11-19T13:28:09Z</time>
<speed>4.390000</speed>
<extensions>
<speed>4.4</speed>
<temp>0.00</temp>
<bpm>0</bpm>
<rpm>0.00</rpm>
</extensions>
</trkpt>
<trkpt lat="31.043182373" lon="34.723934174">
<ele>276.421875</ele>
<time>2013-11-19T13:28:14Z</time>
<speed>4.550000</speed>
<extensions>
<speed>4.5</speed>
<temp>0.00</temp>
<bpm>0</bpm>
<rpm>0.00</rpm>
</extensions>
</trkpt>
<trkpt lat="31.043376923" lon="34.724033356">
<ele>276.500000</ele>
<time>2013-11-19T13:28:19Z</time>
<speed>4.430000</speed>
<extensions>
<speed>4.4</speed>
<temp>0.00</temp>
<bpm>0</bpm>
<rpm>0.00</rpm>
</extensions>
</trkpt>
<trkpt lat="31.043558121" lon="34.724128723">
<ele>275.929688</ele>
<time>2013-11-19T13:28:24Z</time>
<speed>3.850000</speed>
<extensions>
<speed>3.8</speed>
<temp>0.00</temp>
<bpm>0</bpm>
<rpm>0.00</rpm>
</extensions>
</trkpt>
<trkpt lat="31.043714523" lon="34.724227905">
<ele>276.335938</ele>
<time>2013-11-19T13:28:29Z</time>
<speed>3.780000</speed>
<extensions>
<speed>3.8</speed>
<temp>0.00</temp>
<bpm>0</bpm>
<rpm>0.00</rpm>
</extensions>
</trkpt>
<trkpt lat="31.043891907" lon="34.724250793">
<ele>276.679688</ele>
<time>2013-11-19T13:28:34Z</time>
<speed>4.270000</speed>
<extensions>
<speed>4.3</speed>
<temp>0.00</temp>
<bpm>0</bpm>
<rpm>0.00</rpm>
</extensions>
</trkpt>
<trkpt lat="31.044065475" lon="34.724315643">
<ele>276.664063</ele>
<time>2013-11-19T13:28:39Z</time>
<speed>3.180000</speed>
<extensions>
<speed>3.2</speed>
<temp>0.00</temp>
<bpm>0</bpm>
<rpm>0.00</rpm>
</extensions>
</trkpt>
<trkpt lat="31.044195175" lon="34.724361420">
<ele>276.867188</ele>
<time>2013-11-19T13:28:44Z</time>
<speed>2.930000</speed>
<extensions>
<speed>2.9</speed>
<temp>0.00</temp>
<bpm>0</bpm>
<rpm>0.00</rpm>
</extensions>
</trkpt>
<trkpt lat="31.044326782" lon="34.724411011">
<ele>277.507813</ele>
<time>2013-11-19T13:28:49Z</time>
<speed>3.120000</speed>
<extensions>
<speed>3.1</speed>
<temp>0.00</temp>
<bpm>0</bpm>
<rpm>0.00</rpm>
</extensions>
</trkpt>
<trkpt lat="31.044466019" lon="34.724433899">
<ele>278.710938</ele>
<time>2013-11-19T13:28:54Z</time>
<speed>3.220000</speed>
<extensions>
<speed>3.2</speed>
<temp>0.00</temp>
<bpm>0</bpm>
<rpm>0.00</rpm>
</extensions>
</trkpt>
<trkpt lat="31.044601440" lon="34.724452972">
<ele>279.929688</ele>
<time>2013-11-19T13:28:59Z</time>
<speed>2.900000</speed>
<extensions>
<speed>2.9</speed>
<temp>0.00</temp>
<bpm>0</bpm>
<rpm>0.00</rpm>
</extensions>
</trkpt>
<trkpt lat="31.044691086" lon="34.724464417">
<ele>281.515625</ele>
<time>2013-11-19T13:29:04Z</time>
<speed>1.870000</speed>
<extensions>
<speed>1.9</speed>
<temp>0.00</temp>
<bpm>0</bpm>
<rpm>0.00</rpm>
</extensions>
</trkpt>
<trkpt lat="31.044630051" lon="34.724399567">
<ele>281.562500</ele>
<time>2013-11-19T13:29:09Z</time>
<speed>3.160000</speed>
<extensions>
<speed>3.2</speed>
<temp>0.00</temp>
<bpm>0</bpm>
<rpm>0.00</rpm>
</extensions>
</trkpt>
<trkpt lat="31.044473648" lon="34.724369049">
<ele>280.726563</ele>
<time>2013-11-19T13:29:14Z</time>
<speed>3.520000</speed>
<extensions>
<speed>3.5</speed>
<temp>0.00</temp>
<bpm>0</bpm>
<rpm>0.00</rpm>
</extensions>
</trkpt>
<trkpt lat="31.044303894" lon="34.724334717">
<ele>280.085938</ele>
<time>2013-11-19T13:29:19Z</time>
<speed>4.150000</speed>
<extensions>
<speed>4.1</speed>
<temp>0.00</temp>
<bpm>0</bpm>
<rpm>0.00</rpm>
</extensions>
</trkpt>
<trkpt lat="31.044141769" lon="34.724288940">
<ele>279.148438</ele>
<time>2013-11-19T13:29:24Z</time>
<speed>3.840000</speed>
<extensions>
<speed>3.8</speed>
<temp>0.00</temp>
<bpm>0</bpm>
<rpm>0.00</rpm>
</extensions>
</trkpt>
<trkpt lat="31.044000626" lon="34.724239349">
<ele>278.453125</ele>
<time>2013-11-19T13:29:29Z</time>
<speed>3.440000</speed>
<extensions>
<speed>3.4</speed>
<temp>0.00</temp>
<bpm>0</bpm>
<rpm>0.00</rpm>
</extensions>
</trkpt>
<trkpt lat="31.043840408" lon="34.724197388">
<ele>277.437500</ele>
<time>2013-11-19T13:29:34Z</time>
<speed>3.870000</speed>
<extensions>
<speed>3.9</speed>
<temp>0.00</temp>
<bpm>0</bpm>
<rpm>0.00</rpm>
</extensions>
</trkpt>
<trkpt lat="31.043674469" lon="34.724132538">
<ele>277.578125</ele>
<time>2013-11-19T13:29:39Z</time>
<speed>3.370000</speed>
<extensions>
<speed>3.4</speed>
<temp>0.00</temp>
<bpm>0</bpm>
<rpm>0.00</rpm>
</extensions>
</trkpt>
<trkpt lat="31.043531418" lon="34.724044800">
<ele>277.562500</ele>
<time>2013-11-19T13:29:44Z</time>
<speed>3.780000</speed>
<extensions>
<speed>3.8</speed>
<temp>0.00</temp>
<bpm>0</bpm>
<rpm>0.00</rpm>
</extensions>
</trkpt>
<trkpt lat="31.043376923" lon="34.723968506">
<ele>277.976563</ele>
<time>2013-11-19T13:29:49Z</time>
<speed>3.620000</speed>
<extensions>
<speed>3.6</speed>
<temp>0.00</temp>
<bpm>0</bpm>
<rpm>0.00</rpm>
</extensions>
</trkpt>
<trkpt lat="31.043243408" lon="34.723896027">
<ele>276.492188</ele>
<time>2013-11-19T13:29:54Z</time>
<speed>3.590000</speed>
<extensions>
<speed>3.6</speed>
<temp>0.00</temp>
<bpm>0</bpm>
<rpm>0.00</rpm>
</extensions>
</trkpt>
<trkpt lat="31.043077469" lon="34.723815918">
<ele>277.078125</ele>
<time>2013-11-19T13:29:59Z</time>
<speed>4.080000</speed>
<extensions>
<speed>4.1</speed>
<temp>0.00</temp>
<bpm>0</bpm>
<rpm>0.00</rpm>
</extensions>
</trkpt>
<trkpt lat="31.042900085" lon="34.723728180">
<ele>276.859375</ele>
<time>2013-11-19T13:30:04Z</time>
<speed>4.040000</speed>
<extensions>
<speed>4.0</speed>
<temp>0.00</temp>
<bpm>0</bpm>
<rpm>0.00</rpm>
</extensions>
</trkpt>
<trkpt lat="31.042745590" lon="34.723655701">
<ele>277.351563</ele>
<time>2013-11-19T13:30:09Z</time>
<speed>3.850000</speed>
<extensions>
<speed>3.8</speed>
<temp>0.00</temp>
<bpm>0</bpm>
<rpm>0.00</rpm>
</extensions>
</trkpt>
<trkpt lat="31.042577744" lon="34.723567963">
<ele>277.195313</ele>
<time>2013-11-19T13:30:14Z</time>
<speed>4.040000</speed>
<extensions>
<speed>4.0</speed>
<temp>0.00</temp>
<bpm>0</bpm>
<rpm>0.00</rpm>
</extensions>
</trkpt>
<trkpt lat="31.042400360" lon="34.723487854">
<ele>276.523438</ele>
<time>2013-11-19T13:30:19Z</time>
<speed>4.140000</speed>
<extensions>
<speed>4.1</speed>
<temp>0.00</temp>
<bpm>0</bpm>
<rpm>0.00</rpm>
</extensions>
</trkpt>
<trkpt lat="31.042259216" lon="34.723411560">
<ele>276.351563</ele>
<time>2013-11-19T13:30:24Z</time>
<speed>2.670000</speed>
<extensions>
<speed>2.7</speed>
<temp>0.00</temp>
<bpm>0</bpm>
<rpm>0.00</rpm>
</extensions>
</trkpt>
<trkpt lat="31.042133331" lon="34.723327637">
<ele>275.078125</ele>
<time>2013-11-19T13:30:29Z</time>
<speed>3.660000</speed>
<extensions>
<speed>3.7</speed>
<temp>0.00</temp>
<bpm>0</bpm>
<rpm>0.00</rpm>
</extensions>
</trkpt>
<trkpt lat="31.042007446" lon="34.723205566">
<ele>275.335938</ele>
<time>2013-11-19T13:30:34Z</time>
<speed>3.840000</speed>
<extensions>
<speed>3.8</speed>
<temp>0.00</temp>
<bpm>0</bpm>
<rpm>0.00</rpm>
</extensions>
</trkpt>
<trkpt lat="31.041879654" lon="34.723026276">
<ele>275.507813</ele>
<time>2013-11-19T13:30:39Z</time>
<speed>4.410000</speed>
<extensions>
<speed>4.4</speed>
<temp>0.00</temp>
<bpm>0</bpm>
<rpm>0.00</rpm>
</extensions>
</trkpt>
<trkpt lat="31.041746140" lon="34.722827911">
<ele>274.304688</ele>
<time>2013-11-19T13:30:44Z</time>
<speed>5.050000</speed>
<extensions>
<speed>5.1</speed>
<temp>0.00</temp>
<bpm>0</bpm>
<rpm>0.00</rpm>
</extensions>
</trkpt>
<trkpt lat="31.041608810" lon="34.722599030">
<ele>273.546875</ele>
<time>2013-11-19T13:30:49Z</time>
<speed>5.490000</speed>
<extensions>
<speed>5.5</speed>
<temp>0.00</temp>
<bpm>0</bpm>
<rpm>0.00</rpm>
</extensions>
</trkpt>
<trkpt lat="31.041467667" lon="34.722347260">
<ele>272.593750</ele>
<time>2013-11-19T13:30:54Z</time>
<speed>5.830000</speed>
<extensions>
<speed>5.8</speed>
<temp>0.00</temp>
<bpm>0</bpm>
<rpm>0.00</rpm>
</extensions>
</trkpt>
<trkpt lat="31.041318893" lon="34.722076416">
<ele>271.851563</ele>
<time>2013-11-19T13:30:59Z</time>
<speed>6.170000</speed>
<extensions>
<speed>6.2</speed>
<temp>0.00</temp>
<bpm>0</bpm>
<rpm>0.00</rpm>
</extensions>
</trkpt>
<trkpt lat="31.041158676" lon="34.721801758">
<ele>271.250000</ele>
<time>2013-11-19T13:31:04Z</time>
<speed>6.170000</speed>
<extensions>
<speed>6.2</speed>
<temp>0.00</temp>
<bpm>0</bpm>
<rpm>0.00</rpm>
</extensions>
</trkpt>
<trkpt lat="31.041002274" lon="34.721534729">
<ele>271.109375</ele>
<time>2013-11-19T13:31:09Z</time>
<speed>5.920000</speed>
<extensions>
<speed>5.9</speed>
<temp>0.00</temp>
<bpm>0</bpm>
<rpm>0.00</rpm>
</extensions>
</trkpt>
<trkpt lat="31.040838242" lon="34.721302032">
<ele>270.468750</ele>
<time>2013-11-19T13:31:14Z</time>
<speed>5.610000</speed>
<extensions>
<speed>5.6</speed>
<temp>0.00</temp>
<bpm>0</bpm>
<rpm>0.00</rpm>
</extensions>
</trkpt>
<trkpt lat="31.040658951" lon="34.721126556">
<ele>270.171875</ele>
<time>2013-11-19T13:31:19Z</time>
<speed>4.790000</speed>
<extensions>
<speed>4.8</speed>
<temp>0.00</temp>
<bpm>0</bpm>
<rpm>0.00</rpm>
</extensions>
</trkpt>
<trkpt lat="31.040576935" lon="34.720958710">
<ele>271.273438</ele>
<time>2013-11-19T13:31:24Z</time>
<speed>3.490000</speed>
<extensions>
<speed>3.5</speed>
<temp>0.00</temp>
<bpm>0</bpm>
<rpm>0.00</rpm>
</extensions>
</trkpt>
<trkpt lat="31.040655136" lon="34.720806122">
<ele>270.992188</ele>
<time>2013-11-19T13:31:29Z</time>
<speed>3.580000</speed>
<extensions>
<speed>3.6</speed>
<temp>0.00</temp>
<bpm>0</bpm>
<rpm>0.00</rpm>
</extensions>
</trkpt>
<trkpt lat="31.040737152" lon="34.720664978">
<ele>270.437500</ele>
<time>2013-11-19T13:31:34Z</time>
<speed>3.400000</speed>
<extensions>
<speed>3.4</speed>
<temp>0.00</temp>
<bpm>0</bpm>
<rpm>0.00</rpm>
</extensions>
</trkpt>
<trkpt lat="31.040817261" lon="34.720535278">
<ele>269.984375</ele>
<time>2013-11-19T13:31:39Z</time>
<speed>3.140000</speed>
<extensions>
<speed>3.1</speed>
<temp>0.00</temp>
<bpm>0</bpm>
<rpm>0.00</rpm>
</extensions>
</trkpt>
<trkpt lat="31.040895462" lon="34.720413208">
<ele>269.453125</ele>
<time>2013-11-19T13:31:44Z</time>
<speed>3.080000</speed>
<extensions>
<speed>3.1</speed>
<temp>0.00</temp>
<bpm>0</bpm>
<rpm>0.00</rpm>
</extensions>
</trkpt>
<trkpt lat="31.040967941" lon="34.720302582">
<ele>268.718750</ele>
<time>2013-11-19T13:31:49Z</time>
<speed>2.770000</speed>
<extensions>
<speed>2.8</speed>
<temp>0.00</temp>
<bpm>0</bpm>
<rpm>0.00</rpm>
</extensions>
</trkpt>
<trkpt lat="31.041040421" lon="34.720218658">
<ele>268.773438</ele>
<time>2013-11-19T13:31:54Z</time>
<speed>2.090000</speed>
<extensions>
<speed>2.1</speed>
<temp>0.00</temp>
<bpm>0</bpm>
<rpm>0.00</rpm>
</extensions>
</trkpt>
<trkpt lat="31.041048050" lon="34.720211029">
<ele>269.000000</ele>
<time>2013-11-19T13:31:59Z</time>
<speed>0.010000</speed>
<extensions>
<speed>0.0</speed>
<temp>0.00</temp>
<bpm>0</bpm>
<rpm>0.00</rpm>
</extensions>
</trkpt>
<trkpt lat="31.041048050" lon="34.720211029">
<ele>268.820313</ele>
<time>2013-11-19T13:32:04Z</time>
<speed>0.470000</speed>
<extensions>
<speed>0.5</speed>
<temp>0.00</temp>
<bpm>0</bpm>
<rpm>0.00</rpm>
</extensions>
</trkpt>
<trkpt lat="31.041116714" lon="34.720252991">
<ele>270.968750</ele>
<time>2013-11-19T13:32:09Z</time>
<speed>2.310000</speed>
<extensions>
<speed>2.3</speed>
<temp>0.00</temp>
<bpm>0</bpm>
<rpm>0.00</rpm>
</extensions>
</trkpt>
<trkpt lat="31.041208267" lon="34.720306396">
<ele>271.859375</ele>
<time>2013-11-19T13:32:14Z</time>
<speed>1.890000</speed>
<extensions>
<speed>1.9</speed>
<temp>0.00</temp>
<bpm>0</bpm>
<rpm>0.00</rpm>
</extensions>
</trkpt>
<trkpt lat="31.041252136" lon="34.720344543">
<ele>273.398438</ele>
<time>2013-11-19T13:32:19Z</time>
<extensions>
<speed>0.0</speed>
<temp>0.00</temp>
<bpm>0</bpm>
<rpm>0.00</rpm>
</extensions>
</trkpt>
<trkpt lat="31.041254044" lon="34.720344543">
<ele>274.109375</ele>
<time>2013-11-19T13:32:24Z</time>
<speed>0.070000</speed>
<extensions>
<speed>0.1</speed>
<temp>0.00</temp>
<bpm>0</bpm>
<rpm>0.00</rpm>
</extensions>
</trkpt>
<trkpt lat="31.041276932" lon="34.720359802">
<ele>274.976563</ele>
<time>2013-11-19T13:32:29Z</time>
<speed>0.800000</speed>
<extensions>
<speed>0.8</speed>
<temp>0.00</temp>
<bpm>0</bpm>
<rpm>0.00</rpm>
</extensions>
</trkpt>
<trkpt lat="31.041313171" lon="34.720352173">
<ele>275.265625</ele>
<time>2013-11-19T13:32:34Z</time>
<speed>0.860000</speed>
<extensions>
<speed>0.9</speed>
<temp>0.00</temp>
<bpm>0</bpm>
<rpm>0.00</rpm>
</extensions>
</trkpt>
<trkpt lat="31.041322708" lon="34.720359802">
<ele>275.070313</ele>
<time>2013-11-19T13:32:39Z</time>
<speed>0.090000</speed>
<extensions>
<speed>0.1</speed>
<temp>0.00</temp>
<bpm>0</bpm>
<rpm>0.00</rpm>
</extensions>
</trkpt>
<trkpt lat="31.041322708" lon="34.720363617">
<ele>275.250000</ele>
<time>2013-11-19T13:32:44Z</time>
<speed>0.070000</speed>
<extensions>
<speed>0.1</speed>
<temp>0.00</temp>
<bpm>0</bpm>
<rpm>0.00</rpm>
</extensions>
</trkpt>
<trkpt lat="31.041322708" lon="34.720363617">
<ele>275.500000</ele>
<time>2013-11-19T13:32:49Z</time>
<speed>0.010000</speed>
<extensions>
<speed>0.0</speed>
<temp>0.00</temp>
<bpm>0</bpm>
<rpm>0.00</rpm>
</extensions>
</trkpt>
<trkpt lat="31.041320801" lon="34.720367432">
<ele>275.671875</ele>
<time>2013-11-19T13:32:54Z</time>
<speed>0.010000</speed>
<extensions>
<speed>0.0</speed>
<temp>0.00</temp>
<bpm>0</bpm>
<rpm>0.00</rpm>
</extensions>
</trkpt>
<trkpt lat="31.041326523" lon="34.720371246">
<ele>276.171875</ele>
<time>2013-11-19T13:32:59Z</time>
<speed>0.010000</speed>
<extensions>
<speed>0.0</speed>
<temp>0.00</temp>
<bpm>0</bpm>
<rpm>0.00</rpm>
</extensions>
</trkpt>
<trkpt lat="31.041328430" lon="34.720375061">
<ele>276.453125</ele>
<time>2013-11-19T13:33:04Z</time>
<speed>0.020000</speed>
<extensions>
<speed>0.0</speed>
<temp>0.00</temp>
<bpm>0</bpm>
<rpm>0.00</rpm>
</extensions>
</trkpt>
<trkpt lat="31.041328430" lon="34.720375061">
<ele>276.468750</ele>
<time>2013-11-19T13:33:09Z</time>
<speed>0.150000</speed>
<extensions>
<speed>0.2</speed>
<temp>0.00</temp>
<bpm>0</bpm>
<rpm>0.00</rpm>
</extensions>
</trkpt>
<trkpt lat="31.041324615" lon="34.720390320">
<ele>276.718750</ele>
<time>2013-11-19T13:33:14Z</time>
<speed>0.310000</speed>
<extensions>
<speed>0.3</speed>
<temp>0.00</temp>
<bpm>0</bpm>
<rpm>0.00</rpm>
</extensions>
</trkpt>
<trkpt lat="31.041324615" lon="34.720390320">
<ele>277.007813</ele>
<time>2013-11-19T13:33:19Z</time>
<speed>0.030000</speed>
<extensions>
<speed>0.0</speed>
<temp>0.00</temp>
<bpm>0</bpm>
<rpm>0.00</rpm>
</extensions>
</trkpt>
<trkpt lat="31.041324615" lon="34.720386505">
<ele>276.968750</ele>
<time>2013-11-19T13:33:24Z</time>
<speed>0.120000</speed>
<extensions>
<speed>0.1</speed>
<temp>0.00</temp>
<bpm>0</bpm>
<rpm>0.00</rpm>
</extensions>
</trkpt>
<trkpt lat="31.041330338" lon="34.720375061">
<ele>276.945313</ele>
<time>2013-11-19T13:33:29Z</time>
<speed>0.220000</speed>
<extensions>
<speed>0.2</speed>
<temp>0.00</temp>
<bpm>0</bpm>
<rpm>0.00</rpm>
</extensions>
</trkpt>
<trkpt lat="31.041336060" lon="34.720367432">
<ele>276.945313</ele>
<time>2013-11-19T13:33:34Z</time>
<speed>0.230000</speed>
<extensions>
<speed>0.2</speed>
<temp>0.00</temp>
<bpm>0</bpm>
<rpm>0.00</rpm>
</extensions>
</trkpt>
<trkpt lat="31.041341782" lon="34.720359802">
<ele>276.937500</ele>
<time>2013-11-19T13:33:39Z</time>
<speed>0.110000</speed>
<extensions>
<speed>0.1</speed>
<temp>0.00</temp>
<bpm>0</bpm>
<rpm>0.00</rpm>
</extensions>
</trkpt>
<trkpt lat="31.041345596" lon="34.720352173">
<ele>276.953125</ele>
<time>2013-11-19T13:33:44Z</time>
<speed>0.170000</speed>
<extensions>
<speed>0.2</speed>
<temp>0.00</temp>
<bpm>0</bpm>
<rpm>0.00</rpm>
</extensions>
</trkpt>
<trkpt lat="31.041349411" lon="34.720344543">
<ele>276.921875</ele>
<time>2013-11-19T13:33:49Z</time>
<speed>0.140000</speed>
<extensions>
<speed>0.1</speed>
<temp>0.00</temp>
<bpm>0</bpm>
<rpm>0.00</rpm>
</extensions>
</trkpt>
<trkpt lat="31.041353226" lon="34.720340729">
<ele>276.890625</ele>
<time>2013-11-19T13:33:54Z</time>
<speed>0.120000</speed>
<extensions>
<speed>0.1</speed>
<temp>0.00</temp>
<bpm>0</bpm>
<rpm>0.00</rpm>
</extensions>
</trkpt>
<trkpt lat="31.041353226" lon="34.720340729">
<ele>276.890625</ele>
<time>2013-11-19T13:33:59Z</time>
<speed>0.040000</speed>
<extensions>
<speed>0.0</speed>
<temp>0.00</temp>
<bpm>0</bpm>
<rpm>0.00</rpm>
</extensions>
</trkpt>
<trkpt lat="31.041353226" lon="34.720340729">
<ele>276.929688</ele>
<time>2013-11-19T13:34:04Z</time>
<speed>0.020000</speed>
<extensions>
<speed>0.0</speed>
<temp>0.00</temp>
<bpm>0</bpm>
<rpm>0.00</rpm>
</extensions>
</trkpt>
<trkpt lat="31.041353226" lon="34.720344543">
<ele>276.929688</ele>
<time>2013-11-19T13:34:09Z</time>
<speed>0.030000</speed>
<extensions>
<speed>0.0</speed>
<temp>0.00</temp>
<bpm>0</bpm>
<rpm>0.00</rpm>
</extensions>
</trkpt>
<trkpt lat="31.041353226" lon="34.720344543">
<ele>276.945313</ele>
<time>2013-11-19T13:34:14Z</time>
<speed>0.020000</speed>
<extensions>
<speed>0.0</speed>
<temp>0.00</temp>
<bpm>0</bpm>
<rpm>0.00</rpm>
</extensions>
</trkpt>
<trkpt lat="31.041353226" lon="34.720344543">
<ele>276.960938</ele>
<time>2013-11-19T13:34:19Z</time>
<speed>0.010000</speed>
<extensions>
<speed>0.0</speed>
<temp>0.00</temp>
<bpm>0</bpm>
<rpm>0.00</rpm>
</extensions>
</trkpt>
<trkpt lat="31.041353226" lon="34.720344543">
<ele>276.968750</ele>
<time>2013-11-19T13:34:24Z</time>
<extensions>
<speed>0.0</speed>
<temp>0.00</temp>
<bpm>0</bpm>
<rpm>0.00</rpm>
</extensions>
</trkpt>
<trkpt lat="31.041353226" lon="34.720344543">
<ele>276.992188</ele>
<time>2013-11-19T13:34:29Z</time>
<speed>0.010000</speed>
<extensions>
<speed>0.0</speed>
<temp>0.00</temp>
<bpm>0</bpm>
<rpm>0.00</rpm>
</extensions>
</trkpt>
<trkpt lat="31.041353226" lon="34.720344543">
<ele>277.015625</ele>
<time>2013-11-19T13:34:34Z</time>
<speed>0.010000</speed>
<extensions>
<speed>0.0</speed>
<temp>0.00</temp>
<bpm>0</bpm>
<rpm>0.00</rpm>
</extensions>
</trkpt>
<trkpt lat="31.041353226" lon="34.720344543">
<ele>277.000000</ele>
<time>2013-11-19T13:34:39Z</time>
<extensions>
<speed>0.0</speed>
<temp>0.00</temp>
<bpm>0</bpm>
<rpm>0.00</rpm>
</extensions>
</trkpt>
<trkpt lat="31.041353226" lon="34.720348358">
<ele>277.000000</ele>
<time>2013-11-19T13:34:44Z</time>
<extensions>
<speed>0.0</speed>
<temp>0.00</temp>
<bpm>0</bpm>
<rpm>0.00</rpm>
</extensions>
</trkpt>
<trkpt lat="31.041353226" lon="34.720348358">
<ele>276.984375</ele>
<time>2013-11-19T13:34:49Z</time>
<extensions>
<speed>0.0</speed>
<temp>0.00</temp>
<bpm>0</bpm>
<rpm>0.00</rpm>
</extensions>
</trkpt>
<trkpt lat="31.041353226" lon="34.720348358">
<ele>276.968750</ele>
<time>2013-11-19T13:34:54Z</time>
<extensions>
<speed>0.0</speed>
<temp>0.00</temp>
<bpm>0</bpm>
<rpm>0.00</rpm>
</extensions>
</trkpt>
<trkpt lat="31.041353226" lon="34.720348358">
<ele>276.953125</ele>
<time>2013-11-19T13:34:59Z</time>
<extensions>
<speed>0.0</speed>
<temp>0.00</temp>
<bpm>0</bpm>
<rpm>0.00</rpm>
</extensions>
</trkpt>
<trkpt lat="31.041353226" lon="34.720348358">
<ele>276.937500</ele>
<time>2013-11-19T13:35:04Z</time>
<extensions>
<speed>0.0</speed>
<temp>0.00</temp>
<bpm>0</bpm>
<rpm>0.00</rpm>
</extensions>
</trkpt>
<trkpt lat="31.041353226" lon="34.720348358">
<ele>276.937500</ele>
<time>2013-11-19T13:35:09Z</time>
<extensions>
<speed>0.0</speed>
<temp>0.00</temp>
<bpm>0</bpm>
<rpm>0.00</rpm>
</extensions>
</trkpt>
<trkpt lat="31.041353226" lon="34.720348358">
<ele>276.945313</ele>
<time>2013-11-19T13:35:14Z</time>
<speed>0.010000</speed>
<extensions>
<speed>0.0</speed>
<temp>0.00</temp>
<bpm>0</bpm>
<rpm>0.00</rpm>
</extensions>
</trkpt>
<trkpt lat="31.041353226" lon="34.720348358">
<ele>276.960938</ele>
<time>2013-11-19T13:35:19Z</time>
<extensions>
<speed>0.0</speed>
<temp>0.00</temp>
<bpm>0</bpm>
<rpm>0.00</rpm>
</extensions>
</trkpt>
<trkpt lat="31.041353226" lon="34.720348358">
<ele>276.984375</ele>
<time>2013-11-19T13:35:24Z</time>
<extensions>
<speed>0.0</speed>
<temp>0.00</temp>
<bpm>0</bpm>
<rpm>0.00</rpm>
</extensions>
</trkpt>
<trkpt lat="31.041353226" lon="34.720348358">
<ele>277.000000</ele>
<time>2013-11-19T13:35:29Z</time>
<speed>0.010000</speed>
<extensions>
<speed>0.0</speed>
<temp>0.00</temp>
<bpm>0</bpm>
<rpm>0.00</rpm>
</extensions>
</trkpt>
<trkpt lat="31.041353226" lon="34.720348358">
<ele>277.000000</ele>
<time>2013-11-19T13:35:34Z</time>
<extensions>
<speed>0.0</speed>
<temp>0.00</temp>
<bpm>0</bpm>
<rpm>0.00</rpm>
</extensions>
</trkpt>
<trkpt lat="31.041353226" lon="34.720348358">
<ele>277.007813</ele>
<time>2013-11-19T13:35:39Z</time>
<speed>0.010000</speed>
<extensions>
<speed>0.0</speed>
<temp>0.00</temp>
<bpm>0</bpm>
<rpm>0.00</rpm>
</extensions>
</trkpt>
<trkpt lat="31.041353226" lon="34.720348358">
<ele>277.015625</ele>
<time>2013-11-19T13:35:44Z</time>
<speed>0.010000</speed>
<extensions>
<speed>0.0</speed>
<temp>0.00</temp>
<bpm>0</bpm>
<rpm>0.00</rpm>
</extensions>
</trkpt>
<trkpt lat="31.041353226" lon="34.720348358">
<ele>277.023438</ele>
<time>2013-11-19T13:35:49Z</time>
<speed>0.020000</speed>
<extensions>
<speed>0.0</speed>
<temp>0.00</temp>
<bpm>0</bpm>
<rpm>0.00</rpm>
</extensions>
</trkpt>
<trkpt lat="31.041353226" lon="34.720348358">
<ele>277.031250</ele>
<time>2013-11-19T13:35:54Z</time>
<speed>0.010000</speed>
<extensions>
<speed>0.0</speed>
<temp>0.00</temp>
<bpm>0</bpm>
<rpm>0.00</rpm>
</extensions>
</trkpt>
<trkpt lat="31.041353226" lon="34.720348358">
<ele>277.046875</ele>
<time>2013-11-19T13:35:59Z</time>
<speed>0.010000</speed>
<extensions>
<speed>0.0</speed>
<temp>0.00</temp>
<bpm>0</bpm>
<rpm>0.00</rpm>
</extensions>
</trkpt>
<trkpt lat="31.041353226" lon="34.720348358">
<ele>277.039063</ele>
<time>2013-11-19T13:36:04Z</time>
<extensions>
<speed>0.0</speed>
<temp>0.00</temp>
<bpm>0</bpm>
<rpm>0.00</rpm>
</extensions>
</trkpt>
<trkpt lat="31.041353226" lon="34.720348358">
<ele>277.054688</ele>
<time>2013-11-19T13:36:09Z</time>
<extensions>
<speed>0.0</speed>
<temp>0.00</temp>
<bpm>0</bpm>
<rpm>0.00</rpm>
</extensions>
</trkpt>
<trkpt lat="31.041353226" lon="34.720348358">
<ele>277.085938</ele>
<time>2013-11-19T13:36:14Z</time>
<speed>0.030000</speed>
<extensions>
<speed>0.0</speed>
<temp>0.00</temp>
<bpm>0</bpm>
<rpm>0.00</rpm>
</extensions>
</trkpt>
<trkpt lat="31.041353226" lon="34.720348358">
<ele>277.125000</ele>
<time>2013-11-19T13:36:19Z</time>
<extensions>
<speed>0.0</speed>
<temp>0.00</temp>
<bpm>0</bpm>
<rpm>0.00</rpm>
</extensions>
</trkpt>
<trkpt lat="31.041353226" lon="34.720348358">
<ele>277.125000</ele>
<time>2013-11-19T13:36:24Z</time>
<speed>0.010000</speed>
<extensions>
<speed>0.0</speed>
<temp>0.00</temp>
<bpm>0</bpm>
<rpm>0.00</rpm>
</extensions>
</trkpt>
<trkpt lat="31.041353226" lon="34.720348358">
<ele>277.179688</ele>
<time>2013-11-19T13:36:29Z</time>
<speed>0.010000</speed>
<extensions>
<speed>0.0</speed>
<temp>0.00</temp>
<bpm>0</bpm>
<rpm>0.00</rpm>
</extensions>
</trkpt>
<trkpt lat="31.041353226" lon="34.720348358">
<ele>277.250000</ele>
<time>2013-11-19T13:36:34Z</time>
<speed>0.030000</speed>
<extensions>
<speed>0.0</speed>
<temp>0.00</temp>
<bpm>0</bpm>
<rpm>0.00</rpm>
</extensions>
</trkpt>
<trkpt lat="31.041353226" lon="34.720344543">
<ele>277.320313</ele>
<time>2013-11-19T13:36:39Z</time>
<speed>0.030000</speed>
<extensions>
<speed>0.0</speed>
<temp>0.00</temp>
<bpm>0</bpm>
<rpm>0.00</rpm>
</extensions>
</trkpt>
<trkpt lat="31.041351318" lon="34.720348358">
<ele>277.273438</ele>
<time>2013-11-19T13:36:44Z</time>
<speed>0.020000</speed>
<extensions>
<speed>0.0</speed>
<temp>0.00</temp>
<bpm>0</bpm>
<rpm>0.00</rpm>
</extensions>
</trkpt>
<trkpt lat="31.041347504" lon="34.720352173">
<ele>277.304688</ele>
<time>2013-11-19T13:36:49Z</time>
<speed>0.200000</speed>
<extensions>
<speed>0.2</speed>
<temp>0.00</temp>
<bpm>0</bpm>
<rpm>0.00</rpm>
</extensions>
</trkpt>
<trkpt lat="31.041341782" lon="34.720355988">
<ele>277.312500</ele>
<time>2013-11-19T13:36:54Z</time>
<speed>0.100000</speed>
<extensions>
<speed>0.1</speed>
<temp>0.00</temp>
<bpm>0</bpm>
<rpm>0.00</rpm>
</extensions>
</trkpt>
<trkpt lat="31.041337967" lon="34.720325470">
<ele>277.203125</ele>
<time>2013-11-19T13:36:59Z</time>
<speed>0.100000</speed>
<extensions>
<speed>0.1</speed>
<temp>0.00</temp>
<bpm>0</bpm>
<rpm>0.00</rpm>
</extensions>
</trkpt>
<trkpt lat="31.041334152" lon="34.720310211">
<ele>277.343750</ele>
<time>2013-11-19T13:37:04Z</time>
<speed>0.220000</speed>
<extensions>
<speed>0.2</speed>
<temp>0.00</temp>
<bpm>0</bpm>
<rpm>0.00</rpm>
</extensions>
</trkpt>
<trkpt lat="31.041309357" lon="34.720279694">
<ele>278.632813</ele>
<time>2013-11-19T13:37:09Z</time>
<speed>0.160000</speed>
<extensions>
<speed>0.2</speed>
<temp>0.00</temp>
<bpm>0</bpm>
<rpm>0.00</rpm>
</extensions>
</trkpt>
<trkpt lat="31.041313171" lon="34.720279694">
<ele>278.640625</ele>
<time>2013-11-19T13:37:14Z</time>
<speed>0.060000</speed>
<extensions>
<speed>0.1</speed>
<temp>0.00</temp>
<bpm>0</bpm>
<rpm>0.00</rpm>
</extensions>
</trkpt>
<trkpt lat="31.041313171" lon="34.720275879">
<ele>278.656250</ele>
<time>2013-11-19T13:37:19Z</time>
<speed>0.240000</speed>
<extensions>
<speed>0.2</speed>
<temp>0.00</temp>
<bpm>0</bpm>
<rpm>0.00</rpm>
</extensions>
</trkpt>
<trkpt lat="31.041313171" lon="34.720268250">
<ele>278.734375</ele>
<time>2013-11-19T13:37:24Z</time>
<speed>0.170000</speed>
<extensions>
<speed>0.2</speed>
<temp>0.00</temp>
<bpm>0</bpm>
<rpm>0.00</rpm>
</extensions>
</trkpt>
<trkpt lat="31.041315079" lon="34.720260620">
<ele>278.757813</ele>
<time>2013-11-19T13:37:29Z</time>
<speed>0.120000</speed>
<extensions>
<speed>0.1</speed>
<temp>0.00</temp>
<bpm>0</bpm>
<rpm>0.00</rpm>
</extensions>
</trkpt>
<trkpt lat="31.041316986" lon="34.720256805">
<ele>278.804688</ele>
<time>2013-11-19T13:37:34Z</time>
<speed>0.070000</speed>
<extensions>
<speed>0.1</speed>
<temp>0.00</temp>
<bpm>0</bpm>
<rpm>0.00</rpm>
</extensions>
</trkpt>
<trkpt lat="31.041320801" lon="34.720252991">
<ele>278.804688</ele>
<time>2013-11-19T13:37:39Z</time>
<speed>0.110000</speed>
<extensions>
<speed>0.1</speed>
<temp>0.00</temp>
<bpm>0</bpm>
<rpm>0.00</rpm>
</extensions>
</trkpt>
<trkpt lat="31.041320801" lon="34.720249176">
<ele>278.828125</ele>
<time>2013-11-19T13:37:44Z</time>
<speed>0.080000</speed>
<extensions>
<speed>0.1</speed>
<temp>0.00</temp>
<bpm>0</bpm>
<rpm>0.00</rpm>
</extensions>
</trkpt>
<trkpt lat="31.041320801" lon="34.720245361">
<ele>278.859375</ele>
<time>2013-11-19T13:37:49Z</time>
<speed>0.070000</speed>
<extensions>
<speed>0.1</speed>
<temp>0.00</temp>
<bpm>0</bpm>
<rpm>0.00</rpm>
</extensions>
</trkpt>
<trkpt lat="31.041320801" lon="34.720245361">
<ele>278.906250</ele>
<time>2013-11-19T13:37:54Z</time>
<speed>0.080000</speed>
<extensions>
<speed>0.1</speed>
<temp>0.00</temp>
<bpm>0</bpm>
<rpm>0.00</rpm>
</extensions>
</trkpt>
<trkpt lat="31.041318893" lon="34.720249176">
<ele>278.984375</ele>
<time>2013-11-19T13:37:59Z</time>
<speed>0.020000</speed>
<extensions>
<speed>0.0</speed>
<temp>0.00</temp>
<bpm>0</bpm>
<rpm>0.00</rpm>
</extensions>
</trkpt>
<trkpt lat="31.041318893" lon="34.720249176">
<ele>279.054688</ele>
<time>2013-11-19T13:38:04Z</time>
<speed>0.020000</speed>
<extensions>
<speed>0.0</speed>
<temp>0.00</temp>
<bpm>0</bpm>
<rpm>0.00</rpm>
</extensions>
</trkpt>
<trkpt lat="31.041318893" lon="34.720249176">
<ele>279.101563</ele>
<time>2013-11-19T13:38:09Z</time>
<speed>0.010000</speed>
<extensions>
<speed>0.0</speed>
<temp>0.00</temp>
<bpm>0</bpm>
<rpm>0.00</rpm>
</extensions>
</trkpt>
<trkpt lat="31.041318893" lon="34.720249176">
<ele>279.140625</ele>
<time>2013-11-19T13:38:14Z</time>
<extensions>
<speed>0.0</speed>
<temp>0.00</temp>
<bpm>0</bpm>
<rpm>0.00</rpm>
</extensions>
</trkpt>
<trkpt lat="31.041318893" lon="34.720249176">
<ele>279.179688</ele>
<time>2013-11-19T13:38:19Z</time>
<speed>0.020000</speed>
<extensions>
<speed>0.0</speed>
<temp>0.00</temp>
<bpm>0</bpm>
<rpm>0.00</rpm>
</extensions>
</trkpt>
<trkpt lat="31.041316986" lon="34.720249176">
<ele>279.210938</ele>
<time>2013-11-19T13:38:24Z</time>
<extensions>
<speed>0.0</speed>
<temp>0.00</temp>
<bpm>0</bpm>
<rpm>0.00</rpm>
</extensions>
</trkpt>
<trkpt lat="31.041316986" lon="34.720249176">
<ele>279.242188</ele>
<time>2013-11-19T13:38:29Z</time>
<extensions>
<speed>0.0</speed>
<temp>0.00</temp>
<bpm>0</bpm>
<rpm>0.00</rpm>
</extensions>
</trkpt>
<trkpt lat="31.041316986" lon="34.720249176">
<ele>279.273438</ele>
<time>2013-11-19T13:38:34Z</time>
<speed>0.010000</speed>
<extensions>
<speed>0.0</speed>
<temp>0.00</temp>
<bpm>0</bpm>
<rpm>0.00</rpm>
</extensions>
</trkpt>
<trkpt lat="31.041316986" lon="34.720249176">
<ele>279.312500</ele>
<time>2013-11-19T13:38:39Z</time>
<extensions>
<speed>0.0</speed>
<temp>0.00</temp>
<bpm>0</bpm>
<rpm>0.00</rpm>
</extensions>
</trkpt>
<trkpt lat="31.041316986" lon="34.720245361">
<ele>279.351563</ele>
<time>2013-11-19T13:38:44Z</time>
<speed>0.010000</speed>
<extensions>
<speed>0.0</speed>
<temp>0.00</temp>
<bpm>0</bpm>
<rpm>0.00</rpm>
</extensions>
</trkpt>
<trkpt lat="31.041316986" lon="34.720245361">
<ele>279.390625</ele>
<time>2013-11-19T13:38:49Z</time>
<speed>0.010000</speed>
<extensions>
<speed>0.0</speed>
<temp>0.00</temp>
<bpm>0</bpm>
<rpm>0.00</rpm>
</extensions>
</trkpt>
<trkpt lat="31.041315079" lon="34.720245361">
<ele>279.429688</ele>
<time>2013-11-19T13:38:54Z</time>
<extensions>
<speed>0.0</speed>
<temp>0.00</temp>
<bpm>0</bpm>
<rpm>0.00</rpm>
</extensions>
</trkpt>
<trkpt lat="31.041315079" lon="34.720245361">
<ele>279.468750</ele>
<time>2013-11-19T13:38:59Z</time>
<speed>0.010000</speed>
<extensions>
<speed>0.0</speed>
<temp>0.00</temp>
<bpm>0</bpm>
<rpm>0.00</rpm>
</extensions>
</trkpt>
<trkpt lat="31.041315079" lon="34.720245361">
<ele>279.492188</ele>
<time>2013-11-19T13:39:04Z</time>
<speed>0.010000</speed>
<extensions>
<speed>0.0</speed>
<temp>0.00</temp>
<bpm>0</bpm>
<rpm>0.00</rpm>
</extensions>
</trkpt>
<trkpt lat="31.041315079" lon="34.720245361">
<ele>279.531250</ele>
<time>2013-11-19T13:39:09Z</time>
<extensions>
<speed>0.0</speed>
<temp>0.00</temp>
<bpm>0</bpm>
<rpm>0.00</rpm>
</extensions>
</trkpt>
<trkpt lat="31.041315079" lon="34.720245361">
<ele>279.570313</ele>
<time>2013-11-19T13:39:14Z</time>
<speed>0.010000</speed>
<extensions>
<speed>0.0</speed>
<temp>0.00</temp>
<bpm>0</bpm>
<rpm>0.00</rpm>
</extensions>
</trkpt>
<trkpt lat="31.041315079" lon="34.720245361">
<ele>279.609375</ele>
<time>2013-11-19T13:39:19Z</time>
<speed>0.010000</speed>
<extensions>
<speed>0.0</speed>
<temp>0.00</temp>
<bpm>0</bpm>
<rpm>0.00</rpm>
</extensions>
</trkpt>
<trkpt lat="31.041313171" lon="34.720245361">
<ele>279.664063</ele>
<time>2013-11-19T13:39:24Z</time>
<speed>0.010000</speed>
<extensions>
<speed>0.0</speed>
<temp>0.00</temp>
<bpm>0</bpm>
<rpm>0.00</rpm>
</extensions>
</trkpt>
<trkpt lat="31.041313171" lon="34.720245361">
<ele>279.710938</ele>
<time>2013-11-19T13:39:29Z</time>
<speed>0.010000</speed>
<extensions>
<speed>0.0</speed>
<temp>0.00</temp>
<bpm>0</bpm>
<rpm>0.00</rpm>
</extensions>
</trkpt>
<trkpt lat="31.041313171" lon="34.720241547">
<ele>279.742188</ele>
<time>2013-11-19T13:39:34Z</time>
<extensions>
<speed>0.0</speed>
<temp>0.00</temp>
<bpm>0</bpm>
<rpm>0.00</rpm>
</extensions>
</trkpt>
<trkpt lat="31.041313171" lon="34.720241547">
<ele>279.789063</ele>
<time>2013-11-19T13:39:39Z</time>
<extensions>
<speed>0.0</speed>
<temp>0.00</temp>
<bpm>0</bpm>
<rpm>0.00</rpm>
</extensions>
</trkpt>
<trkpt lat="31.041313171" lon="34.720241547">
<ele>279.804688</ele>
<time>2013-11-19T13:39:44Z</time>
<speed>0.010000</speed>
<extensions>
<speed>0.0</speed>
<temp>0.00</temp>
<bpm>0</bpm>
<rpm>0.00</rpm>
</extensions>
</trkpt>
<trkpt lat="31.041313171" lon="34.720241547">
<ele>279.820313</ele>
<time>2013-11-19T13:39:49Z</time>
<extensions>
<speed>0.0</speed>
<temp>0.00</temp>
<bpm>0</bpm>
<rpm>0.00</rpm>
</extensions>
</trkpt>
<trkpt lat="31.041311264" lon="34.720241547">
<ele>279.851563</ele>
<time>2013-11-19T13:39:54Z</time>
<speed>0.020000</speed>
<extensions>
<speed>0.0</speed>
<temp>0.00</temp>
<bpm>0</bpm>
<rpm>0.00</rpm>
</extensions>
</trkpt>
<trkpt lat="31.041311264" lon="34.720241547">
<ele>279.867188</ele>
<time>2013-11-19T13:39:59Z</time>
<extensions>
<speed>0.0</speed>
<temp>0.00</temp>
<bpm>0</bpm>
<rpm>0.00</rpm>
</extensions>
</trkpt>
<trkpt lat="31.041311264" lon="34.720241547">
<ele>279.859375</ele>
<time>2013-11-19T13:40:04Z</time>
<speed>0.010000</speed>
<extensions>
<speed>0.0</speed>
<temp>0.00</temp>
<bpm>0</bpm>
<rpm>0.00</rpm>
</extensions>
</trkpt>
<trkpt lat="31.041311264" lon="34.720241547">
<ele>279.835938</ele>
<time>2013-11-19T13:40:09Z</time>
<speed>0.010000</speed>
<extensions>
<speed>0.0</speed>
<temp>0.00</temp>
<bpm>0</bpm>
<rpm>0.00</rpm>
</extensions>
</trkpt>
<trkpt lat="31.041311264" lon="34.720241547">
<ele>279.851563</ele>
<time>2013-11-19T13:40:14Z</time>
<extensions>
<speed>0.0</speed>
<temp>0.00</temp>
<bpm>0</bpm>
<rpm>0.00</rpm>
</extensions>
</trkpt>
<trkpt lat="31.041311264" lon="34.720241547">
<ele>279.812500</ele>
<time>2013-11-19T13:40:19Z</time>
<extensions>
<speed>0.0</speed>
<temp>0.00</temp>
<bpm>0</bpm>
<rpm>0.00</rpm>
</extensions>
</trkpt>
<trkpt lat="31.041311264" lon="34.720237732">
<ele>279.789063</ele>
<time>2013-11-19T13:40:24Z</time>
<extensions>
<speed>0.0</speed>
<temp>0.00</temp>
<bpm>0</bpm>
<rpm>0.00</rpm>
</extensions>
</trkpt>
<trkpt lat="31.041311264" lon="34.720237732">
<ele>279.750000</ele>
<time>2013-11-19T13:40:29Z</time>
<extensions>
<speed>0.0</speed>
<temp>0.00</temp>
<bpm>0</bpm>
<rpm>0.00</rpm>
</extensions>
</trkpt>
<trkpt lat="31.041311264" lon="34.720237732">
<ele>279.765625</ele>
<time>2013-11-19T13:40:34Z</time>
<speed>0.010000</speed>
<extensions>
<speed>0.0</speed>
<temp>0.00</temp>
<bpm>0</bpm>
<rpm>0.00</rpm>
</extensions>
</trkpt>
<trkpt lat="31.041311264" lon="34.720237732">
<ele>279.750000</ele>
<time>2013-11-19T13:40:39Z</time>
<speed>0.010000</speed>
<extensions>
<speed>0.0</speed>
<temp>0.00</temp>
<bpm>0</bpm>
<rpm>0.00</rpm>
</extensions>
</trkpt>
<trkpt lat="31.041311264" lon="34.720237732">
<ele>279.750000</ele>
<time>2013-11-19T13:40:44Z</time>
<extensions>
<speed>0.0</speed>
<temp>0.00</temp>
<bpm>0</bpm>
<rpm>0.00</rpm>
</extensions>
</trkpt>
<trkpt lat="31.041311264" lon="34.720237732">
<ele>279.757813</ele>
<time>2013-11-19T13:40:49Z</time>
<speed>0.020000</speed>
<extensions>
<speed>0.0</speed>
<temp>0.00</temp>
<bpm>0</bpm>
<rpm>0.00</rpm>
</extensions>
</trkpt>
<trkpt lat="31.041311264" lon="34.720237732">
<ele>279.765625</ele>
<time>2013-11-19T13:40:54Z</time>
<extensions>
<speed>0.0</speed>
<temp>0.00</temp>
<bpm>0</bpm>
<rpm>0.00</rpm>
</extensions>
</trkpt>
<trkpt lat="31.041311264" lon="34.720237732">
<ele>279.773438</ele>
<time>2013-11-19T13:40:59Z</time>
<speed>0.010000</speed>
<extensions>
<speed>0.0</speed>
<temp>0.00</temp>
<bpm>0</bpm>
<rpm>0.00</rpm>
</extensions>
</trkpt>
<trkpt lat="31.041311264" lon="34.720237732">
<ele>279.773438</ele>
<time>2013-11-19T13:41:04Z</time>
<extensions>
<speed>0.0</speed>
<temp>0.00</temp>
<bpm>0</bpm>
<rpm>0.00</rpm>
</extensions>
</trkpt>
<trkpt lat="31.041311264" lon="34.720237732">
<ele>279.851563</ele>
<time>2013-11-19T13:41:09Z</time>
<extensions>
<speed>0.0</speed>
<temp>0.00</temp>
<bpm>0</bpm>
<rpm>0.00</rpm>
</extensions>
</trkpt>
<trkpt lat="31.041311264" lon="34.720237732">
<ele>279.867188</ele>
<time>2013-11-19T13:41:14Z</time>
<speed>0.010000</speed>
<extensions>
<speed>0.0</speed>
<temp>0.00</temp>
<bpm>0</bpm>
<rpm>0.00</rpm>
</extensions>
</trkpt>
<trkpt lat="31.041311264" lon="34.720237732">
<ele>279.867188</ele>
<time>2013-11-19T13:41:19Z</time>
<extensions>
<speed>0.0</speed>
<temp>0.00</temp>
<bpm>0</bpm>
<rpm>0.00</rpm>
</extensions>
</trkpt>
<trkpt lat="31.041309357" lon="34.720237732">
<ele>279.921875</ele>
<time>2013-11-19T13:41:24Z</time>
<extensions>
<speed>0.0</speed>
<temp>0.00</temp>
<bpm>0</bpm>
<rpm>0.00</rpm>
</extensions>
</trkpt>
<trkpt lat="31.041309357" lon="34.720237732">
<ele>279.945313</ele>
<time>2013-11-19T13:41:29Z</time>
<extensions>
<speed>0.0</speed>
<temp>0.00</temp>
<bpm>0</bpm>
<rpm>0.00</rpm>
</extensions>
</trkpt>
<trkpt lat="31.041309357" lon="34.720237732">
<ele>279.960938</ele>
<time>2013-11-19T13:41:34Z</time>
<speed>0.010000</speed>
<extensions>
<speed>0.0</speed>
<temp>0.00</temp>
<bpm>0</bpm>
<rpm>0.00</rpm>
</extensions>
</trkpt>
<trkpt lat="31.041309357" lon="34.720237732">
<ele>280.031250</ele>
<time>2013-11-19T13:41:39Z</time>
<speed>0.010000</speed>
<extensions>
<speed>0.0</speed>
<temp>0.00</temp>
<bpm>0</bpm>
<rpm>0.00</rpm>
</extensions>
</trkpt>
<trkpt lat="31.041307449" lon="34.720237732">
<ele>280.101563</ele>
<time>2013-11-19T13:41:44Z</time>
<speed>0.010000</speed>
<extensions>
<speed>0.0</speed>
<temp>0.00</temp>
<bpm>0</bpm>
<rpm>0.00</rpm>
</extensions>
</trkpt>
<trkpt lat="31.041307449" lon="34.720237732">
<ele>280.140625</ele>
<time>2013-11-19T13:41:49Z</time>
<speed>0.010000</speed>
<extensions>
<speed>0.0</speed>
<temp>0.00</temp>
<bpm>0</bpm>
<rpm>0.00</rpm>
</extensions>
</trkpt>
<trkpt lat="31.041307449" lon="34.720237732">
<ele>280.171875</ele>
<time>2013-11-19T13:41:54Z</time>
<extensions>
<speed>0.0</speed>
<temp>0.00</temp>
<bpm>0</bpm>
<rpm>0.00</rpm>
</extensions>
</trkpt>
<trkpt lat="31.041305542" lon="34.720237732">
<ele>280.195313</ele>
<time>2013-11-19T13:41:59Z</time>
<speed>0.010000</speed>
<extensions>
<speed>0.0</speed>
<temp>0.00</temp>
<bpm>0</bpm>
<rpm>0.00</rpm>
</extensions>
</trkpt>
<trkpt lat="31.041305542" lon="34.720237732">
<ele>280.226563</ele>
<time>2013-11-19T13:42:04Z</time>
<speed>0.010000</speed>
<extensions>
<speed>0.0</speed>
<temp>0.00</temp>
<bpm>0</bpm>
<rpm>0.00</rpm>
</extensions>
</trkpt>
<trkpt lat="31.041305542" lon="34.720237732">
<ele>280.265625</ele>
<time>2013-11-19T13:42:09Z</time>
<speed>0.020000</speed>
<extensions>
<speed>0.0</speed>
<temp>0.00</temp>
<bpm>0</bpm>
<rpm>0.00</rpm>
</extensions>
</trkpt>
<trkpt lat="31.041305542" lon="34.720237732">
<ele>280.296875</ele>
<time>2013-11-19T13:42:14Z</time>
<speed>0.010000</speed>
<extensions>
<speed>0.0</speed>
<temp>0.00</temp>
<bpm>0</bpm>
<rpm>0.00</rpm>
</extensions>
</trkpt>
<trkpt lat="31.041303635" lon="34.720237732">
<ele>280.351563</ele>
<time>2013-11-19T13:42:19Z</time>
<speed>0.030000</speed>
<extensions>
<speed>0.0</speed>
<temp>0.00</temp>
<bpm>0</bpm>
<rpm>0.00</rpm>
</extensions>
</trkpt>
<trkpt lat="31.041303635" lon="34.720237732">
<ele>280.390625</ele>
<time>2013-11-19T13:42:24Z</time>
<speed>0.010000</speed>
<extensions>
<speed>0.0</speed>
<temp>0.00</temp>
<bpm>0</bpm>
<rpm>0.00</rpm>
</extensions>
</trkpt>
<trkpt lat="31.041303635" lon="34.720237732">
<ele>280.429688</ele>
<time>2013-11-19T13:42:29Z</time>
<extensions>
<speed>0.0</speed>
<temp>0.00</temp>
<bpm>0</bpm>
<rpm>0.00</rpm>
</extensions>
</trkpt>
<trkpt lat="31.041303635" lon="34.720237732">
<ele>280.468750</ele>
<time>2013-11-19T13:42:34Z</time>
<speed>0.010000</speed>
<extensions>
<speed>0.0</speed>
<temp>0.00</temp>
<bpm>0</bpm>
<rpm>0.00</rpm>
</extensions>
</trkpt>
<trkpt lat="31.041301727" lon="34.720237732">
<ele>280.531250</ele>
<time>2013-11-19T13:42:39Z</time>
<speed>0.030000</speed>
<extensions>
<speed>0.0</speed>
<temp>0.00</temp>
<bpm>0</bpm>
<rpm>0.00</rpm>
</extensions>
</trkpt>
<trkpt lat="31.041301727" lon="34.720233917">
<ele>280.578125</ele>
<time>2013-11-19T13:42:44Z</time>
<speed>0.010000</speed>
<extensions>
<speed>0.0</speed>
<temp>0.00</temp>
<bpm>0</bpm>
<rpm>0.00</rpm>
</extensions>
</trkpt>
<trkpt lat="31.041301727" lon="34.720233917">
<ele>280.625000</ele>
<time>2013-11-19T13:42:49Z</time>
<speed>0.010000</speed>
<extensions>
<speed>0.0</speed>
<temp>0.00</temp>
<bpm>0</bpm>
<rpm>0.00</rpm>
</extensions>
</trkpt>
<trkpt lat="31.041301727" lon="34.720233917">
<ele>280.656250</ele>
<time>2013-11-19T13:42:54Z</time>
<extensions>
<speed>0.0</speed>
<temp>0.00</temp>
<bpm>0</bpm>
<rpm>0.00</rpm>
</extensions>
</trkpt>
<trkpt lat="31.041301727" lon="34.720233917">
<ele>280.710938</ele>
<time>2013-11-19T13:42:59Z</time>
<speed>0.010000</speed>
<extensions>
<speed>0.0</speed>
<temp>0.00</temp>
<bpm>0</bpm>
<rpm>0.00</rpm>
</extensions>
</trkpt>
<trkpt lat="31.041301727" lon="34.720233917">
<ele>280.703125</ele>
<time>2013-11-19T13:43:04Z</time>
<speed>0.040000</speed>
<extensions>
<speed>0.0</speed>
<temp>0.00</temp>
<bpm>0</bpm>
<rpm>0.00</rpm>
</extensions>
</trkpt>
<trkpt lat="31.041301727" lon="34.720233917">
<ele>280.718750</ele>
<time>2013-11-19T13:43:09Z</time>
<speed>0.010000</speed>
<extensions>
<speed>0.0</speed>
<temp>0.00</temp>
<bpm>0</bpm>
<rpm>0.00</rpm>
</extensions>
</trkpt>
<trkpt lat="31.041301727" lon="34.720233917">
<ele>280.734375</ele>
<time>2013-11-19T13:43:14Z</time>
<speed>0.030000</speed>
<extensions>
<speed>0.0</speed>
<temp>0.00</temp>
<bpm>0</bpm>
<rpm>0.00</rpm>
</extensions>
</trkpt>
<trkpt lat="31.041301727" lon="34.720230103">
<ele>280.757813</ele>
<time>2013-11-19T13:43:19Z</time>
<speed>0.040000</speed>
<extensions>
<speed>0.0</speed>
<temp>0.00</temp>
<bpm>0</bpm>
<rpm>0.00</rpm>
</extensions>
</trkpt>
<trkpt lat="31.041301727" lon="34.720230103">
<ele>280.773438</ele>
<time>2013-11-19T13:43:24Z</time>
<speed>0.010000</speed>
<extensions>
<speed>0.0</speed>
<temp>0.00</temp>
<bpm>0</bpm>
<rpm>0.00</rpm>
</extensions>
</trkpt>
<trkpt lat="31.041301727" lon="34.720230103">
<ele>280.789063</ele>
<time>2013-11-19T13:43:29Z</time>
<extensions>
<speed>0.0</speed>
<temp>0.00</temp>
<bpm>0</bpm>
<rpm>0.00</rpm>
</extensions>
</trkpt>
<trkpt lat="31.041299820" lon="34.720230103">
<ele>280.859375</ele>
<time>2013-11-19T13:43:34Z</time>
<speed>0.030000</speed>
<extensions>
<speed>0.0</speed>
<temp>0.00</temp>
<bpm>0</bpm>
<rpm>0.00</rpm>
</extensions>
</trkpt>
<trkpt lat="31.041299820" lon="34.720230103">
<ele>280.851563</ele>
<time>2013-11-19T13:43:39Z</time>
<speed>0.030000</speed>
<extensions>
<speed>0.0</speed>
<temp>0.00</temp>
<bpm>0</bpm>
<rpm>0.00</rpm>
</extensions>
</trkpt>
<trkpt lat="31.041299820" lon="34.720226288">
<ele>280.890625</ele>
<time>2013-11-19T13:43:44Z</time>
<speed>0.020000</speed>
<extensions>
<speed>0.0</speed>
<temp>0.00</temp>
<bpm>0</bpm>
<rpm>0.00</rpm>
</extensions>
</trkpt>
<trkpt lat="31.041299820" lon="34.720226288">
<ele>280.890625</ele>
<time>2013-11-19T13:43:49Z</time>
<speed>0.020000</speed>
<extensions>
<speed>0.0</speed>
<temp>0.00</temp>
<bpm>0</bpm>
<rpm>0.00</rpm>
</extensions>
</trkpt>
<trkpt lat="31.041299820" lon="34.720226288">
<ele>280.937500</ele>
<time>2013-11-19T13:43:54Z</time>
<speed>0.020000</speed>
<extensions>
<speed>0.0</speed>
<temp>0.00</temp>
<bpm>0</bpm>
<rpm>0.00</rpm>
</extensions>
</trkpt>
<trkpt lat="31.041299820" lon="34.720226288">
<ele>281.007813</ele>
<time>2013-11-19T13:43:59Z</time>
<speed>0.020000</speed>
<extensions>
<speed>0.0</speed>
<temp>0.00</temp>
<bpm>0</bpm>
<rpm>0.00</rpm>
</extensions>
</trkpt>
<trkpt lat="31.041299820" lon="34.720226288">
<ele>281.046875</ele>
<time>2013-11-19T13:44:04Z</time>
<speed>0.010000</speed>
<extensions>
<speed>0.0</speed>
<temp>0.00</temp>
<bpm>0</bpm>
<rpm>0.00</rpm>
</extensions>
</trkpt>
<trkpt lat="31.041299820" lon="34.720222473">
<ele>281.101563</ele>
<time>2013-11-19T13:44:09Z</time>
<speed>0.030000</speed>
<extensions>
<speed>0.0</speed>
<temp>0.00</temp>
<bpm>0</bpm>
<rpm>0.00</rpm>
</extensions>
</trkpt>
<trkpt lat="31.041297913" lon="34.720222473">
<ele>281.148438</ele>
<time>2013-11-19T13:44:14Z</time>
<extensions>
<speed>0.0</speed>
<temp>0.00</temp>
<bpm>0</bpm>
<rpm>0.00</rpm>
</extensions>
</trkpt>
<trkpt lat="31.041297913" lon="34.720222473">
<ele>281.226563</ele>
<time>2013-11-19T13:44:19Z</time>
<speed>0.010000</speed>
<extensions>
<speed>0.0</speed>
<temp>0.00</temp>
<bpm>0</bpm>
<rpm>0.00</rpm>
</extensions>
</trkpt>
<trkpt lat="31.041297913" lon="34.720222473">
<ele>281.273438</ele>
<time>2013-11-19T13:44:24Z</time>
<speed>0.010000</speed>
<extensions>
<speed>0.0</speed>
<temp>0.00</temp>
<bpm>0</bpm>
<rpm>0.00</rpm>
</extensions>
</trkpt>
<trkpt lat="31.041297913" lon="34.720222473">
<ele>281.343750</ele>
<time>2013-11-19T13:44:29Z</time>
<speed>0.010000</speed>
<extensions>
<speed>0.0</speed>
<temp>0.00</temp>
<bpm>0</bpm>
<rpm>0.00</rpm>
</extensions>
</trkpt>
<trkpt lat="31.041296005" lon="34.720222473">
<ele>281.390625</ele>
<time>2013-11-19T13:44:34Z</time>
<speed>0.010000</speed>
<extensions>
<speed>0.0</speed>
<temp>0.00</temp>
<bpm>0</bpm>
<rpm>0.00</rpm>
</extensions>
</trkpt>
<trkpt lat="31.041296005" lon="34.720222473">
<ele>281.453125</ele>
<time>2013-11-19T13:44:39Z</time>
<speed>0.010000</speed>
<extensions>
<speed>0.0</speed>
<temp>0.00</temp>
<bpm>0</bpm>
<rpm>0.00</rpm>
</extensions>
</trkpt>
<trkpt lat="31.041296005" lon="34.720222473">
<ele>281.500000</ele>
<time>2013-11-19T13:44:44Z</time>
<extensions>
<speed>0.0</speed>
<temp>0.00</temp>
<bpm>0</bpm>
<rpm>0.00</rpm>
</extensions>
</trkpt>
<trkpt lat="31.041296005" lon="34.720222473">
<ele>281.562500</ele>
<time>2013-11-19T13:44:49Z</time>
<speed>0.010000</speed>
<extensions>
<speed>0.0</speed>
<temp>0.00</temp>
<bpm>0</bpm>
<rpm>0.00</rpm>
</extensions>
</trkpt>
<trkpt lat="31.041296005" lon="34.720218658">
<ele>281.625000</ele>
<time>2013-11-19T13:44:54Z</time>
<speed>0.010000</speed>
<extensions>
<speed>0.0</speed>
<temp>0.00</temp>
<bpm>0</bpm>
<rpm>0.00</rpm>
</extensions>
</trkpt>
<trkpt lat="31.041294098" lon="34.720218658">
<ele>281.671875</ele>
<time>2013-11-19T13:44:59Z</time>
<speed>0.020000</speed>
<extensions>
<speed>0.0</speed>
<temp>0.00</temp>
<bpm>0</bpm>
<rpm>0.00</rpm>
</extensions>
</trkpt>
<trkpt lat="31.041294098" lon="34.720218658">
<ele>281.734375</ele>
<time>2013-11-19T13:45:04Z</time>
<speed>0.030000</speed>
<extensions>
<speed>0.0</speed>
<temp>0.00</temp>
<bpm>0</bpm>
<rpm>0.00</rpm>
</extensions>
</trkpt>
<trkpt lat="31.041294098" lon="34.720218658">
<ele>281.789063</ele>
<time>2013-11-19T13:45:09Z</time>
<speed>0.020000</speed>
<extensions>
<speed>0.0</speed>
<temp>0.00</temp>
<bpm>0</bpm>
<rpm>0.00</rpm>
</extensions>
</trkpt>
<trkpt lat="31.041294098" lon="34.720218658">
<ele>281.843750</ele>
<time>2013-11-19T13:45:14Z</time>
<extensions>
<speed>0.0</speed>
<temp>0.00</temp>
<bpm>0</bpm>
<rpm>0.00</rpm>
</extensions>
</trkpt>
<trkpt lat="31.041294098" lon="34.720214844">
<ele>281.898438</ele>
<time>2013-11-19T13:45:19Z</time>
<speed>0.020000</speed>
<extensions>
<speed>0.0</speed>
<temp>0.00</temp>
<bpm>0</bpm>
<rpm>0.00</rpm>
</extensions>
</trkpt>
<trkpt lat="31.041294098" lon="34.720214844">
<ele>281.929688</ele>
<time>2013-11-19T13:45:24Z</time>
<speed>0.010000</speed>
<extensions>
<speed>0.0</speed>
<temp>0.00</temp>
<bpm>0</bpm>
<rpm>0.00</rpm>
</extensions>
</trkpt>
<trkpt lat="31.041294098" lon="34.720214844">
<ele>281.976563</ele>
<time>2013-11-19T13:45:29Z</time>
<extensions>
<speed>0.0</speed>
<temp>0.00</temp>
<bpm>0</bpm>
<rpm>0.00</rpm>
</extensions>
</trkpt>
<trkpt lat="31.041292191" lon="34.720214844">
<ele>282.031250</ele>
<time>2013-11-19T13:45:34Z</time>
<extensions>
<speed>0.0</speed>
<temp>0.00</temp>
<bpm>0</bpm>
<rpm>0.00</rpm>
</extensions>
</trkpt>
<trkpt lat="31.041292191" lon="34.720214844">
<ele>282.085938</ele>
<time>2013-11-19T13:45:39Z</time>
<extensions>
<speed>0.0</speed>
<temp>0.00</temp>
<bpm>0</bpm>
<rpm>0.00</rpm>
</extensions>
</trkpt>
<trkpt lat="31.041292191" lon="34.720214844">
<ele>282.109375</ele>
<time>2013-11-19T13:45:44Z</time>
<speed>0.020000</speed>
<extensions>
<speed>0.0</speed>
<temp>0.00</temp>
<bpm>0</bpm>
<rpm>0.00</rpm>
</extensions>
</trkpt>
<trkpt lat="31.041292191" lon="34.720214844">
<ele>282.140625</ele>
<time>2013-11-19T13:45:49Z</time>
<speed>0.010000</speed>
<extensions>
<speed>0.0</speed>
<temp>0.00</temp>
<bpm>0</bpm>
<rpm>0.00</rpm>
</extensions>
</trkpt>
<trkpt lat="31.041292191" lon="34.720211029">
<ele>282.179688</ele>
<time>2013-11-19T13:45:54Z</time>
<speed>0.020000</speed>
<extensions>
<speed>0.0</speed>
<temp>0.00</temp>
<bpm>0</bpm>
<rpm>0.00</rpm>
</extensions>
</trkpt>
<trkpt lat="31.041292191" lon="34.720211029">
<ele>282.203125</ele>
<time>2013-11-19T13:45:59Z</time>
<speed>0.010000</speed>
<extensions>
<speed>0.0</speed>
<temp>0.00</temp>
<bpm>0</bpm>
<rpm>0.00</rpm>
</extensions>
</trkpt>
<trkpt lat="31.041290283" lon="34.720211029">
<ele>282.257813</ele>
<time>2013-11-19T13:46:04Z</time>
<speed>0.010000</speed>
<extensions>
<speed>0.0</speed>
<temp>0.00</temp>
<bpm>0</bpm>
<rpm>0.00</rpm>
</extensions>
</trkpt>
<trkpt lat="31.041290283" lon="34.720211029">
<ele>282.289063</ele>
<time>2013-11-19T13:46:09Z</time>
<extensions>
<speed>0.0</speed>
<temp>0.00</temp>
<bpm>0</bpm>
<rpm>0.00</rpm>
</extensions>
</trkpt>
<trkpt lat="31.041290283" lon="34.720211029">
<ele>282.351563</ele>
<time>2013-11-19T13:46:14Z</time>
<speed>0.020000</speed>
<extensions>
<speed>0.0</speed>
<temp>0.00</temp>
<bpm>0</bpm>
<rpm>0.00</rpm>
</extensions>
</trkpt>
<trkpt lat="31.041290283" lon="34.720211029">
<ele>282.406250</ele>
<time>2013-11-19T13:46:19Z</time>
<extensions>
<speed>0.0</speed>
<temp>0.00</temp>
<bpm>0</bpm>
<rpm>0.00</rpm>
</extensions>
</trkpt>
<trkpt lat="31.041290283" lon="34.720211029">
<ele>282.429688</ele>
<time>2013-11-19T13:46:24Z</time>
<extensions>
<speed>0.0</speed>
<temp>0.00</temp>
<bpm>0</bpm>
<rpm>0.00</rpm>
</extensions>
</trkpt>
<trkpt lat="31.041290283" lon="34.720211029">
<ele>282.460938</ele>
<time>2013-11-19T13:46:29Z</time>
<speed>0.010000</speed>
<extensions>
<speed>0.0</speed>
<temp>0.00</temp>
<bpm>0</bpm>
<rpm>0.00</rpm>
</extensions>
</trkpt>
<trkpt lat="31.041290283" lon="34.720211029">
<ele>282.476563</ele>
<time>2013-11-19T13:46:34Z</time>
<extensions>
<speed>0.0</speed>
<temp>0.00</temp>
<bpm>0</bpm>
<rpm>0.00</rpm>
</extensions>
</trkpt>
<trkpt lat="31.041290283" lon="34.720211029">
<ele>282.507813</ele>
<time>2013-11-19T13:46:39Z</time>
<extensions>
<speed>0.0</speed>
<temp>0.00</temp>
<bpm>0</bpm>
<rpm>0.00</rpm>
</extensions>
</trkpt>
<trkpt lat="31.041290283" lon="34.720211029">
<ele>282.539063</ele>
<time>2013-11-19T13:46:44Z</time>
<extensions>
<speed>0.0</speed>
<temp>0.00</temp>
<bpm>0</bpm>
<rpm>0.00</rpm>
</extensions>
</trkpt>
<trkpt lat="31.041290283" lon="34.720211029">
<ele>282.578125</ele>
<time>2013-11-19T13:46:49Z</time>
<extensions>
<speed>0.0</speed>
<temp>0.00</temp>
<bpm>0</bpm>
<rpm>0.00</rpm>
</extensions>
</trkpt>
<trkpt lat="31.041290283" lon="34.720207214">
<ele>282.601563</ele>
<time>2013-11-19T13:46:54Z</time>
<speed>0.010000</speed>
<extensions>
<speed>0.0</speed>
<temp>0.00</temp>
<bpm>0</bpm>
<rpm>0.00</rpm>
</extensions>
</trkpt>
<trkpt lat="31.041290283" lon="34.720207214">
<ele>282.664063</ele>
<time>2013-11-19T13:46:59Z</time>
<extensions>
<speed>0.0</speed>
<temp>0.00</temp>
<bpm>0</bpm>
<rpm>0.00</rpm>
</extensions>
</trkpt>
<trkpt lat="31.041290283" lon="34.720207214">
<ele>282.710938</ele>
<time>2013-11-19T13:47:04Z</time>
<extensions>
<speed>0.0</speed>
<temp>0.00</temp>
<bpm>0</bpm>
<rpm>0.00</rpm>
</extensions>
</trkpt>
<trkpt lat="31.041290283" lon="34.720207214">
<ele>282.765625</ele>
<time>2013-11-19T13:47:09Z</time>
<extensions>
<speed>0.0</speed>
<temp>0.00</temp>
<bpm>0</bpm>
<rpm>0.00</rpm>
</extensions>
</trkpt>
<trkpt lat="31.041290283" lon="34.720207214">
<ele>282.804688</ele>
<time>2013-11-19T13:47:14Z</time>
<extensions>
<speed>0.0</speed>
<temp>0.00</temp>
<bpm>0</bpm>
<rpm>0.00</rpm>
</extensions>
</trkpt>
<trkpt lat="31.041290283" lon="34.720207214">
<ele>282.812500</ele>
<time>2013-11-19T13:47:19Z</time>
<extensions>
<speed>0.0</speed>
<temp>0.00</temp>
<bpm>0</bpm>
<rpm>0.00</rpm>
</extensions>
</trkpt>
<trkpt lat="31.041290283" lon="34.720207214">
<ele>282.875000</ele>
<time>2013-11-19T13:47:24Z</time>
<speed>0.010000</speed>
<extensions>
<speed>0.0</speed>
<temp>0.00</temp>
<bpm>0</bpm>
<rpm>0.00</rpm>
</extensions>
</trkpt>
<trkpt lat="31.041290283" lon="34.720207214">
<ele>282.890625</ele>
<time>2013-11-19T13:47:29Z</time>
<extensions>
<speed>0.0</speed>
<temp>0.00</temp>
<bpm>0</bpm>
<rpm>0.00</rpm>
</extensions>
</trkpt>
<trkpt lat="31.041290283" lon="34.720207214">
<ele>282.953125</ele>
<time>2013-11-19T13:47:34Z</time>
<speed>0.010000</speed>
<extensions>
<speed>0.0</speed>
<temp>0.00</temp>
<bpm>0</bpm>
<rpm>0.00</rpm>
</extensions>
</trkpt>
<trkpt lat="31.041290283" lon="34.720207214">
<ele>283.000000</ele>
<time>2013-11-19T13:47:39Z</time>
<extensions>
<speed>0.0</speed>
<temp>0.00</temp>
<bpm>0</bpm>
<rpm>0.00</rpm>
</extensions>
</trkpt>
<trkpt lat="31.041290283" lon="34.720207214">
<ele>283.070313</ele>
<time>2013-11-19T13:47:44Z</time>
<speed>0.020000</speed>
<extensions>
<speed>0.0</speed>
<temp>0.00</temp>
<bpm>0</bpm>
<rpm>0.00</rpm>
</extensions>
</trkpt>
<trkpt lat="31.041290283" lon="34.720207214">
<ele>283.132813</ele>
<time>2013-11-19T13:47:49Z</time>
<speed>0.010000</speed>
<extensions>
<speed>0.0</speed>
<temp>0.00</temp>
<bpm>0</bpm>
<rpm>0.00</rpm>
</extensions>
</trkpt>
<trkpt lat="31.041290283" lon="34.720207214">
<ele>283.171875</ele>
<time>2013-11-19T13:47:54Z</time>
<speed>0.010000</speed>
<extensions>
<speed>0.0</speed>
<temp>0.00</temp>
<bpm>0</bpm>
<rpm>0.00</rpm>
</extensions>
</trkpt>
<trkpt lat="31.041292191" lon="34.720207214">
<ele>283.242188</ele>
<time>2013-11-19T13:47:59Z</time>
<extensions>
<speed>0.0</speed>
<temp>0.00</temp>
<bpm>0</bpm>
<rpm>0.00</rpm>
</extensions>
</trkpt>
<trkpt lat="31.041290283" lon="34.720207214">
<ele>283.320313</ele>
<time>2013-11-19T13:48:04Z</time>
<extensions>
<speed>0.0</speed>
<temp>0.00</temp>
<bpm>0</bpm>
<rpm>0.00</rpm>
</extensions>
</trkpt>
<trkpt lat="31.041290283" lon="34.720207214">
<ele>283.367188</ele>
<time>2013-11-19T13:48:09Z</time>
<extensions>
<speed>0.0</speed>
<temp>0.00</temp>
<bpm>0</bpm>
<rpm>0.00</rpm>
</extensions>
</trkpt>
<trkpt lat="31.041290283" lon="34.720207214">
<ele>283.445313</ele>
<time>2013-11-19T13:48:14Z</time>
<extensions>
<speed>0.0</speed>
<temp>0.00</temp>
<bpm>0</bpm>
<rpm>0.00</rpm>
</extensions>
</trkpt>
<trkpt lat="31.041290283" lon="34.720207214">
<ele>283.515625</ele>
<time>2013-11-19T13:48:19Z</time>
<extensions>
<speed>0.0</speed>
<temp>0.00</temp>
<bpm>0</bpm>
<rpm>0.00</rpm>
</extensions>
</trkpt>
<trkpt lat="31.041290283" lon="34.720207214">
<ele>283.593750</ele>
<time>2013-11-19T13:48:24Z</time>
<extensions>
<speed>0.0</speed>
<temp>0.00</temp>
<bpm>0</bpm>
<rpm>0.00</rpm>
</extensions>
</trkpt>
<trkpt lat="31.041290283" lon="34.720207214">
<ele>283.656250</ele>
<time>2013-11-19T13:48:29Z</time>
<extensions>
<speed>0.0</speed>
<temp>0.00</temp>
<bpm>0</bpm>
<rpm>0.00</rpm>
</extensions>
</trkpt>
<trkpt lat="31.041290283" lon="34.720207214">
<ele>283.734375</ele>
<time>2013-11-19T13:48:34Z</time>
<extensions>
<speed>0.0</speed>
<temp>0.00</temp>
<bpm>0</bpm>
<rpm>0.00</rpm>
</extensions>
</trkpt>
<trkpt lat="31.041290283" lon="34.720207214">
<ele>283.781250</ele>
<time>2013-11-19T13:48:39Z</time>
<extensions>
<speed>0.0</speed>
<temp>0.00</temp>
<bpm>0</bpm>
<rpm>0.00</rpm>
</extensions>
</trkpt>
<trkpt lat="31.041290283" lon="34.720207214">
<ele>283.851563</ele>
<time>2013-11-19T13:48:44Z</time>
<speed>0.020000</speed>
<extensions>
<speed>0.0</speed>
<temp>0.00</temp>
<bpm>0</bpm>
<rpm>0.00</rpm>
</extensions>
</trkpt>
<trkpt lat="31.041290283" lon="34.720207214">
<ele>283.898438</ele>
<time>2013-11-19T13:48:49Z</time>
<speed>0.020000</speed>
<extensions>
<speed>0.0</speed>
<temp>0.00</temp>
<bpm>0</bpm>
<rpm>0.00</rpm>
</extensions>
</trkpt>
<trkpt lat="31.041290283" lon="34.720207214">
<ele>283.960938</ele>
<time>2013-11-19T13:48:54Z</time>
<speed>0.010000</speed>
<extensions>
<speed>0.0</speed>
<temp>0.00</temp>
<bpm>0</bpm>
<rpm>0.00</rpm>
</extensions>
</trkpt>
<trkpt lat="31.041290283" lon="34.720207214">
<ele>284.039063</ele>
<time>2013-11-19T13:48:59Z</time>
<speed>0.010000</speed>
<extensions>
<speed>0.0</speed>
<temp>0.00</temp>
<bpm>0</bpm>
<rpm>0.00</rpm>
</extensions>
</trkpt>
<trkpt lat="31.041288376" lon="34.720211029">
<ele>284.101563</ele>
<time>2013-11-19T13:49:04Z</time>
<extensions>
<speed>0.0</speed>
<temp>0.00</temp>
<bpm>0</bpm>
<rpm>0.00</rpm>
</extensions>
</trkpt>
<trkpt lat="31.041288376" lon="34.720211029">
<ele>284.140625</ele>
<time>2013-11-19T13:49:09Z</time>
<extensions>
<speed>0.0</speed>
<temp>0.00</temp>
<bpm>0</bpm>
<rpm>0.00</rpm>
</extensions>
</trkpt>
<trkpt lat="31.041288376" lon="34.720211029">
<ele>284.203125</ele>
<time>2013-11-19T13:49:14Z</time>
<speed>0.010000</speed>
<extensions>
<speed>0.0</speed>
<temp>0.00</temp>
<bpm>0</bpm>
<rpm>0.00</rpm>
</extensions>
</trkpt>
<trkpt lat="31.041288376" lon="34.720211029">
<ele>284.265625</ele>
<time>2013-11-19T13:49:19Z</time>
<extensions>
<speed>0.0</speed>
<temp>0.00</temp>
<bpm>0</bpm>
<rpm>0.00</rpm>
</extensions>
</trkpt>
<trkpt lat="31.041288376" lon="34.720211029">
<ele>284.320313</ele>
<time>2013-11-19T13:49:24Z</time>
<speed>0.010000</speed>
<extensions>
<speed>0.0</speed>
<temp>0.00</temp>
<bpm>0</bpm>
<rpm>0.00</rpm>
</extensions>
</trkpt>
<trkpt lat="31.041288376" lon="34.720211029">
<ele>284.375000</ele>
<time>2013-11-19T13:49:29Z</time>
<extensions>
<speed>0.0</speed>
<temp>0.00</temp>
<bpm>0</bpm>
<rpm>0.00</rpm>
</extensions>
</trkpt>
<trkpt lat="31.041288376" lon="34.720211029">
<ele>284.453125</ele>
<time>2013-11-19T13:49:34Z</time>
<extensions>
<speed>0.0</speed>
<temp>0.00</temp>
<bpm>0</bpm>
<rpm>0.00</rpm>
</extensions>
</trkpt>
<trkpt lat="31.041288376" lon="34.720211029">
<ele>284.507813</ele>
<time>2013-11-19T13:49:39Z</time>
<extensions>
<speed>0.0</speed>
<temp>0.00</temp>
<bpm>0</bpm>
<rpm>0.00</rpm>
</extensions>
</trkpt>
<trkpt lat="31.041288376" lon="34.720211029">
<ele>284.570313</ele>
<time>2013-11-19T13:49:44Z</time>
<speed>0.010000</speed>
<extensions>
<speed>0.0</speed>
<temp>0.00</temp>
<bpm>0</bpm>
<rpm>0.00</rpm>
</extensions>
</trkpt>
<trkpt lat="31.041288376" lon="34.720211029">
<ele>284.578125</ele>
<time>2013-11-19T13:49:49Z</time>
<extensions>
<speed>0.0</speed>
<temp>0.00</temp>
<bpm>0</bpm>
<rpm>0.00</rpm>
</extensions>
</trkpt>
<trkpt lat="31.041288376" lon="34.720211029">
<ele>284.632813</ele>
<time>2013-11-19T13:49:54Z</time>
<extensions>
<speed>0.0</speed>
<temp>0.00</temp>
<bpm>0</bpm>
<rpm>0.00</rpm>
</extensions>
</trkpt>
<trkpt lat="31.041288376" lon="34.720211029">
<ele>284.671875</ele>
<time>2013-11-19T13:49:59Z</time>
<extensions>
<speed>0.0</speed>
<temp>0.00</temp>
<bpm>0</bpm>
<rpm>0.00</rpm>
</extensions>
</trkpt>
<trkpt lat="31.041286469" lon="34.720211029">
<ele>284.710938</ele>
<time>2013-11-19T13:50:04Z</time>
<extensions>
<speed>0.0</speed>
<temp>0.00</temp>
<bpm>0</bpm>
<rpm>0.00</rpm>
</extensions>
</trkpt>
<trkpt lat="31.041286469" lon="34.720211029">
<ele>284.757813</ele>
<time>2013-11-19T13:50:09Z</time>
<extensions>
<speed>0.0</speed>
<temp>0.00</temp>
<bpm>0</bpm>
<rpm>0.00</rpm>
</extensions>
</trkpt>
<trkpt lat="31.041286469" lon="34.720211029">
<ele>284.804688</ele>
<time>2013-11-19T13:50:14Z</time>
<speed>0.010000</speed>
<extensions>
<speed>0.0</speed>
<temp>0.00</temp>
<bpm>0</bpm>
<rpm>0.00</rpm>
</extensions>
</trkpt>
<trkpt lat="31.041286469" lon="34.720207214">
<ele>284.835938</ele>
<time>2013-11-19T13:50:19Z</time>
<speed>0.010000</speed>
<extensions>
<speed>0.0</speed>
<temp>0.00</temp>
<bpm>0</bpm>
<rpm>0.00</rpm>
</extensions>
</trkpt>
<trkpt lat="31.041286469" lon="34.720207214">
<ele>284.906250</ele>
<time>2013-11-19T13:50:24Z</time>
<extensions>
<speed>0.0</speed>
<temp>0.00</temp>
<bpm>0</bpm>
<rpm>0.00</rpm>
</extensions>
</trkpt>
<trkpt lat="31.041286469" lon="34.720207214">
<ele>284.968750</ele>
<time>2013-11-19T13:50:29Z</time>
<extensions>
<speed>0.0</speed>
<temp>0.00</temp>
<bpm>0</bpm>
<rpm>0.00</rpm>
</extensions>
</trkpt>
<trkpt lat="31.041286469" lon="34.720207214">
<ele>285.023438</ele>
<time>2013-11-19T13:50:34Z</time>
<speed>0.010000</speed>
<extensions>
<speed>0.0</speed>
<temp>0.00</temp>
<bpm>0</bpm>
<rpm>0.00</rpm>
</extensions>
</trkpt>
<trkpt lat="31.041286469" lon="34.720207214">
<ele>285.093750</ele>
<time>2013-11-19T13:50:39Z</time>
<extensions>
<speed>0.0</speed>
<temp>0.00</temp>
<bpm>0</bpm>
<rpm>0.00</rpm>
</extensions>
</trkpt>
<trkpt lat="31.041286469" lon="34.720207214">
<ele>285.117188</ele>
<time>2013-11-19T13:50:44Z</time>
<speed>0.010000</speed>
<extensions>
<speed>0.0</speed>
<temp>0.00</temp>
<bpm>0</bpm>
<rpm>0.00</rpm>
</extensions>
</trkpt>
<trkpt lat="31.041286469" lon="34.720207214">
<ele>285.210938</ele>
<time>2013-11-19T13:50:49Z</time>
<speed>0.020000</speed>
<extensions>
<speed>0.0</speed>
<temp>0.00</temp>
<bpm>0</bpm>
<rpm>0.00</rpm>
</extensions>
</trkpt>
<trkpt lat="31.041284561" lon="34.720207214">
<ele>285.257813</ele>
<time>2013-11-19T13:50:54Z</time>
<extensions>
<speed>0.0</speed>
<temp>0.00</temp>
<bpm>0</bpm>
<rpm>0.00</rpm>
</extensions>
</trkpt>
<trkpt lat="31.041284561" lon="34.720207214">
<ele>285.304688</ele>
<time>2013-11-19T13:50:59Z</time>
<extensions>
<speed>0.0</speed>
<temp>0.00</temp>
<bpm>0</bpm>
<rpm>0.00</rpm>
</extensions>
</trkpt>
<trkpt lat="31.041284561" lon="34.720207214">
<ele>285.351563</ele>
<time>2013-11-19T13:51:04Z</time>
<speed>0.010000</speed>
<extensions>
<speed>0.0</speed>
<temp>0.00</temp>
<bpm>0</bpm>
<rpm>0.00</rpm>
</extensions>
</trkpt>
<trkpt lat="31.041284561" lon="34.720207214">
<ele>285.375000</ele>
<time>2013-11-19T13:51:09Z</time>
<speed>0.010000</speed>
<extensions>
<speed>0.0</speed>
<temp>0.00</temp>
<bpm>0</bpm>
<rpm>0.00</rpm>
</extensions>
</trkpt>
<trkpt lat="31.041284561" lon="34.720207214">
<ele>285.375000</ele>
<time>2013-11-19T13:51:14Z</time>
<extensions>
<speed>0.0</speed>
<temp>0.00</temp>
<bpm>0</bpm>
<rpm>0.00</rpm>
</extensions>
</trkpt>
<trkpt lat="31.041284561" lon="34.720207214">
<ele>285.406250</ele>
<time>2013-11-19T13:51:19Z</time>
<speed>0.010000</speed>
<extensions>
<speed>0.0</speed>
<temp>0.00</temp>
<bpm>0</bpm>
<rpm>0.00</rpm>
</extensions>
</trkpt>
<trkpt lat="31.041282654" lon="34.720207214">
<ele>285.468750</ele>
<time>2013-11-19T13:51:24Z</time>
<speed>0.020000</speed>
<extensions>
<speed>0.0</speed>
<temp>0.00</temp>
<bpm>0</bpm>
<rpm>0.00</rpm>
</extensions>
</trkpt>
<trkpt lat="31.041282654" lon="34.720207214">
<ele>285.492188</ele>
<time>2013-11-19T13:51:29Z</time>
<extensions>
<speed>0.0</speed>
<temp>0.00</temp>
<bpm>0</bpm>
<rpm>0.00</rpm>
</extensions>
</trkpt>
<trkpt lat="31.041282654" lon="34.720203400">
<ele>285.601563</ele>
<time>2013-11-19T13:51:34Z</time>
<speed>0.020000</speed>
<extensions>
<speed>0.0</speed>
<temp>0.00</temp>
<bpm>0</bpm>
<rpm>0.00</rpm>
</extensions>
</trkpt>
<trkpt lat="31.041282654" lon="34.720203400">
<ele>285.593750</ele>
<time>2013-11-19T13:51:39Z</time>
<speed>0.010000</speed>
<extensions>
<speed>0.0</speed>
<temp>0.00</temp>
<bpm>0</bpm>
<rpm>0.00</rpm>
</extensions>
</trkpt>
<trkpt lat="31.041282654" lon="34.720203400">
<ele>285.679688</ele>
<time>2013-11-19T13:51:44Z</time>
<speed>0.010000</speed>
<extensions>
<speed>0.0</speed>
<temp>0.00</temp>
<bpm>0</bpm>
<rpm>0.00</rpm>
</extensions>
</trkpt>
<trkpt lat="31.041282654" lon="34.720203400">
<ele>285.765625</ele>
<time>2013-11-19T13:51:49Z</time>
<speed>0.010000</speed>
<extensions>
<speed>0.0</speed>
<temp>0.00</temp>
<bpm>0</bpm>
<rpm>0.00</rpm>
</extensions>
</trkpt>
<trkpt lat="31.041282654" lon="34.720203400">
<ele>285.828125</ele>
<time>2013-11-19T13:51:54Z</time>
<speed>0.010000</speed>
<extensions>
<speed>0.0</speed>
<temp>0.00</temp>
<bpm>0</bpm>
<rpm>0.00</rpm>
</extensions>
</trkpt>
<trkpt lat="31.041282654" lon="34.720203400">
<ele>285.898438</ele>
<time>2013-11-19T13:51:59Z</time>
<speed>0.010000</speed>
<extensions>
<speed>0.0</speed>
<temp>0.00</temp>
<bpm>0</bpm>
<rpm>0.00</rpm>
</extensions>
</trkpt>
<trkpt lat="31.041282654" lon="34.720203400">
<ele>285.976563</ele>
<time>2013-11-19T13:52:04Z</time>
<extensions>
<speed>0.0</speed>
<temp>0.00</temp>
<bpm>0</bpm>
<rpm>0.00</rpm>
</extensions>
</trkpt>
<trkpt lat="31.041282654" lon="34.720203400">
<ele>286.046875</ele>
<time>2013-11-19T13:52:09Z</time>
<extensions>
<speed>0.0</speed>
<temp>0.00</temp>
<bpm>0</bpm>
<rpm>0.00</rpm>
</extensions>
</trkpt>
<trkpt lat="31.041280746" lon="34.720203400">
<ele>286.101563</ele>
<time>2013-11-19T13:52:14Z</time>
<speed>0.010000</speed>
<extensions>
<speed>0.0</speed>
<temp>0.00</temp>
<bpm>0</bpm>
<rpm>0.00</rpm>
</extensions>
</trkpt>
<trkpt lat="31.041280746" lon="34.720203400">
<ele>286.140625</ele>
<time>2013-11-19T13:52:19Z</time>
<speed>0.010000</speed>
<extensions>
<speed>0.0</speed>
<temp>0.00</temp>
<bpm>0</bpm>
<rpm>0.00</rpm>
</extensions>
</trkpt>
<trkpt lat="31.041280746" lon="34.720203400">
<ele>286.210938</ele>
<time>2013-11-19T13:52:24Z</time>
<extensions>
<speed>0.0</speed>
<temp>0.00</temp>
<bpm>0</bpm>
<rpm>0.00</rpm>
</extensions>
</trkpt>
<trkpt lat="31.041280746" lon="34.720203400">
<ele>286.289063</ele>
<time>2013-11-19T13:52:29Z</time>
<extensions>
<speed>0.0</speed>
<temp>0.00</temp>
<bpm>0</bpm>
<rpm>0.00</rpm>
</extensions>
</trkpt>
<trkpt lat="31.041280746" lon="34.720203400">
<ele>286.359375</ele>
<time>2013-11-19T13:52:34Z</time>
<extensions>
<speed>0.0</speed>
<temp>0.00</temp>
<bpm>0</bpm>
<rpm>0.00</rpm>
</extensions>
</trkpt>
<trkpt lat="31.041280746" lon="34.720203400">
<ele>286.359375</ele>
<time>2013-11-19T13:52:39Z</time>
<extensions>
<speed>0.0</speed>
<temp>0.00</temp>
<bpm>0</bpm>
<rpm>0.00</rpm>
</extensions>
</trkpt>
<trkpt lat="31.041280746" lon="34.720203400">
<ele>286.437500</ele>
<time>2013-11-19T13:52:44Z</time>
<extensions>
<speed>0.0</speed>
<temp>0.00</temp>
<bpm>0</bpm>
<rpm>0.00</rpm>
</extensions>
</trkpt>
<trkpt lat="31.041280746" lon="34.720203400">
<ele>286.507813</ele>
<time>2013-11-19T13:52:49Z</time>
<extensions>
<speed>0.0</speed>
<temp>0.00</temp>
<bpm>0</bpm>
<rpm>0.00</rpm>
</extensions>
</trkpt>
<trkpt lat="31.041280746" lon="34.720203400">
<ele>286.570313</ele>
<time>2013-11-19T13:52:54Z</time>
<extensions>
<speed>0.0</speed>
<temp>0.00</temp>
<bpm>0</bpm>
<rpm>0.00</rpm>
</extensions>
</trkpt>
<trkpt lat="31.041280746" lon="34.720203400">
<ele>286.625000</ele>
<time>2013-11-19T13:52:59Z</time>
<speed>0.010000</speed>
<extensions>
<speed>0.0</speed>
<temp>0.00</temp>
<bpm>0</bpm>
<rpm>0.00</rpm>
</extensions>
</trkpt>
<trkpt lat="31.041280746" lon="34.720203400">
<ele>286.671875</ele>
<time>2013-11-19T13:53:04Z</time>
<extensions>
<speed>0.0</speed>
<temp>0.00</temp>
<bpm>0</bpm>
<rpm>0.00</rpm>
</extensions>
</trkpt>
<trkpt lat="31.041278839" lon="34.720203400">
<ele>286.679688</ele>
<time>2013-11-19T13:53:09Z</time>
<extensions>
<speed>0.0</speed>
<temp>0.00</temp>
<bpm>0</bpm>
<rpm>0.00</rpm>
</extensions>
</trkpt>
<trkpt lat="31.041278839" lon="34.720203400">
<ele>286.742188</ele>
<time>2013-11-19T13:53:14Z</time>
<extensions>
<speed>0.0</speed>
<temp>0.00</temp>
<bpm>0</bpm>
<rpm>0.00</rpm>
</extensions>
</trkpt>
<trkpt lat="31.041278839" lon="34.720203400">
<ele>286.812500</ele>
<time>2013-11-19T13:53:19Z</time>
<extensions>
<speed>0.0</speed>
<temp>0.00</temp>
<bpm>0</bpm>
<rpm>0.00</rpm>
</extensions>
</trkpt>
<trkpt lat="31.041278839" lon="34.720203400">
<ele>286.882813</ele>
<time>2013-11-19T13:53:24Z</time>
<extensions>
<speed>0.0</speed>
<temp>0.00</temp>
<bpm>0</bpm>
<rpm>0.00</rpm>
</extensions>
</trkpt>
<trkpt lat="31.041278839" lon="34.720203400">
<ele>286.898438</ele>
<time>2013-11-19T13:53:29Z</time>
<extensions>
<speed>0.0</speed>
<temp>0.00</temp>
<bpm>0</bpm>
<rpm>0.00</rpm>
</extensions>
</trkpt>
<trkpt lat="31.041278839" lon="34.720203400">
<ele>286.984375</ele>
<time>2013-11-19T13:53:34Z</time>
<speed>0.010000</speed>
<extensions>
<speed>0.0</speed>
<temp>0.00</temp>
<bpm>0</bpm>
<rpm>0.00</rpm>
</extensions>
</trkpt>
<trkpt lat="31.041278839" lon="34.720203400">
<ele>287.015625</ele>
<time>2013-11-19T13:53:39Z</time>
<extensions>
<speed>0.0</speed>
<temp>0.00</temp>
<bpm>0</bpm>
<rpm>0.00</rpm>
</extensions>
</trkpt>
<trkpt lat="31.041278839" lon="34.720203400">
<ele>287.062500</ele>
<time>2013-11-19T13:53:44Z</time>
<extensions>
<speed>0.0</speed>
<temp>0.00</temp>
<bpm>0</bpm>
<rpm>0.00</rpm>
</extensions>
</trkpt>
<trkpt lat="31.041276932" lon="34.720203400">
<ele>287.101563</ele>
<time>2013-11-19T13:53:49Z</time>
<speed>0.010000</speed>
<extensions>
<speed>0.0</speed>
<temp>0.00</temp>
<bpm>0</bpm>
<rpm>0.00</rpm>
</extensions>
</trkpt>
<trkpt lat="31.041276932" lon="34.720203400">
<ele>287.164063</ele>
<time>2013-11-19T13:53:54Z</time>
<speed>0.020000</speed>
<extensions>
<speed>0.0</speed>
<temp>0.00</temp>
<bpm>0</bpm>
<rpm>0.00</rpm>
</extensions>
</trkpt>
<trkpt lat="31.041276932" lon="34.720203400">
<ele>287.210938</ele>
<time>2013-11-19T13:53:59Z</time>
<speed>0.010000</speed>
<extensions>
<speed>0.0</speed>
<temp>0.00</temp>
<bpm>0</bpm>
<rpm>0.00</rpm>
</extensions>
</trkpt>
<trkpt lat="31.041276932" lon="34.720203400">
<ele>287.273438</ele>
<time>2013-11-19T13:54:04Z</time>
<extensions>
<speed>0.0</speed>
<temp>0.00</temp>
<bpm>0</bpm>
<rpm>0.00</rpm>
</extensions>
</trkpt>
<trkpt lat="31.041276932" lon="34.720203400">
<ele>287.328125</ele>
<time>2013-11-19T13:54:09Z</time>
<extensions>
<speed>0.0</speed>
<temp>0.00</temp>
<bpm>0</bpm>
<rpm>0.00</rpm>
</extensions>
</trkpt>
<trkpt lat="31.041276932" lon="34.720203400">
<ele>287.375000</ele>
<time>2013-11-19T13:54:14Z</time>
<extensions>
<speed>0.0</speed>
<temp>0.00</temp>
<bpm>0</bpm>
<rpm>0.00</rpm>
</extensions>
</trkpt>
<trkpt lat="31.041275024" lon="34.720203400">
<ele>287.421875</ele>
<time>2013-11-19T13:54:19Z</time>
<extensions>
<speed>0.0</speed>
<temp>0.00</temp>
<bpm>0</bpm>
<rpm>0.00</rpm>
</extensions>
</trkpt>
<trkpt lat="31.041275024" lon="34.720203400">
<ele>287.453125</ele>
<time>2013-11-19T13:54:24Z</time>
<speed>0.010000</speed>
<extensions>
<speed>0.0</speed>
<temp>0.00</temp>
<bpm>0</bpm>
<rpm>0.00</rpm>
</extensions>
</trkpt>
<trkpt lat="31.041275024" lon="34.720203400">
<ele>287.484375</ele>
<time>2013-11-19T13:54:29Z</time>
<speed>0.010000</speed>
<extensions>
<speed>0.0</speed>
<temp>0.00</temp>
<bpm>0</bpm>
<rpm>0.00</rpm>
</extensions>
</trkpt>
<trkpt lat="31.041275024" lon="34.720203400">
<ele>287.523438</ele>
<time>2013-11-19T13:54:34Z</time>
<speed>0.010000</speed>
<extensions>
<speed>0.0</speed>
<temp>0.00</temp>
<bpm>0</bpm>
<rpm>0.00</rpm>
</extensions>
</trkpt>
<trkpt lat="31.041275024" lon="34.720203400">
<ele>287.531250</ele>
<time>2013-11-19T13:54:39Z</time>
<extensions>
<speed>0.0</speed>
<temp>0.00</temp>
<bpm>0</bpm>
<rpm>0.00</rpm>
</extensions>
</trkpt>
<trkpt lat="31.041275024" lon="34.720199585">
<ele>287.570313</ele>
<time>2013-11-19T13:54:44Z</time>
<speed>0.010000</speed>
<extensions>
<speed>0.0</speed>
<temp>0.00</temp>
<bpm>0</bpm>
<rpm>0.00</rpm>
</extensions>
</trkpt>
<trkpt lat="31.041275024" lon="34.720199585">
<ele>287.625000</ele>
<time>2013-11-19T13:54:49Z</time>
<speed>0.010000</speed>
<extensions>
<speed>0.0</speed>
<temp>0.00</temp>
<bpm>0</bpm>
<rpm>0.00</rpm>
</extensions>
</trkpt>
<trkpt lat="31.041275024" lon="34.720199585">
<ele>287.656250</ele>
<time>2013-11-19T13:54:54Z</time>
<extensions>
<speed>0.0</speed>
<temp>0.00</temp>
<bpm>0</bpm>
<rpm>0.00</rpm>
</extensions>
</trkpt>
<trkpt lat="31.041275024" lon="34.720199585">
<ele>287.703125</ele>
<time>2013-11-19T13:54:59Z</time>
<extensions>
<speed>0.0</speed>
<temp>0.00</temp>
<bpm>0</bpm>
<rpm>0.00</rpm>
</extensions>
</trkpt>
<trkpt lat="31.041275024" lon="34.720199585">
<ele>287.742188</ele>
<time>2013-11-19T13:55:04Z</time>
<speed>0.010000</speed>
<extensions>
<speed>0.0</speed>
<temp>0.00</temp>
<bpm>0</bpm>
<rpm>0.00</rpm>
</extensions>
</trkpt>
<trkpt lat="31.041275024" lon="34.720199585">
<ele>287.781250</ele>
<time>2013-11-19T13:55:09Z</time>
<speed>0.010000</speed>
<extensions>
<speed>0.0</speed>
<temp>0.00</temp>
<bpm>0</bpm>
<rpm>0.00</rpm>
</extensions>
</trkpt>
<trkpt lat="31.041275024" lon="34.720203400">
<ele>287.812500</ele>
<time>2013-11-19T13:55:14Z</time>
<speed>0.010000</speed>
<extensions>
<speed>0.0</speed>
<temp>0.00</temp>
<bpm>0</bpm>
<rpm>0.00</rpm>
</extensions>
</trkpt>
<trkpt lat="31.041275024" lon="34.720203400">
<ele>287.859375</ele>
<time>2013-11-19T13:55:19Z</time>
<speed>0.020000</speed>
<extensions>
<speed>0.0</speed>
<temp>0.00</temp>
<bpm>0</bpm>
<rpm>0.00</rpm>
</extensions>
</trkpt>
<trkpt lat="31.041273117" lon="34.720203400">
<ele>287.890625</ele>
<time>2013-11-19T13:55:24Z</time>
<speed>0.010000</speed>
<extensions>
<speed>0.0</speed>
<temp>0.00</temp>
<bpm>0</bpm>
<rpm>0.00</rpm>
</extensions>
</trkpt>
<trkpt lat="31.041273117" lon="34.720203400">
<ele>287.898438</ele>
<time>2013-11-19T13:55:29Z</time>
<speed>0.010000</speed>
<extensions>
<speed>0.0</speed>
<temp>0.00</temp>
<bpm>0</bpm>
<rpm>0.00</rpm>
</extensions>
</trkpt>
<trkpt lat="31.041273117" lon="34.720199585">
<ele>287.898438</ele>
<time>2013-11-19T13:55:34Z</time>
<speed>0.010000</speed>
<extensions>
<speed>0.0</speed>
<temp>0.00</temp>
<bpm>0</bpm>
<rpm>0.00</rpm>
</extensions>
</trkpt>
<trkpt lat="31.041273117" lon="34.720199585">
<ele>287.945313</ele>
<time>2013-11-19T13:55:39Z</time>
<speed>0.010000</speed>
<extensions>
<speed>0.0</speed>
<temp>0.00</temp>
<bpm>0</bpm>
<rpm>0.00</rpm>
</extensions>
</trkpt>
<trkpt lat="31.041273117" lon="34.720199585">
<ele>287.984375</ele>
<time>2013-11-19T13:55:44Z</time>
<speed>0.030000</speed>
<extensions>
<speed>0.0</speed>
<temp>0.00</temp>
<bpm>0</bpm>
<rpm>0.00</rpm>
</extensions>
</trkpt>
<trkpt lat="31.041273117" lon="34.720199585">
<ele>288.000000</ele>
<time>2013-11-19T13:55:49Z</time>
<speed>0.010000</speed>
<extensions>
<speed>0.0</speed>
<temp>0.00</temp>
<bpm>0</bpm>
<rpm>0.00</rpm>
</extensions>
</trkpt>
<trkpt lat="31.041271210" lon="34.720199585">
<ele>287.984375</ele>
<time>2013-11-19T13:55:54Z</time>
<speed>0.020000</speed>
<extensions>
<speed>0.0</speed>
<temp>0.00</temp>
<bpm>0</bpm>
<rpm>0.00</rpm>
</extensions>
</trkpt>
<trkpt lat="31.041271210" lon="34.720199585">
<ele>287.968750</ele>
<time>2013-11-19T13:55:59Z</time>
<speed>0.010000</speed>
<extensions>
<speed>0.0</speed>
<temp>0.00</temp>
<bpm>0</bpm>
<rpm>0.00</rpm>
</extensions>
</trkpt>
<trkpt lat="31.041271210" lon="34.720199585">
<ele>287.953125</ele>
<time>2013-11-19T13:56:04Z</time>
<speed>0.020000</speed>
<extensions>
<speed>0.0</speed>
<temp>0.00</temp>
<bpm>0</bpm>
<rpm>0.00</rpm>
</extensions>
</trkpt>
<trkpt lat="31.041271210" lon="34.720199585">
<ele>287.921875</ele>
<time>2013-11-19T13:56:09Z</time>
<speed>0.010000</speed>
<extensions>
<speed>0.0</speed>
<temp>0.00</temp>
<bpm>0</bpm>
<rpm>0.00</rpm>
</extensions>
</trkpt>
<trkpt lat="31.041271210" lon="34.720199585">
<ele>287.882813</ele>
<time>2013-11-19T13:56:14Z</time>
<speed>0.030000</speed>
<extensions>
<speed>0.0</speed>
<temp>0.00</temp>
<bpm>0</bpm>
<rpm>0.00</rpm>
</extensions>
</trkpt>
<trkpt lat="31.041271210" lon="34.720199585">
<ele>287.828125</ele>
<time>2013-11-19T13:56:19Z</time>
<speed>0.030000</speed>
<extensions>
<speed>0.0</speed>
<temp>0.00</temp>
<bpm>0</bpm>
<rpm>0.00</rpm>
</extensions>
</trkpt>
<trkpt lat="31.041269302" lon="34.720199585">
<ele>287.796875</ele>
<time>2013-11-19T13:56:24Z</time>
<speed>0.030000</speed>
<extensions>
<speed>0.0</speed>
<temp>0.00</temp>
<bpm>0</bpm>
<rpm>0.00</rpm>
</extensions>
</trkpt>
<trkpt lat="31.041269302" lon="34.720199585">
<ele>287.781250</ele>
<time>2013-11-19T13:56:29Z</time>
<extensions>
<speed>0.0</speed>
<temp>0.00</temp>
<bpm>0</bpm>
<rpm>0.00</rpm>
</extensions>
</trkpt>
<trkpt lat="31.041269302" lon="34.720199585">
<ele>287.820313</ele>
<time>2013-11-19T13:56:34Z</time>
<speed>0.020000</speed>
<extensions>
<speed>0.0</speed>
<temp>0.00</temp>
<bpm>0</bpm>
<rpm>0.00</rpm>
</extensions>
</trkpt>
<trkpt lat="31.041269302" lon="34.720199585">
<ele>287.773438</ele>
<time>2013-11-19T13:56:39Z</time>
<speed>0.020000</speed>
<extensions>
<speed>0.0</speed>
<temp>0.00</temp>
<bpm>0</bpm>
<rpm>0.00</rpm>
</extensions>
</trkpt>
<trkpt lat="31.041269302" lon="34.720199585">
<ele>287.734375</ele>
<time>2013-11-19T13:56:44Z</time>
<speed>0.010000</speed>
<extensions>
<speed>0.0</speed>
<temp>0.00</temp>
<bpm>0</bpm>
<rpm>0.00</rpm>
</extensions>
</trkpt>
<trkpt lat="31.041267395" lon="34.720199585">
<ele>287.718750</ele>
<time>2013-11-19T13:56:49Z</time>
<speed>0.020000</speed>
<extensions>
<speed>0.0</speed>
<temp>0.00</temp>
<bpm>0</bpm>
<rpm>0.00</rpm>
</extensions>
</trkpt>
<trkpt lat="31.041267395" lon="34.720199585">
<ele>287.757813</ele>
<time>2013-11-19T13:56:54Z</time>
<speed>0.020000</speed>
<extensions>
<speed>0.0</speed>
<temp>0.00</temp>
<bpm>0</bpm>
<rpm>0.00</rpm>
</extensions>
</trkpt>
<trkpt lat="31.041267395" lon="34.720199585">
<ele>287.757813</ele>
<time>2013-11-19T13:56:59Z</time>
<speed>0.010000</speed>
<extensions>
<speed>0.0</speed>
<temp>0.00</temp>
<bpm>0</bpm>
<rpm>0.00</rpm>
</extensions>
</trkpt>
<trkpt lat="31.041267395" lon="34.720199585">
<ele>287.757813</ele>
<time>2013-11-19T13:57:04Z</time>
<speed>0.010000</speed>
<extensions>
<speed>0.0</speed>
<temp>0.00</temp>
<bpm>0</bpm>
<rpm>0.00</rpm>
</extensions>
</trkpt>
<trkpt lat="31.041265488" lon="34.720199585">
<ele>287.773438</ele>
<time>2013-11-19T13:57:09Z</time>
<speed>0.030000</speed>
<extensions>
<speed>0.0</speed>
<temp>0.00</temp>
<bpm>0</bpm>
<rpm>0.00</rpm>
</extensions>
</trkpt>
<trkpt lat="31.041265488" lon="34.720199585">
<ele>287.789063</ele>
<time>2013-11-19T13:57:14Z</time>
<speed>0.010000</speed>
<extensions>
<speed>0.0</speed>
<temp>0.00</temp>
<bpm>0</bpm>
<rpm>0.00</rpm>
</extensions>
</trkpt>
<trkpt lat="31.041265488" lon="34.720199585">
<ele>287.804688</ele>
<time>2013-11-19T13:57:19Z</time>
<extensions>
<speed>0.0</speed>
<temp>0.00</temp>
<bpm>0</bpm>
<rpm>0.00</rpm>
</extensions>
</trkpt>
<trkpt lat="31.041265488" lon="34.720199585">
<ele>287.789063</ele>
<time>2013-11-19T13:57:24Z</time>
<speed>0.010000</speed>
<extensions>
<speed>0.0</speed>
<temp>0.00</temp>
<bpm>0</bpm>
<rpm>0.00</rpm>
</extensions>
</trkpt>
<trkpt lat="31.041265488" lon="34.720199585">
<ele>287.796875</ele>
<time>2013-11-19T13:57:29Z</time>
<speed>0.010000</speed>
<extensions>
<speed>0.0</speed>
<temp>0.00</temp>
<bpm>0</bpm>
<rpm>0.00</rpm>
</extensions>
</trkpt>
<trkpt lat="31.041263580" lon="34.720199585">
<ele>287.804688</ele>
<time>2013-11-19T13:57:34Z</time>
<speed>0.030000</speed>
<extensions>
<speed>0.0</speed>
<temp>0.00</temp>
<bpm>0</bpm>
<rpm>0.00</rpm>
</extensions>
</trkpt>
<trkpt lat="31.041263580" lon="34.720199585">
<ele>287.828125</ele>
<time>2013-11-19T13:57:39Z</time>
<speed>0.010000</speed>
<extensions>
<speed>0.0</speed>
<temp>0.00</temp>
<bpm>0</bpm>
<rpm>0.00</rpm>
</extensions>
</trkpt>
<trkpt lat="31.041263580" lon="34.720199585">
<ele>287.812500</ele>
<time>2013-11-19T13:57:44Z</time>
<extensions>
<speed>0.0</speed>
<temp>0.00</temp>
<bpm>0</bpm>
<rpm>0.00</rpm>
</extensions>
</trkpt>
<trkpt lat="31.041261673" lon="34.720199585">
<ele>287.820313</ele>
<time>2013-11-19T13:57:49Z</time>
<speed>0.030000</speed>
<extensions>
<speed>0.0</speed>
<temp>0.00</temp>
<bpm>0</bpm>
<rpm>0.00</rpm>
</extensions>
</trkpt>
<trkpt lat="31.041261673" lon="34.720199585">
<ele>287.859375</ele>
<time>2013-11-19T13:57:54Z</time>
<speed>0.010000</speed>
<extensions>
<speed>0.0</speed>
<temp>0.00</temp>
<bpm>0</bpm>
<rpm>0.00</rpm>
</extensions>
</trkpt>
<trkpt lat="31.041261673" lon="34.720199585">
<ele>287.882813</ele>
<time>2013-11-19T13:57:59Z</time>
<speed>0.010000</speed>
<extensions>
<speed>0.0</speed>
<temp>0.00</temp>
<bpm>0</bpm>
<rpm>0.00</rpm>
</extensions>
</trkpt>
<trkpt lat="31.041259766" lon="34.720199585">
<ele>287.898438</ele>
<time>2013-11-19T13:58:04Z</time>
<speed>0.010000</speed>
<extensions>
<speed>0.0</speed>
<temp>0.00</temp>
<bpm>0</bpm>
<rpm>0.00</rpm>
</extensions>
</trkpt>
<trkpt lat="31.041259766" lon="34.720199585">
<ele>287.890625</ele>
<time>2013-11-19T13:58:09Z</time>
<speed>0.010000</speed>
<extensions>
<speed>0.0</speed>
<temp>0.00</temp>
<bpm>0</bpm>
<rpm>0.00</rpm>
</extensions>
</trkpt>
<trkpt lat="31.041259766" lon="34.720199585">
<ele>287.945313</ele>
<time>2013-11-19T13:58:14Z</time>
<extensions>
<speed>0.0</speed>
<temp>0.00</temp>
<bpm>0</bpm>
<rpm>0.00</rpm>
</extensions>
</trkpt>
<trkpt lat="31.041259766" lon="34.720199585">
<ele>287.960938</ele>
<time>2013-11-19T13:58:19Z</time>
<speed>0.010000</speed>
<extensions>
<speed>0.0</speed>
<temp>0.00</temp>
<bpm>0</bpm>
<rpm>0.00</rpm>
</extensions>
</trkpt>
<trkpt lat="31.041259766" lon="34.720199585">
<ele>287.937500</ele>
<time>2013-11-19T13:58:24Z</time>
<extensions>
<speed>0.0</speed>
<temp>0.00</temp>
<bpm>0</bpm>
<rpm>0.00</rpm>
</extensions>
</trkpt>
<trkpt lat="31.041257858" lon="34.720199585">
<ele>287.906250</ele>
<time>2013-11-19T13:58:29Z</time>
<extensions>
<speed>0.0</speed>
<temp>0.00</temp>
<bpm>0</bpm>
<rpm>0.00</rpm>
</extensions>
</trkpt>
<trkpt lat="31.041257858" lon="34.720199585">
<ele>287.929688</ele>
<time>2013-11-19T13:58:34Z</time>
<speed>0.020000</speed>
<extensions>
<speed>0.0</speed>
<temp>0.00</temp>
<bpm>0</bpm>
<rpm>0.00</rpm>
</extensions>
</trkpt>
<trkpt lat="31.041257858" lon="34.720199585">
<ele>287.929688</ele>
<time>2013-11-19T13:58:39Z</time>
<speed>0.030000</speed>
<extensions>
<speed>0.0</speed>
<temp>0.00</temp>
<bpm>0</bpm>
<rpm>0.00</rpm>
</extensions>
</trkpt>
<trkpt lat="31.041257858" lon="34.720199585">
<ele>287.921875</ele>
<time>2013-11-19T13:58:44Z</time>
<speed>0.020000</speed>
<extensions>
<speed>0.0</speed>
<temp>0.00</temp>
<bpm>0</bpm>
<rpm>0.00</rpm>
</extensions>
</trkpt>
<trkpt lat="31.041257858" lon="34.720199585">
<ele>287.882813</ele>
<time>2013-11-19T13:58:49Z</time>
<speed>0.010000</speed>
<extensions>
<speed>0.0</speed>
<temp>0.00</temp>
<bpm>0</bpm>
<rpm>0.00</rpm>
</extensions>
</trkpt>
<trkpt lat="31.041257858" lon="34.720199585">
<ele>287.859375</ele>
<time>2013-11-19T13:58:54Z</time>
<speed>0.020000</speed>
<extensions>
<speed>0.0</speed>
<temp>0.00</temp>
<bpm>0</bpm>
<rpm>0.00</rpm>
</extensions>
</trkpt>
<trkpt lat="31.041257858" lon="34.720199585">
<ele>287.859375</ele>
<time>2013-11-19T13:58:59Z</time>
<extensions>
<speed>0.0</speed>
<temp>0.00</temp>
<bpm>0</bpm>
<rpm>0.00</rpm>
</extensions>
</trkpt>
<trkpt lat="31.041257858" lon="34.720199585">
<ele>287.875000</ele>
<time>2013-11-19T13:59:04Z</time>
<extensions>
<speed>0.0</speed>
<temp>0.00</temp>
<bpm>0</bpm>
<rpm>0.00</rpm>
</extensions>
</trkpt>
<trkpt lat="31.041257858" lon="34.720199585">
<ele>287.890625</ele>
<time>2013-11-19T13:59:09Z</time>
<speed>0.010000</speed>
<extensions>
<speed>0.0</speed>
<temp>0.00</temp>
<bpm>0</bpm>
<rpm>0.00</rpm>
</extensions>
</trkpt>
<trkpt lat="31.041257858" lon="34.720199585">
<ele>287.914063</ele>
<time>2013-11-19T13:59:14Z</time>
<speed>0.040000</speed>
<extensions>
<speed>0.0</speed>
<temp>0.00</temp>
<bpm>0</bpm>
<rpm>0.00</rpm>
</extensions>
</trkpt>
<trkpt lat="31.041255951" lon="34.720199585">
<ele>287.921875</ele>
<time>2013-11-19T13:59:19Z</time>
<speed>0.010000</speed>
<extensions>
<speed>0.0</speed>
<temp>0.00</temp>
<bpm>0</bpm>
<rpm>0.00</rpm>
</extensions>
</trkpt>
<trkpt lat="31.041255951" lon="34.720199585">
<ele>287.960938</ele>
<time>2013-11-19T13:59:24Z</time>
<extensions>
<speed>0.0</speed>
<temp>0.00</temp>
<bpm>0</bpm>
<rpm>0.00</rpm>
</extensions>
</trkpt>
<trkpt lat="31.041255951" lon="34.720199585">
<ele>287.976563</ele>
<time>2013-11-19T13:59:29Z</time>
<speed>0.020000</speed>
<extensions>
<speed>0.0</speed>
<temp>0.00</temp>
<bpm>0</bpm>
<rpm>0.00</rpm>
</extensions>
</trkpt>
<trkpt lat="31.041255951" lon="34.720199585">
<ele>287.968750</ele>
<time>2013-11-19T13:59:34Z</time>
<speed>0.010000</speed>
<extensions>
<speed>0.0</speed>
<temp>0.00</temp>
<bpm>0</bpm>
<rpm>0.00</rpm>
</extensions>
</trkpt>
<trkpt lat="31.041254044" lon="34.720199585">
<ele>287.976563</ele>
<time>2013-11-19T13:59:39Z</time>
<speed>0.020000</speed>
<extensions>
<speed>0.0</speed>
<temp>0.00</temp>
<bpm>0</bpm>
<rpm>0.00</rpm>
</extensions>
</trkpt>
<trkpt lat="31.041254044" lon="34.720199585">
<ele>287.968750</ele>
<time>2013-11-19T13:59:44Z</time>
<speed>0.010000</speed>
<extensions>
<speed>0.0</speed>
<temp>0.00</temp>
<bpm>0</bpm>
<rpm>0.00</rpm>
</extensions>
</trkpt>
<trkpt lat="31.041254044" lon="34.720199585">
<ele>287.945313</ele>
<time>2013-11-19T13:59:49Z</time>
<extensions>
<speed>0.0</speed>
<temp>0.00</temp>
<bpm>0</bpm>
<rpm>0.00</rpm>
</extensions>
</trkpt>
</trkseg>
</trk>
</gpx>